<?xml version="1.0" encoding="UTF-8" standalone="no" ?>
<gpx xmlns="http://www.topografix.com/GPX/1/1" xmlns:xsi="http://www.w3.org/2001/XMLSchema-instance" xsi:schemaLocation="http://www.topografix.com/GPX/1/1 http://www.topografix.com/GPX/1/1/gpx.xsd" version="1.1" creator="VisuGPX - https://www.visugpx.com">
  <metadata>
    <name>Voie verte vannes</name>
  </metadata>
  <trk>
    <name><![CDATA[Balade découverte Voie verte Vannes Ste Anne d'Auray avec le VCR]]></name>
    <trkseg>
      <trkpt lat="47.6515" lon="-2.75843">
        <ele>2</ele>
        <time>2021-03-16T10:08:21+01:00</time>
      </trkpt>
      <trkpt lat="47.6515" lon="-2.75843">
        <ele>2</ele>
        <time>2021-03-16T10:08:21+01:00</time>
      </trkpt>
      <trkpt lat="47.6515" lon="-2.75842">
        <ele>2</ele>
        <time>2021-03-16T10:08:21+01:00</time>
      </trkpt>
      <trkpt lat="47.65146" lon="-2.75841">
        <ele>2</ele>
        <time>2021-03-16T10:09:18+01:00</time>
      </trkpt>
      <trkpt lat="47.65142" lon="-2.75841">
        <ele>2</ele>
        <time>2021-03-16T10:09:19+01:00</time>
      </trkpt>
      <trkpt lat="47.65138" lon="-2.75843">
        <ele>2</ele>
        <time>2021-03-16T10:09:21+01:00</time>
      </trkpt>
      <trkpt lat="47.65134" lon="-2.75847">
        <ele>2</ele>
        <time>2021-03-16T10:09:23+01:00</time>
      </trkpt>
      <trkpt lat="47.65129" lon="-2.7585">
        <ele>2</ele>
        <time>2021-03-16T10:09:25+01:00</time>
      </trkpt>
      <trkpt lat="47.65126" lon="-2.75851">
        <ele>2</ele>
        <time>2021-03-16T10:09:26+01:00</time>
      </trkpt>
      <trkpt lat="47.65121" lon="-2.7585">
        <ele>2</ele>
        <time>2021-03-16T10:09:28+01:00</time>
      </trkpt>
      <trkpt lat="47.65117" lon="-2.75849">
        <ele>2</ele>
        <time>2021-03-16T10:09:30+01:00</time>
      </trkpt>
      <trkpt lat="47.65113" lon="-2.75849">
        <ele>2</ele>
        <time>2021-03-16T10:09:31+01:00</time>
      </trkpt>
      <trkpt lat="47.6511" lon="-2.75849">
        <ele>2</ele>
        <time>2021-03-16T10:09:32+01:00</time>
      </trkpt>
      <trkpt lat="47.65107" lon="-2.75849">
        <ele>2</ele>
        <time>2021-03-16T10:09:33+01:00</time>
      </trkpt>
      <trkpt lat="47.65104" lon="-2.75849">
        <ele>2</ele>
        <time>2021-03-16T10:09:34+01:00</time>
      </trkpt>
      <trkpt lat="47.65099" lon="-2.75849">
        <ele>3</ele>
        <time>2021-03-16T10:09:36+01:00</time>
      </trkpt>
      <trkpt lat="47.65095" lon="-2.75849">
        <ele>3</ele>
        <time>2021-03-16T10:09:37+01:00</time>
      </trkpt>
      <trkpt lat="47.65091" lon="-2.75848">
        <ele>3</ele>
        <time>2021-03-16T10:09:38+01:00</time>
      </trkpt>
      <trkpt lat="47.65088" lon="-2.75847">
        <ele>3</ele>
        <time>2021-03-16T10:09:39+01:00</time>
      </trkpt>
      <trkpt lat="47.65085" lon="-2.75846">
        <ele>3</ele>
        <time>2021-03-16T10:09:40+01:00</time>
      </trkpt>
      <trkpt lat="47.65082" lon="-2.75845">
        <ele>3</ele>
        <time>2021-03-16T10:09:41+01:00</time>
      </trkpt>
      <trkpt lat="47.65079" lon="-2.75844">
        <ele>3</ele>
        <time>2021-03-16T10:09:42+01:00</time>
      </trkpt>
      <trkpt lat="47.65076" lon="-2.75843">
        <ele>3</ele>
        <time>2021-03-16T10:09:43+01:00</time>
      </trkpt>
      <trkpt lat="47.65072" lon="-2.75842">
        <ele>3</ele>
        <time>2021-03-16T10:09:45+01:00</time>
      </trkpt>
      <trkpt lat="47.65068" lon="-2.75843">
        <ele>3</ele>
        <time>2021-03-16T10:09:47+01:00</time>
      </trkpt>
      <trkpt lat="47.65065" lon="-2.75845">
        <ele>3</ele>
        <time>2021-03-16T10:09:48+01:00</time>
      </trkpt>
      <trkpt lat="47.65063" lon="-2.75849">
        <ele>3</ele>
        <time>2021-03-16T10:09:49+01:00</time>
      </trkpt>
      <trkpt lat="47.65061" lon="-2.75854">
        <ele>3</ele>
        <time>2021-03-16T10:09:50+01:00</time>
      </trkpt>
      <trkpt lat="47.65059" lon="-2.75858">
        <ele>3</ele>
        <time>2021-03-16T10:09:51+01:00</time>
      </trkpt>
      <trkpt lat="47.65057" lon="-2.75862">
        <ele>3</ele>
        <time>2021-03-16T10:09:52+01:00</time>
      </trkpt>
      <trkpt lat="47.65054" lon="-2.75866">
        <ele>4</ele>
        <time>2021-03-16T10:09:53+01:00</time>
      </trkpt>
      <trkpt lat="47.65051" lon="-2.75868">
        <ele>4</ele>
        <time>2021-03-16T10:09:54+01:00</time>
      </trkpt>
      <trkpt lat="47.65049" lon="-2.7587">
        <ele>4</ele>
        <time>2021-03-16T10:09:55+01:00</time>
      </trkpt>
      <trkpt lat="47.65046" lon="-2.75871">
        <ele>4</ele>
        <time>2021-03-16T10:09:56+01:00</time>
      </trkpt>
      <trkpt lat="47.65043" lon="-2.75872">
        <ele>4</ele>
        <time>2021-03-16T10:09:57+01:00</time>
      </trkpt>
      <trkpt lat="47.6504" lon="-2.75872">
        <ele>4</ele>
        <time>2021-03-16T10:09:58+01:00</time>
      </trkpt>
      <trkpt lat="47.65036" lon="-2.75872">
        <ele>4</ele>
        <time>2021-03-16T10:09:59+01:00</time>
      </trkpt>
      <trkpt lat="47.65033" lon="-2.75871">
        <ele>4</ele>
        <time>2021-03-16T10:10:00+01:00</time>
      </trkpt>
      <trkpt lat="47.65029" lon="-2.7587">
        <ele>4</ele>
        <time>2021-03-16T10:10:01+01:00</time>
      </trkpt>
      <trkpt lat="47.65026" lon="-2.7587">
        <ele>4</ele>
        <time>2021-03-16T10:10:02+01:00</time>
      </trkpt>
      <trkpt lat="47.65023" lon="-2.75869">
        <ele>4</ele>
        <time>2021-03-16T10:10:03+01:00</time>
      </trkpt>
      <trkpt lat="47.65019" lon="-2.75869">
        <ele>4</ele>
        <time>2021-03-16T10:10:04+01:00</time>
      </trkpt>
      <trkpt lat="47.65016" lon="-2.75868">
        <ele>4</ele>
        <time>2021-03-16T10:10:05+01:00</time>
      </trkpt>
      <trkpt lat="47.65012" lon="-2.75867">
        <ele>4</ele>
        <time>2021-03-16T10:10:06+01:00</time>
      </trkpt>
      <trkpt lat="47.65009" lon="-2.75867">
        <ele>4</ele>
        <time>2021-03-16T10:10:07+01:00</time>
      </trkpt>
      <trkpt lat="47.65005" lon="-2.75866">
        <ele>4</ele>
        <time>2021-03-16T10:10:08+01:00</time>
      </trkpt>
      <trkpt lat="47.65001" lon="-2.75865">
        <ele>4</ele>
        <time>2021-03-16T10:10:09+01:00</time>
      </trkpt>
      <trkpt lat="47.64997" lon="-2.75865">
        <ele>4</ele>
        <time>2021-03-16T10:10:10+01:00</time>
      </trkpt>
      <trkpt lat="47.64992" lon="-2.75865">
        <ele>4</ele>
        <time>2021-03-16T10:10:11+01:00</time>
      </trkpt>
      <trkpt lat="47.64989" lon="-2.75864">
        <ele>4</ele>
        <time>2021-03-16T10:10:12+01:00</time>
      </trkpt>
      <trkpt lat="47.64985" lon="-2.75863">
        <ele>4</ele>
        <time>2021-03-16T10:10:13+01:00</time>
      </trkpt>
      <trkpt lat="47.64982" lon="-2.75863">
        <ele>4</ele>
        <time>2021-03-16T10:10:14+01:00</time>
      </trkpt>
      <trkpt lat="47.64978" lon="-2.75862">
        <ele>4</ele>
        <time>2021-03-16T10:10:15+01:00</time>
      </trkpt>
      <trkpt lat="47.64974" lon="-2.75861">
        <ele>4</ele>
        <time>2021-03-16T10:10:16+01:00</time>
      </trkpt>
      <trkpt lat="47.64971" lon="-2.75861">
        <ele>4</ele>
        <time>2021-03-16T10:10:17+01:00</time>
      </trkpt>
      <trkpt lat="47.64967" lon="-2.7586">
        <ele>4</ele>
        <time>2021-03-16T10:10:18+01:00</time>
      </trkpt>
      <trkpt lat="47.64964" lon="-2.75859">
        <ele>4</ele>
        <time>2021-03-16T10:10:19+01:00</time>
      </trkpt>
      <trkpt lat="47.6496" lon="-2.75859">
        <ele>4</ele>
        <time>2021-03-16T10:10:20+01:00</time>
      </trkpt>
      <trkpt lat="47.64957" lon="-2.75859">
        <ele>4</ele>
        <time>2021-03-16T10:10:21+01:00</time>
      </trkpt>
      <trkpt lat="47.64953" lon="-2.75859">
        <ele>5</ele>
        <time>2021-03-16T10:10:22+01:00</time>
      </trkpt>
      <trkpt lat="47.64949" lon="-2.75859">
        <ele>5</ele>
        <time>2021-03-16T10:10:23+01:00</time>
      </trkpt>
      <trkpt lat="47.64945" lon="-2.75858">
        <ele>5</ele>
        <time>2021-03-16T10:10:24+01:00</time>
      </trkpt>
      <trkpt lat="47.64942" lon="-2.75858">
        <ele>5</ele>
        <time>2021-03-16T10:10:25+01:00</time>
      </trkpt>
      <trkpt lat="47.64938" lon="-2.75858">
        <ele>5</ele>
        <time>2021-03-16T10:10:26+01:00</time>
      </trkpt>
      <trkpt lat="47.64934" lon="-2.75857">
        <ele>5</ele>
        <time>2021-03-16T10:10:27+01:00</time>
      </trkpt>
      <trkpt lat="47.6493" lon="-2.75857">
        <ele>5</ele>
        <time>2021-03-16T10:10:28+01:00</time>
      </trkpt>
      <trkpt lat="47.64927" lon="-2.75856">
        <ele>5</ele>
        <time>2021-03-16T10:10:29+01:00</time>
      </trkpt>
      <trkpt lat="47.64923" lon="-2.75856">
        <ele>5</ele>
        <time>2021-03-16T10:10:30+01:00</time>
      </trkpt>
      <trkpt lat="47.64919" lon="-2.75855">
        <ele>5</ele>
        <time>2021-03-16T10:10:31+01:00</time>
      </trkpt>
      <trkpt lat="47.64916" lon="-2.75855">
        <ele>5</ele>
        <time>2021-03-16T10:10:32+01:00</time>
      </trkpt>
      <trkpt lat="47.64912" lon="-2.75855">
        <ele>5</ele>
        <time>2021-03-16T10:10:33+01:00</time>
      </trkpt>
      <trkpt lat="47.64909" lon="-2.75854">
        <ele>5</ele>
        <time>2021-03-16T10:10:34+01:00</time>
      </trkpt>
      <trkpt lat="47.64905" lon="-2.75854">
        <ele>5</ele>
        <time>2021-03-16T10:10:35+01:00</time>
      </trkpt>
      <trkpt lat="47.64901" lon="-2.75853">
        <ele>5</ele>
        <time>2021-03-16T10:10:36+01:00</time>
      </trkpt>
      <trkpt lat="47.64898" lon="-2.75852">
        <ele>5</ele>
        <time>2021-03-16T10:10:37+01:00</time>
      </trkpt>
      <trkpt lat="47.64894" lon="-2.75852">
        <ele>5</ele>
        <time>2021-03-16T10:10:38+01:00</time>
      </trkpt>
      <trkpt lat="47.64891" lon="-2.75851">
        <ele>5</ele>
        <time>2021-03-16T10:10:39+01:00</time>
      </trkpt>
      <trkpt lat="47.64887" lon="-2.7585">
        <ele>5</ele>
        <time>2021-03-16T10:10:40+01:00</time>
      </trkpt>
      <trkpt lat="47.64884" lon="-2.7585">
        <ele>4</ele>
        <time>2021-03-16T10:10:41+01:00</time>
      </trkpt>
      <trkpt lat="47.6488" lon="-2.75849">
        <ele>4</ele>
        <time>2021-03-16T10:10:42+01:00</time>
      </trkpt>
      <trkpt lat="47.64876" lon="-2.75848">
        <ele>4</ele>
        <time>2021-03-16T10:10:43+01:00</time>
      </trkpt>
      <trkpt lat="47.64872" lon="-2.75847">
        <ele>4</ele>
        <time>2021-03-16T10:10:44+01:00</time>
      </trkpt>
      <trkpt lat="47.64868" lon="-2.75846">
        <ele>4</ele>
        <time>2021-03-16T10:10:45+01:00</time>
      </trkpt>
      <trkpt lat="47.64864" lon="-2.75845">
        <ele>4</ele>
        <time>2021-03-16T10:10:46+01:00</time>
      </trkpt>
      <trkpt lat="47.64861" lon="-2.75844">
        <ele>4</ele>
        <time>2021-03-16T10:10:47+01:00</time>
      </trkpt>
      <trkpt lat="47.64857" lon="-2.75844">
        <ele>4</ele>
        <time>2021-03-16T10:10:48+01:00</time>
      </trkpt>
      <trkpt lat="47.64853" lon="-2.75843">
        <ele>4</ele>
        <time>2021-03-16T10:10:49+01:00</time>
      </trkpt>
      <trkpt lat="47.6485" lon="-2.75843">
        <ele>4</ele>
        <time>2021-03-16T10:10:50+01:00</time>
      </trkpt>
      <trkpt lat="47.64846" lon="-2.75842">
        <ele>4</ele>
        <time>2021-03-16T10:10:51+01:00</time>
      </trkpt>
      <trkpt lat="47.64843" lon="-2.75842">
        <ele>4</ele>
        <time>2021-03-16T10:10:52+01:00</time>
      </trkpt>
      <trkpt lat="47.64839" lon="-2.75842">
        <ele>4</ele>
        <time>2021-03-16T10:10:53+01:00</time>
      </trkpt>
      <trkpt lat="47.64836" lon="-2.75842">
        <ele>4</ele>
        <time>2021-03-16T10:10:54+01:00</time>
      </trkpt>
      <trkpt lat="47.64832" lon="-2.75842">
        <ele>4</ele>
        <time>2021-03-16T10:10:55+01:00</time>
      </trkpt>
      <trkpt lat="47.64829" lon="-2.75842">
        <ele>4</ele>
        <time>2021-03-16T10:10:56+01:00</time>
      </trkpt>
      <trkpt lat="47.64825" lon="-2.75842">
        <ele>4</ele>
        <time>2021-03-16T10:10:57+01:00</time>
      </trkpt>
      <trkpt lat="47.64822" lon="-2.75842">
        <ele>4</ele>
        <time>2021-03-16T10:10:58+01:00</time>
      </trkpt>
      <trkpt lat="47.64818" lon="-2.75842">
        <ele>4</ele>
        <time>2021-03-16T10:10:59+01:00</time>
      </trkpt>
      <trkpt lat="47.64814" lon="-2.75843">
        <ele>4</ele>
        <time>2021-03-16T10:11:00+01:00</time>
      </trkpt>
      <trkpt lat="47.6481" lon="-2.75843">
        <ele>4</ele>
        <time>2021-03-16T10:11:01+01:00</time>
      </trkpt>
      <trkpt lat="47.64806" lon="-2.75843">
        <ele>4</ele>
        <time>2021-03-16T10:11:02+01:00</time>
      </trkpt>
      <trkpt lat="47.64802" lon="-2.75843">
        <ele>4</ele>
        <time>2021-03-16T10:11:03+01:00</time>
      </trkpt>
      <trkpt lat="47.64798" lon="-2.75842">
        <ele>4</ele>
        <time>2021-03-16T10:11:04+01:00</time>
      </trkpt>
      <trkpt lat="47.64794" lon="-2.75842">
        <ele>4</ele>
        <time>2021-03-16T10:11:05+01:00</time>
      </trkpt>
      <trkpt lat="47.64791" lon="-2.75841">
        <ele>4</ele>
        <time>2021-03-16T10:11:06+01:00</time>
      </trkpt>
      <trkpt lat="47.64787" lon="-2.75841">
        <ele>4</ele>
        <time>2021-03-16T10:11:07+01:00</time>
      </trkpt>
      <trkpt lat="47.64783" lon="-2.75841">
        <ele>4</ele>
        <time>2021-03-16T10:11:08+01:00</time>
      </trkpt>
      <trkpt lat="47.64779" lon="-2.75842">
        <ele>4</ele>
        <time>2021-03-16T10:11:09+01:00</time>
      </trkpt>
      <trkpt lat="47.64776" lon="-2.75842">
        <ele>4</ele>
        <time>2021-03-16T10:11:10+01:00</time>
      </trkpt>
      <trkpt lat="47.64773" lon="-2.75843">
        <ele>4</ele>
        <time>2021-03-16T10:11:11+01:00</time>
      </trkpt>
      <trkpt lat="47.64769" lon="-2.75843">
        <ele>4</ele>
        <time>2021-03-16T10:11:12+01:00</time>
      </trkpt>
      <trkpt lat="47.64766" lon="-2.75845">
        <ele>4</ele>
        <time>2021-03-16T10:11:13+01:00</time>
      </trkpt>
      <trkpt lat="47.64763" lon="-2.75846">
        <ele>4</ele>
        <time>2021-03-16T10:11:14+01:00</time>
      </trkpt>
      <trkpt lat="47.6476" lon="-2.75847">
        <ele>4</ele>
        <time>2021-03-16T10:11:15+01:00</time>
      </trkpt>
      <trkpt lat="47.64757" lon="-2.75847">
        <ele>4</ele>
        <time>2021-03-16T10:11:16+01:00</time>
      </trkpt>
      <trkpt lat="47.64754" lon="-2.75848">
        <ele>4</ele>
        <time>2021-03-16T10:11:17+01:00</time>
      </trkpt>
      <trkpt lat="47.64751" lon="-2.75848">
        <ele>4</ele>
        <time>2021-03-16T10:11:18+01:00</time>
      </trkpt>
      <trkpt lat="47.64748" lon="-2.75849">
        <ele>4</ele>
        <time>2021-03-16T10:11:19+01:00</time>
      </trkpt>
      <trkpt lat="47.64745" lon="-2.7585">
        <ele>4</ele>
        <time>2021-03-16T10:11:20+01:00</time>
      </trkpt>
      <trkpt lat="47.64742" lon="-2.7585">
        <ele>5</ele>
        <time>2021-03-16T10:11:21+01:00</time>
      </trkpt>
      <trkpt lat="47.64739" lon="-2.75851">
        <ele>5</ele>
        <time>2021-03-16T10:11:22+01:00</time>
      </trkpt>
      <trkpt lat="47.64736" lon="-2.75852">
        <ele>5</ele>
        <time>2021-03-16T10:11:23+01:00</time>
      </trkpt>
      <trkpt lat="47.64733" lon="-2.75852">
        <ele>5</ele>
        <time>2021-03-16T10:11:24+01:00</time>
      </trkpt>
      <trkpt lat="47.6473" lon="-2.75854">
        <ele>5</ele>
        <time>2021-03-16T10:11:25+01:00</time>
      </trkpt>
      <trkpt lat="47.64727" lon="-2.75855">
        <ele>5</ele>
        <time>2021-03-16T10:11:26+01:00</time>
      </trkpt>
      <trkpt lat="47.64723" lon="-2.75857">
        <ele>5</ele>
        <time>2021-03-16T10:11:27+01:00</time>
      </trkpt>
      <trkpt lat="47.64719" lon="-2.75858">
        <ele>5</ele>
        <time>2021-03-16T10:11:28+01:00</time>
      </trkpt>
      <trkpt lat="47.64716" lon="-2.7586">
        <ele>5</ele>
        <time>2021-03-16T10:11:29+01:00</time>
      </trkpt>
      <trkpt lat="47.64713" lon="-2.75862">
        <ele>5</ele>
        <time>2021-03-16T10:11:30+01:00</time>
      </trkpt>
      <trkpt lat="47.6471" lon="-2.75863">
        <ele>5</ele>
        <time>2021-03-16T10:11:31+01:00</time>
      </trkpt>
      <trkpt lat="47.64707" lon="-2.75865">
        <ele>5</ele>
        <time>2021-03-16T10:11:32+01:00</time>
      </trkpt>
      <trkpt lat="47.64704" lon="-2.75866">
        <ele>5</ele>
        <time>2021-03-16T10:11:33+01:00</time>
      </trkpt>
      <trkpt lat="47.64701" lon="-2.75868">
        <ele>6</ele>
        <time>2021-03-16T10:11:34+01:00</time>
      </trkpt>
      <trkpt lat="47.64698" lon="-2.75869">
        <ele>6</ele>
        <time>2021-03-16T10:11:35+01:00</time>
      </trkpt>
      <trkpt lat="47.64694" lon="-2.75871">
        <ele>6</ele>
        <time>2021-03-16T10:11:36+01:00</time>
      </trkpt>
      <trkpt lat="47.64691" lon="-2.75873">
        <ele>6</ele>
        <time>2021-03-16T10:11:37+01:00</time>
      </trkpt>
      <trkpt lat="47.64687" lon="-2.75876">
        <ele>6</ele>
        <time>2021-03-16T10:11:38+01:00</time>
      </trkpt>
      <trkpt lat="47.64684" lon="-2.75878">
        <ele>6</ele>
        <time>2021-03-16T10:11:39+01:00</time>
      </trkpt>
      <trkpt lat="47.6468" lon="-2.75881">
        <ele>6</ele>
        <time>2021-03-16T10:11:40+01:00</time>
      </trkpt>
      <trkpt lat="47.64676" lon="-2.75882">
        <ele>6</ele>
        <time>2021-03-16T10:11:41+01:00</time>
      </trkpt>
      <trkpt lat="47.64672" lon="-2.75884">
        <ele>6</ele>
        <time>2021-03-16T10:11:42+01:00</time>
      </trkpt>
      <trkpt lat="47.64668" lon="-2.75885">
        <ele>6</ele>
        <time>2021-03-16T10:11:43+01:00</time>
      </trkpt>
      <trkpt lat="47.64664" lon="-2.75887">
        <ele>6</ele>
        <time>2021-03-16T10:11:44+01:00</time>
      </trkpt>
      <trkpt lat="47.6466" lon="-2.75889">
        <ele>6</ele>
        <time>2021-03-16T10:11:45+01:00</time>
      </trkpt>
      <trkpt lat="47.64656" lon="-2.75891">
        <ele>6</ele>
        <time>2021-03-16T10:11:46+01:00</time>
      </trkpt>
      <trkpt lat="47.64652" lon="-2.75893">
        <ele>6</ele>
        <time>2021-03-16T10:11:47+01:00</time>
      </trkpt>
      <trkpt lat="47.64648" lon="-2.75895">
        <ele>6</ele>
        <time>2021-03-16T10:11:48+01:00</time>
      </trkpt>
      <trkpt lat="47.64644" lon="-2.75897">
        <ele>6</ele>
        <time>2021-03-16T10:11:49+01:00</time>
      </trkpt>
      <trkpt lat="47.6464" lon="-2.75899">
        <ele>6</ele>
        <time>2021-03-16T10:11:50+01:00</time>
      </trkpt>
      <trkpt lat="47.64636" lon="-2.75902">
        <ele>6</ele>
        <time>2021-03-16T10:11:51+01:00</time>
      </trkpt>
      <trkpt lat="47.64632" lon="-2.75904">
        <ele>6</ele>
        <time>2021-03-16T10:11:52+01:00</time>
      </trkpt>
      <trkpt lat="47.64628" lon="-2.75906">
        <ele>6</ele>
        <time>2021-03-16T10:11:53+01:00</time>
      </trkpt>
      <trkpt lat="47.64624" lon="-2.75908">
        <ele>6</ele>
        <time>2021-03-16T10:11:54+01:00</time>
      </trkpt>
      <trkpt lat="47.64621" lon="-2.7591">
        <ele>5</ele>
        <time>2021-03-16T10:11:55+01:00</time>
      </trkpt>
      <trkpt lat="47.64617" lon="-2.75912">
        <ele>5</ele>
        <time>2021-03-16T10:11:56+01:00</time>
      </trkpt>
      <trkpt lat="47.64613" lon="-2.75914">
        <ele>5</ele>
        <time>2021-03-16T10:11:57+01:00</time>
      </trkpt>
      <trkpt lat="47.64609" lon="-2.75916">
        <ele>5</ele>
        <time>2021-03-16T10:11:58+01:00</time>
      </trkpt>
      <trkpt lat="47.64606" lon="-2.75918">
        <ele>5</ele>
        <time>2021-03-16T10:11:59+01:00</time>
      </trkpt>
      <trkpt lat="47.64602" lon="-2.7592">
        <ele>5</ele>
        <time>2021-03-16T10:12:00+01:00</time>
      </trkpt>
      <trkpt lat="47.64598" lon="-2.75922">
        <ele>5</ele>
        <time>2021-03-16T10:12:01+01:00</time>
      </trkpt>
      <trkpt lat="47.64594" lon="-2.75925">
        <ele>5</ele>
        <time>2021-03-16T10:12:02+01:00</time>
      </trkpt>
      <trkpt lat="47.6459" lon="-2.75927">
        <ele>5</ele>
        <time>2021-03-16T10:12:03+01:00</time>
      </trkpt>
      <trkpt lat="47.64586" lon="-2.7593">
        <ele>5</ele>
        <time>2021-03-16T10:12:04+01:00</time>
      </trkpt>
      <trkpt lat="47.64582" lon="-2.75932">
        <ele>5</ele>
        <time>2021-03-16T10:12:05+01:00</time>
      </trkpt>
      <trkpt lat="47.64578" lon="-2.75934">
        <ele>5</ele>
        <time>2021-03-16T10:12:06+01:00</time>
      </trkpt>
      <trkpt lat="47.64575" lon="-2.75936">
        <ele>5</ele>
        <time>2021-03-16T10:12:07+01:00</time>
      </trkpt>
      <trkpt lat="47.64571" lon="-2.75937">
        <ele>4</ele>
        <time>2021-03-16T10:12:08+01:00</time>
      </trkpt>
      <trkpt lat="47.64567" lon="-2.75939">
        <ele>4</ele>
        <time>2021-03-16T10:12:09+01:00</time>
      </trkpt>
      <trkpt lat="47.64563" lon="-2.75941">
        <ele>4</ele>
        <time>2021-03-16T10:12:10+01:00</time>
      </trkpt>
      <trkpt lat="47.64559" lon="-2.75943">
        <ele>4</ele>
        <time>2021-03-16T10:12:11+01:00</time>
      </trkpt>
      <trkpt lat="47.64555" lon="-2.75945">
        <ele>4</ele>
        <time>2021-03-16T10:12:12+01:00</time>
      </trkpt>
      <trkpt lat="47.64552" lon="-2.75946">
        <ele>4</ele>
        <time>2021-03-16T10:12:13+01:00</time>
      </trkpt>
      <trkpt lat="47.64548" lon="-2.75948">
        <ele>4</ele>
        <time>2021-03-16T10:12:14+01:00</time>
      </trkpt>
      <trkpt lat="47.64544" lon="-2.7595">
        <ele>4</ele>
        <time>2021-03-16T10:12:15+01:00</time>
      </trkpt>
      <trkpt lat="47.64541" lon="-2.75952">
        <ele>4</ele>
        <time>2021-03-16T10:12:16+01:00</time>
      </trkpt>
      <trkpt lat="47.64538" lon="-2.75954">
        <ele>4</ele>
        <time>2021-03-16T10:12:17+01:00</time>
      </trkpt>
      <trkpt lat="47.64534" lon="-2.75955">
        <ele>4</ele>
        <time>2021-03-16T10:12:18+01:00</time>
      </trkpt>
      <trkpt lat="47.64531" lon="-2.75957">
        <ele>4</ele>
        <time>2021-03-16T10:12:19+01:00</time>
      </trkpt>
      <trkpt lat="47.64527" lon="-2.75958">
        <ele>3</ele>
        <time>2021-03-16T10:12:20+01:00</time>
      </trkpt>
      <trkpt lat="47.64524" lon="-2.7596">
        <ele>3</ele>
        <time>2021-03-16T10:12:21+01:00</time>
      </trkpt>
      <trkpt lat="47.6452" lon="-2.75961">
        <ele>3</ele>
        <time>2021-03-16T10:12:22+01:00</time>
      </trkpt>
      <trkpt lat="47.64516" lon="-2.75963">
        <ele>3</ele>
        <time>2021-03-16T10:12:23+01:00</time>
      </trkpt>
      <trkpt lat="47.64512" lon="-2.75964">
        <ele>3</ele>
        <time>2021-03-16T10:12:24+01:00</time>
      </trkpt>
      <trkpt lat="47.64508" lon="-2.75966">
        <ele>3</ele>
        <time>2021-03-16T10:12:25+01:00</time>
      </trkpt>
      <trkpt lat="47.64504" lon="-2.75968">
        <ele>3</ele>
        <time>2021-03-16T10:12:26+01:00</time>
      </trkpt>
      <trkpt lat="47.645" lon="-2.7597">
        <ele>3</ele>
        <time>2021-03-16T10:12:27+01:00</time>
      </trkpt>
      <trkpt lat="47.64496" lon="-2.75973">
        <ele>3</ele>
        <time>2021-03-16T10:12:28+01:00</time>
      </trkpt>
      <trkpt lat="47.64492" lon="-2.75975">
        <ele>3</ele>
        <time>2021-03-16T10:12:29+01:00</time>
      </trkpt>
      <trkpt lat="47.64489" lon="-2.75976">
        <ele>3</ele>
        <time>2021-03-16T10:12:30+01:00</time>
      </trkpt>
      <trkpt lat="47.64485" lon="-2.75978">
        <ele>3</ele>
        <time>2021-03-16T10:12:31+01:00</time>
      </trkpt>
      <trkpt lat="47.64481" lon="-2.7598">
        <ele>3</ele>
        <time>2021-03-16T10:12:32+01:00</time>
      </trkpt>
      <trkpt lat="47.64477" lon="-2.75982">
        <ele>3</ele>
        <time>2021-03-16T10:12:33+01:00</time>
      </trkpt>
      <trkpt lat="47.64474" lon="-2.75984">
        <ele>3</ele>
        <time>2021-03-16T10:12:34+01:00</time>
      </trkpt>
      <trkpt lat="47.6447" lon="-2.75986">
        <ele>3</ele>
        <time>2021-03-16T10:12:35+01:00</time>
      </trkpt>
      <trkpt lat="47.64466" lon="-2.75988">
        <ele>3</ele>
        <time>2021-03-16T10:12:36+01:00</time>
      </trkpt>
      <trkpt lat="47.64462" lon="-2.75991">
        <ele>3</ele>
        <time>2021-03-16T10:12:37+01:00</time>
      </trkpt>
      <trkpt lat="47.64458" lon="-2.75993">
        <ele>3</ele>
        <time>2021-03-16T10:12:38+01:00</time>
      </trkpt>
      <trkpt lat="47.64454" lon="-2.75995">
        <ele>3</ele>
        <time>2021-03-16T10:12:39+01:00</time>
      </trkpt>
      <trkpt lat="47.6445" lon="-2.75998">
        <ele>3</ele>
        <time>2021-03-16T10:12:40+01:00</time>
      </trkpt>
      <trkpt lat="47.64447" lon="-2.76">
        <ele>3</ele>
        <time>2021-03-16T10:12:41+01:00</time>
      </trkpt>
      <trkpt lat="47.64443" lon="-2.76003">
        <ele>3</ele>
        <time>2021-03-16T10:12:42+01:00</time>
      </trkpt>
      <trkpt lat="47.64439" lon="-2.76005">
        <ele>3</ele>
        <time>2021-03-16T10:12:43+01:00</time>
      </trkpt>
      <trkpt lat="47.64435" lon="-2.76007">
        <ele>3</ele>
        <time>2021-03-16T10:12:44+01:00</time>
      </trkpt>
      <trkpt lat="47.64431" lon="-2.76009">
        <ele>3</ele>
        <time>2021-03-16T10:12:45+01:00</time>
      </trkpt>
      <trkpt lat="47.64427" lon="-2.76011">
        <ele>3</ele>
        <time>2021-03-16T10:12:46+01:00</time>
      </trkpt>
      <trkpt lat="47.64423" lon="-2.76013">
        <ele>3</ele>
        <time>2021-03-16T10:12:47+01:00</time>
      </trkpt>
      <trkpt lat="47.64419" lon="-2.76014">
        <ele>3</ele>
        <time>2021-03-16T10:12:48+01:00</time>
      </trkpt>
      <trkpt lat="47.64415" lon="-2.76016">
        <ele>3</ele>
        <time>2021-03-16T10:12:49+01:00</time>
      </trkpt>
      <trkpt lat="47.64411" lon="-2.76018">
        <ele>3</ele>
        <time>2021-03-16T10:12:50+01:00</time>
      </trkpt>
      <trkpt lat="47.64407" lon="-2.76019">
        <ele>3</ele>
        <time>2021-03-16T10:12:51+01:00</time>
      </trkpt>
      <trkpt lat="47.64403" lon="-2.76021">
        <ele>3</ele>
        <time>2021-03-16T10:12:52+01:00</time>
      </trkpt>
      <trkpt lat="47.64399" lon="-2.76023">
        <ele>3</ele>
        <time>2021-03-16T10:12:53+01:00</time>
      </trkpt>
      <trkpt lat="47.64396" lon="-2.76025">
        <ele>3</ele>
        <time>2021-03-16T10:12:54+01:00</time>
      </trkpt>
      <trkpt lat="47.64392" lon="-2.76028">
        <ele>3</ele>
        <time>2021-03-16T10:12:55+01:00</time>
      </trkpt>
      <trkpt lat="47.64388" lon="-2.7603">
        <ele>3</ele>
        <time>2021-03-16T10:12:56+01:00</time>
      </trkpt>
      <trkpt lat="47.64384" lon="-2.76033">
        <ele>3</ele>
        <time>2021-03-16T10:12:57+01:00</time>
      </trkpt>
      <trkpt lat="47.64381" lon="-2.76035">
        <ele>3</ele>
        <time>2021-03-16T10:12:58+01:00</time>
      </trkpt>
      <trkpt lat="47.64376" lon="-2.76037">
        <ele>3</ele>
        <time>2021-03-16T10:12:59+01:00</time>
      </trkpt>
      <trkpt lat="47.64372" lon="-2.76039">
        <ele>3</ele>
        <time>2021-03-16T10:13:00+01:00</time>
      </trkpt>
      <trkpt lat="47.64368" lon="-2.76041">
        <ele>3</ele>
        <time>2021-03-16T10:13:01+01:00</time>
      </trkpt>
      <trkpt lat="47.64364" lon="-2.76043">
        <ele>3</ele>
        <time>2021-03-16T10:13:02+01:00</time>
      </trkpt>
      <trkpt lat="47.6436" lon="-2.76045">
        <ele>3</ele>
        <time>2021-03-16T10:13:03+01:00</time>
      </trkpt>
      <trkpt lat="47.64356" lon="-2.76047">
        <ele>3</ele>
        <time>2021-03-16T10:13:04+01:00</time>
      </trkpt>
      <trkpt lat="47.64351" lon="-2.76049">
        <ele>3</ele>
        <time>2021-03-16T10:13:05+01:00</time>
      </trkpt>
      <trkpt lat="47.64347" lon="-2.76052">
        <ele>3</ele>
        <time>2021-03-16T10:13:06+01:00</time>
      </trkpt>
      <trkpt lat="47.64343" lon="-2.76054">
        <ele>3</ele>
        <time>2021-03-16T10:13:07+01:00</time>
      </trkpt>
      <trkpt lat="47.64339" lon="-2.76056">
        <ele>3</ele>
        <time>2021-03-16T10:13:08+01:00</time>
      </trkpt>
      <trkpt lat="47.64335" lon="-2.76058">
        <ele>3</ele>
        <time>2021-03-16T10:13:09+01:00</time>
      </trkpt>
      <trkpt lat="47.64331" lon="-2.7606">
        <ele>3</ele>
        <time>2021-03-16T10:13:10+01:00</time>
      </trkpt>
      <trkpt lat="47.64327" lon="-2.76062">
        <ele>3</ele>
        <time>2021-03-16T10:13:11+01:00</time>
      </trkpt>
      <trkpt lat="47.64323" lon="-2.76063">
        <ele>4</ele>
        <time>2021-03-16T10:13:12+01:00</time>
      </trkpt>
      <trkpt lat="47.64319" lon="-2.76065">
        <ele>4</ele>
        <time>2021-03-16T10:13:13+01:00</time>
      </trkpt>
      <trkpt lat="47.64316" lon="-2.76066">
        <ele>4</ele>
        <time>2021-03-16T10:13:14+01:00</time>
      </trkpt>
      <trkpt lat="47.64312" lon="-2.76068">
        <ele>4</ele>
        <time>2021-03-16T10:13:15+01:00</time>
      </trkpt>
      <trkpt lat="47.64308" lon="-2.76069">
        <ele>4</ele>
        <time>2021-03-16T10:13:16+01:00</time>
      </trkpt>
      <trkpt lat="47.64304" lon="-2.76071">
        <ele>4</ele>
        <time>2021-03-16T10:13:17+01:00</time>
      </trkpt>
      <trkpt lat="47.64299" lon="-2.76072">
        <ele>4</ele>
        <time>2021-03-16T10:13:18+01:00</time>
      </trkpt>
      <trkpt lat="47.64295" lon="-2.76073">
        <ele>4</ele>
        <time>2021-03-16T10:13:19+01:00</time>
      </trkpt>
      <trkpt lat="47.6429" lon="-2.76075">
        <ele>4</ele>
        <time>2021-03-16T10:13:20+01:00</time>
      </trkpt>
      <trkpt lat="47.64286" lon="-2.76077">
        <ele>4</ele>
        <time>2021-03-16T10:13:21+01:00</time>
      </trkpt>
      <trkpt lat="47.64282" lon="-2.76078">
        <ele>4</ele>
        <time>2021-03-16T10:13:22+01:00</time>
      </trkpt>
      <trkpt lat="47.64278" lon="-2.7608">
        <ele>4</ele>
        <time>2021-03-16T10:13:23+01:00</time>
      </trkpt>
      <trkpt lat="47.64274" lon="-2.76082">
        <ele>4</ele>
        <time>2021-03-16T10:13:24+01:00</time>
      </trkpt>
      <trkpt lat="47.64271" lon="-2.76083">
        <ele>5</ele>
        <time>2021-03-16T10:13:25+01:00</time>
      </trkpt>
      <trkpt lat="47.64267" lon="-2.76084">
        <ele>5</ele>
        <time>2021-03-16T10:13:26+01:00</time>
      </trkpt>
      <trkpt lat="47.64263" lon="-2.76085">
        <ele>5</ele>
        <time>2021-03-16T10:13:27+01:00</time>
      </trkpt>
      <trkpt lat="47.6426" lon="-2.76086">
        <ele>5</ele>
        <time>2021-03-16T10:13:28+01:00</time>
      </trkpt>
      <trkpt lat="47.64256" lon="-2.76087">
        <ele>5</ele>
        <time>2021-03-16T10:13:29+01:00</time>
      </trkpt>
      <trkpt lat="47.64252" lon="-2.76088">
        <ele>5</ele>
        <time>2021-03-16T10:13:30+01:00</time>
      </trkpt>
      <trkpt lat="47.64248" lon="-2.76089">
        <ele>5</ele>
        <time>2021-03-16T10:13:31+01:00</time>
      </trkpt>
      <trkpt lat="47.64244" lon="-2.7609">
        <ele>5</ele>
        <time>2021-03-16T10:13:32+01:00</time>
      </trkpt>
      <trkpt lat="47.64241" lon="-2.76091">
        <ele>5</ele>
        <time>2021-03-16T10:13:33+01:00</time>
      </trkpt>
      <trkpt lat="47.64237" lon="-2.76092">
        <ele>5</ele>
        <time>2021-03-16T10:13:34+01:00</time>
      </trkpt>
      <trkpt lat="47.64233" lon="-2.76093">
        <ele>5</ele>
        <time>2021-03-16T10:13:35+01:00</time>
      </trkpt>
      <trkpt lat="47.64229" lon="-2.76094">
        <ele>4</ele>
        <time>2021-03-16T10:13:36+01:00</time>
      </trkpt>
      <trkpt lat="47.64226" lon="-2.76096">
        <ele>4</ele>
        <time>2021-03-16T10:13:37+01:00</time>
      </trkpt>
      <trkpt lat="47.64222" lon="-2.76097">
        <ele>4</ele>
        <time>2021-03-16T10:13:38+01:00</time>
      </trkpt>
      <trkpt lat="47.64219" lon="-2.76099">
        <ele>4</ele>
        <time>2021-03-16T10:13:39+01:00</time>
      </trkpt>
      <trkpt lat="47.64215" lon="-2.76101">
        <ele>4</ele>
        <time>2021-03-16T10:13:40+01:00</time>
      </trkpt>
      <trkpt lat="47.64211" lon="-2.76102">
        <ele>4</ele>
        <time>2021-03-16T10:13:41+01:00</time>
      </trkpt>
      <trkpt lat="47.64208" lon="-2.76104">
        <ele>4</ele>
        <time>2021-03-16T10:13:42+01:00</time>
      </trkpt>
      <trkpt lat="47.64204" lon="-2.76105">
        <ele>4</ele>
        <time>2021-03-16T10:13:43+01:00</time>
      </trkpt>
      <trkpt lat="47.642" lon="-2.76107">
        <ele>4</ele>
        <time>2021-03-16T10:13:44+01:00</time>
      </trkpt>
      <trkpt lat="47.64196" lon="-2.76109">
        <ele>4</ele>
        <time>2021-03-16T10:13:45+01:00</time>
      </trkpt>
      <trkpt lat="47.64192" lon="-2.76111">
        <ele>4</ele>
        <time>2021-03-16T10:13:46+01:00</time>
      </trkpt>
      <trkpt lat="47.64188" lon="-2.76112">
        <ele>4</ele>
        <time>2021-03-16T10:13:47+01:00</time>
      </trkpt>
      <trkpt lat="47.64184" lon="-2.76114">
        <ele>3</ele>
        <time>2021-03-16T10:13:48+01:00</time>
      </trkpt>
      <trkpt lat="47.6418" lon="-2.76115">
        <ele>3</ele>
        <time>2021-03-16T10:13:49+01:00</time>
      </trkpt>
      <trkpt lat="47.64176" lon="-2.76117">
        <ele>3</ele>
        <time>2021-03-16T10:13:50+01:00</time>
      </trkpt>
      <trkpt lat="47.64172" lon="-2.76118">
        <ele>3</ele>
        <time>2021-03-16T10:13:51+01:00</time>
      </trkpt>
      <trkpt lat="47.64168" lon="-2.76119">
        <ele>3</ele>
        <time>2021-03-16T10:13:52+01:00</time>
      </trkpt>
      <trkpt lat="47.64164" lon="-2.76121">
        <ele>3</ele>
        <time>2021-03-16T10:13:53+01:00</time>
      </trkpt>
      <trkpt lat="47.6416" lon="-2.76122">
        <ele>3</ele>
        <time>2021-03-16T10:13:54+01:00</time>
      </trkpt>
      <trkpt lat="47.64156" lon="-2.76123">
        <ele>3</ele>
        <time>2021-03-16T10:13:55+01:00</time>
      </trkpt>
      <trkpt lat="47.64152" lon="-2.76125">
        <ele>3</ele>
        <time>2021-03-16T10:13:56+01:00</time>
      </trkpt>
      <trkpt lat="47.64148" lon="-2.76126">
        <ele>3</ele>
        <time>2021-03-16T10:13:57+01:00</time>
      </trkpt>
      <trkpt lat="47.64145" lon="-2.76128">
        <ele>3</ele>
        <time>2021-03-16T10:13:58+01:00</time>
      </trkpt>
      <trkpt lat="47.64141" lon="-2.7613">
        <ele>3</ele>
        <time>2021-03-16T10:13:59+01:00</time>
      </trkpt>
      <trkpt lat="47.64137" lon="-2.76131">
        <ele>3</ele>
        <time>2021-03-16T10:14:00+01:00</time>
      </trkpt>
      <trkpt lat="47.64133" lon="-2.76133">
        <ele>3</ele>
        <time>2021-03-16T10:14:01+01:00</time>
      </trkpt>
      <trkpt lat="47.64129" lon="-2.76135">
        <ele>3</ele>
        <time>2021-03-16T10:14:02+01:00</time>
      </trkpt>
      <trkpt lat="47.64126" lon="-2.76136">
        <ele>3</ele>
        <time>2021-03-16T10:14:03+01:00</time>
      </trkpt>
      <trkpt lat="47.64122" lon="-2.76138">
        <ele>3</ele>
        <time>2021-03-16T10:14:04+01:00</time>
      </trkpt>
      <trkpt lat="47.64119" lon="-2.7614">
        <ele>3</ele>
        <time>2021-03-16T10:14:05+01:00</time>
      </trkpt>
      <trkpt lat="47.64116" lon="-2.76141">
        <ele>3</ele>
        <time>2021-03-16T10:14:06+01:00</time>
      </trkpt>
      <trkpt lat="47.64112" lon="-2.76143">
        <ele>3</ele>
        <time>2021-03-16T10:14:07+01:00</time>
      </trkpt>
      <trkpt lat="47.64109" lon="-2.76145">
        <ele>3</ele>
        <time>2021-03-16T10:14:08+01:00</time>
      </trkpt>
      <trkpt lat="47.64105" lon="-2.76148">
        <ele>3</ele>
        <time>2021-03-16T10:14:09+01:00</time>
      </trkpt>
      <trkpt lat="47.64101" lon="-2.7615">
        <ele>2</ele>
        <time>2021-03-16T10:14:10+01:00</time>
      </trkpt>
      <trkpt lat="47.64098" lon="-2.76152">
        <ele>2</ele>
        <time>2021-03-16T10:14:11+01:00</time>
      </trkpt>
      <trkpt lat="47.64094" lon="-2.76155">
        <ele>2</ele>
        <time>2021-03-16T10:14:12+01:00</time>
      </trkpt>
      <trkpt lat="47.64091" lon="-2.76158">
        <ele>2</ele>
        <time>2021-03-16T10:14:13+01:00</time>
      </trkpt>
      <trkpt lat="47.64087" lon="-2.7616">
        <ele>2</ele>
        <time>2021-03-16T10:14:14+01:00</time>
      </trkpt>
      <trkpt lat="47.64083" lon="-2.76162">
        <ele>2</ele>
        <time>2021-03-16T10:14:15+01:00</time>
      </trkpt>
      <trkpt lat="47.64079" lon="-2.76163">
        <ele>2</ele>
        <time>2021-03-16T10:14:16+01:00</time>
      </trkpt>
      <trkpt lat="47.64074" lon="-2.76164">
        <ele>2</ele>
        <time>2021-03-16T10:14:17+01:00</time>
      </trkpt>
      <trkpt lat="47.64069" lon="-2.76164">
        <ele>2</ele>
        <time>2021-03-16T10:14:18+01:00</time>
      </trkpt>
      <trkpt lat="47.64065" lon="-2.76165">
        <ele>2</ele>
        <time>2021-03-16T10:14:19+01:00</time>
      </trkpt>
      <trkpt lat="47.6406" lon="-2.76166">
        <ele>2</ele>
        <time>2021-03-16T10:14:20+01:00</time>
      </trkpt>
      <trkpt lat="47.64056" lon="-2.76167">
        <ele>2</ele>
        <time>2021-03-16T10:14:21+01:00</time>
      </trkpt>
      <trkpt lat="47.64052" lon="-2.76169">
        <ele>2</ele>
        <time>2021-03-16T10:14:22+01:00</time>
      </trkpt>
      <trkpt lat="47.64048" lon="-2.7617">
        <ele>2</ele>
        <time>2021-03-16T10:14:23+01:00</time>
      </trkpt>
      <trkpt lat="47.64045" lon="-2.76171">
        <ele>2</ele>
        <time>2021-03-16T10:14:24+01:00</time>
      </trkpt>
      <trkpt lat="47.64041" lon="-2.76173">
        <ele>2</ele>
        <time>2021-03-16T10:14:25+01:00</time>
      </trkpt>
      <trkpt lat="47.64038" lon="-2.76173">
        <ele>3</ele>
        <time>2021-03-16T10:14:26+01:00</time>
      </trkpt>
      <trkpt lat="47.64034" lon="-2.76174">
        <ele>3</ele>
        <time>2021-03-16T10:14:27+01:00</time>
      </trkpt>
      <trkpt lat="47.64031" lon="-2.76175">
        <ele>3</ele>
        <time>2021-03-16T10:14:28+01:00</time>
      </trkpt>
      <trkpt lat="47.64028" lon="-2.76177">
        <ele>3</ele>
        <time>2021-03-16T10:14:29+01:00</time>
      </trkpt>
      <trkpt lat="47.64025" lon="-2.76178">
        <ele>3</ele>
        <time>2021-03-16T10:14:30+01:00</time>
      </trkpt>
      <trkpt lat="47.64022" lon="-2.76179">
        <ele>3</ele>
        <time>2021-03-16T10:14:31+01:00</time>
      </trkpt>
      <trkpt lat="47.64019" lon="-2.7618">
        <ele>3</ele>
        <time>2021-03-16T10:14:32+01:00</time>
      </trkpt>
      <trkpt lat="47.64016" lon="-2.76182">
        <ele>3</ele>
        <time>2021-03-16T10:14:33+01:00</time>
      </trkpt>
      <trkpt lat="47.64013" lon="-2.76185">
        <ele>3</ele>
        <time>2021-03-16T10:14:34+01:00</time>
      </trkpt>
      <trkpt lat="47.64011" lon="-2.76189">
        <ele>3</ele>
        <time>2021-03-16T10:14:35+01:00</time>
      </trkpt>
      <trkpt lat="47.64008" lon="-2.76193">
        <ele>3</ele>
        <time>2021-03-16T10:14:36+01:00</time>
      </trkpt>
      <trkpt lat="47.64006" lon="-2.76198">
        <ele>3</ele>
        <time>2021-03-16T10:14:37+01:00</time>
      </trkpt>
      <trkpt lat="47.64005" lon="-2.76203">
        <ele>3</ele>
        <time>2021-03-16T10:14:38+01:00</time>
      </trkpt>
      <trkpt lat="47.64003" lon="-2.76208">
        <ele>2</ele>
        <time>2021-03-16T10:14:39+01:00</time>
      </trkpt>
      <trkpt lat="47.64002" lon="-2.76214">
        <ele>2</ele>
        <time>2021-03-16T10:14:40+01:00</time>
      </trkpt>
      <trkpt lat="47.64001" lon="-2.76219">
        <ele>2</ele>
        <time>2021-03-16T10:14:41+01:00</time>
      </trkpt>
      <trkpt lat="47.64" lon="-2.76224">
        <ele>2</ele>
        <time>2021-03-16T10:14:42+01:00</time>
      </trkpt>
      <trkpt lat="47.63999" lon="-2.76229">
        <ele>2</ele>
        <time>2021-03-16T10:14:43+01:00</time>
      </trkpt>
      <trkpt lat="47.63999" lon="-2.76235">
        <ele>2</ele>
        <time>2021-03-16T10:14:44+01:00</time>
      </trkpt>
      <trkpt lat="47.63999" lon="-2.7624">
        <ele>2</ele>
        <time>2021-03-16T10:14:45+01:00</time>
      </trkpt>
      <trkpt lat="47.64" lon="-2.76246">
        <ele>2</ele>
        <time>2021-03-16T10:14:46+01:00</time>
      </trkpt>
      <trkpt lat="47.64" lon="-2.76251">
        <ele>2</ele>
        <time>2021-03-16T10:14:47+01:00</time>
      </trkpt>
      <trkpt lat="47.64001" lon="-2.76256">
        <ele>2</ele>
        <time>2021-03-16T10:14:48+01:00</time>
      </trkpt>
      <trkpt lat="47.64002" lon="-2.76262">
        <ele>2</ele>
        <time>2021-03-16T10:14:50+01:00</time>
      </trkpt>
      <trkpt lat="47.64003" lon="-2.76267">
        <ele>2</ele>
        <time>2021-03-16T10:14:51+01:00</time>
      </trkpt>
      <trkpt lat="47.64002" lon="-2.76274">
        <ele>3</ele>
        <time>2021-03-16T10:14:53+01:00</time>
      </trkpt>
      <trkpt lat="47.64001" lon="-2.76279">
        <ele>3</ele>
        <time>2021-03-16T10:14:54+01:00</time>
      </trkpt>
      <trkpt lat="47.63999" lon="-2.76284">
        <ele>3</ele>
        <time>2021-03-16T10:14:55+01:00</time>
      </trkpt>
      <trkpt lat="47.63997" lon="-2.76289">
        <ele>3</ele>
        <time>2021-03-16T10:14:56+01:00</time>
      </trkpt>
      <trkpt lat="47.63995" lon="-2.76293">
        <ele>3</ele>
        <time>2021-03-16T10:14:57+01:00</time>
      </trkpt>
      <trkpt lat="47.63993" lon="-2.76298">
        <ele>3</ele>
        <time>2021-03-16T10:14:58+01:00</time>
      </trkpt>
      <trkpt lat="47.63992" lon="-2.76303">
        <ele>3</ele>
        <time>2021-03-16T10:14:59+01:00</time>
      </trkpt>
      <trkpt lat="47.6399" lon="-2.76307">
        <ele>3</ele>
        <time>2021-03-16T10:15:00+01:00</time>
      </trkpt>
      <trkpt lat="47.63988" lon="-2.76313">
        <ele>4</ele>
        <time>2021-03-16T10:15:01+01:00</time>
      </trkpt>
      <trkpt lat="47.63986" lon="-2.76318">
        <ele>4</ele>
        <time>2021-03-16T10:15:02+01:00</time>
      </trkpt>
      <trkpt lat="47.63984" lon="-2.76323">
        <ele>4</ele>
        <time>2021-03-16T10:15:03+01:00</time>
      </trkpt>
      <trkpt lat="47.63982" lon="-2.76327">
        <ele>4</ele>
        <time>2021-03-16T10:15:04+01:00</time>
      </trkpt>
      <trkpt lat="47.63979" lon="-2.76332">
        <ele>4</ele>
        <time>2021-03-16T10:15:05+01:00</time>
      </trkpt>
      <trkpt lat="47.63977" lon="-2.76337">
        <ele>4</ele>
        <time>2021-03-16T10:15:06+01:00</time>
      </trkpt>
      <trkpt lat="47.63975" lon="-2.76342">
        <ele>4</ele>
        <time>2021-03-16T10:15:07+01:00</time>
      </trkpt>
      <trkpt lat="47.63972" lon="-2.76347">
        <ele>4</ele>
        <time>2021-03-16T10:15:08+01:00</time>
      </trkpt>
      <trkpt lat="47.6397" lon="-2.76351">
        <ele>4</ele>
        <time>2021-03-16T10:15:09+01:00</time>
      </trkpt>
      <trkpt lat="47.63968" lon="-2.76356">
        <ele>4</ele>
        <time>2021-03-16T10:15:10+01:00</time>
      </trkpt>
      <trkpt lat="47.63965" lon="-2.7636">
        <ele>4</ele>
        <time>2021-03-16T10:15:11+01:00</time>
      </trkpt>
      <trkpt lat="47.63963" lon="-2.76365">
        <ele>4</ele>
        <time>2021-03-16T10:15:12+01:00</time>
      </trkpt>
      <trkpt lat="47.6396" lon="-2.76369">
        <ele>4</ele>
        <time>2021-03-16T10:15:13+01:00</time>
      </trkpt>
      <trkpt lat="47.63958" lon="-2.76374">
        <ele>4</ele>
        <time>2021-03-16T10:15:14+01:00</time>
      </trkpt>
      <trkpt lat="47.63955" lon="-2.76378">
        <ele>4</ele>
        <time>2021-03-16T10:15:15+01:00</time>
      </trkpt>
      <trkpt lat="47.63952" lon="-2.76382">
        <ele>4</ele>
        <time>2021-03-16T10:15:16+01:00</time>
      </trkpt>
      <trkpt lat="47.63949" lon="-2.76386">
        <ele>4</ele>
        <time>2021-03-16T10:15:17+01:00</time>
      </trkpt>
      <trkpt lat="47.63946" lon="-2.7639">
        <ele>4</ele>
        <time>2021-03-16T10:15:18+01:00</time>
      </trkpt>
      <trkpt lat="47.63943" lon="-2.76395">
        <ele>4</ele>
        <time>2021-03-16T10:15:19+01:00</time>
      </trkpt>
      <trkpt lat="47.6394" lon="-2.76399">
        <ele>4</ele>
        <time>2021-03-16T10:15:20+01:00</time>
      </trkpt>
      <trkpt lat="47.63937" lon="-2.76403">
        <ele>4</ele>
        <time>2021-03-16T10:15:21+01:00</time>
      </trkpt>
      <trkpt lat="47.63934" lon="-2.76407">
        <ele>4</ele>
        <time>2021-03-16T10:15:22+01:00</time>
      </trkpt>
      <trkpt lat="47.63932" lon="-2.76411">
        <ele>4</ele>
        <time>2021-03-16T10:15:23+01:00</time>
      </trkpt>
      <trkpt lat="47.63929" lon="-2.76415">
        <ele>4</ele>
        <time>2021-03-16T10:15:24+01:00</time>
      </trkpt>
      <trkpt lat="47.63926" lon="-2.76418">
        <ele>4</ele>
        <time>2021-03-16T10:15:25+01:00</time>
      </trkpt>
      <trkpt lat="47.63924" lon="-2.76422">
        <ele>4</ele>
        <time>2021-03-16T10:15:26+01:00</time>
      </trkpt>
      <trkpt lat="47.63921" lon="-2.76426">
        <ele>4</ele>
        <time>2021-03-16T10:15:27+01:00</time>
      </trkpt>
      <trkpt lat="47.63918" lon="-2.76429">
        <ele>4</ele>
        <time>2021-03-16T10:15:28+01:00</time>
      </trkpt>
      <trkpt lat="47.63915" lon="-2.76432">
        <ele>4</ele>
        <time>2021-03-16T10:15:29+01:00</time>
      </trkpt>
      <trkpt lat="47.63912" lon="-2.76434">
        <ele>5</ele>
        <time>2021-03-16T10:15:30+01:00</time>
      </trkpt>
      <trkpt lat="47.6391" lon="-2.76436">
        <ele>5</ele>
        <time>2021-03-16T10:15:31+01:00</time>
      </trkpt>
      <trkpt lat="47.63905" lon="-2.76438">
        <ele>5</ele>
        <time>2021-03-16T10:15:33+01:00</time>
      </trkpt>
      <trkpt lat="47.63902" lon="-2.7644">
        <ele>5</ele>
        <time>2021-03-16T10:15:35+01:00</time>
      </trkpt>
      <trkpt lat="47.63898" lon="-2.76441">
        <ele>5</ele>
        <time>2021-03-16T10:15:46+01:00</time>
      </trkpt>
      <trkpt lat="47.63895" lon="-2.7644">
        <ele>5</ele>
        <time>2021-03-16T10:15:48+01:00</time>
      </trkpt>
      <trkpt lat="47.63892" lon="-2.76436">
        <ele>5</ele>
        <time>2021-03-16T10:15:50+01:00</time>
      </trkpt>
      <trkpt lat="47.63888" lon="-2.76432">
        <ele>5</ele>
        <time>2021-03-16T10:15:52+01:00</time>
      </trkpt>
      <trkpt lat="47.63885" lon="-2.7643">
        <ele>6</ele>
        <time>2021-03-16T10:15:54+01:00</time>
      </trkpt>
      <trkpt lat="47.63881" lon="-2.76429">
        <ele>6</ele>
        <time>2021-03-16T10:15:55+01:00</time>
      </trkpt>
      <trkpt lat="47.63878" lon="-2.76428">
        <ele>6</ele>
        <time>2021-03-16T10:15:56+01:00</time>
      </trkpt>
      <trkpt lat="47.63875" lon="-2.76428">
        <ele>6</ele>
        <time>2021-03-16T10:15:57+01:00</time>
      </trkpt>
      <trkpt lat="47.63872" lon="-2.76429">
        <ele>6</ele>
        <time>2021-03-16T10:15:58+01:00</time>
      </trkpt>
      <trkpt lat="47.63869" lon="-2.76432">
        <ele>6</ele>
        <time>2021-03-16T10:16:00+01:00</time>
      </trkpt>
      <trkpt lat="47.63866" lon="-2.76436">
        <ele>6</ele>
        <time>2021-03-16T10:16:01+01:00</time>
      </trkpt>
      <trkpt lat="47.63863" lon="-2.76439">
        <ele>6</ele>
        <time>2021-03-16T10:16:02+01:00</time>
      </trkpt>
      <trkpt lat="47.63861" lon="-2.76443">
        <ele>6</ele>
        <time>2021-03-16T10:16:03+01:00</time>
      </trkpt>
      <trkpt lat="47.63859" lon="-2.76448">
        <ele>6</ele>
        <time>2021-03-16T10:16:04+01:00</time>
      </trkpt>
      <trkpt lat="47.63858" lon="-2.76454">
        <ele>6</ele>
        <time>2021-03-16T10:16:05+01:00</time>
      </trkpt>
      <trkpt lat="47.63856" lon="-2.76459">
        <ele>6</ele>
        <time>2021-03-16T10:16:06+01:00</time>
      </trkpt>
      <trkpt lat="47.63856" lon="-2.76464">
        <ele>6</ele>
        <time>2021-03-16T10:16:07+01:00</time>
      </trkpt>
      <trkpt lat="47.63855" lon="-2.76469">
        <ele>6</ele>
        <time>2021-03-16T10:16:08+01:00</time>
      </trkpt>
      <trkpt lat="47.63855" lon="-2.76474">
        <ele>6</ele>
        <time>2021-03-16T10:16:09+01:00</time>
      </trkpt>
      <trkpt lat="47.63856" lon="-2.7648">
        <ele>6</ele>
        <time>2021-03-16T10:16:10+01:00</time>
      </trkpt>
      <trkpt lat="47.63858" lon="-2.76485">
        <ele>6</ele>
        <time>2021-03-16T10:16:11+01:00</time>
      </trkpt>
      <trkpt lat="47.6386" lon="-2.7649">
        <ele>5</ele>
        <time>2021-03-16T10:16:12+01:00</time>
      </trkpt>
      <trkpt lat="47.63861" lon="-2.76494">
        <ele>5</ele>
        <time>2021-03-16T10:16:13+01:00</time>
      </trkpt>
      <trkpt lat="47.63864" lon="-2.76498">
        <ele>5</ele>
        <time>2021-03-16T10:16:14+01:00</time>
      </trkpt>
      <trkpt lat="47.63866" lon="-2.76502">
        <ele>5</ele>
        <time>2021-03-16T10:16:15+01:00</time>
      </trkpt>
      <trkpt lat="47.63868" lon="-2.76506">
        <ele>5</ele>
        <time>2021-03-16T10:16:16+01:00</time>
      </trkpt>
      <trkpt lat="47.63869" lon="-2.76511">
        <ele>5</ele>
        <time>2021-03-16T10:16:17+01:00</time>
      </trkpt>
      <trkpt lat="47.6387" lon="-2.76516">
        <ele>5</ele>
        <time>2021-03-16T10:16:18+01:00</time>
      </trkpt>
      <trkpt lat="47.63871" lon="-2.76522">
        <ele>5</ele>
        <time>2021-03-16T10:16:19+01:00</time>
      </trkpt>
      <trkpt lat="47.63872" lon="-2.76527">
        <ele>5</ele>
        <time>2021-03-16T10:16:20+01:00</time>
      </trkpt>
      <trkpt lat="47.63873" lon="-2.76532">
        <ele>5</ele>
        <time>2021-03-16T10:16:21+01:00</time>
      </trkpt>
      <trkpt lat="47.63874" lon="-2.76537">
        <ele>5</ele>
        <time>2021-03-16T10:16:22+01:00</time>
      </trkpt>
      <trkpt lat="47.63875" lon="-2.76542">
        <ele>6</ele>
        <time>2021-03-16T10:16:23+01:00</time>
      </trkpt>
      <trkpt lat="47.63876" lon="-2.76547">
        <ele>6</ele>
        <time>2021-03-16T10:16:24+01:00</time>
      </trkpt>
      <trkpt lat="47.63877" lon="-2.76551">
        <ele>6</ele>
        <time>2021-03-16T10:16:25+01:00</time>
      </trkpt>
      <trkpt lat="47.63877" lon="-2.76556">
        <ele>6</ele>
        <time>2021-03-16T10:16:26+01:00</time>
      </trkpt>
      <trkpt lat="47.63878" lon="-2.7656">
        <ele>6</ele>
        <time>2021-03-16T10:16:27+01:00</time>
      </trkpt>
      <trkpt lat="47.63877" lon="-2.76566">
        <ele>6</ele>
        <time>2021-03-16T10:16:29+01:00</time>
      </trkpt>
      <trkpt lat="47.63877" lon="-2.76571">
        <ele>6</ele>
        <time>2021-03-16T10:16:48+01:00</time>
      </trkpt>
      <trkpt lat="47.63874" lon="-2.76573">
        <ele>5</ele>
        <time>2021-03-16T10:16:50+01:00</time>
      </trkpt>
      <trkpt lat="47.6387" lon="-2.76574">
        <ele>5</ele>
        <time>2021-03-16T10:16:51+01:00</time>
      </trkpt>
      <trkpt lat="47.63867" lon="-2.76575">
        <ele>5</ele>
        <time>2021-03-16T10:16:52+01:00</time>
      </trkpt>
      <trkpt lat="47.63863" lon="-2.76575">
        <ele>5</ele>
        <time>2021-03-16T10:16:53+01:00</time>
      </trkpt>
      <trkpt lat="47.63859" lon="-2.76576">
        <ele>5</ele>
        <time>2021-03-16T10:16:54+01:00</time>
      </trkpt>
      <trkpt lat="47.63856" lon="-2.76577">
        <ele>5</ele>
        <time>2021-03-16T10:16:55+01:00</time>
      </trkpt>
      <trkpt lat="47.63852" lon="-2.76578">
        <ele>5</ele>
        <time>2021-03-16T10:16:56+01:00</time>
      </trkpt>
      <trkpt lat="47.63848" lon="-2.76578">
        <ele>5</ele>
        <time>2021-03-16T10:16:57+01:00</time>
      </trkpt>
      <trkpt lat="47.63844" lon="-2.76579">
        <ele>5</ele>
        <time>2021-03-16T10:16:58+01:00</time>
      </trkpt>
      <trkpt lat="47.6384" lon="-2.76579">
        <ele>5</ele>
        <time>2021-03-16T10:16:59+01:00</time>
      </trkpt>
      <trkpt lat="47.63836" lon="-2.7658">
        <ele>5</ele>
        <time>2021-03-16T10:17:00+01:00</time>
      </trkpt>
      <trkpt lat="47.63832" lon="-2.76581">
        <ele>5</ele>
        <time>2021-03-16T10:17:01+01:00</time>
      </trkpt>
      <trkpt lat="47.63828" lon="-2.76583">
        <ele>5</ele>
        <time>2021-03-16T10:17:02+01:00</time>
      </trkpt>
      <trkpt lat="47.63825" lon="-2.76585">
        <ele>5</ele>
        <time>2021-03-16T10:17:03+01:00</time>
      </trkpt>
      <trkpt lat="47.63822" lon="-2.76588">
        <ele>5</ele>
        <time>2021-03-16T10:17:04+01:00</time>
      </trkpt>
      <trkpt lat="47.63819" lon="-2.7659">
        <ele>5</ele>
        <time>2021-03-16T10:17:05+01:00</time>
      </trkpt>
      <trkpt lat="47.63816" lon="-2.76593">
        <ele>5</ele>
        <time>2021-03-16T10:17:06+01:00</time>
      </trkpt>
      <trkpt lat="47.63813" lon="-2.76595">
        <ele>5</ele>
        <time>2021-03-16T10:17:07+01:00</time>
      </trkpt>
      <trkpt lat="47.6381" lon="-2.76597">
        <ele>5</ele>
        <time>2021-03-16T10:17:08+01:00</time>
      </trkpt>
      <trkpt lat="47.63807" lon="-2.76599">
        <ele>4</ele>
        <time>2021-03-16T10:17:09+01:00</time>
      </trkpt>
      <trkpt lat="47.63804" lon="-2.76601">
        <ele>4</ele>
        <time>2021-03-16T10:17:10+01:00</time>
      </trkpt>
      <trkpt lat="47.63802" lon="-2.76603">
        <ele>4</ele>
        <time>2021-03-16T10:17:11+01:00</time>
      </trkpt>
      <trkpt lat="47.63799" lon="-2.76605">
        <ele>4</ele>
        <time>2021-03-16T10:17:12+01:00</time>
      </trkpt>
      <trkpt lat="47.63796" lon="-2.76606">
        <ele>4</ele>
        <time>2021-03-16T10:17:13+01:00</time>
      </trkpt>
      <trkpt lat="47.63793" lon="-2.76607">
        <ele>4</ele>
        <time>2021-03-16T10:17:14+01:00</time>
      </trkpt>
      <trkpt lat="47.63789" lon="-2.76608">
        <ele>4</ele>
        <time>2021-03-16T10:17:16+01:00</time>
      </trkpt>
      <trkpt lat="47.63786" lon="-2.76612">
        <ele>4</ele>
        <time>2021-03-16T10:17:18+01:00</time>
      </trkpt>
      <trkpt lat="47.63784" lon="-2.76616">
        <ele>4</ele>
        <time>2021-03-16T10:17:19+01:00</time>
      </trkpt>
      <trkpt lat="47.63783" lon="-2.76621">
        <ele>4</ele>
        <time>2021-03-16T10:17:20+01:00</time>
      </trkpt>
      <trkpt lat="47.63782" lon="-2.76626">
        <ele>4</ele>
        <time>2021-03-16T10:17:21+01:00</time>
      </trkpt>
      <trkpt lat="47.63782" lon="-2.76632">
        <ele>4</ele>
        <time>2021-03-16T10:17:22+01:00</time>
      </trkpt>
      <trkpt lat="47.63781" lon="-2.76637">
        <ele>4</ele>
        <time>2021-03-16T10:17:23+01:00</time>
      </trkpt>
      <trkpt lat="47.63781" lon="-2.76643">
        <ele>4</ele>
        <time>2021-03-16T10:17:24+01:00</time>
      </trkpt>
      <trkpt lat="47.63781" lon="-2.76649">
        <ele>4</ele>
        <time>2021-03-16T10:17:25+01:00</time>
      </trkpt>
      <trkpt lat="47.63781" lon="-2.76655">
        <ele>4</ele>
        <time>2021-03-16T10:17:26+01:00</time>
      </trkpt>
      <trkpt lat="47.63781" lon="-2.76661">
        <ele>4</ele>
        <time>2021-03-16T10:17:27+01:00</time>
      </trkpt>
      <trkpt lat="47.63781" lon="-2.76667">
        <ele>3</ele>
        <time>2021-03-16T10:17:28+01:00</time>
      </trkpt>
      <trkpt lat="47.63782" lon="-2.76673">
        <ele>4</ele>
        <time>2021-03-16T10:17:29+01:00</time>
      </trkpt>
      <trkpt lat="47.63783" lon="-2.76679">
        <ele>4</ele>
        <time>2021-03-16T10:17:30+01:00</time>
      </trkpt>
      <trkpt lat="47.63785" lon="-2.76684">
        <ele>4</ele>
        <time>2021-03-16T10:17:31+01:00</time>
      </trkpt>
      <trkpt lat="47.63787" lon="-2.7669">
        <ele>4</ele>
        <time>2021-03-16T10:17:32+01:00</time>
      </trkpt>
      <trkpt lat="47.63789" lon="-2.76696">
        <ele>4</ele>
        <time>2021-03-16T10:17:33+01:00</time>
      </trkpt>
      <trkpt lat="47.63792" lon="-2.76701">
        <ele>4</ele>
        <time>2021-03-16T10:17:34+01:00</time>
      </trkpt>
      <trkpt lat="47.63795" lon="-2.76706">
        <ele>4</ele>
        <time>2021-03-16T10:17:35+01:00</time>
      </trkpt>
      <trkpt lat="47.638" lon="-2.7671">
        <ele>5</ele>
        <time>2021-03-16T10:17:36+01:00</time>
      </trkpt>
      <trkpt lat="47.63804" lon="-2.76714">
        <ele>5</ele>
        <time>2021-03-16T10:17:37+01:00</time>
      </trkpt>
      <trkpt lat="47.63809" lon="-2.76717">
        <ele>5</ele>
        <time>2021-03-16T10:17:38+01:00</time>
      </trkpt>
      <trkpt lat="47.63814" lon="-2.76719">
        <ele>5</ele>
        <time>2021-03-16T10:17:39+01:00</time>
      </trkpt>
      <trkpt lat="47.63818" lon="-2.76722">
        <ele>5</ele>
        <time>2021-03-16T10:17:40+01:00</time>
      </trkpt>
      <trkpt lat="47.63822" lon="-2.76725">
        <ele>5</ele>
        <time>2021-03-16T10:17:41+01:00</time>
      </trkpt>
      <trkpt lat="47.63827" lon="-2.76728">
        <ele>5</ele>
        <time>2021-03-16T10:17:42+01:00</time>
      </trkpt>
      <trkpt lat="47.63831" lon="-2.7673">
        <ele>5</ele>
        <time>2021-03-16T10:17:43+01:00</time>
      </trkpt>
      <trkpt lat="47.63835" lon="-2.76732">
        <ele>5</ele>
        <time>2021-03-16T10:17:44+01:00</time>
      </trkpt>
      <trkpt lat="47.63838" lon="-2.76733">
        <ele>5</ele>
        <time>2021-03-16T10:17:45+01:00</time>
      </trkpt>
      <trkpt lat="47.63842" lon="-2.76734">
        <ele>5</ele>
        <time>2021-03-16T10:17:46+01:00</time>
      </trkpt>
      <trkpt lat="47.63845" lon="-2.76735">
        <ele>5</ele>
        <time>2021-03-16T10:17:47+01:00</time>
      </trkpt>
      <trkpt lat="47.6385" lon="-2.76734">
        <ele>5</ele>
        <time>2021-03-16T10:17:49+01:00</time>
      </trkpt>
      <trkpt lat="47.63855" lon="-2.76732">
        <ele>5</ele>
        <time>2021-03-16T10:17:51+01:00</time>
      </trkpt>
      <trkpt lat="47.63859" lon="-2.7673">
        <ele>5</ele>
        <time>2021-03-16T10:17:52+01:00</time>
      </trkpt>
      <trkpt lat="47.63863" lon="-2.76729">
        <ele>6</ele>
        <time>2021-03-16T10:17:53+01:00</time>
      </trkpt>
      <trkpt lat="47.63867" lon="-2.76728">
        <ele>6</ele>
        <time>2021-03-16T10:17:54+01:00</time>
      </trkpt>
      <trkpt lat="47.63871" lon="-2.76729">
        <ele>6</ele>
        <time>2021-03-16T10:17:55+01:00</time>
      </trkpt>
      <trkpt lat="47.63875" lon="-2.7673">
        <ele>6</ele>
        <time>2021-03-16T10:17:56+01:00</time>
      </trkpt>
      <trkpt lat="47.63879" lon="-2.76733">
        <ele>6</ele>
        <time>2021-03-16T10:17:57+01:00</time>
      </trkpt>
      <trkpt lat="47.63881" lon="-2.76735">
        <ele>6</ele>
        <time>2021-03-16T10:17:58+01:00</time>
      </trkpt>
      <trkpt lat="47.63884" lon="-2.76738">
        <ele>6</ele>
        <time>2021-03-16T10:17:59+01:00</time>
      </trkpt>
      <trkpt lat="47.63887" lon="-2.76741">
        <ele>6</ele>
        <time>2021-03-16T10:18:00+01:00</time>
      </trkpt>
      <trkpt lat="47.63889" lon="-2.76743">
        <ele>6</ele>
        <time>2021-03-16T10:18:01+01:00</time>
      </trkpt>
      <trkpt lat="47.63892" lon="-2.76746">
        <ele>6</ele>
        <time>2021-03-16T10:18:02+01:00</time>
      </trkpt>
      <trkpt lat="47.63893" lon="-2.7675">
        <ele>6</ele>
        <time>2021-03-16T10:18:03+01:00</time>
      </trkpt>
      <trkpt lat="47.63895" lon="-2.76754">
        <ele>6</ele>
        <time>2021-03-16T10:18:04+01:00</time>
      </trkpt>
      <trkpt lat="47.63896" lon="-2.76758">
        <ele>6</ele>
        <time>2021-03-16T10:18:05+01:00</time>
      </trkpt>
      <trkpt lat="47.63898" lon="-2.76763">
        <ele>6</ele>
        <time>2021-03-16T10:18:06+01:00</time>
      </trkpt>
      <trkpt lat="47.63899" lon="-2.76767">
        <ele>6</ele>
        <time>2021-03-16T10:18:07+01:00</time>
      </trkpt>
      <trkpt lat="47.63901" lon="-2.76771">
        <ele>6</ele>
        <time>2021-03-16T10:18:08+01:00</time>
      </trkpt>
      <trkpt lat="47.63903" lon="-2.76776">
        <ele>6</ele>
        <time>2021-03-16T10:18:09+01:00</time>
      </trkpt>
      <trkpt lat="47.63905" lon="-2.7678">
        <ele>6</ele>
        <time>2021-03-16T10:18:10+01:00</time>
      </trkpt>
      <trkpt lat="47.63907" lon="-2.76785">
        <ele>6</ele>
        <time>2021-03-16T10:18:11+01:00</time>
      </trkpt>
      <trkpt lat="47.63908" lon="-2.76789">
        <ele>6</ele>
        <time>2021-03-16T10:18:12+01:00</time>
      </trkpt>
      <trkpt lat="47.6391" lon="-2.76794">
        <ele>6</ele>
        <time>2021-03-16T10:18:13+01:00</time>
      </trkpt>
      <trkpt lat="47.63912" lon="-2.76798">
        <ele>6</ele>
        <time>2021-03-16T10:18:14+01:00</time>
      </trkpt>
      <trkpt lat="47.63913" lon="-2.76803">
        <ele>7</ele>
        <time>2021-03-16T10:18:15+01:00</time>
      </trkpt>
      <trkpt lat="47.63914" lon="-2.76807">
        <ele>7</ele>
        <time>2021-03-16T10:18:16+01:00</time>
      </trkpt>
      <trkpt lat="47.63916" lon="-2.76812">
        <ele>7</ele>
        <time>2021-03-16T10:18:17+01:00</time>
      </trkpt>
      <trkpt lat="47.63918" lon="-2.76817">
        <ele>7</ele>
        <time>2021-03-16T10:18:18+01:00</time>
      </trkpt>
      <trkpt lat="47.6392" lon="-2.76821">
        <ele>7</ele>
        <time>2021-03-16T10:18:19+01:00</time>
      </trkpt>
      <trkpt lat="47.63921" lon="-2.76826">
        <ele>7</ele>
        <time>2021-03-16T10:18:20+01:00</time>
      </trkpt>
      <trkpt lat="47.63923" lon="-2.7683">
        <ele>7</ele>
        <time>2021-03-16T10:18:21+01:00</time>
      </trkpt>
      <trkpt lat="47.63925" lon="-2.76834">
        <ele>7</ele>
        <time>2021-03-16T10:18:22+01:00</time>
      </trkpt>
      <trkpt lat="47.63926" lon="-2.76838">
        <ele>7</ele>
        <time>2021-03-16T10:18:23+01:00</time>
      </trkpt>
      <trkpt lat="47.63928" lon="-2.76841">
        <ele>7</ele>
        <time>2021-03-16T10:18:24+01:00</time>
      </trkpt>
      <trkpt lat="47.6393" lon="-2.76845">
        <ele>8</ele>
        <time>2021-03-16T10:18:25+01:00</time>
      </trkpt>
      <trkpt lat="47.63932" lon="-2.76849">
        <ele>8</ele>
        <time>2021-03-16T10:18:26+01:00</time>
      </trkpt>
      <trkpt lat="47.63934" lon="-2.76853">
        <ele>8</ele>
        <time>2021-03-16T10:18:27+01:00</time>
      </trkpt>
      <trkpt lat="47.63936" lon="-2.76857">
        <ele>8</ele>
        <time>2021-03-16T10:18:28+01:00</time>
      </trkpt>
      <trkpt lat="47.63938" lon="-2.76861">
        <ele>8</ele>
        <time>2021-03-16T10:18:29+01:00</time>
      </trkpt>
      <trkpt lat="47.6394" lon="-2.76865">
        <ele>8</ele>
        <time>2021-03-16T10:18:30+01:00</time>
      </trkpt>
      <trkpt lat="47.63943" lon="-2.76869">
        <ele>9</ele>
        <time>2021-03-16T10:18:31+01:00</time>
      </trkpt>
      <trkpt lat="47.63945" lon="-2.76872">
        <ele>9</ele>
        <time>2021-03-16T10:18:32+01:00</time>
      </trkpt>
      <trkpt lat="47.63948" lon="-2.76874">
        <ele>9</ele>
        <time>2021-03-16T10:18:33+01:00</time>
      </trkpt>
      <trkpt lat="47.6395" lon="-2.76877">
        <ele>9</ele>
        <time>2021-03-16T10:18:34+01:00</time>
      </trkpt>
      <trkpt lat="47.63952" lon="-2.7688">
        <ele>9</ele>
        <time>2021-03-16T10:18:35+01:00</time>
      </trkpt>
      <trkpt lat="47.63954" lon="-2.76883">
        <ele>9</ele>
        <time>2021-03-16T10:18:36+01:00</time>
      </trkpt>
      <trkpt lat="47.63957" lon="-2.76885">
        <ele>9</ele>
        <time>2021-03-16T10:18:37+01:00</time>
      </trkpt>
      <trkpt lat="47.63959" lon="-2.76888">
        <ele>9</ele>
        <time>2021-03-16T10:18:38+01:00</time>
      </trkpt>
      <trkpt lat="47.63961" lon="-2.76891">
        <ele>10</ele>
        <time>2021-03-16T10:18:39+01:00</time>
      </trkpt>
      <trkpt lat="47.63963" lon="-2.76893">
        <ele>10</ele>
        <time>2021-03-16T10:18:40+01:00</time>
      </trkpt>
      <trkpt lat="47.63965" lon="-2.76896">
        <ele>10</ele>
        <time>2021-03-16T10:18:41+01:00</time>
      </trkpt>
      <trkpt lat="47.63968" lon="-2.76901">
        <ele>10</ele>
        <time>2021-03-16T10:18:43+01:00</time>
      </trkpt>
      <trkpt lat="47.63972" lon="-2.76905">
        <ele>10</ele>
        <time>2021-03-16T10:18:45+01:00</time>
      </trkpt>
      <trkpt lat="47.63975" lon="-2.76911">
        <ele>10</ele>
        <time>2021-03-16T10:18:47+01:00</time>
      </trkpt>
      <trkpt lat="47.63978" lon="-2.76915">
        <ele>11</ele>
        <time>2021-03-16T10:18:48+01:00</time>
      </trkpt>
      <trkpt lat="47.6398" lon="-2.76918">
        <ele>11</ele>
        <time>2021-03-16T10:18:49+01:00</time>
      </trkpt>
      <trkpt lat="47.63984" lon="-2.76922">
        <ele>11</ele>
        <time>2021-03-16T10:18:51+01:00</time>
      </trkpt>
      <trkpt lat="47.63988" lon="-2.76926">
        <ele>11</ele>
        <time>2021-03-16T10:18:53+01:00</time>
      </trkpt>
      <trkpt lat="47.63991" lon="-2.76929">
        <ele>11</ele>
        <time>2021-03-16T10:18:54+01:00</time>
      </trkpt>
      <trkpt lat="47.63994" lon="-2.7693">
        <ele>11</ele>
        <time>2021-03-16T10:18:55+01:00</time>
      </trkpt>
      <trkpt lat="47.63997" lon="-2.76931">
        <ele>11</ele>
        <time>2021-03-16T10:18:56+01:00</time>
      </trkpt>
      <trkpt lat="47.64" lon="-2.76933">
        <ele>11</ele>
        <time>2021-03-16T10:18:57+01:00</time>
      </trkpt>
      <trkpt lat="47.64003" lon="-2.76936">
        <ele>12</ele>
        <time>2021-03-16T10:18:58+01:00</time>
      </trkpt>
      <trkpt lat="47.64005" lon="-2.7694">
        <ele>12</ele>
        <time>2021-03-16T10:18:59+01:00</time>
      </trkpt>
      <trkpt lat="47.64007" lon="-2.76944">
        <ele>12</ele>
        <time>2021-03-16T10:19:00+01:00</time>
      </trkpt>
      <trkpt lat="47.6401" lon="-2.76948">
        <ele>12</ele>
        <time>2021-03-16T10:19:02+01:00</time>
      </trkpt>
      <trkpt lat="47.64014" lon="-2.76952">
        <ele>12</ele>
        <time>2021-03-16T10:19:03+01:00</time>
      </trkpt>
      <trkpt lat="47.64018" lon="-2.76954">
        <ele>12</ele>
        <time>2021-03-16T10:19:04+01:00</time>
      </trkpt>
      <trkpt lat="47.64021" lon="-2.76957">
        <ele>12</ele>
        <time>2021-03-16T10:19:05+01:00</time>
      </trkpt>
      <trkpt lat="47.64025" lon="-2.7696">
        <ele>12</ele>
        <time>2021-03-16T10:19:06+01:00</time>
      </trkpt>
      <trkpt lat="47.64028" lon="-2.76963">
        <ele>13</ele>
        <time>2021-03-16T10:19:07+01:00</time>
      </trkpt>
      <trkpt lat="47.64031" lon="-2.76967">
        <ele>13</ele>
        <time>2021-03-16T10:19:08+01:00</time>
      </trkpt>
      <trkpt lat="47.64033" lon="-2.76971">
        <ele>13</ele>
        <time>2021-03-16T10:19:09+01:00</time>
      </trkpt>
      <trkpt lat="47.64036" lon="-2.76975">
        <ele>13</ele>
        <time>2021-03-16T10:19:10+01:00</time>
      </trkpt>
      <trkpt lat="47.64037" lon="-2.76978">
        <ele>13</ele>
        <time>2021-03-16T10:19:11+01:00</time>
      </trkpt>
      <trkpt lat="47.64041" lon="-2.76983">
        <ele>13</ele>
        <time>2021-03-16T10:19:13+01:00</time>
      </trkpt>
      <trkpt lat="47.64044" lon="-2.76987">
        <ele>13</ele>
        <time>2021-03-16T10:19:14+01:00</time>
      </trkpt>
      <trkpt lat="47.64047" lon="-2.76991">
        <ele>13</ele>
        <time>2021-03-16T10:19:15+01:00</time>
      </trkpt>
      <trkpt lat="47.6405" lon="-2.76994">
        <ele>13</ele>
        <time>2021-03-16T10:19:16+01:00</time>
      </trkpt>
      <trkpt lat="47.64052" lon="-2.76998">
        <ele>14</ele>
        <time>2021-03-16T10:19:17+01:00</time>
      </trkpt>
      <trkpt lat="47.64056" lon="-2.77001">
        <ele>14</ele>
        <time>2021-03-16T10:19:18+01:00</time>
      </trkpt>
      <trkpt lat="47.64059" lon="-2.77004">
        <ele>14</ele>
        <time>2021-03-16T10:19:19+01:00</time>
      </trkpt>
      <trkpt lat="47.64062" lon="-2.77008">
        <ele>14</ele>
        <time>2021-03-16T10:19:20+01:00</time>
      </trkpt>
      <trkpt lat="47.64065" lon="-2.77011">
        <ele>14</ele>
        <time>2021-03-16T10:19:21+01:00</time>
      </trkpt>
      <trkpt lat="47.64068" lon="-2.77014">
        <ele>14</ele>
        <time>2021-03-16T10:19:22+01:00</time>
      </trkpt>
      <trkpt lat="47.64071" lon="-2.77016">
        <ele>14</ele>
        <time>2021-03-16T10:19:23+01:00</time>
      </trkpt>
      <trkpt lat="47.64073" lon="-2.77019">
        <ele>14</ele>
        <time>2021-03-16T10:19:24+01:00</time>
      </trkpt>
      <trkpt lat="47.64076" lon="-2.77021">
        <ele>14</ele>
        <time>2021-03-16T10:19:25+01:00</time>
      </trkpt>
      <trkpt lat="47.64078" lon="-2.77024">
        <ele>14</ele>
        <time>2021-03-16T10:19:26+01:00</time>
      </trkpt>
      <trkpt lat="47.64081" lon="-2.77026">
        <ele>14</ele>
        <time>2021-03-16T10:19:27+01:00</time>
      </trkpt>
      <trkpt lat="47.64084" lon="-2.77028">
        <ele>14</ele>
        <time>2021-03-16T10:19:28+01:00</time>
      </trkpt>
      <trkpt lat="47.64088" lon="-2.77031">
        <ele>14</ele>
        <time>2021-03-16T10:19:29+01:00</time>
      </trkpt>
      <trkpt lat="47.64091" lon="-2.77034">
        <ele>14</ele>
        <time>2021-03-16T10:19:30+01:00</time>
      </trkpt>
      <trkpt lat="47.64094" lon="-2.77037">
        <ele>14</ele>
        <time>2021-03-16T10:19:31+01:00</time>
      </trkpt>
      <trkpt lat="47.64097" lon="-2.7704">
        <ele>14</ele>
        <time>2021-03-16T10:19:32+01:00</time>
      </trkpt>
      <trkpt lat="47.64099" lon="-2.77043">
        <ele>15</ele>
        <time>2021-03-16T10:19:33+01:00</time>
      </trkpt>
      <trkpt lat="47.64102" lon="-2.77046">
        <ele>15</ele>
        <time>2021-03-16T10:19:34+01:00</time>
      </trkpt>
      <trkpt lat="47.64104" lon="-2.77049">
        <ele>15</ele>
        <time>2021-03-16T10:19:35+01:00</time>
      </trkpt>
      <trkpt lat="47.64107" lon="-2.77053">
        <ele>15</ele>
        <time>2021-03-16T10:19:36+01:00</time>
      </trkpt>
      <trkpt lat="47.6411" lon="-2.77056">
        <ele>15</ele>
        <time>2021-03-16T10:19:37+01:00</time>
      </trkpt>
      <trkpt lat="47.64113" lon="-2.7706">
        <ele>15</ele>
        <time>2021-03-16T10:19:38+01:00</time>
      </trkpt>
      <trkpt lat="47.64115" lon="-2.77063">
        <ele>15</ele>
        <time>2021-03-16T10:19:39+01:00</time>
      </trkpt>
      <trkpt lat="47.64117" lon="-2.77067">
        <ele>15</ele>
        <time>2021-03-16T10:19:40+01:00</time>
      </trkpt>
      <trkpt lat="47.64119" lon="-2.77071">
        <ele>15</ele>
        <time>2021-03-16T10:19:41+01:00</time>
      </trkpt>
      <trkpt lat="47.64121" lon="-2.77074">
        <ele>15</ele>
        <time>2021-03-16T10:19:42+01:00</time>
      </trkpt>
      <trkpt lat="47.64123" lon="-2.77076">
        <ele>15</ele>
        <time>2021-03-16T10:19:43+01:00</time>
      </trkpt>
      <trkpt lat="47.64127" lon="-2.77077">
        <ele>15</ele>
        <time>2021-03-16T10:19:44+01:00</time>
      </trkpt>
      <trkpt lat="47.6413" lon="-2.77077">
        <ele>15</ele>
        <time>2021-03-16T10:19:45+01:00</time>
      </trkpt>
      <trkpt lat="47.64135" lon="-2.77077">
        <ele>15</ele>
        <time>2021-03-16T10:19:46+01:00</time>
      </trkpt>
      <trkpt lat="47.64139" lon="-2.77077">
        <ele>15</ele>
        <time>2021-03-16T10:19:47+01:00</time>
      </trkpt>
      <trkpt lat="47.64143" lon="-2.77079">
        <ele>15</ele>
        <time>2021-03-16T10:19:48+01:00</time>
      </trkpt>
      <trkpt lat="47.64147" lon="-2.77082">
        <ele>15</ele>
        <time>2021-03-16T10:19:49+01:00</time>
      </trkpt>
      <trkpt lat="47.64149" lon="-2.77086">
        <ele>15</ele>
        <time>2021-03-16T10:19:50+01:00</time>
      </trkpt>
      <trkpt lat="47.64151" lon="-2.7709">
        <ele>15</ele>
        <time>2021-03-16T10:19:51+01:00</time>
      </trkpt>
      <trkpt lat="47.64152" lon="-2.77096">
        <ele>15</ele>
        <time>2021-03-16T10:19:52+01:00</time>
      </trkpt>
      <trkpt lat="47.64153" lon="-2.77102">
        <ele>15</ele>
        <time>2021-03-16T10:19:53+01:00</time>
      </trkpt>
      <trkpt lat="47.64153" lon="-2.77108">
        <ele>15</ele>
        <time>2021-03-16T10:19:54+01:00</time>
      </trkpt>
      <trkpt lat="47.64153" lon="-2.77114">
        <ele>15</ele>
        <time>2021-03-16T10:19:55+01:00</time>
      </trkpt>
      <trkpt lat="47.64153" lon="-2.7712">
        <ele>15</ele>
        <time>2021-03-16T10:19:56+01:00</time>
      </trkpt>
      <trkpt lat="47.64152" lon="-2.77126">
        <ele>16</ele>
        <time>2021-03-16T10:19:57+01:00</time>
      </trkpt>
      <trkpt lat="47.6415" lon="-2.77131">
        <ele>16</ele>
        <time>2021-03-16T10:19:58+01:00</time>
      </trkpt>
      <trkpt lat="47.64149" lon="-2.77136">
        <ele>16</ele>
        <time>2021-03-16T10:19:59+01:00</time>
      </trkpt>
      <trkpt lat="47.64148" lon="-2.77141">
        <ele>16</ele>
        <time>2021-03-16T10:20:00+01:00</time>
      </trkpt>
      <trkpt lat="47.64148" lon="-2.77146">
        <ele>16</ele>
        <time>2021-03-16T10:20:01+01:00</time>
      </trkpt>
      <trkpt lat="47.64149" lon="-2.77151">
        <ele>16</ele>
        <time>2021-03-16T10:20:02+01:00</time>
      </trkpt>
      <trkpt lat="47.6415" lon="-2.77156">
        <ele>16</ele>
        <time>2021-03-16T10:20:03+01:00</time>
      </trkpt>
      <trkpt lat="47.64151" lon="-2.7716">
        <ele>16</ele>
        <time>2021-03-16T10:20:04+01:00</time>
      </trkpt>
      <trkpt lat="47.64152" lon="-2.77164">
        <ele>16</ele>
        <time>2021-03-16T10:20:05+01:00</time>
      </trkpt>
      <trkpt lat="47.64153" lon="-2.77169">
        <ele>16</ele>
        <time>2021-03-16T10:20:06+01:00</time>
      </trkpt>
      <trkpt lat="47.64154" lon="-2.77173">
        <ele>16</ele>
        <time>2021-03-16T10:20:07+01:00</time>
      </trkpt>
      <trkpt lat="47.64154" lon="-2.77177">
        <ele>16</ele>
        <time>2021-03-16T10:20:08+01:00</time>
      </trkpt>
      <trkpt lat="47.64155" lon="-2.77182">
        <ele>16</ele>
        <time>2021-03-16T10:20:09+01:00</time>
      </trkpt>
      <trkpt lat="47.64156" lon="-2.77186">
        <ele>16</ele>
        <time>2021-03-16T10:20:10+01:00</time>
      </trkpt>
      <trkpt lat="47.64156" lon="-2.7719">
        <ele>16</ele>
        <time>2021-03-16T10:20:11+01:00</time>
      </trkpt>
      <trkpt lat="47.64157" lon="-2.77195">
        <ele>16</ele>
        <time>2021-03-16T10:20:12+01:00</time>
      </trkpt>
      <trkpt lat="47.64157" lon="-2.77199">
        <ele>16</ele>
        <time>2021-03-16T10:20:13+01:00</time>
      </trkpt>
      <trkpt lat="47.64157" lon="-2.77204">
        <ele>16</ele>
        <time>2021-03-16T10:20:14+01:00</time>
      </trkpt>
      <trkpt lat="47.64158" lon="-2.77208">
        <ele>17</ele>
        <time>2021-03-16T10:20:15+01:00</time>
      </trkpt>
      <trkpt lat="47.64159" lon="-2.77213">
        <ele>17</ele>
        <time>2021-03-16T10:20:16+01:00</time>
      </trkpt>
      <trkpt lat="47.64159" lon="-2.77219">
        <ele>17</ele>
        <time>2021-03-16T10:20:17+01:00</time>
      </trkpt>
      <trkpt lat="47.6416" lon="-2.77224">
        <ele>17</ele>
        <time>2021-03-16T10:20:18+01:00</time>
      </trkpt>
      <trkpt lat="47.6416" lon="-2.77229">
        <ele>17</ele>
        <time>2021-03-16T10:20:19+01:00</time>
      </trkpt>
      <trkpt lat="47.64161" lon="-2.77234">
        <ele>17</ele>
        <time>2021-03-16T10:20:20+01:00</time>
      </trkpt>
      <trkpt lat="47.64161" lon="-2.77238">
        <ele>17</ele>
        <time>2021-03-16T10:20:21+01:00</time>
      </trkpt>
      <trkpt lat="47.64162" lon="-2.77243">
        <ele>17</ele>
        <time>2021-03-16T10:20:22+01:00</time>
      </trkpt>
      <trkpt lat="47.64162" lon="-2.77248">
        <ele>17</ele>
        <time>2021-03-16T10:20:23+01:00</time>
      </trkpt>
      <trkpt lat="47.64163" lon="-2.77253">
        <ele>17</ele>
        <time>2021-03-16T10:20:24+01:00</time>
      </trkpt>
      <trkpt lat="47.64163" lon="-2.77259">
        <ele>17</ele>
        <time>2021-03-16T10:20:25+01:00</time>
      </trkpt>
      <trkpt lat="47.64163" lon="-2.77264">
        <ele>17</ele>
        <time>2021-03-16T10:20:26+01:00</time>
      </trkpt>
      <trkpt lat="47.64164" lon="-2.77269">
        <ele>17</ele>
        <time>2021-03-16T10:20:27+01:00</time>
      </trkpt>
      <trkpt lat="47.64164" lon="-2.77274">
        <ele>18</ele>
        <time>2021-03-16T10:20:28+01:00</time>
      </trkpt>
      <trkpt lat="47.64165" lon="-2.77279">
        <ele>18</ele>
        <time>2021-03-16T10:20:29+01:00</time>
      </trkpt>
      <trkpt lat="47.64165" lon="-2.77283">
        <ele>18</ele>
        <time>2021-03-16T10:20:30+01:00</time>
      </trkpt>
      <trkpt lat="47.64166" lon="-2.77287">
        <ele>18</ele>
        <time>2021-03-16T10:20:31+01:00</time>
      </trkpt>
      <trkpt lat="47.64166" lon="-2.77292">
        <ele>18</ele>
        <time>2021-03-16T10:20:32+01:00</time>
      </trkpt>
      <trkpt lat="47.64167" lon="-2.77296">
        <ele>18</ele>
        <time>2021-03-16T10:20:33+01:00</time>
      </trkpt>
      <trkpt lat="47.64167" lon="-2.77301">
        <ele>18</ele>
        <time>2021-03-16T10:20:34+01:00</time>
      </trkpt>
      <trkpt lat="47.64167" lon="-2.77305">
        <ele>18</ele>
        <time>2021-03-16T10:20:35+01:00</time>
      </trkpt>
      <trkpt lat="47.64167" lon="-2.7731">
        <ele>18</ele>
        <time>2021-03-16T10:20:36+01:00</time>
      </trkpt>
      <trkpt lat="47.64168" lon="-2.77314">
        <ele>19</ele>
        <time>2021-03-16T10:20:37+01:00</time>
      </trkpt>
      <trkpt lat="47.64168" lon="-2.77318">
        <ele>19</ele>
        <time>2021-03-16T10:20:38+01:00</time>
      </trkpt>
      <trkpt lat="47.64169" lon="-2.77322">
        <ele>19</ele>
        <time>2021-03-16T10:20:39+01:00</time>
      </trkpt>
      <trkpt lat="47.6417" lon="-2.77327">
        <ele>19</ele>
        <time>2021-03-16T10:20:40+01:00</time>
      </trkpt>
      <trkpt lat="47.6417" lon="-2.77332">
        <ele>19</ele>
        <time>2021-03-16T10:20:41+01:00</time>
      </trkpt>
      <trkpt lat="47.6417" lon="-2.77336">
        <ele>19</ele>
        <time>2021-03-16T10:20:42+01:00</time>
      </trkpt>
      <trkpt lat="47.64171" lon="-2.77343">
        <ele>19</ele>
        <time>2021-03-16T10:20:44+01:00</time>
      </trkpt>
      <trkpt lat="47.64171" lon="-2.77348">
        <ele>19</ele>
        <time>2021-03-16T10:20:45+01:00</time>
      </trkpt>
      <trkpt lat="47.64171" lon="-2.77352">
        <ele>19</ele>
        <time>2021-03-16T10:20:46+01:00</time>
      </trkpt>
      <trkpt lat="47.64172" lon="-2.77357">
        <ele>19</ele>
        <time>2021-03-16T10:20:47+01:00</time>
      </trkpt>
      <trkpt lat="47.64172" lon="-2.77361">
        <ele>19</ele>
        <time>2021-03-16T10:20:48+01:00</time>
      </trkpt>
      <trkpt lat="47.64173" lon="-2.77366">
        <ele>19</ele>
        <time>2021-03-16T10:20:49+01:00</time>
      </trkpt>
      <trkpt lat="47.64174" lon="-2.7737">
        <ele>19</ele>
        <time>2021-03-16T10:20:50+01:00</time>
      </trkpt>
      <trkpt lat="47.64175" lon="-2.77375">
        <ele>19</ele>
        <time>2021-03-16T10:20:51+01:00</time>
      </trkpt>
      <trkpt lat="47.64176" lon="-2.77379">
        <ele>19</ele>
        <time>2021-03-16T10:20:52+01:00</time>
      </trkpt>
      <trkpt lat="47.64177" lon="-2.77383">
        <ele>19</ele>
        <time>2021-03-16T10:20:53+01:00</time>
      </trkpt>
      <trkpt lat="47.64177" lon="-2.77388">
        <ele>19</ele>
        <time>2021-03-16T10:20:54+01:00</time>
      </trkpt>
      <trkpt lat="47.64178" lon="-2.77392">
        <ele>20</ele>
        <time>2021-03-16T10:20:55+01:00</time>
      </trkpt>
      <trkpt lat="47.64178" lon="-2.77396">
        <ele>20</ele>
        <time>2021-03-16T10:20:56+01:00</time>
      </trkpt>
      <trkpt lat="47.64179" lon="-2.77401">
        <ele>20</ele>
        <time>2021-03-16T10:20:57+01:00</time>
      </trkpt>
      <trkpt lat="47.64179" lon="-2.77405">
        <ele>20</ele>
        <time>2021-03-16T10:20:58+01:00</time>
      </trkpt>
      <trkpt lat="47.6418" lon="-2.7741">
        <ele>20</ele>
        <time>2021-03-16T10:20:59+01:00</time>
      </trkpt>
      <trkpt lat="47.64181" lon="-2.77414">
        <ele>20</ele>
        <time>2021-03-16T10:21:00+01:00</time>
      </trkpt>
      <trkpt lat="47.64181" lon="-2.77419">
        <ele>20</ele>
        <time>2021-03-16T10:21:01+01:00</time>
      </trkpt>
      <trkpt lat="47.64182" lon="-2.77423">
        <ele>20</ele>
        <time>2021-03-16T10:21:02+01:00</time>
      </trkpt>
      <trkpt lat="47.64182" lon="-2.77428">
        <ele>20</ele>
        <time>2021-03-16T10:21:03+01:00</time>
      </trkpt>
      <trkpt lat="47.64183" lon="-2.77432">
        <ele>20</ele>
        <time>2021-03-16T10:21:04+01:00</time>
      </trkpt>
      <trkpt lat="47.64183" lon="-2.77437">
        <ele>21</ele>
        <time>2021-03-16T10:21:05+01:00</time>
      </trkpt>
      <trkpt lat="47.64184" lon="-2.77441">
        <ele>21</ele>
        <time>2021-03-16T10:21:06+01:00</time>
      </trkpt>
      <trkpt lat="47.64185" lon="-2.77445">
        <ele>21</ele>
        <time>2021-03-16T10:21:07+01:00</time>
      </trkpt>
      <trkpt lat="47.64186" lon="-2.7745">
        <ele>21</ele>
        <time>2021-03-16T10:21:08+01:00</time>
      </trkpt>
      <trkpt lat="47.64187" lon="-2.77455">
        <ele>21</ele>
        <time>2021-03-16T10:21:09+01:00</time>
      </trkpt>
      <trkpt lat="47.64188" lon="-2.7746">
        <ele>21</ele>
        <time>2021-03-16T10:21:10+01:00</time>
      </trkpt>
      <trkpt lat="47.6419" lon="-2.77464">
        <ele>22</ele>
        <time>2021-03-16T10:21:11+01:00</time>
      </trkpt>
      <trkpt lat="47.64191" lon="-2.77469">
        <ele>22</ele>
        <time>2021-03-16T10:21:12+01:00</time>
      </trkpt>
      <trkpt lat="47.64192" lon="-2.77473">
        <ele>22</ele>
        <time>2021-03-16T10:21:13+01:00</time>
      </trkpt>
      <trkpt lat="47.64193" lon="-2.77477">
        <ele>22</ele>
        <time>2021-03-16T10:21:14+01:00</time>
      </trkpt>
      <trkpt lat="47.64194" lon="-2.77481">
        <ele>22</ele>
        <time>2021-03-16T10:21:15+01:00</time>
      </trkpt>
      <trkpt lat="47.64195" lon="-2.77485">
        <ele>22</ele>
        <time>2021-03-16T10:21:16+01:00</time>
      </trkpt>
      <trkpt lat="47.64196" lon="-2.77489">
        <ele>22</ele>
        <time>2021-03-16T10:21:17+01:00</time>
      </trkpt>
      <trkpt lat="47.64198" lon="-2.77493">
        <ele>22</ele>
        <time>2021-03-16T10:21:18+01:00</time>
      </trkpt>
      <trkpt lat="47.64199" lon="-2.77497">
        <ele>22</ele>
        <time>2021-03-16T10:21:19+01:00</time>
      </trkpt>
      <trkpt lat="47.642" lon="-2.77501">
        <ele>22</ele>
        <time>2021-03-16T10:21:20+01:00</time>
      </trkpt>
      <trkpt lat="47.64202" lon="-2.77507">
        <ele>22</ele>
        <time>2021-03-16T10:21:22+01:00</time>
      </trkpt>
      <trkpt lat="47.64205" lon="-2.77513">
        <ele>22</ele>
        <time>2021-03-16T10:21:24+01:00</time>
      </trkpt>
      <trkpt lat="47.64207" lon="-2.7752">
        <ele>23</ele>
        <time>2021-03-16T10:21:26+01:00</time>
      </trkpt>
      <trkpt lat="47.64209" lon="-2.77528">
        <ele>23</ele>
        <time>2021-03-16T10:21:28+01:00</time>
      </trkpt>
      <trkpt lat="47.64211" lon="-2.77533">
        <ele>23</ele>
        <time>2021-03-16T10:21:29+01:00</time>
      </trkpt>
      <trkpt lat="47.64213" lon="-2.77538">
        <ele>23</ele>
        <time>2021-03-16T10:21:30+01:00</time>
      </trkpt>
      <trkpt lat="47.64215" lon="-2.77542">
        <ele>23</ele>
        <time>2021-03-16T10:21:31+01:00</time>
      </trkpt>
      <trkpt lat="47.64216" lon="-2.77546">
        <ele>23</ele>
        <time>2021-03-16T10:21:32+01:00</time>
      </trkpt>
      <trkpt lat="47.64218" lon="-2.77551">
        <ele>23</ele>
        <time>2021-03-16T10:21:33+01:00</time>
      </trkpt>
      <trkpt lat="47.6422" lon="-2.77556">
        <ele>23</ele>
        <time>2021-03-16T10:21:34+01:00</time>
      </trkpt>
      <trkpt lat="47.64223" lon="-2.77561">
        <ele>23</ele>
        <time>2021-03-16T10:21:35+01:00</time>
      </trkpt>
      <trkpt lat="47.64225" lon="-2.77566">
        <ele>23</ele>
        <time>2021-03-16T10:21:36+01:00</time>
      </trkpt>
      <trkpt lat="47.64228" lon="-2.77571">
        <ele>23</ele>
        <time>2021-03-16T10:21:37+01:00</time>
      </trkpt>
      <trkpt lat="47.64231" lon="-2.77577">
        <ele>23</ele>
        <time>2021-03-16T10:21:38+01:00</time>
      </trkpt>
      <trkpt lat="47.64234" lon="-2.77581">
        <ele>23</ele>
        <time>2021-03-16T10:21:39+01:00</time>
      </trkpt>
      <trkpt lat="47.64238" lon="-2.77586">
        <ele>23</ele>
        <time>2021-03-16T10:21:40+01:00</time>
      </trkpt>
      <trkpt lat="47.64241" lon="-2.77591">
        <ele>22</ele>
        <time>2021-03-16T10:21:41+01:00</time>
      </trkpt>
      <trkpt lat="47.64244" lon="-2.77596">
        <ele>22</ele>
        <time>2021-03-16T10:21:42+01:00</time>
      </trkpt>
      <trkpt lat="47.64248" lon="-2.776">
        <ele>22</ele>
        <time>2021-03-16T10:21:43+01:00</time>
      </trkpt>
      <trkpt lat="47.64251" lon="-2.77605">
        <ele>22</ele>
        <time>2021-03-16T10:21:44+01:00</time>
      </trkpt>
      <trkpt lat="47.64255" lon="-2.7761">
        <ele>22</ele>
        <time>2021-03-16T10:21:45+01:00</time>
      </trkpt>
      <trkpt lat="47.64259" lon="-2.77614">
        <ele>22</ele>
        <time>2021-03-16T10:21:46+01:00</time>
      </trkpt>
      <trkpt lat="47.64264" lon="-2.77618">
        <ele>21</ele>
        <time>2021-03-16T10:21:47+01:00</time>
      </trkpt>
      <trkpt lat="47.64268" lon="-2.77623">
        <ele>21</ele>
        <time>2021-03-16T10:21:48+01:00</time>
      </trkpt>
      <trkpt lat="47.64272" lon="-2.77627">
        <ele>21</ele>
        <time>2021-03-16T10:21:49+01:00</time>
      </trkpt>
      <trkpt lat="47.64277" lon="-2.77631">
        <ele>21</ele>
        <time>2021-03-16T10:21:50+01:00</time>
      </trkpt>
      <trkpt lat="47.6428" lon="-2.77635">
        <ele>21</ele>
        <time>2021-03-16T10:21:51+01:00</time>
      </trkpt>
      <trkpt lat="47.64284" lon="-2.77639">
        <ele>21</ele>
        <time>2021-03-16T10:21:52+01:00</time>
      </trkpt>
      <trkpt lat="47.64286" lon="-2.77643">
        <ele>21</ele>
        <time>2021-03-16T10:21:53+01:00</time>
      </trkpt>
      <trkpt lat="47.64289" lon="-2.77646">
        <ele>21</ele>
        <time>2021-03-16T10:21:54+01:00</time>
      </trkpt>
      <trkpt lat="47.64292" lon="-2.7765">
        <ele>21</ele>
        <time>2021-03-16T10:21:55+01:00</time>
      </trkpt>
      <trkpt lat="47.64295" lon="-2.77654">
        <ele>21</ele>
        <time>2021-03-16T10:21:56+01:00</time>
      </trkpt>
      <trkpt lat="47.64299" lon="-2.77658">
        <ele>21</ele>
        <time>2021-03-16T10:21:57+01:00</time>
      </trkpt>
      <trkpt lat="47.64302" lon="-2.77663">
        <ele>21</ele>
        <time>2021-03-16T10:21:58+01:00</time>
      </trkpt>
      <trkpt lat="47.64306" lon="-2.77667">
        <ele>21</ele>
        <time>2021-03-16T10:21:59+01:00</time>
      </trkpt>
      <trkpt lat="47.6431" lon="-2.77672">
        <ele>21</ele>
        <time>2021-03-16T10:22:00+01:00</time>
      </trkpt>
      <trkpt lat="47.64314" lon="-2.77677">
        <ele>21</ele>
        <time>2021-03-16T10:22:01+01:00</time>
      </trkpt>
      <trkpt lat="47.64319" lon="-2.77683">
        <ele>21</ele>
        <time>2021-03-16T10:22:02+01:00</time>
      </trkpt>
      <trkpt lat="47.64324" lon="-2.77689">
        <ele>21</ele>
        <time>2021-03-16T10:22:03+01:00</time>
      </trkpt>
      <trkpt lat="47.64329" lon="-2.77694">
        <ele>21</ele>
        <time>2021-03-16T10:22:04+01:00</time>
      </trkpt>
      <trkpt lat="47.64333" lon="-2.777">
        <ele>21</ele>
        <time>2021-03-16T10:22:05+01:00</time>
      </trkpt>
      <trkpt lat="47.64338" lon="-2.77705">
        <ele>20</ele>
        <time>2021-03-16T10:22:06+01:00</time>
      </trkpt>
      <trkpt lat="47.64343" lon="-2.77711">
        <ele>20</ele>
        <time>2021-03-16T10:22:07+01:00</time>
      </trkpt>
      <trkpt lat="47.64348" lon="-2.77715">
        <ele>20</ele>
        <time>2021-03-16T10:22:08+01:00</time>
      </trkpt>
      <trkpt lat="47.64353" lon="-2.77721">
        <ele>20</ele>
        <time>2021-03-16T10:22:09+01:00</time>
      </trkpt>
      <trkpt lat="47.64358" lon="-2.77725">
        <ele>20</ele>
        <time>2021-03-16T10:22:10+01:00</time>
      </trkpt>
      <trkpt lat="47.64362" lon="-2.77729">
        <ele>20</ele>
        <time>2021-03-16T10:22:11+01:00</time>
      </trkpt>
      <trkpt lat="47.64366" lon="-2.77733">
        <ele>20</ele>
        <time>2021-03-16T10:22:12+01:00</time>
      </trkpt>
      <trkpt lat="47.64369" lon="-2.77737">
        <ele>20</ele>
        <time>2021-03-16T10:22:13+01:00</time>
      </trkpt>
      <trkpt lat="47.64373" lon="-2.7774">
        <ele>20</ele>
        <time>2021-03-16T10:22:14+01:00</time>
      </trkpt>
      <trkpt lat="47.64376" lon="-2.77743">
        <ele>20</ele>
        <time>2021-03-16T10:22:15+01:00</time>
      </trkpt>
      <trkpt lat="47.64379" lon="-2.77746">
        <ele>20</ele>
        <time>2021-03-16T10:22:16+01:00</time>
      </trkpt>
      <trkpt lat="47.64382" lon="-2.7775">
        <ele>20</ele>
        <time>2021-03-16T10:22:17+01:00</time>
      </trkpt>
      <trkpt lat="47.64385" lon="-2.77753">
        <ele>20</ele>
        <time>2021-03-16T10:22:18+01:00</time>
      </trkpt>
      <trkpt lat="47.64388" lon="-2.77757">
        <ele>20</ele>
        <time>2021-03-16T10:22:19+01:00</time>
      </trkpt>
      <trkpt lat="47.64391" lon="-2.7776">
        <ele>20</ele>
        <time>2021-03-16T10:22:20+01:00</time>
      </trkpt>
      <trkpt lat="47.64395" lon="-2.77764">
        <ele>20</ele>
        <time>2021-03-16T10:22:21+01:00</time>
      </trkpt>
      <trkpt lat="47.64398" lon="-2.77767">
        <ele>20</ele>
        <time>2021-03-16T10:22:22+01:00</time>
      </trkpt>
      <trkpt lat="47.64402" lon="-2.77771">
        <ele>20</ele>
        <time>2021-03-16T10:22:23+01:00</time>
      </trkpt>
      <trkpt lat="47.64406" lon="-2.77775">
        <ele>20</ele>
        <time>2021-03-16T10:22:24+01:00</time>
      </trkpt>
      <trkpt lat="47.6441" lon="-2.77778">
        <ele>20</ele>
        <time>2021-03-16T10:22:25+01:00</time>
      </trkpt>
      <trkpt lat="47.64413" lon="-2.77782">
        <ele>20</ele>
        <time>2021-03-16T10:22:26+01:00</time>
      </trkpt>
      <trkpt lat="47.64417" lon="-2.77786">
        <ele>20</ele>
        <time>2021-03-16T10:22:27+01:00</time>
      </trkpt>
      <trkpt lat="47.64421" lon="-2.7779">
        <ele>20</ele>
        <time>2021-03-16T10:22:28+01:00</time>
      </trkpt>
      <trkpt lat="47.64426" lon="-2.77795">
        <ele>20</ele>
        <time>2021-03-16T10:22:29+01:00</time>
      </trkpt>
      <trkpt lat="47.64431" lon="-2.77799">
        <ele>19</ele>
        <time>2021-03-16T10:22:30+01:00</time>
      </trkpt>
      <trkpt lat="47.64435" lon="-2.77804">
        <ele>19</ele>
        <time>2021-03-16T10:22:31+01:00</time>
      </trkpt>
      <trkpt lat="47.6444" lon="-2.77808">
        <ele>19</ele>
        <time>2021-03-16T10:22:32+01:00</time>
      </trkpt>
      <trkpt lat="47.64444" lon="-2.77812">
        <ele>19</ele>
        <time>2021-03-16T10:22:33+01:00</time>
      </trkpt>
      <trkpt lat="47.64448" lon="-2.77816">
        <ele>19</ele>
        <time>2021-03-16T10:22:34+01:00</time>
      </trkpt>
      <trkpt lat="47.64452" lon="-2.77819">
        <ele>19</ele>
        <time>2021-03-16T10:22:35+01:00</time>
      </trkpt>
      <trkpt lat="47.64456" lon="-2.77823">
        <ele>19</ele>
        <time>2021-03-16T10:22:36+01:00</time>
      </trkpt>
      <trkpt lat="47.64459" lon="-2.77826">
        <ele>18</ele>
        <time>2021-03-16T10:22:37+01:00</time>
      </trkpt>
      <trkpt lat="47.64463" lon="-2.7783">
        <ele>18</ele>
        <time>2021-03-16T10:22:38+01:00</time>
      </trkpt>
      <trkpt lat="47.64467" lon="-2.77833">
        <ele>18</ele>
        <time>2021-03-16T10:22:39+01:00</time>
      </trkpt>
      <trkpt lat="47.6447" lon="-2.77837">
        <ele>18</ele>
        <time>2021-03-16T10:22:40+01:00</time>
      </trkpt>
      <trkpt lat="47.64474" lon="-2.7784">
        <ele>18</ele>
        <time>2021-03-16T10:22:41+01:00</time>
      </trkpt>
      <trkpt lat="47.64478" lon="-2.77844">
        <ele>18</ele>
        <time>2021-03-16T10:22:42+01:00</time>
      </trkpt>
      <trkpt lat="47.64481" lon="-2.77847">
        <ele>18</ele>
        <time>2021-03-16T10:22:43+01:00</time>
      </trkpt>
      <trkpt lat="47.64484" lon="-2.7785">
        <ele>18</ele>
        <time>2021-03-16T10:22:44+01:00</time>
      </trkpt>
      <trkpt lat="47.64487" lon="-2.77853">
        <ele>18</ele>
        <time>2021-03-16T10:22:45+01:00</time>
      </trkpt>
      <trkpt lat="47.6449" lon="-2.77857">
        <ele>18</ele>
        <time>2021-03-16T10:22:46+01:00</time>
      </trkpt>
      <trkpt lat="47.64493" lon="-2.7786">
        <ele>18</ele>
        <time>2021-03-16T10:22:47+01:00</time>
      </trkpt>
      <trkpt lat="47.64496" lon="-2.77863">
        <ele>17</ele>
        <time>2021-03-16T10:22:48+01:00</time>
      </trkpt>
      <trkpt lat="47.64499" lon="-2.77867">
        <ele>17</ele>
        <time>2021-03-16T10:22:49+01:00</time>
      </trkpt>
      <trkpt lat="47.64502" lon="-2.7787">
        <ele>17</ele>
        <time>2021-03-16T10:22:50+01:00</time>
      </trkpt>
      <trkpt lat="47.64504" lon="-2.77874">
        <ele>18</ele>
        <time>2021-03-16T10:22:51+01:00</time>
      </trkpt>
      <trkpt lat="47.64507" lon="-2.77877">
        <ele>18</ele>
        <time>2021-03-16T10:22:52+01:00</time>
      </trkpt>
      <trkpt lat="47.6451" lon="-2.7788">
        <ele>18</ele>
        <time>2021-03-16T10:22:53+01:00</time>
      </trkpt>
      <trkpt lat="47.64513" lon="-2.77884">
        <ele>18</ele>
        <time>2021-03-16T10:22:54+01:00</time>
      </trkpt>
      <trkpt lat="47.64516" lon="-2.77887">
        <ele>18</ele>
        <time>2021-03-16T10:22:55+01:00</time>
      </trkpt>
      <trkpt lat="47.6452" lon="-2.7789">
        <ele>18</ele>
        <time>2021-03-16T10:22:56+01:00</time>
      </trkpt>
      <trkpt lat="47.64523" lon="-2.77894">
        <ele>18</ele>
        <time>2021-03-16T10:22:57+01:00</time>
      </trkpt>
      <trkpt lat="47.64528" lon="-2.77899">
        <ele>18</ele>
        <time>2021-03-16T10:22:59+01:00</time>
      </trkpt>
      <trkpt lat="47.64532" lon="-2.77903">
        <ele>18</ele>
        <time>2021-03-16T10:23:00+01:00</time>
      </trkpt>
      <trkpt lat="47.64535" lon="-2.77907">
        <ele>18</ele>
        <time>2021-03-16T10:23:01+01:00</time>
      </trkpt>
      <trkpt lat="47.64539" lon="-2.7791">
        <ele>18</ele>
        <time>2021-03-16T10:23:02+01:00</time>
      </trkpt>
      <trkpt lat="47.64541" lon="-2.77914">
        <ele>18</ele>
        <time>2021-03-16T10:23:03+01:00</time>
      </trkpt>
      <trkpt lat="47.64544" lon="-2.77917">
        <ele>17</ele>
        <time>2021-03-16T10:23:04+01:00</time>
      </trkpt>
      <trkpt lat="47.64547" lon="-2.77921">
        <ele>17</ele>
        <time>2021-03-16T10:23:05+01:00</time>
      </trkpt>
      <trkpt lat="47.6455" lon="-2.77925">
        <ele>17</ele>
        <time>2021-03-16T10:23:06+01:00</time>
      </trkpt>
      <trkpt lat="47.64553" lon="-2.77929">
        <ele>17</ele>
        <time>2021-03-16T10:23:07+01:00</time>
      </trkpt>
      <trkpt lat="47.64556" lon="-2.77933">
        <ele>17</ele>
        <time>2021-03-16T10:23:08+01:00</time>
      </trkpt>
      <trkpt lat="47.64559" lon="-2.77936">
        <ele>17</ele>
        <time>2021-03-16T10:23:09+01:00</time>
      </trkpt>
      <trkpt lat="47.64563" lon="-2.7794">
        <ele>17</ele>
        <time>2021-03-16T10:23:10+01:00</time>
      </trkpt>
      <trkpt lat="47.64566" lon="-2.77944">
        <ele>16</ele>
        <time>2021-03-16T10:23:11+01:00</time>
      </trkpt>
      <trkpt lat="47.6457" lon="-2.77948">
        <ele>16</ele>
        <time>2021-03-16T10:23:12+01:00</time>
      </trkpt>
      <trkpt lat="47.64574" lon="-2.77953">
        <ele>16</ele>
        <time>2021-03-16T10:23:13+01:00</time>
      </trkpt>
      <trkpt lat="47.64578" lon="-2.77957">
        <ele>16</ele>
        <time>2021-03-16T10:23:14+01:00</time>
      </trkpt>
      <trkpt lat="47.64582" lon="-2.77962">
        <ele>15</ele>
        <time>2021-03-16T10:23:15+01:00</time>
      </trkpt>
      <trkpt lat="47.64585" lon="-2.77966">
        <ele>15</ele>
        <time>2021-03-16T10:23:16+01:00</time>
      </trkpt>
      <trkpt lat="47.64589" lon="-2.7797">
        <ele>15</ele>
        <time>2021-03-16T10:23:17+01:00</time>
      </trkpt>
      <trkpt lat="47.64591" lon="-2.77974">
        <ele>15</ele>
        <time>2021-03-16T10:23:18+01:00</time>
      </trkpt>
      <trkpt lat="47.64594" lon="-2.77977">
        <ele>15</ele>
        <time>2021-03-16T10:23:19+01:00</time>
      </trkpt>
      <trkpt lat="47.64597" lon="-2.77979">
        <ele>14</ele>
        <time>2021-03-16T10:23:20+01:00</time>
      </trkpt>
      <trkpt lat="47.646" lon="-2.77982">
        <ele>14</ele>
        <time>2021-03-16T10:23:21+01:00</time>
      </trkpt>
      <trkpt lat="47.64602" lon="-2.77984">
        <ele>14</ele>
        <time>2021-03-16T10:23:22+01:00</time>
      </trkpt>
      <trkpt lat="47.64605" lon="-2.77988">
        <ele>14</ele>
        <time>2021-03-16T10:23:24+01:00</time>
      </trkpt>
      <trkpt lat="47.64608" lon="-2.77992">
        <ele>14</ele>
        <time>2021-03-16T10:23:26+01:00</time>
      </trkpt>
      <trkpt lat="47.64611" lon="-2.77995">
        <ele>14</ele>
        <time>2021-03-16T10:23:28+01:00</time>
      </trkpt>
      <trkpt lat="47.64614" lon="-2.77998">
        <ele>13</ele>
        <time>2021-03-16T10:23:31+01:00</time>
      </trkpt>
      <trkpt lat="47.64617" lon="-2.78001">
        <ele>13</ele>
        <time>2021-03-16T10:23:47+01:00</time>
      </trkpt>
      <trkpt lat="47.6462" lon="-2.78003">
        <ele>13</ele>
        <time>2021-03-16T10:23:49+01:00</time>
      </trkpt>
      <trkpt lat="47.64622" lon="-2.78006">
        <ele>13</ele>
        <time>2021-03-16T10:23:50+01:00</time>
      </trkpt>
      <trkpt lat="47.64625" lon="-2.78008">
        <ele>13</ele>
        <time>2021-03-16T10:23:51+01:00</time>
      </trkpt>
      <trkpt lat="47.64627" lon="-2.78011">
        <ele>12</ele>
        <time>2021-03-16T10:23:52+01:00</time>
      </trkpt>
      <trkpt lat="47.6463" lon="-2.78014">
        <ele>12</ele>
        <time>2021-03-16T10:23:53+01:00</time>
      </trkpt>
      <trkpt lat="47.64633" lon="-2.78017">
        <ele>12</ele>
        <time>2021-03-16T10:23:55+01:00</time>
      </trkpt>
      <trkpt lat="47.64636" lon="-2.7802">
        <ele>12</ele>
        <time>2021-03-16T10:23:56+01:00</time>
      </trkpt>
      <trkpt lat="47.64639" lon="-2.78022">
        <ele>12</ele>
        <time>2021-03-16T10:23:57+01:00</time>
      </trkpt>
      <trkpt lat="47.64642" lon="-2.78025">
        <ele>11</ele>
        <time>2021-03-16T10:23:58+01:00</time>
      </trkpt>
      <trkpt lat="47.64645" lon="-2.78028">
        <ele>11</ele>
        <time>2021-03-16T10:23:59+01:00</time>
      </trkpt>
      <trkpt lat="47.64649" lon="-2.78032">
        <ele>11</ele>
        <time>2021-03-16T10:24:00+01:00</time>
      </trkpt>
      <trkpt lat="47.64653" lon="-2.78037">
        <ele>11</ele>
        <time>2021-03-16T10:24:01+01:00</time>
      </trkpt>
      <trkpt lat="47.64656" lon="-2.78042">
        <ele>10</ele>
        <time>2021-03-16T10:24:02+01:00</time>
      </trkpt>
      <trkpt lat="47.64659" lon="-2.78047">
        <ele>10</ele>
        <time>2021-03-16T10:24:03+01:00</time>
      </trkpt>
      <trkpt lat="47.64661" lon="-2.78053">
        <ele>10</ele>
        <time>2021-03-16T10:24:04+01:00</time>
      </trkpt>
      <trkpt lat="47.64663" lon="-2.78059">
        <ele>9</ele>
        <time>2021-03-16T10:24:05+01:00</time>
      </trkpt>
      <trkpt lat="47.64666" lon="-2.78064">
        <ele>9</ele>
        <time>2021-03-16T10:24:06+01:00</time>
      </trkpt>
      <trkpt lat="47.6467" lon="-2.78069">
        <ele>9</ele>
        <time>2021-03-16T10:24:07+01:00</time>
      </trkpt>
      <trkpt lat="47.64674" lon="-2.78073">
        <ele>9</ele>
        <time>2021-03-16T10:24:08+01:00</time>
      </trkpt>
      <trkpt lat="47.64678" lon="-2.78076">
        <ele>8</ele>
        <time>2021-03-16T10:24:09+01:00</time>
      </trkpt>
      <trkpt lat="47.64682" lon="-2.7808">
        <ele>8</ele>
        <time>2021-03-16T10:24:10+01:00</time>
      </trkpt>
      <trkpt lat="47.64686" lon="-2.78084">
        <ele>8</ele>
        <time>2021-03-16T10:24:11+01:00</time>
      </trkpt>
      <trkpt lat="47.6469" lon="-2.78088">
        <ele>8</ele>
        <time>2021-03-16T10:24:12+01:00</time>
      </trkpt>
      <trkpt lat="47.64694" lon="-2.78091">
        <ele>9</ele>
        <time>2021-03-16T10:24:13+01:00</time>
      </trkpt>
      <trkpt lat="47.64697" lon="-2.78095">
        <ele>9</ele>
        <time>2021-03-16T10:24:14+01:00</time>
      </trkpt>
      <trkpt lat="47.647" lon="-2.78098">
        <ele>9</ele>
        <time>2021-03-16T10:24:15+01:00</time>
      </trkpt>
      <trkpt lat="47.64703" lon="-2.78101">
        <ele>9</ele>
        <time>2021-03-16T10:24:16+01:00</time>
      </trkpt>
      <trkpt lat="47.64706" lon="-2.78103">
        <ele>9</ele>
        <time>2021-03-16T10:24:17+01:00</time>
      </trkpt>
      <trkpt lat="47.64709" lon="-2.78106">
        <ele>9</ele>
        <time>2021-03-16T10:24:18+01:00</time>
      </trkpt>
      <trkpt lat="47.64712" lon="-2.78109">
        <ele>10</ele>
        <time>2021-03-16T10:24:19+01:00</time>
      </trkpt>
      <trkpt lat="47.64715" lon="-2.78112">
        <ele>10</ele>
        <time>2021-03-16T10:24:20+01:00</time>
      </trkpt>
      <trkpt lat="47.64719" lon="-2.78115">
        <ele>10</ele>
        <time>2021-03-16T10:24:21+01:00</time>
      </trkpt>
      <trkpt lat="47.64722" lon="-2.78117">
        <ele>10</ele>
        <time>2021-03-16T10:24:22+01:00</time>
      </trkpt>
      <trkpt lat="47.64725" lon="-2.78119">
        <ele>10</ele>
        <time>2021-03-16T10:24:23+01:00</time>
      </trkpt>
      <trkpt lat="47.64728" lon="-2.78121">
        <ele>11</ele>
        <time>2021-03-16T10:24:24+01:00</time>
      </trkpt>
      <trkpt lat="47.64732" lon="-2.78124">
        <ele>11</ele>
        <time>2021-03-16T10:24:25+01:00</time>
      </trkpt>
      <trkpt lat="47.64736" lon="-2.78126">
        <ele>11</ele>
        <time>2021-03-16T10:24:26+01:00</time>
      </trkpt>
      <trkpt lat="47.64739" lon="-2.7813">
        <ele>11</ele>
        <time>2021-03-16T10:24:27+01:00</time>
      </trkpt>
      <trkpt lat="47.64743" lon="-2.78133">
        <ele>12</ele>
        <time>2021-03-16T10:24:28+01:00</time>
      </trkpt>
      <trkpt lat="47.64747" lon="-2.78136">
        <ele>12</ele>
        <time>2021-03-16T10:24:29+01:00</time>
      </trkpt>
      <trkpt lat="47.6475" lon="-2.78139">
        <ele>12</ele>
        <time>2021-03-16T10:24:30+01:00</time>
      </trkpt>
      <trkpt lat="47.64753" lon="-2.78142">
        <ele>13</ele>
        <time>2021-03-16T10:24:31+01:00</time>
      </trkpt>
      <trkpt lat="47.64757" lon="-2.78145">
        <ele>13</ele>
        <time>2021-03-16T10:24:32+01:00</time>
      </trkpt>
      <trkpt lat="47.6476" lon="-2.78148">
        <ele>13</ele>
        <time>2021-03-16T10:24:33+01:00</time>
      </trkpt>
      <trkpt lat="47.64764" lon="-2.78151">
        <ele>13</ele>
        <time>2021-03-16T10:24:34+01:00</time>
      </trkpt>
      <trkpt lat="47.64767" lon="-2.78154">
        <ele>13</ele>
        <time>2021-03-16T10:24:35+01:00</time>
      </trkpt>
      <trkpt lat="47.64771" lon="-2.78156">
        <ele>13</ele>
        <time>2021-03-16T10:24:36+01:00</time>
      </trkpt>
      <trkpt lat="47.64774" lon="-2.78158">
        <ele>14</ele>
        <time>2021-03-16T10:24:37+01:00</time>
      </trkpt>
      <trkpt lat="47.64777" lon="-2.7816">
        <ele>14</ele>
        <time>2021-03-16T10:24:38+01:00</time>
      </trkpt>
      <trkpt lat="47.64781" lon="-2.78162">
        <ele>14</ele>
        <time>2021-03-16T10:24:39+01:00</time>
      </trkpt>
      <trkpt lat="47.64784" lon="-2.78163">
        <ele>14</ele>
        <time>2021-03-16T10:24:40+01:00</time>
      </trkpt>
      <trkpt lat="47.64788" lon="-2.78165">
        <ele>14</ele>
        <time>2021-03-16T10:24:41+01:00</time>
      </trkpt>
      <trkpt lat="47.64792" lon="-2.78167">
        <ele>14</ele>
        <time>2021-03-16T10:24:42+01:00</time>
      </trkpt>
      <trkpt lat="47.64796" lon="-2.78169">
        <ele>14</ele>
        <time>2021-03-16T10:24:43+01:00</time>
      </trkpt>
      <trkpt lat="47.64799" lon="-2.78171">
        <ele>14</ele>
        <time>2021-03-16T10:24:44+01:00</time>
      </trkpt>
      <trkpt lat="47.64802" lon="-2.78174">
        <ele>14</ele>
        <time>2021-03-16T10:24:45+01:00</time>
      </trkpt>
      <trkpt lat="47.64804" lon="-2.78176">
        <ele>14</ele>
        <time>2021-03-16T10:24:46+01:00</time>
      </trkpt>
      <trkpt lat="47.64807" lon="-2.78178">
        <ele>14</ele>
        <time>2021-03-16T10:24:47+01:00</time>
      </trkpt>
      <trkpt lat="47.64809" lon="-2.7818">
        <ele>15</ele>
        <time>2021-03-16T10:24:48+01:00</time>
      </trkpt>
      <trkpt lat="47.64812" lon="-2.78182">
        <ele>15</ele>
        <time>2021-03-16T10:24:49+01:00</time>
      </trkpt>
      <trkpt lat="47.64816" lon="-2.78184">
        <ele>15</ele>
        <time>2021-03-16T10:24:50+01:00</time>
      </trkpt>
      <trkpt lat="47.64819" lon="-2.78187">
        <ele>15</ele>
        <time>2021-03-16T10:24:51+01:00</time>
      </trkpt>
      <trkpt lat="47.64822" lon="-2.78188">
        <ele>15</ele>
        <time>2021-03-16T10:24:52+01:00</time>
      </trkpt>
      <trkpt lat="47.64825" lon="-2.7819">
        <ele>15</ele>
        <time>2021-03-16T10:24:53+01:00</time>
      </trkpt>
      <trkpt lat="47.64828" lon="-2.78192">
        <ele>15</ele>
        <time>2021-03-16T10:24:54+01:00</time>
      </trkpt>
      <trkpt lat="47.64832" lon="-2.78193">
        <ele>15</ele>
        <time>2021-03-16T10:24:55+01:00</time>
      </trkpt>
      <trkpt lat="47.64835" lon="-2.78195">
        <ele>15</ele>
        <time>2021-03-16T10:24:56+01:00</time>
      </trkpt>
      <trkpt lat="47.64838" lon="-2.78197">
        <ele>15</ele>
        <time>2021-03-16T10:24:57+01:00</time>
      </trkpt>
      <trkpt lat="47.64841" lon="-2.78199">
        <ele>15</ele>
        <time>2021-03-16T10:24:58+01:00</time>
      </trkpt>
      <trkpt lat="47.64845" lon="-2.78201">
        <ele>15</ele>
        <time>2021-03-16T10:24:59+01:00</time>
      </trkpt>
      <trkpt lat="47.64848" lon="-2.78203">
        <ele>15</ele>
        <time>2021-03-16T10:25:00+01:00</time>
      </trkpt>
      <trkpt lat="47.64852" lon="-2.78205">
        <ele>15</ele>
        <time>2021-03-16T10:25:01+01:00</time>
      </trkpt>
      <trkpt lat="47.64855" lon="-2.78207">
        <ele>15</ele>
        <time>2021-03-16T10:25:02+01:00</time>
      </trkpt>
      <trkpt lat="47.64858" lon="-2.7821">
        <ele>15</ele>
        <time>2021-03-16T10:25:03+01:00</time>
      </trkpt>
      <trkpt lat="47.6486" lon="-2.78211">
        <ele>15</ele>
        <time>2021-03-16T10:25:04+01:00</time>
      </trkpt>
      <trkpt lat="47.64863" lon="-2.78213">
        <ele>15</ele>
        <time>2021-03-16T10:25:05+01:00</time>
      </trkpt>
      <trkpt lat="47.64866" lon="-2.78214">
        <ele>15</ele>
        <time>2021-03-16T10:25:06+01:00</time>
      </trkpt>
      <trkpt lat="47.64869" lon="-2.78214">
        <ele>15</ele>
        <time>2021-03-16T10:25:07+01:00</time>
      </trkpt>
      <trkpt lat="47.64873" lon="-2.78216">
        <ele>16</ele>
        <time>2021-03-16T10:25:09+01:00</time>
      </trkpt>
      <trkpt lat="47.64877" lon="-2.78217">
        <ele>16</ele>
        <time>2021-03-16T10:25:11+01:00</time>
      </trkpt>
      <trkpt lat="47.64882" lon="-2.78219">
        <ele>16</ele>
        <time>2021-03-16T10:25:13+01:00</time>
      </trkpt>
      <trkpt lat="47.64886" lon="-2.7822">
        <ele>16</ele>
        <time>2021-03-16T10:25:14+01:00</time>
      </trkpt>
      <trkpt lat="47.64889" lon="-2.78221">
        <ele>16</ele>
        <time>2021-03-16T10:25:15+01:00</time>
      </trkpt>
      <trkpt lat="47.64892" lon="-2.78222">
        <ele>16</ele>
        <time>2021-03-16T10:25:16+01:00</time>
      </trkpt>
      <trkpt lat="47.64896" lon="-2.78223">
        <ele>16</ele>
        <time>2021-03-16T10:25:17+01:00</time>
      </trkpt>
      <trkpt lat="47.64899" lon="-2.78223">
        <ele>16</ele>
        <time>2021-03-16T10:25:18+01:00</time>
      </trkpt>
      <trkpt lat="47.64902" lon="-2.78224">
        <ele>16</ele>
        <time>2021-03-16T10:25:19+01:00</time>
      </trkpt>
      <trkpt lat="47.64905" lon="-2.78226">
        <ele>16</ele>
        <time>2021-03-16T10:25:20+01:00</time>
      </trkpt>
      <trkpt lat="47.64908" lon="-2.78227">
        <ele>16</ele>
        <time>2021-03-16T10:25:21+01:00</time>
      </trkpt>
      <trkpt lat="47.64911" lon="-2.78229">
        <ele>17</ele>
        <time>2021-03-16T10:25:22+01:00</time>
      </trkpt>
      <trkpt lat="47.64914" lon="-2.78231">
        <ele>17</ele>
        <time>2021-03-16T10:25:23+01:00</time>
      </trkpt>
      <trkpt lat="47.64917" lon="-2.78232">
        <ele>17</ele>
        <time>2021-03-16T10:25:24+01:00</time>
      </trkpt>
      <trkpt lat="47.6492" lon="-2.78234">
        <ele>17</ele>
        <time>2021-03-16T10:25:25+01:00</time>
      </trkpt>
      <trkpt lat="47.64923" lon="-2.78236">
        <ele>17</ele>
        <time>2021-03-16T10:25:26+01:00</time>
      </trkpt>
      <trkpt lat="47.64927" lon="-2.78238">
        <ele>17</ele>
        <time>2021-03-16T10:25:28+01:00</time>
      </trkpt>
      <trkpt lat="47.6493" lon="-2.78241">
        <ele>18</ele>
        <time>2021-03-16T10:25:29+01:00</time>
      </trkpt>
      <trkpt lat="47.64933" lon="-2.78242">
        <ele>18</ele>
        <time>2021-03-16T10:25:30+01:00</time>
      </trkpt>
      <trkpt lat="47.64936" lon="-2.78244">
        <ele>18</ele>
        <time>2021-03-16T10:25:31+01:00</time>
      </trkpt>
      <trkpt lat="47.64938" lon="-2.78245">
        <ele>18</ele>
        <time>2021-03-16T10:25:32+01:00</time>
      </trkpt>
      <trkpt lat="47.64941" lon="-2.78246">
        <ele>18</ele>
        <time>2021-03-16T10:25:33+01:00</time>
      </trkpt>
      <trkpt lat="47.64945" lon="-2.78249">
        <ele>18</ele>
        <time>2021-03-16T10:25:35+01:00</time>
      </trkpt>
      <trkpt lat="47.64948" lon="-2.7825">
        <ele>18</ele>
        <time>2021-03-16T10:25:36+01:00</time>
      </trkpt>
      <trkpt lat="47.64952" lon="-2.78252">
        <ele>18</ele>
        <time>2021-03-16T10:25:38+01:00</time>
      </trkpt>
      <trkpt lat="47.64956" lon="-2.78253">
        <ele>19</ele>
        <time>2021-03-16T10:25:39+01:00</time>
      </trkpt>
      <trkpt lat="47.64959" lon="-2.78253">
        <ele>19</ele>
        <time>2021-03-16T10:25:40+01:00</time>
      </trkpt>
      <trkpt lat="47.64962" lon="-2.78254">
        <ele>19</ele>
        <time>2021-03-16T10:25:41+01:00</time>
      </trkpt>
      <trkpt lat="47.64966" lon="-2.78255">
        <ele>19</ele>
        <time>2021-03-16T10:25:42+01:00</time>
      </trkpt>
      <trkpt lat="47.64969" lon="-2.78257">
        <ele>19</ele>
        <time>2021-03-16T10:25:43+01:00</time>
      </trkpt>
      <trkpt lat="47.64972" lon="-2.78258">
        <ele>19</ele>
        <time>2021-03-16T10:25:44+01:00</time>
      </trkpt>
      <trkpt lat="47.64975" lon="-2.78259">
        <ele>19</ele>
        <time>2021-03-16T10:25:45+01:00</time>
      </trkpt>
      <trkpt lat="47.64979" lon="-2.7826">
        <ele>19</ele>
        <time>2021-03-16T10:25:46+01:00</time>
      </trkpt>
      <trkpt lat="47.64982" lon="-2.78261">
        <ele>19</ele>
        <time>2021-03-16T10:25:47+01:00</time>
      </trkpt>
      <trkpt lat="47.64985" lon="-2.78262">
        <ele>19</ele>
        <time>2021-03-16T10:25:48+01:00</time>
      </trkpt>
      <trkpt lat="47.64988" lon="-2.78263">
        <ele>19</ele>
        <time>2021-03-16T10:25:49+01:00</time>
      </trkpt>
      <trkpt lat="47.64991" lon="-2.78264">
        <ele>19</ele>
        <time>2021-03-16T10:25:50+01:00</time>
      </trkpt>
      <trkpt lat="47.64995" lon="-2.78265">
        <ele>19</ele>
        <time>2021-03-16T10:25:52+01:00</time>
      </trkpt>
      <trkpt lat="47.64998" lon="-2.78266">
        <ele>20</ele>
        <time>2021-03-16T10:25:53+01:00</time>
      </trkpt>
      <trkpt lat="47.65001" lon="-2.78267">
        <ele>20</ele>
        <time>2021-03-16T10:25:54+01:00</time>
      </trkpt>
      <trkpt lat="47.65004" lon="-2.78268">
        <ele>20</ele>
        <time>2021-03-16T10:25:55+01:00</time>
      </trkpt>
      <trkpt lat="47.65007" lon="-2.7827">
        <ele>20</ele>
        <time>2021-03-16T10:25:56+01:00</time>
      </trkpt>
      <trkpt lat="47.6501" lon="-2.78271">
        <ele>20</ele>
        <time>2021-03-16T10:25:57+01:00</time>
      </trkpt>
      <trkpt lat="47.65013" lon="-2.78272">
        <ele>20</ele>
        <time>2021-03-16T10:25:58+01:00</time>
      </trkpt>
      <trkpt lat="47.65016" lon="-2.78273">
        <ele>21</ele>
        <time>2021-03-16T10:25:59+01:00</time>
      </trkpt>
      <trkpt lat="47.65019" lon="-2.78274">
        <ele>21</ele>
        <time>2021-03-16T10:26:00+01:00</time>
      </trkpt>
      <trkpt lat="47.65021" lon="-2.78275">
        <ele>21</ele>
        <time>2021-03-16T10:26:01+01:00</time>
      </trkpt>
      <trkpt lat="47.65024" lon="-2.78276">
        <ele>21</ele>
        <time>2021-03-16T10:26:02+01:00</time>
      </trkpt>
      <trkpt lat="47.65027" lon="-2.78278">
        <ele>21</ele>
        <time>2021-03-16T10:26:03+01:00</time>
      </trkpt>
      <trkpt lat="47.65032" lon="-2.78279">
        <ele>21</ele>
        <time>2021-03-16T10:26:05+01:00</time>
      </trkpt>
      <trkpt lat="47.65035" lon="-2.78281">
        <ele>22</ele>
        <time>2021-03-16T10:26:06+01:00</time>
      </trkpt>
      <trkpt lat="47.65038" lon="-2.78282">
        <ele>22</ele>
        <time>2021-03-16T10:26:07+01:00</time>
      </trkpt>
      <trkpt lat="47.65042" lon="-2.78282">
        <ele>22</ele>
        <time>2021-03-16T10:26:08+01:00</time>
      </trkpt>
      <trkpt lat="47.65044" lon="-2.78283">
        <ele>22</ele>
        <time>2021-03-16T10:26:09+01:00</time>
      </trkpt>
      <trkpt lat="47.65049" lon="-2.78284">
        <ele>22</ele>
        <time>2021-03-16T10:26:11+01:00</time>
      </trkpt>
      <trkpt lat="47.65052" lon="-2.78285">
        <ele>22</ele>
        <time>2021-03-16T10:26:12+01:00</time>
      </trkpt>
      <trkpt lat="47.65055" lon="-2.78285">
        <ele>23</ele>
        <time>2021-03-16T10:26:13+01:00</time>
      </trkpt>
      <trkpt lat="47.65058" lon="-2.78286">
        <ele>23</ele>
        <time>2021-03-16T10:26:14+01:00</time>
      </trkpt>
      <trkpt lat="47.65063" lon="-2.78287">
        <ele>23</ele>
        <time>2021-03-16T10:26:16+01:00</time>
      </trkpt>
      <trkpt lat="47.65066" lon="-2.78288">
        <ele>23</ele>
        <time>2021-03-16T10:26:17+01:00</time>
      </trkpt>
      <trkpt lat="47.6507" lon="-2.78289">
        <ele>23</ele>
        <time>2021-03-16T10:26:18+01:00</time>
      </trkpt>
      <trkpt lat="47.65074" lon="-2.78291">
        <ele>24</ele>
        <time>2021-03-16T10:26:20+01:00</time>
      </trkpt>
      <trkpt lat="47.65077" lon="-2.78292">
        <ele>24</ele>
        <time>2021-03-16T10:26:22+01:00</time>
      </trkpt>
      <trkpt lat="47.65081" lon="-2.78294">
        <ele>24</ele>
        <time>2021-03-16T10:26:24+01:00</time>
      </trkpt>
      <trkpt lat="47.65084" lon="-2.78294">
        <ele>24</ele>
        <time>2021-03-16T10:26:26+01:00</time>
      </trkpt>
      <trkpt lat="47.65088" lon="-2.78295">
        <ele>24</ele>
        <time>2021-03-16T10:26:28+01:00</time>
      </trkpt>
      <trkpt lat="47.65092" lon="-2.78295">
        <ele>24</ele>
        <time>2021-03-16T10:26:30+01:00</time>
      </trkpt>
      <trkpt lat="47.65096" lon="-2.78297">
        <ele>24</ele>
        <time>2021-03-16T10:26:32+01:00</time>
      </trkpt>
      <trkpt lat="47.651" lon="-2.78299">
        <ele>24</ele>
        <time>2021-03-16T10:26:34+01:00</time>
      </trkpt>
      <trkpt lat="47.65103" lon="-2.783">
        <ele>24</ele>
        <time>2021-03-16T10:26:35+01:00</time>
      </trkpt>
      <trkpt lat="47.65106" lon="-2.78301">
        <ele>24</ele>
        <time>2021-03-16T10:26:36+01:00</time>
      </trkpt>
      <trkpt lat="47.65109" lon="-2.78302">
        <ele>24</ele>
        <time>2021-03-16T10:26:37+01:00</time>
      </trkpt>
      <trkpt lat="47.65112" lon="-2.78303">
        <ele>24</ele>
        <time>2021-03-16T10:26:38+01:00</time>
      </trkpt>
      <trkpt lat="47.65115" lon="-2.78305">
        <ele>24</ele>
        <time>2021-03-16T10:26:39+01:00</time>
      </trkpt>
      <trkpt lat="47.65118" lon="-2.78306">
        <ele>24</ele>
        <time>2021-03-16T10:26:40+01:00</time>
      </trkpt>
      <trkpt lat="47.65121" lon="-2.78307">
        <ele>23</ele>
        <time>2021-03-16T10:26:41+01:00</time>
      </trkpt>
      <trkpt lat="47.65124" lon="-2.78308">
        <ele>23</ele>
        <time>2021-03-16T10:26:42+01:00</time>
      </trkpt>
      <trkpt lat="47.65128" lon="-2.78309">
        <ele>23</ele>
        <time>2021-03-16T10:26:43+01:00</time>
      </trkpt>
      <trkpt lat="47.65131" lon="-2.7831">
        <ele>23</ele>
        <time>2021-03-16T10:26:44+01:00</time>
      </trkpt>
      <trkpt lat="47.65135" lon="-2.78311">
        <ele>23</ele>
        <time>2021-03-16T10:26:45+01:00</time>
      </trkpt>
      <trkpt lat="47.65138" lon="-2.78312">
        <ele>23</ele>
        <time>2021-03-16T10:26:46+01:00</time>
      </trkpt>
      <trkpt lat="47.65142" lon="-2.78313">
        <ele>23</ele>
        <time>2021-03-16T10:26:47+01:00</time>
      </trkpt>
      <trkpt lat="47.65145" lon="-2.78314">
        <ele>23</ele>
        <time>2021-03-16T10:26:48+01:00</time>
      </trkpt>
      <trkpt lat="47.65149" lon="-2.78314">
        <ele>23</ele>
        <time>2021-03-16T10:26:49+01:00</time>
      </trkpt>
      <trkpt lat="47.65152" lon="-2.78315">
        <ele>23</ele>
        <time>2021-03-16T10:26:50+01:00</time>
      </trkpt>
      <trkpt lat="47.65155" lon="-2.78316">
        <ele>23</ele>
        <time>2021-03-16T10:26:51+01:00</time>
      </trkpt>
      <trkpt lat="47.65159" lon="-2.78317">
        <ele>22</ele>
        <time>2021-03-16T10:26:52+01:00</time>
      </trkpt>
      <trkpt lat="47.65162" lon="-2.78318">
        <ele>22</ele>
        <time>2021-03-16T10:26:53+01:00</time>
      </trkpt>
      <trkpt lat="47.65165" lon="-2.78319">
        <ele>22</ele>
        <time>2021-03-16T10:26:54+01:00</time>
      </trkpt>
      <trkpt lat="47.65168" lon="-2.7832">
        <ele>22</ele>
        <time>2021-03-16T10:26:55+01:00</time>
      </trkpt>
      <trkpt lat="47.65171" lon="-2.78321">
        <ele>22</ele>
        <time>2021-03-16T10:26:56+01:00</time>
      </trkpt>
      <trkpt lat="47.65174" lon="-2.78321">
        <ele>22</ele>
        <time>2021-03-16T10:26:57+01:00</time>
      </trkpt>
      <trkpt lat="47.65177" lon="-2.78322">
        <ele>22</ele>
        <time>2021-03-16T10:26:58+01:00</time>
      </trkpt>
      <trkpt lat="47.6518" lon="-2.78322">
        <ele>22</ele>
        <time>2021-03-16T10:26:59+01:00</time>
      </trkpt>
      <trkpt lat="47.65183" lon="-2.78323">
        <ele>22</ele>
        <time>2021-03-16T10:27:00+01:00</time>
      </trkpt>
      <trkpt lat="47.65187" lon="-2.78324">
        <ele>22</ele>
        <time>2021-03-16T10:27:02+01:00</time>
      </trkpt>
      <trkpt lat="47.65192" lon="-2.78326">
        <ele>22</ele>
        <time>2021-03-16T10:27:04+01:00</time>
      </trkpt>
      <trkpt lat="47.65196" lon="-2.78327">
        <ele>22</ele>
        <time>2021-03-16T10:27:05+01:00</time>
      </trkpt>
      <trkpt lat="47.652" lon="-2.78327">
        <ele>22</ele>
        <time>2021-03-16T10:27:06+01:00</time>
      </trkpt>
      <trkpt lat="47.65204" lon="-2.78327">
        <ele>23</ele>
        <time>2021-03-16T10:27:07+01:00</time>
      </trkpt>
      <trkpt lat="47.65208" lon="-2.78326">
        <ele>23</ele>
        <time>2021-03-16T10:27:08+01:00</time>
      </trkpt>
      <trkpt lat="47.65211" lon="-2.78326">
        <ele>23</ele>
        <time>2021-03-16T10:27:09+01:00</time>
      </trkpt>
      <trkpt lat="47.65215" lon="-2.78326">
        <ele>23</ele>
        <time>2021-03-16T10:27:10+01:00</time>
      </trkpt>
      <trkpt lat="47.65219" lon="-2.78326">
        <ele>23</ele>
        <time>2021-03-16T10:27:11+01:00</time>
      </trkpt>
      <trkpt lat="47.65222" lon="-2.78326">
        <ele>23</ele>
        <time>2021-03-16T10:27:12+01:00</time>
      </trkpt>
      <trkpt lat="47.65225" lon="-2.78326">
        <ele>23</ele>
        <time>2021-03-16T10:27:13+01:00</time>
      </trkpt>
      <trkpt lat="47.65228" lon="-2.78327">
        <ele>23</ele>
        <time>2021-03-16T10:27:14+01:00</time>
      </trkpt>
      <trkpt lat="47.65231" lon="-2.78327">
        <ele>23</ele>
        <time>2021-03-16T10:27:15+01:00</time>
      </trkpt>
      <trkpt lat="47.65235" lon="-2.78328">
        <ele>23</ele>
        <time>2021-03-16T10:27:16+01:00</time>
      </trkpt>
      <trkpt lat="47.65238" lon="-2.78329">
        <ele>23</ele>
        <time>2021-03-16T10:27:17+01:00</time>
      </trkpt>
      <trkpt lat="47.65242" lon="-2.7833">
        <ele>23</ele>
        <time>2021-03-16T10:27:18+01:00</time>
      </trkpt>
      <trkpt lat="47.65245" lon="-2.78331">
        <ele>23</ele>
        <time>2021-03-16T10:27:19+01:00</time>
      </trkpt>
      <trkpt lat="47.65249" lon="-2.78331">
        <ele>23</ele>
        <time>2021-03-16T10:27:20+01:00</time>
      </trkpt>
      <trkpt lat="47.65253" lon="-2.78331">
        <ele>23</ele>
        <time>2021-03-16T10:27:21+01:00</time>
      </trkpt>
      <trkpt lat="47.65256" lon="-2.78332">
        <ele>23</ele>
        <time>2021-03-16T10:27:22+01:00</time>
      </trkpt>
      <trkpt lat="47.65259" lon="-2.78332">
        <ele>23</ele>
        <time>2021-03-16T10:27:23+01:00</time>
      </trkpt>
      <trkpt lat="47.65263" lon="-2.78332">
        <ele>23</ele>
        <time>2021-03-16T10:27:24+01:00</time>
      </trkpt>
      <trkpt lat="47.65267" lon="-2.78333">
        <ele>24</ele>
        <time>2021-03-16T10:27:25+01:00</time>
      </trkpt>
      <trkpt lat="47.6527" lon="-2.78333">
        <ele>24</ele>
        <time>2021-03-16T10:27:26+01:00</time>
      </trkpt>
      <trkpt lat="47.65273" lon="-2.78333">
        <ele>24</ele>
        <time>2021-03-16T10:27:27+01:00</time>
      </trkpt>
      <trkpt lat="47.65277" lon="-2.78333">
        <ele>24</ele>
        <time>2021-03-16T10:27:28+01:00</time>
      </trkpt>
      <trkpt lat="47.65279" lon="-2.78334">
        <ele>24</ele>
        <time>2021-03-16T10:27:29+01:00</time>
      </trkpt>
      <trkpt lat="47.65282" lon="-2.78334">
        <ele>24</ele>
        <time>2021-03-16T10:27:30+01:00</time>
      </trkpt>
      <trkpt lat="47.65287" lon="-2.78334">
        <ele>24</ele>
        <time>2021-03-16T10:27:32+01:00</time>
      </trkpt>
      <trkpt lat="47.65291" lon="-2.78333">
        <ele>24</ele>
        <time>2021-03-16T10:27:34+01:00</time>
      </trkpt>
      <trkpt lat="47.65296" lon="-2.78333">
        <ele>25</ele>
        <time>2021-03-16T10:27:36+01:00</time>
      </trkpt>
      <trkpt lat="47.653" lon="-2.78333">
        <ele>25</ele>
        <time>2021-03-16T10:27:37+01:00</time>
      </trkpt>
      <trkpt lat="47.65304" lon="-2.78332">
        <ele>25</ele>
        <time>2021-03-16T10:27:38+01:00</time>
      </trkpt>
      <trkpt lat="47.65307" lon="-2.78332">
        <ele>25</ele>
        <time>2021-03-16T10:27:39+01:00</time>
      </trkpt>
      <trkpt lat="47.65311" lon="-2.78332">
        <ele>25</ele>
        <time>2021-03-16T10:27:40+01:00</time>
      </trkpt>
      <trkpt lat="47.65315" lon="-2.78332">
        <ele>25</ele>
        <time>2021-03-16T10:27:41+01:00</time>
      </trkpt>
      <trkpt lat="47.65318" lon="-2.78332">
        <ele>25</ele>
        <time>2021-03-16T10:27:42+01:00</time>
      </trkpt>
      <trkpt lat="47.65322" lon="-2.78333">
        <ele>26</ele>
        <time>2021-03-16T10:27:43+01:00</time>
      </trkpt>
      <trkpt lat="47.65325" lon="-2.78334">
        <ele>26</ele>
        <time>2021-03-16T10:27:44+01:00</time>
      </trkpt>
      <trkpt lat="47.65328" lon="-2.78335">
        <ele>26</ele>
        <time>2021-03-16T10:27:45+01:00</time>
      </trkpt>
      <trkpt lat="47.65332" lon="-2.78336">
        <ele>26</ele>
        <time>2021-03-16T10:27:47+01:00</time>
      </trkpt>
      <trkpt lat="47.65336" lon="-2.78336">
        <ele>26</ele>
        <time>2021-03-16T10:27:49+01:00</time>
      </trkpt>
      <trkpt lat="47.65339" lon="-2.78339">
        <ele>26</ele>
        <time>2021-03-16T10:27:51+01:00</time>
      </trkpt>
      <trkpt lat="47.65341" lon="-2.78342">
        <ele>26</ele>
        <time>2021-03-16T10:27:53+01:00</time>
      </trkpt>
      <trkpt lat="47.65342" lon="-2.78346">
        <ele>26</ele>
        <time>2021-03-16T10:27:55+01:00</time>
      </trkpt>
      <trkpt lat="47.65343" lon="-2.78352">
        <ele>27</ele>
        <time>2021-03-16T10:27:57+01:00</time>
      </trkpt>
      <trkpt lat="47.65345" lon="-2.78358">
        <ele>27</ele>
        <time>2021-03-16T10:27:58+01:00</time>
      </trkpt>
      <trkpt lat="47.65346" lon="-2.78364">
        <ele>27</ele>
        <time>2021-03-16T10:27:59+01:00</time>
      </trkpt>
      <trkpt lat="47.65347" lon="-2.78368">
        <ele>27</ele>
        <time>2021-03-16T10:28:00+01:00</time>
      </trkpt>
      <trkpt lat="47.6535" lon="-2.78372">
        <ele>27</ele>
        <time>2021-03-16T10:28:01+01:00</time>
      </trkpt>
      <trkpt lat="47.65353" lon="-2.78373">
        <ele>27</ele>
        <time>2021-03-16T10:28:02+01:00</time>
      </trkpt>
      <trkpt lat="47.65356" lon="-2.78373">
        <ele>27</ele>
        <time>2021-03-16T10:28:03+01:00</time>
      </trkpt>
      <trkpt lat="47.6536" lon="-2.78372">
        <ele>27</ele>
        <time>2021-03-16T10:28:04+01:00</time>
      </trkpt>
      <trkpt lat="47.65364" lon="-2.7837">
        <ele>27</ele>
        <time>2021-03-16T10:28:05+01:00</time>
      </trkpt>
      <trkpt lat="47.65368" lon="-2.78369">
        <ele>27</ele>
        <time>2021-03-16T10:28:06+01:00</time>
      </trkpt>
      <trkpt lat="47.65371" lon="-2.78369">
        <ele>27</ele>
        <time>2021-03-16T10:28:07+01:00</time>
      </trkpt>
      <trkpt lat="47.65375" lon="-2.78369">
        <ele>27</ele>
        <time>2021-03-16T10:28:08+01:00</time>
      </trkpt>
      <trkpt lat="47.65378" lon="-2.78369">
        <ele>27</ele>
        <time>2021-03-16T10:28:09+01:00</time>
      </trkpt>
      <trkpt lat="47.65381" lon="-2.78368">
        <ele>27</ele>
        <time>2021-03-16T10:28:10+01:00</time>
      </trkpt>
      <trkpt lat="47.65385" lon="-2.78368">
        <ele>27</ele>
        <time>2021-03-16T10:28:11+01:00</time>
      </trkpt>
      <trkpt lat="47.65388" lon="-2.78367">
        <ele>27</ele>
        <time>2021-03-16T10:28:12+01:00</time>
      </trkpt>
      <trkpt lat="47.65391" lon="-2.78367">
        <ele>27</ele>
        <time>2021-03-16T10:28:13+01:00</time>
      </trkpt>
      <trkpt lat="47.65394" lon="-2.78366">
        <ele>27</ele>
        <time>2021-03-16T10:28:14+01:00</time>
      </trkpt>
      <trkpt lat="47.65397" lon="-2.78366">
        <ele>27</ele>
        <time>2021-03-16T10:28:15+01:00</time>
      </trkpt>
      <trkpt lat="47.65401" lon="-2.78364">
        <ele>27</ele>
        <time>2021-03-16T10:28:17+01:00</time>
      </trkpt>
      <trkpt lat="47.65404" lon="-2.7836">
        <ele>27</ele>
        <time>2021-03-16T10:28:19+01:00</time>
      </trkpt>
      <trkpt lat="47.65406" lon="-2.78357">
        <ele>27</ele>
        <time>2021-03-16T10:28:20+01:00</time>
      </trkpt>
      <trkpt lat="47.65409" lon="-2.78355">
        <ele>27</ele>
        <time>2021-03-16T10:28:21+01:00</time>
      </trkpt>
      <trkpt lat="47.65412" lon="-2.78352">
        <ele>27</ele>
        <time>2021-03-16T10:28:23+01:00</time>
      </trkpt>
      <trkpt lat="47.65417" lon="-2.78351">
        <ele>27</ele>
        <time>2021-03-16T10:28:25+01:00</time>
      </trkpt>
      <trkpt lat="47.65421" lon="-2.7835">
        <ele>27</ele>
        <time>2021-03-16T10:28:26+01:00</time>
      </trkpt>
      <trkpt lat="47.65425" lon="-2.7835">
        <ele>27</ele>
        <time>2021-03-16T10:28:27+01:00</time>
      </trkpt>
      <trkpt lat="47.65429" lon="-2.78349">
        <ele>27</ele>
        <time>2021-03-16T10:28:28+01:00</time>
      </trkpt>
      <trkpt lat="47.65433" lon="-2.78348">
        <ele>27</ele>
        <time>2021-03-16T10:28:29+01:00</time>
      </trkpt>
      <trkpt lat="47.65437" lon="-2.78347">
        <ele>27</ele>
        <time>2021-03-16T10:28:30+01:00</time>
      </trkpt>
      <trkpt lat="47.65441" lon="-2.78346">
        <ele>27</ele>
        <time>2021-03-16T10:28:31+01:00</time>
      </trkpt>
      <trkpt lat="47.65444" lon="-2.78345">
        <ele>27</ele>
        <time>2021-03-16T10:28:32+01:00</time>
      </trkpt>
      <trkpt lat="47.65448" lon="-2.78344">
        <ele>27</ele>
        <time>2021-03-16T10:28:33+01:00</time>
      </trkpt>
      <trkpt lat="47.65452" lon="-2.78343">
        <ele>27</ele>
        <time>2021-03-16T10:28:34+01:00</time>
      </trkpt>
      <trkpt lat="47.65455" lon="-2.78342">
        <ele>27</ele>
        <time>2021-03-16T10:28:35+01:00</time>
      </trkpt>
      <trkpt lat="47.65459" lon="-2.78341">
        <ele>28</ele>
        <time>2021-03-16T10:28:36+01:00</time>
      </trkpt>
      <trkpt lat="47.65463" lon="-2.7834">
        <ele>28</ele>
        <time>2021-03-16T10:28:37+01:00</time>
      </trkpt>
      <trkpt lat="47.65466" lon="-2.78338">
        <ele>28</ele>
        <time>2021-03-16T10:28:38+01:00</time>
      </trkpt>
      <trkpt lat="47.6547" lon="-2.78337">
        <ele>28</ele>
        <time>2021-03-16T10:28:39+01:00</time>
      </trkpt>
      <trkpt lat="47.65474" lon="-2.78336">
        <ele>28</ele>
        <time>2021-03-16T10:28:40+01:00</time>
      </trkpt>
      <trkpt lat="47.65477" lon="-2.78335">
        <ele>28</ele>
        <time>2021-03-16T10:28:41+01:00</time>
      </trkpt>
      <trkpt lat="47.65481" lon="-2.78334">
        <ele>28</ele>
        <time>2021-03-16T10:28:42+01:00</time>
      </trkpt>
      <trkpt lat="47.65485" lon="-2.78333">
        <ele>28</ele>
        <time>2021-03-16T10:28:43+01:00</time>
      </trkpt>
      <trkpt lat="47.65489" lon="-2.78332">
        <ele>28</ele>
        <time>2021-03-16T10:28:44+01:00</time>
      </trkpt>
      <trkpt lat="47.65493" lon="-2.7833">
        <ele>28</ele>
        <time>2021-03-16T10:28:45+01:00</time>
      </trkpt>
      <trkpt lat="47.65496" lon="-2.78328">
        <ele>28</ele>
        <time>2021-03-16T10:28:46+01:00</time>
      </trkpt>
      <trkpt lat="47.655" lon="-2.78326">
        <ele>28</ele>
        <time>2021-03-16T10:28:47+01:00</time>
      </trkpt>
      <trkpt lat="47.65504" lon="-2.78324">
        <ele>28</ele>
        <time>2021-03-16T10:28:48+01:00</time>
      </trkpt>
      <trkpt lat="47.65507" lon="-2.78322">
        <ele>28</ele>
        <time>2021-03-16T10:28:49+01:00</time>
      </trkpt>
      <trkpt lat="47.65511" lon="-2.7832">
        <ele>28</ele>
        <time>2021-03-16T10:28:50+01:00</time>
      </trkpt>
      <trkpt lat="47.65514" lon="-2.78318">
        <ele>28</ele>
        <time>2021-03-16T10:28:51+01:00</time>
      </trkpt>
      <trkpt lat="47.65517" lon="-2.78316">
        <ele>28</ele>
        <time>2021-03-16T10:28:52+01:00</time>
      </trkpt>
      <trkpt lat="47.65521" lon="-2.78313">
        <ele>28</ele>
        <time>2021-03-16T10:28:53+01:00</time>
      </trkpt>
      <trkpt lat="47.65524" lon="-2.78311">
        <ele>28</ele>
        <time>2021-03-16T10:28:54+01:00</time>
      </trkpt>
      <trkpt lat="47.65528" lon="-2.78309">
        <ele>28</ele>
        <time>2021-03-16T10:28:55+01:00</time>
      </trkpt>
      <trkpt lat="47.65532" lon="-2.78307">
        <ele>28</ele>
        <time>2021-03-16T10:28:56+01:00</time>
      </trkpt>
      <trkpt lat="47.65536" lon="-2.78305">
        <ele>28</ele>
        <time>2021-03-16T10:28:57+01:00</time>
      </trkpt>
      <trkpt lat="47.6554" lon="-2.78303">
        <ele>27</ele>
        <time>2021-03-16T10:28:58+01:00</time>
      </trkpt>
      <trkpt lat="47.65545" lon="-2.78301">
        <ele>27</ele>
        <time>2021-03-16T10:28:59+01:00</time>
      </trkpt>
      <trkpt lat="47.6555" lon="-2.78299">
        <ele>27</ele>
        <time>2021-03-16T10:29:00+01:00</time>
      </trkpt>
      <trkpt lat="47.65554" lon="-2.78297">
        <ele>27</ele>
        <time>2021-03-16T10:29:01+01:00</time>
      </trkpt>
      <trkpt lat="47.65558" lon="-2.78295">
        <ele>27</ele>
        <time>2021-03-16T10:29:02+01:00</time>
      </trkpt>
      <trkpt lat="47.65563" lon="-2.78293">
        <ele>27</ele>
        <time>2021-03-16T10:29:03+01:00</time>
      </trkpt>
      <trkpt lat="47.65567" lon="-2.78291">
        <ele>27</ele>
        <time>2021-03-16T10:29:04+01:00</time>
      </trkpt>
      <trkpt lat="47.65571" lon="-2.7829">
        <ele>27</ele>
        <time>2021-03-16T10:29:05+01:00</time>
      </trkpt>
      <trkpt lat="47.65575" lon="-2.78288">
        <ele>27</ele>
        <time>2021-03-16T10:29:06+01:00</time>
      </trkpt>
      <trkpt lat="47.65579" lon="-2.78285">
        <ele>27</ele>
        <time>2021-03-16T10:29:07+01:00</time>
      </trkpt>
      <trkpt lat="47.65583" lon="-2.78283">
        <ele>27</ele>
        <time>2021-03-16T10:29:08+01:00</time>
      </trkpt>
      <trkpt lat="47.65587" lon="-2.78281">
        <ele>27</ele>
        <time>2021-03-16T10:29:09+01:00</time>
      </trkpt>
      <trkpt lat="47.6559" lon="-2.7828">
        <ele>27</ele>
        <time>2021-03-16T10:29:10+01:00</time>
      </trkpt>
      <trkpt lat="47.65594" lon="-2.78278">
        <ele>27</ele>
        <time>2021-03-16T10:29:11+01:00</time>
      </trkpt>
      <trkpt lat="47.65598" lon="-2.78276">
        <ele>27</ele>
        <time>2021-03-16T10:29:12+01:00</time>
      </trkpt>
      <trkpt lat="47.65602" lon="-2.78274">
        <ele>27</ele>
        <time>2021-03-16T10:29:13+01:00</time>
      </trkpt>
      <trkpt lat="47.65606" lon="-2.78272">
        <ele>27</ele>
        <time>2021-03-16T10:29:14+01:00</time>
      </trkpt>
      <trkpt lat="47.65609" lon="-2.78269">
        <ele>27</ele>
        <time>2021-03-16T10:29:15+01:00</time>
      </trkpt>
      <trkpt lat="47.65613" lon="-2.78267">
        <ele>27</ele>
        <time>2021-03-16T10:29:16+01:00</time>
      </trkpt>
      <trkpt lat="47.65616" lon="-2.78265">
        <ele>27</ele>
        <time>2021-03-16T10:29:17+01:00</time>
      </trkpt>
      <trkpt lat="47.6562" lon="-2.78263">
        <ele>27</ele>
        <time>2021-03-16T10:29:18+01:00</time>
      </trkpt>
      <trkpt lat="47.65623" lon="-2.7826">
        <ele>27</ele>
        <time>2021-03-16T10:29:19+01:00</time>
      </trkpt>
      <trkpt lat="47.65626" lon="-2.78258">
        <ele>27</ele>
        <time>2021-03-16T10:29:20+01:00</time>
      </trkpt>
      <trkpt lat="47.6563" lon="-2.78256">
        <ele>27</ele>
        <time>2021-03-16T10:29:21+01:00</time>
      </trkpt>
      <trkpt lat="47.65633" lon="-2.78253">
        <ele>27</ele>
        <time>2021-03-16T10:29:22+01:00</time>
      </trkpt>
      <trkpt lat="47.65636" lon="-2.7825">
        <ele>27</ele>
        <time>2021-03-16T10:29:23+01:00</time>
      </trkpt>
      <trkpt lat="47.6564" lon="-2.78247">
        <ele>27</ele>
        <time>2021-03-16T10:29:24+01:00</time>
      </trkpt>
      <trkpt lat="47.65644" lon="-2.78244">
        <ele>27</ele>
        <time>2021-03-16T10:29:25+01:00</time>
      </trkpt>
      <trkpt lat="47.65647" lon="-2.78241">
        <ele>27</ele>
        <time>2021-03-16T10:29:26+01:00</time>
      </trkpt>
      <trkpt lat="47.65651" lon="-2.78239">
        <ele>27</ele>
        <time>2021-03-16T10:29:27+01:00</time>
      </trkpt>
      <trkpt lat="47.65655" lon="-2.78237">
        <ele>27</ele>
        <time>2021-03-16T10:29:28+01:00</time>
      </trkpt>
      <trkpt lat="47.65659" lon="-2.78235">
        <ele>27</ele>
        <time>2021-03-16T10:29:29+01:00</time>
      </trkpt>
      <trkpt lat="47.65663" lon="-2.78233">
        <ele>27</ele>
        <time>2021-03-16T10:29:30+01:00</time>
      </trkpt>
      <trkpt lat="47.65666" lon="-2.78231">
        <ele>27</ele>
        <time>2021-03-16T10:29:31+01:00</time>
      </trkpt>
      <trkpt lat="47.6567" lon="-2.78229">
        <ele>27</ele>
        <time>2021-03-16T10:29:32+01:00</time>
      </trkpt>
      <trkpt lat="47.65673" lon="-2.78226">
        <ele>27</ele>
        <time>2021-03-16T10:29:33+01:00</time>
      </trkpt>
      <trkpt lat="47.65677" lon="-2.78223">
        <ele>27</ele>
        <time>2021-03-16T10:29:34+01:00</time>
      </trkpt>
      <trkpt lat="47.65681" lon="-2.78221">
        <ele>27</ele>
        <time>2021-03-16T10:29:35+01:00</time>
      </trkpt>
      <trkpt lat="47.65685" lon="-2.78217">
        <ele>27</ele>
        <time>2021-03-16T10:29:36+01:00</time>
      </trkpt>
      <trkpt lat="47.65688" lon="-2.78215">
        <ele>27</ele>
        <time>2021-03-16T10:29:37+01:00</time>
      </trkpt>
      <trkpt lat="47.65692" lon="-2.78212">
        <ele>27</ele>
        <time>2021-03-16T10:29:38+01:00</time>
      </trkpt>
      <trkpt lat="47.65696" lon="-2.7821">
        <ele>27</ele>
        <time>2021-03-16T10:29:39+01:00</time>
      </trkpt>
      <trkpt lat="47.657" lon="-2.78208">
        <ele>27</ele>
        <time>2021-03-16T10:29:40+01:00</time>
      </trkpt>
      <trkpt lat="47.65704" lon="-2.78205">
        <ele>27</ele>
        <time>2021-03-16T10:29:41+01:00</time>
      </trkpt>
      <trkpt lat="47.65708" lon="-2.78202">
        <ele>27</ele>
        <time>2021-03-16T10:29:42+01:00</time>
      </trkpt>
      <trkpt lat="47.65712" lon="-2.78199">
        <ele>27</ele>
        <time>2021-03-16T10:29:43+01:00</time>
      </trkpt>
      <trkpt lat="47.65717" lon="-2.78196">
        <ele>27</ele>
        <time>2021-03-16T10:29:44+01:00</time>
      </trkpt>
      <trkpt lat="47.65721" lon="-2.78193">
        <ele>27</ele>
        <time>2021-03-16T10:29:45+01:00</time>
      </trkpt>
      <trkpt lat="47.65725" lon="-2.7819">
        <ele>27</ele>
        <time>2021-03-16T10:29:46+01:00</time>
      </trkpt>
      <trkpt lat="47.65729" lon="-2.78188">
        <ele>27</ele>
        <time>2021-03-16T10:29:47+01:00</time>
      </trkpt>
      <trkpt lat="47.65734" lon="-2.78185">
        <ele>27</ele>
        <time>2021-03-16T10:29:48+01:00</time>
      </trkpt>
      <trkpt lat="47.65738" lon="-2.78182">
        <ele>27</ele>
        <time>2021-03-16T10:29:49+01:00</time>
      </trkpt>
      <trkpt lat="47.65742" lon="-2.78179">
        <ele>27</ele>
        <time>2021-03-16T10:29:50+01:00</time>
      </trkpt>
      <trkpt lat="47.65746" lon="-2.78177">
        <ele>27</ele>
        <time>2021-03-16T10:29:51+01:00</time>
      </trkpt>
      <trkpt lat="47.65751" lon="-2.78174">
        <ele>27</ele>
        <time>2021-03-16T10:29:52+01:00</time>
      </trkpt>
      <trkpt lat="47.65755" lon="-2.78171">
        <ele>27</ele>
        <time>2021-03-16T10:29:53+01:00</time>
      </trkpt>
      <trkpt lat="47.6576" lon="-2.78169">
        <ele>27</ele>
        <time>2021-03-16T10:29:54+01:00</time>
      </trkpt>
      <trkpt lat="47.65764" lon="-2.78166">
        <ele>27</ele>
        <time>2021-03-16T10:29:55+01:00</time>
      </trkpt>
      <trkpt lat="47.65768" lon="-2.78164">
        <ele>27</ele>
        <time>2021-03-16T10:29:56+01:00</time>
      </trkpt>
      <trkpt lat="47.65772" lon="-2.78162">
        <ele>26</ele>
        <time>2021-03-16T10:29:57+01:00</time>
      </trkpt>
      <trkpt lat="47.65776" lon="-2.7816">
        <ele>26</ele>
        <time>2021-03-16T10:29:58+01:00</time>
      </trkpt>
      <trkpt lat="47.65781" lon="-2.78159">
        <ele>26</ele>
        <time>2021-03-16T10:29:59+01:00</time>
      </trkpt>
      <trkpt lat="47.65785" lon="-2.78159">
        <ele>26</ele>
        <time>2021-03-16T10:30:00+01:00</time>
      </trkpt>
      <trkpt lat="47.6579" lon="-2.78159">
        <ele>26</ele>
        <time>2021-03-16T10:30:01+01:00</time>
      </trkpt>
      <trkpt lat="47.65795" lon="-2.78158">
        <ele>26</ele>
        <time>2021-03-16T10:30:02+01:00</time>
      </trkpt>
      <trkpt lat="47.658" lon="-2.78157">
        <ele>26</ele>
        <time>2021-03-16T10:30:03+01:00</time>
      </trkpt>
      <trkpt lat="47.65804" lon="-2.78155">
        <ele>26</ele>
        <time>2021-03-16T10:30:04+01:00</time>
      </trkpt>
      <trkpt lat="47.65809" lon="-2.78152">
        <ele>26</ele>
        <time>2021-03-16T10:30:05+01:00</time>
      </trkpt>
      <trkpt lat="47.65813" lon="-2.7815">
        <ele>25</ele>
        <time>2021-03-16T10:30:06+01:00</time>
      </trkpt>
      <trkpt lat="47.65817" lon="-2.78148">
        <ele>25</ele>
        <time>2021-03-16T10:30:07+01:00</time>
      </trkpt>
      <trkpt lat="47.65822" lon="-2.78146">
        <ele>25</ele>
        <time>2021-03-16T10:30:08+01:00</time>
      </trkpt>
      <trkpt lat="47.65826" lon="-2.78144">
        <ele>25</ele>
        <time>2021-03-16T10:30:09+01:00</time>
      </trkpt>
      <trkpt lat="47.6583" lon="-2.78143">
        <ele>25</ele>
        <time>2021-03-16T10:30:10+01:00</time>
      </trkpt>
      <trkpt lat="47.65834" lon="-2.78141">
        <ele>25</ele>
        <time>2021-03-16T10:30:11+01:00</time>
      </trkpt>
      <trkpt lat="47.65838" lon="-2.78138">
        <ele>25</ele>
        <time>2021-03-16T10:30:12+01:00</time>
      </trkpt>
      <trkpt lat="47.65843" lon="-2.78136">
        <ele>24</ele>
        <time>2021-03-16T10:30:13+01:00</time>
      </trkpt>
      <trkpt lat="47.65847" lon="-2.78134">
        <ele>24</ele>
        <time>2021-03-16T10:30:14+01:00</time>
      </trkpt>
      <trkpt lat="47.65851" lon="-2.78132">
        <ele>24</ele>
        <time>2021-03-16T10:30:15+01:00</time>
      </trkpt>
      <trkpt lat="47.65855" lon="-2.78129">
        <ele>24</ele>
        <time>2021-03-16T10:30:16+01:00</time>
      </trkpt>
      <trkpt lat="47.65859" lon="-2.78126">
        <ele>24</ele>
        <time>2021-03-16T10:30:17+01:00</time>
      </trkpt>
      <trkpt lat="47.65863" lon="-2.78124">
        <ele>24</ele>
        <time>2021-03-16T10:30:18+01:00</time>
      </trkpt>
      <trkpt lat="47.65867" lon="-2.78121">
        <ele>24</ele>
        <time>2021-03-16T10:30:19+01:00</time>
      </trkpt>
      <trkpt lat="47.65871" lon="-2.78118">
        <ele>24</ele>
        <time>2021-03-16T10:30:20+01:00</time>
      </trkpt>
      <trkpt lat="47.65874" lon="-2.78115">
        <ele>24</ele>
        <time>2021-03-16T10:30:21+01:00</time>
      </trkpt>
      <trkpt lat="47.65878" lon="-2.78113">
        <ele>24</ele>
        <time>2021-03-16T10:30:22+01:00</time>
      </trkpt>
      <trkpt lat="47.65882" lon="-2.78111">
        <ele>24</ele>
        <time>2021-03-16T10:30:23+01:00</time>
      </trkpt>
      <trkpt lat="47.65886" lon="-2.7811">
        <ele>24</ele>
        <time>2021-03-16T10:30:24+01:00</time>
      </trkpt>
      <trkpt lat="47.6589" lon="-2.78109">
        <ele>24</ele>
        <time>2021-03-16T10:30:25+01:00</time>
      </trkpt>
      <trkpt lat="47.65895" lon="-2.78109">
        <ele>24</ele>
        <time>2021-03-16T10:30:26+01:00</time>
      </trkpt>
      <trkpt lat="47.65899" lon="-2.78108">
        <ele>24</ele>
        <time>2021-03-16T10:30:27+01:00</time>
      </trkpt>
      <trkpt lat="47.65903" lon="-2.78108">
        <ele>24</ele>
        <time>2021-03-16T10:30:28+01:00</time>
      </trkpt>
      <trkpt lat="47.65906" lon="-2.78108">
        <ele>24</ele>
        <time>2021-03-16T10:30:29+01:00</time>
      </trkpt>
      <trkpt lat="47.6591" lon="-2.78108">
        <ele>24</ele>
        <time>2021-03-16T10:30:30+01:00</time>
      </trkpt>
      <trkpt lat="47.65913" lon="-2.78108">
        <ele>24</ele>
        <time>2021-03-16T10:30:31+01:00</time>
      </trkpt>
      <trkpt lat="47.65917" lon="-2.78108">
        <ele>24</ele>
        <time>2021-03-16T10:30:32+01:00</time>
      </trkpt>
      <trkpt lat="47.65921" lon="-2.78108">
        <ele>24</ele>
        <time>2021-03-16T10:30:33+01:00</time>
      </trkpt>
      <trkpt lat="47.65925" lon="-2.78108">
        <ele>24</ele>
        <time>2021-03-16T10:30:34+01:00</time>
      </trkpt>
      <trkpt lat="47.65928" lon="-2.78108">
        <ele>24</ele>
        <time>2021-03-16T10:30:35+01:00</time>
      </trkpt>
      <trkpt lat="47.65932" lon="-2.78109">
        <ele>24</ele>
        <time>2021-03-16T10:30:36+01:00</time>
      </trkpt>
      <trkpt lat="47.65935" lon="-2.78111">
        <ele>24</ele>
        <time>2021-03-16T10:30:37+01:00</time>
      </trkpt>
      <trkpt lat="47.65938" lon="-2.78114">
        <ele>24</ele>
        <time>2021-03-16T10:30:38+01:00</time>
      </trkpt>
      <trkpt lat="47.65941" lon="-2.78118">
        <ele>24</ele>
        <time>2021-03-16T10:30:39+01:00</time>
      </trkpt>
      <trkpt lat="47.65943" lon="-2.78122">
        <ele>24</ele>
        <time>2021-03-16T10:30:40+01:00</time>
      </trkpt>
      <trkpt lat="47.65946" lon="-2.78126">
        <ele>24</ele>
        <time>2021-03-16T10:30:41+01:00</time>
      </trkpt>
      <trkpt lat="47.65948" lon="-2.7813">
        <ele>24</ele>
        <time>2021-03-16T10:30:42+01:00</time>
      </trkpt>
      <trkpt lat="47.65951" lon="-2.78133">
        <ele>24</ele>
        <time>2021-03-16T10:30:43+01:00</time>
      </trkpt>
      <trkpt lat="47.65954" lon="-2.78136">
        <ele>24</ele>
        <time>2021-03-16T10:30:45+01:00</time>
      </trkpt>
      <trkpt lat="47.65958" lon="-2.78138">
        <ele>24</ele>
        <time>2021-03-16T10:30:47+01:00</time>
      </trkpt>
      <trkpt lat="47.65963" lon="-2.78138">
        <ele>23</ele>
        <time>2021-03-16T10:30:49+01:00</time>
      </trkpt>
      <trkpt lat="47.65968" lon="-2.78139">
        <ele>23</ele>
        <time>2021-03-16T10:30:51+01:00</time>
      </trkpt>
      <trkpt lat="47.65972" lon="-2.78138">
        <ele>23</ele>
        <time>2021-03-16T10:30:52+01:00</time>
      </trkpt>
      <trkpt lat="47.65974" lon="-2.78136">
        <ele>23</ele>
        <time>2021-03-16T10:30:53+01:00</time>
      </trkpt>
      <trkpt lat="47.65976" lon="-2.78133">
        <ele>23</ele>
        <time>2021-03-16T10:30:54+01:00</time>
      </trkpt>
      <trkpt lat="47.65978" lon="-2.78129">
        <ele>23</ele>
        <time>2021-03-16T10:30:55+01:00</time>
      </trkpt>
      <trkpt lat="47.65981" lon="-2.78125">
        <ele>23</ele>
        <time>2021-03-16T10:30:56+01:00</time>
      </trkpt>
      <trkpt lat="47.65983" lon="-2.78122">
        <ele>23</ele>
        <time>2021-03-16T10:30:57+01:00</time>
      </trkpt>
      <trkpt lat="47.65986" lon="-2.78119">
        <ele>23</ele>
        <time>2021-03-16T10:30:58+01:00</time>
      </trkpt>
      <trkpt lat="47.6599" lon="-2.78116">
        <ele>23</ele>
        <time>2021-03-16T10:30:59+01:00</time>
      </trkpt>
      <trkpt lat="47.65994" lon="-2.78114">
        <ele>23</ele>
        <time>2021-03-16T10:31:00+01:00</time>
      </trkpt>
      <trkpt lat="47.65999" lon="-2.78112">
        <ele>23</ele>
        <time>2021-03-16T10:31:01+01:00</time>
      </trkpt>
      <trkpt lat="47.66003" lon="-2.78111">
        <ele>23</ele>
        <time>2021-03-16T10:31:02+01:00</time>
      </trkpt>
      <trkpt lat="47.66007" lon="-2.78111">
        <ele>23</ele>
        <time>2021-03-16T10:31:03+01:00</time>
      </trkpt>
      <trkpt lat="47.66012" lon="-2.7811">
        <ele>23</ele>
        <time>2021-03-16T10:31:05+01:00</time>
      </trkpt>
      <trkpt lat="47.66015" lon="-2.7811">
        <ele>23</ele>
        <time>2021-03-16T10:31:06+01:00</time>
      </trkpt>
      <trkpt lat="47.66019" lon="-2.78109">
        <ele>23</ele>
        <time>2021-03-16T10:31:07+01:00</time>
      </trkpt>
      <trkpt lat="47.66022" lon="-2.78108">
        <ele>23</ele>
        <time>2021-03-16T10:31:08+01:00</time>
      </trkpt>
      <trkpt lat="47.66026" lon="-2.78106">
        <ele>23</ele>
        <time>2021-03-16T10:31:09+01:00</time>
      </trkpt>
      <trkpt lat="47.66029" lon="-2.78105">
        <ele>23</ele>
        <time>2021-03-16T10:31:10+01:00</time>
      </trkpt>
      <trkpt lat="47.66033" lon="-2.78104">
        <ele>23</ele>
        <time>2021-03-16T10:31:11+01:00</time>
      </trkpt>
      <trkpt lat="47.66037" lon="-2.78103">
        <ele>23</ele>
        <time>2021-03-16T10:31:12+01:00</time>
      </trkpt>
      <trkpt lat="47.6604" lon="-2.78103">
        <ele>23</ele>
        <time>2021-03-16T10:31:13+01:00</time>
      </trkpt>
      <trkpt lat="47.66043" lon="-2.78103">
        <ele>24</ele>
        <time>2021-03-16T10:31:14+01:00</time>
      </trkpt>
      <trkpt lat="47.66047" lon="-2.78104">
        <ele>24</ele>
        <time>2021-03-16T10:31:15+01:00</time>
      </trkpt>
      <trkpt lat="47.6605" lon="-2.78104">
        <ele>24</ele>
        <time>2021-03-16T10:31:16+01:00</time>
      </trkpt>
      <trkpt lat="47.66054" lon="-2.78105">
        <ele>24</ele>
        <time>2021-03-16T10:31:17+01:00</time>
      </trkpt>
      <trkpt lat="47.66057" lon="-2.78105">
        <ele>24</ele>
        <time>2021-03-16T10:31:18+01:00</time>
      </trkpt>
      <trkpt lat="47.6606" lon="-2.78106">
        <ele>24</ele>
        <time>2021-03-16T10:31:19+01:00</time>
      </trkpt>
      <trkpt lat="47.66065" lon="-2.78106">
        <ele>24</ele>
        <time>2021-03-16T10:31:21+01:00</time>
      </trkpt>
      <trkpt lat="47.66069" lon="-2.78107">
        <ele>24</ele>
        <time>2021-03-16T10:31:23+01:00</time>
      </trkpt>
      <trkpt lat="47.66073" lon="-2.78108">
        <ele>24</ele>
        <time>2021-03-16T10:31:24+01:00</time>
      </trkpt>
      <trkpt lat="47.66076" lon="-2.78109">
        <ele>24</ele>
        <time>2021-03-16T10:31:25+01:00</time>
      </trkpt>
      <trkpt lat="47.66079" lon="-2.78109">
        <ele>24</ele>
        <time>2021-03-16T10:31:26+01:00</time>
      </trkpt>
      <trkpt lat="47.66082" lon="-2.7811">
        <ele>24</ele>
        <time>2021-03-16T10:31:27+01:00</time>
      </trkpt>
      <trkpt lat="47.66085" lon="-2.78111">
        <ele>24</ele>
        <time>2021-03-16T10:31:28+01:00</time>
      </trkpt>
      <trkpt lat="47.66088" lon="-2.78111">
        <ele>24</ele>
        <time>2021-03-16T10:31:29+01:00</time>
      </trkpt>
      <trkpt lat="47.66091" lon="-2.78112">
        <ele>24</ele>
        <time>2021-03-16T10:31:30+01:00</time>
      </trkpt>
      <trkpt lat="47.66094" lon="-2.78112">
        <ele>24</ele>
        <time>2021-03-16T10:31:31+01:00</time>
      </trkpt>
      <trkpt lat="47.66098" lon="-2.78113">
        <ele>24</ele>
        <time>2021-03-16T10:31:32+01:00</time>
      </trkpt>
      <trkpt lat="47.66102" lon="-2.78114">
        <ele>25</ele>
        <time>2021-03-16T10:31:33+01:00</time>
      </trkpt>
      <trkpt lat="47.66105" lon="-2.78115">
        <ele>25</ele>
        <time>2021-03-16T10:31:34+01:00</time>
      </trkpt>
      <trkpt lat="47.66109" lon="-2.78116">
        <ele>25</ele>
        <time>2021-03-16T10:31:35+01:00</time>
      </trkpt>
      <trkpt lat="47.66113" lon="-2.78117">
        <ele>25</ele>
        <time>2021-03-16T10:31:36+01:00</time>
      </trkpt>
      <trkpt lat="47.66117" lon="-2.78118">
        <ele>25</ele>
        <time>2021-03-16T10:31:37+01:00</time>
      </trkpt>
      <trkpt lat="47.66121" lon="-2.78119">
        <ele>25</ele>
        <time>2021-03-16T10:31:38+01:00</time>
      </trkpt>
      <trkpt lat="47.66125" lon="-2.7812">
        <ele>25</ele>
        <time>2021-03-16T10:31:39+01:00</time>
      </trkpt>
      <trkpt lat="47.66128" lon="-2.78121">
        <ele>25</ele>
        <time>2021-03-16T10:31:40+01:00</time>
      </trkpt>
      <trkpt lat="47.66132" lon="-2.78122">
        <ele>25</ele>
        <time>2021-03-16T10:31:41+01:00</time>
      </trkpt>
      <trkpt lat="47.66136" lon="-2.78124">
        <ele>26</ele>
        <time>2021-03-16T10:31:42+01:00</time>
      </trkpt>
      <trkpt lat="47.66139" lon="-2.78125">
        <ele>26</ele>
        <time>2021-03-16T10:31:43+01:00</time>
      </trkpt>
      <trkpt lat="47.66143" lon="-2.78126">
        <ele>26</ele>
        <time>2021-03-16T10:31:44+01:00</time>
      </trkpt>
      <trkpt lat="47.66147" lon="-2.78127">
        <ele>26</ele>
        <time>2021-03-16T10:31:45+01:00</time>
      </trkpt>
      <trkpt lat="47.6615" lon="-2.78128">
        <ele>26</ele>
        <time>2021-03-16T10:31:46+01:00</time>
      </trkpt>
      <trkpt lat="47.66154" lon="-2.78128">
        <ele>26</ele>
        <time>2021-03-16T10:31:47+01:00</time>
      </trkpt>
      <trkpt lat="47.66158" lon="-2.78129">
        <ele>26</ele>
        <time>2021-03-16T10:31:48+01:00</time>
      </trkpt>
      <trkpt lat="47.66161" lon="-2.7813">
        <ele>26</ele>
        <time>2021-03-16T10:31:49+01:00</time>
      </trkpt>
      <trkpt lat="47.66164" lon="-2.78131">
        <ele>26</ele>
        <time>2021-03-16T10:31:50+01:00</time>
      </trkpt>
      <trkpt lat="47.66168" lon="-2.78132">
        <ele>26</ele>
        <time>2021-03-16T10:31:51+01:00</time>
      </trkpt>
      <trkpt lat="47.66171" lon="-2.78132">
        <ele>26</ele>
        <time>2021-03-16T10:31:52+01:00</time>
      </trkpt>
      <trkpt lat="47.66175" lon="-2.78133">
        <ele>26</ele>
        <time>2021-03-16T10:31:53+01:00</time>
      </trkpt>
      <trkpt lat="47.66178" lon="-2.78134">
        <ele>26</ele>
        <time>2021-03-16T10:31:54+01:00</time>
      </trkpt>
      <trkpt lat="47.66182" lon="-2.78135">
        <ele>26</ele>
        <time>2021-03-16T10:31:55+01:00</time>
      </trkpt>
      <trkpt lat="47.66185" lon="-2.78137">
        <ele>26</ele>
        <time>2021-03-16T10:31:56+01:00</time>
      </trkpt>
      <trkpt lat="47.66189" lon="-2.78138">
        <ele>26</ele>
        <time>2021-03-16T10:31:57+01:00</time>
      </trkpt>
      <trkpt lat="47.66193" lon="-2.78139">
        <ele>26</ele>
        <time>2021-03-16T10:31:58+01:00</time>
      </trkpt>
      <trkpt lat="47.66197" lon="-2.78141">
        <ele>26</ele>
        <time>2021-03-16T10:31:59+01:00</time>
      </trkpt>
      <trkpt lat="47.66201" lon="-2.78142">
        <ele>26</ele>
        <time>2021-03-16T10:32:00+01:00</time>
      </trkpt>
      <trkpt lat="47.66205" lon="-2.78144">
        <ele>26</ele>
        <time>2021-03-16T10:32:01+01:00</time>
      </trkpt>
      <trkpt lat="47.6621" lon="-2.78146">
        <ele>26</ele>
        <time>2021-03-16T10:32:02+01:00</time>
      </trkpt>
      <trkpt lat="47.66214" lon="-2.78147">
        <ele>26</ele>
        <time>2021-03-16T10:32:03+01:00</time>
      </trkpt>
      <trkpt lat="47.66219" lon="-2.78148">
        <ele>26</ele>
        <time>2021-03-16T10:32:04+01:00</time>
      </trkpt>
      <trkpt lat="47.66223" lon="-2.78149">
        <ele>26</ele>
        <time>2021-03-16T10:32:05+01:00</time>
      </trkpt>
      <trkpt lat="47.66227" lon="-2.78149">
        <ele>26</ele>
        <time>2021-03-16T10:32:06+01:00</time>
      </trkpt>
      <trkpt lat="47.66231" lon="-2.7815">
        <ele>26</ele>
        <time>2021-03-16T10:32:07+01:00</time>
      </trkpt>
      <trkpt lat="47.66235" lon="-2.78151">
        <ele>26</ele>
        <time>2021-03-16T10:32:08+01:00</time>
      </trkpt>
      <trkpt lat="47.66239" lon="-2.78151">
        <ele>26</ele>
        <time>2021-03-16T10:32:09+01:00</time>
      </trkpt>
      <trkpt lat="47.66242" lon="-2.78152">
        <ele>26</ele>
        <time>2021-03-16T10:32:10+01:00</time>
      </trkpt>
      <trkpt lat="47.66246" lon="-2.78153">
        <ele>26</ele>
        <time>2021-03-16T10:32:11+01:00</time>
      </trkpt>
      <trkpt lat="47.6625" lon="-2.78153">
        <ele>26</ele>
        <time>2021-03-16T10:32:12+01:00</time>
      </trkpt>
      <trkpt lat="47.66254" lon="-2.78154">
        <ele>26</ele>
        <time>2021-03-16T10:32:13+01:00</time>
      </trkpt>
      <trkpt lat="47.66258" lon="-2.78154">
        <ele>26</ele>
        <time>2021-03-16T10:32:14+01:00</time>
      </trkpt>
      <trkpt lat="47.66262" lon="-2.78154">
        <ele>26</ele>
        <time>2021-03-16T10:32:15+01:00</time>
      </trkpt>
      <trkpt lat="47.66266" lon="-2.78154">
        <ele>26</ele>
        <time>2021-03-16T10:32:16+01:00</time>
      </trkpt>
      <trkpt lat="47.66269" lon="-2.78154">
        <ele>26</ele>
        <time>2021-03-16T10:32:17+01:00</time>
      </trkpt>
      <trkpt lat="47.66273" lon="-2.78154">
        <ele>26</ele>
        <time>2021-03-16T10:32:18+01:00</time>
      </trkpt>
      <trkpt lat="47.66277" lon="-2.78154">
        <ele>26</ele>
        <time>2021-03-16T10:32:19+01:00</time>
      </trkpt>
      <trkpt lat="47.6628" lon="-2.78154">
        <ele>26</ele>
        <time>2021-03-16T10:32:20+01:00</time>
      </trkpt>
      <trkpt lat="47.66284" lon="-2.78154">
        <ele>26</ele>
        <time>2021-03-16T10:32:21+01:00</time>
      </trkpt>
      <trkpt lat="47.66288" lon="-2.78153">
        <ele>26</ele>
        <time>2021-03-16T10:32:22+01:00</time>
      </trkpt>
      <trkpt lat="47.66291" lon="-2.78153">
        <ele>26</ele>
        <time>2021-03-16T10:32:23+01:00</time>
      </trkpt>
      <trkpt lat="47.66295" lon="-2.78152">
        <ele>27</ele>
        <time>2021-03-16T10:32:24+01:00</time>
      </trkpt>
      <trkpt lat="47.66298" lon="-2.78151">
        <ele>27</ele>
        <time>2021-03-16T10:32:25+01:00</time>
      </trkpt>
      <trkpt lat="47.66302" lon="-2.7815">
        <ele>27</ele>
        <time>2021-03-16T10:32:26+01:00</time>
      </trkpt>
      <trkpt lat="47.66306" lon="-2.78149">
        <ele>27</ele>
        <time>2021-03-16T10:32:27+01:00</time>
      </trkpt>
      <trkpt lat="47.6631" lon="-2.78149">
        <ele>27</ele>
        <time>2021-03-16T10:32:28+01:00</time>
      </trkpt>
      <trkpt lat="47.66314" lon="-2.78148">
        <ele>27</ele>
        <time>2021-03-16T10:32:29+01:00</time>
      </trkpt>
      <trkpt lat="47.66317" lon="-2.78148">
        <ele>27</ele>
        <time>2021-03-16T10:32:30+01:00</time>
      </trkpt>
      <trkpt lat="47.66321" lon="-2.78148">
        <ele>27</ele>
        <time>2021-03-16T10:32:31+01:00</time>
      </trkpt>
      <trkpt lat="47.66325" lon="-2.78148">
        <ele>27</ele>
        <time>2021-03-16T10:32:32+01:00</time>
      </trkpt>
      <trkpt lat="47.66329" lon="-2.78147">
        <ele>27</ele>
        <time>2021-03-16T10:32:33+01:00</time>
      </trkpt>
      <trkpt lat="47.66334" lon="-2.78147">
        <ele>27</ele>
        <time>2021-03-16T10:32:34+01:00</time>
      </trkpt>
      <trkpt lat="47.66338" lon="-2.78146">
        <ele>27</ele>
        <time>2021-03-16T10:32:35+01:00</time>
      </trkpt>
      <trkpt lat="47.66341" lon="-2.78146">
        <ele>27</ele>
        <time>2021-03-16T10:32:36+01:00</time>
      </trkpt>
      <trkpt lat="47.66345" lon="-2.78146">
        <ele>27</ele>
        <time>2021-03-16T10:32:37+01:00</time>
      </trkpt>
      <trkpt lat="47.66348" lon="-2.78145">
        <ele>27</ele>
        <time>2021-03-16T10:32:38+01:00</time>
      </trkpt>
      <trkpt lat="47.66351" lon="-2.78144">
        <ele>27</ele>
        <time>2021-03-16T10:32:39+01:00</time>
      </trkpt>
      <trkpt lat="47.66355" lon="-2.78144">
        <ele>28</ele>
        <time>2021-03-16T10:32:40+01:00</time>
      </trkpt>
      <trkpt lat="47.66359" lon="-2.78144">
        <ele>28</ele>
        <time>2021-03-16T10:32:41+01:00</time>
      </trkpt>
      <trkpt lat="47.66363" lon="-2.78143">
        <ele>28</ele>
        <time>2021-03-16T10:32:42+01:00</time>
      </trkpt>
      <trkpt lat="47.66367" lon="-2.78143">
        <ele>28</ele>
        <time>2021-03-16T10:32:43+01:00</time>
      </trkpt>
      <trkpt lat="47.6637" lon="-2.78142">
        <ele>28</ele>
        <time>2021-03-16T10:32:44+01:00</time>
      </trkpt>
      <trkpt lat="47.66374" lon="-2.78141">
        <ele>28</ele>
        <time>2021-03-16T10:32:45+01:00</time>
      </trkpt>
      <trkpt lat="47.66378" lon="-2.7814">
        <ele>28</ele>
        <time>2021-03-16T10:32:46+01:00</time>
      </trkpt>
      <trkpt lat="47.66381" lon="-2.78138">
        <ele>28</ele>
        <time>2021-03-16T10:32:47+01:00</time>
      </trkpt>
      <trkpt lat="47.66384" lon="-2.78137">
        <ele>28</ele>
        <time>2021-03-16T10:32:48+01:00</time>
      </trkpt>
      <trkpt lat="47.66387" lon="-2.78136">
        <ele>28</ele>
        <time>2021-03-16T10:32:49+01:00</time>
      </trkpt>
      <trkpt lat="47.6639" lon="-2.78135">
        <ele>28</ele>
        <time>2021-03-16T10:32:50+01:00</time>
      </trkpt>
      <trkpt lat="47.66394" lon="-2.78134">
        <ele>28</ele>
        <time>2021-03-16T10:32:51+01:00</time>
      </trkpt>
      <trkpt lat="47.66397" lon="-2.78132">
        <ele>29</ele>
        <time>2021-03-16T10:32:52+01:00</time>
      </trkpt>
      <trkpt lat="47.66401" lon="-2.78131">
        <ele>29</ele>
        <time>2021-03-16T10:32:53+01:00</time>
      </trkpt>
      <trkpt lat="47.66404" lon="-2.78129">
        <ele>29</ele>
        <time>2021-03-16T10:32:54+01:00</time>
      </trkpt>
      <trkpt lat="47.66408" lon="-2.78127">
        <ele>29</ele>
        <time>2021-03-16T10:32:56+01:00</time>
      </trkpt>
      <trkpt lat="47.66412" lon="-2.78127">
        <ele>29</ele>
        <time>2021-03-16T10:32:58+01:00</time>
      </trkpt>
      <trkpt lat="47.66416" lon="-2.78128">
        <ele>29</ele>
        <time>2021-03-16T10:33:00+01:00</time>
      </trkpt>
      <trkpt lat="47.6642" lon="-2.78129">
        <ele>29</ele>
        <time>2021-03-16T10:33:02+01:00</time>
      </trkpt>
      <trkpt lat="47.66433" lon="-2.78126">
        <ele>29</ele>
        <time>2021-03-16T10:34:11+01:00</time>
      </trkpt>
      <trkpt lat="47.66441" lon="-2.78124">
        <ele>29</ele>
        <time>2021-03-16T10:34:13+01:00</time>
      </trkpt>
      <trkpt lat="47.66447" lon="-2.78126">
        <ele>28</ele>
        <time>2021-03-16T10:34:15+01:00</time>
      </trkpt>
      <trkpt lat="47.66451" lon="-2.78128">
        <ele>28</ele>
        <time>2021-03-16T10:34:16+01:00</time>
      </trkpt>
      <trkpt lat="47.66455" lon="-2.78132">
        <ele>28</ele>
        <time>2021-03-16T10:34:17+01:00</time>
      </trkpt>
      <trkpt lat="47.66458" lon="-2.78135">
        <ele>28</ele>
        <time>2021-03-16T10:34:18+01:00</time>
      </trkpt>
      <trkpt lat="47.66462" lon="-2.78139">
        <ele>28</ele>
        <time>2021-03-16T10:34:19+01:00</time>
      </trkpt>
      <trkpt lat="47.66465" lon="-2.78143">
        <ele>28</ele>
        <time>2021-03-16T10:34:20+01:00</time>
      </trkpt>
      <trkpt lat="47.66468" lon="-2.78147">
        <ele>28</ele>
        <time>2021-03-16T10:34:21+01:00</time>
      </trkpt>
      <trkpt lat="47.66471" lon="-2.78151">
        <ele>28</ele>
        <time>2021-03-16T10:34:22+01:00</time>
      </trkpt>
      <trkpt lat="47.66474" lon="-2.78154">
        <ele>28</ele>
        <time>2021-03-16T10:34:23+01:00</time>
      </trkpt>
      <trkpt lat="47.66477" lon="-2.78158">
        <ele>28</ele>
        <time>2021-03-16T10:34:24+01:00</time>
      </trkpt>
      <trkpt lat="47.66481" lon="-2.78162">
        <ele>27</ele>
        <time>2021-03-16T10:34:25+01:00</time>
      </trkpt>
      <trkpt lat="47.66484" lon="-2.78166">
        <ele>27</ele>
        <time>2021-03-16T10:34:26+01:00</time>
      </trkpt>
      <trkpt lat="47.66488" lon="-2.7817">
        <ele>27</ele>
        <time>2021-03-16T10:34:27+01:00</time>
      </trkpt>
      <trkpt lat="47.66491" lon="-2.78174">
        <ele>27</ele>
        <time>2021-03-16T10:34:28+01:00</time>
      </trkpt>
      <trkpt lat="47.66494" lon="-2.78178">
        <ele>27</ele>
        <time>2021-03-16T10:34:29+01:00</time>
      </trkpt>
      <trkpt lat="47.66497" lon="-2.78181">
        <ele>27</ele>
        <time>2021-03-16T10:34:30+01:00</time>
      </trkpt>
      <trkpt lat="47.665" lon="-2.78185">
        <ele>27</ele>
        <time>2021-03-16T10:34:31+01:00</time>
      </trkpt>
      <trkpt lat="47.66503" lon="-2.78189">
        <ele>27</ele>
        <time>2021-03-16T10:34:32+01:00</time>
      </trkpt>
      <trkpt lat="47.66506" lon="-2.78192">
        <ele>27</ele>
        <time>2021-03-16T10:34:33+01:00</time>
      </trkpt>
      <trkpt lat="47.66509" lon="-2.78196">
        <ele>27</ele>
        <time>2021-03-16T10:34:34+01:00</time>
      </trkpt>
      <trkpt lat="47.66512" lon="-2.782">
        <ele>27</ele>
        <time>2021-03-16T10:34:35+01:00</time>
      </trkpt>
      <trkpt lat="47.66515" lon="-2.78204">
        <ele>27</ele>
        <time>2021-03-16T10:34:36+01:00</time>
      </trkpt>
      <trkpt lat="47.66519" lon="-2.78207">
        <ele>27</ele>
        <time>2021-03-16T10:34:37+01:00</time>
      </trkpt>
      <trkpt lat="47.66522" lon="-2.78211">
        <ele>28</ele>
        <time>2021-03-16T10:34:38+01:00</time>
      </trkpt>
      <trkpt lat="47.66525" lon="-2.78214">
        <ele>28</ele>
        <time>2021-03-16T10:34:39+01:00</time>
      </trkpt>
      <trkpt lat="47.66528" lon="-2.78218">
        <ele>28</ele>
        <time>2021-03-16T10:34:40+01:00</time>
      </trkpt>
      <trkpt lat="47.6653" lon="-2.78221">
        <ele>28</ele>
        <time>2021-03-16T10:34:41+01:00</time>
      </trkpt>
      <trkpt lat="47.66533" lon="-2.78225">
        <ele>28</ele>
        <time>2021-03-16T10:34:42+01:00</time>
      </trkpt>
      <trkpt lat="47.66535" lon="-2.78228">
        <ele>28</ele>
        <time>2021-03-16T10:34:43+01:00</time>
      </trkpt>
      <trkpt lat="47.66539" lon="-2.78231">
        <ele>28</ele>
        <time>2021-03-16T10:34:44+01:00</time>
      </trkpt>
      <trkpt lat="47.66542" lon="-2.78235">
        <ele>28</ele>
        <time>2021-03-16T10:34:45+01:00</time>
      </trkpt>
      <trkpt lat="47.66545" lon="-2.78238">
        <ele>28</ele>
        <time>2021-03-16T10:34:46+01:00</time>
      </trkpt>
      <trkpt lat="47.66549" lon="-2.78242">
        <ele>28</ele>
        <time>2021-03-16T10:34:47+01:00</time>
      </trkpt>
      <trkpt lat="47.66552" lon="-2.78246">
        <ele>28</ele>
        <time>2021-03-16T10:34:48+01:00</time>
      </trkpt>
      <trkpt lat="47.66555" lon="-2.78249">
        <ele>28</ele>
        <time>2021-03-16T10:34:49+01:00</time>
      </trkpt>
      <trkpt lat="47.66559" lon="-2.78253">
        <ele>28</ele>
        <time>2021-03-16T10:34:50+01:00</time>
      </trkpt>
      <trkpt lat="47.66562" lon="-2.78256">
        <ele>29</ele>
        <time>2021-03-16T10:34:51+01:00</time>
      </trkpt>
      <trkpt lat="47.66565" lon="-2.78259">
        <ele>29</ele>
        <time>2021-03-16T10:34:52+01:00</time>
      </trkpt>
      <trkpt lat="47.66569" lon="-2.78262">
        <ele>29</ele>
        <time>2021-03-16T10:34:53+01:00</time>
      </trkpt>
      <trkpt lat="47.66572" lon="-2.78266">
        <ele>29</ele>
        <time>2021-03-16T10:34:54+01:00</time>
      </trkpt>
      <trkpt lat="47.66575" lon="-2.7827">
        <ele>29</ele>
        <time>2021-03-16T10:34:55+01:00</time>
      </trkpt>
      <trkpt lat="47.66579" lon="-2.78274">
        <ele>29</ele>
        <time>2021-03-16T10:34:56+01:00</time>
      </trkpt>
      <trkpt lat="47.66582" lon="-2.78278">
        <ele>30</ele>
        <time>2021-03-16T10:34:57+01:00</time>
      </trkpt>
      <trkpt lat="47.66585" lon="-2.78282">
        <ele>30</ele>
        <time>2021-03-16T10:34:58+01:00</time>
      </trkpt>
      <trkpt lat="47.66588" lon="-2.78286">
        <ele>30</ele>
        <time>2021-03-16T10:34:59+01:00</time>
      </trkpt>
      <trkpt lat="47.66592" lon="-2.7829">
        <ele>30</ele>
        <time>2021-03-16T10:35:00+01:00</time>
      </trkpt>
      <trkpt lat="47.66595" lon="-2.78294">
        <ele>30</ele>
        <time>2021-03-16T10:35:01+01:00</time>
      </trkpt>
      <trkpt lat="47.66598" lon="-2.78297">
        <ele>30</ele>
        <time>2021-03-16T10:35:02+01:00</time>
      </trkpt>
      <trkpt lat="47.66601" lon="-2.78301">
        <ele>31</ele>
        <time>2021-03-16T10:35:03+01:00</time>
      </trkpt>
      <trkpt lat="47.66603" lon="-2.78305">
        <ele>31</ele>
        <time>2021-03-16T10:35:04+01:00</time>
      </trkpt>
      <trkpt lat="47.66606" lon="-2.78309">
        <ele>31</ele>
        <time>2021-03-16T10:35:05+01:00</time>
      </trkpt>
      <trkpt lat="47.66609" lon="-2.78313">
        <ele>31</ele>
        <time>2021-03-16T10:35:06+01:00</time>
      </trkpt>
      <trkpt lat="47.66613" lon="-2.78317">
        <ele>31</ele>
        <time>2021-03-16T10:35:07+01:00</time>
      </trkpt>
      <trkpt lat="47.66616" lon="-2.7832">
        <ele>31</ele>
        <time>2021-03-16T10:35:08+01:00</time>
      </trkpt>
      <trkpt lat="47.66619" lon="-2.78324">
        <ele>32</ele>
        <time>2021-03-16T10:35:09+01:00</time>
      </trkpt>
      <trkpt lat="47.66622" lon="-2.78327">
        <ele>32</ele>
        <time>2021-03-16T10:35:10+01:00</time>
      </trkpt>
      <trkpt lat="47.66624" lon="-2.78331">
        <ele>32</ele>
        <time>2021-03-16T10:35:11+01:00</time>
      </trkpt>
      <trkpt lat="47.66627" lon="-2.78335">
        <ele>32</ele>
        <time>2021-03-16T10:35:12+01:00</time>
      </trkpt>
      <trkpt lat="47.6663" lon="-2.7834">
        <ele>32</ele>
        <time>2021-03-16T10:35:13+01:00</time>
      </trkpt>
      <trkpt lat="47.66632" lon="-2.78345">
        <ele>32</ele>
        <time>2021-03-16T10:35:14+01:00</time>
      </trkpt>
      <trkpt lat="47.66634" lon="-2.78349">
        <ele>32</ele>
        <time>2021-03-16T10:35:15+01:00</time>
      </trkpt>
      <trkpt lat="47.66636" lon="-2.78354">
        <ele>32</ele>
        <time>2021-03-16T10:35:16+01:00</time>
      </trkpt>
      <trkpt lat="47.66638" lon="-2.78359">
        <ele>32</ele>
        <time>2021-03-16T10:35:17+01:00</time>
      </trkpt>
      <trkpt lat="47.66641" lon="-2.78364">
        <ele>32</ele>
        <time>2021-03-16T10:35:18+01:00</time>
      </trkpt>
      <trkpt lat="47.66643" lon="-2.7837">
        <ele>32</ele>
        <time>2021-03-16T10:35:19+01:00</time>
      </trkpt>
      <trkpt lat="47.66645" lon="-2.78374">
        <ele>32</ele>
        <time>2021-03-16T10:35:20+01:00</time>
      </trkpt>
      <trkpt lat="47.66647" lon="-2.78379">
        <ele>33</ele>
        <time>2021-03-16T10:35:21+01:00</time>
      </trkpt>
      <trkpt lat="47.66649" lon="-2.78385">
        <ele>33</ele>
        <time>2021-03-16T10:35:22+01:00</time>
      </trkpt>
      <trkpt lat="47.66651" lon="-2.7839">
        <ele>33</ele>
        <time>2021-03-16T10:35:23+01:00</time>
      </trkpt>
      <trkpt lat="47.66654" lon="-2.78395">
        <ele>33</ele>
        <time>2021-03-16T10:35:24+01:00</time>
      </trkpt>
      <trkpt lat="47.66657" lon="-2.784">
        <ele>33</ele>
        <time>2021-03-16T10:35:25+01:00</time>
      </trkpt>
      <trkpt lat="47.6666" lon="-2.78405">
        <ele>33</ele>
        <time>2021-03-16T10:35:26+01:00</time>
      </trkpt>
      <trkpt lat="47.66663" lon="-2.7841">
        <ele>33</ele>
        <time>2021-03-16T10:35:27+01:00</time>
      </trkpt>
      <trkpt lat="47.66666" lon="-2.78414">
        <ele>33</ele>
        <time>2021-03-16T10:35:28+01:00</time>
      </trkpt>
      <trkpt lat="47.66669" lon="-2.78419">
        <ele>33</ele>
        <time>2021-03-16T10:35:29+01:00</time>
      </trkpt>
      <trkpt lat="47.66672" lon="-2.78424">
        <ele>32</ele>
        <time>2021-03-16T10:35:30+01:00</time>
      </trkpt>
      <trkpt lat="47.66674" lon="-2.78429">
        <ele>32</ele>
        <time>2021-03-16T10:35:31+01:00</time>
      </trkpt>
      <trkpt lat="47.66677" lon="-2.78434">
        <ele>32</ele>
        <time>2021-03-16T10:35:32+01:00</time>
      </trkpt>
      <trkpt lat="47.66681" lon="-2.78439">
        <ele>31</ele>
        <time>2021-03-16T10:35:33+01:00</time>
      </trkpt>
      <trkpt lat="47.66684" lon="-2.78443">
        <ele>31</ele>
        <time>2021-03-16T10:35:34+01:00</time>
      </trkpt>
      <trkpt lat="47.66688" lon="-2.78448">
        <ele>31</ele>
        <time>2021-03-16T10:35:35+01:00</time>
      </trkpt>
      <trkpt lat="47.66691" lon="-2.78451">
        <ele>31</ele>
        <time>2021-03-16T10:35:36+01:00</time>
      </trkpt>
      <trkpt lat="47.66695" lon="-2.78454">
        <ele>31</ele>
        <time>2021-03-16T10:35:37+01:00</time>
      </trkpt>
      <trkpt lat="47.66698" lon="-2.78458">
        <ele>31</ele>
        <time>2021-03-16T10:35:38+01:00</time>
      </trkpt>
      <trkpt lat="47.66701" lon="-2.78461">
        <ele>31</ele>
        <time>2021-03-16T10:35:39+01:00</time>
      </trkpt>
      <trkpt lat="47.66703" lon="-2.78466">
        <ele>31</ele>
        <time>2021-03-16T10:35:40+01:00</time>
      </trkpt>
      <trkpt lat="47.66704" lon="-2.78471">
        <ele>30</ele>
        <time>2021-03-16T10:35:41+01:00</time>
      </trkpt>
      <trkpt lat="47.66704" lon="-2.78476">
        <ele>30</ele>
        <time>2021-03-16T10:35:42+01:00</time>
      </trkpt>
      <trkpt lat="47.66705" lon="-2.78482">
        <ele>30</ele>
        <time>2021-03-16T10:35:43+01:00</time>
      </trkpt>
      <trkpt lat="47.66706" lon="-2.78488">
        <ele>30</ele>
        <time>2021-03-16T10:35:44+01:00</time>
      </trkpt>
      <trkpt lat="47.66707" lon="-2.78494">
        <ele>30</ele>
        <time>2021-03-16T10:35:45+01:00</time>
      </trkpt>
      <trkpt lat="47.66709" lon="-2.785">
        <ele>30</ele>
        <time>2021-03-16T10:35:46+01:00</time>
      </trkpt>
      <trkpt lat="47.66712" lon="-2.78505">
        <ele>30</ele>
        <time>2021-03-16T10:35:47+01:00</time>
      </trkpt>
      <trkpt lat="47.66715" lon="-2.7851">
        <ele>30</ele>
        <time>2021-03-16T10:35:48+01:00</time>
      </trkpt>
      <trkpt lat="47.66718" lon="-2.78515">
        <ele>30</ele>
        <time>2021-03-16T10:35:49+01:00</time>
      </trkpt>
      <trkpt lat="47.66721" lon="-2.78519">
        <ele>30</ele>
        <time>2021-03-16T10:35:50+01:00</time>
      </trkpt>
      <trkpt lat="47.66724" lon="-2.78524">
        <ele>30</ele>
        <time>2021-03-16T10:35:51+01:00</time>
      </trkpt>
      <trkpt lat="47.66727" lon="-2.78528">
        <ele>30</ele>
        <time>2021-03-16T10:35:52+01:00</time>
      </trkpt>
      <trkpt lat="47.66729" lon="-2.78532">
        <ele>31</ele>
        <time>2021-03-16T10:35:53+01:00</time>
      </trkpt>
      <trkpt lat="47.66732" lon="-2.78537">
        <ele>31</ele>
        <time>2021-03-16T10:35:54+01:00</time>
      </trkpt>
      <trkpt lat="47.66734" lon="-2.78542">
        <ele>31</ele>
        <time>2021-03-16T10:35:55+01:00</time>
      </trkpt>
      <trkpt lat="47.66736" lon="-2.78547">
        <ele>31</ele>
        <time>2021-03-16T10:35:56+01:00</time>
      </trkpt>
      <trkpt lat="47.66738" lon="-2.78552">
        <ele>31</ele>
        <time>2021-03-16T10:35:57+01:00</time>
      </trkpt>
      <trkpt lat="47.6674" lon="-2.78557">
        <ele>31</ele>
        <time>2021-03-16T10:35:58+01:00</time>
      </trkpt>
      <trkpt lat="47.66742" lon="-2.78562">
        <ele>31</ele>
        <time>2021-03-16T10:35:59+01:00</time>
      </trkpt>
      <trkpt lat="47.66744" lon="-2.78568">
        <ele>31</ele>
        <time>2021-03-16T10:36:00+01:00</time>
      </trkpt>
      <trkpt lat="47.66746" lon="-2.78573">
        <ele>31</ele>
        <time>2021-03-16T10:36:01+01:00</time>
      </trkpt>
      <trkpt lat="47.66748" lon="-2.78578">
        <ele>31</ele>
        <time>2021-03-16T10:36:02+01:00</time>
      </trkpt>
      <trkpt lat="47.66751" lon="-2.78583">
        <ele>31</ele>
        <time>2021-03-16T10:36:03+01:00</time>
      </trkpt>
      <trkpt lat="47.66754" lon="-2.78588">
        <ele>31</ele>
        <time>2021-03-16T10:36:04+01:00</time>
      </trkpt>
      <trkpt lat="47.66756" lon="-2.78593">
        <ele>31</ele>
        <time>2021-03-16T10:36:05+01:00</time>
      </trkpt>
      <trkpt lat="47.66759" lon="-2.78598">
        <ele>31</ele>
        <time>2021-03-16T10:36:06+01:00</time>
      </trkpt>
      <trkpt lat="47.66761" lon="-2.78603">
        <ele>31</ele>
        <time>2021-03-16T10:36:07+01:00</time>
      </trkpt>
      <trkpt lat="47.66764" lon="-2.78608">
        <ele>31</ele>
        <time>2021-03-16T10:36:08+01:00</time>
      </trkpt>
      <trkpt lat="47.66766" lon="-2.78613">
        <ele>32</ele>
        <time>2021-03-16T10:36:09+01:00</time>
      </trkpt>
      <trkpt lat="47.66768" lon="-2.78618">
        <ele>32</ele>
        <time>2021-03-16T10:36:10+01:00</time>
      </trkpt>
      <trkpt lat="47.66771" lon="-2.78622">
        <ele>32</ele>
        <time>2021-03-16T10:36:11+01:00</time>
      </trkpt>
      <trkpt lat="47.66773" lon="-2.78627">
        <ele>32</ele>
        <time>2021-03-16T10:36:12+01:00</time>
      </trkpt>
      <trkpt lat="47.66775" lon="-2.78632">
        <ele>32</ele>
        <time>2021-03-16T10:36:13+01:00</time>
      </trkpt>
      <trkpt lat="47.66778" lon="-2.78636">
        <ele>32</ele>
        <time>2021-03-16T10:36:14+01:00</time>
      </trkpt>
      <trkpt lat="47.6678" lon="-2.78641">
        <ele>32</ele>
        <time>2021-03-16T10:36:15+01:00</time>
      </trkpt>
      <trkpt lat="47.66783" lon="-2.78646">
        <ele>32</ele>
        <time>2021-03-16T10:36:16+01:00</time>
      </trkpt>
      <trkpt lat="47.66785" lon="-2.78651">
        <ele>32</ele>
        <time>2021-03-16T10:36:17+01:00</time>
      </trkpt>
      <trkpt lat="47.66787" lon="-2.78655">
        <ele>32</ele>
        <time>2021-03-16T10:36:18+01:00</time>
      </trkpt>
      <trkpt lat="47.66789" lon="-2.7866">
        <ele>32</ele>
        <time>2021-03-16T10:36:19+01:00</time>
      </trkpt>
      <trkpt lat="47.6679" lon="-2.78664">
        <ele>32</ele>
        <time>2021-03-16T10:36:20+01:00</time>
      </trkpt>
      <trkpt lat="47.66792" lon="-2.78668">
        <ele>33</ele>
        <time>2021-03-16T10:36:21+01:00</time>
      </trkpt>
      <trkpt lat="47.66794" lon="-2.78673">
        <ele>33</ele>
        <time>2021-03-16T10:36:22+01:00</time>
      </trkpt>
      <trkpt lat="47.66796" lon="-2.78677">
        <ele>33</ele>
        <time>2021-03-16T10:36:23+01:00</time>
      </trkpt>
      <trkpt lat="47.66798" lon="-2.78681">
        <ele>33</ele>
        <time>2021-03-16T10:36:24+01:00</time>
      </trkpt>
      <trkpt lat="47.66801" lon="-2.78686">
        <ele>33</ele>
        <time>2021-03-16T10:36:25+01:00</time>
      </trkpt>
      <trkpt lat="47.66803" lon="-2.7869">
        <ele>33</ele>
        <time>2021-03-16T10:36:26+01:00</time>
      </trkpt>
      <trkpt lat="47.66805" lon="-2.78694">
        <ele>33</ele>
        <time>2021-03-16T10:36:27+01:00</time>
      </trkpt>
      <trkpt lat="47.66807" lon="-2.78698">
        <ele>33</ele>
        <time>2021-03-16T10:36:28+01:00</time>
      </trkpt>
      <trkpt lat="47.6681" lon="-2.78702">
        <ele>33</ele>
        <time>2021-03-16T10:36:29+01:00</time>
      </trkpt>
      <trkpt lat="47.66812" lon="-2.78706">
        <ele>33</ele>
        <time>2021-03-16T10:36:30+01:00</time>
      </trkpt>
      <trkpt lat="47.66814" lon="-2.7871">
        <ele>33</ele>
        <time>2021-03-16T10:36:31+01:00</time>
      </trkpt>
      <trkpt lat="47.66815" lon="-2.78714">
        <ele>33</ele>
        <time>2021-03-16T10:36:32+01:00</time>
      </trkpt>
      <trkpt lat="47.66817" lon="-2.78717">
        <ele>33</ele>
        <time>2021-03-16T10:36:33+01:00</time>
      </trkpt>
      <trkpt lat="47.66819" lon="-2.78721">
        <ele>33</ele>
        <time>2021-03-16T10:36:34+01:00</time>
      </trkpt>
      <trkpt lat="47.66821" lon="-2.78724">
        <ele>33</ele>
        <time>2021-03-16T10:36:35+01:00</time>
      </trkpt>
      <trkpt lat="47.66823" lon="-2.78728">
        <ele>33</ele>
        <time>2021-03-16T10:36:36+01:00</time>
      </trkpt>
      <trkpt lat="47.66825" lon="-2.78732">
        <ele>33</ele>
        <time>2021-03-16T10:36:37+01:00</time>
      </trkpt>
      <trkpt lat="47.66827" lon="-2.78736">
        <ele>33</ele>
        <time>2021-03-16T10:36:38+01:00</time>
      </trkpt>
      <trkpt lat="47.66829" lon="-2.7874">
        <ele>33</ele>
        <time>2021-03-16T10:36:39+01:00</time>
      </trkpt>
      <trkpt lat="47.66832" lon="-2.78744">
        <ele>33</ele>
        <time>2021-03-16T10:36:40+01:00</time>
      </trkpt>
      <trkpt lat="47.66834" lon="-2.78748">
        <ele>33</ele>
        <time>2021-03-16T10:36:41+01:00</time>
      </trkpt>
      <trkpt lat="47.66836" lon="-2.78752">
        <ele>33</ele>
        <time>2021-03-16T10:36:42+01:00</time>
      </trkpt>
      <trkpt lat="47.66839" lon="-2.78756">
        <ele>34</ele>
        <time>2021-03-16T10:36:43+01:00</time>
      </trkpt>
      <trkpt lat="47.66841" lon="-2.78759">
        <ele>34</ele>
        <time>2021-03-16T10:36:44+01:00</time>
      </trkpt>
      <trkpt lat="47.66843" lon="-2.78763">
        <ele>34</ele>
        <time>2021-03-16T10:36:45+01:00</time>
      </trkpt>
      <trkpt lat="47.66845" lon="-2.78767">
        <ele>34</ele>
        <time>2021-03-16T10:36:46+01:00</time>
      </trkpt>
      <trkpt lat="47.66848" lon="-2.78771">
        <ele>35</ele>
        <time>2021-03-16T10:36:47+01:00</time>
      </trkpt>
      <trkpt lat="47.6685" lon="-2.78775">
        <ele>35</ele>
        <time>2021-03-16T10:36:48+01:00</time>
      </trkpt>
      <trkpt lat="47.66853" lon="-2.78778">
        <ele>35</ele>
        <time>2021-03-16T10:36:49+01:00</time>
      </trkpt>
      <trkpt lat="47.66856" lon="-2.78781">
        <ele>35</ele>
        <time>2021-03-16T10:36:50+01:00</time>
      </trkpt>
      <trkpt lat="47.66859" lon="-2.78784">
        <ele>36</ele>
        <time>2021-03-16T10:36:51+01:00</time>
      </trkpt>
      <trkpt lat="47.66862" lon="-2.78787">
        <ele>36</ele>
        <time>2021-03-16T10:36:52+01:00</time>
      </trkpt>
      <trkpt lat="47.66864" lon="-2.7879">
        <ele>36</ele>
        <time>2021-03-16T10:36:53+01:00</time>
      </trkpt>
      <trkpt lat="47.66867" lon="-2.78793">
        <ele>36</ele>
        <time>2021-03-16T10:36:54+01:00</time>
      </trkpt>
      <trkpt lat="47.66871" lon="-2.78796">
        <ele>36</ele>
        <time>2021-03-16T10:36:55+01:00</time>
      </trkpt>
      <trkpt lat="47.66874" lon="-2.78799">
        <ele>37</ele>
        <time>2021-03-16T10:36:56+01:00</time>
      </trkpt>
      <trkpt lat="47.66877" lon="-2.78801">
        <ele>37</ele>
        <time>2021-03-16T10:36:57+01:00</time>
      </trkpt>
      <trkpt lat="47.6688" lon="-2.78804">
        <ele>37</ele>
        <time>2021-03-16T10:36:58+01:00</time>
      </trkpt>
      <trkpt lat="47.66884" lon="-2.78806">
        <ele>37</ele>
        <time>2021-03-16T10:36:59+01:00</time>
      </trkpt>
      <trkpt lat="47.66887" lon="-2.78809">
        <ele>37</ele>
        <time>2021-03-16T10:37:00+01:00</time>
      </trkpt>
      <trkpt lat="47.6689" lon="-2.78811">
        <ele>37</ele>
        <time>2021-03-16T10:37:01+01:00</time>
      </trkpt>
      <trkpt lat="47.66892" lon="-2.78814">
        <ele>37</ele>
        <time>2021-03-16T10:37:02+01:00</time>
      </trkpt>
      <trkpt lat="47.66895" lon="-2.78816">
        <ele>37</ele>
        <time>2021-03-16T10:37:03+01:00</time>
      </trkpt>
      <trkpt lat="47.66898" lon="-2.78819">
        <ele>38</ele>
        <time>2021-03-16T10:37:04+01:00</time>
      </trkpt>
      <trkpt lat="47.66901" lon="-2.78821">
        <ele>38</ele>
        <time>2021-03-16T10:37:05+01:00</time>
      </trkpt>
      <trkpt lat="47.66903" lon="-2.78823">
        <ele>38</ele>
        <time>2021-03-16T10:37:06+01:00</time>
      </trkpt>
      <trkpt lat="47.66907" lon="-2.78827">
        <ele>38</ele>
        <time>2021-03-16T10:37:08+01:00</time>
      </trkpt>
      <trkpt lat="47.6691" lon="-2.78829">
        <ele>38</ele>
        <time>2021-03-16T10:37:09+01:00</time>
      </trkpt>
      <trkpt lat="47.66913" lon="-2.7883">
        <ele>38</ele>
        <time>2021-03-16T10:37:10+01:00</time>
      </trkpt>
      <trkpt lat="47.66916" lon="-2.78831">
        <ele>38</ele>
        <time>2021-03-16T10:37:11+01:00</time>
      </trkpt>
      <trkpt lat="47.6692" lon="-2.78832">
        <ele>38</ele>
        <time>2021-03-16T10:37:12+01:00</time>
      </trkpt>
      <trkpt lat="47.66923" lon="-2.78833">
        <ele>38</ele>
        <time>2021-03-16T10:37:13+01:00</time>
      </trkpt>
      <trkpt lat="47.66926" lon="-2.78835">
        <ele>38</ele>
        <time>2021-03-16T10:37:14+01:00</time>
      </trkpt>
      <trkpt lat="47.66928" lon="-2.78838">
        <ele>38</ele>
        <time>2021-03-16T10:37:15+01:00</time>
      </trkpt>
      <trkpt lat="47.66931" lon="-2.78841">
        <ele>38</ele>
        <time>2021-03-16T10:37:16+01:00</time>
      </trkpt>
      <trkpt lat="47.66933" lon="-2.78844">
        <ele>38</ele>
        <time>2021-03-16T10:37:17+01:00</time>
      </trkpt>
      <trkpt lat="47.66934" lon="-2.78848">
        <ele>38</ele>
        <time>2021-03-16T10:37:18+01:00</time>
      </trkpt>
      <trkpt lat="47.66935" lon="-2.78853">
        <ele>38</ele>
        <time>2021-03-16T10:37:19+01:00</time>
      </trkpt>
      <trkpt lat="47.66936" lon="-2.78858">
        <ele>38</ele>
        <time>2021-03-16T10:37:20+01:00</time>
      </trkpt>
      <trkpt lat="47.66937" lon="-2.78862">
        <ele>38</ele>
        <time>2021-03-16T10:37:21+01:00</time>
      </trkpt>
      <trkpt lat="47.66939" lon="-2.78866">
        <ele>38</ele>
        <time>2021-03-16T10:37:22+01:00</time>
      </trkpt>
      <trkpt lat="47.66941" lon="-2.78869">
        <ele>38</ele>
        <time>2021-03-16T10:37:23+01:00</time>
      </trkpt>
      <trkpt lat="47.66943" lon="-2.78872">
        <ele>38</ele>
        <time>2021-03-16T10:37:24+01:00</time>
      </trkpt>
      <trkpt lat="47.66946" lon="-2.78875">
        <ele>38</ele>
        <time>2021-03-16T10:37:25+01:00</time>
      </trkpt>
      <trkpt lat="47.66948" lon="-2.78877">
        <ele>38</ele>
        <time>2021-03-16T10:37:26+01:00</time>
      </trkpt>
      <trkpt lat="47.66951" lon="-2.7888">
        <ele>38</ele>
        <time>2021-03-16T10:37:27+01:00</time>
      </trkpt>
      <trkpt lat="47.66953" lon="-2.78882">
        <ele>38</ele>
        <time>2021-03-16T10:37:28+01:00</time>
      </trkpt>
      <trkpt lat="47.66956" lon="-2.78885">
        <ele>38</ele>
        <time>2021-03-16T10:37:29+01:00</time>
      </trkpt>
      <trkpt lat="47.66958" lon="-2.78887">
        <ele>38</ele>
        <time>2021-03-16T10:37:30+01:00</time>
      </trkpt>
      <trkpt lat="47.66961" lon="-2.78889">
        <ele>39</ele>
        <time>2021-03-16T10:37:32+01:00</time>
      </trkpt>
      <trkpt lat="47.66964" lon="-2.78893">
        <ele>39</ele>
        <time>2021-03-16T10:38:34+01:00</time>
      </trkpt>
      <trkpt lat="47.66968" lon="-2.78897">
        <ele>39</ele>
        <time>2021-03-16T10:38:36+01:00</time>
      </trkpt>
      <trkpt lat="47.66971" lon="-2.78901">
        <ele>39</ele>
        <time>2021-03-16T10:38:37+01:00</time>
      </trkpt>
      <trkpt lat="47.66974" lon="-2.78904">
        <ele>39</ele>
        <time>2021-03-16T10:38:38+01:00</time>
      </trkpt>
      <trkpt lat="47.66977" lon="-2.78907">
        <ele>39</ele>
        <time>2021-03-16T10:38:39+01:00</time>
      </trkpt>
      <trkpt lat="47.6698" lon="-2.7891">
        <ele>39</ele>
        <time>2021-03-16T10:38:40+01:00</time>
      </trkpt>
      <trkpt lat="47.66983" lon="-2.78913">
        <ele>39</ele>
        <time>2021-03-16T10:38:41+01:00</time>
      </trkpt>
      <trkpt lat="47.66986" lon="-2.78916">
        <ele>39</ele>
        <time>2021-03-16T10:38:42+01:00</time>
      </trkpt>
      <trkpt lat="47.66989" lon="-2.78919">
        <ele>39</ele>
        <time>2021-03-16T10:38:43+01:00</time>
      </trkpt>
      <trkpt lat="47.66991" lon="-2.78922">
        <ele>39</ele>
        <time>2021-03-16T10:38:44+01:00</time>
      </trkpt>
      <trkpt lat="47.66994" lon="-2.78924">
        <ele>39</ele>
        <time>2021-03-16T10:38:45+01:00</time>
      </trkpt>
      <trkpt lat="47.66996" lon="-2.78927">
        <ele>39</ele>
        <time>2021-03-16T10:38:46+01:00</time>
      </trkpt>
      <trkpt lat="47.66999" lon="-2.7893">
        <ele>39</ele>
        <time>2021-03-16T10:38:47+01:00</time>
      </trkpt>
      <trkpt lat="47.67001" lon="-2.78933">
        <ele>39</ele>
        <time>2021-03-16T10:38:48+01:00</time>
      </trkpt>
      <trkpt lat="47.67003" lon="-2.78936">
        <ele>39</ele>
        <time>2021-03-16T10:38:49+01:00</time>
      </trkpt>
      <trkpt lat="47.67006" lon="-2.78938">
        <ele>39</ele>
        <time>2021-03-16T10:38:50+01:00</time>
      </trkpt>
      <trkpt lat="47.67008" lon="-2.78941">
        <ele>39</ele>
        <time>2021-03-16T10:38:51+01:00</time>
      </trkpt>
      <trkpt lat="47.67011" lon="-2.78944">
        <ele>39</ele>
        <time>2021-03-16T10:38:52+01:00</time>
      </trkpt>
      <trkpt lat="47.67013" lon="-2.78947">
        <ele>39</ele>
        <time>2021-03-16T10:38:53+01:00</time>
      </trkpt>
      <trkpt lat="47.67016" lon="-2.7895">
        <ele>39</ele>
        <time>2021-03-16T10:38:54+01:00</time>
      </trkpt>
      <trkpt lat="47.67019" lon="-2.78953">
        <ele>39</ele>
        <time>2021-03-16T10:38:55+01:00</time>
      </trkpt>
      <trkpt lat="47.67023" lon="-2.78956">
        <ele>39</ele>
        <time>2021-03-16T10:38:56+01:00</time>
      </trkpt>
      <trkpt lat="47.67026" lon="-2.78959">
        <ele>40</ele>
        <time>2021-03-16T10:38:57+01:00</time>
      </trkpt>
      <trkpt lat="47.67029" lon="-2.78962">
        <ele>40</ele>
        <time>2021-03-16T10:38:58+01:00</time>
      </trkpt>
      <trkpt lat="47.67032" lon="-2.78965">
        <ele>40</ele>
        <time>2021-03-16T10:38:59+01:00</time>
      </trkpt>
      <trkpt lat="47.67035" lon="-2.78969">
        <ele>40</ele>
        <time>2021-03-16T10:39:00+01:00</time>
      </trkpt>
      <trkpt lat="47.67038" lon="-2.78972">
        <ele>40</ele>
        <time>2021-03-16T10:39:01+01:00</time>
      </trkpt>
      <trkpt lat="47.67041" lon="-2.78975">
        <ele>40</ele>
        <time>2021-03-16T10:39:02+01:00</time>
      </trkpt>
      <trkpt lat="47.67044" lon="-2.78979">
        <ele>40</ele>
        <time>2021-03-16T10:39:03+01:00</time>
      </trkpt>
      <trkpt lat="47.67047" lon="-2.78982">
        <ele>40</ele>
        <time>2021-03-16T10:39:04+01:00</time>
      </trkpt>
      <trkpt lat="47.6705" lon="-2.78986">
        <ele>40</ele>
        <time>2021-03-16T10:39:05+01:00</time>
      </trkpt>
      <trkpt lat="47.67053" lon="-2.78989">
        <ele>40</ele>
        <time>2021-03-16T10:39:06+01:00</time>
      </trkpt>
      <trkpt lat="47.67056" lon="-2.78993">
        <ele>40</ele>
        <time>2021-03-16T10:39:07+01:00</time>
      </trkpt>
      <trkpt lat="47.67059" lon="-2.78996">
        <ele>40</ele>
        <time>2021-03-16T10:39:08+01:00</time>
      </trkpt>
      <trkpt lat="47.67061" lon="-2.79">
        <ele>40</ele>
        <time>2021-03-16T10:39:09+01:00</time>
      </trkpt>
      <trkpt lat="47.67064" lon="-2.79004">
        <ele>40</ele>
        <time>2021-03-16T10:39:10+01:00</time>
      </trkpt>
      <trkpt lat="47.67067" lon="-2.79008">
        <ele>40</ele>
        <time>2021-03-16T10:39:11+01:00</time>
      </trkpt>
      <trkpt lat="47.6707" lon="-2.79011">
        <ele>40</ele>
        <time>2021-03-16T10:39:12+01:00</time>
      </trkpt>
      <trkpt lat="47.67073" lon="-2.79015">
        <ele>40</ele>
        <time>2021-03-16T10:39:13+01:00</time>
      </trkpt>
      <trkpt lat="47.67077" lon="-2.79018">
        <ele>40</ele>
        <time>2021-03-16T10:39:14+01:00</time>
      </trkpt>
      <trkpt lat="47.6708" lon="-2.79022">
        <ele>40</ele>
        <time>2021-03-16T10:39:15+01:00</time>
      </trkpt>
      <trkpt lat="47.67083" lon="-2.79025">
        <ele>40</ele>
        <time>2021-03-16T10:39:16+01:00</time>
      </trkpt>
      <trkpt lat="47.67085" lon="-2.7903">
        <ele>40</ele>
        <time>2021-03-16T10:39:17+01:00</time>
      </trkpt>
      <trkpt lat="47.67087" lon="-2.79034">
        <ele>40</ele>
        <time>2021-03-16T10:39:18+01:00</time>
      </trkpt>
      <trkpt lat="47.6709" lon="-2.79039">
        <ele>40</ele>
        <time>2021-03-16T10:39:19+01:00</time>
      </trkpt>
      <trkpt lat="47.67092" lon="-2.79043">
        <ele>40</ele>
        <time>2021-03-16T10:39:20+01:00</time>
      </trkpt>
      <trkpt lat="47.67094" lon="-2.79047">
        <ele>40</ele>
        <time>2021-03-16T10:39:21+01:00</time>
      </trkpt>
      <trkpt lat="47.67097" lon="-2.79052">
        <ele>40</ele>
        <time>2021-03-16T10:39:22+01:00</time>
      </trkpt>
      <trkpt lat="47.671" lon="-2.79056">
        <ele>40</ele>
        <time>2021-03-16T10:39:23+01:00</time>
      </trkpt>
      <trkpt lat="47.67103" lon="-2.7906">
        <ele>40</ele>
        <time>2021-03-16T10:39:24+01:00</time>
      </trkpt>
      <trkpt lat="47.67106" lon="-2.79063">
        <ele>40</ele>
        <time>2021-03-16T10:39:25+01:00</time>
      </trkpt>
      <trkpt lat="47.6711" lon="-2.79066">
        <ele>40</ele>
        <time>2021-03-16T10:39:26+01:00</time>
      </trkpt>
      <trkpt lat="47.67113" lon="-2.79069">
        <ele>40</ele>
        <time>2021-03-16T10:39:27+01:00</time>
      </trkpt>
      <trkpt lat="47.67117" lon="-2.79071">
        <ele>40</ele>
        <time>2021-03-16T10:39:28+01:00</time>
      </trkpt>
      <trkpt lat="47.67121" lon="-2.79074">
        <ele>40</ele>
        <time>2021-03-16T10:39:29+01:00</time>
      </trkpt>
      <trkpt lat="47.67124" lon="-2.79077">
        <ele>40</ele>
        <time>2021-03-16T10:39:30+01:00</time>
      </trkpt>
      <trkpt lat="47.67127" lon="-2.79082">
        <ele>40</ele>
        <time>2021-03-16T10:39:31+01:00</time>
      </trkpt>
      <trkpt lat="47.67128" lon="-2.79087">
        <ele>40</ele>
        <time>2021-03-16T10:39:32+01:00</time>
      </trkpt>
      <trkpt lat="47.67128" lon="-2.79092">
        <ele>40</ele>
        <time>2021-03-16T10:39:33+01:00</time>
      </trkpt>
      <trkpt lat="47.67128" lon="-2.79098">
        <ele>40</ele>
        <time>2021-03-16T10:39:34+01:00</time>
      </trkpt>
      <trkpt lat="47.67128" lon="-2.79102">
        <ele>40</ele>
        <time>2021-03-16T10:39:35+01:00</time>
      </trkpt>
      <trkpt lat="47.6713" lon="-2.79108">
        <ele>40</ele>
        <time>2021-03-16T10:39:37+01:00</time>
      </trkpt>
      <trkpt lat="47.67132" lon="-2.79112">
        <ele>40</ele>
        <time>2021-03-16T10:39:38+01:00</time>
      </trkpt>
      <trkpt lat="47.67134" lon="-2.79115">
        <ele>40</ele>
        <time>2021-03-16T10:39:39+01:00</time>
      </trkpt>
      <trkpt lat="47.67136" lon="-2.79117">
        <ele>40</ele>
        <time>2021-03-16T10:39:40+01:00</time>
      </trkpt>
      <trkpt lat="47.67139" lon="-2.7912">
        <ele>40</ele>
        <time>2021-03-16T10:39:41+01:00</time>
      </trkpt>
      <trkpt lat="47.67142" lon="-2.79122">
        <ele>40</ele>
        <time>2021-03-16T10:39:42+01:00</time>
      </trkpt>
      <trkpt lat="47.67144" lon="-2.79126">
        <ele>39</ele>
        <time>2021-03-16T10:39:43+01:00</time>
      </trkpt>
      <trkpt lat="47.67146" lon="-2.79129">
        <ele>39</ele>
        <time>2021-03-16T10:39:44+01:00</time>
      </trkpt>
      <trkpt lat="47.67149" lon="-2.79133">
        <ele>39</ele>
        <time>2021-03-16T10:39:45+01:00</time>
      </trkpt>
      <trkpt lat="47.67151" lon="-2.79136">
        <ele>39</ele>
        <time>2021-03-16T10:39:46+01:00</time>
      </trkpt>
      <trkpt lat="47.67153" lon="-2.7914">
        <ele>39</ele>
        <time>2021-03-16T10:39:47+01:00</time>
      </trkpt>
      <trkpt lat="47.67155" lon="-2.79144">
        <ele>39</ele>
        <time>2021-03-16T10:39:48+01:00</time>
      </trkpt>
      <trkpt lat="47.67157" lon="-2.79148">
        <ele>39</ele>
        <time>2021-03-16T10:39:49+01:00</time>
      </trkpt>
      <trkpt lat="47.67159" lon="-2.79152">
        <ele>39</ele>
        <time>2021-03-16T10:39:50+01:00</time>
      </trkpt>
      <trkpt lat="47.67161" lon="-2.79157">
        <ele>39</ele>
        <time>2021-03-16T10:39:51+01:00</time>
      </trkpt>
      <trkpt lat="47.67163" lon="-2.79161">
        <ele>39</ele>
        <time>2021-03-16T10:39:52+01:00</time>
      </trkpt>
      <trkpt lat="47.67165" lon="-2.79166">
        <ele>39</ele>
        <time>2021-03-16T10:39:53+01:00</time>
      </trkpt>
      <trkpt lat="47.67166" lon="-2.7917">
        <ele>39</ele>
        <time>2021-03-16T10:39:54+01:00</time>
      </trkpt>
      <trkpt lat="47.67168" lon="-2.79174">
        <ele>39</ele>
        <time>2021-03-16T10:39:55+01:00</time>
      </trkpt>
      <trkpt lat="47.6717" lon="-2.79179">
        <ele>39</ele>
        <time>2021-03-16T10:39:56+01:00</time>
      </trkpt>
      <trkpt lat="47.67171" lon="-2.79183">
        <ele>39</ele>
        <time>2021-03-16T10:39:57+01:00</time>
      </trkpt>
      <trkpt lat="47.67173" lon="-2.79188">
        <ele>39</ele>
        <time>2021-03-16T10:39:58+01:00</time>
      </trkpt>
      <trkpt lat="47.67175" lon="-2.79193">
        <ele>39</ele>
        <time>2021-03-16T10:39:59+01:00</time>
      </trkpt>
      <trkpt lat="47.67177" lon="-2.79197">
        <ele>39</ele>
        <time>2021-03-16T10:40:00+01:00</time>
      </trkpt>
      <trkpt lat="47.67178" lon="-2.79202">
        <ele>39</ele>
        <time>2021-03-16T10:40:01+01:00</time>
      </trkpt>
      <trkpt lat="47.6718" lon="-2.79206">
        <ele>39</ele>
        <time>2021-03-16T10:40:02+01:00</time>
      </trkpt>
      <trkpt lat="47.67182" lon="-2.79211">
        <ele>40</ele>
        <time>2021-03-16T10:40:03+01:00</time>
      </trkpt>
      <trkpt lat="47.67183" lon="-2.79215">
        <ele>40</ele>
        <time>2021-03-16T10:40:04+01:00</time>
      </trkpt>
      <trkpt lat="47.67185" lon="-2.79219">
        <ele>40</ele>
        <time>2021-03-16T10:40:05+01:00</time>
      </trkpt>
      <trkpt lat="47.67187" lon="-2.79224">
        <ele>40</ele>
        <time>2021-03-16T10:40:06+01:00</time>
      </trkpt>
      <trkpt lat="47.67189" lon="-2.79228">
        <ele>40</ele>
        <time>2021-03-16T10:40:07+01:00</time>
      </trkpt>
      <trkpt lat="47.67191" lon="-2.79233">
        <ele>40</ele>
        <time>2021-03-16T10:40:08+01:00</time>
      </trkpt>
      <trkpt lat="47.67193" lon="-2.79237">
        <ele>40</ele>
        <time>2021-03-16T10:40:09+01:00</time>
      </trkpt>
      <trkpt lat="47.67195" lon="-2.79242">
        <ele>40</ele>
        <time>2021-03-16T10:40:10+01:00</time>
      </trkpt>
      <trkpt lat="47.67197" lon="-2.79246">
        <ele>40</ele>
        <time>2021-03-16T10:40:11+01:00</time>
      </trkpt>
      <trkpt lat="47.67199" lon="-2.79251">
        <ele>40</ele>
        <time>2021-03-16T10:40:12+01:00</time>
      </trkpt>
      <trkpt lat="47.67201" lon="-2.79255">
        <ele>40</ele>
        <time>2021-03-16T10:40:13+01:00</time>
      </trkpt>
      <trkpt lat="47.67203" lon="-2.7926">
        <ele>41</ele>
        <time>2021-03-16T10:40:14+01:00</time>
      </trkpt>
      <trkpt lat="47.67205" lon="-2.79264">
        <ele>41</ele>
        <time>2021-03-16T10:40:15+01:00</time>
      </trkpt>
      <trkpt lat="47.67208" lon="-2.79269">
        <ele>41</ele>
        <time>2021-03-16T10:40:16+01:00</time>
      </trkpt>
      <trkpt lat="47.6721" lon="-2.79273">
        <ele>42</ele>
        <time>2021-03-16T10:40:17+01:00</time>
      </trkpt>
      <trkpt lat="47.67212" lon="-2.79277">
        <ele>42</ele>
        <time>2021-03-16T10:40:18+01:00</time>
      </trkpt>
      <trkpt lat="47.67213" lon="-2.79281">
        <ele>42</ele>
        <time>2021-03-16T10:40:19+01:00</time>
      </trkpt>
      <trkpt lat="47.67215" lon="-2.79285">
        <ele>42</ele>
        <time>2021-03-16T10:40:20+01:00</time>
      </trkpt>
      <trkpt lat="47.67217" lon="-2.7929">
        <ele>43</ele>
        <time>2021-03-16T10:40:21+01:00</time>
      </trkpt>
      <trkpt lat="47.67219" lon="-2.79295">
        <ele>43</ele>
        <time>2021-03-16T10:40:22+01:00</time>
      </trkpt>
      <trkpt lat="47.67221" lon="-2.79299">
        <ele>43</ele>
        <time>2021-03-16T10:40:23+01:00</time>
      </trkpt>
      <trkpt lat="47.67222" lon="-2.79304">
        <ele>43</ele>
        <time>2021-03-16T10:40:24+01:00</time>
      </trkpt>
      <trkpt lat="47.67223" lon="-2.79308">
        <ele>43</ele>
        <time>2021-03-16T10:40:25+01:00</time>
      </trkpt>
      <trkpt lat="47.67225" lon="-2.79313">
        <ele>44</ele>
        <time>2021-03-16T10:40:26+01:00</time>
      </trkpt>
      <trkpt lat="47.67227" lon="-2.79318">
        <ele>44</ele>
        <time>2021-03-16T10:40:27+01:00</time>
      </trkpt>
      <trkpt lat="47.67229" lon="-2.79323">
        <ele>44</ele>
        <time>2021-03-16T10:40:28+01:00</time>
      </trkpt>
      <trkpt lat="47.6723" lon="-2.79327">
        <ele>44</ele>
        <time>2021-03-16T10:40:29+01:00</time>
      </trkpt>
      <trkpt lat="47.67232" lon="-2.79332">
        <ele>44</ele>
        <time>2021-03-16T10:40:30+01:00</time>
      </trkpt>
      <trkpt lat="47.67234" lon="-2.79337">
        <ele>44</ele>
        <time>2021-03-16T10:40:31+01:00</time>
      </trkpt>
      <trkpt lat="47.67235" lon="-2.79342">
        <ele>44</ele>
        <time>2021-03-16T10:40:32+01:00</time>
      </trkpt>
      <trkpt lat="47.67236" lon="-2.79347">
        <ele>45</ele>
        <time>2021-03-16T10:40:33+01:00</time>
      </trkpt>
      <trkpt lat="47.67238" lon="-2.79353">
        <ele>45</ele>
        <time>2021-03-16T10:40:34+01:00</time>
      </trkpt>
      <trkpt lat="47.67239" lon="-2.79358">
        <ele>45</ele>
        <time>2021-03-16T10:40:35+01:00</time>
      </trkpt>
      <trkpt lat="47.67241" lon="-2.79364">
        <ele>45</ele>
        <time>2021-03-16T10:40:36+01:00</time>
      </trkpt>
      <trkpt lat="47.67242" lon="-2.79369">
        <ele>45</ele>
        <time>2021-03-16T10:40:37+01:00</time>
      </trkpt>
      <trkpt lat="47.67244" lon="-2.79375">
        <ele>45</ele>
        <time>2021-03-16T10:40:38+01:00</time>
      </trkpt>
      <trkpt lat="47.67245" lon="-2.79381">
        <ele>46</ele>
        <time>2021-03-16T10:40:39+01:00</time>
      </trkpt>
      <trkpt lat="47.67247" lon="-2.79387">
        <ele>46</ele>
        <time>2021-03-16T10:40:40+01:00</time>
      </trkpt>
      <trkpt lat="47.6725" lon="-2.79393">
        <ele>46</ele>
        <time>2021-03-16T10:40:41+01:00</time>
      </trkpt>
      <trkpt lat="47.67252" lon="-2.79399">
        <ele>46</ele>
        <time>2021-03-16T10:40:42+01:00</time>
      </trkpt>
      <trkpt lat="47.67253" lon="-2.79405">
        <ele>46</ele>
        <time>2021-03-16T10:40:43+01:00</time>
      </trkpt>
      <trkpt lat="47.67255" lon="-2.79411">
        <ele>46</ele>
        <time>2021-03-16T10:40:44+01:00</time>
      </trkpt>
      <trkpt lat="47.67257" lon="-2.79416">
        <ele>46</ele>
        <time>2021-03-16T10:40:45+01:00</time>
      </trkpt>
      <trkpt lat="47.67259" lon="-2.79422">
        <ele>46</ele>
        <time>2021-03-16T10:40:46+01:00</time>
      </trkpt>
      <trkpt lat="47.67261" lon="-2.79427">
        <ele>46</ele>
        <time>2021-03-16T10:40:47+01:00</time>
      </trkpt>
      <trkpt lat="47.67264" lon="-2.79433">
        <ele>46</ele>
        <time>2021-03-16T10:40:48+01:00</time>
      </trkpt>
      <trkpt lat="47.67266" lon="-2.79438">
        <ele>46</ele>
        <time>2021-03-16T10:40:49+01:00</time>
      </trkpt>
      <trkpt lat="47.67268" lon="-2.79444">
        <ele>46</ele>
        <time>2021-03-16T10:40:50+01:00</time>
      </trkpt>
      <trkpt lat="47.6727" lon="-2.7945">
        <ele>45</ele>
        <time>2021-03-16T10:40:51+01:00</time>
      </trkpt>
      <trkpt lat="47.67273" lon="-2.79457">
        <ele>45</ele>
        <time>2021-03-16T10:40:52+01:00</time>
      </trkpt>
      <trkpt lat="47.67275" lon="-2.79463">
        <ele>45</ele>
        <time>2021-03-16T10:40:53+01:00</time>
      </trkpt>
      <trkpt lat="47.67277" lon="-2.79469">
        <ele>45</ele>
        <time>2021-03-16T10:40:54+01:00</time>
      </trkpt>
      <trkpt lat="47.6728" lon="-2.79476">
        <ele>45</ele>
        <time>2021-03-16T10:40:55+01:00</time>
      </trkpt>
      <trkpt lat="47.67282" lon="-2.79482">
        <ele>45</ele>
        <time>2021-03-16T10:40:56+01:00</time>
      </trkpt>
      <trkpt lat="47.67284" lon="-2.79487">
        <ele>45</ele>
        <time>2021-03-16T10:40:57+01:00</time>
      </trkpt>
      <trkpt lat="47.67286" lon="-2.79493">
        <ele>45</ele>
        <time>2021-03-16T10:40:58+01:00</time>
      </trkpt>
      <trkpt lat="47.67288" lon="-2.79499">
        <ele>45</ele>
        <time>2021-03-16T10:40:59+01:00</time>
      </trkpt>
      <trkpt lat="47.6729" lon="-2.79505">
        <ele>44</ele>
        <time>2021-03-16T10:41:00+01:00</time>
      </trkpt>
      <trkpt lat="47.67293" lon="-2.7951">
        <ele>44</ele>
        <time>2021-03-16T10:41:01+01:00</time>
      </trkpt>
      <trkpt lat="47.67295" lon="-2.79516">
        <ele>44</ele>
        <time>2021-03-16T10:41:02+01:00</time>
      </trkpt>
      <trkpt lat="47.67298" lon="-2.79522">
        <ele>43</ele>
        <time>2021-03-16T10:41:03+01:00</time>
      </trkpt>
      <trkpt lat="47.67301" lon="-2.79528">
        <ele>43</ele>
        <time>2021-03-16T10:41:04+01:00</time>
      </trkpt>
      <trkpt lat="47.67303" lon="-2.79533">
        <ele>43</ele>
        <time>2021-03-16T10:41:05+01:00</time>
      </trkpt>
      <trkpt lat="47.67306" lon="-2.79539">
        <ele>42</ele>
        <time>2021-03-16T10:41:06+01:00</time>
      </trkpt>
      <trkpt lat="47.67309" lon="-2.79544">
        <ele>42</ele>
        <time>2021-03-16T10:41:07+01:00</time>
      </trkpt>
      <trkpt lat="47.67312" lon="-2.7955">
        <ele>42</ele>
        <time>2021-03-16T10:41:08+01:00</time>
      </trkpt>
      <trkpt lat="47.67314" lon="-2.79555">
        <ele>42</ele>
        <time>2021-03-16T10:41:09+01:00</time>
      </trkpt>
      <trkpt lat="47.67317" lon="-2.7956">
        <ele>41</ele>
        <time>2021-03-16T10:41:10+01:00</time>
      </trkpt>
      <trkpt lat="47.6732" lon="-2.79565">
        <ele>41</ele>
        <time>2021-03-16T10:41:11+01:00</time>
      </trkpt>
      <trkpt lat="47.67323" lon="-2.7957">
        <ele>41</ele>
        <time>2021-03-16T10:41:12+01:00</time>
      </trkpt>
      <trkpt lat="47.67326" lon="-2.79575">
        <ele>41</ele>
        <time>2021-03-16T10:41:13+01:00</time>
      </trkpt>
      <trkpt lat="47.67329" lon="-2.79579">
        <ele>41</ele>
        <time>2021-03-16T10:41:14+01:00</time>
      </trkpt>
      <trkpt lat="47.67332" lon="-2.79583">
        <ele>41</ele>
        <time>2021-03-16T10:41:15+01:00</time>
      </trkpt>
      <trkpt lat="47.67335" lon="-2.79588">
        <ele>41</ele>
        <time>2021-03-16T10:41:16+01:00</time>
      </trkpt>
      <trkpt lat="47.67339" lon="-2.79592">
        <ele>41</ele>
        <time>2021-03-16T10:41:17+01:00</time>
      </trkpt>
      <trkpt lat="47.67342" lon="-2.79596">
        <ele>41</ele>
        <time>2021-03-16T10:41:18+01:00</time>
      </trkpt>
      <trkpt lat="47.67345" lon="-2.79601">
        <ele>41</ele>
        <time>2021-03-16T10:41:19+01:00</time>
      </trkpt>
      <trkpt lat="47.67348" lon="-2.79605">
        <ele>41</ele>
        <time>2021-03-16T10:41:20+01:00</time>
      </trkpt>
      <trkpt lat="47.67351" lon="-2.79609">
        <ele>41</ele>
        <time>2021-03-16T10:41:21+01:00</time>
      </trkpt>
      <trkpt lat="47.67354" lon="-2.79613">
        <ele>41</ele>
        <time>2021-03-16T10:41:22+01:00</time>
      </trkpt>
      <trkpt lat="47.67356" lon="-2.79617">
        <ele>41</ele>
        <time>2021-03-16T10:41:23+01:00</time>
      </trkpt>
      <trkpt lat="47.67359" lon="-2.79621">
        <ele>41</ele>
        <time>2021-03-16T10:41:24+01:00</time>
      </trkpt>
      <trkpt lat="47.67362" lon="-2.79625">
        <ele>41</ele>
        <time>2021-03-16T10:41:25+01:00</time>
      </trkpt>
      <trkpt lat="47.67365" lon="-2.7963">
        <ele>41</ele>
        <time>2021-03-16T10:41:26+01:00</time>
      </trkpt>
      <trkpt lat="47.67368" lon="-2.79634">
        <ele>41</ele>
        <time>2021-03-16T10:41:27+01:00</time>
      </trkpt>
      <trkpt lat="47.67372" lon="-2.79638">
        <ele>41</ele>
        <time>2021-03-16T10:41:28+01:00</time>
      </trkpt>
      <trkpt lat="47.67375" lon="-2.79642">
        <ele>42</ele>
        <time>2021-03-16T10:41:29+01:00</time>
      </trkpt>
      <trkpt lat="47.67378" lon="-2.79646">
        <ele>42</ele>
        <time>2021-03-16T10:41:30+01:00</time>
      </trkpt>
      <trkpt lat="47.67382" lon="-2.79651">
        <ele>42</ele>
        <time>2021-03-16T10:41:31+01:00</time>
      </trkpt>
      <trkpt lat="47.67386" lon="-2.79655">
        <ele>42</ele>
        <time>2021-03-16T10:41:32+01:00</time>
      </trkpt>
      <trkpt lat="47.6739" lon="-2.79658">
        <ele>42</ele>
        <time>2021-03-16T10:41:33+01:00</time>
      </trkpt>
      <trkpt lat="47.67394" lon="-2.79657">
        <ele>42</ele>
        <time>2021-03-16T10:41:34+01:00</time>
      </trkpt>
      <trkpt lat="47.67398" lon="-2.79653">
        <ele>42</ele>
        <time>2021-03-16T10:41:35+01:00</time>
      </trkpt>
      <trkpt lat="47.67401" lon="-2.79648">
        <ele>42</ele>
        <time>2021-03-16T10:41:36+01:00</time>
      </trkpt>
      <trkpt lat="47.67403" lon="-2.79641">
        <ele>42</ele>
        <time>2021-03-16T10:41:37+01:00</time>
      </trkpt>
      <trkpt lat="47.67404" lon="-2.79635">
        <ele>42</ele>
        <time>2021-03-16T10:41:38+01:00</time>
      </trkpt>
      <trkpt lat="47.67405" lon="-2.79628">
        <ele>42</ele>
        <time>2021-03-16T10:41:39+01:00</time>
      </trkpt>
      <trkpt lat="47.67405" lon="-2.79622">
        <ele>42</ele>
        <time>2021-03-16T10:41:40+01:00</time>
      </trkpt>
      <trkpt lat="47.67406" lon="-2.79615">
        <ele>42</ele>
        <time>2021-03-16T10:41:41+01:00</time>
      </trkpt>
      <trkpt lat="47.67407" lon="-2.7961">
        <ele>42</ele>
        <time>2021-03-16T10:41:42+01:00</time>
      </trkpt>
      <trkpt lat="47.67407" lon="-2.79604">
        <ele>42</ele>
        <time>2021-03-16T10:41:43+01:00</time>
      </trkpt>
      <trkpt lat="47.67408" lon="-2.79598">
        <ele>42</ele>
        <time>2021-03-16T10:41:44+01:00</time>
      </trkpt>
      <trkpt lat="47.67409" lon="-2.79593">
        <ele>42</ele>
        <time>2021-03-16T10:41:45+01:00</time>
      </trkpt>
      <trkpt lat="47.67409" lon="-2.79587">
        <ele>42</ele>
        <time>2021-03-16T10:41:46+01:00</time>
      </trkpt>
      <trkpt lat="47.6741" lon="-2.79582">
        <ele>42</ele>
        <time>2021-03-16T10:41:47+01:00</time>
      </trkpt>
      <trkpt lat="47.6741" lon="-2.79576">
        <ele>42</ele>
        <time>2021-03-16T10:41:48+01:00</time>
      </trkpt>
      <trkpt lat="47.67411" lon="-2.79571">
        <ele>42</ele>
        <time>2021-03-16T10:41:49+01:00</time>
      </trkpt>
      <trkpt lat="47.67411" lon="-2.79566">
        <ele>42</ele>
        <time>2021-03-16T10:41:50+01:00</time>
      </trkpt>
      <trkpt lat="47.67412" lon="-2.7956">
        <ele>42</ele>
        <time>2021-03-16T10:41:51+01:00</time>
      </trkpt>
      <trkpt lat="47.67412" lon="-2.79554">
        <ele>42</ele>
        <time>2021-03-16T10:41:52+01:00</time>
      </trkpt>
      <trkpt lat="47.67413" lon="-2.79547">
        <ele>42</ele>
        <time>2021-03-16T10:41:53+01:00</time>
      </trkpt>
      <trkpt lat="47.67414" lon="-2.7954">
        <ele>42</ele>
        <time>2021-03-16T10:41:54+01:00</time>
      </trkpt>
      <trkpt lat="47.67414" lon="-2.79533">
        <ele>42</ele>
        <time>2021-03-16T10:41:55+01:00</time>
      </trkpt>
      <trkpt lat="47.67415" lon="-2.79527">
        <ele>42</ele>
        <time>2021-03-16T10:41:56+01:00</time>
      </trkpt>
      <trkpt lat="47.67416" lon="-2.79521">
        <ele>42</ele>
        <time>2021-03-16T10:41:57+01:00</time>
      </trkpt>
      <trkpt lat="47.67417" lon="-2.79515">
        <ele>42</ele>
        <time>2021-03-16T10:41:58+01:00</time>
      </trkpt>
      <trkpt lat="47.67419" lon="-2.79509">
        <ele>42</ele>
        <time>2021-03-16T10:41:59+01:00</time>
      </trkpt>
      <trkpt lat="47.6742" lon="-2.79504">
        <ele>42</ele>
        <time>2021-03-16T10:42:00+01:00</time>
      </trkpt>
      <trkpt lat="47.67421" lon="-2.79498">
        <ele>42</ele>
        <time>2021-03-16T10:42:01+01:00</time>
      </trkpt>
      <trkpt lat="47.67422" lon="-2.79493">
        <ele>42</ele>
        <time>2021-03-16T10:42:02+01:00</time>
      </trkpt>
      <trkpt lat="47.67423" lon="-2.79487">
        <ele>41</ele>
        <time>2021-03-16T10:42:03+01:00</time>
      </trkpt>
      <trkpt lat="47.67424" lon="-2.79481">
        <ele>41</ele>
        <time>2021-03-16T10:42:04+01:00</time>
      </trkpt>
      <trkpt lat="47.67425" lon="-2.79475">
        <ele>41</ele>
        <time>2021-03-16T10:42:05+01:00</time>
      </trkpt>
      <trkpt lat="47.67426" lon="-2.7947">
        <ele>41</ele>
        <time>2021-03-16T10:42:06+01:00</time>
      </trkpt>
      <trkpt lat="47.67427" lon="-2.79463">
        <ele>41</ele>
        <time>2021-03-16T10:42:07+01:00</time>
      </trkpt>
      <trkpt lat="47.67429" lon="-2.79457">
        <ele>40</ele>
        <time>2021-03-16T10:42:08+01:00</time>
      </trkpt>
      <trkpt lat="47.6743" lon="-2.7945">
        <ele>40</ele>
        <time>2021-03-16T10:42:09+01:00</time>
      </trkpt>
      <trkpt lat="47.67431" lon="-2.79443">
        <ele>40</ele>
        <time>2021-03-16T10:42:10+01:00</time>
      </trkpt>
      <trkpt lat="47.67431" lon="-2.79435">
        <ele>40</ele>
        <time>2021-03-16T10:42:11+01:00</time>
      </trkpt>
      <trkpt lat="47.67432" lon="-2.79427">
        <ele>39</ele>
        <time>2021-03-16T10:42:12+01:00</time>
      </trkpt>
      <trkpt lat="47.67432" lon="-2.7942">
        <ele>39</ele>
        <time>2021-03-16T10:42:13+01:00</time>
      </trkpt>
      <trkpt lat="47.67433" lon="-2.79412">
        <ele>39</ele>
        <time>2021-03-16T10:42:14+01:00</time>
      </trkpt>
      <trkpt lat="47.67436" lon="-2.79405">
        <ele>39</ele>
        <time>2021-03-16T10:42:15+01:00</time>
      </trkpt>
      <trkpt lat="47.67439" lon="-2.79399">
        <ele>38</ele>
        <time>2021-03-16T10:42:16+01:00</time>
      </trkpt>
      <trkpt lat="47.67443" lon="-2.79395">
        <ele>38</ele>
        <time>2021-03-16T10:42:17+01:00</time>
      </trkpt>
      <trkpt lat="47.67448" lon="-2.79392">
        <ele>38</ele>
        <time>2021-03-16T10:42:18+01:00</time>
      </trkpt>
      <trkpt lat="47.67454" lon="-2.79391">
        <ele>38</ele>
        <time>2021-03-16T10:42:19+01:00</time>
      </trkpt>
      <trkpt lat="47.67459" lon="-2.7939">
        <ele>38</ele>
        <time>2021-03-16T10:42:20+01:00</time>
      </trkpt>
      <trkpt lat="47.67464" lon="-2.79389">
        <ele>38</ele>
        <time>2021-03-16T10:42:21+01:00</time>
      </trkpt>
      <trkpt lat="47.67469" lon="-2.79388">
        <ele>38</ele>
        <time>2021-03-16T10:42:22+01:00</time>
      </trkpt>
      <trkpt lat="47.67473" lon="-2.79387">
        <ele>38</ele>
        <time>2021-03-16T10:42:23+01:00</time>
      </trkpt>
      <trkpt lat="47.67477" lon="-2.79386">
        <ele>38</ele>
        <time>2021-03-16T10:42:24+01:00</time>
      </trkpt>
      <trkpt lat="47.67482" lon="-2.79384">
        <ele>38</ele>
        <time>2021-03-16T10:42:25+01:00</time>
      </trkpt>
      <trkpt lat="47.67486" lon="-2.79383">
        <ele>38</ele>
        <time>2021-03-16T10:42:26+01:00</time>
      </trkpt>
      <trkpt lat="47.6749" lon="-2.79381">
        <ele>37</ele>
        <time>2021-03-16T10:42:27+01:00</time>
      </trkpt>
      <trkpt lat="47.67493" lon="-2.7938">
        <ele>37</ele>
        <time>2021-03-16T10:42:28+01:00</time>
      </trkpt>
      <trkpt lat="47.67496" lon="-2.79379">
        <ele>37</ele>
        <time>2021-03-16T10:42:29+01:00</time>
      </trkpt>
      <trkpt lat="47.675" lon="-2.79377">
        <ele>37</ele>
        <time>2021-03-16T10:42:31+01:00</time>
      </trkpt>
      <trkpt lat="47.67504" lon="-2.79374">
        <ele>37</ele>
        <time>2021-03-16T10:42:33+01:00</time>
      </trkpt>
      <trkpt lat="47.67508" lon="-2.79372">
        <ele>37</ele>
        <time>2021-03-16T10:42:35+01:00</time>
      </trkpt>
      <trkpt lat="47.67512" lon="-2.79371">
        <ele>37</ele>
        <time>2021-03-16T10:42:37+01:00</time>
      </trkpt>
      <trkpt lat="47.67515" lon="-2.79369">
        <ele>37</ele>
        <time>2021-03-16T10:42:38+01:00</time>
      </trkpt>
      <trkpt lat="47.67519" lon="-2.79368">
        <ele>37</ele>
        <time>2021-03-16T10:42:39+01:00</time>
      </trkpt>
      <trkpt lat="47.67523" lon="-2.79367">
        <ele>37</ele>
        <time>2021-03-16T10:42:40+01:00</time>
      </trkpt>
      <trkpt lat="47.67527" lon="-2.79366">
        <ele>37</ele>
        <time>2021-03-16T10:42:41+01:00</time>
      </trkpt>
      <trkpt lat="47.67531" lon="-2.79365">
        <ele>37</ele>
        <time>2021-03-16T10:42:42+01:00</time>
      </trkpt>
      <trkpt lat="47.67534" lon="-2.79365">
        <ele>37</ele>
        <time>2021-03-16T10:42:43+01:00</time>
      </trkpt>
      <trkpt lat="47.67538" lon="-2.79366">
        <ele>37</ele>
        <time>2021-03-16T10:42:44+01:00</time>
      </trkpt>
      <trkpt lat="47.67541" lon="-2.79366">
        <ele>37</ele>
        <time>2021-03-16T10:42:45+01:00</time>
      </trkpt>
      <trkpt lat="47.67545" lon="-2.79366">
        <ele>37</ele>
        <time>2021-03-16T10:42:46+01:00</time>
      </trkpt>
      <trkpt lat="47.67548" lon="-2.79366">
        <ele>37</ele>
        <time>2021-03-16T10:42:47+01:00</time>
      </trkpt>
      <trkpt lat="47.67551" lon="-2.79366">
        <ele>37</ele>
        <time>2021-03-16T10:42:48+01:00</time>
      </trkpt>
      <trkpt lat="47.67554" lon="-2.79366">
        <ele>37</ele>
        <time>2021-03-16T10:42:49+01:00</time>
      </trkpt>
      <trkpt lat="47.67557" lon="-2.79366">
        <ele>37</ele>
        <time>2021-03-16T10:42:50+01:00</time>
      </trkpt>
      <trkpt lat="47.6756" lon="-2.79366">
        <ele>37</ele>
        <time>2021-03-16T10:42:51+01:00</time>
      </trkpt>
      <trkpt lat="47.67563" lon="-2.79366">
        <ele>37</ele>
        <time>2021-03-16T10:42:52+01:00</time>
      </trkpt>
      <trkpt lat="47.67566" lon="-2.79366">
        <ele>37</ele>
        <time>2021-03-16T10:42:53+01:00</time>
      </trkpt>
      <trkpt lat="47.67569" lon="-2.79366">
        <ele>37</ele>
        <time>2021-03-16T10:42:54+01:00</time>
      </trkpt>
      <trkpt lat="47.67573" lon="-2.79366">
        <ele>37</ele>
        <time>2021-03-16T10:42:55+01:00</time>
      </trkpt>
      <trkpt lat="47.67576" lon="-2.79366">
        <ele>37</ele>
        <time>2021-03-16T10:42:56+01:00</time>
      </trkpt>
      <trkpt lat="47.6758" lon="-2.79366">
        <ele>37</ele>
        <time>2021-03-16T10:42:57+01:00</time>
      </trkpt>
      <trkpt lat="47.67584" lon="-2.79367">
        <ele>37</ele>
        <time>2021-03-16T10:42:58+01:00</time>
      </trkpt>
      <trkpt lat="47.67588" lon="-2.79368">
        <ele>37</ele>
        <time>2021-03-16T10:42:59+01:00</time>
      </trkpt>
      <trkpt lat="47.67591" lon="-2.79368">
        <ele>37</ele>
        <time>2021-03-16T10:43:00+01:00</time>
      </trkpt>
      <trkpt lat="47.67594" lon="-2.79369">
        <ele>37</ele>
        <time>2021-03-16T10:43:01+01:00</time>
      </trkpt>
      <trkpt lat="47.67598" lon="-2.79371">
        <ele>37</ele>
        <time>2021-03-16T10:43:02+01:00</time>
      </trkpt>
      <trkpt lat="47.67601" lon="-2.79372">
        <ele>37</ele>
        <time>2021-03-16T10:43:03+01:00</time>
      </trkpt>
      <trkpt lat="47.67603" lon="-2.79373">
        <ele>37</ele>
        <time>2021-03-16T10:43:04+01:00</time>
      </trkpt>
      <trkpt lat="47.67606" lon="-2.79375">
        <ele>37</ele>
        <time>2021-03-16T10:43:05+01:00</time>
      </trkpt>
      <trkpt lat="47.67609" lon="-2.79376">
        <ele>37</ele>
        <time>2021-03-16T10:43:06+01:00</time>
      </trkpt>
      <trkpt lat="47.67612" lon="-2.79379">
        <ele>37</ele>
        <time>2021-03-16T10:43:07+01:00</time>
      </trkpt>
      <trkpt lat="47.67614" lon="-2.79381">
        <ele>37</ele>
        <time>2021-03-16T10:43:08+01:00</time>
      </trkpt>
      <trkpt lat="47.67617" lon="-2.79383">
        <ele>37</ele>
        <time>2021-03-16T10:43:09+01:00</time>
      </trkpt>
      <trkpt lat="47.6762" lon="-2.79384">
        <ele>37</ele>
        <time>2021-03-16T10:43:10+01:00</time>
      </trkpt>
      <trkpt lat="47.67622" lon="-2.79386">
        <ele>37</ele>
        <time>2021-03-16T10:43:11+01:00</time>
      </trkpt>
      <trkpt lat="47.67626" lon="-2.79387">
        <ele>37</ele>
        <time>2021-03-16T10:43:12+01:00</time>
      </trkpt>
      <trkpt lat="47.67629" lon="-2.79389">
        <ele>37</ele>
        <time>2021-03-16T10:43:13+01:00</time>
      </trkpt>
      <trkpt lat="47.67632" lon="-2.7939">
        <ele>37</ele>
        <time>2021-03-16T10:43:14+01:00</time>
      </trkpt>
      <trkpt lat="47.67636" lon="-2.79392">
        <ele>37</ele>
        <time>2021-03-16T10:43:15+01:00</time>
      </trkpt>
      <trkpt lat="47.67639" lon="-2.79393">
        <ele>37</ele>
        <time>2021-03-16T10:43:16+01:00</time>
      </trkpt>
      <trkpt lat="47.67643" lon="-2.79395">
        <ele>37</ele>
        <time>2021-03-16T10:43:17+01:00</time>
      </trkpt>
      <trkpt lat="47.67646" lon="-2.79396">
        <ele>37</ele>
        <time>2021-03-16T10:43:18+01:00</time>
      </trkpt>
      <trkpt lat="47.67649" lon="-2.79397">
        <ele>37</ele>
        <time>2021-03-16T10:43:19+01:00</time>
      </trkpt>
      <trkpt lat="47.67653" lon="-2.79397">
        <ele>37</ele>
        <time>2021-03-16T10:43:20+01:00</time>
      </trkpt>
      <trkpt lat="47.67656" lon="-2.79398">
        <ele>37</ele>
        <time>2021-03-16T10:43:21+01:00</time>
      </trkpt>
      <trkpt lat="47.6766" lon="-2.79398">
        <ele>37</ele>
        <time>2021-03-16T10:43:23+01:00</time>
      </trkpt>
      <trkpt lat="47.67665" lon="-2.79397">
        <ele>37</ele>
        <time>2021-03-16T10:45:04+01:00</time>
      </trkpt>
      <trkpt lat="47.6767" lon="-2.79396">
        <ele>37</ele>
        <time>2021-03-16T10:45:06+01:00</time>
      </trkpt>
      <trkpt lat="47.67675" lon="-2.79392">
        <ele>37</ele>
        <time>2021-03-16T10:45:08+01:00</time>
      </trkpt>
      <trkpt lat="47.67678" lon="-2.79389">
        <ele>37</ele>
        <time>2021-03-16T10:45:09+01:00</time>
      </trkpt>
      <trkpt lat="47.67681" lon="-2.79386">
        <ele>37</ele>
        <time>2021-03-16T10:45:10+01:00</time>
      </trkpt>
      <trkpt lat="47.67684" lon="-2.79382">
        <ele>37</ele>
        <time>2021-03-16T10:45:11+01:00</time>
      </trkpt>
      <trkpt lat="47.67688" lon="-2.79377">
        <ele>37</ele>
        <time>2021-03-16T10:45:12+01:00</time>
      </trkpt>
      <trkpt lat="47.67691" lon="-2.79371">
        <ele>37</ele>
        <time>2021-03-16T10:45:13+01:00</time>
      </trkpt>
      <trkpt lat="47.67694" lon="-2.79365">
        <ele>37</ele>
        <time>2021-03-16T10:45:14+01:00</time>
      </trkpt>
      <trkpt lat="47.67698" lon="-2.79358">
        <ele>37</ele>
        <time>2021-03-16T10:45:15+01:00</time>
      </trkpt>
      <trkpt lat="47.67702" lon="-2.79351">
        <ele>37</ele>
        <time>2021-03-16T10:45:16+01:00</time>
      </trkpt>
      <trkpt lat="47.67707" lon="-2.79346">
        <ele>37</ele>
        <time>2021-03-16T10:45:17+01:00</time>
      </trkpt>
      <trkpt lat="47.67711" lon="-2.79341">
        <ele>37</ele>
        <time>2021-03-16T10:45:18+01:00</time>
      </trkpt>
      <trkpt lat="47.67715" lon="-2.79336">
        <ele>37</ele>
        <time>2021-03-16T10:45:19+01:00</time>
      </trkpt>
      <trkpt lat="47.67718" lon="-2.79331">
        <ele>37</ele>
        <time>2021-03-16T10:45:20+01:00</time>
      </trkpt>
      <trkpt lat="47.67723" lon="-2.79325">
        <ele>37</ele>
        <time>2021-03-16T10:45:21+01:00</time>
      </trkpt>
      <trkpt lat="47.67727" lon="-2.79319">
        <ele>37</ele>
        <time>2021-03-16T10:45:22+01:00</time>
      </trkpt>
      <trkpt lat="47.67731" lon="-2.79311">
        <ele>36</ele>
        <time>2021-03-16T10:45:23+01:00</time>
      </trkpt>
      <trkpt lat="47.67735" lon="-2.79304">
        <ele>36</ele>
        <time>2021-03-16T10:45:24+01:00</time>
      </trkpt>
      <trkpt lat="47.67739" lon="-2.79296">
        <ele>36</ele>
        <time>2021-03-16T10:45:25+01:00</time>
      </trkpt>
      <trkpt lat="47.67743" lon="-2.79289">
        <ele>36</ele>
        <time>2021-03-16T10:45:26+01:00</time>
      </trkpt>
      <trkpt lat="47.67746" lon="-2.79282">
        <ele>36</ele>
        <time>2021-03-16T10:45:27+01:00</time>
      </trkpt>
      <trkpt lat="47.6775" lon="-2.79276">
        <ele>36</ele>
        <time>2021-03-16T10:45:28+01:00</time>
      </trkpt>
      <trkpt lat="47.67753" lon="-2.7927">
        <ele>35</ele>
        <time>2021-03-16T10:45:29+01:00</time>
      </trkpt>
      <trkpt lat="47.67757" lon="-2.79264">
        <ele>35</ele>
        <time>2021-03-16T10:45:30+01:00</time>
      </trkpt>
      <trkpt lat="47.67759" lon="-2.79259">
        <ele>35</ele>
        <time>2021-03-16T10:45:31+01:00</time>
      </trkpt>
      <trkpt lat="47.67762" lon="-2.79253">
        <ele>35</ele>
        <time>2021-03-16T10:45:32+01:00</time>
      </trkpt>
      <trkpt lat="47.67764" lon="-2.79248">
        <ele>35</ele>
        <time>2021-03-16T10:45:33+01:00</time>
      </trkpt>
      <trkpt lat="47.67767" lon="-2.79243">
        <ele>34</ele>
        <time>2021-03-16T10:45:34+01:00</time>
      </trkpt>
      <trkpt lat="47.67769" lon="-2.79238">
        <ele>34</ele>
        <time>2021-03-16T10:45:35+01:00</time>
      </trkpt>
      <trkpt lat="47.67772" lon="-2.79233">
        <ele>34</ele>
        <time>2021-03-16T10:45:36+01:00</time>
      </trkpt>
      <trkpt lat="47.67774" lon="-2.79229">
        <ele>34</ele>
        <time>2021-03-16T10:45:37+01:00</time>
      </trkpt>
      <trkpt lat="47.67777" lon="-2.79225">
        <ele>34</ele>
        <time>2021-03-16T10:45:39+01:00</time>
      </trkpt>
      <trkpt lat="47.6778" lon="-2.79222">
        <ele>34</ele>
        <time>2021-03-16T10:45:41+01:00</time>
      </trkpt>
      <trkpt lat="47.67783" lon="-2.79219">
        <ele>34</ele>
        <time>2021-03-16T10:45:42+01:00</time>
      </trkpt>
      <trkpt lat="47.67785" lon="-2.79216">
        <ele>34</ele>
        <time>2021-03-16T10:45:43+01:00</time>
      </trkpt>
      <trkpt lat="47.67788" lon="-2.79212">
        <ele>34</ele>
        <time>2021-03-16T10:45:45+01:00</time>
      </trkpt>
      <trkpt lat="47.67791" lon="-2.79209">
        <ele>34</ele>
        <time>2021-03-16T10:45:47+01:00</time>
      </trkpt>
      <trkpt lat="47.67794" lon="-2.79207">
        <ele>33</ele>
        <time>2021-03-16T10:45:48+01:00</time>
      </trkpt>
      <trkpt lat="47.67798" lon="-2.79203">
        <ele>33</ele>
        <time>2021-03-16T10:45:50+01:00</time>
      </trkpt>
      <trkpt lat="47.67801" lon="-2.792">
        <ele>33</ele>
        <time>2021-03-16T10:45:51+01:00</time>
      </trkpt>
      <trkpt lat="47.67804" lon="-2.79199">
        <ele>33</ele>
        <time>2021-03-16T10:45:52+01:00</time>
      </trkpt>
      <trkpt lat="47.67807" lon="-2.79199">
        <ele>33</ele>
        <time>2021-03-16T10:45:53+01:00</time>
      </trkpt>
      <trkpt lat="47.6781" lon="-2.79199">
        <ele>33</ele>
        <time>2021-03-16T10:45:54+01:00</time>
      </trkpt>
      <trkpt lat="47.67813" lon="-2.79201">
        <ele>33</ele>
        <time>2021-03-16T10:45:55+01:00</time>
      </trkpt>
      <trkpt lat="47.67816" lon="-2.79202">
        <ele>33</ele>
        <time>2021-03-16T10:45:56+01:00</time>
      </trkpt>
      <trkpt lat="47.67819" lon="-2.79206">
        <ele>33</ele>
        <time>2021-03-16T10:45:58+01:00</time>
      </trkpt>
      <trkpt lat="47.67822" lon="-2.79209">
        <ele>33</ele>
        <time>2021-03-16T10:45:59+01:00</time>
      </trkpt>
      <trkpt lat="47.67825" lon="-2.79211">
        <ele>33</ele>
        <time>2021-03-16T10:46:00+01:00</time>
      </trkpt>
      <trkpt lat="47.67829" lon="-2.79215">
        <ele>33</ele>
        <time>2021-03-16T10:46:02+01:00</time>
      </trkpt>
      <trkpt lat="47.67832" lon="-2.79218">
        <ele>33</ele>
        <time>2021-03-16T10:46:03+01:00</time>
      </trkpt>
      <trkpt lat="47.67835" lon="-2.79221">
        <ele>33</ele>
        <time>2021-03-16T10:46:04+01:00</time>
      </trkpt>
      <trkpt lat="47.67838" lon="-2.79224">
        <ele>33</ele>
        <time>2021-03-16T10:46:05+01:00</time>
      </trkpt>
      <trkpt lat="47.67842" lon="-2.79227">
        <ele>33</ele>
        <time>2021-03-16T10:46:06+01:00</time>
      </trkpt>
      <trkpt lat="47.67846" lon="-2.79231">
        <ele>33</ele>
        <time>2021-03-16T10:46:07+01:00</time>
      </trkpt>
      <trkpt lat="47.6785" lon="-2.79234">
        <ele>33</ele>
        <time>2021-03-16T10:46:08+01:00</time>
      </trkpt>
      <trkpt lat="47.67854" lon="-2.79238">
        <ele>33</ele>
        <time>2021-03-16T10:46:09+01:00</time>
      </trkpt>
      <trkpt lat="47.67858" lon="-2.79242">
        <ele>32</ele>
        <time>2021-03-16T10:46:10+01:00</time>
      </trkpt>
      <trkpt lat="47.67862" lon="-2.79245">
        <ele>32</ele>
        <time>2021-03-16T10:46:11+01:00</time>
      </trkpt>
      <trkpt lat="47.67866" lon="-2.79248">
        <ele>32</ele>
        <time>2021-03-16T10:46:12+01:00</time>
      </trkpt>
      <trkpt lat="47.6787" lon="-2.79252">
        <ele>32</ele>
        <time>2021-03-16T10:46:13+01:00</time>
      </trkpt>
      <trkpt lat="47.67874" lon="-2.79255">
        <ele>32</ele>
        <time>2021-03-16T10:46:14+01:00</time>
      </trkpt>
      <trkpt lat="47.67878" lon="-2.79258">
        <ele>32</ele>
        <time>2021-03-16T10:46:15+01:00</time>
      </trkpt>
      <trkpt lat="47.67882" lon="-2.79261">
        <ele>32</ele>
        <time>2021-03-16T10:46:16+01:00</time>
      </trkpt>
      <trkpt lat="47.67887" lon="-2.79264">
        <ele>32</ele>
        <time>2021-03-16T10:46:17+01:00</time>
      </trkpt>
      <trkpt lat="47.67891" lon="-2.79266">
        <ele>32</ele>
        <time>2021-03-16T10:46:18+01:00</time>
      </trkpt>
      <trkpt lat="47.67895" lon="-2.79269">
        <ele>32</ele>
        <time>2021-03-16T10:46:19+01:00</time>
      </trkpt>
      <trkpt lat="47.67899" lon="-2.79272">
        <ele>32</ele>
        <time>2021-03-16T10:46:20+01:00</time>
      </trkpt>
      <trkpt lat="47.67903" lon="-2.79275">
        <ele>32</ele>
        <time>2021-03-16T10:46:21+01:00</time>
      </trkpt>
      <trkpt lat="47.67907" lon="-2.79278">
        <ele>32</ele>
        <time>2021-03-16T10:46:22+01:00</time>
      </trkpt>
      <trkpt lat="47.67911" lon="-2.79281">
        <ele>32</ele>
        <time>2021-03-16T10:46:23+01:00</time>
      </trkpt>
      <trkpt lat="47.67915" lon="-2.79284">
        <ele>31</ele>
        <time>2021-03-16T10:46:24+01:00</time>
      </trkpt>
      <trkpt lat="47.67919" lon="-2.79286">
        <ele>31</ele>
        <time>2021-03-16T10:46:25+01:00</time>
      </trkpt>
      <trkpt lat="47.67923" lon="-2.79289">
        <ele>32</ele>
        <time>2021-03-16T10:46:26+01:00</time>
      </trkpt>
      <trkpt lat="47.67928" lon="-2.79291">
        <ele>32</ele>
        <time>2021-03-16T10:46:27+01:00</time>
      </trkpt>
      <trkpt lat="47.67932" lon="-2.79294">
        <ele>32</ele>
        <time>2021-03-16T10:46:28+01:00</time>
      </trkpt>
      <trkpt lat="47.67936" lon="-2.79296">
        <ele>32</ele>
        <time>2021-03-16T10:46:29+01:00</time>
      </trkpt>
      <trkpt lat="47.6794" lon="-2.79299">
        <ele>32</ele>
        <time>2021-03-16T10:46:30+01:00</time>
      </trkpt>
      <trkpt lat="47.67945" lon="-2.79301">
        <ele>32</ele>
        <time>2021-03-16T10:46:31+01:00</time>
      </trkpt>
      <trkpt lat="47.67949" lon="-2.79303">
        <ele>32</ele>
        <time>2021-03-16T10:46:32+01:00</time>
      </trkpt>
      <trkpt lat="47.67953" lon="-2.79306">
        <ele>33</ele>
        <time>2021-03-16T10:46:33+01:00</time>
      </trkpt>
      <trkpt lat="47.67956" lon="-2.79308">
        <ele>33</ele>
        <time>2021-03-16T10:46:34+01:00</time>
      </trkpt>
      <trkpt lat="47.6796" lon="-2.7931">
        <ele>33</ele>
        <time>2021-03-16T10:46:35+01:00</time>
      </trkpt>
      <trkpt lat="47.67964" lon="-2.79313">
        <ele>33</ele>
        <time>2021-03-16T10:46:36+01:00</time>
      </trkpt>
      <trkpt lat="47.67967" lon="-2.79316">
        <ele>33</ele>
        <time>2021-03-16T10:46:37+01:00</time>
      </trkpt>
      <trkpt lat="47.67971" lon="-2.79319">
        <ele>33</ele>
        <time>2021-03-16T10:46:38+01:00</time>
      </trkpt>
      <trkpt lat="47.67974" lon="-2.79322">
        <ele>33</ele>
        <time>2021-03-16T10:46:39+01:00</time>
      </trkpt>
      <trkpt lat="47.67977" lon="-2.79325">
        <ele>33</ele>
        <time>2021-03-16T10:46:40+01:00</time>
      </trkpt>
      <trkpt lat="47.6798" lon="-2.79328">
        <ele>33</ele>
        <time>2021-03-16T10:46:41+01:00</time>
      </trkpt>
      <trkpt lat="47.67984" lon="-2.7933">
        <ele>34</ele>
        <time>2021-03-16T10:46:42+01:00</time>
      </trkpt>
      <trkpt lat="47.67987" lon="-2.79333">
        <ele>34</ele>
        <time>2021-03-16T10:46:43+01:00</time>
      </trkpt>
      <trkpt lat="47.6799" lon="-2.79336">
        <ele>34</ele>
        <time>2021-03-16T10:46:44+01:00</time>
      </trkpt>
      <trkpt lat="47.67994" lon="-2.79338">
        <ele>34</ele>
        <time>2021-03-16T10:46:45+01:00</time>
      </trkpt>
      <trkpt lat="47.67996" lon="-2.79341">
        <ele>34</ele>
        <time>2021-03-16T10:46:46+01:00</time>
      </trkpt>
      <trkpt lat="47.68" lon="-2.79344">
        <ele>35</ele>
        <time>2021-03-16T10:46:48+01:00</time>
      </trkpt>
      <trkpt lat="47.68005" lon="-2.79346">
        <ele>35</ele>
        <time>2021-03-16T10:46:50+01:00</time>
      </trkpt>
      <trkpt lat="47.68009" lon="-2.7935">
        <ele>35</ele>
        <time>2021-03-16T10:46:52+01:00</time>
      </trkpt>
      <trkpt lat="47.68012" lon="-2.79352">
        <ele>35</ele>
        <time>2021-03-16T10:46:53+01:00</time>
      </trkpt>
      <trkpt lat="47.68016" lon="-2.79356">
        <ele>36</ele>
        <time>2021-03-16T10:46:55+01:00</time>
      </trkpt>
      <trkpt lat="47.68019" lon="-2.79358">
        <ele>36</ele>
        <time>2021-03-16T10:46:56+01:00</time>
      </trkpt>
      <trkpt lat="47.68022" lon="-2.79361">
        <ele>36</ele>
        <time>2021-03-16T10:46:57+01:00</time>
      </trkpt>
      <trkpt lat="47.68025" lon="-2.79363">
        <ele>36</ele>
        <time>2021-03-16T10:46:58+01:00</time>
      </trkpt>
      <trkpt lat="47.68028" lon="-2.79365">
        <ele>36</ele>
        <time>2021-03-16T10:46:59+01:00</time>
      </trkpt>
      <trkpt lat="47.6803" lon="-2.79366">
        <ele>37</ele>
        <time>2021-03-16T10:47:00+01:00</time>
      </trkpt>
      <trkpt lat="47.68033" lon="-2.79368">
        <ele>37</ele>
        <time>2021-03-16T10:47:01+01:00</time>
      </trkpt>
      <trkpt lat="47.68037" lon="-2.79371">
        <ele>37</ele>
        <time>2021-03-16T10:47:03+01:00</time>
      </trkpt>
      <trkpt lat="47.68041" lon="-2.79374">
        <ele>37</ele>
        <time>2021-03-16T10:47:05+01:00</time>
      </trkpt>
      <trkpt lat="47.68045" lon="-2.79377">
        <ele>37</ele>
        <time>2021-03-16T10:47:07+01:00</time>
      </trkpt>
      <trkpt lat="47.68049" lon="-2.7938">
        <ele>38</ele>
        <time>2021-03-16T10:47:08+01:00</time>
      </trkpt>
      <trkpt lat="47.68052" lon="-2.79383">
        <ele>38</ele>
        <time>2021-03-16T10:47:09+01:00</time>
      </trkpt>
      <trkpt lat="47.68054" lon="-2.79385">
        <ele>38</ele>
        <time>2021-03-16T10:47:10+01:00</time>
      </trkpt>
      <trkpt lat="47.68057" lon="-2.79387">
        <ele>38</ele>
        <time>2021-03-16T10:47:11+01:00</time>
      </trkpt>
      <trkpt lat="47.6806" lon="-2.79389">
        <ele>38</ele>
        <time>2021-03-16T10:47:12+01:00</time>
      </trkpt>
      <trkpt lat="47.68062" lon="-2.79391">
        <ele>38</ele>
        <time>2021-03-16T10:47:13+01:00</time>
      </trkpt>
      <trkpt lat="47.68065" lon="-2.79394">
        <ele>39</ele>
        <time>2021-03-16T10:47:14+01:00</time>
      </trkpt>
      <trkpt lat="47.68067" lon="-2.79396">
        <ele>39</ele>
        <time>2021-03-16T10:47:15+01:00</time>
      </trkpt>
      <trkpt lat="47.6807" lon="-2.79397">
        <ele>39</ele>
        <time>2021-03-16T10:47:16+01:00</time>
      </trkpt>
      <trkpt lat="47.68072" lon="-2.79399">
        <ele>39</ele>
        <time>2021-03-16T10:47:17+01:00</time>
      </trkpt>
      <trkpt lat="47.68076" lon="-2.79402">
        <ele>39</ele>
        <time>2021-03-16T10:47:19+01:00</time>
      </trkpt>
      <trkpt lat="47.68079" lon="-2.79404">
        <ele>39</ele>
        <time>2021-03-16T10:47:20+01:00</time>
      </trkpt>
      <trkpt lat="47.68082" lon="-2.79406">
        <ele>40</ele>
        <time>2021-03-16T10:47:21+01:00</time>
      </trkpt>
      <trkpt lat="47.68085" lon="-2.79408">
        <ele>40</ele>
        <time>2021-03-16T10:47:22+01:00</time>
      </trkpt>
      <trkpt lat="47.68087" lon="-2.7941">
        <ele>40</ele>
        <time>2021-03-16T10:47:23+01:00</time>
      </trkpt>
      <trkpt lat="47.6809" lon="-2.79412">
        <ele>40</ele>
        <time>2021-03-16T10:47:24+01:00</time>
      </trkpt>
      <trkpt lat="47.68092" lon="-2.79414">
        <ele>40</ele>
        <time>2021-03-16T10:47:25+01:00</time>
      </trkpt>
      <trkpt lat="47.68095" lon="-2.79416">
        <ele>40</ele>
        <time>2021-03-16T10:47:26+01:00</time>
      </trkpt>
      <trkpt lat="47.68097" lon="-2.79418">
        <ele>40</ele>
        <time>2021-03-16T10:47:27+01:00</time>
      </trkpt>
      <trkpt lat="47.681" lon="-2.7942">
        <ele>40</ele>
        <time>2021-03-16T10:47:28+01:00</time>
      </trkpt>
      <trkpt lat="47.68102" lon="-2.79422">
        <ele>40</ele>
        <time>2021-03-16T10:47:29+01:00</time>
      </trkpt>
      <trkpt lat="47.68105" lon="-2.79425">
        <ele>40</ele>
        <time>2021-03-16T10:47:30+01:00</time>
      </trkpt>
      <trkpt lat="47.68107" lon="-2.79427">
        <ele>40</ele>
        <time>2021-03-16T10:47:31+01:00</time>
      </trkpt>
      <trkpt lat="47.6811" lon="-2.79429">
        <ele>40</ele>
        <time>2021-03-16T10:47:32+01:00</time>
      </trkpt>
      <trkpt lat="47.68112" lon="-2.79431">
        <ele>40</ele>
        <time>2021-03-16T10:47:33+01:00</time>
      </trkpt>
      <trkpt lat="47.68115" lon="-2.79433">
        <ele>40</ele>
        <time>2021-03-16T10:47:34+01:00</time>
      </trkpt>
      <trkpt lat="47.68118" lon="-2.79436">
        <ele>40</ele>
        <time>2021-03-16T10:47:35+01:00</time>
      </trkpt>
      <trkpt lat="47.6812" lon="-2.79438">
        <ele>40</ele>
        <time>2021-03-16T10:47:36+01:00</time>
      </trkpt>
      <trkpt lat="47.68123" lon="-2.7944">
        <ele>41</ele>
        <time>2021-03-16T10:47:37+01:00</time>
      </trkpt>
      <trkpt lat="47.68126" lon="-2.79442">
        <ele>41</ele>
        <time>2021-03-16T10:47:38+01:00</time>
      </trkpt>
      <trkpt lat="47.68128" lon="-2.79445">
        <ele>41</ele>
        <time>2021-03-16T10:47:39+01:00</time>
      </trkpt>
      <trkpt lat="47.68131" lon="-2.79447">
        <ele>41</ele>
        <time>2021-03-16T10:47:40+01:00</time>
      </trkpt>
      <trkpt lat="47.68133" lon="-2.7945">
        <ele>41</ele>
        <time>2021-03-16T10:47:41+01:00</time>
      </trkpt>
      <trkpt lat="47.68135" lon="-2.79453">
        <ele>41</ele>
        <time>2021-03-16T10:47:42+01:00</time>
      </trkpt>
      <trkpt lat="47.68137" lon="-2.79455">
        <ele>41</ele>
        <time>2021-03-16T10:47:43+01:00</time>
      </trkpt>
      <trkpt lat="47.68139" lon="-2.79458">
        <ele>41</ele>
        <time>2021-03-16T10:47:44+01:00</time>
      </trkpt>
      <trkpt lat="47.68141" lon="-2.79461">
        <ele>41</ele>
        <time>2021-03-16T10:47:45+01:00</time>
      </trkpt>
      <trkpt lat="47.68143" lon="-2.79465">
        <ele>41</ele>
        <time>2021-03-16T10:47:46+01:00</time>
      </trkpt>
      <trkpt lat="47.68144" lon="-2.79469">
        <ele>42</ele>
        <time>2021-03-16T10:47:47+01:00</time>
      </trkpt>
      <trkpt lat="47.68146" lon="-2.79472">
        <ele>42</ele>
        <time>2021-03-16T10:47:48+01:00</time>
      </trkpt>
      <trkpt lat="47.68148" lon="-2.79476">
        <ele>42</ele>
        <time>2021-03-16T10:47:49+01:00</time>
      </trkpt>
      <trkpt lat="47.68149" lon="-2.7948">
        <ele>42</ele>
        <time>2021-03-16T10:47:50+01:00</time>
      </trkpt>
      <trkpt lat="47.68151" lon="-2.79485">
        <ele>42</ele>
        <time>2021-03-16T10:47:52+01:00</time>
      </trkpt>
      <trkpt lat="47.68152" lon="-2.79492">
        <ele>42</ele>
        <time>2021-03-16T10:47:54+01:00</time>
      </trkpt>
      <trkpt lat="47.68154" lon="-2.79497">
        <ele>43</ele>
        <time>2021-03-16T10:47:55+01:00</time>
      </trkpt>
      <trkpt lat="47.68155" lon="-2.79502">
        <ele>43</ele>
        <time>2021-03-16T10:47:56+01:00</time>
      </trkpt>
      <trkpt lat="47.68156" lon="-2.79506">
        <ele>43</ele>
        <time>2021-03-16T10:47:57+01:00</time>
      </trkpt>
      <trkpt lat="47.68157" lon="-2.79511">
        <ele>43</ele>
        <time>2021-03-16T10:47:58+01:00</time>
      </trkpt>
      <trkpt lat="47.68158" lon="-2.79515">
        <ele>43</ele>
        <time>2021-03-16T10:47:59+01:00</time>
      </trkpt>
      <trkpt lat="47.68159" lon="-2.79519">
        <ele>43</ele>
        <time>2021-03-16T10:48:00+01:00</time>
      </trkpt>
      <trkpt lat="47.6816" lon="-2.79523">
        <ele>43</ele>
        <time>2021-03-16T10:48:01+01:00</time>
      </trkpt>
      <trkpt lat="47.68161" lon="-2.79527">
        <ele>43</ele>
        <time>2021-03-16T10:48:02+01:00</time>
      </trkpt>
      <trkpt lat="47.68161" lon="-2.79531">
        <ele>43</ele>
        <time>2021-03-16T10:48:03+01:00</time>
      </trkpt>
      <trkpt lat="47.68162" lon="-2.79537">
        <ele>43</ele>
        <time>2021-03-16T10:48:05+01:00</time>
      </trkpt>
      <trkpt lat="47.68164" lon="-2.79544">
        <ele>43</ele>
        <time>2021-03-16T10:48:07+01:00</time>
      </trkpt>
      <trkpt lat="47.68165" lon="-2.7955">
        <ele>44</ele>
        <time>2021-03-16T10:48:09+01:00</time>
      </trkpt>
      <trkpt lat="47.68167" lon="-2.79556">
        <ele>44</ele>
        <time>2021-03-16T10:48:11+01:00</time>
      </trkpt>
      <trkpt lat="47.68169" lon="-2.79562">
        <ele>44</ele>
        <time>2021-03-16T10:48:13+01:00</time>
      </trkpt>
      <trkpt lat="47.68171" lon="-2.79568">
        <ele>44</ele>
        <time>2021-03-16T10:48:15+01:00</time>
      </trkpt>
      <trkpt lat="47.68173" lon="-2.79574">
        <ele>44</ele>
        <time>2021-03-16T10:48:17+01:00</time>
      </trkpt>
      <trkpt lat="47.68175" lon="-2.79579">
        <ele>44</ele>
        <time>2021-03-16T10:48:18+01:00</time>
      </trkpt>
      <trkpt lat="47.68178" lon="-2.79584">
        <ele>44</ele>
        <time>2021-03-16T10:48:20+01:00</time>
      </trkpt>
      <trkpt lat="47.68181" lon="-2.79589">
        <ele>44</ele>
        <time>2021-03-16T10:48:22+01:00</time>
      </trkpt>
      <trkpt lat="47.68186" lon="-2.79593">
        <ele>44</ele>
        <time>2021-03-16T10:48:24+01:00</time>
      </trkpt>
      <trkpt lat="47.68189" lon="-2.79596">
        <ele>45</ele>
        <time>2021-03-16T10:48:25+01:00</time>
      </trkpt>
      <trkpt lat="47.68192" lon="-2.79597">
        <ele>45</ele>
        <time>2021-03-16T10:48:26+01:00</time>
      </trkpt>
      <trkpt lat="47.68195" lon="-2.79599">
        <ele>45</ele>
        <time>2021-03-16T10:48:27+01:00</time>
      </trkpt>
      <trkpt lat="47.68198" lon="-2.79599">
        <ele>45</ele>
        <time>2021-03-16T10:48:28+01:00</time>
      </trkpt>
      <trkpt lat="47.68201" lon="-2.79599">
        <ele>45</ele>
        <time>2021-03-16T10:48:29+01:00</time>
      </trkpt>
      <trkpt lat="47.68204" lon="-2.79599">
        <ele>45</ele>
        <time>2021-03-16T10:48:30+01:00</time>
      </trkpt>
      <trkpt lat="47.68207" lon="-2.79599">
        <ele>45</ele>
        <time>2021-03-16T10:48:31+01:00</time>
      </trkpt>
      <trkpt lat="47.6821" lon="-2.79599">
        <ele>45</ele>
        <time>2021-03-16T10:48:32+01:00</time>
      </trkpt>
      <trkpt lat="47.68213" lon="-2.79599">
        <ele>45</ele>
        <time>2021-03-16T10:48:33+01:00</time>
      </trkpt>
      <trkpt lat="47.68216" lon="-2.79598">
        <ele>45</ele>
        <time>2021-03-16T10:48:34+01:00</time>
      </trkpt>
      <trkpt lat="47.68219" lon="-2.79598">
        <ele>45</ele>
        <time>2021-03-16T10:48:35+01:00</time>
      </trkpt>
      <trkpt lat="47.68222" lon="-2.79597">
        <ele>45</ele>
        <time>2021-03-16T10:48:36+01:00</time>
      </trkpt>
      <trkpt lat="47.68226" lon="-2.79597">
        <ele>45</ele>
        <time>2021-03-16T10:48:38+01:00</time>
      </trkpt>
      <trkpt lat="47.6823" lon="-2.79596">
        <ele>45</ele>
        <time>2021-03-16T10:48:39+01:00</time>
      </trkpt>
      <trkpt lat="47.68233" lon="-2.79596">
        <ele>45</ele>
        <time>2021-03-16T10:48:40+01:00</time>
      </trkpt>
      <trkpt lat="47.68237" lon="-2.79595">
        <ele>45</ele>
        <time>2021-03-16T10:48:42+01:00</time>
      </trkpt>
      <trkpt lat="47.6824" lon="-2.79594">
        <ele>46</ele>
        <time>2021-03-16T10:48:43+01:00</time>
      </trkpt>
      <trkpt lat="47.68243" lon="-2.79592">
        <ele>46</ele>
        <time>2021-03-16T10:48:44+01:00</time>
      </trkpt>
      <trkpt lat="47.68246" lon="-2.79591">
        <ele>46</ele>
        <time>2021-03-16T10:48:45+01:00</time>
      </trkpt>
      <trkpt lat="47.68249" lon="-2.79591">
        <ele>46</ele>
        <time>2021-03-16T10:48:46+01:00</time>
      </trkpt>
      <trkpt lat="47.68253" lon="-2.7959">
        <ele>46</ele>
        <time>2021-03-16T10:48:48+01:00</time>
      </trkpt>
      <trkpt lat="47.68258" lon="-2.79589">
        <ele>46</ele>
        <time>2021-03-16T10:48:50+01:00</time>
      </trkpt>
      <trkpt lat="47.68261" lon="-2.79589">
        <ele>46</ele>
        <time>2021-03-16T10:48:52+01:00</time>
      </trkpt>
      <trkpt lat="47.68265" lon="-2.79589">
        <ele>46</ele>
        <time>2021-03-16T10:50:14+01:00</time>
      </trkpt>
      <trkpt lat="47.68269" lon="-2.7959">
        <ele>46</ele>
        <time>2021-03-16T10:50:16+01:00</time>
      </trkpt>
      <trkpt lat="47.68272" lon="-2.79594">
        <ele>46</ele>
        <time>2021-03-16T10:50:18+01:00</time>
      </trkpt>
      <trkpt lat="47.68274" lon="-2.796">
        <ele>45</ele>
        <time>2021-03-16T10:50:20+01:00</time>
      </trkpt>
      <trkpt lat="47.68276" lon="-2.79603">
        <ele>45</ele>
        <time>2021-03-16T10:50:23+01:00</time>
      </trkpt>
      <trkpt lat="47.68278" lon="-2.79607">
        <ele>45</ele>
        <time>2021-03-16T10:50:25+01:00</time>
      </trkpt>
      <trkpt lat="47.68279" lon="-2.79612">
        <ele>45</ele>
        <time>2021-03-16T10:50:27+01:00</time>
      </trkpt>
      <trkpt lat="47.6828" lon="-2.79618">
        <ele>45</ele>
        <time>2021-03-16T10:50:29+01:00</time>
      </trkpt>
      <trkpt lat="47.68281" lon="-2.79625">
        <ele>45</ele>
        <time>2021-03-16T10:50:31+01:00</time>
      </trkpt>
      <trkpt lat="47.68282" lon="-2.79632">
        <ele>45</ele>
        <time>2021-03-16T10:50:33+01:00</time>
      </trkpt>
      <trkpt lat="47.68283" lon="-2.79638">
        <ele>45</ele>
        <time>2021-03-16T10:50:35+01:00</time>
      </trkpt>
      <trkpt lat="47.68284" lon="-2.79644">
        <ele>45</ele>
        <time>2021-03-16T10:50:36+01:00</time>
      </trkpt>
      <trkpt lat="47.68285" lon="-2.79648">
        <ele>45</ele>
        <time>2021-03-16T10:50:37+01:00</time>
      </trkpt>
      <trkpt lat="47.68285" lon="-2.79653">
        <ele>45</ele>
        <time>2021-03-16T10:50:38+01:00</time>
      </trkpt>
      <trkpt lat="47.68286" lon="-2.79657">
        <ele>45</ele>
        <time>2021-03-16T10:50:39+01:00</time>
      </trkpt>
      <trkpt lat="47.68287" lon="-2.79662">
        <ele>45</ele>
        <time>2021-03-16T10:50:40+01:00</time>
      </trkpt>
      <trkpt lat="47.68288" lon="-2.79666">
        <ele>44</ele>
        <time>2021-03-16T10:50:41+01:00</time>
      </trkpt>
      <trkpt lat="47.68289" lon="-2.7967">
        <ele>44</ele>
        <time>2021-03-16T10:50:42+01:00</time>
      </trkpt>
      <trkpt lat="47.6829" lon="-2.79675">
        <ele>44</ele>
        <time>2021-03-16T10:50:43+01:00</time>
      </trkpt>
      <trkpt lat="47.68291" lon="-2.79679">
        <ele>44</ele>
        <time>2021-03-16T10:50:44+01:00</time>
      </trkpt>
      <trkpt lat="47.68291" lon="-2.79683">
        <ele>44</ele>
        <time>2021-03-16T10:50:45+01:00</time>
      </trkpt>
      <trkpt lat="47.68292" lon="-2.79688">
        <ele>44</ele>
        <time>2021-03-16T10:50:46+01:00</time>
      </trkpt>
      <trkpt lat="47.68293" lon="-2.79693">
        <ele>44</ele>
        <time>2021-03-16T10:50:47+01:00</time>
      </trkpt>
      <trkpt lat="47.68294" lon="-2.79698">
        <ele>44</ele>
        <time>2021-03-16T10:50:48+01:00</time>
      </trkpt>
      <trkpt lat="47.68294" lon="-2.79703">
        <ele>44</ele>
        <time>2021-03-16T10:50:49+01:00</time>
      </trkpt>
      <trkpt lat="47.68295" lon="-2.79708">
        <ele>44</ele>
        <time>2021-03-16T10:50:50+01:00</time>
      </trkpt>
      <trkpt lat="47.68296" lon="-2.79713">
        <ele>44</ele>
        <time>2021-03-16T10:50:51+01:00</time>
      </trkpt>
      <trkpt lat="47.68296" lon="-2.79718">
        <ele>44</ele>
        <time>2021-03-16T10:50:52+01:00</time>
      </trkpt>
      <trkpt lat="47.68297" lon="-2.79723">
        <ele>44</ele>
        <time>2021-03-16T10:50:53+01:00</time>
      </trkpt>
      <trkpt lat="47.68297" lon="-2.79728">
        <ele>44</ele>
        <time>2021-03-16T10:50:54+01:00</time>
      </trkpt>
      <trkpt lat="47.68296" lon="-2.79733">
        <ele>44</ele>
        <time>2021-03-16T10:50:55+01:00</time>
      </trkpt>
      <trkpt lat="47.68296" lon="-2.79739">
        <ele>44</ele>
        <time>2021-03-16T10:50:56+01:00</time>
      </trkpt>
      <trkpt lat="47.68296" lon="-2.79744">
        <ele>44</ele>
        <time>2021-03-16T10:50:57+01:00</time>
      </trkpt>
      <trkpt lat="47.68295" lon="-2.79749">
        <ele>44</ele>
        <time>2021-03-16T10:50:58+01:00</time>
      </trkpt>
      <trkpt lat="47.68295" lon="-2.79753">
        <ele>44</ele>
        <time>2021-03-16T10:50:59+01:00</time>
      </trkpt>
      <trkpt lat="47.68294" lon="-2.79758">
        <ele>44</ele>
        <time>2021-03-16T10:51:00+01:00</time>
      </trkpt>
      <trkpt lat="47.68293" lon="-2.79764">
        <ele>44</ele>
        <time>2021-03-16T10:51:02+01:00</time>
      </trkpt>
      <trkpt lat="47.68291" lon="-2.79766">
        <ele>44</ele>
        <time>2021-03-16T10:51:09+01:00</time>
      </trkpt>
      <trkpt lat="47.68289" lon="-2.7977">
        <ele>44</ele>
        <time>2021-03-16T10:51:11+01:00</time>
      </trkpt>
      <trkpt lat="47.68288" lon="-2.79776">
        <ele>44</ele>
        <time>2021-03-16T10:51:13+01:00</time>
      </trkpt>
      <trkpt lat="47.68289" lon="-2.79783">
        <ele>44</ele>
        <time>2021-03-16T10:51:15+01:00</time>
      </trkpt>
      <trkpt lat="47.68289" lon="-2.7979">
        <ele>44</ele>
        <time>2021-03-16T10:51:17+01:00</time>
      </trkpt>
      <trkpt lat="47.68288" lon="-2.79797">
        <ele>44</ele>
        <time>2021-03-16T10:51:19+01:00</time>
      </trkpt>
      <trkpt lat="47.68288" lon="-2.79802">
        <ele>44</ele>
        <time>2021-03-16T10:51:20+01:00</time>
      </trkpt>
      <trkpt lat="47.68288" lon="-2.79808">
        <ele>44</ele>
        <time>2021-03-16T10:51:22+01:00</time>
      </trkpt>
      <trkpt lat="47.68288" lon="-2.79814">
        <ele>44</ele>
        <time>2021-03-16T10:51:23+01:00</time>
      </trkpt>
      <trkpt lat="47.68288" lon="-2.79818">
        <ele>44</ele>
        <time>2021-03-16T10:51:24+01:00</time>
      </trkpt>
      <trkpt lat="47.68289" lon="-2.79823">
        <ele>44</ele>
        <time>2021-03-16T10:51:25+01:00</time>
      </trkpt>
      <trkpt lat="47.68289" lon="-2.79828">
        <ele>44</ele>
        <time>2021-03-16T10:51:26+01:00</time>
      </trkpt>
      <trkpt lat="47.68289" lon="-2.79833">
        <ele>44</ele>
        <time>2021-03-16T10:51:27+01:00</time>
      </trkpt>
      <trkpt lat="47.6829" lon="-2.79838">
        <ele>44</ele>
        <time>2021-03-16T10:51:28+01:00</time>
      </trkpt>
      <trkpt lat="47.6829" lon="-2.79843">
        <ele>44</ele>
        <time>2021-03-16T10:51:29+01:00</time>
      </trkpt>
      <trkpt lat="47.68291" lon="-2.79848">
        <ele>44</ele>
        <time>2021-03-16T10:51:30+01:00</time>
      </trkpt>
      <trkpt lat="47.68291" lon="-2.79853">
        <ele>44</ele>
        <time>2021-03-16T10:51:31+01:00</time>
      </trkpt>
      <trkpt lat="47.68292" lon="-2.79857">
        <ele>44</ele>
        <time>2021-03-16T10:51:33+01:00</time>
      </trkpt>
      <trkpt lat="47.68293" lon="-2.79861">
        <ele>44</ele>
        <time>2021-03-16T10:51:45+01:00</time>
      </trkpt>
      <trkpt lat="47.68296" lon="-2.79865">
        <ele>44</ele>
        <time>2021-03-16T10:51:47+01:00</time>
      </trkpt>
      <trkpt lat="47.68298" lon="-2.7987">
        <ele>44</ele>
        <time>2021-03-16T10:51:49+01:00</time>
      </trkpt>
      <trkpt lat="47.68301" lon="-2.79876">
        <ele>44</ele>
        <time>2021-03-16T10:51:51+01:00</time>
      </trkpt>
      <trkpt lat="47.68302" lon="-2.79881">
        <ele>44</ele>
        <time>2021-03-16T10:51:52+01:00</time>
      </trkpt>
      <trkpt lat="47.68303" lon="-2.79885">
        <ele>44</ele>
        <time>2021-03-16T10:51:53+01:00</time>
      </trkpt>
      <trkpt lat="47.68303" lon="-2.7989">
        <ele>44</ele>
        <time>2021-03-16T10:51:54+01:00</time>
      </trkpt>
      <trkpt lat="47.68302" lon="-2.79894">
        <ele>43</ele>
        <time>2021-03-16T10:51:55+01:00</time>
      </trkpt>
      <trkpt lat="47.68301" lon="-2.79898">
        <ele>43</ele>
        <time>2021-03-16T10:51:56+01:00</time>
      </trkpt>
      <trkpt lat="47.683" lon="-2.79903">
        <ele>43</ele>
        <time>2021-03-16T10:51:58+01:00</time>
      </trkpt>
      <trkpt lat="47.68299" lon="-2.79908">
        <ele>43</ele>
        <time>2021-03-16T10:53:00+01:00</time>
      </trkpt>
      <trkpt lat="47.68299" lon="-2.79915">
        <ele>43</ele>
        <time>2021-03-16T10:53:02+01:00</time>
      </trkpt>
      <trkpt lat="47.683" lon="-2.7992">
        <ele>43</ele>
        <time>2021-03-16T10:53:03+01:00</time>
      </trkpt>
      <trkpt lat="47.683" lon="-2.79925">
        <ele>43</ele>
        <time>2021-03-16T10:53:04+01:00</time>
      </trkpt>
      <trkpt lat="47.68301" lon="-2.79929">
        <ele>43</ele>
        <time>2021-03-16T10:53:05+01:00</time>
      </trkpt>
      <trkpt lat="47.68301" lon="-2.79934">
        <ele>43</ele>
        <time>2021-03-16T10:53:06+01:00</time>
      </trkpt>
      <trkpt lat="47.68302" lon="-2.79938">
        <ele>43</ele>
        <time>2021-03-16T10:53:07+01:00</time>
      </trkpt>
      <trkpt lat="47.68303" lon="-2.79943">
        <ele>43</ele>
        <time>2021-03-16T10:53:08+01:00</time>
      </trkpt>
      <trkpt lat="47.68304" lon="-2.79948">
        <ele>43</ele>
        <time>2021-03-16T10:53:09+01:00</time>
      </trkpt>
      <trkpt lat="47.68306" lon="-2.79954">
        <ele>43</ele>
        <time>2021-03-16T10:53:10+01:00</time>
      </trkpt>
      <trkpt lat="47.68306" lon="-2.79959">
        <ele>43</ele>
        <time>2021-03-16T10:53:11+01:00</time>
      </trkpt>
      <trkpt lat="47.68307" lon="-2.79963">
        <ele>43</ele>
        <time>2021-03-16T10:53:12+01:00</time>
      </trkpt>
      <trkpt lat="47.68308" lon="-2.79968">
        <ele>43</ele>
        <time>2021-03-16T10:53:13+01:00</time>
      </trkpt>
      <trkpt lat="47.68309" lon="-2.79972">
        <ele>43</ele>
        <time>2021-03-16T10:53:14+01:00</time>
      </trkpt>
      <trkpt lat="47.6831" lon="-2.79977">
        <ele>43</ele>
        <time>2021-03-16T10:53:15+01:00</time>
      </trkpt>
      <trkpt lat="47.6831" lon="-2.79982">
        <ele>43</ele>
        <time>2021-03-16T10:53:16+01:00</time>
      </trkpt>
      <trkpt lat="47.68311" lon="-2.79986">
        <ele>43</ele>
        <time>2021-03-16T10:53:17+01:00</time>
      </trkpt>
      <trkpt lat="47.68312" lon="-2.79991">
        <ele>43</ele>
        <time>2021-03-16T10:53:18+01:00</time>
      </trkpt>
      <trkpt lat="47.68313" lon="-2.79996">
        <ele>44</ele>
        <time>2021-03-16T10:53:19+01:00</time>
      </trkpt>
      <trkpt lat="47.68315" lon="-2.8">
        <ele>44</ele>
        <time>2021-03-16T10:53:20+01:00</time>
      </trkpt>
      <trkpt lat="47.68316" lon="-2.80005">
        <ele>44</ele>
        <time>2021-03-16T10:53:21+01:00</time>
      </trkpt>
      <trkpt lat="47.68317" lon="-2.80009">
        <ele>44</ele>
        <time>2021-03-16T10:53:22+01:00</time>
      </trkpt>
      <trkpt lat="47.68318" lon="-2.80013">
        <ele>44</ele>
        <time>2021-03-16T10:53:23+01:00</time>
      </trkpt>
      <trkpt lat="47.68319" lon="-2.80018">
        <ele>44</ele>
        <time>2021-03-16T10:53:24+01:00</time>
      </trkpt>
      <trkpt lat="47.6832" lon="-2.80024">
        <ele>44</ele>
        <time>2021-03-16T10:53:25+01:00</time>
      </trkpt>
      <trkpt lat="47.68321" lon="-2.80029">
        <ele>44</ele>
        <time>2021-03-16T10:53:26+01:00</time>
      </trkpt>
      <trkpt lat="47.68322" lon="-2.80034">
        <ele>44</ele>
        <time>2021-03-16T10:53:27+01:00</time>
      </trkpt>
      <trkpt lat="47.68324" lon="-2.8004">
        <ele>44</ele>
        <time>2021-03-16T10:53:28+01:00</time>
      </trkpt>
      <trkpt lat="47.68325" lon="-2.80045">
        <ele>44</ele>
        <time>2021-03-16T10:53:29+01:00</time>
      </trkpt>
      <trkpt lat="47.68326" lon="-2.8005">
        <ele>44</ele>
        <time>2021-03-16T10:53:30+01:00</time>
      </trkpt>
      <trkpt lat="47.68328" lon="-2.80056">
        <ele>44</ele>
        <time>2021-03-16T10:53:31+01:00</time>
      </trkpt>
      <trkpt lat="47.68329" lon="-2.80062">
        <ele>44</ele>
        <time>2021-03-16T10:53:32+01:00</time>
      </trkpt>
      <trkpt lat="47.6833" lon="-2.80068">
        <ele>44</ele>
        <time>2021-03-16T10:53:33+01:00</time>
      </trkpt>
      <trkpt lat="47.68331" lon="-2.80073">
        <ele>44</ele>
        <time>2021-03-16T10:53:34+01:00</time>
      </trkpt>
      <trkpt lat="47.68331" lon="-2.80078">
        <ele>44</ele>
        <time>2021-03-16T10:53:35+01:00</time>
      </trkpt>
      <trkpt lat="47.68331" lon="-2.80083">
        <ele>44</ele>
        <time>2021-03-16T10:53:36+01:00</time>
      </trkpt>
      <trkpt lat="47.6833" lon="-2.80088">
        <ele>44</ele>
        <time>2021-03-16T10:53:37+01:00</time>
      </trkpt>
      <trkpt lat="47.68328" lon="-2.80093">
        <ele>44</ele>
        <time>2021-03-16T10:53:38+01:00</time>
      </trkpt>
      <trkpt lat="47.68327" lon="-2.80097">
        <ele>44</ele>
        <time>2021-03-16T10:53:39+01:00</time>
      </trkpt>
      <trkpt lat="47.68327" lon="-2.80101">
        <ele>44</ele>
        <time>2021-03-16T10:53:40+01:00</time>
      </trkpt>
      <trkpt lat="47.68328" lon="-2.80105">
        <ele>44</ele>
        <time>2021-03-16T10:53:41+01:00</time>
      </trkpt>
      <trkpt lat="47.68331" lon="-2.80108">
        <ele>44</ele>
        <time>2021-03-16T10:53:42+01:00</time>
      </trkpt>
      <trkpt lat="47.68334" lon="-2.8011">
        <ele>44</ele>
        <time>2021-03-16T10:53:43+01:00</time>
      </trkpt>
      <trkpt lat="47.68336" lon="-2.80113">
        <ele>44</ele>
        <time>2021-03-16T10:53:44+01:00</time>
      </trkpt>
      <trkpt lat="47.68337" lon="-2.80117">
        <ele>44</ele>
        <time>2021-03-16T10:53:45+01:00</time>
      </trkpt>
      <trkpt lat="47.68339" lon="-2.80121">
        <ele>44</ele>
        <time>2021-03-16T10:53:46+01:00</time>
      </trkpt>
      <trkpt lat="47.68339" lon="-2.80125">
        <ele>44</ele>
        <time>2021-03-16T10:53:47+01:00</time>
      </trkpt>
      <trkpt lat="47.6834" lon="-2.8013">
        <ele>44</ele>
        <time>2021-03-16T10:53:48+01:00</time>
      </trkpt>
      <trkpt lat="47.68341" lon="-2.80135">
        <ele>44</ele>
        <time>2021-03-16T10:53:49+01:00</time>
      </trkpt>
      <trkpt lat="47.68342" lon="-2.8014">
        <ele>44</ele>
        <time>2021-03-16T10:53:50+01:00</time>
      </trkpt>
      <trkpt lat="47.68343" lon="-2.80144">
        <ele>44</ele>
        <time>2021-03-16T10:53:51+01:00</time>
      </trkpt>
      <trkpt lat="47.68344" lon="-2.80149">
        <ele>44</ele>
        <time>2021-03-16T10:53:52+01:00</time>
      </trkpt>
      <trkpt lat="47.68344" lon="-2.80153">
        <ele>44</ele>
        <time>2021-03-16T10:53:53+01:00</time>
      </trkpt>
      <trkpt lat="47.68346" lon="-2.80158">
        <ele>44</ele>
        <time>2021-03-16T10:53:54+01:00</time>
      </trkpt>
      <trkpt lat="47.68346" lon="-2.80162">
        <ele>44</ele>
        <time>2021-03-16T10:53:55+01:00</time>
      </trkpt>
      <trkpt lat="47.68347" lon="-2.80166">
        <ele>44</ele>
        <time>2021-03-16T10:53:56+01:00</time>
      </trkpt>
      <trkpt lat="47.68348" lon="-2.8017">
        <ele>44</ele>
        <time>2021-03-16T10:53:57+01:00</time>
      </trkpt>
      <trkpt lat="47.68349" lon="-2.80175">
        <ele>44</ele>
        <time>2021-03-16T10:53:58+01:00</time>
      </trkpt>
      <trkpt lat="47.6835" lon="-2.8018">
        <ele>44</ele>
        <time>2021-03-16T10:53:59+01:00</time>
      </trkpt>
      <trkpt lat="47.68351" lon="-2.80185">
        <ele>44</ele>
        <time>2021-03-16T10:54:00+01:00</time>
      </trkpt>
      <trkpt lat="47.68352" lon="-2.80189">
        <ele>44</ele>
        <time>2021-03-16T10:54:01+01:00</time>
      </trkpt>
      <trkpt lat="47.68353" lon="-2.80194">
        <ele>43</ele>
        <time>2021-03-16T10:54:02+01:00</time>
      </trkpt>
      <trkpt lat="47.68354" lon="-2.80199">
        <ele>43</ele>
        <time>2021-03-16T10:54:03+01:00</time>
      </trkpt>
      <trkpt lat="47.68356" lon="-2.80203">
        <ele>43</ele>
        <time>2021-03-16T10:54:04+01:00</time>
      </trkpt>
      <trkpt lat="47.68357" lon="-2.80208">
        <ele>43</ele>
        <time>2021-03-16T10:54:05+01:00</time>
      </trkpt>
      <trkpt lat="47.68358" lon="-2.80212">
        <ele>43</ele>
        <time>2021-03-16T10:54:06+01:00</time>
      </trkpt>
      <trkpt lat="47.68359" lon="-2.80217">
        <ele>43</ele>
        <time>2021-03-16T10:54:07+01:00</time>
      </trkpt>
      <trkpt lat="47.6836" lon="-2.80223">
        <ele>43</ele>
        <time>2021-03-16T10:54:08+01:00</time>
      </trkpt>
      <trkpt lat="47.68361" lon="-2.80229">
        <ele>43</ele>
        <time>2021-03-16T10:54:09+01:00</time>
      </trkpt>
      <trkpt lat="47.68362" lon="-2.80234">
        <ele>43</ele>
        <time>2021-03-16T10:54:10+01:00</time>
      </trkpt>
      <trkpt lat="47.68363" lon="-2.8024">
        <ele>43</ele>
        <time>2021-03-16T10:54:11+01:00</time>
      </trkpt>
      <trkpt lat="47.68365" lon="-2.80245">
        <ele>42</ele>
        <time>2021-03-16T10:54:12+01:00</time>
      </trkpt>
      <trkpt lat="47.68366" lon="-2.80251">
        <ele>42</ele>
        <time>2021-03-16T10:54:13+01:00</time>
      </trkpt>
      <trkpt lat="47.68368" lon="-2.80257">
        <ele>42</ele>
        <time>2021-03-16T10:54:14+01:00</time>
      </trkpt>
      <trkpt lat="47.68369" lon="-2.80262">
        <ele>42</ele>
        <time>2021-03-16T10:54:15+01:00</time>
      </trkpt>
      <trkpt lat="47.6837" lon="-2.80268">
        <ele>42</ele>
        <time>2021-03-16T10:54:16+01:00</time>
      </trkpt>
      <trkpt lat="47.68372" lon="-2.80273">
        <ele>42</ele>
        <time>2021-03-16T10:54:17+01:00</time>
      </trkpt>
      <trkpt lat="47.68373" lon="-2.80278">
        <ele>42</ele>
        <time>2021-03-16T10:54:18+01:00</time>
      </trkpt>
      <trkpt lat="47.68375" lon="-2.80284">
        <ele>43</ele>
        <time>2021-03-16T10:54:19+01:00</time>
      </trkpt>
      <trkpt lat="47.68376" lon="-2.80289">
        <ele>43</ele>
        <time>2021-03-16T10:54:20+01:00</time>
      </trkpt>
      <trkpt lat="47.68377" lon="-2.80295">
        <ele>42</ele>
        <time>2021-03-16T10:54:21+01:00</time>
      </trkpt>
      <trkpt lat="47.68379" lon="-2.80301">
        <ele>42</ele>
        <time>2021-03-16T10:54:22+01:00</time>
      </trkpt>
      <trkpt lat="47.68379" lon="-2.80307">
        <ele>42</ele>
        <time>2021-03-16T10:54:23+01:00</time>
      </trkpt>
      <trkpt lat="47.6838" lon="-2.80312">
        <ele>42</ele>
        <time>2021-03-16T10:54:24+01:00</time>
      </trkpt>
      <trkpt lat="47.68381" lon="-2.80318">
        <ele>42</ele>
        <time>2021-03-16T10:54:25+01:00</time>
      </trkpt>
      <trkpt lat="47.68382" lon="-2.80323">
        <ele>42</ele>
        <time>2021-03-16T10:54:26+01:00</time>
      </trkpt>
      <trkpt lat="47.68383" lon="-2.80329">
        <ele>42</ele>
        <time>2021-03-16T10:54:27+01:00</time>
      </trkpt>
      <trkpt lat="47.68384" lon="-2.80334">
        <ele>42</ele>
        <time>2021-03-16T10:54:28+01:00</time>
      </trkpt>
      <trkpt lat="47.68385" lon="-2.80339">
        <ele>42</ele>
        <time>2021-03-16T10:54:29+01:00</time>
      </trkpt>
      <trkpt lat="47.68386" lon="-2.80345">
        <ele>42</ele>
        <time>2021-03-16T10:54:30+01:00</time>
      </trkpt>
      <trkpt lat="47.68388" lon="-2.80351">
        <ele>42</ele>
        <time>2021-03-16T10:54:31+01:00</time>
      </trkpt>
      <trkpt lat="47.68389" lon="-2.80357">
        <ele>42</ele>
        <time>2021-03-16T10:54:32+01:00</time>
      </trkpt>
      <trkpt lat="47.68391" lon="-2.80363">
        <ele>42</ele>
        <time>2021-03-16T10:54:33+01:00</time>
      </trkpt>
      <trkpt lat="47.68393" lon="-2.80368">
        <ele>42</ele>
        <time>2021-03-16T10:54:34+01:00</time>
      </trkpt>
      <trkpt lat="47.68395" lon="-2.80373">
        <ele>42</ele>
        <time>2021-03-16T10:54:35+01:00</time>
      </trkpt>
      <trkpt lat="47.68397" lon="-2.80377">
        <ele>42</ele>
        <time>2021-03-16T10:54:36+01:00</time>
      </trkpt>
      <trkpt lat="47.68399" lon="-2.80382">
        <ele>42</ele>
        <time>2021-03-16T10:54:37+01:00</time>
      </trkpt>
      <trkpt lat="47.68402" lon="-2.80387">
        <ele>42</ele>
        <time>2021-03-16T10:54:38+01:00</time>
      </trkpt>
      <trkpt lat="47.68406" lon="-2.80391">
        <ele>41</ele>
        <time>2021-03-16T10:54:39+01:00</time>
      </trkpt>
      <trkpt lat="47.68409" lon="-2.80396">
        <ele>41</ele>
        <time>2021-03-16T10:54:40+01:00</time>
      </trkpt>
      <trkpt lat="47.68413" lon="-2.80402">
        <ele>41</ele>
        <time>2021-03-16T10:54:41+01:00</time>
      </trkpt>
      <trkpt lat="47.68416" lon="-2.80407">
        <ele>41</ele>
        <time>2021-03-16T10:54:42+01:00</time>
      </trkpt>
      <trkpt lat="47.68419" lon="-2.80412">
        <ele>41</ele>
        <time>2021-03-16T10:54:43+01:00</time>
      </trkpt>
      <trkpt lat="47.68423" lon="-2.80418">
        <ele>41</ele>
        <time>2021-03-16T10:54:44+01:00</time>
      </trkpt>
      <trkpt lat="47.68426" lon="-2.80424">
        <ele>41</ele>
        <time>2021-03-16T10:54:45+01:00</time>
      </trkpt>
      <trkpt lat="47.68429" lon="-2.80429">
        <ele>41</ele>
        <time>2021-03-16T10:54:46+01:00</time>
      </trkpt>
      <trkpt lat="47.68431" lon="-2.80434">
        <ele>40</ele>
        <time>2021-03-16T10:54:47+01:00</time>
      </trkpt>
      <trkpt lat="47.68434" lon="-2.80437">
        <ele>40</ele>
        <time>2021-03-16T10:54:48+01:00</time>
      </trkpt>
      <trkpt lat="47.68437" lon="-2.80442">
        <ele>40</ele>
        <time>2021-03-16T10:54:50+01:00</time>
      </trkpt>
      <trkpt lat="47.6844" lon="-2.80444">
        <ele>40</ele>
        <time>2021-03-16T10:55:13+01:00</time>
      </trkpt>
      <trkpt lat="47.68442" lon="-2.80448">
        <ele>40</ele>
        <time>2021-03-16T10:55:16+01:00</time>
      </trkpt>
      <trkpt lat="47.68445" lon="-2.8045">
        <ele>40</ele>
        <time>2021-03-16T10:55:34+01:00</time>
      </trkpt>
      <trkpt lat="47.68448" lon="-2.80451">
        <ele>40</ele>
        <time>2021-03-16T10:56:41+01:00</time>
      </trkpt>
      <trkpt lat="47.68451" lon="-2.80453">
        <ele>40</ele>
        <time>2021-03-16T10:56:43+01:00</time>
      </trkpt>
      <trkpt lat="47.68452" lon="-2.80458">
        <ele>40</ele>
        <time>2021-03-16T10:56:45+01:00</time>
      </trkpt>
      <trkpt lat="47.68453" lon="-2.80462">
        <ele>40</ele>
        <time>2021-03-16T10:56:47+01:00</time>
      </trkpt>
      <trkpt lat="47.68455" lon="-2.80466">
        <ele>40</ele>
        <time>2021-03-16T10:56:49+01:00</time>
      </trkpt>
      <trkpt lat="47.68458" lon="-2.80468">
        <ele>40</ele>
        <time>2021-03-16T10:56:51+01:00</time>
      </trkpt>
      <trkpt lat="47.68461" lon="-2.80472">
        <ele>39</ele>
        <time>2021-03-16T10:56:53+01:00</time>
      </trkpt>
      <trkpt lat="47.68463" lon="-2.80476">
        <ele>39</ele>
        <time>2021-03-16T10:56:55+01:00</time>
      </trkpt>
      <trkpt lat="47.68466" lon="-2.80481">
        <ele>39</ele>
        <time>2021-03-16T10:56:57+01:00</time>
      </trkpt>
      <trkpt lat="47.6847" lon="-2.80485">
        <ele>39</ele>
        <time>2021-03-16T10:56:59+01:00</time>
      </trkpt>
      <trkpt lat="47.68473" lon="-2.80488">
        <ele>39</ele>
        <time>2021-03-16T10:57:00+01:00</time>
      </trkpt>
      <trkpt lat="47.68476" lon="-2.80492">
        <ele>39</ele>
        <time>2021-03-16T10:57:02+01:00</time>
      </trkpt>
      <trkpt lat="47.68479" lon="-2.80495">
        <ele>39</ele>
        <time>2021-03-16T10:57:03+01:00</time>
      </trkpt>
      <trkpt lat="47.68481" lon="-2.80498">
        <ele>39</ele>
        <time>2021-03-16T10:57:04+01:00</time>
      </trkpt>
      <trkpt lat="47.68484" lon="-2.80501">
        <ele>39</ele>
        <time>2021-03-16T10:57:05+01:00</time>
      </trkpt>
      <trkpt lat="47.68487" lon="-2.80505">
        <ele>39</ele>
        <time>2021-03-16T10:57:06+01:00</time>
      </trkpt>
      <trkpt lat="47.68489" lon="-2.80509">
        <ele>39</ele>
        <time>2021-03-16T10:57:07+01:00</time>
      </trkpt>
      <trkpt lat="47.6849" lon="-2.80513">
        <ele>39</ele>
        <time>2021-03-16T10:57:08+01:00</time>
      </trkpt>
      <trkpt lat="47.68492" lon="-2.80518">
        <ele>39</ele>
        <time>2021-03-16T10:57:09+01:00</time>
      </trkpt>
      <trkpt lat="47.68494" lon="-2.80522">
        <ele>38</ele>
        <time>2021-03-16T10:57:10+01:00</time>
      </trkpt>
      <trkpt lat="47.68495" lon="-2.80527">
        <ele>38</ele>
        <time>2021-03-16T10:57:11+01:00</time>
      </trkpt>
      <trkpt lat="47.68497" lon="-2.80531">
        <ele>38</ele>
        <time>2021-03-16T10:57:12+01:00</time>
      </trkpt>
      <trkpt lat="47.68498" lon="-2.80536">
        <ele>38</ele>
        <time>2021-03-16T10:57:13+01:00</time>
      </trkpt>
      <trkpt lat="47.68499" lon="-2.80542">
        <ele>38</ele>
        <time>2021-03-16T10:57:14+01:00</time>
      </trkpt>
      <trkpt lat="47.68499" lon="-2.80547">
        <ele>38</ele>
        <time>2021-03-16T10:57:15+01:00</time>
      </trkpt>
      <trkpt lat="47.685" lon="-2.80553">
        <ele>38</ele>
        <time>2021-03-16T10:57:16+01:00</time>
      </trkpt>
      <trkpt lat="47.68501" lon="-2.80558">
        <ele>38</ele>
        <time>2021-03-16T10:57:17+01:00</time>
      </trkpt>
      <trkpt lat="47.68501" lon="-2.80564">
        <ele>37</ele>
        <time>2021-03-16T10:57:18+01:00</time>
      </trkpt>
      <trkpt lat="47.68502" lon="-2.8057">
        <ele>37</ele>
        <time>2021-03-16T10:57:19+01:00</time>
      </trkpt>
      <trkpt lat="47.68502" lon="-2.80576">
        <ele>37</ele>
        <time>2021-03-16T10:57:20+01:00</time>
      </trkpt>
      <trkpt lat="47.68503" lon="-2.80582">
        <ele>37</ele>
        <time>2021-03-16T10:57:21+01:00</time>
      </trkpt>
      <trkpt lat="47.68503" lon="-2.80588">
        <ele>37</ele>
        <time>2021-03-16T10:57:22+01:00</time>
      </trkpt>
      <trkpt lat="47.68504" lon="-2.80594">
        <ele>37</ele>
        <time>2021-03-16T10:57:23+01:00</time>
      </trkpt>
      <trkpt lat="47.68504" lon="-2.806">
        <ele>37</ele>
        <time>2021-03-16T10:57:24+01:00</time>
      </trkpt>
      <trkpt lat="47.68505" lon="-2.80605">
        <ele>36</ele>
        <time>2021-03-16T10:57:25+01:00</time>
      </trkpt>
      <trkpt lat="47.68506" lon="-2.80611">
        <ele>36</ele>
        <time>2021-03-16T10:57:26+01:00</time>
      </trkpt>
      <trkpt lat="47.68506" lon="-2.80617">
        <ele>36</ele>
        <time>2021-03-16T10:57:27+01:00</time>
      </trkpt>
      <trkpt lat="47.68507" lon="-2.80624">
        <ele>36</ele>
        <time>2021-03-16T10:57:28+01:00</time>
      </trkpt>
      <trkpt lat="47.68507" lon="-2.80631">
        <ele>36</ele>
        <time>2021-03-16T10:57:29+01:00</time>
      </trkpt>
      <trkpt lat="47.68508" lon="-2.80639">
        <ele>36</ele>
        <time>2021-03-16T10:57:30+01:00</time>
      </trkpt>
      <trkpt lat="47.68509" lon="-2.80647">
        <ele>35</ele>
        <time>2021-03-16T10:57:31+01:00</time>
      </trkpt>
      <trkpt lat="47.6851" lon="-2.80655">
        <ele>35</ele>
        <time>2021-03-16T10:57:32+01:00</time>
      </trkpt>
      <trkpt lat="47.68511" lon="-2.80662">
        <ele>35</ele>
        <time>2021-03-16T10:57:33+01:00</time>
      </trkpt>
      <trkpt lat="47.68511" lon="-2.80669">
        <ele>35</ele>
        <time>2021-03-16T10:57:34+01:00</time>
      </trkpt>
      <trkpt lat="47.68512" lon="-2.80676">
        <ele>35</ele>
        <time>2021-03-16T10:57:35+01:00</time>
      </trkpt>
      <trkpt lat="47.68512" lon="-2.80682">
        <ele>35</ele>
        <time>2021-03-16T10:57:36+01:00</time>
      </trkpt>
      <trkpt lat="47.68512" lon="-2.80688">
        <ele>35</ele>
        <time>2021-03-16T10:57:37+01:00</time>
      </trkpt>
      <trkpt lat="47.68513" lon="-2.80694">
        <ele>35</ele>
        <time>2021-03-16T10:57:38+01:00</time>
      </trkpt>
      <trkpt lat="47.68513" lon="-2.80699">
        <ele>35</ele>
        <time>2021-03-16T10:57:39+01:00</time>
      </trkpt>
      <trkpt lat="47.68514" lon="-2.80705">
        <ele>35</ele>
        <time>2021-03-16T10:57:40+01:00</time>
      </trkpt>
      <trkpt lat="47.68514" lon="-2.80711">
        <ele>35</ele>
        <time>2021-03-16T10:57:41+01:00</time>
      </trkpt>
      <trkpt lat="47.68514" lon="-2.80717">
        <ele>35</ele>
        <time>2021-03-16T10:57:42+01:00</time>
      </trkpt>
      <trkpt lat="47.68514" lon="-2.80722">
        <ele>35</ele>
        <time>2021-03-16T10:57:43+01:00</time>
      </trkpt>
      <trkpt lat="47.68513" lon="-2.80728">
        <ele>35</ele>
        <time>2021-03-16T10:57:44+01:00</time>
      </trkpt>
      <trkpt lat="47.68513" lon="-2.80733">
        <ele>36</ele>
        <time>2021-03-16T10:57:45+01:00</time>
      </trkpt>
      <trkpt lat="47.68512" lon="-2.8074">
        <ele>36</ele>
        <time>2021-03-16T10:57:47+01:00</time>
      </trkpt>
      <trkpt lat="47.6851" lon="-2.80745">
        <ele>36</ele>
        <time>2021-03-16T10:57:49+01:00</time>
      </trkpt>
      <trkpt lat="47.6851" lon="-2.80751">
        <ele>36</ele>
        <time>2021-03-16T10:57:51+01:00</time>
      </trkpt>
      <trkpt lat="47.68508" lon="-2.80755">
        <ele>36</ele>
        <time>2021-03-16T10:57:53+01:00</time>
      </trkpt>
      <trkpt lat="47.68506" lon="-2.80759">
        <ele>36</ele>
        <time>2021-03-16T10:57:55+01:00</time>
      </trkpt>
      <trkpt lat="47.68505" lon="-2.80763">
        <ele>36</ele>
        <time>2021-03-16T10:58:04+01:00</time>
      </trkpt>
      <trkpt lat="47.68503" lon="-2.80769">
        <ele>36</ele>
        <time>2021-03-16T10:58:06+01:00</time>
      </trkpt>
      <trkpt lat="47.68502" lon="-2.80773">
        <ele>36</ele>
        <time>2021-03-16T10:58:07+01:00</time>
      </trkpt>
      <trkpt lat="47.68501" lon="-2.80778">
        <ele>36</ele>
        <time>2021-03-16T10:58:08+01:00</time>
      </trkpt>
      <trkpt lat="47.685" lon="-2.80782">
        <ele>36</ele>
        <time>2021-03-16T10:58:09+01:00</time>
      </trkpt>
      <trkpt lat="47.68499" lon="-2.80787">
        <ele>36</ele>
        <time>2021-03-16T10:58:10+01:00</time>
      </trkpt>
      <trkpt lat="47.68498" lon="-2.80792">
        <ele>36</ele>
        <time>2021-03-16T10:58:11+01:00</time>
      </trkpt>
      <trkpt lat="47.68497" lon="-2.80797">
        <ele>36</ele>
        <time>2021-03-16T10:58:12+01:00</time>
      </trkpt>
      <trkpt lat="47.68496" lon="-2.80802">
        <ele>36</ele>
        <time>2021-03-16T10:58:13+01:00</time>
      </trkpt>
      <trkpt lat="47.68495" lon="-2.80807">
        <ele>35</ele>
        <time>2021-03-16T10:58:14+01:00</time>
      </trkpt>
      <trkpt lat="47.68494" lon="-2.80812">
        <ele>35</ele>
        <time>2021-03-16T10:58:15+01:00</time>
      </trkpt>
      <trkpt lat="47.68494" lon="-2.80817">
        <ele>35</ele>
        <time>2021-03-16T10:58:16+01:00</time>
      </trkpt>
      <trkpt lat="47.68493" lon="-2.80822">
        <ele>35</ele>
        <time>2021-03-16T10:58:17+01:00</time>
      </trkpt>
      <trkpt lat="47.68492" lon="-2.80827">
        <ele>35</ele>
        <time>2021-03-16T10:58:18+01:00</time>
      </trkpt>
      <trkpt lat="47.68492" lon="-2.80832">
        <ele>35</ele>
        <time>2021-03-16T10:58:19+01:00</time>
      </trkpt>
      <trkpt lat="47.68491" lon="-2.80838">
        <ele>35</ele>
        <time>2021-03-16T10:58:20+01:00</time>
      </trkpt>
      <trkpt lat="47.68491" lon="-2.80844">
        <ele>35</ele>
        <time>2021-03-16T10:58:21+01:00</time>
      </trkpt>
      <trkpt lat="47.6849" lon="-2.8085">
        <ele>36</ele>
        <time>2021-03-16T10:58:22+01:00</time>
      </trkpt>
      <trkpt lat="47.68489" lon="-2.80856">
        <ele>36</ele>
        <time>2021-03-16T10:58:23+01:00</time>
      </trkpt>
      <trkpt lat="47.68488" lon="-2.80862">
        <ele>36</ele>
        <time>2021-03-16T10:58:24+01:00</time>
      </trkpt>
      <trkpt lat="47.68488" lon="-2.80867">
        <ele>36</ele>
        <time>2021-03-16T10:58:25+01:00</time>
      </trkpt>
      <trkpt lat="47.68487" lon="-2.80873">
        <ele>36</ele>
        <time>2021-03-16T10:58:26+01:00</time>
      </trkpt>
      <trkpt lat="47.68486" lon="-2.80879">
        <ele>36</ele>
        <time>2021-03-16T10:58:27+01:00</time>
      </trkpt>
      <trkpt lat="47.68485" lon="-2.80886">
        <ele>36</ele>
        <time>2021-03-16T10:58:28+01:00</time>
      </trkpt>
      <trkpt lat="47.68484" lon="-2.80892">
        <ele>36</ele>
        <time>2021-03-16T10:58:29+01:00</time>
      </trkpt>
      <trkpt lat="47.68483" lon="-2.80897">
        <ele>36</ele>
        <time>2021-03-16T10:58:30+01:00</time>
      </trkpt>
      <trkpt lat="47.68482" lon="-2.80903">
        <ele>37</ele>
        <time>2021-03-16T10:58:31+01:00</time>
      </trkpt>
      <trkpt lat="47.68482" lon="-2.80908">
        <ele>37</ele>
        <time>2021-03-16T10:58:32+01:00</time>
      </trkpt>
      <trkpt lat="47.6848" lon="-2.80913">
        <ele>37</ele>
        <time>2021-03-16T10:58:33+01:00</time>
      </trkpt>
      <trkpt lat="47.68479" lon="-2.80918">
        <ele>37</ele>
        <time>2021-03-16T10:58:34+01:00</time>
      </trkpt>
      <trkpt lat="47.68479" lon="-2.80923">
        <ele>37</ele>
        <time>2021-03-16T10:58:35+01:00</time>
      </trkpt>
      <trkpt lat="47.68478" lon="-2.80928">
        <ele>37</ele>
        <time>2021-03-16T10:58:36+01:00</time>
      </trkpt>
      <trkpt lat="47.68477" lon="-2.80932">
        <ele>37</ele>
        <time>2021-03-16T10:58:37+01:00</time>
      </trkpt>
      <trkpt lat="47.68475" lon="-2.80937">
        <ele>37</ele>
        <time>2021-03-16T10:58:39+01:00</time>
      </trkpt>
      <trkpt lat="47.68474" lon="-2.80942">
        <ele>37</ele>
        <time>2021-03-16T10:59:28+01:00</time>
      </trkpt>
      <trkpt lat="47.68474" lon="-2.80949">
        <ele>37</ele>
        <time>2021-03-16T10:59:30+01:00</time>
      </trkpt>
      <trkpt lat="47.68474" lon="-2.80954">
        <ele>37</ele>
        <time>2021-03-16T10:59:31+01:00</time>
      </trkpt>
      <trkpt lat="47.68475" lon="-2.80958">
        <ele>37</ele>
        <time>2021-03-16T10:59:32+01:00</time>
      </trkpt>
      <trkpt lat="47.68476" lon="-2.80963">
        <ele>37</ele>
        <time>2021-03-16T10:59:34+01:00</time>
      </trkpt>
      <trkpt lat="47.68475" lon="-2.80968">
        <ele>37</ele>
        <time>2021-03-16T10:59:37+01:00</time>
      </trkpt>
      <trkpt lat="47.68476" lon="-2.80973">
        <ele>36</ele>
        <time>2021-03-16T10:59:39+01:00</time>
      </trkpt>
      <trkpt lat="47.68477" lon="-2.80977">
        <ele>36</ele>
        <time>2021-03-16T10:59:40+01:00</time>
      </trkpt>
      <trkpt lat="47.68479" lon="-2.80981">
        <ele>36</ele>
        <time>2021-03-16T10:59:41+01:00</time>
      </trkpt>
      <trkpt lat="47.6848" lon="-2.80985">
        <ele>36</ele>
        <time>2021-03-16T10:59:42+01:00</time>
      </trkpt>
      <trkpt lat="47.68482" lon="-2.8099">
        <ele>36</ele>
        <time>2021-03-16T10:59:43+01:00</time>
      </trkpt>
      <trkpt lat="47.68483" lon="-2.80995">
        <ele>36</ele>
        <time>2021-03-16T10:59:44+01:00</time>
      </trkpt>
      <trkpt lat="47.68484" lon="-2.81">
        <ele>35</ele>
        <time>2021-03-16T10:59:45+01:00</time>
      </trkpt>
      <trkpt lat="47.68485" lon="-2.81005">
        <ele>35</ele>
        <time>2021-03-16T10:59:46+01:00</time>
      </trkpt>
      <trkpt lat="47.68485" lon="-2.8101">
        <ele>35</ele>
        <time>2021-03-16T10:59:47+01:00</time>
      </trkpt>
      <trkpt lat="47.68485" lon="-2.81014">
        <ele>35</ele>
        <time>2021-03-16T10:59:48+01:00</time>
      </trkpt>
      <trkpt lat="47.68484" lon="-2.81019">
        <ele>35</ele>
        <time>2021-03-16T10:59:49+01:00</time>
      </trkpt>
      <trkpt lat="47.68482" lon="-2.81023">
        <ele>35</ele>
        <time>2021-03-16T10:59:50+01:00</time>
      </trkpt>
      <trkpt lat="47.6848" lon="-2.81027">
        <ele>36</ele>
        <time>2021-03-16T10:59:51+01:00</time>
      </trkpt>
      <trkpt lat="47.68478" lon="-2.81031">
        <ele>36</ele>
        <time>2021-03-16T10:59:52+01:00</time>
      </trkpt>
      <trkpt lat="47.68476" lon="-2.81035">
        <ele>36</ele>
        <time>2021-03-16T10:59:53+01:00</time>
      </trkpt>
      <trkpt lat="47.68473" lon="-2.81039">
        <ele>36</ele>
        <time>2021-03-16T10:59:54+01:00</time>
      </trkpt>
      <trkpt lat="47.6847" lon="-2.81042">
        <ele>36</ele>
        <time>2021-03-16T10:59:55+01:00</time>
      </trkpt>
      <trkpt lat="47.68467" lon="-2.81044">
        <ele>36</ele>
        <time>2021-03-16T10:59:56+01:00</time>
      </trkpt>
      <trkpt lat="47.68463" lon="-2.81046">
        <ele>36</ele>
        <time>2021-03-16T10:59:57+01:00</time>
      </trkpt>
      <trkpt lat="47.6846" lon="-2.81048">
        <ele>37</ele>
        <time>2021-03-16T10:59:58+01:00</time>
      </trkpt>
      <trkpt lat="47.68456" lon="-2.8105">
        <ele>37</ele>
        <time>2021-03-16T10:59:59+01:00</time>
      </trkpt>
      <trkpt lat="47.68453" lon="-2.81051">
        <ele>37</ele>
        <time>2021-03-16T11:00:00+01:00</time>
      </trkpt>
      <trkpt lat="47.68449" lon="-2.81053">
        <ele>37</ele>
        <time>2021-03-16T11:00:01+01:00</time>
      </trkpt>
      <trkpt lat="47.68446" lon="-2.81055">
        <ele>37</ele>
        <time>2021-03-16T11:00:02+01:00</time>
      </trkpt>
      <trkpt lat="47.68443" lon="-2.81057">
        <ele>37</ele>
        <time>2021-03-16T11:00:03+01:00</time>
      </trkpt>
      <trkpt lat="47.68441" lon="-2.81062">
        <ele>37</ele>
        <time>2021-03-16T11:00:05+01:00</time>
      </trkpt>
      <trkpt lat="47.68441" lon="-2.81066">
        <ele>37</ele>
        <time>2021-03-16T11:00:06+01:00</time>
      </trkpt>
      <trkpt lat="47.68442" lon="-2.81071">
        <ele>37</ele>
        <time>2021-03-16T11:00:07+01:00</time>
      </trkpt>
      <trkpt lat="47.68444" lon="-2.81074">
        <ele>37</ele>
        <time>2021-03-16T11:00:08+01:00</time>
      </trkpt>
      <trkpt lat="47.68446" lon="-2.81079">
        <ele>36</ele>
        <time>2021-03-16T11:00:10+01:00</time>
      </trkpt>
      <trkpt lat="47.68448" lon="-2.81085">
        <ele>36</ele>
        <time>2021-03-16T11:00:12+01:00</time>
      </trkpt>
      <trkpt lat="47.6845" lon="-2.81091">
        <ele>36</ele>
        <time>2021-03-16T11:00:14+01:00</time>
      </trkpt>
      <trkpt lat="47.68451" lon="-2.81099">
        <ele>37</ele>
        <time>2021-03-16T11:00:16+01:00</time>
      </trkpt>
      <trkpt lat="47.68452" lon="-2.81104">
        <ele>37</ele>
        <time>2021-03-16T11:00:17+01:00</time>
      </trkpt>
      <trkpt lat="47.68453" lon="-2.81111">
        <ele>37</ele>
        <time>2021-03-16T11:00:19+01:00</time>
      </trkpt>
      <trkpt lat="47.68453" lon="-2.81118">
        <ele>37</ele>
        <time>2021-03-16T11:00:21+01:00</time>
      </trkpt>
      <trkpt lat="47.68454" lon="-2.81126">
        <ele>38</ele>
        <time>2021-03-16T11:00:23+01:00</time>
      </trkpt>
      <trkpt lat="47.68455" lon="-2.81132">
        <ele>38</ele>
        <time>2021-03-16T11:00:24+01:00</time>
      </trkpt>
      <trkpt lat="47.68456" lon="-2.81137">
        <ele>38</ele>
        <time>2021-03-16T11:00:25+01:00</time>
      </trkpt>
      <trkpt lat="47.68457" lon="-2.81141">
        <ele>38</ele>
        <time>2021-03-16T11:00:26+01:00</time>
      </trkpt>
      <trkpt lat="47.68457" lon="-2.81146">
        <ele>38</ele>
        <time>2021-03-16T11:00:27+01:00</time>
      </trkpt>
      <trkpt lat="47.68457" lon="-2.81152">
        <ele>38</ele>
        <time>2021-03-16T11:00:29+01:00</time>
      </trkpt>
      <trkpt lat="47.68458" lon="-2.81159">
        <ele>39</ele>
        <time>2021-03-16T11:00:31+01:00</time>
      </trkpt>
      <trkpt lat="47.68458" lon="-2.81166">
        <ele>39</ele>
        <time>2021-03-16T11:00:33+01:00</time>
      </trkpt>
      <trkpt lat="47.68458" lon="-2.81172">
        <ele>39</ele>
        <time>2021-03-16T11:00:35+01:00</time>
      </trkpt>
      <trkpt lat="47.68457" lon="-2.81177">
        <ele>39</ele>
        <time>2021-03-16T11:00:37+01:00</time>
      </trkpt>
      <trkpt lat="47.68454" lon="-2.81181">
        <ele>39</ele>
        <time>2021-03-16T11:00:40+01:00</time>
      </trkpt>
      <trkpt lat="47.68451" lon="-2.81185">
        <ele>39</ele>
        <time>2021-03-16T11:00:42+01:00</time>
      </trkpt>
      <trkpt lat="47.68446" lon="-2.81187">
        <ele>39</ele>
        <time>2021-03-16T11:00:44+01:00</time>
      </trkpt>
      <trkpt lat="47.68442" lon="-2.81188">
        <ele>39</ele>
        <time>2021-03-16T11:00:46+01:00</time>
      </trkpt>
      <trkpt lat="47.68439" lon="-2.81188">
        <ele>39</ele>
        <time>2021-03-16T11:00:48+01:00</time>
      </trkpt>
      <trkpt lat="47.68436" lon="-2.8119">
        <ele>39</ele>
        <time>2021-03-16T11:01:28+01:00</time>
      </trkpt>
      <trkpt lat="47.68434" lon="-2.81192">
        <ele>39</ele>
        <time>2021-03-16T11:01:31+01:00</time>
      </trkpt>
      <trkpt lat="47.68432" lon="-2.81195">
        <ele>39</ele>
        <time>2021-03-16T11:01:34+01:00</time>
      </trkpt>
      <trkpt lat="47.68432" lon="-2.812">
        <ele>39</ele>
        <time>2021-03-16T11:01:37+01:00</time>
      </trkpt>
      <trkpt lat="47.68432" lon="-2.81205">
        <ele>40</ele>
        <time>2021-03-16T11:01:39+01:00</time>
      </trkpt>
      <trkpt lat="47.68433" lon="-2.81211">
        <ele>40</ele>
        <time>2021-03-16T11:01:41+01:00</time>
      </trkpt>
      <trkpt lat="47.68433" lon="-2.81216">
        <ele>40</ele>
        <time>2021-03-16T11:01:42+01:00</time>
      </trkpt>
      <trkpt lat="47.68434" lon="-2.81221">
        <ele>40</ele>
        <time>2021-03-16T11:01:43+01:00</time>
      </trkpt>
      <trkpt lat="47.68434" lon="-2.81226">
        <ele>40</ele>
        <time>2021-03-16T11:01:44+01:00</time>
      </trkpt>
      <trkpt lat="47.68435" lon="-2.81231">
        <ele>40</ele>
        <time>2021-03-16T11:01:45+01:00</time>
      </trkpt>
      <trkpt lat="47.68435" lon="-2.81236">
        <ele>40</ele>
        <time>2021-03-16T11:01:46+01:00</time>
      </trkpt>
      <trkpt lat="47.68435" lon="-2.81241">
        <ele>40</ele>
        <time>2021-03-16T11:01:47+01:00</time>
      </trkpt>
      <trkpt lat="47.68435" lon="-2.81246">
        <ele>40</ele>
        <time>2021-03-16T11:01:48+01:00</time>
      </trkpt>
      <trkpt lat="47.68435" lon="-2.81251">
        <ele>40</ele>
        <time>2021-03-16T11:01:49+01:00</time>
      </trkpt>
      <trkpt lat="47.68436" lon="-2.81256">
        <ele>40</ele>
        <time>2021-03-16T11:01:50+01:00</time>
      </trkpt>
      <trkpt lat="47.68436" lon="-2.81261">
        <ele>40</ele>
        <time>2021-03-16T11:01:51+01:00</time>
      </trkpt>
      <trkpt lat="47.68436" lon="-2.81266">
        <ele>40</ele>
        <time>2021-03-16T11:01:52+01:00</time>
      </trkpt>
      <trkpt lat="47.68436" lon="-2.81271">
        <ele>40</ele>
        <time>2021-03-16T11:01:53+01:00</time>
      </trkpt>
      <trkpt lat="47.68436" lon="-2.81275">
        <ele>40</ele>
        <time>2021-03-16T11:01:54+01:00</time>
      </trkpt>
      <trkpt lat="47.68436" lon="-2.8128">
        <ele>40</ele>
        <time>2021-03-16T11:01:55+01:00</time>
      </trkpt>
      <trkpt lat="47.68436" lon="-2.81285">
        <ele>40</ele>
        <time>2021-03-16T11:01:56+01:00</time>
      </trkpt>
      <trkpt lat="47.68436" lon="-2.8129">
        <ele>40</ele>
        <time>2021-03-16T11:01:57+01:00</time>
      </trkpt>
      <trkpt lat="47.68435" lon="-2.81295">
        <ele>40</ele>
        <time>2021-03-16T11:01:58+01:00</time>
      </trkpt>
      <trkpt lat="47.68435" lon="-2.813">
        <ele>40</ele>
        <time>2021-03-16T11:01:59+01:00</time>
      </trkpt>
      <trkpt lat="47.68435" lon="-2.81305">
        <ele>41</ele>
        <time>2021-03-16T11:02:00+01:00</time>
      </trkpt>
      <trkpt lat="47.68434" lon="-2.81309">
        <ele>41</ele>
        <time>2021-03-16T11:02:01+01:00</time>
      </trkpt>
      <trkpt lat="47.68434" lon="-2.81314">
        <ele>41</ele>
        <time>2021-03-16T11:02:02+01:00</time>
      </trkpt>
      <trkpt lat="47.68433" lon="-2.81318">
        <ele>41</ele>
        <time>2021-03-16T11:02:03+01:00</time>
      </trkpt>
      <trkpt lat="47.68432" lon="-2.81322">
        <ele>41</ele>
        <time>2021-03-16T11:02:04+01:00</time>
      </trkpt>
      <trkpt lat="47.68429" lon="-2.81325">
        <ele>40</ele>
        <time>2021-03-16T11:02:05+01:00</time>
      </trkpt>
      <trkpt lat="47.68425" lon="-2.81327">
        <ele>40</ele>
        <time>2021-03-16T11:02:06+01:00</time>
      </trkpt>
      <trkpt lat="47.68421" lon="-2.81329">
        <ele>40</ele>
        <time>2021-03-16T11:02:07+01:00</time>
      </trkpt>
      <trkpt lat="47.68418" lon="-2.81333">
        <ele>40</ele>
        <time>2021-03-16T11:02:08+01:00</time>
      </trkpt>
      <trkpt lat="47.68416" lon="-2.81338">
        <ele>40</ele>
        <time>2021-03-16T11:02:09+01:00</time>
      </trkpt>
      <trkpt lat="47.68416" lon="-2.81344">
        <ele>40</ele>
        <time>2021-03-16T11:02:10+01:00</time>
      </trkpt>
      <trkpt lat="47.68416" lon="-2.81351">
        <ele>40</ele>
        <time>2021-03-16T11:02:11+01:00</time>
      </trkpt>
      <trkpt lat="47.68418" lon="-2.81357">
        <ele>40</ele>
        <time>2021-03-16T11:02:12+01:00</time>
      </trkpt>
      <trkpt lat="47.68419" lon="-2.81364">
        <ele>40</ele>
        <time>2021-03-16T11:02:13+01:00</time>
      </trkpt>
      <trkpt lat="47.6842" lon="-2.8137">
        <ele>40</ele>
        <time>2021-03-16T11:02:14+01:00</time>
      </trkpt>
      <trkpt lat="47.68422" lon="-2.81376">
        <ele>40</ele>
        <time>2021-03-16T11:02:15+01:00</time>
      </trkpt>
      <trkpt lat="47.68423" lon="-2.81381">
        <ele>40</ele>
        <time>2021-03-16T11:02:16+01:00</time>
      </trkpt>
      <trkpt lat="47.68424" lon="-2.81386">
        <ele>40</ele>
        <time>2021-03-16T11:02:17+01:00</time>
      </trkpt>
      <trkpt lat="47.68425" lon="-2.81391">
        <ele>39</ele>
        <time>2021-03-16T11:02:18+01:00</time>
      </trkpt>
      <trkpt lat="47.68427" lon="-2.81396">
        <ele>39</ele>
        <time>2021-03-16T11:02:19+01:00</time>
      </trkpt>
      <trkpt lat="47.68428" lon="-2.81401">
        <ele>39</ele>
        <time>2021-03-16T11:02:20+01:00</time>
      </trkpt>
      <trkpt lat="47.68429" lon="-2.81406">
        <ele>39</ele>
        <time>2021-03-16T11:02:21+01:00</time>
      </trkpt>
      <trkpt lat="47.6843" lon="-2.81411">
        <ele>39</ele>
        <time>2021-03-16T11:02:22+01:00</time>
      </trkpt>
      <trkpt lat="47.68432" lon="-2.81416">
        <ele>39</ele>
        <time>2021-03-16T11:02:23+01:00</time>
      </trkpt>
      <trkpt lat="47.68433" lon="-2.81421">
        <ele>39</ele>
        <time>2021-03-16T11:02:24+01:00</time>
      </trkpt>
      <trkpt lat="47.68434" lon="-2.81425">
        <ele>39</ele>
        <time>2021-03-16T11:02:25+01:00</time>
      </trkpt>
      <trkpt lat="47.68435" lon="-2.8143">
        <ele>39</ele>
        <time>2021-03-16T11:02:26+01:00</time>
      </trkpt>
      <trkpt lat="47.68436" lon="-2.81435">
        <ele>39</ele>
        <time>2021-03-16T11:02:27+01:00</time>
      </trkpt>
      <trkpt lat="47.68438" lon="-2.81439">
        <ele>39</ele>
        <time>2021-03-16T11:02:28+01:00</time>
      </trkpt>
      <trkpt lat="47.68439" lon="-2.81444">
        <ele>39</ele>
        <time>2021-03-16T11:02:29+01:00</time>
      </trkpt>
      <trkpt lat="47.68441" lon="-2.81448">
        <ele>39</ele>
        <time>2021-03-16T11:02:30+01:00</time>
      </trkpt>
      <trkpt lat="47.68442" lon="-2.81453">
        <ele>39</ele>
        <time>2021-03-16T11:02:31+01:00</time>
      </trkpt>
      <trkpt lat="47.68443" lon="-2.81457">
        <ele>39</ele>
        <time>2021-03-16T11:02:32+01:00</time>
      </trkpt>
      <trkpt lat="47.68445" lon="-2.81462">
        <ele>39</ele>
        <time>2021-03-16T11:02:33+01:00</time>
      </trkpt>
      <trkpt lat="47.68446" lon="-2.81466">
        <ele>39</ele>
        <time>2021-03-16T11:02:34+01:00</time>
      </trkpt>
      <trkpt lat="47.68447" lon="-2.81471">
        <ele>39</ele>
        <time>2021-03-16T11:02:35+01:00</time>
      </trkpt>
      <trkpt lat="47.68448" lon="-2.81475">
        <ele>39</ele>
        <time>2021-03-16T11:02:36+01:00</time>
      </trkpt>
      <trkpt lat="47.68449" lon="-2.81479">
        <ele>39</ele>
        <time>2021-03-16T11:02:37+01:00</time>
      </trkpt>
      <trkpt lat="47.6845" lon="-2.81484">
        <ele>39</ele>
        <time>2021-03-16T11:02:38+01:00</time>
      </trkpt>
      <trkpt lat="47.68451" lon="-2.81488">
        <ele>39</ele>
        <time>2021-03-16T11:02:39+01:00</time>
      </trkpt>
      <trkpt lat="47.68452" lon="-2.81492">
        <ele>39</ele>
        <time>2021-03-16T11:02:40+01:00</time>
      </trkpt>
      <trkpt lat="47.68453" lon="-2.81496">
        <ele>39</ele>
        <time>2021-03-16T11:02:41+01:00</time>
      </trkpt>
      <trkpt lat="47.68454" lon="-2.815">
        <ele>39</ele>
        <time>2021-03-16T11:02:42+01:00</time>
      </trkpt>
      <trkpt lat="47.68456" lon="-2.81506">
        <ele>39</ele>
        <time>2021-03-16T11:02:44+01:00</time>
      </trkpt>
      <trkpt lat="47.68457" lon="-2.81512">
        <ele>39</ele>
        <time>2021-03-16T11:02:46+01:00</time>
      </trkpt>
      <trkpt lat="47.68459" lon="-2.81517">
        <ele>39</ele>
        <time>2021-03-16T11:02:48+01:00</time>
      </trkpt>
      <trkpt lat="47.68461" lon="-2.81521">
        <ele>38</ele>
        <time>2021-03-16T11:02:51+01:00</time>
      </trkpt>
      <trkpt lat="47.68464" lon="-2.81524">
        <ele>38</ele>
        <time>2021-03-16T11:02:53+01:00</time>
      </trkpt>
      <trkpt lat="47.68466" lon="-2.81529">
        <ele>38</ele>
        <time>2021-03-16T11:02:55+01:00</time>
      </trkpt>
      <trkpt lat="47.68467" lon="-2.81533">
        <ele>38</ele>
        <time>2021-03-16T11:02:57+01:00</time>
      </trkpt>
      <trkpt lat="47.6847" lon="-2.81536">
        <ele>38</ele>
        <time>2021-03-16T11:03:00+01:00</time>
      </trkpt>
      <trkpt lat="47.6847" lon="-2.81539">
        <ele>38</ele>
        <time>2021-03-16T11:03:03+01:00</time>
      </trkpt>
      <trkpt lat="47.68468" lon="-2.81542">
        <ele>38</ele>
        <time>2021-03-16T11:03:04+01:00</time>
      </trkpt>
      <trkpt lat="47.68466" lon="-2.81545">
        <ele>38</ele>
        <time>2021-03-16T11:03:05+01:00</time>
      </trkpt>
      <trkpt lat="47.68464" lon="-2.81548">
        <ele>38</ele>
        <time>2021-03-16T11:03:06+01:00</time>
      </trkpt>
      <trkpt lat="47.68461" lon="-2.81551">
        <ele>38</ele>
        <time>2021-03-16T11:03:07+01:00</time>
      </trkpt>
      <trkpt lat="47.68459" lon="-2.81555">
        <ele>38</ele>
        <time>2021-03-16T11:03:08+01:00</time>
      </trkpt>
      <trkpt lat="47.68457" lon="-2.81558">
        <ele>38</ele>
        <time>2021-03-16T11:03:09+01:00</time>
      </trkpt>
      <trkpt lat="47.68453" lon="-2.81562">
        <ele>38</ele>
        <time>2021-03-16T11:03:10+01:00</time>
      </trkpt>
      <trkpt lat="47.6845" lon="-2.81566">
        <ele>38</ele>
        <time>2021-03-16T11:03:11+01:00</time>
      </trkpt>
      <trkpt lat="47.68447" lon="-2.8157">
        <ele>38</ele>
        <time>2021-03-16T11:03:12+01:00</time>
      </trkpt>
      <trkpt lat="47.68443" lon="-2.81574">
        <ele>38</ele>
        <time>2021-03-16T11:03:13+01:00</time>
      </trkpt>
      <trkpt lat="47.68439" lon="-2.81577">
        <ele>38</ele>
        <time>2021-03-16T11:03:14+01:00</time>
      </trkpt>
      <trkpt lat="47.68436" lon="-2.81581">
        <ele>38</ele>
        <time>2021-03-16T11:03:15+01:00</time>
      </trkpt>
      <trkpt lat="47.68432" lon="-2.81585">
        <ele>38</ele>
        <time>2021-03-16T11:03:16+01:00</time>
      </trkpt>
      <trkpt lat="47.68427" lon="-2.81589">
        <ele>38</ele>
        <time>2021-03-16T11:03:17+01:00</time>
      </trkpt>
      <trkpt lat="47.68423" lon="-2.81593">
        <ele>38</ele>
        <time>2021-03-16T11:03:18+01:00</time>
      </trkpt>
      <trkpt lat="47.68419" lon="-2.81598">
        <ele>37</ele>
        <time>2021-03-16T11:03:19+01:00</time>
      </trkpt>
      <trkpt lat="47.68414" lon="-2.81602">
        <ele>37</ele>
        <time>2021-03-16T11:03:20+01:00</time>
      </trkpt>
      <trkpt lat="47.6841" lon="-2.81607">
        <ele>37</ele>
        <time>2021-03-16T11:03:21+01:00</time>
      </trkpt>
      <trkpt lat="47.68406" lon="-2.81611">
        <ele>37</ele>
        <time>2021-03-16T11:03:22+01:00</time>
      </trkpt>
      <trkpt lat="47.68402" lon="-2.81615">
        <ele>37</ele>
        <time>2021-03-16T11:03:23+01:00</time>
      </trkpt>
      <trkpt lat="47.68398" lon="-2.8162">
        <ele>37</ele>
        <time>2021-03-16T11:03:24+01:00</time>
      </trkpt>
      <trkpt lat="47.68393" lon="-2.81624">
        <ele>37</ele>
        <time>2021-03-16T11:03:25+01:00</time>
      </trkpt>
      <trkpt lat="47.68389" lon="-2.81629">
        <ele>37</ele>
        <time>2021-03-16T11:03:26+01:00</time>
      </trkpt>
      <trkpt lat="47.68385" lon="-2.81633">
        <ele>37</ele>
        <time>2021-03-16T11:03:27+01:00</time>
      </trkpt>
      <trkpt lat="47.68381" lon="-2.81638">
        <ele>36</ele>
        <time>2021-03-16T11:03:28+01:00</time>
      </trkpt>
      <trkpt lat="47.68377" lon="-2.81642">
        <ele>36</ele>
        <time>2021-03-16T11:03:29+01:00</time>
      </trkpt>
      <trkpt lat="47.68373" lon="-2.81646">
        <ele>36</ele>
        <time>2021-03-16T11:03:30+01:00</time>
      </trkpt>
      <trkpt lat="47.68369" lon="-2.81649">
        <ele>36</ele>
        <time>2021-03-16T11:03:31+01:00</time>
      </trkpt>
      <trkpt lat="47.68366" lon="-2.81653">
        <ele>36</ele>
        <time>2021-03-16T11:03:32+01:00</time>
      </trkpt>
      <trkpt lat="47.68362" lon="-2.81656">
        <ele>36</ele>
        <time>2021-03-16T11:03:33+01:00</time>
      </trkpt>
      <trkpt lat="47.68359" lon="-2.81659">
        <ele>36</ele>
        <time>2021-03-16T11:03:34+01:00</time>
      </trkpt>
      <trkpt lat="47.68356" lon="-2.81663">
        <ele>36</ele>
        <time>2021-03-16T11:03:35+01:00</time>
      </trkpt>
      <trkpt lat="47.68354" lon="-2.81668">
        <ele>36</ele>
        <time>2021-03-16T11:03:36+01:00</time>
      </trkpt>
      <trkpt lat="47.68354" lon="-2.81674">
        <ele>36</ele>
        <time>2021-03-16T11:03:37+01:00</time>
      </trkpt>
      <trkpt lat="47.68355" lon="-2.81682">
        <ele>36</ele>
        <time>2021-03-16T11:03:38+01:00</time>
      </trkpt>
      <trkpt lat="47.68356" lon="-2.8169">
        <ele>36</ele>
        <time>2021-03-16T11:03:39+01:00</time>
      </trkpt>
      <trkpt lat="47.68358" lon="-2.81698">
        <ele>36</ele>
        <time>2021-03-16T11:03:40+01:00</time>
      </trkpt>
      <trkpt lat="47.68359" lon="-2.81707">
        <ele>36</ele>
        <time>2021-03-16T11:03:41+01:00</time>
      </trkpt>
      <trkpt lat="47.6836" lon="-2.81716">
        <ele>36</ele>
        <time>2021-03-16T11:03:42+01:00</time>
      </trkpt>
      <trkpt lat="47.68361" lon="-2.81725">
        <ele>36</ele>
        <time>2021-03-16T11:03:43+01:00</time>
      </trkpt>
      <trkpt lat="47.68362" lon="-2.81733">
        <ele>36</ele>
        <time>2021-03-16T11:03:44+01:00</time>
      </trkpt>
      <trkpt lat="47.68362" lon="-2.8174">
        <ele>36</ele>
        <time>2021-03-16T11:03:45+01:00</time>
      </trkpt>
      <trkpt lat="47.68363" lon="-2.81745">
        <ele>36</ele>
        <time>2021-03-16T11:03:46+01:00</time>
      </trkpt>
      <trkpt lat="47.68363" lon="-2.8175">
        <ele>36</ele>
        <time>2021-03-16T11:03:47+01:00</time>
      </trkpt>
      <trkpt lat="47.68363" lon="-2.81755">
        <ele>36</ele>
        <time>2021-03-16T11:03:48+01:00</time>
      </trkpt>
      <trkpt lat="47.68364" lon="-2.8176">
        <ele>35</ele>
        <time>2021-03-16T11:03:50+01:00</time>
      </trkpt>
      <trkpt lat="47.68365" lon="-2.81765">
        <ele>35</ele>
        <time>2021-03-16T11:03:52+01:00</time>
      </trkpt>
      <trkpt lat="47.68365" lon="-2.81769">
        <ele>35</ele>
        <time>2021-03-16T11:03:56+01:00</time>
      </trkpt>
      <trkpt lat="47.68365" lon="-2.81774">
        <ele>35</ele>
        <time>2021-03-16T11:05:27+01:00</time>
      </trkpt>
      <trkpt lat="47.68366" lon="-2.81778">
        <ele>35</ele>
        <time>2021-03-16T11:05:29+01:00</time>
      </trkpt>
      <trkpt lat="47.68367" lon="-2.81784">
        <ele>35</ele>
        <time>2021-03-16T11:05:31+01:00</time>
      </trkpt>
      <trkpt lat="47.6837" lon="-2.81789">
        <ele>35</ele>
        <time>2021-03-16T11:05:33+01:00</time>
      </trkpt>
      <trkpt lat="47.68374" lon="-2.81793">
        <ele>34</ele>
        <time>2021-03-16T11:05:35+01:00</time>
      </trkpt>
      <trkpt lat="47.68379" lon="-2.81796">
        <ele>34</ele>
        <time>2021-03-16T11:05:37+01:00</time>
      </trkpt>
      <trkpt lat="47.68384" lon="-2.81798">
        <ele>34</ele>
        <time>2021-03-16T11:05:39+01:00</time>
      </trkpt>
      <trkpt lat="47.68389" lon="-2.818">
        <ele>34</ele>
        <time>2021-03-16T11:05:41+01:00</time>
      </trkpt>
      <trkpt lat="47.68393" lon="-2.81801">
        <ele>34</ele>
        <time>2021-03-16T11:05:43+01:00</time>
      </trkpt>
      <trkpt lat="47.68398" lon="-2.81803">
        <ele>34</ele>
        <time>2021-03-16T11:05:45+01:00</time>
      </trkpt>
      <trkpt lat="47.68403" lon="-2.81807">
        <ele>34</ele>
        <time>2021-03-16T11:05:47+01:00</time>
      </trkpt>
      <trkpt lat="47.68406" lon="-2.8181">
        <ele>34</ele>
        <time>2021-03-16T11:05:48+01:00</time>
      </trkpt>
      <trkpt lat="47.68409" lon="-2.81812">
        <ele>34</ele>
        <time>2021-03-16T11:05:49+01:00</time>
      </trkpt>
      <trkpt lat="47.68413" lon="-2.81815">
        <ele>33</ele>
        <time>2021-03-16T11:05:50+01:00</time>
      </trkpt>
      <trkpt lat="47.68417" lon="-2.81817">
        <ele>33</ele>
        <time>2021-03-16T11:05:51+01:00</time>
      </trkpt>
      <trkpt lat="47.68421" lon="-2.81819">
        <ele>33</ele>
        <time>2021-03-16T11:05:52+01:00</time>
      </trkpt>
      <trkpt lat="47.68425" lon="-2.81821">
        <ele>33</ele>
        <time>2021-03-16T11:05:53+01:00</time>
      </trkpt>
      <trkpt lat="47.68429" lon="-2.81823">
        <ele>33</ele>
        <time>2021-03-16T11:05:54+01:00</time>
      </trkpt>
      <trkpt lat="47.68433" lon="-2.81824">
        <ele>33</ele>
        <time>2021-03-16T11:05:55+01:00</time>
      </trkpt>
      <trkpt lat="47.68438" lon="-2.81826">
        <ele>33</ele>
        <time>2021-03-16T11:05:56+01:00</time>
      </trkpt>
      <trkpt lat="47.68442" lon="-2.81828">
        <ele>33</ele>
        <time>2021-03-16T11:05:57+01:00</time>
      </trkpt>
      <trkpt lat="47.68446" lon="-2.8183">
        <ele>33</ele>
        <time>2021-03-16T11:05:58+01:00</time>
      </trkpt>
      <trkpt lat="47.68451" lon="-2.81832">
        <ele>33</ele>
        <time>2021-03-16T11:05:59+01:00</time>
      </trkpt>
      <trkpt lat="47.68455" lon="-2.81834">
        <ele>33</ele>
        <time>2021-03-16T11:06:00+01:00</time>
      </trkpt>
      <trkpt lat="47.6846" lon="-2.81837">
        <ele>33</ele>
        <time>2021-03-16T11:06:01+01:00</time>
      </trkpt>
      <trkpt lat="47.68464" lon="-2.8184">
        <ele>33</ele>
        <time>2021-03-16T11:06:02+01:00</time>
      </trkpt>
      <trkpt lat="47.68468" lon="-2.81844">
        <ele>33</ele>
        <time>2021-03-16T11:06:03+01:00</time>
      </trkpt>
      <trkpt lat="47.68472" lon="-2.81848">
        <ele>33</ele>
        <time>2021-03-16T11:06:04+01:00</time>
      </trkpt>
      <trkpt lat="47.68476" lon="-2.81851">
        <ele>33</ele>
        <time>2021-03-16T11:06:05+01:00</time>
      </trkpt>
      <trkpt lat="47.6848" lon="-2.81854">
        <ele>33</ele>
        <time>2021-03-16T11:06:06+01:00</time>
      </trkpt>
      <trkpt lat="47.68484" lon="-2.81858">
        <ele>32</ele>
        <time>2021-03-16T11:06:07+01:00</time>
      </trkpt>
      <trkpt lat="47.68487" lon="-2.81861">
        <ele>32</ele>
        <time>2021-03-16T11:06:08+01:00</time>
      </trkpt>
      <trkpt lat="47.68491" lon="-2.81865">
        <ele>32</ele>
        <time>2021-03-16T11:06:09+01:00</time>
      </trkpt>
      <trkpt lat="47.68494" lon="-2.81869">
        <ele>32</ele>
        <time>2021-03-16T11:06:10+01:00</time>
      </trkpt>
      <trkpt lat="47.68497" lon="-2.81874">
        <ele>32</ele>
        <time>2021-03-16T11:06:11+01:00</time>
      </trkpt>
      <trkpt lat="47.685" lon="-2.81879">
        <ele>32</ele>
        <time>2021-03-16T11:06:12+01:00</time>
      </trkpt>
      <trkpt lat="47.68503" lon="-2.81883">
        <ele>32</ele>
        <time>2021-03-16T11:06:13+01:00</time>
      </trkpt>
      <trkpt lat="47.68505" lon="-2.81888">
        <ele>32</ele>
        <time>2021-03-16T11:06:14+01:00</time>
      </trkpt>
      <trkpt lat="47.68508" lon="-2.81893">
        <ele>32</ele>
        <time>2021-03-16T11:06:15+01:00</time>
      </trkpt>
      <trkpt lat="47.6851" lon="-2.81897">
        <ele>32</ele>
        <time>2021-03-16T11:06:16+01:00</time>
      </trkpt>
      <trkpt lat="47.68513" lon="-2.81901">
        <ele>32</ele>
        <time>2021-03-16T11:06:17+01:00</time>
      </trkpt>
      <trkpt lat="47.68515" lon="-2.81904">
        <ele>32</ele>
        <time>2021-03-16T11:06:18+01:00</time>
      </trkpt>
      <trkpt lat="47.68517" lon="-2.81908">
        <ele>32</ele>
        <time>2021-03-16T11:06:19+01:00</time>
      </trkpt>
      <trkpt lat="47.6852" lon="-2.81912">
        <ele>32</ele>
        <time>2021-03-16T11:06:20+01:00</time>
      </trkpt>
      <trkpt lat="47.68522" lon="-2.81915">
        <ele>32</ele>
        <time>2021-03-16T11:06:21+01:00</time>
      </trkpt>
      <trkpt lat="47.68525" lon="-2.81918">
        <ele>32</ele>
        <time>2021-03-16T11:06:22+01:00</time>
      </trkpt>
      <trkpt lat="47.68529" lon="-2.8192">
        <ele>32</ele>
        <time>2021-03-16T11:06:23+01:00</time>
      </trkpt>
      <trkpt lat="47.68532" lon="-2.81922">
        <ele>32</ele>
        <time>2021-03-16T11:06:24+01:00</time>
      </trkpt>
      <trkpt lat="47.68536" lon="-2.81924">
        <ele>32</ele>
        <time>2021-03-16T11:06:25+01:00</time>
      </trkpt>
      <trkpt lat="47.68539" lon="-2.81926">
        <ele>32</ele>
        <time>2021-03-16T11:06:26+01:00</time>
      </trkpt>
      <trkpt lat="47.68543" lon="-2.81927">
        <ele>32</ele>
        <time>2021-03-16T11:06:27+01:00</time>
      </trkpt>
      <trkpt lat="47.68546" lon="-2.81929">
        <ele>32</ele>
        <time>2021-03-16T11:06:28+01:00</time>
      </trkpt>
      <trkpt lat="47.6855" lon="-2.81931">
        <ele>32</ele>
        <time>2021-03-16T11:06:29+01:00</time>
      </trkpt>
      <trkpt lat="47.68553" lon="-2.81933">
        <ele>32</ele>
        <time>2021-03-16T11:06:30+01:00</time>
      </trkpt>
      <trkpt lat="47.68557" lon="-2.81934">
        <ele>32</ele>
        <time>2021-03-16T11:06:31+01:00</time>
      </trkpt>
      <trkpt lat="47.6856" lon="-2.81936">
        <ele>33</ele>
        <time>2021-03-16T11:06:32+01:00</time>
      </trkpt>
      <trkpt lat="47.68563" lon="-2.81938">
        <ele>33</ele>
        <time>2021-03-16T11:06:33+01:00</time>
      </trkpt>
      <trkpt lat="47.68566" lon="-2.8194">
        <ele>33</ele>
        <time>2021-03-16T11:06:34+01:00</time>
      </trkpt>
      <trkpt lat="47.68569" lon="-2.81942">
        <ele>33</ele>
        <time>2021-03-16T11:06:35+01:00</time>
      </trkpt>
      <trkpt lat="47.68572" lon="-2.81944">
        <ele>33</ele>
        <time>2021-03-16T11:06:36+01:00</time>
      </trkpt>
      <trkpt lat="47.68575" lon="-2.81946">
        <ele>33</ele>
        <time>2021-03-16T11:06:37+01:00</time>
      </trkpt>
      <trkpt lat="47.68578" lon="-2.81948">
        <ele>33</ele>
        <time>2021-03-16T11:06:38+01:00</time>
      </trkpt>
      <trkpt lat="47.68581" lon="-2.8195">
        <ele>33</ele>
        <time>2021-03-16T11:06:39+01:00</time>
      </trkpt>
      <trkpt lat="47.68584" lon="-2.81953">
        <ele>33</ele>
        <time>2021-03-16T11:06:40+01:00</time>
      </trkpt>
      <trkpt lat="47.68587" lon="-2.81956">
        <ele>33</ele>
        <time>2021-03-16T11:06:41+01:00</time>
      </trkpt>
      <trkpt lat="47.6859" lon="-2.81959">
        <ele>33</ele>
        <time>2021-03-16T11:06:42+01:00</time>
      </trkpt>
      <trkpt lat="47.68592" lon="-2.81963">
        <ele>33</ele>
        <time>2021-03-16T11:06:43+01:00</time>
      </trkpt>
      <trkpt lat="47.68595" lon="-2.81967">
        <ele>33</ele>
        <time>2021-03-16T11:06:44+01:00</time>
      </trkpt>
      <trkpt lat="47.68598" lon="-2.81971">
        <ele>34</ele>
        <time>2021-03-16T11:06:45+01:00</time>
      </trkpt>
      <trkpt lat="47.686" lon="-2.81975">
        <ele>34</ele>
        <time>2021-03-16T11:06:46+01:00</time>
      </trkpt>
      <trkpt lat="47.68603" lon="-2.81979">
        <ele>34</ele>
        <time>2021-03-16T11:06:47+01:00</time>
      </trkpt>
      <trkpt lat="47.68606" lon="-2.81983">
        <ele>34</ele>
        <time>2021-03-16T11:06:48+01:00</time>
      </trkpt>
      <trkpt lat="47.68608" lon="-2.81988">
        <ele>34</ele>
        <time>2021-03-16T11:06:49+01:00</time>
      </trkpt>
      <trkpt lat="47.6861" lon="-2.81992">
        <ele>34</ele>
        <time>2021-03-16T11:06:50+01:00</time>
      </trkpt>
      <trkpt lat="47.68612" lon="-2.81997">
        <ele>34</ele>
        <time>2021-03-16T11:06:51+01:00</time>
      </trkpt>
      <trkpt lat="47.68615" lon="-2.82001">
        <ele>34</ele>
        <time>2021-03-16T11:06:52+01:00</time>
      </trkpt>
      <trkpt lat="47.68617" lon="-2.82006">
        <ele>34</ele>
        <time>2021-03-16T11:06:53+01:00</time>
      </trkpt>
      <trkpt lat="47.6862" lon="-2.82011">
        <ele>34</ele>
        <time>2021-03-16T11:06:54+01:00</time>
      </trkpt>
      <trkpt lat="47.68622" lon="-2.82015">
        <ele>35</ele>
        <time>2021-03-16T11:06:55+01:00</time>
      </trkpt>
      <trkpt lat="47.68624" lon="-2.8202">
        <ele>35</ele>
        <time>2021-03-16T11:06:56+01:00</time>
      </trkpt>
      <trkpt lat="47.68627" lon="-2.82024">
        <ele>35</ele>
        <time>2021-03-16T11:06:57+01:00</time>
      </trkpt>
      <trkpt lat="47.68629" lon="-2.82029">
        <ele>35</ele>
        <time>2021-03-16T11:06:58+01:00</time>
      </trkpt>
      <trkpt lat="47.6863" lon="-2.82034">
        <ele>35</ele>
        <time>2021-03-16T11:06:59+01:00</time>
      </trkpt>
      <trkpt lat="47.68631" lon="-2.82039">
        <ele>35</ele>
        <time>2021-03-16T11:07:00+01:00</time>
      </trkpt>
      <trkpt lat="47.68632" lon="-2.82044">
        <ele>35</ele>
        <time>2021-03-16T11:07:01+01:00</time>
      </trkpt>
      <trkpt lat="47.68633" lon="-2.82049">
        <ele>35</ele>
        <time>2021-03-16T11:07:02+01:00</time>
      </trkpt>
      <trkpt lat="47.68634" lon="-2.82054">
        <ele>35</ele>
        <time>2021-03-16T11:07:03+01:00</time>
      </trkpt>
      <trkpt lat="47.68636" lon="-2.82058">
        <ele>35</ele>
        <time>2021-03-16T11:07:04+01:00</time>
      </trkpt>
      <trkpt lat="47.68637" lon="-2.82063">
        <ele>35</ele>
        <time>2021-03-16T11:07:05+01:00</time>
      </trkpt>
      <trkpt lat="47.68638" lon="-2.82069">
        <ele>35</ele>
        <time>2021-03-16T11:07:06+01:00</time>
      </trkpt>
      <trkpt lat="47.68638" lon="-2.82074">
        <ele>35</ele>
        <time>2021-03-16T11:07:07+01:00</time>
      </trkpt>
      <trkpt lat="47.68638" lon="-2.82079">
        <ele>35</ele>
        <time>2021-03-16T11:07:08+01:00</time>
      </trkpt>
      <trkpt lat="47.68637" lon="-2.82085">
        <ele>35</ele>
        <time>2021-03-16T11:07:09+01:00</time>
      </trkpt>
      <trkpt lat="47.68637" lon="-2.8209">
        <ele>35</ele>
        <time>2021-03-16T11:07:10+01:00</time>
      </trkpt>
      <trkpt lat="47.68636" lon="-2.82095">
        <ele>35</ele>
        <time>2021-03-16T11:07:11+01:00</time>
      </trkpt>
      <trkpt lat="47.68635" lon="-2.821">
        <ele>35</ele>
        <time>2021-03-16T11:07:12+01:00</time>
      </trkpt>
      <trkpt lat="47.68634" lon="-2.82105">
        <ele>36</ele>
        <time>2021-03-16T11:07:13+01:00</time>
      </trkpt>
      <trkpt lat="47.68633" lon="-2.8211">
        <ele>36</ele>
        <time>2021-03-16T11:07:14+01:00</time>
      </trkpt>
      <trkpt lat="47.68633" lon="-2.82115">
        <ele>36</ele>
        <time>2021-03-16T11:07:15+01:00</time>
      </trkpt>
      <trkpt lat="47.68633" lon="-2.82119">
        <ele>36</ele>
        <time>2021-03-16T11:07:16+01:00</time>
      </trkpt>
      <trkpt lat="47.68633" lon="-2.82124">
        <ele>36</ele>
        <time>2021-03-16T11:07:17+01:00</time>
      </trkpt>
      <trkpt lat="47.68633" lon="-2.82128">
        <ele>36</ele>
        <time>2021-03-16T11:07:18+01:00</time>
      </trkpt>
      <trkpt lat="47.68634" lon="-2.82133">
        <ele>36</ele>
        <time>2021-03-16T11:07:19+01:00</time>
      </trkpt>
      <trkpt lat="47.68635" lon="-2.82138">
        <ele>37</ele>
        <time>2021-03-16T11:07:20+01:00</time>
      </trkpt>
      <trkpt lat="47.68636" lon="-2.82142">
        <ele>37</ele>
        <time>2021-03-16T11:07:21+01:00</time>
      </trkpt>
      <trkpt lat="47.68637" lon="-2.82147">
        <ele>37</ele>
        <time>2021-03-16T11:07:22+01:00</time>
      </trkpt>
      <trkpt lat="47.68638" lon="-2.82152">
        <ele>37</ele>
        <time>2021-03-16T11:07:23+01:00</time>
      </trkpt>
      <trkpt lat="47.68639" lon="-2.82157">
        <ele>37</ele>
        <time>2021-03-16T11:07:24+01:00</time>
      </trkpt>
      <trkpt lat="47.68641" lon="-2.82162">
        <ele>37</ele>
        <time>2021-03-16T11:07:25+01:00</time>
      </trkpt>
      <trkpt lat="47.68643" lon="-2.82167">
        <ele>37</ele>
        <time>2021-03-16T11:07:26+01:00</time>
      </trkpt>
      <trkpt lat="47.68645" lon="-2.82172">
        <ele>37</ele>
        <time>2021-03-16T11:07:27+01:00</time>
      </trkpt>
      <trkpt lat="47.68647" lon="-2.82176">
        <ele>37</ele>
        <time>2021-03-16T11:07:28+01:00</time>
      </trkpt>
      <trkpt lat="47.6865" lon="-2.82181">
        <ele>37</ele>
        <time>2021-03-16T11:07:29+01:00</time>
      </trkpt>
      <trkpt lat="47.68652" lon="-2.82186">
        <ele>37</ele>
        <time>2021-03-16T11:07:30+01:00</time>
      </trkpt>
      <trkpt lat="47.68654" lon="-2.8219">
        <ele>37</ele>
        <time>2021-03-16T11:07:31+01:00</time>
      </trkpt>
      <trkpt lat="47.68656" lon="-2.82195">
        <ele>37</ele>
        <time>2021-03-16T11:07:32+01:00</time>
      </trkpt>
      <trkpt lat="47.68657" lon="-2.822">
        <ele>37</ele>
        <time>2021-03-16T11:07:33+01:00</time>
      </trkpt>
      <trkpt lat="47.68659" lon="-2.82206">
        <ele>37</ele>
        <time>2021-03-16T11:07:34+01:00</time>
      </trkpt>
      <trkpt lat="47.6866" lon="-2.82211">
        <ele>37</ele>
        <time>2021-03-16T11:07:35+01:00</time>
      </trkpt>
      <trkpt lat="47.6866" lon="-2.82216">
        <ele>37</ele>
        <time>2021-03-16T11:07:36+01:00</time>
      </trkpt>
      <trkpt lat="47.6866" lon="-2.8222">
        <ele>37</ele>
        <time>2021-03-16T11:07:37+01:00</time>
      </trkpt>
      <trkpt lat="47.6866" lon="-2.82225">
        <ele>37</ele>
        <time>2021-03-16T11:07:38+01:00</time>
      </trkpt>
      <trkpt lat="47.6866" lon="-2.82231">
        <ele>37</ele>
        <time>2021-03-16T11:07:39+01:00</time>
      </trkpt>
      <trkpt lat="47.68661" lon="-2.82236">
        <ele>37</ele>
        <time>2021-03-16T11:07:40+01:00</time>
      </trkpt>
      <trkpt lat="47.68661" lon="-2.82242">
        <ele>37</ele>
        <time>2021-03-16T11:07:41+01:00</time>
      </trkpt>
      <trkpt lat="47.68662" lon="-2.82249">
        <ele>37</ele>
        <time>2021-03-16T11:07:42+01:00</time>
      </trkpt>
      <trkpt lat="47.68664" lon="-2.82255">
        <ele>37</ele>
        <time>2021-03-16T11:07:43+01:00</time>
      </trkpt>
      <trkpt lat="47.68666" lon="-2.82261">
        <ele>37</ele>
        <time>2021-03-16T11:07:44+01:00</time>
      </trkpt>
      <trkpt lat="47.68669" lon="-2.82266">
        <ele>37</ele>
        <time>2021-03-16T11:07:45+01:00</time>
      </trkpt>
      <trkpt lat="47.68673" lon="-2.8227">
        <ele>38</ele>
        <time>2021-03-16T11:07:46+01:00</time>
      </trkpt>
      <trkpt lat="47.68676" lon="-2.82274">
        <ele>38</ele>
        <time>2021-03-16T11:07:47+01:00</time>
      </trkpt>
      <trkpt lat="47.68679" lon="-2.82278">
        <ele>38</ele>
        <time>2021-03-16T11:07:48+01:00</time>
      </trkpt>
      <trkpt lat="47.68682" lon="-2.82282">
        <ele>38</ele>
        <time>2021-03-16T11:07:49+01:00</time>
      </trkpt>
      <trkpt lat="47.68686" lon="-2.82285">
        <ele>38</ele>
        <time>2021-03-16T11:07:50+01:00</time>
      </trkpt>
      <trkpt lat="47.68689" lon="-2.82288">
        <ele>38</ele>
        <time>2021-03-16T11:07:51+01:00</time>
      </trkpt>
      <trkpt lat="47.68692" lon="-2.82291">
        <ele>38</ele>
        <time>2021-03-16T11:07:52+01:00</time>
      </trkpt>
      <trkpt lat="47.68696" lon="-2.82294">
        <ele>38</ele>
        <time>2021-03-16T11:07:53+01:00</time>
      </trkpt>
      <trkpt lat="47.68699" lon="-2.82297">
        <ele>38</ele>
        <time>2021-03-16T11:07:54+01:00</time>
      </trkpt>
      <trkpt lat="47.68702" lon="-2.82301">
        <ele>38</ele>
        <time>2021-03-16T11:07:55+01:00</time>
      </trkpt>
      <trkpt lat="47.68705" lon="-2.82304">
        <ele>38</ele>
        <time>2021-03-16T11:07:56+01:00</time>
      </trkpt>
      <trkpt lat="47.68708" lon="-2.82308">
        <ele>39</ele>
        <time>2021-03-16T11:07:57+01:00</time>
      </trkpt>
      <trkpt lat="47.6871" lon="-2.82311">
        <ele>39</ele>
        <time>2021-03-16T11:07:58+01:00</time>
      </trkpt>
      <trkpt lat="47.68712" lon="-2.82316">
        <ele>39</ele>
        <time>2021-03-16T11:07:59+01:00</time>
      </trkpt>
      <trkpt lat="47.68714" lon="-2.82321">
        <ele>39</ele>
        <time>2021-03-16T11:08:00+01:00</time>
      </trkpt>
      <trkpt lat="47.68715" lon="-2.82326">
        <ele>39</ele>
        <time>2021-03-16T11:08:01+01:00</time>
      </trkpt>
      <trkpt lat="47.68716" lon="-2.82332">
        <ele>39</ele>
        <time>2021-03-16T11:08:02+01:00</time>
      </trkpt>
      <trkpt lat="47.68717" lon="-2.82338">
        <ele>39</ele>
        <time>2021-03-16T11:08:03+01:00</time>
      </trkpt>
      <trkpt lat="47.68718" lon="-2.82344">
        <ele>39</ele>
        <time>2021-03-16T11:08:04+01:00</time>
      </trkpt>
      <trkpt lat="47.6872" lon="-2.82349">
        <ele>39</ele>
        <time>2021-03-16T11:08:05+01:00</time>
      </trkpt>
      <trkpt lat="47.68721" lon="-2.82355">
        <ele>39</ele>
        <time>2021-03-16T11:08:06+01:00</time>
      </trkpt>
      <trkpt lat="47.68722" lon="-2.8236">
        <ele>39</ele>
        <time>2021-03-16T11:08:07+01:00</time>
      </trkpt>
      <trkpt lat="47.68722" lon="-2.82365">
        <ele>39</ele>
        <time>2021-03-16T11:08:08+01:00</time>
      </trkpt>
      <trkpt lat="47.68721" lon="-2.8237">
        <ele>39</ele>
        <time>2021-03-16T11:08:09+01:00</time>
      </trkpt>
      <trkpt lat="47.68719" lon="-2.82374">
        <ele>39</ele>
        <time>2021-03-16T11:08:10+01:00</time>
      </trkpt>
      <trkpt lat="47.68716" lon="-2.82378">
        <ele>39</ele>
        <time>2021-03-16T11:08:11+01:00</time>
      </trkpt>
      <trkpt lat="47.68713" lon="-2.82381">
        <ele>39</ele>
        <time>2021-03-16T11:08:12+01:00</time>
      </trkpt>
      <trkpt lat="47.6871" lon="-2.82384">
        <ele>39</ele>
        <time>2021-03-16T11:08:13+01:00</time>
      </trkpt>
      <trkpt lat="47.68707" lon="-2.82387">
        <ele>39</ele>
        <time>2021-03-16T11:08:14+01:00</time>
      </trkpt>
      <trkpt lat="47.68705" lon="-2.82391">
        <ele>39</ele>
        <time>2021-03-16T11:08:15+01:00</time>
      </trkpt>
      <trkpt lat="47.68705" lon="-2.82395">
        <ele>39</ele>
        <time>2021-03-16T11:08:16+01:00</time>
      </trkpt>
      <trkpt lat="47.68705" lon="-2.82399">
        <ele>39</ele>
        <time>2021-03-16T11:08:17+01:00</time>
      </trkpt>
      <trkpt lat="47.68706" lon="-2.82403">
        <ele>39</ele>
        <time>2021-03-16T11:08:18+01:00</time>
      </trkpt>
      <trkpt lat="47.68707" lon="-2.82408">
        <ele>39</ele>
        <time>2021-03-16T11:08:19+01:00</time>
      </trkpt>
      <trkpt lat="47.68708" lon="-2.82413">
        <ele>39</ele>
        <time>2021-03-16T11:08:20+01:00</time>
      </trkpt>
      <trkpt lat="47.68709" lon="-2.82417">
        <ele>38</ele>
        <time>2021-03-16T11:08:21+01:00</time>
      </trkpt>
      <trkpt lat="47.6871" lon="-2.82422">
        <ele>38</ele>
        <time>2021-03-16T11:08:22+01:00</time>
      </trkpt>
      <trkpt lat="47.68712" lon="-2.82427">
        <ele>38</ele>
        <time>2021-03-16T11:08:23+01:00</time>
      </trkpt>
      <trkpt lat="47.68713" lon="-2.82432">
        <ele>38</ele>
        <time>2021-03-16T11:08:24+01:00</time>
      </trkpt>
      <trkpt lat="47.68714" lon="-2.82437">
        <ele>38</ele>
        <time>2021-03-16T11:08:25+01:00</time>
      </trkpt>
      <trkpt lat="47.68716" lon="-2.82443">
        <ele>38</ele>
        <time>2021-03-16T11:08:26+01:00</time>
      </trkpt>
      <trkpt lat="47.68717" lon="-2.82449">
        <ele>38</ele>
        <time>2021-03-16T11:08:27+01:00</time>
      </trkpt>
      <trkpt lat="47.68718" lon="-2.82455">
        <ele>38</ele>
        <time>2021-03-16T11:08:28+01:00</time>
      </trkpt>
      <trkpt lat="47.68719" lon="-2.8246">
        <ele>38</ele>
        <time>2021-03-16T11:08:29+01:00</time>
      </trkpt>
      <trkpt lat="47.68719" lon="-2.82465">
        <ele>38</ele>
        <time>2021-03-16T11:08:30+01:00</time>
      </trkpt>
      <trkpt lat="47.6872" lon="-2.82471">
        <ele>38</ele>
        <time>2021-03-16T11:08:31+01:00</time>
      </trkpt>
      <trkpt lat="47.6872" lon="-2.82476">
        <ele>38</ele>
        <time>2021-03-16T11:08:32+01:00</time>
      </trkpt>
      <trkpt lat="47.6872" lon="-2.82481">
        <ele>38</ele>
        <time>2021-03-16T11:08:33+01:00</time>
      </trkpt>
      <trkpt lat="47.6872" lon="-2.82485">
        <ele>38</ele>
        <time>2021-03-16T11:08:34+01:00</time>
      </trkpt>
      <trkpt lat="47.6872" lon="-2.8249">
        <ele>38</ele>
        <time>2021-03-16T11:08:35+01:00</time>
      </trkpt>
      <trkpt lat="47.68721" lon="-2.82495">
        <ele>38</ele>
        <time>2021-03-16T11:08:36+01:00</time>
      </trkpt>
      <trkpt lat="47.68722" lon="-2.825">
        <ele>38</ele>
        <time>2021-03-16T11:08:37+01:00</time>
      </trkpt>
      <trkpt lat="47.68723" lon="-2.82505">
        <ele>38</ele>
        <time>2021-03-16T11:08:38+01:00</time>
      </trkpt>
      <trkpt lat="47.68725" lon="-2.82511">
        <ele>38</ele>
        <time>2021-03-16T11:08:39+01:00</time>
      </trkpt>
      <trkpt lat="47.68727" lon="-2.82516">
        <ele>38</ele>
        <time>2021-03-16T11:08:40+01:00</time>
      </trkpt>
      <trkpt lat="47.68729" lon="-2.82521">
        <ele>38</ele>
        <time>2021-03-16T11:08:41+01:00</time>
      </trkpt>
      <trkpt lat="47.6873" lon="-2.82526">
        <ele>38</ele>
        <time>2021-03-16T11:08:42+01:00</time>
      </trkpt>
      <trkpt lat="47.68732" lon="-2.8253">
        <ele>38</ele>
        <time>2021-03-16T11:08:43+01:00</time>
      </trkpt>
      <trkpt lat="47.68733" lon="-2.82534">
        <ele>38</ele>
        <time>2021-03-16T11:08:45+01:00</time>
      </trkpt>
      <trkpt lat="47.68734" lon="-2.82539">
        <ele>38</ele>
        <time>2021-03-16T11:08:51+01:00</time>
      </trkpt>
      <trkpt lat="47.68735" lon="-2.82545">
        <ele>38</ele>
        <time>2021-03-16T11:08:53+01:00</time>
      </trkpt>
      <trkpt lat="47.68735" lon="-2.8255">
        <ele>38</ele>
        <time>2021-03-16T11:08:55+01:00</time>
      </trkpt>
      <trkpt lat="47.68735" lon="-2.82554">
        <ele>38</ele>
        <time>2021-03-16T11:08:57+01:00</time>
      </trkpt>
      <trkpt lat="47.68735" lon="-2.82559">
        <ele>38</ele>
        <time>2021-03-16T11:08:59+01:00</time>
      </trkpt>
      <trkpt lat="47.68735" lon="-2.82563">
        <ele>38</ele>
        <time>2021-03-16T11:09:02+01:00</time>
      </trkpt>
      <trkpt lat="47.68733" lon="-2.82567">
        <ele>38</ele>
        <time>2021-03-16T11:09:04+01:00</time>
      </trkpt>
      <trkpt lat="47.68731" lon="-2.8257">
        <ele>38</ele>
        <time>2021-03-16T11:09:09+01:00</time>
      </trkpt>
      <trkpt lat="47.68728" lon="-2.82571">
        <ele>38</ele>
        <time>2021-03-16T11:09:16+01:00</time>
      </trkpt>
      <trkpt lat="47.68724" lon="-2.82573">
        <ele>38</ele>
        <time>2021-03-16T11:09:18+01:00</time>
      </trkpt>
      <trkpt lat="47.68721" lon="-2.82574">
        <ele>38</ele>
        <time>2021-03-16T11:09:19+01:00</time>
      </trkpt>
      <trkpt lat="47.68717" lon="-2.82576">
        <ele>38</ele>
        <time>2021-03-16T11:09:20+01:00</time>
      </trkpt>
      <trkpt lat="47.68714" lon="-2.82577">
        <ele>38</ele>
        <time>2021-03-16T11:09:21+01:00</time>
      </trkpt>
      <trkpt lat="47.68711" lon="-2.82577">
        <ele>38</ele>
        <time>2021-03-16T11:09:23+01:00</time>
      </trkpt>
      <trkpt lat="47.68708" lon="-2.82578">
        <ele>38</ele>
        <time>2021-03-16T11:09:27+01:00</time>
      </trkpt>
      <trkpt lat="47.68706" lon="-2.82581">
        <ele>38</ele>
        <time>2021-03-16T11:09:29+01:00</time>
      </trkpt>
      <trkpt lat="47.68703" lon="-2.82584">
        <ele>38</ele>
        <time>2021-03-16T11:09:31+01:00</time>
      </trkpt>
      <trkpt lat="47.687" lon="-2.82587">
        <ele>38</ele>
        <time>2021-03-16T11:09:32+01:00</time>
      </trkpt>
      <trkpt lat="47.68698" lon="-2.8259">
        <ele>38</ele>
        <time>2021-03-16T11:09:33+01:00</time>
      </trkpt>
      <trkpt lat="47.68695" lon="-2.82592">
        <ele>38</ele>
        <time>2021-03-16T11:09:34+01:00</time>
      </trkpt>
      <trkpt lat="47.68693" lon="-2.82595">
        <ele>38</ele>
        <time>2021-03-16T11:09:35+01:00</time>
      </trkpt>
      <trkpt lat="47.68691" lon="-2.82599">
        <ele>38</ele>
        <time>2021-03-16T11:09:36+01:00</time>
      </trkpt>
      <trkpt lat="47.68687" lon="-2.82603">
        <ele>39</ele>
        <time>2021-03-16T11:09:38+01:00</time>
      </trkpt>
      <trkpt lat="47.68685" lon="-2.82607">
        <ele>39</ele>
        <time>2021-03-16T11:09:39+01:00</time>
      </trkpt>
      <trkpt lat="47.68682" lon="-2.82609">
        <ele>39</ele>
        <time>2021-03-16T11:09:40+01:00</time>
      </trkpt>
      <trkpt lat="47.6868" lon="-2.82612">
        <ele>39</ele>
        <time>2021-03-16T11:09:41+01:00</time>
      </trkpt>
      <trkpt lat="47.68678" lon="-2.82615">
        <ele>39</ele>
        <time>2021-03-16T11:09:42+01:00</time>
      </trkpt>
      <trkpt lat="47.68675" lon="-2.82619">
        <ele>39</ele>
        <time>2021-03-16T11:09:44+01:00</time>
      </trkpt>
      <trkpt lat="47.68671" lon="-2.82625">
        <ele>39</ele>
        <time>2021-03-16T11:09:46+01:00</time>
      </trkpt>
      <trkpt lat="47.68669" lon="-2.82628">
        <ele>39</ele>
        <time>2021-03-16T11:09:47+01:00</time>
      </trkpt>
      <trkpt lat="47.68666" lon="-2.82634">
        <ele>40</ele>
        <time>2021-03-16T11:09:49+01:00</time>
      </trkpt>
      <trkpt lat="47.68664" lon="-2.82638">
        <ele>40</ele>
        <time>2021-03-16T11:09:50+01:00</time>
      </trkpt>
      <trkpt lat="47.68661" lon="-2.82641">
        <ele>40</ele>
        <time>2021-03-16T11:09:51+01:00</time>
      </trkpt>
      <trkpt lat="47.68659" lon="-2.82645">
        <ele>40</ele>
        <time>2021-03-16T11:09:52+01:00</time>
      </trkpt>
      <trkpt lat="47.68657" lon="-2.82648">
        <ele>40</ele>
        <time>2021-03-16T11:09:53+01:00</time>
      </trkpt>
      <trkpt lat="47.68655" lon="-2.82652">
        <ele>40</ele>
        <time>2021-03-16T11:09:54+01:00</time>
      </trkpt>
      <trkpt lat="47.68653" lon="-2.82655">
        <ele>40</ele>
        <time>2021-03-16T11:09:55+01:00</time>
      </trkpt>
      <trkpt lat="47.6865" lon="-2.82659">
        <ele>40</ele>
        <time>2021-03-16T11:09:56+01:00</time>
      </trkpt>
      <trkpt lat="47.68648" lon="-2.82663">
        <ele>40</ele>
        <time>2021-03-16T11:09:57+01:00</time>
      </trkpt>
      <trkpt lat="47.68646" lon="-2.82667">
        <ele>40</ele>
        <time>2021-03-16T11:09:58+01:00</time>
      </trkpt>
      <trkpt lat="47.68644" lon="-2.82671">
        <ele>40</ele>
        <time>2021-03-16T11:09:59+01:00</time>
      </trkpt>
      <trkpt lat="47.68642" lon="-2.82675">
        <ele>40</ele>
        <time>2021-03-16T11:10:00+01:00</time>
      </trkpt>
      <trkpt lat="47.6864" lon="-2.82679">
        <ele>40</ele>
        <time>2021-03-16T11:10:01+01:00</time>
      </trkpt>
      <trkpt lat="47.68638" lon="-2.82682">
        <ele>40</ele>
        <time>2021-03-16T11:10:02+01:00</time>
      </trkpt>
      <trkpt lat="47.68636" lon="-2.82686">
        <ele>40</ele>
        <time>2021-03-16T11:10:03+01:00</time>
      </trkpt>
      <trkpt lat="47.68634" lon="-2.82691">
        <ele>40</ele>
        <time>2021-03-16T11:10:04+01:00</time>
      </trkpt>
      <trkpt lat="47.68632" lon="-2.82695">
        <ele>40</ele>
        <time>2021-03-16T11:10:05+01:00</time>
      </trkpt>
      <trkpt lat="47.6863" lon="-2.827">
        <ele>40</ele>
        <time>2021-03-16T11:10:06+01:00</time>
      </trkpt>
      <trkpt lat="47.68628" lon="-2.82704">
        <ele>40</ele>
        <time>2021-03-16T11:10:07+01:00</time>
      </trkpt>
      <trkpt lat="47.68626" lon="-2.82709">
        <ele>40</ele>
        <time>2021-03-16T11:10:08+01:00</time>
      </trkpt>
      <trkpt lat="47.68623" lon="-2.82713">
        <ele>39</ele>
        <time>2021-03-16T11:10:09+01:00</time>
      </trkpt>
      <trkpt lat="47.68621" lon="-2.82718">
        <ele>39</ele>
        <time>2021-03-16T11:10:10+01:00</time>
      </trkpt>
      <trkpt lat="47.68619" lon="-2.82723">
        <ele>39</ele>
        <time>2021-03-16T11:10:11+01:00</time>
      </trkpt>
      <trkpt lat="47.68617" lon="-2.82728">
        <ele>39</ele>
        <time>2021-03-16T11:10:12+01:00</time>
      </trkpt>
      <trkpt lat="47.68615" lon="-2.82732">
        <ele>39</ele>
        <time>2021-03-16T11:10:13+01:00</time>
      </trkpt>
      <trkpt lat="47.68612" lon="-2.82737">
        <ele>39</ele>
        <time>2021-03-16T11:10:14+01:00</time>
      </trkpt>
      <trkpt lat="47.6861" lon="-2.82743">
        <ele>39</ele>
        <time>2021-03-16T11:10:15+01:00</time>
      </trkpt>
      <trkpt lat="47.68608" lon="-2.82748">
        <ele>39</ele>
        <time>2021-03-16T11:10:16+01:00</time>
      </trkpt>
      <trkpt lat="47.68606" lon="-2.82753">
        <ele>39</ele>
        <time>2021-03-16T11:10:17+01:00</time>
      </trkpt>
      <trkpt lat="47.68604" lon="-2.82758">
        <ele>39</ele>
        <time>2021-03-16T11:10:18+01:00</time>
      </trkpt>
      <trkpt lat="47.68602" lon="-2.82763">
        <ele>39</ele>
        <time>2021-03-16T11:10:19+01:00</time>
      </trkpt>
      <trkpt lat="47.686" lon="-2.82768">
        <ele>39</ele>
        <time>2021-03-16T11:10:20+01:00</time>
      </trkpt>
      <trkpt lat="47.68599" lon="-2.82774">
        <ele>39</ele>
        <time>2021-03-16T11:10:21+01:00</time>
      </trkpt>
      <trkpt lat="47.68597" lon="-2.82779">
        <ele>39</ele>
        <time>2021-03-16T11:10:22+01:00</time>
      </trkpt>
      <trkpt lat="47.68596" lon="-2.82785">
        <ele>39</ele>
        <time>2021-03-16T11:10:23+01:00</time>
      </trkpt>
      <trkpt lat="47.68594" lon="-2.82791">
        <ele>39</ele>
        <time>2021-03-16T11:10:24+01:00</time>
      </trkpt>
      <trkpt lat="47.68592" lon="-2.82797">
        <ele>39</ele>
        <time>2021-03-16T11:10:25+01:00</time>
      </trkpt>
      <trkpt lat="47.6859" lon="-2.82803">
        <ele>39</ele>
        <time>2021-03-16T11:10:26+01:00</time>
      </trkpt>
      <trkpt lat="47.68588" lon="-2.82808">
        <ele>39</ele>
        <time>2021-03-16T11:10:27+01:00</time>
      </trkpt>
      <trkpt lat="47.68586" lon="-2.82813">
        <ele>39</ele>
        <time>2021-03-16T11:10:28+01:00</time>
      </trkpt>
      <trkpt lat="47.68583" lon="-2.82818">
        <ele>39</ele>
        <time>2021-03-16T11:10:29+01:00</time>
      </trkpt>
      <trkpt lat="47.68581" lon="-2.82823">
        <ele>39</ele>
        <time>2021-03-16T11:10:30+01:00</time>
      </trkpt>
      <trkpt lat="47.68579" lon="-2.82828">
        <ele>39</ele>
        <time>2021-03-16T11:10:31+01:00</time>
      </trkpt>
      <trkpt lat="47.68577" lon="-2.82832">
        <ele>39</ele>
        <time>2021-03-16T11:10:32+01:00</time>
      </trkpt>
      <trkpt lat="47.68575" lon="-2.82835">
        <ele>39</ele>
        <time>2021-03-16T11:10:33+01:00</time>
      </trkpt>
      <trkpt lat="47.68574" lon="-2.82839">
        <ele>39</ele>
        <time>2021-03-16T11:10:34+01:00</time>
      </trkpt>
      <trkpt lat="47.68571" lon="-2.82844">
        <ele>39</ele>
        <time>2021-03-16T11:10:36+01:00</time>
      </trkpt>
      <trkpt lat="47.68569" lon="-2.82848">
        <ele>39</ele>
        <time>2021-03-16T11:10:37+01:00</time>
      </trkpt>
      <trkpt lat="47.68567" lon="-2.82853">
        <ele>39</ele>
        <time>2021-03-16T11:10:38+01:00</time>
      </trkpt>
      <trkpt lat="47.68567" lon="-2.82858">
        <ele>39</ele>
        <time>2021-03-16T11:10:39+01:00</time>
      </trkpt>
      <trkpt lat="47.68567" lon="-2.82864">
        <ele>39</ele>
        <time>2021-03-16T11:10:40+01:00</time>
      </trkpt>
      <trkpt lat="47.68568" lon="-2.82869">
        <ele>39</ele>
        <time>2021-03-16T11:10:41+01:00</time>
      </trkpt>
      <trkpt lat="47.68569" lon="-2.82875">
        <ele>39</ele>
        <time>2021-03-16T11:10:42+01:00</time>
      </trkpt>
      <trkpt lat="47.6857" lon="-2.82881">
        <ele>39</ele>
        <time>2021-03-16T11:10:43+01:00</time>
      </trkpt>
      <trkpt lat="47.68571" lon="-2.82886">
        <ele>40</ele>
        <time>2021-03-16T11:10:44+01:00</time>
      </trkpt>
      <trkpt lat="47.68571" lon="-2.82891">
        <ele>40</ele>
        <time>2021-03-16T11:10:45+01:00</time>
      </trkpt>
      <trkpt lat="47.68572" lon="-2.82896">
        <ele>40</ele>
        <time>2021-03-16T11:10:46+01:00</time>
      </trkpt>
      <trkpt lat="47.68572" lon="-2.82901">
        <ele>40</ele>
        <time>2021-03-16T11:10:47+01:00</time>
      </trkpt>
      <trkpt lat="47.68573" lon="-2.82906">
        <ele>40</ele>
        <time>2021-03-16T11:10:48+01:00</time>
      </trkpt>
      <trkpt lat="47.68574" lon="-2.82911">
        <ele>40</ele>
        <time>2021-03-16T11:10:49+01:00</time>
      </trkpt>
      <trkpt lat="47.68575" lon="-2.82916">
        <ele>40</ele>
        <time>2021-03-16T11:10:50+01:00</time>
      </trkpt>
      <trkpt lat="47.68576" lon="-2.8292">
        <ele>40</ele>
        <time>2021-03-16T11:10:51+01:00</time>
      </trkpt>
      <trkpt lat="47.68577" lon="-2.82925">
        <ele>40</ele>
        <time>2021-03-16T11:10:52+01:00</time>
      </trkpt>
      <trkpt lat="47.68578" lon="-2.8293">
        <ele>40</ele>
        <time>2021-03-16T11:10:53+01:00</time>
      </trkpt>
      <trkpt lat="47.68579" lon="-2.82934">
        <ele>40</ele>
        <time>2021-03-16T11:10:54+01:00</time>
      </trkpt>
      <trkpt lat="47.68579" lon="-2.82939">
        <ele>40</ele>
        <time>2021-03-16T11:10:55+01:00</time>
      </trkpt>
      <trkpt lat="47.6858" lon="-2.82944">
        <ele>40</ele>
        <time>2021-03-16T11:10:56+01:00</time>
      </trkpt>
      <trkpt lat="47.68581" lon="-2.8295">
        <ele>40</ele>
        <time>2021-03-16T11:10:57+01:00</time>
      </trkpt>
      <trkpt lat="47.68581" lon="-2.82955">
        <ele>40</ele>
        <time>2021-03-16T11:10:58+01:00</time>
      </trkpt>
      <trkpt lat="47.68581" lon="-2.8296">
        <ele>40</ele>
        <time>2021-03-16T11:10:59+01:00</time>
      </trkpt>
      <trkpt lat="47.68582" lon="-2.82966">
        <ele>41</ele>
        <time>2021-03-16T11:11:00+01:00</time>
      </trkpt>
      <trkpt lat="47.68582" lon="-2.82971">
        <ele>41</ele>
        <time>2021-03-16T11:11:01+01:00</time>
      </trkpt>
      <trkpt lat="47.68583" lon="-2.82975">
        <ele>41</ele>
        <time>2021-03-16T11:11:02+01:00</time>
      </trkpt>
      <trkpt lat="47.68583" lon="-2.8298">
        <ele>41</ele>
        <time>2021-03-16T11:11:03+01:00</time>
      </trkpt>
      <trkpt lat="47.68584" lon="-2.82985">
        <ele>41</ele>
        <time>2021-03-16T11:11:04+01:00</time>
      </trkpt>
      <trkpt lat="47.68584" lon="-2.8299">
        <ele>41</ele>
        <time>2021-03-16T11:11:05+01:00</time>
      </trkpt>
      <trkpt lat="47.68585" lon="-2.82995">
        <ele>41</ele>
        <time>2021-03-16T11:11:06+01:00</time>
      </trkpt>
      <trkpt lat="47.68585" lon="-2.83">
        <ele>41</ele>
        <time>2021-03-16T11:11:07+01:00</time>
      </trkpt>
      <trkpt lat="47.68585" lon="-2.83005">
        <ele>41</ele>
        <time>2021-03-16T11:11:08+01:00</time>
      </trkpt>
      <trkpt lat="47.68585" lon="-2.83009">
        <ele>41</ele>
        <time>2021-03-16T11:11:09+01:00</time>
      </trkpt>
      <trkpt lat="47.68586" lon="-2.83014">
        <ele>41</ele>
        <time>2021-03-16T11:11:10+01:00</time>
      </trkpt>
      <trkpt lat="47.68586" lon="-2.83018">
        <ele>41</ele>
        <time>2021-03-16T11:11:11+01:00</time>
      </trkpt>
      <trkpt lat="47.68587" lon="-2.83023">
        <ele>41</ele>
        <time>2021-03-16T11:11:12+01:00</time>
      </trkpt>
      <trkpt lat="47.68587" lon="-2.83028">
        <ele>41</ele>
        <time>2021-03-16T11:11:13+01:00</time>
      </trkpt>
      <trkpt lat="47.68588" lon="-2.83032">
        <ele>41</ele>
        <time>2021-03-16T11:11:14+01:00</time>
      </trkpt>
      <trkpt lat="47.68588" lon="-2.83037">
        <ele>41</ele>
        <time>2021-03-16T11:11:15+01:00</time>
      </trkpt>
      <trkpt lat="47.68589" lon="-2.83041">
        <ele>42</ele>
        <time>2021-03-16T11:11:16+01:00</time>
      </trkpt>
      <trkpt lat="47.6859" lon="-2.83046">
        <ele>42</ele>
        <time>2021-03-16T11:11:17+01:00</time>
      </trkpt>
      <trkpt lat="47.6859" lon="-2.83051">
        <ele>42</ele>
        <time>2021-03-16T11:11:18+01:00</time>
      </trkpt>
      <trkpt lat="47.68591" lon="-2.83055">
        <ele>42</ele>
        <time>2021-03-16T11:11:19+01:00</time>
      </trkpt>
      <trkpt lat="47.68592" lon="-2.8306">
        <ele>42</ele>
        <time>2021-03-16T11:11:20+01:00</time>
      </trkpt>
      <trkpt lat="47.68593" lon="-2.83065">
        <ele>42</ele>
        <time>2021-03-16T11:11:21+01:00</time>
      </trkpt>
      <trkpt lat="47.68594" lon="-2.8307">
        <ele>42</ele>
        <time>2021-03-16T11:11:22+01:00</time>
      </trkpt>
      <trkpt lat="47.68595" lon="-2.83075">
        <ele>42</ele>
        <time>2021-03-16T11:11:23+01:00</time>
      </trkpt>
      <trkpt lat="47.68596" lon="-2.8308">
        <ele>42</ele>
        <time>2021-03-16T11:11:24+01:00</time>
      </trkpt>
      <trkpt lat="47.68597" lon="-2.83084">
        <ele>42</ele>
        <time>2021-03-16T11:11:25+01:00</time>
      </trkpt>
      <trkpt lat="47.68598" lon="-2.83089">
        <ele>42</ele>
        <time>2021-03-16T11:11:26+01:00</time>
      </trkpt>
      <trkpt lat="47.686" lon="-2.83093">
        <ele>42</ele>
        <time>2021-03-16T11:11:27+01:00</time>
      </trkpt>
      <trkpt lat="47.68601" lon="-2.83098">
        <ele>42</ele>
        <time>2021-03-16T11:11:28+01:00</time>
      </trkpt>
      <trkpt lat="47.68602" lon="-2.83103">
        <ele>43</ele>
        <time>2021-03-16T11:11:29+01:00</time>
      </trkpt>
      <trkpt lat="47.68603" lon="-2.83108">
        <ele>43</ele>
        <time>2021-03-16T11:11:30+01:00</time>
      </trkpt>
      <trkpt lat="47.68605" lon="-2.83112">
        <ele>43</ele>
        <time>2021-03-16T11:11:31+01:00</time>
      </trkpt>
      <trkpt lat="47.68606" lon="-2.83117">
        <ele>43</ele>
        <time>2021-03-16T11:11:32+01:00</time>
      </trkpt>
      <trkpt lat="47.68607" lon="-2.83121">
        <ele>43</ele>
        <time>2021-03-16T11:11:33+01:00</time>
      </trkpt>
      <trkpt lat="47.68608" lon="-2.83125">
        <ele>43</ele>
        <time>2021-03-16T11:11:34+01:00</time>
      </trkpt>
      <trkpt lat="47.68609" lon="-2.8313">
        <ele>43</ele>
        <time>2021-03-16T11:11:35+01:00</time>
      </trkpt>
      <trkpt lat="47.68611" lon="-2.83134">
        <ele>43</ele>
        <time>2021-03-16T11:11:36+01:00</time>
      </trkpt>
      <trkpt lat="47.68611" lon="-2.83138">
        <ele>43</ele>
        <time>2021-03-16T11:11:37+01:00</time>
      </trkpt>
      <trkpt lat="47.68612" lon="-2.83142">
        <ele>43</ele>
        <time>2021-03-16T11:11:38+01:00</time>
      </trkpt>
      <trkpt lat="47.68612" lon="-2.83146">
        <ele>43</ele>
        <time>2021-03-16T11:11:39+01:00</time>
      </trkpt>
      <trkpt lat="47.68613" lon="-2.8315">
        <ele>43</ele>
        <time>2021-03-16T11:11:40+01:00</time>
      </trkpt>
      <trkpt lat="47.68613" lon="-2.83155">
        <ele>44</ele>
        <time>2021-03-16T11:11:41+01:00</time>
      </trkpt>
      <trkpt lat="47.68614" lon="-2.83159">
        <ele>44</ele>
        <time>2021-03-16T11:11:42+01:00</time>
      </trkpt>
      <trkpt lat="47.68615" lon="-2.83164">
        <ele>44</ele>
        <time>2021-03-16T11:11:43+01:00</time>
      </trkpt>
      <trkpt lat="47.68616" lon="-2.83169">
        <ele>44</ele>
        <time>2021-03-16T11:11:44+01:00</time>
      </trkpt>
      <trkpt lat="47.68616" lon="-2.83174">
        <ele>44</ele>
        <time>2021-03-16T11:11:45+01:00</time>
      </trkpt>
      <trkpt lat="47.68617" lon="-2.83178">
        <ele>44</ele>
        <time>2021-03-16T11:11:46+01:00</time>
      </trkpt>
      <trkpt lat="47.68617" lon="-2.83183">
        <ele>44</ele>
        <time>2021-03-16T11:11:47+01:00</time>
      </trkpt>
      <trkpt lat="47.68618" lon="-2.83187">
        <ele>44</ele>
        <time>2021-03-16T11:11:48+01:00</time>
      </trkpt>
      <trkpt lat="47.68618" lon="-2.83192">
        <ele>44</ele>
        <time>2021-03-16T11:11:49+01:00</time>
      </trkpt>
      <trkpt lat="47.68619" lon="-2.83196">
        <ele>44</ele>
        <time>2021-03-16T11:11:50+01:00</time>
      </trkpt>
      <trkpt lat="47.6862" lon="-2.83201">
        <ele>44</ele>
        <time>2021-03-16T11:11:51+01:00</time>
      </trkpt>
      <trkpt lat="47.6862" lon="-2.83205">
        <ele>44</ele>
        <time>2021-03-16T11:11:52+01:00</time>
      </trkpt>
      <trkpt lat="47.6862" lon="-2.83211">
        <ele>44</ele>
        <time>2021-03-16T11:11:54+01:00</time>
      </trkpt>
      <trkpt lat="47.6862" lon="-2.83217">
        <ele>44</ele>
        <time>2021-03-16T11:11:56+01:00</time>
      </trkpt>
      <trkpt lat="47.68619" lon="-2.83222">
        <ele>45</ele>
        <time>2021-03-16T11:11:58+01:00</time>
      </trkpt>
      <trkpt lat="47.68619" lon="-2.83227">
        <ele>45</ele>
        <time>2021-03-16T11:12:00+01:00</time>
      </trkpt>
      <trkpt lat="47.68621" lon="-2.83233">
        <ele>45</ele>
        <time>2021-03-16T11:12:02+01:00</time>
      </trkpt>
      <trkpt lat="47.68624" lon="-2.83237">
        <ele>45</ele>
        <time>2021-03-16T11:12:04+01:00</time>
      </trkpt>
      <trkpt lat="47.68627" lon="-2.8324">
        <ele>45</ele>
        <time>2021-03-16T11:12:05+01:00</time>
      </trkpt>
      <trkpt lat="47.6863" lon="-2.83242">
        <ele>45</ele>
        <time>2021-03-16T11:12:06+01:00</time>
      </trkpt>
      <trkpt lat="47.68633" lon="-2.83244">
        <ele>45</ele>
        <time>2021-03-16T11:12:07+01:00</time>
      </trkpt>
      <trkpt lat="47.68636" lon="-2.83246">
        <ele>45</ele>
        <time>2021-03-16T11:12:08+01:00</time>
      </trkpt>
      <trkpt lat="47.68639" lon="-2.83248">
        <ele>45</ele>
        <time>2021-03-16T11:12:09+01:00</time>
      </trkpt>
      <trkpt lat="47.68643" lon="-2.8325">
        <ele>45</ele>
        <time>2021-03-16T11:12:10+01:00</time>
      </trkpt>
      <trkpt lat="47.68646" lon="-2.83251">
        <ele>46</ele>
        <time>2021-03-16T11:12:11+01:00</time>
      </trkpt>
      <trkpt lat="47.68649" lon="-2.83252">
        <ele>46</ele>
        <time>2021-03-16T11:12:12+01:00</time>
      </trkpt>
      <trkpt lat="47.68653" lon="-2.83253">
        <ele>46</ele>
        <time>2021-03-16T11:12:14+01:00</time>
      </trkpt>
      <trkpt lat="47.68658" lon="-2.83254">
        <ele>46</ele>
        <time>2021-03-16T11:12:16+01:00</time>
      </trkpt>
      <trkpt lat="47.68663" lon="-2.83255">
        <ele>46</ele>
        <time>2021-03-16T11:12:18+01:00</time>
      </trkpt>
      <trkpt lat="47.68667" lon="-2.83256">
        <ele>46</ele>
        <time>2021-03-16T11:12:19+01:00</time>
      </trkpt>
      <trkpt lat="47.68671" lon="-2.83257">
        <ele>46</ele>
        <time>2021-03-16T11:12:21+01:00</time>
      </trkpt>
      <trkpt lat="47.68674" lon="-2.83258">
        <ele>46</ele>
        <time>2021-03-16T11:12:22+01:00</time>
      </trkpt>
      <trkpt lat="47.68678" lon="-2.83259">
        <ele>46</ele>
        <time>2021-03-16T11:12:23+01:00</time>
      </trkpt>
      <trkpt lat="47.68681" lon="-2.8326">
        <ele>46</ele>
        <time>2021-03-16T11:12:24+01:00</time>
      </trkpt>
      <trkpt lat="47.68684" lon="-2.83261">
        <ele>45</ele>
        <time>2021-03-16T11:12:25+01:00</time>
      </trkpt>
      <trkpt lat="47.68687" lon="-2.83263">
        <ele>45</ele>
        <time>2021-03-16T11:12:26+01:00</time>
      </trkpt>
      <trkpt lat="47.68691" lon="-2.83264">
        <ele>45</ele>
        <time>2021-03-16T11:12:27+01:00</time>
      </trkpt>
      <trkpt lat="47.68694" lon="-2.83266">
        <ele>45</ele>
        <time>2021-03-16T11:12:28+01:00</time>
      </trkpt>
      <trkpt lat="47.68696" lon="-2.83267">
        <ele>45</ele>
        <time>2021-03-16T11:12:29+01:00</time>
      </trkpt>
      <trkpt lat="47.687" lon="-2.83268">
        <ele>45</ele>
        <time>2021-03-16T11:12:30+01:00</time>
      </trkpt>
      <trkpt lat="47.68703" lon="-2.83269">
        <ele>45</ele>
        <time>2021-03-16T11:12:31+01:00</time>
      </trkpt>
      <trkpt lat="47.68707" lon="-2.8327">
        <ele>45</ele>
        <time>2021-03-16T11:12:32+01:00</time>
      </trkpt>
      <trkpt lat="47.6871" lon="-2.83272">
        <ele>45</ele>
        <time>2021-03-16T11:12:33+01:00</time>
      </trkpt>
      <trkpt lat="47.68714" lon="-2.83274">
        <ele>44</ele>
        <time>2021-03-16T11:12:34+01:00</time>
      </trkpt>
      <trkpt lat="47.68718" lon="-2.83277">
        <ele>44</ele>
        <time>2021-03-16T11:12:35+01:00</time>
      </trkpt>
      <trkpt lat="47.68723" lon="-2.83281">
        <ele>44</ele>
        <time>2021-03-16T11:12:36+01:00</time>
      </trkpt>
      <trkpt lat="47.68727" lon="-2.83286">
        <ele>44</ele>
        <time>2021-03-16T11:12:37+01:00</time>
      </trkpt>
      <trkpt lat="47.6873" lon="-2.83291">
        <ele>44</ele>
        <time>2021-03-16T11:12:38+01:00</time>
      </trkpt>
      <trkpt lat="47.68733" lon="-2.83297">
        <ele>44</ele>
        <time>2021-03-16T11:12:39+01:00</time>
      </trkpt>
      <trkpt lat="47.68736" lon="-2.83303">
        <ele>44</ele>
        <time>2021-03-16T11:12:40+01:00</time>
      </trkpt>
      <trkpt lat="47.68738" lon="-2.83309">
        <ele>44</ele>
        <time>2021-03-16T11:12:41+01:00</time>
      </trkpt>
      <trkpt lat="47.68739" lon="-2.83315">
        <ele>43</ele>
        <time>2021-03-16T11:12:42+01:00</time>
      </trkpt>
      <trkpt lat="47.68741" lon="-2.83321">
        <ele>43</ele>
        <time>2021-03-16T11:12:43+01:00</time>
      </trkpt>
      <trkpt lat="47.68743" lon="-2.83327">
        <ele>43</ele>
        <time>2021-03-16T11:12:44+01:00</time>
      </trkpt>
      <trkpt lat="47.68745" lon="-2.83333">
        <ele>43</ele>
        <time>2021-03-16T11:12:45+01:00</time>
      </trkpt>
      <trkpt lat="47.68746" lon="-2.83338">
        <ele>43</ele>
        <time>2021-03-16T11:12:46+01:00</time>
      </trkpt>
      <trkpt lat="47.68747" lon="-2.83343">
        <ele>43</ele>
        <time>2021-03-16T11:12:47+01:00</time>
      </trkpt>
      <trkpt lat="47.68748" lon="-2.83347">
        <ele>43</ele>
        <time>2021-03-16T11:12:48+01:00</time>
      </trkpt>
      <trkpt lat="47.68749" lon="-2.83352">
        <ele>43</ele>
        <time>2021-03-16T11:12:50+01:00</time>
      </trkpt>
      <trkpt lat="47.68751" lon="-2.83356">
        <ele>43</ele>
        <time>2021-03-16T11:12:52+01:00</time>
      </trkpt>
      <trkpt lat="47.68752" lon="-2.83362">
        <ele>43</ele>
        <time>2021-03-16T11:12:56+01:00</time>
      </trkpt>
      <trkpt lat="47.68753" lon="-2.83365">
        <ele>43</ele>
        <time>2021-03-16T11:12:57+01:00</time>
      </trkpt>
      <trkpt lat="47.68756" lon="-2.83369">
        <ele>43</ele>
        <time>2021-03-16T11:12:58+01:00</time>
      </trkpt>
      <trkpt lat="47.68759" lon="-2.83372">
        <ele>43</ele>
        <time>2021-03-16T11:12:59+01:00</time>
      </trkpt>
      <trkpt lat="47.68762" lon="-2.83375">
        <ele>43</ele>
        <time>2021-03-16T11:13:00+01:00</time>
      </trkpt>
      <trkpt lat="47.68765" lon="-2.83377">
        <ele>43</ele>
        <time>2021-03-16T11:13:01+01:00</time>
      </trkpt>
      <trkpt lat="47.68769" lon="-2.8338">
        <ele>43</ele>
        <time>2021-03-16T11:13:02+01:00</time>
      </trkpt>
      <trkpt lat="47.68773" lon="-2.83383">
        <ele>43</ele>
        <time>2021-03-16T11:13:03+01:00</time>
      </trkpt>
      <trkpt lat="47.68776" lon="-2.83386">
        <ele>43</ele>
        <time>2021-03-16T11:13:04+01:00</time>
      </trkpt>
      <trkpt lat="47.6878" lon="-2.83388">
        <ele>43</ele>
        <time>2021-03-16T11:13:05+01:00</time>
      </trkpt>
      <trkpt lat="47.68783" lon="-2.83391">
        <ele>43</ele>
        <time>2021-03-16T11:13:06+01:00</time>
      </trkpt>
      <trkpt lat="47.68787" lon="-2.83394">
        <ele>42</ele>
        <time>2021-03-16T11:13:07+01:00</time>
      </trkpt>
      <trkpt lat="47.6879" lon="-2.83396">
        <ele>42</ele>
        <time>2021-03-16T11:13:08+01:00</time>
      </trkpt>
      <trkpt lat="47.68794" lon="-2.83399">
        <ele>42</ele>
        <time>2021-03-16T11:13:09+01:00</time>
      </trkpt>
      <trkpt lat="47.68797" lon="-2.83402">
        <ele>42</ele>
        <time>2021-03-16T11:13:10+01:00</time>
      </trkpt>
      <trkpt lat="47.68801" lon="-2.83405">
        <ele>42</ele>
        <time>2021-03-16T11:13:11+01:00</time>
      </trkpt>
      <trkpt lat="47.68804" lon="-2.83408">
        <ele>42</ele>
        <time>2021-03-16T11:13:12+01:00</time>
      </trkpt>
      <trkpt lat="47.68807" lon="-2.83412">
        <ele>42</ele>
        <time>2021-03-16T11:13:13+01:00</time>
      </trkpt>
      <trkpt lat="47.68809" lon="-2.83416">
        <ele>42</ele>
        <time>2021-03-16T11:13:14+01:00</time>
      </trkpt>
      <trkpt lat="47.68812" lon="-2.8342">
        <ele>42</ele>
        <time>2021-03-16T11:13:15+01:00</time>
      </trkpt>
      <trkpt lat="47.68814" lon="-2.83424">
        <ele>42</ele>
        <time>2021-03-16T11:13:16+01:00</time>
      </trkpt>
      <trkpt lat="47.68817" lon="-2.83428">
        <ele>42</ele>
        <time>2021-03-16T11:13:17+01:00</time>
      </trkpt>
      <trkpt lat="47.6882" lon="-2.83431">
        <ele>41</ele>
        <time>2021-03-16T11:13:18+01:00</time>
      </trkpt>
      <trkpt lat="47.68823" lon="-2.83434">
        <ele>41</ele>
        <time>2021-03-16T11:13:19+01:00</time>
      </trkpt>
      <trkpt lat="47.68826" lon="-2.83438">
        <ele>41</ele>
        <time>2021-03-16T11:13:20+01:00</time>
      </trkpt>
      <trkpt lat="47.68829" lon="-2.83441">
        <ele>41</ele>
        <time>2021-03-16T11:13:21+01:00</time>
      </trkpt>
      <trkpt lat="47.68832" lon="-2.83444">
        <ele>41</ele>
        <time>2021-03-16T11:13:22+01:00</time>
      </trkpt>
      <trkpt lat="47.68835" lon="-2.83447">
        <ele>41</ele>
        <time>2021-03-16T11:13:23+01:00</time>
      </trkpt>
      <trkpt lat="47.68838" lon="-2.8345">
        <ele>41</ele>
        <time>2021-03-16T11:13:24+01:00</time>
      </trkpt>
      <trkpt lat="47.68841" lon="-2.83453">
        <ele>42</ele>
        <time>2021-03-16T11:13:25+01:00</time>
      </trkpt>
      <trkpt lat="47.68844" lon="-2.83456">
        <ele>42</ele>
        <time>2021-03-16T11:13:26+01:00</time>
      </trkpt>
      <trkpt lat="47.68847" lon="-2.8346">
        <ele>42</ele>
        <time>2021-03-16T11:13:27+01:00</time>
      </trkpt>
      <trkpt lat="47.6885" lon="-2.83463">
        <ele>42</ele>
        <time>2021-03-16T11:13:28+01:00</time>
      </trkpt>
      <trkpt lat="47.68852" lon="-2.83466">
        <ele>42</ele>
        <time>2021-03-16T11:13:29+01:00</time>
      </trkpt>
      <trkpt lat="47.68855" lon="-2.8347">
        <ele>42</ele>
        <time>2021-03-16T11:13:30+01:00</time>
      </trkpt>
      <trkpt lat="47.68858" lon="-2.83473">
        <ele>42</ele>
        <time>2021-03-16T11:13:31+01:00</time>
      </trkpt>
      <trkpt lat="47.68861" lon="-2.83477">
        <ele>42</ele>
        <time>2021-03-16T11:13:32+01:00</time>
      </trkpt>
      <trkpt lat="47.68865" lon="-2.8348">
        <ele>42</ele>
        <time>2021-03-16T11:13:33+01:00</time>
      </trkpt>
      <trkpt lat="47.68868" lon="-2.83483">
        <ele>42</ele>
        <time>2021-03-16T11:13:34+01:00</time>
      </trkpt>
      <trkpt lat="47.68871" lon="-2.83487">
        <ele>42</ele>
        <time>2021-03-16T11:13:35+01:00</time>
      </trkpt>
      <trkpt lat="47.68874" lon="-2.8349">
        <ele>42</ele>
        <time>2021-03-16T11:13:36+01:00</time>
      </trkpt>
      <trkpt lat="47.68878" lon="-2.83494">
        <ele>43</ele>
        <time>2021-03-16T11:13:37+01:00</time>
      </trkpt>
      <trkpt lat="47.68881" lon="-2.83497">
        <ele>43</ele>
        <time>2021-03-16T11:13:38+01:00</time>
      </trkpt>
      <trkpt lat="47.68884" lon="-2.835">
        <ele>43</ele>
        <time>2021-03-16T11:13:39+01:00</time>
      </trkpt>
      <trkpt lat="47.68887" lon="-2.83503">
        <ele>43</ele>
        <time>2021-03-16T11:13:40+01:00</time>
      </trkpt>
      <trkpt lat="47.6889" lon="-2.83506">
        <ele>43</ele>
        <time>2021-03-16T11:13:41+01:00</time>
      </trkpt>
      <trkpt lat="47.68893" lon="-2.8351">
        <ele>43</ele>
        <time>2021-03-16T11:13:42+01:00</time>
      </trkpt>
      <trkpt lat="47.68896" lon="-2.83513">
        <ele>43</ele>
        <time>2021-03-16T11:13:43+01:00</time>
      </trkpt>
      <trkpt lat="47.68899" lon="-2.83516">
        <ele>42</ele>
        <time>2021-03-16T11:13:44+01:00</time>
      </trkpt>
      <trkpt lat="47.68902" lon="-2.83519">
        <ele>42</ele>
        <time>2021-03-16T11:13:45+01:00</time>
      </trkpt>
      <trkpt lat="47.68905" lon="-2.83521">
        <ele>42</ele>
        <time>2021-03-16T11:13:46+01:00</time>
      </trkpt>
      <trkpt lat="47.68908" lon="-2.83524">
        <ele>42</ele>
        <time>2021-03-16T11:13:47+01:00</time>
      </trkpt>
      <trkpt lat="47.68911" lon="-2.83527">
        <ele>42</ele>
        <time>2021-03-16T11:13:48+01:00</time>
      </trkpt>
      <trkpt lat="47.68913" lon="-2.8353">
        <ele>42</ele>
        <time>2021-03-16T11:13:49+01:00</time>
      </trkpt>
      <trkpt lat="47.68915" lon="-2.83533">
        <ele>42</ele>
        <time>2021-03-16T11:13:50+01:00</time>
      </trkpt>
      <trkpt lat="47.68918" lon="-2.83537">
        <ele>42</ele>
        <time>2021-03-16T11:13:51+01:00</time>
      </trkpt>
      <trkpt lat="47.68921" lon="-2.8354">
        <ele>42</ele>
        <time>2021-03-16T11:13:52+01:00</time>
      </trkpt>
      <trkpt lat="47.68925" lon="-2.83544">
        <ele>42</ele>
        <time>2021-03-16T11:13:53+01:00</time>
      </trkpt>
      <trkpt lat="47.68928" lon="-2.83548">
        <ele>42</ele>
        <time>2021-03-16T11:13:54+01:00</time>
      </trkpt>
      <trkpt lat="47.68932" lon="-2.83552">
        <ele>42</ele>
        <time>2021-03-16T11:13:55+01:00</time>
      </trkpt>
      <trkpt lat="47.68935" lon="-2.83556">
        <ele>42</ele>
        <time>2021-03-16T11:13:56+01:00</time>
      </trkpt>
      <trkpt lat="47.68938" lon="-2.8356">
        <ele>42</ele>
        <time>2021-03-16T11:13:57+01:00</time>
      </trkpt>
      <trkpt lat="47.68941" lon="-2.83564">
        <ele>42</ele>
        <time>2021-03-16T11:13:58+01:00</time>
      </trkpt>
      <trkpt lat="47.68944" lon="-2.83568">
        <ele>42</ele>
        <time>2021-03-16T11:13:59+01:00</time>
      </trkpt>
      <trkpt lat="47.68947" lon="-2.83572">
        <ele>41</ele>
        <time>2021-03-16T11:14:00+01:00</time>
      </trkpt>
      <trkpt lat="47.6895" lon="-2.83577">
        <ele>41</ele>
        <time>2021-03-16T11:14:01+01:00</time>
      </trkpt>
      <trkpt lat="47.68953" lon="-2.83581">
        <ele>41</ele>
        <time>2021-03-16T11:14:02+01:00</time>
      </trkpt>
      <trkpt lat="47.68956" lon="-2.83585">
        <ele>41</ele>
        <time>2021-03-16T11:14:03+01:00</time>
      </trkpt>
      <trkpt lat="47.68958" lon="-2.83589">
        <ele>42</ele>
        <time>2021-03-16T11:14:04+01:00</time>
      </trkpt>
      <trkpt lat="47.68961" lon="-2.83593">
        <ele>42</ele>
        <time>2021-03-16T11:14:05+01:00</time>
      </trkpt>
      <trkpt lat="47.68964" lon="-2.83597">
        <ele>42</ele>
        <time>2021-03-16T11:14:06+01:00</time>
      </trkpt>
      <trkpt lat="47.68967" lon="-2.83601">
        <ele>42</ele>
        <time>2021-03-16T11:14:07+01:00</time>
      </trkpt>
      <trkpt lat="47.68969" lon="-2.83605">
        <ele>42</ele>
        <time>2021-03-16T11:14:08+01:00</time>
      </trkpt>
      <trkpt lat="47.68972" lon="-2.83608">
        <ele>42</ele>
        <time>2021-03-16T11:14:09+01:00</time>
      </trkpt>
      <trkpt lat="47.68974" lon="-2.83611">
        <ele>42</ele>
        <time>2021-03-16T11:14:10+01:00</time>
      </trkpt>
      <trkpt lat="47.68977" lon="-2.83614">
        <ele>42</ele>
        <time>2021-03-16T11:14:11+01:00</time>
      </trkpt>
      <trkpt lat="47.6898" lon="-2.83617">
        <ele>42</ele>
        <time>2021-03-16T11:14:12+01:00</time>
      </trkpt>
      <trkpt lat="47.68983" lon="-2.8362">
        <ele>42</ele>
        <time>2021-03-16T11:14:13+01:00</time>
      </trkpt>
      <trkpt lat="47.68987" lon="-2.83623">
        <ele>42</ele>
        <time>2021-03-16T11:14:14+01:00</time>
      </trkpt>
      <trkpt lat="47.6899" lon="-2.83627">
        <ele>42</ele>
        <time>2021-03-16T11:14:15+01:00</time>
      </trkpt>
      <trkpt lat="47.68993" lon="-2.8363">
        <ele>42</ele>
        <time>2021-03-16T11:14:16+01:00</time>
      </trkpt>
      <trkpt lat="47.68996" lon="-2.83633">
        <ele>43</ele>
        <time>2021-03-16T11:14:17+01:00</time>
      </trkpt>
      <trkpt lat="47.69" lon="-2.83635">
        <ele>43</ele>
        <time>2021-03-16T11:14:18+01:00</time>
      </trkpt>
      <trkpt lat="47.69004" lon="-2.83638">
        <ele>43</ele>
        <time>2021-03-16T11:14:19+01:00</time>
      </trkpt>
      <trkpt lat="47.69007" lon="-2.83641">
        <ele>43</ele>
        <time>2021-03-16T11:14:20+01:00</time>
      </trkpt>
      <trkpt lat="47.6901" lon="-2.83644">
        <ele>43</ele>
        <time>2021-03-16T11:14:21+01:00</time>
      </trkpt>
      <trkpt lat="47.69014" lon="-2.83647">
        <ele>43</ele>
        <time>2021-03-16T11:14:22+01:00</time>
      </trkpt>
      <trkpt lat="47.69017" lon="-2.8365">
        <ele>43</ele>
        <time>2021-03-16T11:14:23+01:00</time>
      </trkpt>
      <trkpt lat="47.6902" lon="-2.83653">
        <ele>43</ele>
        <time>2021-03-16T11:14:24+01:00</time>
      </trkpt>
      <trkpt lat="47.69023" lon="-2.83655">
        <ele>43</ele>
        <time>2021-03-16T11:14:25+01:00</time>
      </trkpt>
      <trkpt lat="47.69026" lon="-2.83658">
        <ele>43</ele>
        <time>2021-03-16T11:14:26+01:00</time>
      </trkpt>
      <trkpt lat="47.69029" lon="-2.83661">
        <ele>43</ele>
        <time>2021-03-16T11:14:27+01:00</time>
      </trkpt>
      <trkpt lat="47.69031" lon="-2.83664">
        <ele>43</ele>
        <time>2021-03-16T11:14:28+01:00</time>
      </trkpt>
      <trkpt lat="47.69032" lon="-2.83669">
        <ele>43</ele>
        <time>2021-03-16T11:14:29+01:00</time>
      </trkpt>
      <trkpt lat="47.69032" lon="-2.83674">
        <ele>43</ele>
        <time>2021-03-16T11:14:30+01:00</time>
      </trkpt>
      <trkpt lat="47.69031" lon="-2.8368">
        <ele>43</ele>
        <time>2021-03-16T11:14:31+01:00</time>
      </trkpt>
      <trkpt lat="47.6903" lon="-2.83685">
        <ele>43</ele>
        <time>2021-03-16T11:14:32+01:00</time>
      </trkpt>
      <trkpt lat="47.69029" lon="-2.83691">
        <ele>43</ele>
        <time>2021-03-16T11:14:33+01:00</time>
      </trkpt>
      <trkpt lat="47.69027" lon="-2.83696">
        <ele>43</ele>
        <time>2021-03-16T11:14:34+01:00</time>
      </trkpt>
      <trkpt lat="47.69026" lon="-2.83701">
        <ele>43</ele>
        <time>2021-03-16T11:14:35+01:00</time>
      </trkpt>
      <trkpt lat="47.69024" lon="-2.83706">
        <ele>43</ele>
        <time>2021-03-16T11:14:36+01:00</time>
      </trkpt>
      <trkpt lat="47.69022" lon="-2.8371">
        <ele>43</ele>
        <time>2021-03-16T11:14:37+01:00</time>
      </trkpt>
      <trkpt lat="47.69021" lon="-2.83715">
        <ele>43</ele>
        <time>2021-03-16T11:14:38+01:00</time>
      </trkpt>
      <trkpt lat="47.6902" lon="-2.83719">
        <ele>43</ele>
        <time>2021-03-16T11:14:39+01:00</time>
      </trkpt>
      <trkpt lat="47.69019" lon="-2.83724">
        <ele>43</ele>
        <time>2021-03-16T11:14:40+01:00</time>
      </trkpt>
      <trkpt lat="47.69017" lon="-2.83728">
        <ele>43</ele>
        <time>2021-03-16T11:14:41+01:00</time>
      </trkpt>
      <trkpt lat="47.69016" lon="-2.83732">
        <ele>43</ele>
        <time>2021-03-16T11:14:42+01:00</time>
      </trkpt>
      <trkpt lat="47.69014" lon="-2.83737">
        <ele>43</ele>
        <time>2021-03-16T11:14:43+01:00</time>
      </trkpt>
      <trkpt lat="47.69013" lon="-2.83741">
        <ele>43</ele>
        <time>2021-03-16T11:14:44+01:00</time>
      </trkpt>
      <trkpt lat="47.69012" lon="-2.83746">
        <ele>44</ele>
        <time>2021-03-16T11:14:45+01:00</time>
      </trkpt>
      <trkpt lat="47.69011" lon="-2.8375">
        <ele>44</ele>
        <time>2021-03-16T11:14:46+01:00</time>
      </trkpt>
      <trkpt lat="47.69009" lon="-2.83754">
        <ele>44</ele>
        <time>2021-03-16T11:14:47+01:00</time>
      </trkpt>
      <trkpt lat="47.69007" lon="-2.83758">
        <ele>44</ele>
        <time>2021-03-16T11:14:48+01:00</time>
      </trkpt>
      <trkpt lat="47.69005" lon="-2.83762">
        <ele>44</ele>
        <time>2021-03-16T11:14:49+01:00</time>
      </trkpt>
      <trkpt lat="47.69002" lon="-2.83764">
        <ele>44</ele>
        <time>2021-03-16T11:14:50+01:00</time>
      </trkpt>
      <trkpt lat="47.68998" lon="-2.83767">
        <ele>44</ele>
        <time>2021-03-16T11:14:51+01:00</time>
      </trkpt>
      <trkpt lat="47.68996" lon="-2.8377">
        <ele>44</ele>
        <time>2021-03-16T11:14:52+01:00</time>
      </trkpt>
      <trkpt lat="47.68993" lon="-2.83774">
        <ele>44</ele>
        <time>2021-03-16T11:14:53+01:00</time>
      </trkpt>
      <trkpt lat="47.68991" lon="-2.83778">
        <ele>44</ele>
        <time>2021-03-16T11:14:54+01:00</time>
      </trkpt>
      <trkpt lat="47.6899" lon="-2.83783">
        <ele>45</ele>
        <time>2021-03-16T11:14:55+01:00</time>
      </trkpt>
      <trkpt lat="47.68989" lon="-2.83788">
        <ele>45</ele>
        <time>2021-03-16T11:14:56+01:00</time>
      </trkpt>
      <trkpt lat="47.68988" lon="-2.83792">
        <ele>45</ele>
        <time>2021-03-16T11:14:57+01:00</time>
      </trkpt>
      <trkpt lat="47.68987" lon="-2.83797">
        <ele>45</ele>
        <time>2021-03-16T11:14:58+01:00</time>
      </trkpt>
      <trkpt lat="47.68986" lon="-2.83801">
        <ele>45</ele>
        <time>2021-03-16T11:14:59+01:00</time>
      </trkpt>
      <trkpt lat="47.68985" lon="-2.83806">
        <ele>45</ele>
        <time>2021-03-16T11:15:00+01:00</time>
      </trkpt>
      <trkpt lat="47.68985" lon="-2.83811">
        <ele>45</ele>
        <time>2021-03-16T11:15:01+01:00</time>
      </trkpt>
      <trkpt lat="47.68984" lon="-2.83816">
        <ele>45</ele>
        <time>2021-03-16T11:15:02+01:00</time>
      </trkpt>
      <trkpt lat="47.68983" lon="-2.83821">
        <ele>45</ele>
        <time>2021-03-16T11:15:03+01:00</time>
      </trkpt>
      <trkpt lat="47.68982" lon="-2.83826">
        <ele>46</ele>
        <time>2021-03-16T11:15:04+01:00</time>
      </trkpt>
      <trkpt lat="47.68981" lon="-2.83832">
        <ele>46</ele>
        <time>2021-03-16T11:15:05+01:00</time>
      </trkpt>
      <trkpt lat="47.6898" lon="-2.83837">
        <ele>46</ele>
        <time>2021-03-16T11:15:06+01:00</time>
      </trkpt>
      <trkpt lat="47.68979" lon="-2.83842">
        <ele>46</ele>
        <time>2021-03-16T11:15:07+01:00</time>
      </trkpt>
      <trkpt lat="47.68979" lon="-2.83847">
        <ele>46</ele>
        <time>2021-03-16T11:15:08+01:00</time>
      </trkpt>
      <trkpt lat="47.68978" lon="-2.83853">
        <ele>46</ele>
        <time>2021-03-16T11:15:09+01:00</time>
      </trkpt>
      <trkpt lat="47.68977" lon="-2.83859">
        <ele>46</ele>
        <time>2021-03-16T11:15:10+01:00</time>
      </trkpt>
      <trkpt lat="47.68977" lon="-2.83865">
        <ele>46</ele>
        <time>2021-03-16T11:15:11+01:00</time>
      </trkpt>
      <trkpt lat="47.68976" lon="-2.83871">
        <ele>46</ele>
        <time>2021-03-16T11:15:12+01:00</time>
      </trkpt>
      <trkpt lat="47.68975" lon="-2.83876">
        <ele>46</ele>
        <time>2021-03-16T11:15:13+01:00</time>
      </trkpt>
      <trkpt lat="47.68975" lon="-2.83882">
        <ele>46</ele>
        <time>2021-03-16T11:15:14+01:00</time>
      </trkpt>
      <trkpt lat="47.68974" lon="-2.83888">
        <ele>46</ele>
        <time>2021-03-16T11:15:15+01:00</time>
      </trkpt>
      <trkpt lat="47.68974" lon="-2.83894">
        <ele>46</ele>
        <time>2021-03-16T11:15:16+01:00</time>
      </trkpt>
      <trkpt lat="47.68974" lon="-2.83899">
        <ele>46</ele>
        <time>2021-03-16T11:15:17+01:00</time>
      </trkpt>
      <trkpt lat="47.68975" lon="-2.83905">
        <ele>46</ele>
        <time>2021-03-16T11:15:18+01:00</time>
      </trkpt>
      <trkpt lat="47.68975" lon="-2.8391">
        <ele>46</ele>
        <time>2021-03-16T11:15:19+01:00</time>
      </trkpt>
      <trkpt lat="47.68974" lon="-2.83915">
        <ele>46</ele>
        <time>2021-03-16T11:15:20+01:00</time>
      </trkpt>
      <trkpt lat="47.68974" lon="-2.83919">
        <ele>46</ele>
        <time>2021-03-16T11:15:21+01:00</time>
      </trkpt>
      <trkpt lat="47.68974" lon="-2.83924">
        <ele>46</ele>
        <time>2021-03-16T11:15:23+01:00</time>
      </trkpt>
      <trkpt lat="47.68972" lon="-2.83927">
        <ele>46</ele>
        <time>2021-03-16T11:15:26+01:00</time>
      </trkpt>
      <trkpt lat="47.6897" lon="-2.83929">
        <ele>46</ele>
        <time>2021-03-16T11:15:28+01:00</time>
      </trkpt>
      <trkpt lat="47.68967" lon="-2.83931">
        <ele>46</ele>
        <time>2021-03-16T11:15:30+01:00</time>
      </trkpt>
      <trkpt lat="47.68964" lon="-2.83933">
        <ele>46</ele>
        <time>2021-03-16T11:15:32+01:00</time>
      </trkpt>
      <trkpt lat="47.6896" lon="-2.83933">
        <ele>46</ele>
        <time>2021-03-16T11:15:34+01:00</time>
      </trkpt>
      <trkpt lat="47.68957" lon="-2.83933">
        <ele>46</ele>
        <time>2021-03-16T11:15:35+01:00</time>
      </trkpt>
      <trkpt lat="47.68952" lon="-2.83933">
        <ele>46</ele>
        <time>2021-03-16T11:15:37+01:00</time>
      </trkpt>
      <trkpt lat="47.68949" lon="-2.83933">
        <ele>46</ele>
        <time>2021-03-16T11:15:38+01:00</time>
      </trkpt>
      <trkpt lat="47.68946" lon="-2.83933">
        <ele>47</ele>
        <time>2021-03-16T11:15:39+01:00</time>
      </trkpt>
      <trkpt lat="47.68942" lon="-2.83933">
        <ele>47</ele>
        <time>2021-03-16T11:15:40+01:00</time>
      </trkpt>
      <trkpt lat="47.68939" lon="-2.83933">
        <ele>47</ele>
        <time>2021-03-16T11:15:41+01:00</time>
      </trkpt>
      <trkpt lat="47.68937" lon="-2.83932">
        <ele>47</ele>
        <time>2021-03-16T11:15:42+01:00</time>
      </trkpt>
      <trkpt lat="47.68934" lon="-2.83931">
        <ele>47</ele>
        <time>2021-03-16T11:15:43+01:00</time>
      </trkpt>
      <trkpt lat="47.6893" lon="-2.83929">
        <ele>47</ele>
        <time>2021-03-16T11:15:45+01:00</time>
      </trkpt>
      <trkpt lat="47.68925" lon="-2.8393">
        <ele>47</ele>
        <time>2021-03-16T11:15:47+01:00</time>
      </trkpt>
      <trkpt lat="47.68923" lon="-2.83933">
        <ele>47</ele>
        <time>2021-03-16T11:15:48+01:00</time>
      </trkpt>
      <trkpt lat="47.68922" lon="-2.83938">
        <ele>47</ele>
        <time>2021-03-16T11:15:49+01:00</time>
      </trkpt>
      <trkpt lat="47.68921" lon="-2.83943">
        <ele>47</ele>
        <time>2021-03-16T11:15:50+01:00</time>
      </trkpt>
      <trkpt lat="47.6892" lon="-2.83949">
        <ele>47</ele>
        <time>2021-03-16T11:15:51+01:00</time>
      </trkpt>
      <trkpt lat="47.68919" lon="-2.83954">
        <ele>47</ele>
        <time>2021-03-16T11:15:52+01:00</time>
      </trkpt>
      <trkpt lat="47.68918" lon="-2.83959">
        <ele>46</ele>
        <time>2021-03-16T11:15:53+01:00</time>
      </trkpt>
      <trkpt lat="47.68917" lon="-2.83965">
        <ele>46</ele>
        <time>2021-03-16T11:15:54+01:00</time>
      </trkpt>
      <trkpt lat="47.68916" lon="-2.8397">
        <ele>46</ele>
        <time>2021-03-16T11:15:55+01:00</time>
      </trkpt>
      <trkpt lat="47.68915" lon="-2.83975">
        <ele>46</ele>
        <time>2021-03-16T11:15:56+01:00</time>
      </trkpt>
      <trkpt lat="47.68915" lon="-2.8398">
        <ele>46</ele>
        <time>2021-03-16T11:15:57+01:00</time>
      </trkpt>
      <trkpt lat="47.68916" lon="-2.83986">
        <ele>46</ele>
        <time>2021-03-16T11:15:58+01:00</time>
      </trkpt>
      <trkpt lat="47.68916" lon="-2.83992">
        <ele>46</ele>
        <time>2021-03-16T11:15:59+01:00</time>
      </trkpt>
      <trkpt lat="47.68915" lon="-2.83998">
        <ele>46</ele>
        <time>2021-03-16T11:16:00+01:00</time>
      </trkpt>
      <trkpt lat="47.68912" lon="-2.84003">
        <ele>46</ele>
        <time>2021-03-16T11:16:01+01:00</time>
      </trkpt>
      <trkpt lat="47.68909" lon="-2.84007">
        <ele>46</ele>
        <time>2021-03-16T11:16:02+01:00</time>
      </trkpt>
      <trkpt lat="47.68904" lon="-2.8401">
        <ele>46</ele>
        <time>2021-03-16T11:16:03+01:00</time>
      </trkpt>
      <trkpt lat="47.689" lon="-2.84012">
        <ele>47</ele>
        <time>2021-03-16T11:16:04+01:00</time>
      </trkpt>
      <trkpt lat="47.68896" lon="-2.84014">
        <ele>47</ele>
        <time>2021-03-16T11:16:05+01:00</time>
      </trkpt>
      <trkpt lat="47.68891" lon="-2.84017">
        <ele>47</ele>
        <time>2021-03-16T11:16:06+01:00</time>
      </trkpt>
      <trkpt lat="47.68887" lon="-2.8402">
        <ele>47</ele>
        <time>2021-03-16T11:16:07+01:00</time>
      </trkpt>
      <trkpt lat="47.68884" lon="-2.84024">
        <ele>47</ele>
        <time>2021-03-16T11:16:08+01:00</time>
      </trkpt>
      <trkpt lat="47.68881" lon="-2.84028">
        <ele>47</ele>
        <time>2021-03-16T11:16:09+01:00</time>
      </trkpt>
      <trkpt lat="47.6888" lon="-2.84034">
        <ele>47</ele>
        <time>2021-03-16T11:16:10+01:00</time>
      </trkpt>
      <trkpt lat="47.68879" lon="-2.8404">
        <ele>47</ele>
        <time>2021-03-16T11:16:11+01:00</time>
      </trkpt>
      <trkpt lat="47.6888" lon="-2.84046">
        <ele>46</ele>
        <time>2021-03-16T11:16:12+01:00</time>
      </trkpt>
      <trkpt lat="47.6888" lon="-2.84052">
        <ele>46</ele>
        <time>2021-03-16T11:16:13+01:00</time>
      </trkpt>
      <trkpt lat="47.68881" lon="-2.84059">
        <ele>46</ele>
        <time>2021-03-16T11:16:14+01:00</time>
      </trkpt>
      <trkpt lat="47.68882" lon="-2.84065">
        <ele>46</ele>
        <time>2021-03-16T11:16:15+01:00</time>
      </trkpt>
      <trkpt lat="47.68882" lon="-2.84072">
        <ele>46</ele>
        <time>2021-03-16T11:16:16+01:00</time>
      </trkpt>
      <trkpt lat="47.68883" lon="-2.84079">
        <ele>46</ele>
        <time>2021-03-16T11:16:17+01:00</time>
      </trkpt>
      <trkpt lat="47.68884" lon="-2.84085">
        <ele>45</ele>
        <time>2021-03-16T11:16:18+01:00</time>
      </trkpt>
      <trkpt lat="47.68884" lon="-2.84092">
        <ele>45</ele>
        <time>2021-03-16T11:16:19+01:00</time>
      </trkpt>
      <trkpt lat="47.68885" lon="-2.84099">
        <ele>45</ele>
        <time>2021-03-16T11:16:20+01:00</time>
      </trkpt>
      <trkpt lat="47.68885" lon="-2.84105">
        <ele>45</ele>
        <time>2021-03-16T11:16:21+01:00</time>
      </trkpt>
      <trkpt lat="47.68885" lon="-2.84112">
        <ele>44</ele>
        <time>2021-03-16T11:16:22+01:00</time>
      </trkpt>
      <trkpt lat="47.68883" lon="-2.84119">
        <ele>44</ele>
        <time>2021-03-16T11:16:23+01:00</time>
      </trkpt>
      <trkpt lat="47.68881" lon="-2.84127">
        <ele>44</ele>
        <time>2021-03-16T11:16:24+01:00</time>
      </trkpt>
      <trkpt lat="47.68878" lon="-2.84134">
        <ele>43</ele>
        <time>2021-03-16T11:16:25+01:00</time>
      </trkpt>
      <trkpt lat="47.68876" lon="-2.84142">
        <ele>43</ele>
        <time>2021-03-16T11:16:26+01:00</time>
      </trkpt>
      <trkpt lat="47.68875" lon="-2.84151">
        <ele>43</ele>
        <time>2021-03-16T11:16:27+01:00</time>
      </trkpt>
      <trkpt lat="47.68874" lon="-2.8416">
        <ele>42</ele>
        <time>2021-03-16T11:16:28+01:00</time>
      </trkpt>
      <trkpt lat="47.68874" lon="-2.84168">
        <ele>42</ele>
        <time>2021-03-16T11:16:29+01:00</time>
      </trkpt>
      <trkpt lat="47.68873" lon="-2.84176">
        <ele>42</ele>
        <time>2021-03-16T11:16:30+01:00</time>
      </trkpt>
      <trkpt lat="47.68873" lon="-2.84184">
        <ele>42</ele>
        <time>2021-03-16T11:16:31+01:00</time>
      </trkpt>
      <trkpt lat="47.68872" lon="-2.84192">
        <ele>42</ele>
        <time>2021-03-16T11:16:32+01:00</time>
      </trkpt>
      <trkpt lat="47.68872" lon="-2.84201">
        <ele>42</ele>
        <time>2021-03-16T11:16:33+01:00</time>
      </trkpt>
      <trkpt lat="47.68871" lon="-2.84209">
        <ele>42</ele>
        <time>2021-03-16T11:16:34+01:00</time>
      </trkpt>
      <trkpt lat="47.6887" lon="-2.84217">
        <ele>42</ele>
        <time>2021-03-16T11:16:35+01:00</time>
      </trkpt>
      <trkpt lat="47.68869" lon="-2.84225">
        <ele>42</ele>
        <time>2021-03-16T11:16:36+01:00</time>
      </trkpt>
      <trkpt lat="47.68868" lon="-2.84233">
        <ele>42</ele>
        <time>2021-03-16T11:16:37+01:00</time>
      </trkpt>
      <trkpt lat="47.68868" lon="-2.8424">
        <ele>42</ele>
        <time>2021-03-16T11:16:38+01:00</time>
      </trkpt>
      <trkpt lat="47.68869" lon="-2.84247">
        <ele>42</ele>
        <time>2021-03-16T11:16:39+01:00</time>
      </trkpt>
      <trkpt lat="47.68871" lon="-2.84252">
        <ele>42</ele>
        <time>2021-03-16T11:16:40+01:00</time>
      </trkpt>
      <trkpt lat="47.68874" lon="-2.84254">
        <ele>42</ele>
        <time>2021-03-16T11:16:41+01:00</time>
      </trkpt>
      <trkpt lat="47.68878" lon="-2.84254">
        <ele>42</ele>
        <time>2021-03-16T11:16:42+01:00</time>
      </trkpt>
      <trkpt lat="47.68882" lon="-2.84253">
        <ele>42</ele>
        <time>2021-03-16T11:16:43+01:00</time>
      </trkpt>
      <trkpt lat="47.68885" lon="-2.84251">
        <ele>42</ele>
        <time>2021-03-16T11:16:44+01:00</time>
      </trkpt>
      <trkpt lat="47.68889" lon="-2.8425">
        <ele>42</ele>
        <time>2021-03-16T11:16:45+01:00</time>
      </trkpt>
      <trkpt lat="47.68893" lon="-2.84248">
        <ele>42</ele>
        <time>2021-03-16T11:16:46+01:00</time>
      </trkpt>
      <trkpt lat="47.68897" lon="-2.84247">
        <ele>43</ele>
        <time>2021-03-16T11:16:47+01:00</time>
      </trkpt>
      <trkpt lat="47.68901" lon="-2.84246">
        <ele>43</ele>
        <time>2021-03-16T11:16:48+01:00</time>
      </trkpt>
      <trkpt lat="47.68904" lon="-2.84245">
        <ele>43</ele>
        <time>2021-03-16T11:16:49+01:00</time>
      </trkpt>
      <trkpt lat="47.68907" lon="-2.84243">
        <ele>43</ele>
        <time>2021-03-16T11:16:50+01:00</time>
      </trkpt>
      <trkpt lat="47.6891" lon="-2.84239">
        <ele>43</ele>
        <time>2021-03-16T11:16:52+01:00</time>
      </trkpt>
      <trkpt lat="47.68912" lon="-2.84235">
        <ele>43</ele>
        <time>2021-03-16T11:16:53+01:00</time>
      </trkpt>
      <trkpt lat="47.68912" lon="-2.8423">
        <ele>43</ele>
        <time>2021-03-16T11:16:54+01:00</time>
      </trkpt>
      <trkpt lat="47.68913" lon="-2.84226">
        <ele>43</ele>
        <time>2021-03-16T11:16:55+01:00</time>
      </trkpt>
      <trkpt lat="47.68915" lon="-2.84221">
        <ele>43</ele>
        <time>2021-03-16T11:16:56+01:00</time>
      </trkpt>
      <trkpt lat="47.68917" lon="-2.84218">
        <ele>43</ele>
        <time>2021-03-16T11:16:57+01:00</time>
      </trkpt>
      <trkpt lat="47.6892" lon="-2.84217">
        <ele>43</ele>
        <time>2021-03-16T11:16:58+01:00</time>
      </trkpt>
      <trkpt lat="47.68924" lon="-2.84216">
        <ele>43</ele>
        <time>2021-03-16T11:16:59+01:00</time>
      </trkpt>
      <trkpt lat="47.68928" lon="-2.84217">
        <ele>42</ele>
        <time>2021-03-16T11:17:00+01:00</time>
      </trkpt>
      <trkpt lat="47.68932" lon="-2.84218">
        <ele>42</ele>
        <time>2021-03-16T11:17:01+01:00</time>
      </trkpt>
      <trkpt lat="47.68935" lon="-2.84221">
        <ele>42</ele>
        <time>2021-03-16T11:17:02+01:00</time>
      </trkpt>
      <trkpt lat="47.68937" lon="-2.84226">
        <ele>42</ele>
        <time>2021-03-16T11:17:03+01:00</time>
      </trkpt>
      <trkpt lat="47.68938" lon="-2.84232">
        <ele>42</ele>
        <time>2021-03-16T11:17:04+01:00</time>
      </trkpt>
      <trkpt lat="47.68938" lon="-2.84238">
        <ele>42</ele>
        <time>2021-03-16T11:17:05+01:00</time>
      </trkpt>
      <trkpt lat="47.68939" lon="-2.84245">
        <ele>42</ele>
        <time>2021-03-16T11:17:06+01:00</time>
      </trkpt>
      <trkpt lat="47.68939" lon="-2.84251">
        <ele>42</ele>
        <time>2021-03-16T11:17:07+01:00</time>
      </trkpt>
      <trkpt lat="47.68939" lon="-2.84258">
        <ele>42</ele>
        <time>2021-03-16T11:17:08+01:00</time>
      </trkpt>
      <trkpt lat="47.6894" lon="-2.84264">
        <ele>42</ele>
        <time>2021-03-16T11:17:09+01:00</time>
      </trkpt>
      <trkpt lat="47.68941" lon="-2.8427">
        <ele>42</ele>
        <time>2021-03-16T11:17:10+01:00</time>
      </trkpt>
      <trkpt lat="47.68942" lon="-2.84276">
        <ele>42</ele>
        <time>2021-03-16T11:17:11+01:00</time>
      </trkpt>
      <trkpt lat="47.68943" lon="-2.84282">
        <ele>42</ele>
        <time>2021-03-16T11:17:12+01:00</time>
      </trkpt>
      <trkpt lat="47.68944" lon="-2.84288">
        <ele>41</ele>
        <time>2021-03-16T11:17:13+01:00</time>
      </trkpt>
      <trkpt lat="47.68944" lon="-2.84294">
        <ele>41</ele>
        <time>2021-03-16T11:17:14+01:00</time>
      </trkpt>
      <trkpt lat="47.68945" lon="-2.84299">
        <ele>41</ele>
        <time>2021-03-16T11:17:15+01:00</time>
      </trkpt>
      <trkpt lat="47.68945" lon="-2.84305">
        <ele>41</ele>
        <time>2021-03-16T11:17:16+01:00</time>
      </trkpt>
      <trkpt lat="47.68946" lon="-2.84311">
        <ele>41</ele>
        <time>2021-03-16T11:17:17+01:00</time>
      </trkpt>
      <trkpt lat="47.68948" lon="-2.84316">
        <ele>41</ele>
        <time>2021-03-16T11:17:18+01:00</time>
      </trkpt>
      <trkpt lat="47.68951" lon="-2.8432">
        <ele>40</ele>
        <time>2021-03-16T11:17:19+01:00</time>
      </trkpt>
      <trkpt lat="47.68955" lon="-2.84322">
        <ele>40</ele>
        <time>2021-03-16T11:17:20+01:00</time>
      </trkpt>
      <trkpt lat="47.68959" lon="-2.84324">
        <ele>40</ele>
        <time>2021-03-16T11:17:21+01:00</time>
      </trkpt>
      <trkpt lat="47.68963" lon="-2.84324">
        <ele>40</ele>
        <time>2021-03-16T11:17:22+01:00</time>
      </trkpt>
      <trkpt lat="47.68967" lon="-2.84324">
        <ele>40</ele>
        <time>2021-03-16T11:17:23+01:00</time>
      </trkpt>
      <trkpt lat="47.68971" lon="-2.84324">
        <ele>40</ele>
        <time>2021-03-16T11:17:24+01:00</time>
      </trkpt>
      <trkpt lat="47.68976" lon="-2.84324">
        <ele>40</ele>
        <time>2021-03-16T11:17:25+01:00</time>
      </trkpt>
      <trkpt lat="47.6898" lon="-2.84325">
        <ele>40</ele>
        <time>2021-03-16T11:17:26+01:00</time>
      </trkpt>
      <trkpt lat="47.68983" lon="-2.84325">
        <ele>40</ele>
        <time>2021-03-16T11:17:27+01:00</time>
      </trkpt>
      <trkpt lat="47.68987" lon="-2.84325">
        <ele>40</ele>
        <time>2021-03-16T11:17:28+01:00</time>
      </trkpt>
      <trkpt lat="47.6899" lon="-2.84326">
        <ele>39</ele>
        <time>2021-03-16T11:17:29+01:00</time>
      </trkpt>
      <trkpt lat="47.68994" lon="-2.84327">
        <ele>39</ele>
        <time>2021-03-16T11:17:30+01:00</time>
      </trkpt>
      <trkpt lat="47.68997" lon="-2.84329">
        <ele>39</ele>
        <time>2021-03-16T11:17:31+01:00</time>
      </trkpt>
      <trkpt lat="47.69" lon="-2.84329">
        <ele>39</ele>
        <time>2021-03-16T11:17:32+01:00</time>
      </trkpt>
      <trkpt lat="47.69004" lon="-2.8433">
        <ele>39</ele>
        <time>2021-03-16T11:17:33+01:00</time>
      </trkpt>
      <trkpt lat="47.69008" lon="-2.84331">
        <ele>39</ele>
        <time>2021-03-16T11:17:34+01:00</time>
      </trkpt>
      <trkpt lat="47.69011" lon="-2.84332">
        <ele>39</ele>
        <time>2021-03-16T11:17:35+01:00</time>
      </trkpt>
      <trkpt lat="47.69015" lon="-2.84333">
        <ele>40</ele>
        <time>2021-03-16T11:17:36+01:00</time>
      </trkpt>
      <trkpt lat="47.69019" lon="-2.84333">
        <ele>40</ele>
        <time>2021-03-16T11:17:37+01:00</time>
      </trkpt>
      <trkpt lat="47.69024" lon="-2.84334">
        <ele>40</ele>
        <time>2021-03-16T11:17:38+01:00</time>
      </trkpt>
      <trkpt lat="47.69027" lon="-2.84333">
        <ele>40</ele>
        <time>2021-03-16T11:17:39+01:00</time>
      </trkpt>
      <trkpt lat="47.69031" lon="-2.84333">
        <ele>40</ele>
        <time>2021-03-16T11:17:40+01:00</time>
      </trkpt>
      <trkpt lat="47.69034" lon="-2.84333">
        <ele>40</ele>
        <time>2021-03-16T11:17:41+01:00</time>
      </trkpt>
      <trkpt lat="47.69038" lon="-2.84332">
        <ele>40</ele>
        <time>2021-03-16T11:17:42+01:00</time>
      </trkpt>
      <trkpt lat="47.69042" lon="-2.84332">
        <ele>41</ele>
        <time>2021-03-16T11:17:43+01:00</time>
      </trkpt>
      <trkpt lat="47.69045" lon="-2.84332">
        <ele>41</ele>
        <time>2021-03-16T11:17:44+01:00</time>
      </trkpt>
      <trkpt lat="47.69049" lon="-2.84333">
        <ele>41</ele>
        <time>2021-03-16T11:17:45+01:00</time>
      </trkpt>
      <trkpt lat="47.69053" lon="-2.84333">
        <ele>41</ele>
        <time>2021-03-16T11:17:46+01:00</time>
      </trkpt>
      <trkpt lat="47.69057" lon="-2.84334">
        <ele>41</ele>
        <time>2021-03-16T11:17:47+01:00</time>
      </trkpt>
      <trkpt lat="47.69061" lon="-2.84334">
        <ele>41</ele>
        <time>2021-03-16T11:17:48+01:00</time>
      </trkpt>
      <trkpt lat="47.69064" lon="-2.84334">
        <ele>41</ele>
        <time>2021-03-16T11:17:49+01:00</time>
      </trkpt>
      <trkpt lat="47.69068" lon="-2.84335">
        <ele>41</ele>
        <time>2021-03-16T11:17:50+01:00</time>
      </trkpt>
      <trkpt lat="47.69071" lon="-2.84335">
        <ele>41</ele>
        <time>2021-03-16T11:17:51+01:00</time>
      </trkpt>
      <trkpt lat="47.69074" lon="-2.84335">
        <ele>42</ele>
        <time>2021-03-16T11:17:52+01:00</time>
      </trkpt>
      <trkpt lat="47.69078" lon="-2.84336">
        <ele>42</ele>
        <time>2021-03-16T11:17:53+01:00</time>
      </trkpt>
      <trkpt lat="47.69082" lon="-2.84336">
        <ele>42</ele>
        <time>2021-03-16T11:17:54+01:00</time>
      </trkpt>
      <trkpt lat="47.69086" lon="-2.84337">
        <ele>42</ele>
        <time>2021-03-16T11:17:55+01:00</time>
      </trkpt>
      <trkpt lat="47.6909" lon="-2.84337">
        <ele>42</ele>
        <time>2021-03-16T11:17:56+01:00</time>
      </trkpt>
      <trkpt lat="47.69093" lon="-2.84337">
        <ele>42</ele>
        <time>2021-03-16T11:17:57+01:00</time>
      </trkpt>
      <trkpt lat="47.69097" lon="-2.84337">
        <ele>42</ele>
        <time>2021-03-16T11:17:58+01:00</time>
      </trkpt>
      <trkpt lat="47.691" lon="-2.84337">
        <ele>41</ele>
        <time>2021-03-16T11:17:59+01:00</time>
      </trkpt>
      <trkpt lat="47.69103" lon="-2.84337">
        <ele>41</ele>
        <time>2021-03-16T11:18:00+01:00</time>
      </trkpt>
      <trkpt lat="47.69106" lon="-2.84336">
        <ele>41</ele>
        <time>2021-03-16T11:18:01+01:00</time>
      </trkpt>
      <trkpt lat="47.69108" lon="-2.84334">
        <ele>41</ele>
        <time>2021-03-16T11:18:02+01:00</time>
      </trkpt>
      <trkpt lat="47.69112" lon="-2.84333">
        <ele>41</ele>
        <time>2021-03-16T11:18:03+01:00</time>
      </trkpt>
      <trkpt lat="47.69115" lon="-2.84332">
        <ele>41</ele>
        <time>2021-03-16T11:18:04+01:00</time>
      </trkpt>
      <trkpt lat="47.69119" lon="-2.84331">
        <ele>41</ele>
        <time>2021-03-16T11:18:05+01:00</time>
      </trkpt>
      <trkpt lat="47.69122" lon="-2.84332">
        <ele>41</ele>
        <time>2021-03-16T11:18:06+01:00</time>
      </trkpt>
      <trkpt lat="47.69124" lon="-2.84334">
        <ele>41</ele>
        <time>2021-03-16T11:18:07+01:00</time>
      </trkpt>
      <trkpt lat="47.69125" lon="-2.84338">
        <ele>41</ele>
        <time>2021-03-16T11:18:08+01:00</time>
      </trkpt>
      <trkpt lat="47.69125" lon="-2.84342">
        <ele>41</ele>
        <time>2021-03-16T11:18:09+01:00</time>
      </trkpt>
      <trkpt lat="47.69124" lon="-2.84347">
        <ele>41</ele>
        <time>2021-03-16T11:18:10+01:00</time>
      </trkpt>
      <trkpt lat="47.69123" lon="-2.84352">
        <ele>41</ele>
        <time>2021-03-16T11:18:11+01:00</time>
      </trkpt>
      <trkpt lat="47.69121" lon="-2.84357">
        <ele>41</ele>
        <time>2021-03-16T11:18:12+01:00</time>
      </trkpt>
      <trkpt lat="47.6912" lon="-2.84362">
        <ele>41</ele>
        <time>2021-03-16T11:18:13+01:00</time>
      </trkpt>
      <trkpt lat="47.69119" lon="-2.84368">
        <ele>40</ele>
        <time>2021-03-16T11:18:14+01:00</time>
      </trkpt>
      <trkpt lat="47.69118" lon="-2.84373">
        <ele>40</ele>
        <time>2021-03-16T11:18:15+01:00</time>
      </trkpt>
      <trkpt lat="47.69118" lon="-2.8438">
        <ele>40</ele>
        <time>2021-03-16T11:18:16+01:00</time>
      </trkpt>
      <trkpt lat="47.69117" lon="-2.84386">
        <ele>40</ele>
        <time>2021-03-16T11:18:17+01:00</time>
      </trkpt>
      <trkpt lat="47.69117" lon="-2.84393">
        <ele>40</ele>
        <time>2021-03-16T11:18:18+01:00</time>
      </trkpt>
      <trkpt lat="47.69116" lon="-2.84401">
        <ele>40</ele>
        <time>2021-03-16T11:18:19+01:00</time>
      </trkpt>
      <trkpt lat="47.69116" lon="-2.84408">
        <ele>40</ele>
        <time>2021-03-16T11:18:20+01:00</time>
      </trkpt>
      <trkpt lat="47.69116" lon="-2.84415">
        <ele>39</ele>
        <time>2021-03-16T11:18:21+01:00</time>
      </trkpt>
      <trkpt lat="47.69116" lon="-2.84423">
        <ele>39</ele>
        <time>2021-03-16T11:18:22+01:00</time>
      </trkpt>
      <trkpt lat="47.69117" lon="-2.8443">
        <ele>40</ele>
        <time>2021-03-16T11:18:23+01:00</time>
      </trkpt>
      <trkpt lat="47.69119" lon="-2.84436">
        <ele>40</ele>
        <time>2021-03-16T11:18:24+01:00</time>
      </trkpt>
      <trkpt lat="47.6912" lon="-2.84441">
        <ele>40</ele>
        <time>2021-03-16T11:18:25+01:00</time>
      </trkpt>
      <trkpt lat="47.69121" lon="-2.84446">
        <ele>40</ele>
        <time>2021-03-16T11:18:27+01:00</time>
      </trkpt>
      <trkpt lat="47.69122" lon="-2.84462">
        <ele>40</ele>
        <time>2021-03-16T11:37:02+01:00</time>
      </trkpt>
      <trkpt lat="47.69122" lon="-2.84465">
        <ele>40</ele>
        <time>2021-03-16T11:37:04+01:00</time>
      </trkpt>
      <trkpt lat="47.69121" lon="-2.8447">
        <ele>40</ele>
        <time>2021-03-16T11:37:06+01:00</time>
      </trkpt>
      <trkpt lat="47.6912" lon="-2.84475">
        <ele>40</ele>
        <time>2021-03-16T11:37:07+01:00</time>
      </trkpt>
      <trkpt lat="47.69119" lon="-2.8448">
        <ele>40</ele>
        <time>2021-03-16T11:37:08+01:00</time>
      </trkpt>
      <trkpt lat="47.69118" lon="-2.84484">
        <ele>40</ele>
        <time>2021-03-16T11:37:09+01:00</time>
      </trkpt>
      <trkpt lat="47.69118" lon="-2.84488">
        <ele>40</ele>
        <time>2021-03-16T11:37:10+01:00</time>
      </trkpt>
      <trkpt lat="47.69117" lon="-2.84493">
        <ele>40</ele>
        <time>2021-03-16T11:37:11+01:00</time>
      </trkpt>
      <trkpt lat="47.69117" lon="-2.84497">
        <ele>40</ele>
        <time>2021-03-16T11:37:12+01:00</time>
      </trkpt>
      <trkpt lat="47.69116" lon="-2.84502">
        <ele>40</ele>
        <time>2021-03-16T11:37:13+01:00</time>
      </trkpt>
      <trkpt lat="47.69116" lon="-2.84507">
        <ele>40</ele>
        <time>2021-03-16T11:37:14+01:00</time>
      </trkpt>
      <trkpt lat="47.69115" lon="-2.84512">
        <ele>40</ele>
        <time>2021-03-16T11:37:15+01:00</time>
      </trkpt>
      <trkpt lat="47.69113" lon="-2.84516">
        <ele>40</ele>
        <time>2021-03-16T11:37:16+01:00</time>
      </trkpt>
      <trkpt lat="47.69112" lon="-2.84521">
        <ele>40</ele>
        <time>2021-03-16T11:37:17+01:00</time>
      </trkpt>
      <trkpt lat="47.69109" lon="-2.84525">
        <ele>40</ele>
        <time>2021-03-16T11:37:18+01:00</time>
      </trkpt>
      <trkpt lat="47.69107" lon="-2.84529">
        <ele>40</ele>
        <time>2021-03-16T11:37:19+01:00</time>
      </trkpt>
      <trkpt lat="47.69104" lon="-2.84532">
        <ele>40</ele>
        <time>2021-03-16T11:37:20+01:00</time>
      </trkpt>
      <trkpt lat="47.69101" lon="-2.84536">
        <ele>40</ele>
        <time>2021-03-16T11:37:22+01:00</time>
      </trkpt>
      <trkpt lat="47.69099" lon="-2.8454">
        <ele>40</ele>
        <time>2021-03-16T11:38:10+01:00</time>
      </trkpt>
      <trkpt lat="47.69096" lon="-2.84545">
        <ele>40</ele>
        <time>2021-03-16T11:38:12+01:00</time>
      </trkpt>
      <trkpt lat="47.69095" lon="-2.84549">
        <ele>40</ele>
        <time>2021-03-16T11:38:13+01:00</time>
      </trkpt>
      <trkpt lat="47.69093" lon="-2.84553">
        <ele>40</ele>
        <time>2021-03-16T11:38:14+01:00</time>
      </trkpt>
      <trkpt lat="47.69092" lon="-2.84557">
        <ele>39</ele>
        <time>2021-03-16T11:38:15+01:00</time>
      </trkpt>
      <trkpt lat="47.6909" lon="-2.84561">
        <ele>39</ele>
        <time>2021-03-16T11:38:16+01:00</time>
      </trkpt>
      <trkpt lat="47.69089" lon="-2.84566">
        <ele>39</ele>
        <time>2021-03-16T11:38:17+01:00</time>
      </trkpt>
      <trkpt lat="47.69087" lon="-2.84571">
        <ele>39</ele>
        <time>2021-03-16T11:38:18+01:00</time>
      </trkpt>
      <trkpt lat="47.69085" lon="-2.84575">
        <ele>39</ele>
        <time>2021-03-16T11:38:19+01:00</time>
      </trkpt>
      <trkpt lat="47.69082" lon="-2.84579">
        <ele>39</ele>
        <time>2021-03-16T11:38:20+01:00</time>
      </trkpt>
      <trkpt lat="47.6908" lon="-2.84584">
        <ele>39</ele>
        <time>2021-03-16T11:38:21+01:00</time>
      </trkpt>
      <trkpt lat="47.69078" lon="-2.84589">
        <ele>39</ele>
        <time>2021-03-16T11:38:22+01:00</time>
      </trkpt>
      <trkpt lat="47.69076" lon="-2.84593">
        <ele>39</ele>
        <time>2021-03-16T11:38:23+01:00</time>
      </trkpt>
      <trkpt lat="47.69074" lon="-2.84598">
        <ele>38</ele>
        <time>2021-03-16T11:38:24+01:00</time>
      </trkpt>
      <trkpt lat="47.69072" lon="-2.84603">
        <ele>38</ele>
        <time>2021-03-16T11:38:25+01:00</time>
      </trkpt>
      <trkpt lat="47.6907" lon="-2.84608">
        <ele>38</ele>
        <time>2021-03-16T11:38:26+01:00</time>
      </trkpt>
      <trkpt lat="47.69068" lon="-2.84613">
        <ele>38</ele>
        <time>2021-03-16T11:38:27+01:00</time>
      </trkpt>
      <trkpt lat="47.69065" lon="-2.84617">
        <ele>38</ele>
        <time>2021-03-16T11:38:28+01:00</time>
      </trkpt>
      <trkpt lat="47.69063" lon="-2.84622">
        <ele>38</ele>
        <time>2021-03-16T11:38:29+01:00</time>
      </trkpt>
      <trkpt lat="47.6906" lon="-2.84626">
        <ele>38</ele>
        <time>2021-03-16T11:38:30+01:00</time>
      </trkpt>
      <trkpt lat="47.69058" lon="-2.84631">
        <ele>38</ele>
        <time>2021-03-16T11:38:31+01:00</time>
      </trkpt>
      <trkpt lat="47.69055" lon="-2.84636">
        <ele>37</ele>
        <time>2021-03-16T11:38:32+01:00</time>
      </trkpt>
      <trkpt lat="47.69053" lon="-2.84641">
        <ele>37</ele>
        <time>2021-03-16T11:38:33+01:00</time>
      </trkpt>
      <trkpt lat="47.69051" lon="-2.84645">
        <ele>37</ele>
        <time>2021-03-16T11:38:34+01:00</time>
      </trkpt>
      <trkpt lat="47.69049" lon="-2.8465">
        <ele>37</ele>
        <time>2021-03-16T11:38:35+01:00</time>
      </trkpt>
      <trkpt lat="47.69047" lon="-2.84656">
        <ele>37</ele>
        <time>2021-03-16T11:38:36+01:00</time>
      </trkpt>
      <trkpt lat="47.69044" lon="-2.84661">
        <ele>37</ele>
        <time>2021-03-16T11:38:37+01:00</time>
      </trkpt>
      <trkpt lat="47.69043" lon="-2.84666">
        <ele>37</ele>
        <time>2021-03-16T11:38:38+01:00</time>
      </trkpt>
      <trkpt lat="47.69041" lon="-2.84672">
        <ele>37</ele>
        <time>2021-03-16T11:38:39+01:00</time>
      </trkpt>
      <trkpt lat="47.69039" lon="-2.84678">
        <ele>37</ele>
        <time>2021-03-16T11:38:40+01:00</time>
      </trkpt>
      <trkpt lat="47.69038" lon="-2.84683">
        <ele>37</ele>
        <time>2021-03-16T11:38:41+01:00</time>
      </trkpt>
      <trkpt lat="47.69037" lon="-2.84689">
        <ele>37</ele>
        <time>2021-03-16T11:38:42+01:00</time>
      </trkpt>
      <trkpt lat="47.69036" lon="-2.84695">
        <ele>37</ele>
        <time>2021-03-16T11:38:43+01:00</time>
      </trkpt>
      <trkpt lat="47.69035" lon="-2.847">
        <ele>37</ele>
        <time>2021-03-16T11:38:44+01:00</time>
      </trkpt>
      <trkpt lat="47.69034" lon="-2.84706">
        <ele>37</ele>
        <time>2021-03-16T11:38:45+01:00</time>
      </trkpt>
      <trkpt lat="47.69032" lon="-2.84711">
        <ele>37</ele>
        <time>2021-03-16T11:38:46+01:00</time>
      </trkpt>
      <trkpt lat="47.6903" lon="-2.84716">
        <ele>37</ele>
        <time>2021-03-16T11:38:47+01:00</time>
      </trkpt>
      <trkpt lat="47.69028" lon="-2.84721">
        <ele>37</ele>
        <time>2021-03-16T11:38:48+01:00</time>
      </trkpt>
      <trkpt lat="47.69026" lon="-2.84726">
        <ele>37</ele>
        <time>2021-03-16T11:38:49+01:00</time>
      </trkpt>
      <trkpt lat="47.69024" lon="-2.84731">
        <ele>37</ele>
        <time>2021-03-16T11:38:50+01:00</time>
      </trkpt>
      <trkpt lat="47.69022" lon="-2.84736">
        <ele>37</ele>
        <time>2021-03-16T11:38:51+01:00</time>
      </trkpt>
      <trkpt lat="47.69021" lon="-2.84742">
        <ele>37</ele>
        <time>2021-03-16T11:38:52+01:00</time>
      </trkpt>
      <trkpt lat="47.69019" lon="-2.84747">
        <ele>37</ele>
        <time>2021-03-16T11:38:53+01:00</time>
      </trkpt>
      <trkpt lat="47.69018" lon="-2.84752">
        <ele>37</ele>
        <time>2021-03-16T11:38:54+01:00</time>
      </trkpt>
      <trkpt lat="47.69016" lon="-2.84757">
        <ele>37</ele>
        <time>2021-03-16T11:38:55+01:00</time>
      </trkpt>
      <trkpt lat="47.69015" lon="-2.84763">
        <ele>37</ele>
        <time>2021-03-16T11:38:56+01:00</time>
      </trkpt>
      <trkpt lat="47.69013" lon="-2.84768">
        <ele>36</ele>
        <time>2021-03-16T11:38:57+01:00</time>
      </trkpt>
      <trkpt lat="47.69011" lon="-2.84774">
        <ele>36</ele>
        <time>2021-03-16T11:38:58+01:00</time>
      </trkpt>
      <trkpt lat="47.6901" lon="-2.8478">
        <ele>36</ele>
        <time>2021-03-16T11:38:59+01:00</time>
      </trkpt>
      <trkpt lat="47.69008" lon="-2.84785">
        <ele>36</ele>
        <time>2021-03-16T11:39:00+01:00</time>
      </trkpt>
      <trkpt lat="47.69006" lon="-2.84791">
        <ele>36</ele>
        <time>2021-03-16T11:39:01+01:00</time>
      </trkpt>
      <trkpt lat="47.69005" lon="-2.84796">
        <ele>36</ele>
        <time>2021-03-16T11:39:02+01:00</time>
      </trkpt>
      <trkpt lat="47.69003" lon="-2.84802">
        <ele>36</ele>
        <time>2021-03-16T11:39:03+01:00</time>
      </trkpt>
      <trkpt lat="47.69001" lon="-2.84807">
        <ele>36</ele>
        <time>2021-03-16T11:39:04+01:00</time>
      </trkpt>
      <trkpt lat="47.69" lon="-2.84812">
        <ele>36</ele>
        <time>2021-03-16T11:39:05+01:00</time>
      </trkpt>
      <trkpt lat="47.68998" lon="-2.84818">
        <ele>35</ele>
        <time>2021-03-16T11:39:06+01:00</time>
      </trkpt>
      <trkpt lat="47.68997" lon="-2.84824">
        <ele>35</ele>
        <time>2021-03-16T11:39:07+01:00</time>
      </trkpt>
      <trkpt lat="47.68997" lon="-2.8483">
        <ele>35</ele>
        <time>2021-03-16T11:39:08+01:00</time>
      </trkpt>
      <trkpt lat="47.68996" lon="-2.84837">
        <ele>35</ele>
        <time>2021-03-16T11:39:09+01:00</time>
      </trkpt>
      <trkpt lat="47.68996" lon="-2.84843">
        <ele>35</ele>
        <time>2021-03-16T11:39:10+01:00</time>
      </trkpt>
      <trkpt lat="47.68996" lon="-2.84849">
        <ele>35</ele>
        <time>2021-03-16T11:39:11+01:00</time>
      </trkpt>
      <trkpt lat="47.68996" lon="-2.84855">
        <ele>35</ele>
        <time>2021-03-16T11:39:12+01:00</time>
      </trkpt>
      <trkpt lat="47.68996" lon="-2.84861">
        <ele>35</ele>
        <time>2021-03-16T11:39:13+01:00</time>
      </trkpt>
      <trkpt lat="47.68997" lon="-2.84868">
        <ele>35</ele>
        <time>2021-03-16T11:39:14+01:00</time>
      </trkpt>
      <trkpt lat="47.68997" lon="-2.84874">
        <ele>35</ele>
        <time>2021-03-16T11:39:15+01:00</time>
      </trkpt>
      <trkpt lat="47.68997" lon="-2.8488">
        <ele>34</ele>
        <time>2021-03-16T11:39:16+01:00</time>
      </trkpt>
      <trkpt lat="47.68998" lon="-2.84887">
        <ele>34</ele>
        <time>2021-03-16T11:39:17+01:00</time>
      </trkpt>
      <trkpt lat="47.68998" lon="-2.84893">
        <ele>34</ele>
        <time>2021-03-16T11:39:18+01:00</time>
      </trkpt>
      <trkpt lat="47.68998" lon="-2.84899">
        <ele>34</ele>
        <time>2021-03-16T11:39:19+01:00</time>
      </trkpt>
      <trkpt lat="47.68999" lon="-2.84905">
        <ele>34</ele>
        <time>2021-03-16T11:39:20+01:00</time>
      </trkpt>
      <trkpt lat="47.68999" lon="-2.84912">
        <ele>34</ele>
        <time>2021-03-16T11:39:21+01:00</time>
      </trkpt>
      <trkpt lat="47.68999" lon="-2.84918">
        <ele>34</ele>
        <time>2021-03-16T11:39:22+01:00</time>
      </trkpt>
      <trkpt lat="47.68999" lon="-2.84924">
        <ele>34</ele>
        <time>2021-03-16T11:39:23+01:00</time>
      </trkpt>
      <trkpt lat="47.69" lon="-2.8493">
        <ele>34</ele>
        <time>2021-03-16T11:39:24+01:00</time>
      </trkpt>
      <trkpt lat="47.69" lon="-2.84936">
        <ele>34</ele>
        <time>2021-03-16T11:39:25+01:00</time>
      </trkpt>
      <trkpt lat="47.69001" lon="-2.84943">
        <ele>34</ele>
        <time>2021-03-16T11:39:26+01:00</time>
      </trkpt>
      <trkpt lat="47.69001" lon="-2.84949">
        <ele>34</ele>
        <time>2021-03-16T11:39:27+01:00</time>
      </trkpt>
      <trkpt lat="47.69001" lon="-2.84955">
        <ele>34</ele>
        <time>2021-03-16T11:39:28+01:00</time>
      </trkpt>
      <trkpt lat="47.69002" lon="-2.8496">
        <ele>33</ele>
        <time>2021-03-16T11:39:29+01:00</time>
      </trkpt>
      <trkpt lat="47.69002" lon="-2.84966">
        <ele>33</ele>
        <time>2021-03-16T11:39:30+01:00</time>
      </trkpt>
      <trkpt lat="47.69003" lon="-2.84972">
        <ele>33</ele>
        <time>2021-03-16T11:39:31+01:00</time>
      </trkpt>
      <trkpt lat="47.69003" lon="-2.84979">
        <ele>33</ele>
        <time>2021-03-16T11:39:32+01:00</time>
      </trkpt>
      <trkpt lat="47.69004" lon="-2.84985">
        <ele>33</ele>
        <time>2021-03-16T11:39:33+01:00</time>
      </trkpt>
      <trkpt lat="47.69005" lon="-2.84991">
        <ele>33</ele>
        <time>2021-03-16T11:39:34+01:00</time>
      </trkpt>
      <trkpt lat="47.69005" lon="-2.84997">
        <ele>33</ele>
        <time>2021-03-16T11:39:35+01:00</time>
      </trkpt>
      <trkpt lat="47.69006" lon="-2.85004">
        <ele>33</ele>
        <time>2021-03-16T11:39:36+01:00</time>
      </trkpt>
      <trkpt lat="47.69007" lon="-2.8501">
        <ele>33</ele>
        <time>2021-03-16T11:39:37+01:00</time>
      </trkpt>
      <trkpt lat="47.69008" lon="-2.85016">
        <ele>33</ele>
        <time>2021-03-16T11:39:38+01:00</time>
      </trkpt>
      <trkpt lat="47.6901" lon="-2.85021">
        <ele>33</ele>
        <time>2021-03-16T11:39:39+01:00</time>
      </trkpt>
      <trkpt lat="47.69011" lon="-2.85027">
        <ele>33</ele>
        <time>2021-03-16T11:39:40+01:00</time>
      </trkpt>
      <trkpt lat="47.69014" lon="-2.85032">
        <ele>33</ele>
        <time>2021-03-16T11:39:41+01:00</time>
      </trkpt>
      <trkpt lat="47.69017" lon="-2.85036">
        <ele>33</ele>
        <time>2021-03-16T11:39:42+01:00</time>
      </trkpt>
      <trkpt lat="47.6902" lon="-2.8504">
        <ele>33</ele>
        <time>2021-03-16T11:39:43+01:00</time>
      </trkpt>
      <trkpt lat="47.69022" lon="-2.85044">
        <ele>33</ele>
        <time>2021-03-16T11:39:44+01:00</time>
      </trkpt>
      <trkpt lat="47.69025" lon="-2.85048">
        <ele>33</ele>
        <time>2021-03-16T11:39:45+01:00</time>
      </trkpt>
      <trkpt lat="47.69027" lon="-2.85051">
        <ele>33</ele>
        <time>2021-03-16T11:39:46+01:00</time>
      </trkpt>
      <trkpt lat="47.69029" lon="-2.85056">
        <ele>33</ele>
        <time>2021-03-16T11:39:47+01:00</time>
      </trkpt>
      <trkpt lat="47.69032" lon="-2.8506">
        <ele>33</ele>
        <time>2021-03-16T11:39:48+01:00</time>
      </trkpt>
      <trkpt lat="47.69034" lon="-2.85065">
        <ele>33</ele>
        <time>2021-03-16T11:39:49+01:00</time>
      </trkpt>
      <trkpt lat="47.69035" lon="-2.85069">
        <ele>33</ele>
        <time>2021-03-16T11:39:50+01:00</time>
      </trkpt>
      <trkpt lat="47.69037" lon="-2.85074">
        <ele>33</ele>
        <time>2021-03-16T11:39:51+01:00</time>
      </trkpt>
      <trkpt lat="47.69038" lon="-2.85079">
        <ele>33</ele>
        <time>2021-03-16T11:39:52+01:00</time>
      </trkpt>
      <trkpt lat="47.69039" lon="-2.85085">
        <ele>33</ele>
        <time>2021-03-16T11:39:53+01:00</time>
      </trkpt>
      <trkpt lat="47.6904" lon="-2.85091">
        <ele>33</ele>
        <time>2021-03-16T11:39:54+01:00</time>
      </trkpt>
      <trkpt lat="47.69042" lon="-2.85097">
        <ele>33</ele>
        <time>2021-03-16T11:39:55+01:00</time>
      </trkpt>
      <trkpt lat="47.69043" lon="-2.85104">
        <ele>33</ele>
        <time>2021-03-16T11:39:56+01:00</time>
      </trkpt>
      <trkpt lat="47.69045" lon="-2.8511">
        <ele>33</ele>
        <time>2021-03-16T11:39:57+01:00</time>
      </trkpt>
      <trkpt lat="47.69046" lon="-2.85116">
        <ele>33</ele>
        <time>2021-03-16T11:39:58+01:00</time>
      </trkpt>
      <trkpt lat="47.69048" lon="-2.85123">
        <ele>33</ele>
        <time>2021-03-16T11:39:59+01:00</time>
      </trkpt>
      <trkpt lat="47.69049" lon="-2.85129">
        <ele>33</ele>
        <time>2021-03-16T11:40:00+01:00</time>
      </trkpt>
      <trkpt lat="47.69051" lon="-2.85135">
        <ele>33</ele>
        <time>2021-03-16T11:40:01+01:00</time>
      </trkpt>
      <trkpt lat="47.69052" lon="-2.8514">
        <ele>33</ele>
        <time>2021-03-16T11:40:02+01:00</time>
      </trkpt>
      <trkpt lat="47.69053" lon="-2.85146">
        <ele>33</ele>
        <time>2021-03-16T11:40:03+01:00</time>
      </trkpt>
      <trkpt lat="47.69054" lon="-2.85151">
        <ele>34</ele>
        <time>2021-03-16T11:40:04+01:00</time>
      </trkpt>
      <trkpt lat="47.69055" lon="-2.85157">
        <ele>34</ele>
        <time>2021-03-16T11:40:05+01:00</time>
      </trkpt>
      <trkpt lat="47.69056" lon="-2.85163">
        <ele>34</ele>
        <time>2021-03-16T11:40:06+01:00</time>
      </trkpt>
      <trkpt lat="47.69057" lon="-2.85169">
        <ele>34</ele>
        <time>2021-03-16T11:40:07+01:00</time>
      </trkpt>
      <trkpt lat="47.69059" lon="-2.85175">
        <ele>34</ele>
        <time>2021-03-16T11:40:08+01:00</time>
      </trkpt>
      <trkpt lat="47.69061" lon="-2.85181">
        <ele>33</ele>
        <time>2021-03-16T11:40:09+01:00</time>
      </trkpt>
      <trkpt lat="47.69063" lon="-2.85186">
        <ele>33</ele>
        <time>2021-03-16T11:40:10+01:00</time>
      </trkpt>
      <trkpt lat="47.69065" lon="-2.85191">
        <ele>33</ele>
        <time>2021-03-16T11:40:11+01:00</time>
      </trkpt>
      <trkpt lat="47.69067" lon="-2.85195">
        <ele>33</ele>
        <time>2021-03-16T11:40:12+01:00</time>
      </trkpt>
      <trkpt lat="47.69069" lon="-2.852">
        <ele>33</ele>
        <time>2021-03-16T11:40:13+01:00</time>
      </trkpt>
      <trkpt lat="47.69071" lon="-2.85204">
        <ele>33</ele>
        <time>2021-03-16T11:40:14+01:00</time>
      </trkpt>
      <trkpt lat="47.69073" lon="-2.85208">
        <ele>33</ele>
        <time>2021-03-16T11:40:15+01:00</time>
      </trkpt>
      <trkpt lat="47.69076" lon="-2.85212">
        <ele>33</ele>
        <time>2021-03-16T11:40:16+01:00</time>
      </trkpt>
      <trkpt lat="47.69079" lon="-2.85215">
        <ele>33</ele>
        <time>2021-03-16T11:40:17+01:00</time>
      </trkpt>
      <trkpt lat="47.69083" lon="-2.85216">
        <ele>32</ele>
        <time>2021-03-16T11:40:18+01:00</time>
      </trkpt>
      <trkpt lat="47.69087" lon="-2.85217">
        <ele>32</ele>
        <time>2021-03-16T11:40:19+01:00</time>
      </trkpt>
      <trkpt lat="47.69091" lon="-2.85216">
        <ele>33</ele>
        <time>2021-03-16T11:40:20+01:00</time>
      </trkpt>
      <trkpt lat="47.69096" lon="-2.85216">
        <ele>33</ele>
        <time>2021-03-16T11:40:21+01:00</time>
      </trkpt>
      <trkpt lat="47.691" lon="-2.85215">
        <ele>33</ele>
        <time>2021-03-16T11:40:22+01:00</time>
      </trkpt>
      <trkpt lat="47.69105" lon="-2.85213">
        <ele>33</ele>
        <time>2021-03-16T11:40:23+01:00</time>
      </trkpt>
      <trkpt lat="47.69109" lon="-2.85212">
        <ele>33</ele>
        <time>2021-03-16T11:40:24+01:00</time>
      </trkpt>
      <trkpt lat="47.69113" lon="-2.85212">
        <ele>33</ele>
        <time>2021-03-16T11:40:25+01:00</time>
      </trkpt>
      <trkpt lat="47.69117" lon="-2.85213">
        <ele>33</ele>
        <time>2021-03-16T11:40:26+01:00</time>
      </trkpt>
      <trkpt lat="47.69121" lon="-2.85215">
        <ele>33</ele>
        <time>2021-03-16T11:40:27+01:00</time>
      </trkpt>
      <trkpt lat="47.69125" lon="-2.85218">
        <ele>33</ele>
        <time>2021-03-16T11:40:28+01:00</time>
      </trkpt>
      <trkpt lat="47.69128" lon="-2.85222">
        <ele>33</ele>
        <time>2021-03-16T11:40:29+01:00</time>
      </trkpt>
      <trkpt lat="47.69131" lon="-2.85226">
        <ele>33</ele>
        <time>2021-03-16T11:40:30+01:00</time>
      </trkpt>
      <trkpt lat="47.69134" lon="-2.8523">
        <ele>33</ele>
        <time>2021-03-16T11:40:31+01:00</time>
      </trkpt>
      <trkpt lat="47.69137" lon="-2.85232">
        <ele>33</ele>
        <time>2021-03-16T11:40:32+01:00</time>
      </trkpt>
      <trkpt lat="47.69141" lon="-2.85234">
        <ele>33</ele>
        <time>2021-03-16T11:40:33+01:00</time>
      </trkpt>
      <trkpt lat="47.69144" lon="-2.85235">
        <ele>33</ele>
        <time>2021-03-16T11:40:34+01:00</time>
      </trkpt>
      <trkpt lat="47.69148" lon="-2.85234">
        <ele>33</ele>
        <time>2021-03-16T11:40:35+01:00</time>
      </trkpt>
      <trkpt lat="47.69152" lon="-2.85234">
        <ele>34</ele>
        <time>2021-03-16T11:40:36+01:00</time>
      </trkpt>
      <trkpt lat="47.69155" lon="-2.85234">
        <ele>34</ele>
        <time>2021-03-16T11:40:37+01:00</time>
      </trkpt>
      <trkpt lat="47.69159" lon="-2.85234">
        <ele>34</ele>
        <time>2021-03-16T11:40:38+01:00</time>
      </trkpt>
      <trkpt lat="47.69163" lon="-2.85234">
        <ele>34</ele>
        <time>2021-03-16T11:40:39+01:00</time>
      </trkpt>
      <trkpt lat="47.69167" lon="-2.85234">
        <ele>34</ele>
        <time>2021-03-16T11:40:40+01:00</time>
      </trkpt>
      <trkpt lat="47.69171" lon="-2.85234">
        <ele>34</ele>
        <time>2021-03-16T11:40:41+01:00</time>
      </trkpt>
      <trkpt lat="47.69175" lon="-2.85234">
        <ele>34</ele>
        <time>2021-03-16T11:40:42+01:00</time>
      </trkpt>
      <trkpt lat="47.69179" lon="-2.85235">
        <ele>34</ele>
        <time>2021-03-16T11:40:43+01:00</time>
      </trkpt>
      <trkpt lat="47.69183" lon="-2.85237">
        <ele>34</ele>
        <time>2021-03-16T11:40:44+01:00</time>
      </trkpt>
      <trkpt lat="47.69187" lon="-2.85239">
        <ele>34</ele>
        <time>2021-03-16T11:40:45+01:00</time>
      </trkpt>
      <trkpt lat="47.6919" lon="-2.85242">
        <ele>34</ele>
        <time>2021-03-16T11:40:46+01:00</time>
      </trkpt>
      <trkpt lat="47.69193" lon="-2.85245">
        <ele>34</ele>
        <time>2021-03-16T11:40:47+01:00</time>
      </trkpt>
      <trkpt lat="47.69195" lon="-2.85249">
        <ele>34</ele>
        <time>2021-03-16T11:40:48+01:00</time>
      </trkpt>
      <trkpt lat="47.69197" lon="-2.85253">
        <ele>34</ele>
        <time>2021-03-16T11:40:49+01:00</time>
      </trkpt>
      <trkpt lat="47.692" lon="-2.85257">
        <ele>34</ele>
        <time>2021-03-16T11:40:50+01:00</time>
      </trkpt>
      <trkpt lat="47.69202" lon="-2.85261">
        <ele>35</ele>
        <time>2021-03-16T11:40:51+01:00</time>
      </trkpt>
      <trkpt lat="47.69205" lon="-2.85266">
        <ele>35</ele>
        <time>2021-03-16T11:40:52+01:00</time>
      </trkpt>
      <trkpt lat="47.69206" lon="-2.85272">
        <ele>35</ele>
        <time>2021-03-16T11:40:53+01:00</time>
      </trkpt>
      <trkpt lat="47.69207" lon="-2.85278">
        <ele>35</ele>
        <time>2021-03-16T11:40:54+01:00</time>
      </trkpt>
      <trkpt lat="47.69206" lon="-2.85284">
        <ele>35</ele>
        <time>2021-03-16T11:40:55+01:00</time>
      </trkpt>
      <trkpt lat="47.69206" lon="-2.85289">
        <ele>35</ele>
        <time>2021-03-16T11:40:56+01:00</time>
      </trkpt>
      <trkpt lat="47.69205" lon="-2.85294">
        <ele>35</ele>
        <time>2021-03-16T11:40:57+01:00</time>
      </trkpt>
      <trkpt lat="47.69204" lon="-2.85298">
        <ele>35</ele>
        <time>2021-03-16T11:40:58+01:00</time>
      </trkpt>
      <trkpt lat="47.69204" lon="-2.85303">
        <ele>35</ele>
        <time>2021-03-16T11:40:59+01:00</time>
      </trkpt>
      <trkpt lat="47.69203" lon="-2.85308">
        <ele>35</ele>
        <time>2021-03-16T11:41:00+01:00</time>
      </trkpt>
      <trkpt lat="47.69203" lon="-2.85313">
        <ele>35</ele>
        <time>2021-03-16T11:41:01+01:00</time>
      </trkpt>
      <trkpt lat="47.69202" lon="-2.85319">
        <ele>35</ele>
        <time>2021-03-16T11:41:02+01:00</time>
      </trkpt>
      <trkpt lat="47.69201" lon="-2.85326">
        <ele>35</ele>
        <time>2021-03-16T11:41:03+01:00</time>
      </trkpt>
      <trkpt lat="47.692" lon="-2.85332">
        <ele>35</ele>
        <time>2021-03-16T11:41:04+01:00</time>
      </trkpt>
      <trkpt lat="47.692" lon="-2.85338">
        <ele>35</ele>
        <time>2021-03-16T11:41:05+01:00</time>
      </trkpt>
      <trkpt lat="47.692" lon="-2.85344">
        <ele>35</ele>
        <time>2021-03-16T11:41:06+01:00</time>
      </trkpt>
      <trkpt lat="47.69199" lon="-2.8535">
        <ele>35</ele>
        <time>2021-03-16T11:41:07+01:00</time>
      </trkpt>
      <trkpt lat="47.69198" lon="-2.85356">
        <ele>35</ele>
        <time>2021-03-16T11:41:08+01:00</time>
      </trkpt>
      <trkpt lat="47.69197" lon="-2.85362">
        <ele>35</ele>
        <time>2021-03-16T11:41:09+01:00</time>
      </trkpt>
      <trkpt lat="47.69197" lon="-2.85367">
        <ele>35</ele>
        <time>2021-03-16T11:41:10+01:00</time>
      </trkpt>
      <trkpt lat="47.69196" lon="-2.85373">
        <ele>35</ele>
        <time>2021-03-16T11:41:11+01:00</time>
      </trkpt>
      <trkpt lat="47.69195" lon="-2.85379">
        <ele>35</ele>
        <time>2021-03-16T11:41:12+01:00</time>
      </trkpt>
      <trkpt lat="47.69195" lon="-2.85384">
        <ele>35</ele>
        <time>2021-03-16T11:41:13+01:00</time>
      </trkpt>
      <trkpt lat="47.69194" lon="-2.8539">
        <ele>35</ele>
        <time>2021-03-16T11:41:14+01:00</time>
      </trkpt>
      <trkpt lat="47.69194" lon="-2.85395">
        <ele>35</ele>
        <time>2021-03-16T11:41:15+01:00</time>
      </trkpt>
      <trkpt lat="47.69194" lon="-2.854">
        <ele>35</ele>
        <time>2021-03-16T11:41:16+01:00</time>
      </trkpt>
      <trkpt lat="47.69194" lon="-2.85405">
        <ele>35</ele>
        <time>2021-03-16T11:41:17+01:00</time>
      </trkpt>
      <trkpt lat="47.69194" lon="-2.8541">
        <ele>35</ele>
        <time>2021-03-16T11:41:18+01:00</time>
      </trkpt>
      <trkpt lat="47.69193" lon="-2.85415">
        <ele>35</ele>
        <time>2021-03-16T11:41:19+01:00</time>
      </trkpt>
      <trkpt lat="47.69191" lon="-2.85419">
        <ele>35</ele>
        <time>2021-03-16T11:41:20+01:00</time>
      </trkpt>
      <trkpt lat="47.69188" lon="-2.85423">
        <ele>35</ele>
        <time>2021-03-16T11:41:21+01:00</time>
      </trkpt>
      <trkpt lat="47.69186" lon="-2.85426">
        <ele>35</ele>
        <time>2021-03-16T11:41:22+01:00</time>
      </trkpt>
      <trkpt lat="47.69183" lon="-2.8543">
        <ele>35</ele>
        <time>2021-03-16T11:41:23+01:00</time>
      </trkpt>
      <trkpt lat="47.6918" lon="-2.85434">
        <ele>35</ele>
        <time>2021-03-16T11:41:24+01:00</time>
      </trkpt>
      <trkpt lat="47.69177" lon="-2.85438">
        <ele>35</ele>
        <time>2021-03-16T11:41:25+01:00</time>
      </trkpt>
      <trkpt lat="47.69174" lon="-2.85442">
        <ele>35</ele>
        <time>2021-03-16T11:41:26+01:00</time>
      </trkpt>
      <trkpt lat="47.69171" lon="-2.85446">
        <ele>35</ele>
        <time>2021-03-16T11:41:27+01:00</time>
      </trkpt>
      <trkpt lat="47.69168" lon="-2.8545">
        <ele>35</ele>
        <time>2021-03-16T11:41:28+01:00</time>
      </trkpt>
      <trkpt lat="47.69166" lon="-2.85454">
        <ele>35</ele>
        <time>2021-03-16T11:41:29+01:00</time>
      </trkpt>
      <trkpt lat="47.69164" lon="-2.85458">
        <ele>35</ele>
        <time>2021-03-16T11:41:30+01:00</time>
      </trkpt>
      <trkpt lat="47.69163" lon="-2.85464">
        <ele>35</ele>
        <time>2021-03-16T11:41:31+01:00</time>
      </trkpt>
      <trkpt lat="47.69162" lon="-2.85469">
        <ele>35</ele>
        <time>2021-03-16T11:41:32+01:00</time>
      </trkpt>
      <trkpt lat="47.69162" lon="-2.85475">
        <ele>35</ele>
        <time>2021-03-16T11:41:33+01:00</time>
      </trkpt>
      <trkpt lat="47.69161" lon="-2.85481">
        <ele>35</ele>
        <time>2021-03-16T11:41:34+01:00</time>
      </trkpt>
      <trkpt lat="47.69161" lon="-2.85487">
        <ele>35</ele>
        <time>2021-03-16T11:41:35+01:00</time>
      </trkpt>
      <trkpt lat="47.69162" lon="-2.85492">
        <ele>35</ele>
        <time>2021-03-16T11:41:36+01:00</time>
      </trkpt>
      <trkpt lat="47.69162" lon="-2.85498">
        <ele>35</ele>
        <time>2021-03-16T11:41:37+01:00</time>
      </trkpt>
      <trkpt lat="47.69163" lon="-2.85504">
        <ele>35</ele>
        <time>2021-03-16T11:41:38+01:00</time>
      </trkpt>
      <trkpt lat="47.69164" lon="-2.8551">
        <ele>35</ele>
        <time>2021-03-16T11:41:39+01:00</time>
      </trkpt>
      <trkpt lat="47.69165" lon="-2.85516">
        <ele>35</ele>
        <time>2021-03-16T11:41:40+01:00</time>
      </trkpt>
      <trkpt lat="47.69166" lon="-2.85521">
        <ele>35</ele>
        <time>2021-03-16T11:41:41+01:00</time>
      </trkpt>
      <trkpt lat="47.69167" lon="-2.85526">
        <ele>36</ele>
        <time>2021-03-16T11:41:42+01:00</time>
      </trkpt>
      <trkpt lat="47.69169" lon="-2.85531">
        <ele>36</ele>
        <time>2021-03-16T11:41:43+01:00</time>
      </trkpt>
      <trkpt lat="47.6917" lon="-2.85535">
        <ele>36</ele>
        <time>2021-03-16T11:41:44+01:00</time>
      </trkpt>
      <trkpt lat="47.69171" lon="-2.8554">
        <ele>36</ele>
        <time>2021-03-16T11:41:45+01:00</time>
      </trkpt>
      <trkpt lat="47.69172" lon="-2.85544">
        <ele>36</ele>
        <time>2021-03-16T11:41:46+01:00</time>
      </trkpt>
      <trkpt lat="47.69173" lon="-2.85548">
        <ele>36</ele>
        <time>2021-03-16T11:41:47+01:00</time>
      </trkpt>
      <trkpt lat="47.69174" lon="-2.85552">
        <ele>36</ele>
        <time>2021-03-16T11:41:48+01:00</time>
      </trkpt>
      <trkpt lat="47.69175" lon="-2.85556">
        <ele>36</ele>
        <time>2021-03-16T11:41:49+01:00</time>
      </trkpt>
      <trkpt lat="47.69176" lon="-2.85561">
        <ele>37</ele>
        <time>2021-03-16T11:41:50+01:00</time>
      </trkpt>
      <trkpt lat="47.69177" lon="-2.85565">
        <ele>37</ele>
        <time>2021-03-16T11:41:51+01:00</time>
      </trkpt>
      <trkpt lat="47.69178" lon="-2.85569">
        <ele>37</ele>
        <time>2021-03-16T11:41:52+01:00</time>
      </trkpt>
      <trkpt lat="47.69179" lon="-2.85573">
        <ele>37</ele>
        <time>2021-03-16T11:41:53+01:00</time>
      </trkpt>
      <trkpt lat="47.6918" lon="-2.85578">
        <ele>37</ele>
        <time>2021-03-16T11:41:54+01:00</time>
      </trkpt>
      <trkpt lat="47.69181" lon="-2.85582">
        <ele>37</ele>
        <time>2021-03-16T11:41:55+01:00</time>
      </trkpt>
      <trkpt lat="47.69182" lon="-2.85586">
        <ele>37</ele>
        <time>2021-03-16T11:41:56+01:00</time>
      </trkpt>
      <trkpt lat="47.69182" lon="-2.85591">
        <ele>37</ele>
        <time>2021-03-16T11:41:57+01:00</time>
      </trkpt>
      <trkpt lat="47.69183" lon="-2.85596">
        <ele>37</ele>
        <time>2021-03-16T11:41:58+01:00</time>
      </trkpt>
      <trkpt lat="47.69184" lon="-2.856">
        <ele>38</ele>
        <time>2021-03-16T11:41:59+01:00</time>
      </trkpt>
      <trkpt lat="47.69184" lon="-2.85605">
        <ele>38</ele>
        <time>2021-03-16T11:42:00+01:00</time>
      </trkpt>
      <trkpt lat="47.69184" lon="-2.8561">
        <ele>38</ele>
        <time>2021-03-16T11:42:01+01:00</time>
      </trkpt>
      <trkpt lat="47.69184" lon="-2.85615">
        <ele>38</ele>
        <time>2021-03-16T11:42:02+01:00</time>
      </trkpt>
      <trkpt lat="47.69184" lon="-2.85619">
        <ele>38</ele>
        <time>2021-03-16T11:42:03+01:00</time>
      </trkpt>
      <trkpt lat="47.69184" lon="-2.85624">
        <ele>38</ele>
        <time>2021-03-16T11:42:04+01:00</time>
      </trkpt>
      <trkpt lat="47.69184" lon="-2.85629">
        <ele>38</ele>
        <time>2021-03-16T11:42:05+01:00</time>
      </trkpt>
      <trkpt lat="47.69184" lon="-2.85634">
        <ele>38</ele>
        <time>2021-03-16T11:42:06+01:00</time>
      </trkpt>
      <trkpt lat="47.69184" lon="-2.85638">
        <ele>39</ele>
        <time>2021-03-16T11:42:07+01:00</time>
      </trkpt>
      <trkpt lat="47.69183" lon="-2.85643">
        <ele>39</ele>
        <time>2021-03-16T11:42:08+01:00</time>
      </trkpt>
      <trkpt lat="47.69183" lon="-2.85648">
        <ele>39</ele>
        <time>2021-03-16T11:42:09+01:00</time>
      </trkpt>
      <trkpt lat="47.69183" lon="-2.85652">
        <ele>39</ele>
        <time>2021-03-16T11:42:10+01:00</time>
      </trkpt>
      <trkpt lat="47.69183" lon="-2.85657">
        <ele>39</ele>
        <time>2021-03-16T11:42:11+01:00</time>
      </trkpt>
      <trkpt lat="47.69183" lon="-2.85661">
        <ele>39</ele>
        <time>2021-03-16T11:42:12+01:00</time>
      </trkpt>
      <trkpt lat="47.69182" lon="-2.85665">
        <ele>39</ele>
        <time>2021-03-16T11:42:13+01:00</time>
      </trkpt>
      <trkpt lat="47.69182" lon="-2.8567">
        <ele>39</ele>
        <time>2021-03-16T11:42:14+01:00</time>
      </trkpt>
      <trkpt lat="47.69182" lon="-2.85674">
        <ele>39</ele>
        <time>2021-03-16T11:42:15+01:00</time>
      </trkpt>
      <trkpt lat="47.69182" lon="-2.85679">
        <ele>39</ele>
        <time>2021-03-16T11:42:16+01:00</time>
      </trkpt>
      <trkpt lat="47.69182" lon="-2.85683">
        <ele>40</ele>
        <time>2021-03-16T11:42:17+01:00</time>
      </trkpt>
      <trkpt lat="47.69182" lon="-2.85687">
        <ele>40</ele>
        <time>2021-03-16T11:42:18+01:00</time>
      </trkpt>
      <trkpt lat="47.69182" lon="-2.85692">
        <ele>40</ele>
        <time>2021-03-16T11:42:19+01:00</time>
      </trkpt>
      <trkpt lat="47.69182" lon="-2.85696">
        <ele>40</ele>
        <time>2021-03-16T11:42:20+01:00</time>
      </trkpt>
      <trkpt lat="47.69182" lon="-2.857">
        <ele>40</ele>
        <time>2021-03-16T11:42:21+01:00</time>
      </trkpt>
      <trkpt lat="47.69182" lon="-2.85705">
        <ele>40</ele>
        <time>2021-03-16T11:42:22+01:00</time>
      </trkpt>
      <trkpt lat="47.69181" lon="-2.8571">
        <ele>40</ele>
        <time>2021-03-16T11:42:23+01:00</time>
      </trkpt>
      <trkpt lat="47.69181" lon="-2.85714">
        <ele>40</ele>
        <time>2021-03-16T11:42:24+01:00</time>
      </trkpt>
      <trkpt lat="47.69181" lon="-2.85719">
        <ele>40</ele>
        <time>2021-03-16T11:42:25+01:00</time>
      </trkpt>
      <trkpt lat="47.69181" lon="-2.85724">
        <ele>40</ele>
        <time>2021-03-16T11:42:26+01:00</time>
      </trkpt>
      <trkpt lat="47.69181" lon="-2.85728">
        <ele>41</ele>
        <time>2021-03-16T11:42:27+01:00</time>
      </trkpt>
      <trkpt lat="47.69181" lon="-2.85733">
        <ele>41</ele>
        <time>2021-03-16T11:42:28+01:00</time>
      </trkpt>
      <trkpt lat="47.69181" lon="-2.85737">
        <ele>41</ele>
        <time>2021-03-16T11:42:29+01:00</time>
      </trkpt>
      <trkpt lat="47.6918" lon="-2.85742">
        <ele>41</ele>
        <time>2021-03-16T11:42:30+01:00</time>
      </trkpt>
      <trkpt lat="47.6918" lon="-2.85746">
        <ele>41</ele>
        <time>2021-03-16T11:42:31+01:00</time>
      </trkpt>
      <trkpt lat="47.6918" lon="-2.85751">
        <ele>41</ele>
        <time>2021-03-16T11:42:32+01:00</time>
      </trkpt>
      <trkpt lat="47.6918" lon="-2.85756">
        <ele>41</ele>
        <time>2021-03-16T11:42:33+01:00</time>
      </trkpt>
      <trkpt lat="47.6918" lon="-2.85761">
        <ele>41</ele>
        <time>2021-03-16T11:42:34+01:00</time>
      </trkpt>
      <trkpt lat="47.6918" lon="-2.85765">
        <ele>41</ele>
        <time>2021-03-16T11:42:35+01:00</time>
      </trkpt>
      <trkpt lat="47.6918" lon="-2.8577">
        <ele>41</ele>
        <time>2021-03-16T11:42:36+01:00</time>
      </trkpt>
      <trkpt lat="47.6918" lon="-2.85775">
        <ele>41</ele>
        <time>2021-03-16T11:42:37+01:00</time>
      </trkpt>
      <trkpt lat="47.6918" lon="-2.85779">
        <ele>41</ele>
        <time>2021-03-16T11:42:38+01:00</time>
      </trkpt>
      <trkpt lat="47.6918" lon="-2.85784">
        <ele>41</ele>
        <time>2021-03-16T11:42:39+01:00</time>
      </trkpt>
      <trkpt lat="47.6918" lon="-2.85789">
        <ele>41</ele>
        <time>2021-03-16T11:42:40+01:00</time>
      </trkpt>
      <trkpt lat="47.6918" lon="-2.85793">
        <ele>41</ele>
        <time>2021-03-16T11:42:41+01:00</time>
      </trkpt>
      <trkpt lat="47.69181" lon="-2.85798">
        <ele>41</ele>
        <time>2021-03-16T11:42:42+01:00</time>
      </trkpt>
      <trkpt lat="47.69181" lon="-2.85803">
        <ele>41</ele>
        <time>2021-03-16T11:42:43+01:00</time>
      </trkpt>
      <trkpt lat="47.69181" lon="-2.85808">
        <ele>41</ele>
        <time>2021-03-16T11:42:44+01:00</time>
      </trkpt>
      <trkpt lat="47.69181" lon="-2.85813">
        <ele>41</ele>
        <time>2021-03-16T11:42:45+01:00</time>
      </trkpt>
      <trkpt lat="47.69181" lon="-2.85817">
        <ele>41</ele>
        <time>2021-03-16T11:42:46+01:00</time>
      </trkpt>
      <trkpt lat="47.6918" lon="-2.85822">
        <ele>41</ele>
        <time>2021-03-16T11:42:47+01:00</time>
      </trkpt>
      <trkpt lat="47.6918" lon="-2.85827">
        <ele>41</ele>
        <time>2021-03-16T11:42:48+01:00</time>
      </trkpt>
      <trkpt lat="47.6918" lon="-2.85832">
        <ele>41</ele>
        <time>2021-03-16T11:42:49+01:00</time>
      </trkpt>
      <trkpt lat="47.6918" lon="-2.85837">
        <ele>41</ele>
        <time>2021-03-16T11:42:50+01:00</time>
      </trkpt>
      <trkpt lat="47.6918" lon="-2.85842">
        <ele>41</ele>
        <time>2021-03-16T11:42:51+01:00</time>
      </trkpt>
      <trkpt lat="47.6918" lon="-2.85846">
        <ele>41</ele>
        <time>2021-03-16T11:42:52+01:00</time>
      </trkpt>
      <trkpt lat="47.69181" lon="-2.85851">
        <ele>41</ele>
        <time>2021-03-16T11:42:53+01:00</time>
      </trkpt>
      <trkpt lat="47.69181" lon="-2.85856">
        <ele>41</ele>
        <time>2021-03-16T11:42:54+01:00</time>
      </trkpt>
      <trkpt lat="47.6918" lon="-2.85861">
        <ele>42</ele>
        <time>2021-03-16T11:42:55+01:00</time>
      </trkpt>
      <trkpt lat="47.6918" lon="-2.85866">
        <ele>42</ele>
        <time>2021-03-16T11:42:56+01:00</time>
      </trkpt>
      <trkpt lat="47.6918" lon="-2.8587">
        <ele>42</ele>
        <time>2021-03-16T11:42:57+01:00</time>
      </trkpt>
      <trkpt lat="47.6918" lon="-2.85874">
        <ele>42</ele>
        <time>2021-03-16T11:42:58+01:00</time>
      </trkpt>
      <trkpt lat="47.6918" lon="-2.85879">
        <ele>42</ele>
        <time>2021-03-16T11:42:59+01:00</time>
      </trkpt>
      <trkpt lat="47.6918" lon="-2.85884">
        <ele>42</ele>
        <time>2021-03-16T11:43:00+01:00</time>
      </trkpt>
      <trkpt lat="47.6918" lon="-2.85889">
        <ele>42</ele>
        <time>2021-03-16T11:43:01+01:00</time>
      </trkpt>
      <trkpt lat="47.6918" lon="-2.85894">
        <ele>42</ele>
        <time>2021-03-16T11:43:02+01:00</time>
      </trkpt>
      <trkpt lat="47.6918" lon="-2.85898">
        <ele>42</ele>
        <time>2021-03-16T11:43:03+01:00</time>
      </trkpt>
      <trkpt lat="47.6918" lon="-2.85903">
        <ele>43</ele>
        <time>2021-03-16T11:43:04+01:00</time>
      </trkpt>
      <trkpt lat="47.6918" lon="-2.85908">
        <ele>43</ele>
        <time>2021-03-16T11:43:05+01:00</time>
      </trkpt>
      <trkpt lat="47.6918" lon="-2.85913">
        <ele>43</ele>
        <time>2021-03-16T11:43:06+01:00</time>
      </trkpt>
      <trkpt lat="47.6918" lon="-2.85918">
        <ele>43</ele>
        <time>2021-03-16T11:43:07+01:00</time>
      </trkpt>
      <trkpt lat="47.6918" lon="-2.85923">
        <ele>43</ele>
        <time>2021-03-16T11:43:08+01:00</time>
      </trkpt>
      <trkpt lat="47.6918" lon="-2.85928">
        <ele>43</ele>
        <time>2021-03-16T11:43:09+01:00</time>
      </trkpt>
      <trkpt lat="47.6918" lon="-2.85932">
        <ele>43</ele>
        <time>2021-03-16T11:43:10+01:00</time>
      </trkpt>
      <trkpt lat="47.6918" lon="-2.85936">
        <ele>43</ele>
        <time>2021-03-16T11:43:11+01:00</time>
      </trkpt>
      <trkpt lat="47.6918" lon="-2.8594">
        <ele>43</ele>
        <time>2021-03-16T11:43:12+01:00</time>
      </trkpt>
      <trkpt lat="47.6918" lon="-2.85945">
        <ele>43</ele>
        <time>2021-03-16T11:43:13+01:00</time>
      </trkpt>
      <trkpt lat="47.6918" lon="-2.85949">
        <ele>43</ele>
        <time>2021-03-16T11:43:14+01:00</time>
      </trkpt>
      <trkpt lat="47.6918" lon="-2.85953">
        <ele>44</ele>
        <time>2021-03-16T11:43:15+01:00</time>
      </trkpt>
      <trkpt lat="47.69179" lon="-2.85958">
        <ele>44</ele>
        <time>2021-03-16T11:43:16+01:00</time>
      </trkpt>
      <trkpt lat="47.69179" lon="-2.85962">
        <ele>44</ele>
        <time>2021-03-16T11:43:17+01:00</time>
      </trkpt>
      <trkpt lat="47.69178" lon="-2.85966">
        <ele>44</ele>
        <time>2021-03-16T11:43:18+01:00</time>
      </trkpt>
      <trkpt lat="47.69177" lon="-2.85972">
        <ele>44</ele>
        <time>2021-03-16T11:43:20+01:00</time>
      </trkpt>
      <trkpt lat="47.69175" lon="-2.85978">
        <ele>44</ele>
        <time>2021-03-16T11:43:22+01:00</time>
      </trkpt>
      <trkpt lat="47.69174" lon="-2.85984">
        <ele>44</ele>
        <time>2021-03-16T11:43:24+01:00</time>
      </trkpt>
      <trkpt lat="47.69173" lon="-2.8599">
        <ele>44</ele>
        <time>2021-03-16T11:43:26+01:00</time>
      </trkpt>
      <trkpt lat="47.69172" lon="-2.85997">
        <ele>45</ele>
        <time>2021-03-16T11:43:28+01:00</time>
      </trkpt>
      <trkpt lat="47.69171" lon="-2.86002">
        <ele>45</ele>
        <time>2021-03-16T11:43:29+01:00</time>
      </trkpt>
      <trkpt lat="47.69171" lon="-2.86007">
        <ele>45</ele>
        <time>2021-03-16T11:43:30+01:00</time>
      </trkpt>
      <trkpt lat="47.69172" lon="-2.86011">
        <ele>45</ele>
        <time>2021-03-16T11:43:31+01:00</time>
      </trkpt>
      <trkpt lat="47.69172" lon="-2.86016">
        <ele>45</ele>
        <time>2021-03-16T11:43:32+01:00</time>
      </trkpt>
      <trkpt lat="47.69172" lon="-2.86021">
        <ele>45</ele>
        <time>2021-03-16T11:43:33+01:00</time>
      </trkpt>
      <trkpt lat="47.69172" lon="-2.86026">
        <ele>45</ele>
        <time>2021-03-16T11:43:34+01:00</time>
      </trkpt>
      <trkpt lat="47.69172" lon="-2.86031">
        <ele>45</ele>
        <time>2021-03-16T11:43:35+01:00</time>
      </trkpt>
      <trkpt lat="47.69173" lon="-2.86036">
        <ele>45</ele>
        <time>2021-03-16T11:43:36+01:00</time>
      </trkpt>
      <trkpt lat="47.69173" lon="-2.86041">
        <ele>45</ele>
        <time>2021-03-16T11:43:37+01:00</time>
      </trkpt>
      <trkpt lat="47.69173" lon="-2.86045">
        <ele>45</ele>
        <time>2021-03-16T11:43:38+01:00</time>
      </trkpt>
      <trkpt lat="47.69173" lon="-2.8605">
        <ele>45</ele>
        <time>2021-03-16T11:43:39+01:00</time>
      </trkpt>
      <trkpt lat="47.69174" lon="-2.86054">
        <ele>45</ele>
        <time>2021-03-16T11:43:40+01:00</time>
      </trkpt>
      <trkpt lat="47.69174" lon="-2.86058">
        <ele>45</ele>
        <time>2021-03-16T11:43:41+01:00</time>
      </trkpt>
      <trkpt lat="47.69175" lon="-2.86063">
        <ele>45</ele>
        <time>2021-03-16T11:43:42+01:00</time>
      </trkpt>
      <trkpt lat="47.69176" lon="-2.86067">
        <ele>45</ele>
        <time>2021-03-16T11:43:43+01:00</time>
      </trkpt>
      <trkpt lat="47.69177" lon="-2.86072">
        <ele>45</ele>
        <time>2021-03-16T11:43:44+01:00</time>
      </trkpt>
      <trkpt lat="47.69179" lon="-2.86077">
        <ele>44</ele>
        <time>2021-03-16T11:43:45+01:00</time>
      </trkpt>
      <trkpt lat="47.6918" lon="-2.86081">
        <ele>44</ele>
        <time>2021-03-16T11:43:46+01:00</time>
      </trkpt>
      <trkpt lat="47.69182" lon="-2.86086">
        <ele>44</ele>
        <time>2021-03-16T11:43:47+01:00</time>
      </trkpt>
      <trkpt lat="47.69184" lon="-2.8609">
        <ele>44</ele>
        <time>2021-03-16T11:43:48+01:00</time>
      </trkpt>
      <trkpt lat="47.69186" lon="-2.86095">
        <ele>44</ele>
        <time>2021-03-16T11:43:49+01:00</time>
      </trkpt>
      <trkpt lat="47.69188" lon="-2.861">
        <ele>44</ele>
        <time>2021-03-16T11:43:50+01:00</time>
      </trkpt>
      <trkpt lat="47.69189" lon="-2.86104">
        <ele>44</ele>
        <time>2021-03-16T11:43:51+01:00</time>
      </trkpt>
      <trkpt lat="47.6919" lon="-2.86109">
        <ele>44</ele>
        <time>2021-03-16T11:43:52+01:00</time>
      </trkpt>
      <trkpt lat="47.69192" lon="-2.86113">
        <ele>44</ele>
        <time>2021-03-16T11:43:53+01:00</time>
      </trkpt>
      <trkpt lat="47.69193" lon="-2.86118">
        <ele>44</ele>
        <time>2021-03-16T11:43:55+01:00</time>
      </trkpt>
      <trkpt lat="47.69194" lon="-2.86124">
        <ele>44</ele>
        <time>2021-03-16T11:43:57+01:00</time>
      </trkpt>
      <trkpt lat="47.69195" lon="-2.8613">
        <ele>44</ele>
        <time>2021-03-16T11:43:59+01:00</time>
      </trkpt>
      <trkpt lat="47.69196" lon="-2.86135">
        <ele>44</ele>
        <time>2021-03-16T11:44:01+01:00</time>
      </trkpt>
      <trkpt lat="47.69197" lon="-2.8614">
        <ele>44</ele>
        <time>2021-03-16T11:44:03+01:00</time>
      </trkpt>
      <trkpt lat="47.69198" lon="-2.86144">
        <ele>44</ele>
        <time>2021-03-16T11:44:05+01:00</time>
      </trkpt>
      <trkpt lat="47.69199" lon="-2.86148">
        <ele>44</ele>
        <time>2021-03-16T11:44:09+01:00</time>
      </trkpt>
      <trkpt lat="47.692" lon="-2.86153">
        <ele>44</ele>
        <time>2021-03-16T11:44:15+01:00</time>
      </trkpt>
      <trkpt lat="47.69201" lon="-2.86157">
        <ele>44</ele>
        <time>2021-03-16T11:44:17+01:00</time>
      </trkpt>
      <trkpt lat="47.69202" lon="-2.86163">
        <ele>44</ele>
        <time>2021-03-16T11:44:19+01:00</time>
      </trkpt>
      <trkpt lat="47.69202" lon="-2.86168">
        <ele>44</ele>
        <time>2021-03-16T11:44:21+01:00</time>
      </trkpt>
      <trkpt lat="47.69201" lon="-2.86172">
        <ele>44</ele>
        <time>2021-03-16T11:44:24+01:00</time>
      </trkpt>
      <trkpt lat="47.69201" lon="-2.86178">
        <ele>44</ele>
        <time>2021-03-16T11:44:26+01:00</time>
      </trkpt>
      <trkpt lat="47.69201" lon="-2.86183">
        <ele>44</ele>
        <time>2021-03-16T11:44:27+01:00</time>
      </trkpt>
      <trkpt lat="47.69202" lon="-2.86188">
        <ele>44</ele>
        <time>2021-03-16T11:44:28+01:00</time>
      </trkpt>
      <trkpt lat="47.69202" lon="-2.86194">
        <ele>44</ele>
        <time>2021-03-16T11:44:29+01:00</time>
      </trkpt>
      <trkpt lat="47.69202" lon="-2.862">
        <ele>44</ele>
        <time>2021-03-16T11:44:30+01:00</time>
      </trkpt>
      <trkpt lat="47.69203" lon="-2.86206">
        <ele>44</ele>
        <time>2021-03-16T11:44:31+01:00</time>
      </trkpt>
      <trkpt lat="47.69203" lon="-2.86213">
        <ele>44</ele>
        <time>2021-03-16T11:44:32+01:00</time>
      </trkpt>
      <trkpt lat="47.69203" lon="-2.8622">
        <ele>44</ele>
        <time>2021-03-16T11:44:33+01:00</time>
      </trkpt>
      <trkpt lat="47.69204" lon="-2.86228">
        <ele>44</ele>
        <time>2021-03-16T11:44:34+01:00</time>
      </trkpt>
      <trkpt lat="47.69204" lon="-2.86237">
        <ele>44</ele>
        <time>2021-03-16T11:44:35+01:00</time>
      </trkpt>
      <trkpt lat="47.69205" lon="-2.86246">
        <ele>44</ele>
        <time>2021-03-16T11:44:36+01:00</time>
      </trkpt>
      <trkpt lat="47.69206" lon="-2.86255">
        <ele>44</ele>
        <time>2021-03-16T11:44:37+01:00</time>
      </trkpt>
      <trkpt lat="47.69207" lon="-2.86265">
        <ele>43</ele>
        <time>2021-03-16T11:44:38+01:00</time>
      </trkpt>
      <trkpt lat="47.69208" lon="-2.86276">
        <ele>43</ele>
        <time>2021-03-16T11:44:39+01:00</time>
      </trkpt>
      <trkpt lat="47.69208" lon="-2.86286">
        <ele>43</ele>
        <time>2021-03-16T11:44:40+01:00</time>
      </trkpt>
      <trkpt lat="47.69209" lon="-2.86296">
        <ele>42</ele>
        <time>2021-03-16T11:44:41+01:00</time>
      </trkpt>
      <trkpt lat="47.6921" lon="-2.86306">
        <ele>42</ele>
        <time>2021-03-16T11:44:42+01:00</time>
      </trkpt>
      <trkpt lat="47.6921" lon="-2.86315">
        <ele>42</ele>
        <time>2021-03-16T11:44:43+01:00</time>
      </trkpt>
      <trkpt lat="47.69212" lon="-2.86325">
        <ele>41</ele>
        <time>2021-03-16T11:44:44+01:00</time>
      </trkpt>
      <trkpt lat="47.69214" lon="-2.86334">
        <ele>41</ele>
        <time>2021-03-16T11:44:45+01:00</time>
      </trkpt>
      <trkpt lat="47.69216" lon="-2.86342">
        <ele>41</ele>
        <time>2021-03-16T11:44:46+01:00</time>
      </trkpt>
      <trkpt lat="47.6922" lon="-2.86347">
        <ele>40</ele>
        <time>2021-03-16T11:44:47+01:00</time>
      </trkpt>
      <trkpt lat="47.69225" lon="-2.86351">
        <ele>40</ele>
        <time>2021-03-16T11:44:48+01:00</time>
      </trkpt>
      <trkpt lat="47.69231" lon="-2.86353">
        <ele>39</ele>
        <time>2021-03-16T11:44:49+01:00</time>
      </trkpt>
      <trkpt lat="47.69238" lon="-2.86355">
        <ele>39</ele>
        <time>2021-03-16T11:44:50+01:00</time>
      </trkpt>
      <trkpt lat="47.69245" lon="-2.86357">
        <ele>38</ele>
        <time>2021-03-16T11:44:51+01:00</time>
      </trkpt>
      <trkpt lat="47.69251" lon="-2.86358">
        <ele>38</ele>
        <time>2021-03-16T11:44:52+01:00</time>
      </trkpt>
      <trkpt lat="47.69258" lon="-2.8636">
        <ele>38</ele>
        <time>2021-03-16T11:44:53+01:00</time>
      </trkpt>
      <trkpt lat="47.69264" lon="-2.86362">
        <ele>38</ele>
        <time>2021-03-16T11:44:54+01:00</time>
      </trkpt>
      <trkpt lat="47.69268" lon="-2.86366">
        <ele>38</ele>
        <time>2021-03-16T11:44:55+01:00</time>
      </trkpt>
      <trkpt lat="47.6927" lon="-2.8637">
        <ele>38</ele>
        <time>2021-03-16T11:44:56+01:00</time>
      </trkpt>
      <trkpt lat="47.69271" lon="-2.86375">
        <ele>38</ele>
        <time>2021-03-16T11:44:57+01:00</time>
      </trkpt>
      <trkpt lat="47.6927" lon="-2.8638">
        <ele>38</ele>
        <time>2021-03-16T11:44:58+01:00</time>
      </trkpt>
      <trkpt lat="47.69269" lon="-2.86385">
        <ele>38</ele>
        <time>2021-03-16T11:44:59+01:00</time>
      </trkpt>
      <trkpt lat="47.69267" lon="-2.8639">
        <ele>38</ele>
        <time>2021-03-16T11:45:00+01:00</time>
      </trkpt>
      <trkpt lat="47.69265" lon="-2.86395">
        <ele>38</ele>
        <time>2021-03-16T11:45:01+01:00</time>
      </trkpt>
      <trkpt lat="47.69263" lon="-2.864">
        <ele>38</ele>
        <time>2021-03-16T11:45:02+01:00</time>
      </trkpt>
      <trkpt lat="47.69262" lon="-2.86405">
        <ele>38</ele>
        <time>2021-03-16T11:45:03+01:00</time>
      </trkpt>
      <trkpt lat="47.69261" lon="-2.8641">
        <ele>38</ele>
        <time>2021-03-16T11:45:04+01:00</time>
      </trkpt>
      <trkpt lat="47.6926" lon="-2.86416">
        <ele>38</ele>
        <time>2021-03-16T11:45:05+01:00</time>
      </trkpt>
      <trkpt lat="47.69259" lon="-2.86421">
        <ele>38</ele>
        <time>2021-03-16T11:45:06+01:00</time>
      </trkpt>
      <trkpt lat="47.69258" lon="-2.86427">
        <ele>37</ele>
        <time>2021-03-16T11:45:07+01:00</time>
      </trkpt>
      <trkpt lat="47.69259" lon="-2.86433">
        <ele>37</ele>
        <time>2021-03-16T11:45:08+01:00</time>
      </trkpt>
      <trkpt lat="47.6926" lon="-2.86439">
        <ele>37</ele>
        <time>2021-03-16T11:45:09+01:00</time>
      </trkpt>
      <trkpt lat="47.69264" lon="-2.86443">
        <ele>37</ele>
        <time>2021-03-16T11:45:10+01:00</time>
      </trkpt>
      <trkpt lat="47.69268" lon="-2.86449">
        <ele>37</ele>
        <time>2021-03-16T11:45:11+01:00</time>
      </trkpt>
      <trkpt lat="47.69273" lon="-2.86454">
        <ele>36</ele>
        <time>2021-03-16T11:45:12+01:00</time>
      </trkpt>
      <trkpt lat="47.69279" lon="-2.86458">
        <ele>36</ele>
        <time>2021-03-16T11:45:13+01:00</time>
      </trkpt>
      <trkpt lat="47.69284" lon="-2.86462">
        <ele>36</ele>
        <time>2021-03-16T11:45:14+01:00</time>
      </trkpt>
      <trkpt lat="47.69289" lon="-2.86466">
        <ele>36</ele>
        <time>2021-03-16T11:45:15+01:00</time>
      </trkpt>
      <trkpt lat="47.69294" lon="-2.86469">
        <ele>35</ele>
        <time>2021-03-16T11:45:16+01:00</time>
      </trkpt>
      <trkpt lat="47.69299" lon="-2.86473">
        <ele>35</ele>
        <time>2021-03-16T11:45:17+01:00</time>
      </trkpt>
      <trkpt lat="47.69303" lon="-2.86476">
        <ele>35</ele>
        <time>2021-03-16T11:45:18+01:00</time>
      </trkpt>
      <trkpt lat="47.69307" lon="-2.86479">
        <ele>35</ele>
        <time>2021-03-16T11:45:19+01:00</time>
      </trkpt>
      <trkpt lat="47.69311" lon="-2.86482">
        <ele>35</ele>
        <time>2021-03-16T11:45:20+01:00</time>
      </trkpt>
      <trkpt lat="47.69315" lon="-2.86485">
        <ele>35</ele>
        <time>2021-03-16T11:45:21+01:00</time>
      </trkpt>
      <trkpt lat="47.69319" lon="-2.86487">
        <ele>35</ele>
        <time>2021-03-16T11:45:22+01:00</time>
      </trkpt>
      <trkpt lat="47.69323" lon="-2.86489">
        <ele>34</ele>
        <time>2021-03-16T11:45:23+01:00</time>
      </trkpt>
      <trkpt lat="47.69327" lon="-2.86492">
        <ele>34</ele>
        <time>2021-03-16T11:45:24+01:00</time>
      </trkpt>
      <trkpt lat="47.69331" lon="-2.86495">
        <ele>34</ele>
        <time>2021-03-16T11:45:25+01:00</time>
      </trkpt>
      <trkpt lat="47.69335" lon="-2.86498">
        <ele>34</ele>
        <time>2021-03-16T11:45:26+01:00</time>
      </trkpt>
      <trkpt lat="47.69339" lon="-2.86501">
        <ele>34</ele>
        <time>2021-03-16T11:45:27+01:00</time>
      </trkpt>
      <trkpt lat="47.69343" lon="-2.86504">
        <ele>34</ele>
        <time>2021-03-16T11:45:28+01:00</time>
      </trkpt>
      <trkpt lat="47.69347" lon="-2.86507">
        <ele>34</ele>
        <time>2021-03-16T11:45:29+01:00</time>
      </trkpt>
      <trkpt lat="47.6935" lon="-2.86511">
        <ele>34</ele>
        <time>2021-03-16T11:45:30+01:00</time>
      </trkpt>
      <trkpt lat="47.69353" lon="-2.86514">
        <ele>34</ele>
        <time>2021-03-16T11:45:31+01:00</time>
      </trkpt>
      <trkpt lat="47.69355" lon="-2.86518">
        <ele>34</ele>
        <time>2021-03-16T11:45:32+01:00</time>
      </trkpt>
      <trkpt lat="47.69358" lon="-2.86521">
        <ele>34</ele>
        <time>2021-03-16T11:45:33+01:00</time>
      </trkpt>
      <trkpt lat="47.69361" lon="-2.86525">
        <ele>34</ele>
        <time>2021-03-16T11:45:34+01:00</time>
      </trkpt>
      <trkpt lat="47.69364" lon="-2.86529">
        <ele>34</ele>
        <time>2021-03-16T11:45:35+01:00</time>
      </trkpt>
      <trkpt lat="47.69367" lon="-2.86533">
        <ele>34</ele>
        <time>2021-03-16T11:45:36+01:00</time>
      </trkpt>
      <trkpt lat="47.6937" lon="-2.86538">
        <ele>34</ele>
        <time>2021-03-16T11:45:37+01:00</time>
      </trkpt>
      <trkpt lat="47.69373" lon="-2.86543">
        <ele>34</ele>
        <time>2021-03-16T11:45:38+01:00</time>
      </trkpt>
      <trkpt lat="47.69377" lon="-2.86548">
        <ele>34</ele>
        <time>2021-03-16T11:45:39+01:00</time>
      </trkpt>
      <trkpt lat="47.6938" lon="-2.86552">
        <ele>34</ele>
        <time>2021-03-16T11:45:40+01:00</time>
      </trkpt>
      <trkpt lat="47.69384" lon="-2.86556">
        <ele>34</ele>
        <time>2021-03-16T11:45:41+01:00</time>
      </trkpt>
      <trkpt lat="47.69387" lon="-2.8656">
        <ele>34</ele>
        <time>2021-03-16T11:45:42+01:00</time>
      </trkpt>
      <trkpt lat="47.69391" lon="-2.86564">
        <ele>34</ele>
        <time>2021-03-16T11:45:43+01:00</time>
      </trkpt>
      <trkpt lat="47.69394" lon="-2.86568">
        <ele>34</ele>
        <time>2021-03-16T11:45:44+01:00</time>
      </trkpt>
      <trkpt lat="47.69397" lon="-2.86571">
        <ele>34</ele>
        <time>2021-03-16T11:45:45+01:00</time>
      </trkpt>
      <trkpt lat="47.694" lon="-2.86574">
        <ele>34</ele>
        <time>2021-03-16T11:45:46+01:00</time>
      </trkpt>
      <trkpt lat="47.69403" lon="-2.86578">
        <ele>34</ele>
        <time>2021-03-16T11:45:47+01:00</time>
      </trkpt>
      <trkpt lat="47.69407" lon="-2.86581">
        <ele>34</ele>
        <time>2021-03-16T11:45:48+01:00</time>
      </trkpt>
      <trkpt lat="47.6941" lon="-2.86585">
        <ele>34</ele>
        <time>2021-03-16T11:45:49+01:00</time>
      </trkpt>
      <trkpt lat="47.69413" lon="-2.86588">
        <ele>34</ele>
        <time>2021-03-16T11:45:50+01:00</time>
      </trkpt>
      <trkpt lat="47.69416" lon="-2.86592">
        <ele>34</ele>
        <time>2021-03-16T11:45:51+01:00</time>
      </trkpt>
      <trkpt lat="47.69418" lon="-2.86596">
        <ele>34</ele>
        <time>2021-03-16T11:45:52+01:00</time>
      </trkpt>
      <trkpt lat="47.6942" lon="-2.866">
        <ele>34</ele>
        <time>2021-03-16T11:45:53+01:00</time>
      </trkpt>
      <trkpt lat="47.69422" lon="-2.86604">
        <ele>35</ele>
        <time>2021-03-16T11:45:54+01:00</time>
      </trkpt>
      <trkpt lat="47.69424" lon="-2.86608">
        <ele>35</ele>
        <time>2021-03-16T11:45:55+01:00</time>
      </trkpt>
      <trkpt lat="47.69426" lon="-2.86613">
        <ele>35</ele>
        <time>2021-03-16T11:45:56+01:00</time>
      </trkpt>
      <trkpt lat="47.69428" lon="-2.86619">
        <ele>35</ele>
        <time>2021-03-16T11:45:57+01:00</time>
      </trkpt>
      <trkpt lat="47.69428" lon="-2.86624">
        <ele>35</ele>
        <time>2021-03-16T11:45:58+01:00</time>
      </trkpt>
      <trkpt lat="47.69428" lon="-2.86629">
        <ele>35</ele>
        <time>2021-03-16T11:45:59+01:00</time>
      </trkpt>
      <trkpt lat="47.69427" lon="-2.86634">
        <ele>35</ele>
        <time>2021-03-16T11:46:00+01:00</time>
      </trkpt>
      <trkpt lat="47.69426" lon="-2.86639">
        <ele>36</ele>
        <time>2021-03-16T11:46:01+01:00</time>
      </trkpt>
      <trkpt lat="47.69424" lon="-2.86644">
        <ele>36</ele>
        <time>2021-03-16T11:46:02+01:00</time>
      </trkpt>
      <trkpt lat="47.69423" lon="-2.86648">
        <ele>36</ele>
        <time>2021-03-16T11:46:03+01:00</time>
      </trkpt>
      <trkpt lat="47.69422" lon="-2.86653">
        <ele>36</ele>
        <time>2021-03-16T11:46:04+01:00</time>
      </trkpt>
      <trkpt lat="47.69421" lon="-2.86658">
        <ele>36</ele>
        <time>2021-03-16T11:46:05+01:00</time>
      </trkpt>
      <trkpt lat="47.69421" lon="-2.86663">
        <ele>37</ele>
        <time>2021-03-16T11:46:06+01:00</time>
      </trkpt>
      <trkpt lat="47.69422" lon="-2.86669">
        <ele>37</ele>
        <time>2021-03-16T11:46:07+01:00</time>
      </trkpt>
      <trkpt lat="47.69422" lon="-2.86674">
        <ele>36</ele>
        <time>2021-03-16T11:46:08+01:00</time>
      </trkpt>
      <trkpt lat="47.69422" lon="-2.8668">
        <ele>36</ele>
        <time>2021-03-16T11:46:09+01:00</time>
      </trkpt>
      <trkpt lat="47.69422" lon="-2.86686">
        <ele>36</ele>
        <time>2021-03-16T11:46:10+01:00</time>
      </trkpt>
      <trkpt lat="47.69422" lon="-2.86692">
        <ele>36</ele>
        <time>2021-03-16T11:46:11+01:00</time>
      </trkpt>
      <trkpt lat="47.69423" lon="-2.86698">
        <ele>36</ele>
        <time>2021-03-16T11:46:12+01:00</time>
      </trkpt>
      <trkpt lat="47.69423" lon="-2.86703">
        <ele>35</ele>
        <time>2021-03-16T11:46:13+01:00</time>
      </trkpt>
      <trkpt lat="47.69422" lon="-2.86708">
        <ele>35</ele>
        <time>2021-03-16T11:46:14+01:00</time>
      </trkpt>
      <trkpt lat="47.69421" lon="-2.86713">
        <ele>35</ele>
        <time>2021-03-16T11:46:15+01:00</time>
      </trkpt>
      <trkpt lat="47.6942" lon="-2.86718">
        <ele>35</ele>
        <time>2021-03-16T11:46:16+01:00</time>
      </trkpt>
      <trkpt lat="47.69418" lon="-2.86724">
        <ele>35</ele>
        <time>2021-03-16T11:46:17+01:00</time>
      </trkpt>
      <trkpt lat="47.69415" lon="-2.86731">
        <ele>35</ele>
        <time>2021-03-16T11:46:18+01:00</time>
      </trkpt>
      <trkpt lat="47.69413" lon="-2.86738">
        <ele>34</ele>
        <time>2021-03-16T11:46:19+01:00</time>
      </trkpt>
      <trkpt lat="47.6941" lon="-2.86744">
        <ele>34</ele>
        <time>2021-03-16T11:46:20+01:00</time>
      </trkpt>
      <trkpt lat="47.69408" lon="-2.8675">
        <ele>34</ele>
        <time>2021-03-16T11:46:21+01:00</time>
      </trkpt>
      <trkpt lat="47.69405" lon="-2.86756">
        <ele>34</ele>
        <time>2021-03-16T11:46:22+01:00</time>
      </trkpt>
      <trkpt lat="47.69403" lon="-2.86761">
        <ele>34</ele>
        <time>2021-03-16T11:46:23+01:00</time>
      </trkpt>
      <trkpt lat="47.69401" lon="-2.86766">
        <ele>34</ele>
        <time>2021-03-16T11:46:24+01:00</time>
      </trkpt>
      <trkpt lat="47.69399" lon="-2.86771">
        <ele>34</ele>
        <time>2021-03-16T11:46:25+01:00</time>
      </trkpt>
      <trkpt lat="47.69396" lon="-2.86777">
        <ele>34</ele>
        <time>2021-03-16T11:46:26+01:00</time>
      </trkpt>
      <trkpt lat="47.69394" lon="-2.86783">
        <ele>34</ele>
        <time>2021-03-16T11:46:27+01:00</time>
      </trkpt>
      <trkpt lat="47.69392" lon="-2.86788">
        <ele>34</ele>
        <time>2021-03-16T11:46:28+01:00</time>
      </trkpt>
      <trkpt lat="47.69389" lon="-2.86792">
        <ele>33</ele>
        <time>2021-03-16T11:46:29+01:00</time>
      </trkpt>
      <trkpt lat="47.69387" lon="-2.86797">
        <ele>33</ele>
        <time>2021-03-16T11:46:30+01:00</time>
      </trkpt>
      <trkpt lat="47.69385" lon="-2.86801">
        <ele>33</ele>
        <time>2021-03-16T11:46:31+01:00</time>
      </trkpt>
      <trkpt lat="47.69384" lon="-2.86805">
        <ele>33</ele>
        <time>2021-03-16T11:46:32+01:00</time>
      </trkpt>
      <trkpt lat="47.69382" lon="-2.86809">
        <ele>33</ele>
        <time>2021-03-16T11:46:33+01:00</time>
      </trkpt>
      <trkpt lat="47.6938" lon="-2.86814">
        <ele>33</ele>
        <time>2021-03-16T11:46:34+01:00</time>
      </trkpt>
      <trkpt lat="47.69378" lon="-2.86818">
        <ele>33</ele>
        <time>2021-03-16T11:46:35+01:00</time>
      </trkpt>
      <trkpt lat="47.69377" lon="-2.86823">
        <ele>33</ele>
        <time>2021-03-16T11:46:36+01:00</time>
      </trkpt>
      <trkpt lat="47.69375" lon="-2.86828">
        <ele>33</ele>
        <time>2021-03-16T11:46:37+01:00</time>
      </trkpt>
      <trkpt lat="47.69373" lon="-2.86833">
        <ele>33</ele>
        <time>2021-03-16T11:46:38+01:00</time>
      </trkpt>
      <trkpt lat="47.69372" lon="-2.86837">
        <ele>33</ele>
        <time>2021-03-16T11:46:39+01:00</time>
      </trkpt>
      <trkpt lat="47.69371" lon="-2.86842">
        <ele>33</ele>
        <time>2021-03-16T11:46:40+01:00</time>
      </trkpt>
      <trkpt lat="47.69369" lon="-2.86847">
        <ele>33</ele>
        <time>2021-03-16T11:46:41+01:00</time>
      </trkpt>
      <trkpt lat="47.69368" lon="-2.86851">
        <ele>33</ele>
        <time>2021-03-16T11:46:42+01:00</time>
      </trkpt>
      <trkpt lat="47.69366" lon="-2.86855">
        <ele>33</ele>
        <time>2021-03-16T11:46:43+01:00</time>
      </trkpt>
      <trkpt lat="47.69365" lon="-2.8686">
        <ele>33</ele>
        <time>2021-03-16T11:46:44+01:00</time>
      </trkpt>
      <trkpt lat="47.69364" lon="-2.86864">
        <ele>33</ele>
        <time>2021-03-16T11:46:45+01:00</time>
      </trkpt>
      <trkpt lat="47.69363" lon="-2.86869">
        <ele>33</ele>
        <time>2021-03-16T11:46:46+01:00</time>
      </trkpt>
      <trkpt lat="47.69361" lon="-2.86873">
        <ele>33</ele>
        <time>2021-03-16T11:46:47+01:00</time>
      </trkpt>
      <trkpt lat="47.6936" lon="-2.86877">
        <ele>33</ele>
        <time>2021-03-16T11:46:48+01:00</time>
      </trkpt>
      <trkpt lat="47.69359" lon="-2.86882">
        <ele>33</ele>
        <time>2021-03-16T11:46:49+01:00</time>
      </trkpt>
      <trkpt lat="47.69357" lon="-2.86886">
        <ele>33</ele>
        <time>2021-03-16T11:46:50+01:00</time>
      </trkpt>
      <trkpt lat="47.69355" lon="-2.86891">
        <ele>33</ele>
        <time>2021-03-16T11:46:51+01:00</time>
      </trkpt>
      <trkpt lat="47.69354" lon="-2.86896">
        <ele>34</ele>
        <time>2021-03-16T11:46:52+01:00</time>
      </trkpt>
      <trkpt lat="47.69352" lon="-2.86901">
        <ele>34</ele>
        <time>2021-03-16T11:46:53+01:00</time>
      </trkpt>
      <trkpt lat="47.69351" lon="-2.86906">
        <ele>34</ele>
        <time>2021-03-16T11:46:54+01:00</time>
      </trkpt>
      <trkpt lat="47.69349" lon="-2.8691">
        <ele>34</ele>
        <time>2021-03-16T11:46:55+01:00</time>
      </trkpt>
      <trkpt lat="47.69348" lon="-2.86915">
        <ele>34</ele>
        <time>2021-03-16T11:46:56+01:00</time>
      </trkpt>
      <trkpt lat="47.69347" lon="-2.8692">
        <ele>34</ele>
        <time>2021-03-16T11:46:57+01:00</time>
      </trkpt>
      <trkpt lat="47.69345" lon="-2.86925">
        <ele>34</ele>
        <time>2021-03-16T11:46:58+01:00</time>
      </trkpt>
      <trkpt lat="47.69344" lon="-2.8693">
        <ele>34</ele>
        <time>2021-03-16T11:46:59+01:00</time>
      </trkpt>
      <trkpt lat="47.69343" lon="-2.86935">
        <ele>34</ele>
        <time>2021-03-16T11:47:00+01:00</time>
      </trkpt>
      <trkpt lat="47.69341" lon="-2.8694">
        <ele>34</ele>
        <time>2021-03-16T11:47:01+01:00</time>
      </trkpt>
      <trkpt lat="47.6934" lon="-2.86944">
        <ele>34</ele>
        <time>2021-03-16T11:47:02+01:00</time>
      </trkpt>
      <trkpt lat="47.6934" lon="-2.86949">
        <ele>34</ele>
        <time>2021-03-16T11:47:03+01:00</time>
      </trkpt>
      <trkpt lat="47.69339" lon="-2.86953">
        <ele>34</ele>
        <time>2021-03-16T11:47:04+01:00</time>
      </trkpt>
      <trkpt lat="47.69338" lon="-2.86958">
        <ele>34</ele>
        <time>2021-03-16T11:47:05+01:00</time>
      </trkpt>
      <trkpt lat="47.69337" lon="-2.86963">
        <ele>34</ele>
        <time>2021-03-16T11:47:06+01:00</time>
      </trkpt>
      <trkpt lat="47.69336" lon="-2.86967">
        <ele>35</ele>
        <time>2021-03-16T11:47:07+01:00</time>
      </trkpt>
      <trkpt lat="47.69336" lon="-2.86972">
        <ele>35</ele>
        <time>2021-03-16T11:47:08+01:00</time>
      </trkpt>
      <trkpt lat="47.69335" lon="-2.86976">
        <ele>35</ele>
        <time>2021-03-16T11:47:09+01:00</time>
      </trkpt>
      <trkpt lat="47.69334" lon="-2.86981">
        <ele>35</ele>
        <time>2021-03-16T11:47:10+01:00</time>
      </trkpt>
      <trkpt lat="47.69333" lon="-2.86985">
        <ele>35</ele>
        <time>2021-03-16T11:47:11+01:00</time>
      </trkpt>
      <trkpt lat="47.69333" lon="-2.8699">
        <ele>35</ele>
        <time>2021-03-16T11:47:12+01:00</time>
      </trkpt>
      <trkpt lat="47.69332" lon="-2.86994">
        <ele>35</ele>
        <time>2021-03-16T11:47:13+01:00</time>
      </trkpt>
      <trkpt lat="47.69331" lon="-2.86998">
        <ele>35</ele>
        <time>2021-03-16T11:47:14+01:00</time>
      </trkpt>
      <trkpt lat="47.69331" lon="-2.87003">
        <ele>35</ele>
        <time>2021-03-16T11:47:15+01:00</time>
      </trkpt>
      <trkpt lat="47.6933" lon="-2.87008">
        <ele>35</ele>
        <time>2021-03-16T11:47:16+01:00</time>
      </trkpt>
      <trkpt lat="47.69329" lon="-2.87012">
        <ele>35</ele>
        <time>2021-03-16T11:47:17+01:00</time>
      </trkpt>
      <trkpt lat="47.69328" lon="-2.87017">
        <ele>35</ele>
        <time>2021-03-16T11:47:18+01:00</time>
      </trkpt>
      <trkpt lat="47.69326" lon="-2.87022">
        <ele>35</ele>
        <time>2021-03-16T11:47:19+01:00</time>
      </trkpt>
      <trkpt lat="47.69325" lon="-2.87027">
        <ele>35</ele>
        <time>2021-03-16T11:47:20+01:00</time>
      </trkpt>
      <trkpt lat="47.69324" lon="-2.87032">
        <ele>35</ele>
        <time>2021-03-16T11:47:21+01:00</time>
      </trkpt>
      <trkpt lat="47.69322" lon="-2.87036">
        <ele>36</ele>
        <time>2021-03-16T11:47:22+01:00</time>
      </trkpt>
      <trkpt lat="47.6932" lon="-2.87041">
        <ele>36</ele>
        <time>2021-03-16T11:47:23+01:00</time>
      </trkpt>
      <trkpt lat="47.69318" lon="-2.87045">
        <ele>36</ele>
        <time>2021-03-16T11:47:24+01:00</time>
      </trkpt>
      <trkpt lat="47.69316" lon="-2.8705">
        <ele>36</ele>
        <time>2021-03-16T11:47:25+01:00</time>
      </trkpt>
      <trkpt lat="47.69314" lon="-2.87054">
        <ele>36</ele>
        <time>2021-03-16T11:47:26+01:00</time>
      </trkpt>
      <trkpt lat="47.69312" lon="-2.87058">
        <ele>36</ele>
        <time>2021-03-16T11:47:27+01:00</time>
      </trkpt>
      <trkpt lat="47.6931" lon="-2.87063">
        <ele>36</ele>
        <time>2021-03-16T11:47:28+01:00</time>
      </trkpt>
      <trkpt lat="47.69308" lon="-2.87067">
        <ele>36</ele>
        <time>2021-03-16T11:47:29+01:00</time>
      </trkpt>
      <trkpt lat="47.69306" lon="-2.8707">
        <ele>36</ele>
        <time>2021-03-16T11:47:30+01:00</time>
      </trkpt>
      <trkpt lat="47.69304" lon="-2.87074">
        <ele>36</ele>
        <time>2021-03-16T11:47:31+01:00</time>
      </trkpt>
      <trkpt lat="47.69303" lon="-2.87078">
        <ele>36</ele>
        <time>2021-03-16T11:47:32+01:00</time>
      </trkpt>
      <trkpt lat="47.69302" lon="-2.87083">
        <ele>36</ele>
        <time>2021-03-16T11:47:33+01:00</time>
      </trkpt>
      <trkpt lat="47.69301" lon="-2.87087">
        <ele>37</ele>
        <time>2021-03-16T11:47:34+01:00</time>
      </trkpt>
      <trkpt lat="47.693" lon="-2.87093">
        <ele>37</ele>
        <time>2021-03-16T11:47:35+01:00</time>
      </trkpt>
      <trkpt lat="47.693" lon="-2.87099">
        <ele>37</ele>
        <time>2021-03-16T11:47:36+01:00</time>
      </trkpt>
      <trkpt lat="47.69299" lon="-2.87105">
        <ele>37</ele>
        <time>2021-03-16T11:47:37+01:00</time>
      </trkpt>
      <trkpt lat="47.69299" lon="-2.87112">
        <ele>37</ele>
        <time>2021-03-16T11:47:38+01:00</time>
      </trkpt>
      <trkpt lat="47.693" lon="-2.87117">
        <ele>37</ele>
        <time>2021-03-16T11:47:39+01:00</time>
      </trkpt>
      <trkpt lat="47.693" lon="-2.87123">
        <ele>38</ele>
        <time>2021-03-16T11:47:40+01:00</time>
      </trkpt>
      <trkpt lat="47.693" lon="-2.87127">
        <ele>38</ele>
        <time>2021-03-16T11:47:41+01:00</time>
      </trkpt>
      <trkpt lat="47.69301" lon="-2.87134">
        <ele>38</ele>
        <time>2021-03-16T11:47:43+01:00</time>
      </trkpt>
      <trkpt lat="47.69301" lon="-2.87141">
        <ele>38</ele>
        <time>2021-03-16T11:47:45+01:00</time>
      </trkpt>
      <trkpt lat="47.69301" lon="-2.87146">
        <ele>38</ele>
        <time>2021-03-16T11:47:46+01:00</time>
      </trkpt>
      <trkpt lat="47.69301" lon="-2.87151">
        <ele>39</ele>
        <time>2021-03-16T11:47:47+01:00</time>
      </trkpt>
      <trkpt lat="47.69301" lon="-2.87156">
        <ele>39</ele>
        <time>2021-03-16T11:47:48+01:00</time>
      </trkpt>
      <trkpt lat="47.69302" lon="-2.8716">
        <ele>39</ele>
        <time>2021-03-16T11:47:49+01:00</time>
      </trkpt>
      <trkpt lat="47.69302" lon="-2.87164">
        <ele>39</ele>
        <time>2021-03-16T11:47:50+01:00</time>
      </trkpt>
      <trkpt lat="47.69303" lon="-2.87171">
        <ele>39</ele>
        <time>2021-03-16T11:47:52+01:00</time>
      </trkpt>
      <trkpt lat="47.69303" lon="-2.87176">
        <ele>39</ele>
        <time>2021-03-16T11:47:53+01:00</time>
      </trkpt>
      <trkpt lat="47.69304" lon="-2.8718">
        <ele>39</ele>
        <time>2021-03-16T11:47:54+01:00</time>
      </trkpt>
      <trkpt lat="47.69305" lon="-2.87186">
        <ele>40</ele>
        <time>2021-03-16T11:47:56+01:00</time>
      </trkpt>
      <trkpt lat="47.69306" lon="-2.87192">
        <ele>40</ele>
        <time>2021-03-16T11:47:58+01:00</time>
      </trkpt>
      <trkpt lat="47.69306" lon="-2.87199">
        <ele>40</ele>
        <time>2021-03-16T11:48:00+01:00</time>
      </trkpt>
      <trkpt lat="47.69307" lon="-2.87206">
        <ele>40</ele>
        <time>2021-03-16T11:48:02+01:00</time>
      </trkpt>
      <trkpt lat="47.69307" lon="-2.87214">
        <ele>40</ele>
        <time>2021-03-16T11:48:04+01:00</time>
      </trkpt>
      <trkpt lat="47.69307" lon="-2.8722">
        <ele>41</ele>
        <time>2021-03-16T11:48:06+01:00</time>
      </trkpt>
      <trkpt lat="47.69306" lon="-2.87227">
        <ele>41</ele>
        <time>2021-03-16T11:48:08+01:00</time>
      </trkpt>
      <trkpt lat="47.69306" lon="-2.87234">
        <ele>41</ele>
        <time>2021-03-16T11:48:10+01:00</time>
      </trkpt>
      <trkpt lat="47.69306" lon="-2.8724">
        <ele>41</ele>
        <time>2021-03-16T11:48:12+01:00</time>
      </trkpt>
      <trkpt lat="47.69306" lon="-2.87245">
        <ele>41</ele>
        <time>2021-03-16T11:48:14+01:00</time>
      </trkpt>
      <trkpt lat="47.69305" lon="-2.8725">
        <ele>41</ele>
        <time>2021-03-16T11:48:17+01:00</time>
      </trkpt>
      <trkpt lat="47.69305" lon="-2.87255">
        <ele>42</ele>
        <time>2021-03-16T11:48:19+01:00</time>
      </trkpt>
      <trkpt lat="47.69304" lon="-2.8726">
        <ele>42</ele>
        <time>2021-03-16T11:48:21+01:00</time>
      </trkpt>
      <trkpt lat="47.69304" lon="-2.87264">
        <ele>42</ele>
        <time>2021-03-16T11:48:23+01:00</time>
      </trkpt>
      <trkpt lat="47.69304" lon="-2.87269">
        <ele>42</ele>
        <time>2021-03-16T11:48:25+01:00</time>
      </trkpt>
      <trkpt lat="47.69304" lon="-2.87273">
        <ele>42</ele>
        <time>2021-03-16T11:48:27+01:00</time>
      </trkpt>
      <trkpt lat="47.69305" lon="-2.87278">
        <ele>43</ele>
        <time>2021-03-16T11:48:29+01:00</time>
      </trkpt>
      <trkpt lat="47.69305" lon="-2.87283">
        <ele>43</ele>
        <time>2021-03-16T11:48:31+01:00</time>
      </trkpt>
      <trkpt lat="47.69306" lon="-2.87287">
        <ele>43</ele>
        <time>2021-03-16T11:48:33+01:00</time>
      </trkpt>
      <trkpt lat="47.69306" lon="-2.87292">
        <ele>43</ele>
        <time>2021-03-16T11:48:36+01:00</time>
      </trkpt>
      <trkpt lat="47.69306" lon="-2.87297">
        <ele>44</ele>
        <time>2021-03-16T11:48:38+01:00</time>
      </trkpt>
      <trkpt lat="47.69307" lon="-2.87302">
        <ele>44</ele>
        <time>2021-03-16T11:48:40+01:00</time>
      </trkpt>
      <trkpt lat="47.69307" lon="-2.87307">
        <ele>44</ele>
        <time>2021-03-16T11:48:42+01:00</time>
      </trkpt>
      <trkpt lat="47.69307" lon="-2.87312">
        <ele>44</ele>
        <time>2021-03-16T11:48:44+01:00</time>
      </trkpt>
      <trkpt lat="47.69307" lon="-2.87317">
        <ele>45</ele>
        <time>2021-03-16T11:48:47+01:00</time>
      </trkpt>
      <trkpt lat="47.69307" lon="-2.87322">
        <ele>45</ele>
        <time>2021-03-16T11:48:50+01:00</time>
      </trkpt>
      <trkpt lat="47.69306" lon="-2.87327">
        <ele>45</ele>
        <time>2021-03-16T11:48:53+01:00</time>
      </trkpt>
      <trkpt lat="47.69305" lon="-2.87332">
        <ele>45</ele>
        <time>2021-03-16T11:48:56+01:00</time>
      </trkpt>
      <trkpt lat="47.69305" lon="-2.87337">
        <ele>45</ele>
        <time>2021-03-16T11:48:59+01:00</time>
      </trkpt>
      <trkpt lat="47.69305" lon="-2.87342">
        <ele>46</ele>
        <time>2021-03-16T11:49:01+01:00</time>
      </trkpt>
      <trkpt lat="47.69305" lon="-2.87347">
        <ele>46</ele>
        <time>2021-03-16T11:49:03+01:00</time>
      </trkpt>
      <trkpt lat="47.69305" lon="-2.87351">
        <ele>46</ele>
        <time>2021-03-16T11:49:05+01:00</time>
      </trkpt>
      <trkpt lat="47.69305" lon="-2.87355">
        <ele>46</ele>
        <time>2021-03-16T11:49:07+01:00</time>
      </trkpt>
      <trkpt lat="47.69305" lon="-2.8736">
        <ele>46</ele>
        <time>2021-03-16T11:49:09+01:00</time>
      </trkpt>
      <trkpt lat="47.69305" lon="-2.87365">
        <ele>46</ele>
        <time>2021-03-16T11:49:11+01:00</time>
      </trkpt>
      <trkpt lat="47.69305" lon="-2.8737">
        <ele>47</ele>
        <time>2021-03-16T11:49:13+01:00</time>
      </trkpt>
      <trkpt lat="47.69305" lon="-2.87374">
        <ele>47</ele>
        <time>2021-03-16T11:49:15+01:00</time>
      </trkpt>
      <trkpt lat="47.69305" lon="-2.87379">
        <ele>47</ele>
        <time>2021-03-16T11:49:17+01:00</time>
      </trkpt>
      <trkpt lat="47.69305" lon="-2.87384">
        <ele>47</ele>
        <time>2021-03-16T11:49:20+01:00</time>
      </trkpt>
      <trkpt lat="47.69305" lon="-2.87389">
        <ele>47</ele>
        <time>2021-03-16T11:49:23+01:00</time>
      </trkpt>
      <trkpt lat="47.69305" lon="-2.87394">
        <ele>47</ele>
        <time>2021-03-16T11:49:25+01:00</time>
      </trkpt>
      <trkpt lat="47.69305" lon="-2.87398">
        <ele>48</ele>
        <time>2021-03-16T11:49:27+01:00</time>
      </trkpt>
      <trkpt lat="47.69304" lon="-2.87403">
        <ele>48</ele>
        <time>2021-03-16T11:49:29+01:00</time>
      </trkpt>
      <trkpt lat="47.69304" lon="-2.87407">
        <ele>48</ele>
        <time>2021-03-16T11:49:31+01:00</time>
      </trkpt>
      <trkpt lat="47.69305" lon="-2.87412">
        <ele>48</ele>
        <time>2021-03-16T11:49:33+01:00</time>
      </trkpt>
      <trkpt lat="47.69305" lon="-2.87416">
        <ele>48</ele>
        <time>2021-03-16T11:49:35+01:00</time>
      </trkpt>
      <trkpt lat="47.69305" lon="-2.87421">
        <ele>48</ele>
        <time>2021-03-16T11:49:37+01:00</time>
      </trkpt>
      <trkpt lat="47.69306" lon="-2.87426">
        <ele>49</ele>
        <time>2021-03-16T11:49:39+01:00</time>
      </trkpt>
      <trkpt lat="47.69306" lon="-2.87431">
        <ele>49</ele>
        <time>2021-03-16T11:49:41+01:00</time>
      </trkpt>
      <trkpt lat="47.69307" lon="-2.87436">
        <ele>49</ele>
        <time>2021-03-16T11:49:43+01:00</time>
      </trkpt>
      <trkpt lat="47.69308" lon="-2.87441">
        <ele>49</ele>
        <time>2021-03-16T11:49:45+01:00</time>
      </trkpt>
      <trkpt lat="47.69309" lon="-2.87446">
        <ele>49</ele>
        <time>2021-03-16T11:49:47+01:00</time>
      </trkpt>
      <trkpt lat="47.69309" lon="-2.87451">
        <ele>49</ele>
        <time>2021-03-16T11:49:49+01:00</time>
      </trkpt>
      <trkpt lat="47.6931" lon="-2.87456">
        <ele>50</ele>
        <time>2021-03-16T11:49:51+01:00</time>
      </trkpt>
      <trkpt lat="47.69311" lon="-2.87461">
        <ele>50</ele>
        <time>2021-03-16T11:49:53+01:00</time>
      </trkpt>
      <trkpt lat="47.69312" lon="-2.87466">
        <ele>50</ele>
        <time>2021-03-16T11:49:55+01:00</time>
      </trkpt>
      <trkpt lat="47.69312" lon="-2.87472">
        <ele>50</ele>
        <time>2021-03-16T11:49:57+01:00</time>
      </trkpt>
      <trkpt lat="47.69313" lon="-2.87478">
        <ele>50</ele>
        <time>2021-03-16T11:49:59+01:00</time>
      </trkpt>
      <trkpt lat="47.69313" lon="-2.87483">
        <ele>50</ele>
        <time>2021-03-16T11:50:01+01:00</time>
      </trkpt>
      <trkpt lat="47.69314" lon="-2.87488">
        <ele>51</ele>
        <time>2021-03-16T11:50:03+01:00</time>
      </trkpt>
      <trkpt lat="47.69314" lon="-2.87493">
        <ele>51</ele>
        <time>2021-03-16T11:50:05+01:00</time>
      </trkpt>
      <trkpt lat="47.69314" lon="-2.87499">
        <ele>51</ele>
        <time>2021-03-16T11:50:07+01:00</time>
      </trkpt>
      <trkpt lat="47.69314" lon="-2.87505">
        <ele>51</ele>
        <time>2021-03-16T11:50:09+01:00</time>
      </trkpt>
      <trkpt lat="47.69314" lon="-2.87511">
        <ele>51</ele>
        <time>2021-03-16T11:50:11+01:00</time>
      </trkpt>
      <trkpt lat="47.69314" lon="-2.87518">
        <ele>51</ele>
        <time>2021-03-16T11:50:13+01:00</time>
      </trkpt>
      <trkpt lat="47.69314" lon="-2.87524">
        <ele>51</ele>
        <time>2021-03-16T11:50:15+01:00</time>
      </trkpt>
      <trkpt lat="47.69313" lon="-2.8753">
        <ele>51</ele>
        <time>2021-03-16T11:50:17+01:00</time>
      </trkpt>
      <trkpt lat="47.6931" lon="-2.87535">
        <ele>50</ele>
        <time>2021-03-16T11:50:19+01:00</time>
      </trkpt>
      <trkpt lat="47.69306" lon="-2.87538">
        <ele>50</ele>
        <time>2021-03-16T11:50:21+01:00</time>
      </trkpt>
      <trkpt lat="47.69302" lon="-2.87539">
        <ele>50</ele>
        <time>2021-03-16T11:50:23+01:00</time>
      </trkpt>
      <trkpt lat="47.69298" lon="-2.87541">
        <ele>50</ele>
        <time>2021-03-16T11:50:25+01:00</time>
      </trkpt>
      <trkpt lat="47.69294" lon="-2.87543">
        <ele>50</ele>
        <time>2021-03-16T11:50:27+01:00</time>
      </trkpt>
      <trkpt lat="47.6929" lon="-2.87544">
        <ele>49</ele>
        <time>2021-03-16T11:51:12+01:00</time>
      </trkpt>
      <trkpt lat="47.69286" lon="-2.87545">
        <ele>49</ele>
        <time>2021-03-16T11:51:14+01:00</time>
      </trkpt>
      <trkpt lat="47.69283" lon="-2.87547">
        <ele>49</ele>
        <time>2021-03-16T11:51:16+01:00</time>
      </trkpt>
      <trkpt lat="47.69281" lon="-2.87553">
        <ele>49</ele>
        <time>2021-03-16T11:51:18+01:00</time>
      </trkpt>
      <trkpt lat="47.69282" lon="-2.87558">
        <ele>49</ele>
        <time>2021-03-16T11:51:19+01:00</time>
      </trkpt>
      <trkpt lat="47.69283" lon="-2.87563">
        <ele>49</ele>
        <time>2021-03-16T11:51:20+01:00</time>
      </trkpt>
      <trkpt lat="47.69284" lon="-2.87568">
        <ele>49</ele>
        <time>2021-03-16T11:51:21+01:00</time>
      </trkpt>
      <trkpt lat="47.69285" lon="-2.87572">
        <ele>49</ele>
        <time>2021-03-16T11:51:22+01:00</time>
      </trkpt>
      <trkpt lat="47.69287" lon="-2.87576">
        <ele>49</ele>
        <time>2021-03-16T11:51:23+01:00</time>
      </trkpt>
      <trkpt lat="47.69288" lon="-2.8758">
        <ele>49</ele>
        <time>2021-03-16T11:51:24+01:00</time>
      </trkpt>
      <trkpt lat="47.6929" lon="-2.87584">
        <ele>49</ele>
        <time>2021-03-16T11:51:25+01:00</time>
      </trkpt>
      <trkpt lat="47.69291" lon="-2.87587">
        <ele>49</ele>
        <time>2021-03-16T11:51:26+01:00</time>
      </trkpt>
      <trkpt lat="47.69293" lon="-2.87591">
        <ele>50</ele>
        <time>2021-03-16T11:51:27+01:00</time>
      </trkpt>
      <trkpt lat="47.69294" lon="-2.87595">
        <ele>50</ele>
        <time>2021-03-16T11:51:28+01:00</time>
      </trkpt>
      <trkpt lat="47.69295" lon="-2.876">
        <ele>50</ele>
        <time>2021-03-16T11:51:29+01:00</time>
      </trkpt>
      <trkpt lat="47.69297" lon="-2.87604">
        <ele>50</ele>
        <time>2021-03-16T11:51:30+01:00</time>
      </trkpt>
      <trkpt lat="47.69298" lon="-2.87608">
        <ele>50</ele>
        <time>2021-03-16T11:51:31+01:00</time>
      </trkpt>
      <trkpt lat="47.69299" lon="-2.87613">
        <ele>50</ele>
        <time>2021-03-16T11:51:32+01:00</time>
      </trkpt>
      <trkpt lat="47.693" lon="-2.87618">
        <ele>50</ele>
        <time>2021-03-16T11:51:33+01:00</time>
      </trkpt>
      <trkpt lat="47.69301" lon="-2.87622">
        <ele>50</ele>
        <time>2021-03-16T11:51:34+01:00</time>
      </trkpt>
      <trkpt lat="47.69301" lon="-2.87627">
        <ele>50</ele>
        <time>2021-03-16T11:51:35+01:00</time>
      </trkpt>
      <trkpt lat="47.69301" lon="-2.87632">
        <ele>50</ele>
        <time>2021-03-16T11:51:36+01:00</time>
      </trkpt>
      <trkpt lat="47.69301" lon="-2.87636">
        <ele>50</ele>
        <time>2021-03-16T11:51:37+01:00</time>
      </trkpt>
      <trkpt lat="47.693" lon="-2.87641">
        <ele>50</ele>
        <time>2021-03-16T11:51:38+01:00</time>
      </trkpt>
      <trkpt lat="47.693" lon="-2.87645">
        <ele>50</ele>
        <time>2021-03-16T11:51:39+01:00</time>
      </trkpt>
      <trkpt lat="47.69298" lon="-2.87651">
        <ele>49</ele>
        <time>2021-03-16T11:51:41+01:00</time>
      </trkpt>
      <trkpt lat="47.69296" lon="-2.87656">
        <ele>49</ele>
        <time>2021-03-16T11:51:42+01:00</time>
      </trkpt>
      <trkpt lat="47.69294" lon="-2.87659">
        <ele>49</ele>
        <time>2021-03-16T11:51:43+01:00</time>
      </trkpt>
      <trkpt lat="47.69292" lon="-2.87663">
        <ele>49</ele>
        <time>2021-03-16T11:51:44+01:00</time>
      </trkpt>
      <trkpt lat="47.69291" lon="-2.87666">
        <ele>50</ele>
        <time>2021-03-16T11:51:45+01:00</time>
      </trkpt>
      <trkpt lat="47.6929" lon="-2.8767">
        <ele>49</ele>
        <time>2021-03-16T11:51:46+01:00</time>
      </trkpt>
      <trkpt lat="47.69289" lon="-2.87674">
        <ele>49</ele>
        <time>2021-03-16T11:51:47+01:00</time>
      </trkpt>
      <trkpt lat="47.69288" lon="-2.87679">
        <ele>49</ele>
        <time>2021-03-16T11:51:48+01:00</time>
      </trkpt>
      <trkpt lat="47.69288" lon="-2.87685">
        <ele>49</ele>
        <time>2021-03-16T11:51:49+01:00</time>
      </trkpt>
      <trkpt lat="47.69288" lon="-2.87692">
        <ele>49</ele>
        <time>2021-03-16T11:51:50+01:00</time>
      </trkpt>
      <trkpt lat="47.69287" lon="-2.877">
        <ele>49</ele>
        <time>2021-03-16T11:51:51+01:00</time>
      </trkpt>
      <trkpt lat="47.69287" lon="-2.87708">
        <ele>49</ele>
        <time>2021-03-16T11:51:52+01:00</time>
      </trkpt>
      <trkpt lat="47.69287" lon="-2.87716">
        <ele>49</ele>
        <time>2021-03-16T11:51:53+01:00</time>
      </trkpt>
      <trkpt lat="47.69287" lon="-2.87723">
        <ele>49</ele>
        <time>2021-03-16T11:51:54+01:00</time>
      </trkpt>
      <trkpt lat="47.69287" lon="-2.87729">
        <ele>49</ele>
        <time>2021-03-16T11:51:55+01:00</time>
      </trkpt>
      <trkpt lat="47.69288" lon="-2.87735">
        <ele>49</ele>
        <time>2021-03-16T11:51:56+01:00</time>
      </trkpt>
      <trkpt lat="47.69288" lon="-2.87741">
        <ele>49</ele>
        <time>2021-03-16T11:51:57+01:00</time>
      </trkpt>
      <trkpt lat="47.69288" lon="-2.87747">
        <ele>49</ele>
        <time>2021-03-16T11:51:58+01:00</time>
      </trkpt>
      <trkpt lat="47.69287" lon="-2.87752">
        <ele>49</ele>
        <time>2021-03-16T11:51:59+01:00</time>
      </trkpt>
      <trkpt lat="47.69286" lon="-2.87757">
        <ele>49</ele>
        <time>2021-03-16T11:52:00+01:00</time>
      </trkpt>
      <trkpt lat="47.69286" lon="-2.87764">
        <ele>49</ele>
        <time>2021-03-16T11:52:01+01:00</time>
      </trkpt>
      <trkpt lat="47.69286" lon="-2.8777">
        <ele>49</ele>
        <time>2021-03-16T11:52:02+01:00</time>
      </trkpt>
      <trkpt lat="47.69287" lon="-2.87776">
        <ele>49</ele>
        <time>2021-03-16T11:52:03+01:00</time>
      </trkpt>
      <trkpt lat="47.69288" lon="-2.87782">
        <ele>48</ele>
        <time>2021-03-16T11:52:04+01:00</time>
      </trkpt>
      <trkpt lat="47.6929" lon="-2.87788">
        <ele>48</ele>
        <time>2021-03-16T11:52:05+01:00</time>
      </trkpt>
      <trkpt lat="47.69291" lon="-2.87795">
        <ele>48</ele>
        <time>2021-03-16T11:52:06+01:00</time>
      </trkpt>
      <trkpt lat="47.69292" lon="-2.87801">
        <ele>48</ele>
        <time>2021-03-16T11:52:07+01:00</time>
      </trkpt>
      <trkpt lat="47.69293" lon="-2.87808">
        <ele>48</ele>
        <time>2021-03-16T11:52:08+01:00</time>
      </trkpt>
      <trkpt lat="47.69295" lon="-2.87815">
        <ele>48</ele>
        <time>2021-03-16T11:52:09+01:00</time>
      </trkpt>
      <trkpt lat="47.69297" lon="-2.87822">
        <ele>48</ele>
        <time>2021-03-16T11:52:10+01:00</time>
      </trkpt>
      <trkpt lat="47.69298" lon="-2.8783">
        <ele>48</ele>
        <time>2021-03-16T11:52:11+01:00</time>
      </trkpt>
      <trkpt lat="47.693" lon="-2.87838">
        <ele>48</ele>
        <time>2021-03-16T11:52:12+01:00</time>
      </trkpt>
      <trkpt lat="47.69302" lon="-2.87846">
        <ele>47</ele>
        <time>2021-03-16T11:52:13+01:00</time>
      </trkpt>
      <trkpt lat="47.69303" lon="-2.87854">
        <ele>47</ele>
        <time>2021-03-16T11:52:14+01:00</time>
      </trkpt>
      <trkpt lat="47.69305" lon="-2.87863">
        <ele>47</ele>
        <time>2021-03-16T11:52:15+01:00</time>
      </trkpt>
      <trkpt lat="47.69307" lon="-2.87871">
        <ele>47</ele>
        <time>2021-03-16T11:52:16+01:00</time>
      </trkpt>
      <trkpt lat="47.69308" lon="-2.87877">
        <ele>47</ele>
        <time>2021-03-16T11:52:17+01:00</time>
      </trkpt>
      <trkpt lat="47.69309" lon="-2.87882">
        <ele>47</ele>
        <time>2021-03-16T11:52:18+01:00</time>
      </trkpt>
      <trkpt lat="47.6931" lon="-2.87886">
        <ele>47</ele>
        <time>2021-03-16T11:52:20+01:00</time>
      </trkpt>
      <trkpt lat="47.69311" lon="-2.87891">
        <ele>47</ele>
        <time>2021-03-16T11:53:00+01:00</time>
      </trkpt>
      <trkpt lat="47.6931" lon="-2.87897">
        <ele>46</ele>
        <time>2021-03-16T11:53:03+01:00</time>
      </trkpt>
      <trkpt lat="47.6931" lon="-2.87902">
        <ele>46</ele>
        <time>2021-03-16T11:53:05+01:00</time>
      </trkpt>
      <trkpt lat="47.69308" lon="-2.87905">
        <ele>46</ele>
        <time>2021-03-16T11:53:35+01:00</time>
      </trkpt>
      <trkpt lat="47.69306" lon="-2.87904">
        <ele>46</ele>
        <time>2021-03-16T11:53:40+01:00</time>
      </trkpt>
      <trkpt lat="47.69307" lon="-2.87904">
        <ele>46</ele>
        <time>2021-03-16T11:53:50+01:00</time>
      </trkpt>
      <trkpt lat="47.69309" lon="-2.87905">
        <ele>46</ele>
        <time>2021-03-16T11:53:54+01:00</time>
      </trkpt>
      <trkpt lat="47.69318" lon="-2.87919">
        <ele>46</ele>
        <time>2021-03-16T11:54:33+01:00</time>
      </trkpt>
      <trkpt lat="47.69332" lon="-2.87943">
        <ele>46</ele>
        <time>2021-03-16T11:54:38+01:00</time>
      </trkpt>
      <trkpt lat="47.69338" lon="-2.87955">
        <ele>45</ele>
        <time>2021-03-16T11:54:39+01:00</time>
      </trkpt>
      <trkpt lat="47.69342" lon="-2.87962">
        <ele>45</ele>
        <time>2021-03-16T11:54:40+01:00</time>
      </trkpt>
      <trkpt lat="47.69345" lon="-2.87969">
        <ele>45</ele>
        <time>2021-03-16T11:54:41+01:00</time>
      </trkpt>
      <trkpt lat="47.69347" lon="-2.87974">
        <ele>45</ele>
        <time>2021-03-16T11:54:42+01:00</time>
      </trkpt>
      <trkpt lat="47.69349" lon="-2.8798">
        <ele>44</ele>
        <time>2021-03-16T11:54:43+01:00</time>
      </trkpt>
      <trkpt lat="47.69352" lon="-2.87985">
        <ele>44</ele>
        <time>2021-03-16T11:54:44+01:00</time>
      </trkpt>
      <trkpt lat="47.69354" lon="-2.8799">
        <ele>44</ele>
        <time>2021-03-16T11:54:45+01:00</time>
      </trkpt>
      <trkpt lat="47.69356" lon="-2.87996">
        <ele>43</ele>
        <time>2021-03-16T11:54:46+01:00</time>
      </trkpt>
      <trkpt lat="47.69359" lon="-2.88003">
        <ele>43</ele>
        <time>2021-03-16T11:54:47+01:00</time>
      </trkpt>
      <trkpt lat="47.69361" lon="-2.8801">
        <ele>43</ele>
        <time>2021-03-16T11:54:48+01:00</time>
      </trkpt>
      <trkpt lat="47.69364" lon="-2.88017">
        <ele>42</ele>
        <time>2021-03-16T11:54:49+01:00</time>
      </trkpt>
      <trkpt lat="47.69367" lon="-2.88024">
        <ele>42</ele>
        <time>2021-03-16T11:54:50+01:00</time>
      </trkpt>
      <trkpt lat="47.6937" lon="-2.88031">
        <ele>42</ele>
        <time>2021-03-16T11:54:51+01:00</time>
      </trkpt>
      <trkpt lat="47.69373" lon="-2.88038">
        <ele>41</ele>
        <time>2021-03-16T11:54:52+01:00</time>
      </trkpt>
      <trkpt lat="47.69377" lon="-2.88045">
        <ele>41</ele>
        <time>2021-03-16T11:54:53+01:00</time>
      </trkpt>
      <trkpt lat="47.6938" lon="-2.88052">
        <ele>41</ele>
        <time>2021-03-16T11:54:54+01:00</time>
      </trkpt>
      <trkpt lat="47.69383" lon="-2.88059">
        <ele>40</ele>
        <time>2021-03-16T11:54:55+01:00</time>
      </trkpt>
      <trkpt lat="47.69386" lon="-2.88066">
        <ele>40</ele>
        <time>2021-03-16T11:54:56+01:00</time>
      </trkpt>
      <trkpt lat="47.6939" lon="-2.88074">
        <ele>40</ele>
        <time>2021-03-16T11:54:57+01:00</time>
      </trkpt>
      <trkpt lat="47.69393" lon="-2.88081">
        <ele>39</ele>
        <time>2021-03-16T11:54:58+01:00</time>
      </trkpt>
      <trkpt lat="47.69396" lon="-2.88089">
        <ele>39</ele>
        <time>2021-03-16T11:54:59+01:00</time>
      </trkpt>
      <trkpt lat="47.69399" lon="-2.88096">
        <ele>39</ele>
        <time>2021-03-16T11:55:00+01:00</time>
      </trkpt>
      <trkpt lat="47.69402" lon="-2.88105">
        <ele>39</ele>
        <time>2021-03-16T11:55:01+01:00</time>
      </trkpt>
      <trkpt lat="47.69405" lon="-2.88113">
        <ele>39</ele>
        <time>2021-03-16T11:55:02+01:00</time>
      </trkpt>
      <trkpt lat="47.69408" lon="-2.88122">
        <ele>39</ele>
        <time>2021-03-16T11:55:03+01:00</time>
      </trkpt>
      <trkpt lat="47.6941" lon="-2.88131">
        <ele>39</ele>
        <time>2021-03-16T11:55:04+01:00</time>
      </trkpt>
      <trkpt lat="47.69411" lon="-2.88141">
        <ele>39</ele>
        <time>2021-03-16T11:55:05+01:00</time>
      </trkpt>
      <trkpt lat="47.69412" lon="-2.8815">
        <ele>39</ele>
        <time>2021-03-16T11:55:06+01:00</time>
      </trkpt>
      <trkpt lat="47.69413" lon="-2.8816">
        <ele>39</ele>
        <time>2021-03-16T11:55:07+01:00</time>
      </trkpt>
      <trkpt lat="47.69413" lon="-2.88169">
        <ele>39</ele>
        <time>2021-03-16T11:55:08+01:00</time>
      </trkpt>
      <trkpt lat="47.69413" lon="-2.88178">
        <ele>39</ele>
        <time>2021-03-16T11:55:09+01:00</time>
      </trkpt>
      <trkpt lat="47.69412" lon="-2.88186">
        <ele>39</ele>
        <time>2021-03-16T11:55:10+01:00</time>
      </trkpt>
      <trkpt lat="47.69411" lon="-2.88194">
        <ele>39</ele>
        <time>2021-03-16T11:55:11+01:00</time>
      </trkpt>
      <trkpt lat="47.6941" lon="-2.88201">
        <ele>39</ele>
        <time>2021-03-16T11:55:12+01:00</time>
      </trkpt>
      <trkpt lat="47.69409" lon="-2.88207">
        <ele>38</ele>
        <time>2021-03-16T11:55:13+01:00</time>
      </trkpt>
      <trkpt lat="47.69407" lon="-2.88212">
        <ele>38</ele>
        <time>2021-03-16T11:55:14+01:00</time>
      </trkpt>
      <trkpt lat="47.69406" lon="-2.88217">
        <ele>38</ele>
        <time>2021-03-16T11:55:15+01:00</time>
      </trkpt>
      <trkpt lat="47.69404" lon="-2.88221">
        <ele>38</ele>
        <time>2021-03-16T11:55:16+01:00</time>
      </trkpt>
      <trkpt lat="47.69402" lon="-2.88226">
        <ele>38</ele>
        <time>2021-03-16T11:55:18+01:00</time>
      </trkpt>
      <trkpt lat="47.694" lon="-2.88229">
        <ele>38</ele>
        <time>2021-03-16T11:56:27+01:00</time>
      </trkpt>
      <trkpt lat="47.69398" lon="-2.88233">
        <ele>38</ele>
        <time>2021-03-16T11:56:29+01:00</time>
      </trkpt>
      <trkpt lat="47.69397" lon="-2.88239">
        <ele>38</ele>
        <time>2021-03-16T11:56:31+01:00</time>
      </trkpt>
      <trkpt lat="47.69397" lon="-2.88246">
        <ele>38</ele>
        <time>2021-03-16T11:56:33+01:00</time>
      </trkpt>
      <trkpt lat="47.69398" lon="-2.88251">
        <ele>37</ele>
        <time>2021-03-16T11:56:36+01:00</time>
      </trkpt>
      <trkpt lat="47.69398" lon="-2.88256">
        <ele>37</ele>
        <time>2021-03-16T11:56:39+01:00</time>
      </trkpt>
      <trkpt lat="47.69396" lon="-2.8826">
        <ele>37</ele>
        <time>2021-03-16T11:58:40+01:00</time>
      </trkpt>
      <trkpt lat="47.69398" lon="-2.88264">
        <ele>37</ele>
        <time>2021-03-16T11:58:43+01:00</time>
      </trkpt>
      <trkpt lat="47.694" lon="-2.88268">
        <ele>37</ele>
        <time>2021-03-16T11:58:45+01:00</time>
      </trkpt>
      <trkpt lat="47.69403" lon="-2.88273">
        <ele>36</ele>
        <time>2021-03-16T11:58:47+01:00</time>
      </trkpt>
      <trkpt lat="47.69405" lon="-2.88277">
        <ele>36</ele>
        <time>2021-03-16T11:58:48+01:00</time>
      </trkpt>
      <trkpt lat="47.69408" lon="-2.88282">
        <ele>36</ele>
        <time>2021-03-16T11:58:50+01:00</time>
      </trkpt>
      <trkpt lat="47.6941" lon="-2.88286">
        <ele>36</ele>
        <time>2021-03-16T11:58:51+01:00</time>
      </trkpt>
      <trkpt lat="47.69413" lon="-2.88292">
        <ele>36</ele>
        <time>2021-03-16T11:58:53+01:00</time>
      </trkpt>
      <trkpt lat="47.69415" lon="-2.88296">
        <ele>36</ele>
        <time>2021-03-16T11:58:54+01:00</time>
      </trkpt>
      <trkpt lat="47.69417" lon="-2.883">
        <ele>36</ele>
        <time>2021-03-16T11:58:55+01:00</time>
      </trkpt>
      <trkpt lat="47.69419" lon="-2.88303">
        <ele>35</ele>
        <time>2021-03-16T11:58:56+01:00</time>
      </trkpt>
      <trkpt lat="47.69422" lon="-2.88306">
        <ele>35</ele>
        <time>2021-03-16T11:58:57+01:00</time>
      </trkpt>
      <trkpt lat="47.69425" lon="-2.88309">
        <ele>35</ele>
        <time>2021-03-16T11:58:58+01:00</time>
      </trkpt>
      <trkpt lat="47.69428" lon="-2.88312">
        <ele>35</ele>
        <time>2021-03-16T11:58:59+01:00</time>
      </trkpt>
      <trkpt lat="47.69431" lon="-2.88314">
        <ele>35</ele>
        <time>2021-03-16T11:59:00+01:00</time>
      </trkpt>
      <trkpt lat="47.69434" lon="-2.88317">
        <ele>35</ele>
        <time>2021-03-16T11:59:01+01:00</time>
      </trkpt>
      <trkpt lat="47.69437" lon="-2.88318">
        <ele>35</ele>
        <time>2021-03-16T11:59:02+01:00</time>
      </trkpt>
      <trkpt lat="47.69441" lon="-2.8832">
        <ele>34</ele>
        <time>2021-03-16T11:59:03+01:00</time>
      </trkpt>
      <trkpt lat="47.69444" lon="-2.88321">
        <ele>34</ele>
        <time>2021-03-16T11:59:04+01:00</time>
      </trkpt>
      <trkpt lat="47.69447" lon="-2.88323">
        <ele>34</ele>
        <time>2021-03-16T11:59:05+01:00</time>
      </trkpt>
      <trkpt lat="47.6945" lon="-2.88324">
        <ele>34</ele>
        <time>2021-03-16T11:59:06+01:00</time>
      </trkpt>
      <trkpt lat="47.69454" lon="-2.88326">
        <ele>34</ele>
        <time>2021-03-16T11:59:08+01:00</time>
      </trkpt>
      <trkpt lat="47.69457" lon="-2.88329">
        <ele>34</ele>
        <time>2021-03-16T11:59:10+01:00</time>
      </trkpt>
      <trkpt lat="47.6946" lon="-2.88334">
        <ele>34</ele>
        <time>2021-03-16T11:59:12+01:00</time>
      </trkpt>
      <trkpt lat="47.69461" lon="-2.88338">
        <ele>34</ele>
        <time>2021-03-16T11:59:14+01:00</time>
      </trkpt>
      <trkpt lat="47.69459" lon="-2.88345">
        <ele>34</ele>
        <time>2021-03-16T12:57:23+01:00</time>
      </trkpt>
      <trkpt lat="47.69455" lon="-2.88349">
        <ele>34</ele>
        <time>2021-03-16T12:57:25+01:00</time>
      </trkpt>
      <trkpt lat="47.69451" lon="-2.88353">
        <ele>34</ele>
        <time>2021-03-16T12:57:27+01:00</time>
      </trkpt>
      <trkpt lat="47.69447" lon="-2.88357">
        <ele>34</ele>
        <time>2021-03-16T12:57:29+01:00</time>
      </trkpt>
      <trkpt lat="47.69445" lon="-2.88361">
        <ele>34</ele>
        <time>2021-03-16T12:57:32+01:00</time>
      </trkpt>
      <trkpt lat="47.69442" lon="-2.88364">
        <ele>34</ele>
        <time>2021-03-16T12:57:35+01:00</time>
      </trkpt>
      <trkpt lat="47.69439" lon="-2.88367">
        <ele>35</ele>
        <time>2021-03-16T12:57:38+01:00</time>
      </trkpt>
      <trkpt lat="47.69431" lon="-2.88378">
        <ele>35</ele>
        <time>2021-03-16T12:58:15+01:00</time>
      </trkpt>
      <trkpt lat="47.69426" lon="-2.88383">
        <ele>35</ele>
        <time>2021-03-16T12:58:17+01:00</time>
      </trkpt>
      <trkpt lat="47.69421" lon="-2.88384">
        <ele>35</ele>
        <time>2021-03-16T12:58:19+01:00</time>
      </trkpt>
      <trkpt lat="47.69417" lon="-2.88383">
        <ele>35</ele>
        <time>2021-03-16T12:58:21+01:00</time>
      </trkpt>
      <trkpt lat="47.69414" lon="-2.88384">
        <ele>34</ele>
        <time>2021-03-16T12:58:23+01:00</time>
      </trkpt>
      <trkpt lat="47.6941" lon="-2.88386">
        <ele>34</ele>
        <time>2021-03-16T12:58:25+01:00</time>
      </trkpt>
      <trkpt lat="47.69406" lon="-2.88389">
        <ele>34</ele>
        <time>2021-03-16T12:58:27+01:00</time>
      </trkpt>
      <trkpt lat="47.69403" lon="-2.88393">
        <ele>34</ele>
        <time>2021-03-16T12:58:29+01:00</time>
      </trkpt>
      <trkpt lat="47.694" lon="-2.88396">
        <ele>34</ele>
        <time>2021-03-16T12:58:31+01:00</time>
      </trkpt>
      <trkpt lat="47.69396" lon="-2.88399">
        <ele>34</ele>
        <time>2021-03-16T12:58:33+01:00</time>
      </trkpt>
      <trkpt lat="47.69392" lon="-2.88402">
        <ele>33</ele>
        <time>2021-03-16T12:58:35+01:00</time>
      </trkpt>
      <trkpt lat="47.69388" lon="-2.88404">
        <ele>33</ele>
        <time>2021-03-16T12:58:37+01:00</time>
      </trkpt>
      <trkpt lat="47.69384" lon="-2.88406">
        <ele>33</ele>
        <time>2021-03-16T12:58:39+01:00</time>
      </trkpt>
      <trkpt lat="47.6938" lon="-2.88408">
        <ele>33</ele>
        <time>2021-03-16T12:58:41+01:00</time>
      </trkpt>
      <trkpt lat="47.69375" lon="-2.88411">
        <ele>32</ele>
        <time>2021-03-16T12:58:43+01:00</time>
      </trkpt>
      <trkpt lat="47.69371" lon="-2.88414">
        <ele>32</ele>
        <time>2021-03-16T12:58:45+01:00</time>
      </trkpt>
      <trkpt lat="47.69367" lon="-2.88417">
        <ele>32</ele>
        <time>2021-03-16T12:58:47+01:00</time>
      </trkpt>
      <trkpt lat="47.69363" lon="-2.8842">
        <ele>32</ele>
        <time>2021-03-16T12:58:49+01:00</time>
      </trkpt>
      <trkpt lat="47.69359" lon="-2.88423">
        <ele>32</ele>
        <time>2021-03-16T12:58:51+01:00</time>
      </trkpt>
      <trkpt lat="47.69356" lon="-2.88427">
        <ele>32</ele>
        <time>2021-03-16T12:58:53+01:00</time>
      </trkpt>
      <trkpt lat="47.69353" lon="-2.88431">
        <ele>32</ele>
        <time>2021-03-16T12:58:55+01:00</time>
      </trkpt>
      <trkpt lat="47.6935" lon="-2.88435">
        <ele>32</ele>
        <time>2021-03-16T12:58:57+01:00</time>
      </trkpt>
      <trkpt lat="47.69349" lon="-2.8844">
        <ele>33</ele>
        <time>2021-03-16T12:58:59+01:00</time>
      </trkpt>
      <trkpt lat="47.6935" lon="-2.88444">
        <ele>33</ele>
        <time>2021-03-16T12:59:01+01:00</time>
      </trkpt>
      <trkpt lat="47.69354" lon="-2.88447">
        <ele>34</ele>
        <time>2021-03-16T12:59:03+01:00</time>
      </trkpt>
      <trkpt lat="47.69358" lon="-2.88448">
        <ele>34</ele>
        <time>2021-03-16T12:59:05+01:00</time>
      </trkpt>
      <trkpt lat="47.69361" lon="-2.88449">
        <ele>34</ele>
        <time>2021-03-16T12:59:07+01:00</time>
      </trkpt>
      <trkpt lat="47.69366" lon="-2.8845">
        <ele>35</ele>
        <time>2021-03-16T12:59:09+01:00</time>
      </trkpt>
      <trkpt lat="47.6937" lon="-2.88451">
        <ele>35</ele>
        <time>2021-03-16T12:59:11+01:00</time>
      </trkpt>
      <trkpt lat="47.69374" lon="-2.88451">
        <ele>35</ele>
        <time>2021-03-16T12:59:13+01:00</time>
      </trkpt>
      <trkpt lat="47.69378" lon="-2.88452">
        <ele>35</ele>
        <time>2021-03-16T12:59:15+01:00</time>
      </trkpt>
      <trkpt lat="47.69382" lon="-2.88453">
        <ele>36</ele>
        <time>2021-03-16T12:59:17+01:00</time>
      </trkpt>
      <trkpt lat="47.69386" lon="-2.88455">
        <ele>36</ele>
        <time>2021-03-16T12:59:19+01:00</time>
      </trkpt>
      <trkpt lat="47.69388" lon="-2.88459">
        <ele>37</ele>
        <time>2021-03-16T12:59:21+01:00</time>
      </trkpt>
      <trkpt lat="47.69389" lon="-2.88464">
        <ele>37</ele>
        <time>2021-03-16T12:59:23+01:00</time>
      </trkpt>
      <trkpt lat="47.69388" lon="-2.88469">
        <ele>37</ele>
        <time>2021-03-16T12:59:25+01:00</time>
      </trkpt>
      <trkpt lat="47.69387" lon="-2.88474">
        <ele>38</ele>
        <time>2021-03-16T12:59:27+01:00</time>
      </trkpt>
      <trkpt lat="47.69386" lon="-2.88479">
        <ele>38</ele>
        <time>2021-03-16T12:59:29+01:00</time>
      </trkpt>
      <trkpt lat="47.69385" lon="-2.88485">
        <ele>38</ele>
        <time>2021-03-16T12:59:31+01:00</time>
      </trkpt>
      <trkpt lat="47.69385" lon="-2.8849">
        <ele>39</ele>
        <time>2021-03-16T12:59:33+01:00</time>
      </trkpt>
      <trkpt lat="47.69386" lon="-2.88495">
        <ele>39</ele>
        <time>2021-03-16T12:59:35+01:00</time>
      </trkpt>
      <trkpt lat="47.69387" lon="-2.88498">
        <ele>39</ele>
        <time>2021-03-16T12:59:37+01:00</time>
      </trkpt>
      <trkpt lat="47.69388" lon="-2.88502">
        <ele>40</ele>
        <time>2021-03-16T12:59:39+01:00</time>
      </trkpt>
      <trkpt lat="47.6939" lon="-2.88506">
        <ele>40</ele>
        <time>2021-03-16T12:59:41+01:00</time>
      </trkpt>
      <trkpt lat="47.69391" lon="-2.8851">
        <ele>40</ele>
        <time>2021-03-16T12:59:43+01:00</time>
      </trkpt>
      <trkpt lat="47.69393" lon="-2.88513">
        <ele>41</ele>
        <time>2021-03-16T12:59:45+01:00</time>
      </trkpt>
      <trkpt lat="47.69395" lon="-2.88516">
        <ele>41</ele>
        <time>2021-03-16T12:59:47+01:00</time>
      </trkpt>
      <trkpt lat="47.69398" lon="-2.8852">
        <ele>41</ele>
        <time>2021-03-16T12:59:50+01:00</time>
      </trkpt>
      <trkpt lat="47.694" lon="-2.88524">
        <ele>42</ele>
        <time>2021-03-16T12:59:52+01:00</time>
      </trkpt>
      <trkpt lat="47.69403" lon="-2.88527">
        <ele>42</ele>
        <time>2021-03-16T12:59:54+01:00</time>
      </trkpt>
      <trkpt lat="47.69405" lon="-2.88531">
        <ele>42</ele>
        <time>2021-03-16T12:59:56+01:00</time>
      </trkpt>
      <trkpt lat="47.69407" lon="-2.88534">
        <ele>43</ele>
        <time>2021-03-16T12:59:58+01:00</time>
      </trkpt>
      <trkpt lat="47.6941" lon="-2.88538">
        <ele>43</ele>
        <time>2021-03-16T13:00:00+01:00</time>
      </trkpt>
      <trkpt lat="47.69412" lon="-2.88541">
        <ele>43</ele>
        <time>2021-03-16T13:00:02+01:00</time>
      </trkpt>
      <trkpt lat="47.69414" lon="-2.88545">
        <ele>44</ele>
        <time>2021-03-16T13:00:04+01:00</time>
      </trkpt>
      <trkpt lat="47.69416" lon="-2.88549">
        <ele>44</ele>
        <time>2021-03-16T13:00:06+01:00</time>
      </trkpt>
      <trkpt lat="47.69418" lon="-2.88554">
        <ele>44</ele>
        <time>2021-03-16T13:00:08+01:00</time>
      </trkpt>
      <trkpt lat="47.6942" lon="-2.88558">
        <ele>44</ele>
        <time>2021-03-16T13:00:10+01:00</time>
      </trkpt>
      <trkpt lat="47.69423" lon="-2.88563">
        <ele>45</ele>
        <time>2021-03-16T13:00:12+01:00</time>
      </trkpt>
      <trkpt lat="47.69425" lon="-2.88568">
        <ele>45</ele>
        <time>2021-03-16T13:00:14+01:00</time>
      </trkpt>
      <trkpt lat="47.69427" lon="-2.88573">
        <ele>45</ele>
        <time>2021-03-16T13:00:16+01:00</time>
      </trkpt>
      <trkpt lat="47.69428" lon="-2.88578">
        <ele>46</ele>
        <time>2021-03-16T13:00:18+01:00</time>
      </trkpt>
      <trkpt lat="47.6943" lon="-2.88584">
        <ele>46</ele>
        <time>2021-03-16T13:00:20+01:00</time>
      </trkpt>
      <trkpt lat="47.69431" lon="-2.8859">
        <ele>46</ele>
        <time>2021-03-16T13:00:22+01:00</time>
      </trkpt>
      <trkpt lat="47.69431" lon="-2.88595">
        <ele>46</ele>
        <time>2021-03-16T13:00:24+01:00</time>
      </trkpt>
      <trkpt lat="47.69432" lon="-2.88601">
        <ele>46</ele>
        <time>2021-03-16T13:00:26+01:00</time>
      </trkpt>
      <trkpt lat="47.69432" lon="-2.88607">
        <ele>46</ele>
        <time>2021-03-16T13:00:28+01:00</time>
      </trkpt>
      <trkpt lat="47.69433" lon="-2.88613">
        <ele>46</ele>
        <time>2021-03-16T13:00:30+01:00</time>
      </trkpt>
      <trkpt lat="47.69433" lon="-2.88619">
        <ele>46</ele>
        <time>2021-03-16T13:00:32+01:00</time>
      </trkpt>
      <trkpt lat="47.69433" lon="-2.88625">
        <ele>46</ele>
        <time>2021-03-16T13:00:34+01:00</time>
      </trkpt>
      <trkpt lat="47.69433" lon="-2.88632">
        <ele>46</ele>
        <time>2021-03-16T13:00:36+01:00</time>
      </trkpt>
      <trkpt lat="47.69432" lon="-2.88638">
        <ele>46</ele>
        <time>2021-03-16T13:00:38+01:00</time>
      </trkpt>
      <trkpt lat="47.69429" lon="-2.88645">
        <ele>46</ele>
        <time>2021-03-16T13:00:40+01:00</time>
      </trkpt>
      <trkpt lat="47.69427" lon="-2.8865">
        <ele>46</ele>
        <time>2021-03-16T13:00:41+01:00</time>
      </trkpt>
      <trkpt lat="47.69424" lon="-2.88653">
        <ele>46</ele>
        <time>2021-03-16T13:00:42+01:00</time>
      </trkpt>
      <trkpt lat="47.69422" lon="-2.88656">
        <ele>46</ele>
        <time>2021-03-16T13:00:43+01:00</time>
      </trkpt>
      <trkpt lat="47.69418" lon="-2.8866">
        <ele>46</ele>
        <time>2021-03-16T13:00:45+01:00</time>
      </trkpt>
      <trkpt lat="47.69416" lon="-2.88663">
        <ele>46</ele>
        <time>2021-03-16T13:00:46+01:00</time>
      </trkpt>
      <trkpt lat="47.69413" lon="-2.88666">
        <ele>46</ele>
        <time>2021-03-16T13:00:47+01:00</time>
      </trkpt>
      <trkpt lat="47.69411" lon="-2.88668">
        <ele>46</ele>
        <time>2021-03-16T13:00:48+01:00</time>
      </trkpt>
      <trkpt lat="47.69408" lon="-2.88671">
        <ele>46</ele>
        <time>2021-03-16T13:00:49+01:00</time>
      </trkpt>
      <trkpt lat="47.69405" lon="-2.88673">
        <ele>45</ele>
        <time>2021-03-16T13:00:50+01:00</time>
      </trkpt>
      <trkpt lat="47.69403" lon="-2.88676">
        <ele>45</ele>
        <time>2021-03-16T13:00:51+01:00</time>
      </trkpt>
      <trkpt lat="47.694" lon="-2.88678">
        <ele>45</ele>
        <time>2021-03-16T13:00:52+01:00</time>
      </trkpt>
      <trkpt lat="47.69398" lon="-2.88681">
        <ele>45</ele>
        <time>2021-03-16T13:00:53+01:00</time>
      </trkpt>
      <trkpt lat="47.69395" lon="-2.88683">
        <ele>45</ele>
        <time>2021-03-16T13:00:54+01:00</time>
      </trkpt>
      <trkpt lat="47.69392" lon="-2.88686">
        <ele>45</ele>
        <time>2021-03-16T13:00:55+01:00</time>
      </trkpt>
      <trkpt lat="47.69389" lon="-2.88689">
        <ele>44</ele>
        <time>2021-03-16T13:00:56+01:00</time>
      </trkpt>
      <trkpt lat="47.69386" lon="-2.88691">
        <ele>44</ele>
        <time>2021-03-16T13:00:57+01:00</time>
      </trkpt>
      <trkpt lat="47.69384" lon="-2.88694">
        <ele>44</ele>
        <time>2021-03-16T13:00:58+01:00</time>
      </trkpt>
      <trkpt lat="47.69381" lon="-2.88697">
        <ele>44</ele>
        <time>2021-03-16T13:00:59+01:00</time>
      </trkpt>
      <trkpt lat="47.69379" lon="-2.887">
        <ele>44</ele>
        <time>2021-03-16T13:01:00+01:00</time>
      </trkpt>
      <trkpt lat="47.69376" lon="-2.88703">
        <ele>44</ele>
        <time>2021-03-16T13:01:02+01:00</time>
      </trkpt>
      <trkpt lat="47.69373" lon="-2.88709">
        <ele>43</ele>
        <time>2021-03-16T13:01:04+01:00</time>
      </trkpt>
      <trkpt lat="47.69372" lon="-2.88714">
        <ele>43</ele>
        <time>2021-03-16T13:01:06+01:00</time>
      </trkpt>
      <trkpt lat="47.6937" lon="-2.88716">
        <ele>43</ele>
        <time>2021-03-16T13:01:12+01:00</time>
      </trkpt>
      <trkpt lat="47.69367" lon="-2.88719">
        <ele>43</ele>
        <time>2021-03-16T13:01:15+01:00</time>
      </trkpt>
      <trkpt lat="47.69367" lon="-2.88725">
        <ele>43</ele>
        <time>2021-03-16T13:01:17+01:00</time>
      </trkpt>
      <trkpt lat="47.69368" lon="-2.8873">
        <ele>43</ele>
        <time>2021-03-16T13:01:18+01:00</time>
      </trkpt>
      <trkpt lat="47.6937" lon="-2.88735">
        <ele>43</ele>
        <time>2021-03-16T13:01:19+01:00</time>
      </trkpt>
      <trkpt lat="47.69371" lon="-2.8874">
        <ele>42</ele>
        <time>2021-03-16T13:01:20+01:00</time>
      </trkpt>
      <trkpt lat="47.69373" lon="-2.88745">
        <ele>42</ele>
        <time>2021-03-16T13:01:21+01:00</time>
      </trkpt>
      <trkpt lat="47.69375" lon="-2.88751">
        <ele>42</ele>
        <time>2021-03-16T13:01:22+01:00</time>
      </trkpt>
      <trkpt lat="47.69378" lon="-2.88756">
        <ele>42</ele>
        <time>2021-03-16T13:01:23+01:00</time>
      </trkpt>
      <trkpt lat="47.6938" lon="-2.88762">
        <ele>42</ele>
        <time>2021-03-16T13:01:24+01:00</time>
      </trkpt>
      <trkpt lat="47.69382" lon="-2.88768">
        <ele>42</ele>
        <time>2021-03-16T13:01:25+01:00</time>
      </trkpt>
      <trkpt lat="47.69384" lon="-2.88773">
        <ele>42</ele>
        <time>2021-03-16T13:01:26+01:00</time>
      </trkpt>
      <trkpt lat="47.69386" lon="-2.88779">
        <ele>41</ele>
        <time>2021-03-16T13:01:27+01:00</time>
      </trkpt>
      <trkpt lat="47.69388" lon="-2.88784">
        <ele>41</ele>
        <time>2021-03-16T13:01:28+01:00</time>
      </trkpt>
      <trkpt lat="47.6939" lon="-2.8879">
        <ele>41</ele>
        <time>2021-03-16T13:01:29+01:00</time>
      </trkpt>
      <trkpt lat="47.69393" lon="-2.88796">
        <ele>41</ele>
        <time>2021-03-16T13:01:30+01:00</time>
      </trkpt>
      <trkpt lat="47.69395" lon="-2.88801">
        <ele>41</ele>
        <time>2021-03-16T13:01:31+01:00</time>
      </trkpt>
      <trkpt lat="47.69398" lon="-2.88805">
        <ele>41</ele>
        <time>2021-03-16T13:01:32+01:00</time>
      </trkpt>
      <trkpt lat="47.694" lon="-2.88809">
        <ele>41</ele>
        <time>2021-03-16T13:01:33+01:00</time>
      </trkpt>
      <trkpt lat="47.69402" lon="-2.88812">
        <ele>41</ele>
        <time>2021-03-16T13:01:34+01:00</time>
      </trkpt>
      <trkpt lat="47.69405" lon="-2.88817">
        <ele>41</ele>
        <time>2021-03-16T13:01:36+01:00</time>
      </trkpt>
      <trkpt lat="47.69407" lon="-2.8882">
        <ele>41</ele>
        <time>2021-03-16T13:01:37+01:00</time>
      </trkpt>
      <trkpt lat="47.69409" lon="-2.88824">
        <ele>41</ele>
        <time>2021-03-16T13:01:38+01:00</time>
      </trkpt>
      <trkpt lat="47.69411" lon="-2.88827">
        <ele>41</ele>
        <time>2021-03-16T13:01:39+01:00</time>
      </trkpt>
      <trkpt lat="47.69413" lon="-2.8883">
        <ele>41</ele>
        <time>2021-03-16T13:01:40+01:00</time>
      </trkpt>
      <trkpt lat="47.69415" lon="-2.88834">
        <ele>41</ele>
        <time>2021-03-16T13:01:41+01:00</time>
      </trkpt>
      <trkpt lat="47.69417" lon="-2.88837">
        <ele>41</ele>
        <time>2021-03-16T13:01:42+01:00</time>
      </trkpt>
      <trkpt lat="47.69419" lon="-2.88841">
        <ele>41</ele>
        <time>2021-03-16T13:01:43+01:00</time>
      </trkpt>
      <trkpt lat="47.69421" lon="-2.88844">
        <ele>41</ele>
        <time>2021-03-16T13:01:44+01:00</time>
      </trkpt>
      <trkpt lat="47.69423" lon="-2.88846">
        <ele>41</ele>
        <time>2021-03-16T13:01:45+01:00</time>
      </trkpt>
      <trkpt lat="47.69425" lon="-2.88849">
        <ele>41</ele>
        <time>2021-03-16T13:01:46+01:00</time>
      </trkpt>
      <trkpt lat="47.69429" lon="-2.88851">
        <ele>41</ele>
        <time>2021-03-16T13:01:48+01:00</time>
      </trkpt>
      <trkpt lat="47.69432" lon="-2.88853">
        <ele>41</ele>
        <time>2021-03-16T13:01:49+01:00</time>
      </trkpt>
      <trkpt lat="47.69435" lon="-2.88855">
        <ele>41</ele>
        <time>2021-03-16T13:01:50+01:00</time>
      </trkpt>
      <trkpt lat="47.69438" lon="-2.88857">
        <ele>41</ele>
        <time>2021-03-16T13:01:51+01:00</time>
      </trkpt>
      <trkpt lat="47.69441" lon="-2.88859">
        <ele>41</ele>
        <time>2021-03-16T13:01:52+01:00</time>
      </trkpt>
      <trkpt lat="47.69443" lon="-2.8886">
        <ele>41</ele>
        <time>2021-03-16T13:01:53+01:00</time>
      </trkpt>
      <trkpt lat="47.69446" lon="-2.88863">
        <ele>41</ele>
        <time>2021-03-16T13:01:54+01:00</time>
      </trkpt>
      <trkpt lat="47.69448" lon="-2.88865">
        <ele>41</ele>
        <time>2021-03-16T13:01:55+01:00</time>
      </trkpt>
      <trkpt lat="47.69451" lon="-2.88867">
        <ele>41</ele>
        <time>2021-03-16T13:01:56+01:00</time>
      </trkpt>
      <trkpt lat="47.69454" lon="-2.88869">
        <ele>41</ele>
        <time>2021-03-16T13:01:57+01:00</time>
      </trkpt>
      <trkpt lat="47.69456" lon="-2.88871">
        <ele>41</ele>
        <time>2021-03-16T13:01:58+01:00</time>
      </trkpt>
      <trkpt lat="47.69459" lon="-2.88874">
        <ele>41</ele>
        <time>2021-03-16T13:01:59+01:00</time>
      </trkpt>
      <trkpt lat="47.69462" lon="-2.88876">
        <ele>41</ele>
        <time>2021-03-16T13:02:00+01:00</time>
      </trkpt>
      <trkpt lat="47.69465" lon="-2.88879">
        <ele>41</ele>
        <time>2021-03-16T13:02:01+01:00</time>
      </trkpt>
      <trkpt lat="47.69468" lon="-2.88882">
        <ele>41</ele>
        <time>2021-03-16T13:02:02+01:00</time>
      </trkpt>
      <trkpt lat="47.6947" lon="-2.88885">
        <ele>41</ele>
        <time>2021-03-16T13:02:03+01:00</time>
      </trkpt>
      <trkpt lat="47.69472" lon="-2.88888">
        <ele>41</ele>
        <time>2021-03-16T13:02:04+01:00</time>
      </trkpt>
      <trkpt lat="47.69474" lon="-2.88892">
        <ele>41</ele>
        <time>2021-03-16T13:02:05+01:00</time>
      </trkpt>
      <trkpt lat="47.69476" lon="-2.88895">
        <ele>41</ele>
        <time>2021-03-16T13:02:06+01:00</time>
      </trkpt>
      <trkpt lat="47.69478" lon="-2.88899">
        <ele>42</ele>
        <time>2021-03-16T13:02:07+01:00</time>
      </trkpt>
      <trkpt lat="47.6948" lon="-2.88902">
        <ele>42</ele>
        <time>2021-03-16T13:02:08+01:00</time>
      </trkpt>
      <trkpt lat="47.69481" lon="-2.88906">
        <ele>42</ele>
        <time>2021-03-16T13:02:09+01:00</time>
      </trkpt>
      <trkpt lat="47.69482" lon="-2.8891">
        <ele>42</ele>
        <time>2021-03-16T13:02:10+01:00</time>
      </trkpt>
      <trkpt lat="47.69484" lon="-2.88914">
        <ele>42</ele>
        <time>2021-03-16T13:02:11+01:00</time>
      </trkpt>
      <trkpt lat="47.69485" lon="-2.88918">
        <ele>42</ele>
        <time>2021-03-16T13:02:12+01:00</time>
      </trkpt>
      <trkpt lat="47.69487" lon="-2.88922">
        <ele>42</ele>
        <time>2021-03-16T13:02:13+01:00</time>
      </trkpt>
      <trkpt lat="47.69488" lon="-2.88926">
        <ele>42</ele>
        <time>2021-03-16T13:02:14+01:00</time>
      </trkpt>
      <trkpt lat="47.6949" lon="-2.8893">
        <ele>42</ele>
        <time>2021-03-16T13:02:15+01:00</time>
      </trkpt>
      <trkpt lat="47.69491" lon="-2.88934">
        <ele>42</ele>
        <time>2021-03-16T13:02:16+01:00</time>
      </trkpt>
      <trkpt lat="47.69492" lon="-2.88939">
        <ele>42</ele>
        <time>2021-03-16T13:02:17+01:00</time>
      </trkpt>
      <trkpt lat="47.69493" lon="-2.88943">
        <ele>42</ele>
        <time>2021-03-16T13:02:18+01:00</time>
      </trkpt>
      <trkpt lat="47.69495" lon="-2.88948">
        <ele>42</ele>
        <time>2021-03-16T13:02:19+01:00</time>
      </trkpt>
      <trkpt lat="47.69496" lon="-2.88952">
        <ele>41</ele>
        <time>2021-03-16T13:02:20+01:00</time>
      </trkpt>
      <trkpt lat="47.69498" lon="-2.88957">
        <ele>41</ele>
        <time>2021-03-16T13:02:21+01:00</time>
      </trkpt>
      <trkpt lat="47.69499" lon="-2.88962">
        <ele>41</ele>
        <time>2021-03-16T13:02:22+01:00</time>
      </trkpt>
      <trkpt lat="47.69501" lon="-2.88967">
        <ele>41</ele>
        <time>2021-03-16T13:02:23+01:00</time>
      </trkpt>
      <trkpt lat="47.69502" lon="-2.88972">
        <ele>41</ele>
        <time>2021-03-16T13:02:24+01:00</time>
      </trkpt>
      <trkpt lat="47.69504" lon="-2.88977">
        <ele>41</ele>
        <time>2021-03-16T13:02:25+01:00</time>
      </trkpt>
      <trkpt lat="47.69506" lon="-2.88983">
        <ele>41</ele>
        <time>2021-03-16T13:02:26+01:00</time>
      </trkpt>
      <trkpt lat="47.69508" lon="-2.88988">
        <ele>41</ele>
        <time>2021-03-16T13:02:27+01:00</time>
      </trkpt>
      <trkpt lat="47.69509" lon="-2.88993">
        <ele>41</ele>
        <time>2021-03-16T13:02:28+01:00</time>
      </trkpt>
      <trkpt lat="47.69511" lon="-2.88997">
        <ele>41</ele>
        <time>2021-03-16T13:02:29+01:00</time>
      </trkpt>
      <trkpt lat="47.69513" lon="-2.89002">
        <ele>41</ele>
        <time>2021-03-16T13:02:30+01:00</time>
      </trkpt>
      <trkpt lat="47.69515" lon="-2.89006">
        <ele>41</ele>
        <time>2021-03-16T13:02:31+01:00</time>
      </trkpt>
      <trkpt lat="47.69517" lon="-2.89011">
        <ele>42</ele>
        <time>2021-03-16T13:02:32+01:00</time>
      </trkpt>
      <trkpt lat="47.69519" lon="-2.89015">
        <ele>42</ele>
        <time>2021-03-16T13:02:33+01:00</time>
      </trkpt>
      <trkpt lat="47.69521" lon="-2.89021">
        <ele>42</ele>
        <time>2021-03-16T13:02:34+01:00</time>
      </trkpt>
      <trkpt lat="47.69523" lon="-2.89026">
        <ele>42</ele>
        <time>2021-03-16T13:02:35+01:00</time>
      </trkpt>
      <trkpt lat="47.69524" lon="-2.89031">
        <ele>42</ele>
        <time>2021-03-16T13:02:36+01:00</time>
      </trkpt>
      <trkpt lat="47.69526" lon="-2.89035">
        <ele>42</ele>
        <time>2021-03-16T13:02:37+01:00</time>
      </trkpt>
      <trkpt lat="47.69528" lon="-2.8904">
        <ele>42</ele>
        <time>2021-03-16T13:02:38+01:00</time>
      </trkpt>
      <trkpt lat="47.6953" lon="-2.89044">
        <ele>42</ele>
        <time>2021-03-16T13:02:39+01:00</time>
      </trkpt>
      <trkpt lat="47.69531" lon="-2.89048">
        <ele>42</ele>
        <time>2021-03-16T13:02:40+01:00</time>
      </trkpt>
      <trkpt lat="47.69533" lon="-2.89052">
        <ele>42</ele>
        <time>2021-03-16T13:02:41+01:00</time>
      </trkpt>
      <trkpt lat="47.69534" lon="-2.89056">
        <ele>42</ele>
        <time>2021-03-16T13:02:42+01:00</time>
      </trkpt>
      <trkpt lat="47.69536" lon="-2.8906">
        <ele>43</ele>
        <time>2021-03-16T13:02:43+01:00</time>
      </trkpt>
      <trkpt lat="47.69538" lon="-2.89063">
        <ele>43</ele>
        <time>2021-03-16T13:02:44+01:00</time>
      </trkpt>
      <trkpt lat="47.69539" lon="-2.89067">
        <ele>43</ele>
        <time>2021-03-16T13:02:45+01:00</time>
      </trkpt>
      <trkpt lat="47.69541" lon="-2.89071">
        <ele>43</ele>
        <time>2021-03-16T13:02:46+01:00</time>
      </trkpt>
      <trkpt lat="47.69543" lon="-2.89075">
        <ele>43</ele>
        <time>2021-03-16T13:02:47+01:00</time>
      </trkpt>
      <trkpt lat="47.69545" lon="-2.89079">
        <ele>43</ele>
        <time>2021-03-16T13:02:48+01:00</time>
      </trkpt>
      <trkpt lat="47.69547" lon="-2.89083">
        <ele>43</ele>
        <time>2021-03-16T13:02:49+01:00</time>
      </trkpt>
      <trkpt lat="47.69549" lon="-2.89088">
        <ele>43</ele>
        <time>2021-03-16T13:02:50+01:00</time>
      </trkpt>
      <trkpt lat="47.69551" lon="-2.89093">
        <ele>43</ele>
        <time>2021-03-16T13:02:51+01:00</time>
      </trkpt>
      <trkpt lat="47.69553" lon="-2.89097">
        <ele>43</ele>
        <time>2021-03-16T13:02:52+01:00</time>
      </trkpt>
      <trkpt lat="47.69555" lon="-2.89101">
        <ele>43</ele>
        <time>2021-03-16T13:02:53+01:00</time>
      </trkpt>
      <trkpt lat="47.69557" lon="-2.89105">
        <ele>43</ele>
        <time>2021-03-16T13:02:54+01:00</time>
      </trkpt>
      <trkpt lat="47.6956" lon="-2.89109">
        <ele>44</ele>
        <time>2021-03-16T13:02:55+01:00</time>
      </trkpt>
      <trkpt lat="47.69562" lon="-2.89113">
        <ele>44</ele>
        <time>2021-03-16T13:02:56+01:00</time>
      </trkpt>
      <trkpt lat="47.69564" lon="-2.89117">
        <ele>44</ele>
        <time>2021-03-16T13:02:57+01:00</time>
      </trkpt>
      <trkpt lat="47.69566" lon="-2.89121">
        <ele>44</ele>
        <time>2021-03-16T13:02:58+01:00</time>
      </trkpt>
      <trkpt lat="47.69568" lon="-2.89124">
        <ele>44</ele>
        <time>2021-03-16T13:02:59+01:00</time>
      </trkpt>
      <trkpt lat="47.6957" lon="-2.89128">
        <ele>44</ele>
        <time>2021-03-16T13:03:00+01:00</time>
      </trkpt>
      <trkpt lat="47.69572" lon="-2.89131">
        <ele>44</ele>
        <time>2021-03-16T13:03:01+01:00</time>
      </trkpt>
      <trkpt lat="47.69574" lon="-2.89134">
        <ele>44</ele>
        <time>2021-03-16T13:03:02+01:00</time>
      </trkpt>
      <trkpt lat="47.69576" lon="-2.89138">
        <ele>44</ele>
        <time>2021-03-16T13:03:03+01:00</time>
      </trkpt>
      <trkpt lat="47.69578" lon="-2.89141">
        <ele>44</ele>
        <time>2021-03-16T13:03:04+01:00</time>
      </trkpt>
      <trkpt lat="47.69581" lon="-2.89145">
        <ele>44</ele>
        <time>2021-03-16T13:03:06+01:00</time>
      </trkpt>
      <trkpt lat="47.69583" lon="-2.89149">
        <ele>44</ele>
        <time>2021-03-16T13:03:08+01:00</time>
      </trkpt>
      <trkpt lat="47.69584" lon="-2.89154">
        <ele>44</ele>
        <time>2021-03-16T13:03:12+01:00</time>
      </trkpt>
      <trkpt lat="47.69585" lon="-2.89161">
        <ele>44</ele>
        <time>2021-03-16T13:03:14+01:00</time>
      </trkpt>
      <trkpt lat="47.69587" lon="-2.89165">
        <ele>44</ele>
        <time>2021-03-16T13:03:15+01:00</time>
      </trkpt>
      <trkpt lat="47.69589" lon="-2.89169">
        <ele>44</ele>
        <time>2021-03-16T13:03:16+01:00</time>
      </trkpt>
      <trkpt lat="47.69591" lon="-2.89172">
        <ele>44</ele>
        <time>2021-03-16T13:03:17+01:00</time>
      </trkpt>
      <trkpt lat="47.69593" lon="-2.89175">
        <ele>44</ele>
        <time>2021-03-16T13:03:18+01:00</time>
      </trkpt>
      <trkpt lat="47.69595" lon="-2.89178">
        <ele>44</ele>
        <time>2021-03-16T13:03:19+01:00</time>
      </trkpt>
      <trkpt lat="47.69598" lon="-2.89181">
        <ele>44</ele>
        <time>2021-03-16T13:03:20+01:00</time>
      </trkpt>
      <trkpt lat="47.69601" lon="-2.89184">
        <ele>44</ele>
        <time>2021-03-16T13:03:21+01:00</time>
      </trkpt>
      <trkpt lat="47.69603" lon="-2.89186">
        <ele>44</ele>
        <time>2021-03-16T13:03:22+01:00</time>
      </trkpt>
      <trkpt lat="47.69606" lon="-2.89188">
        <ele>45</ele>
        <time>2021-03-16T13:03:23+01:00</time>
      </trkpt>
      <trkpt lat="47.69609" lon="-2.89192">
        <ele>45</ele>
        <time>2021-03-16T13:03:25+01:00</time>
      </trkpt>
      <trkpt lat="47.69612" lon="-2.89196">
        <ele>45</ele>
        <time>2021-03-16T13:03:26+01:00</time>
      </trkpt>
      <trkpt lat="47.69614" lon="-2.89199">
        <ele>45</ele>
        <time>2021-03-16T13:03:27+01:00</time>
      </trkpt>
      <trkpt lat="47.69616" lon="-2.89202">
        <ele>45</ele>
        <time>2021-03-16T13:03:28+01:00</time>
      </trkpt>
      <trkpt lat="47.69619" lon="-2.89205">
        <ele>45</ele>
        <time>2021-03-16T13:03:29+01:00</time>
      </trkpt>
      <trkpt lat="47.69621" lon="-2.89208">
        <ele>45</ele>
        <time>2021-03-16T13:03:30+01:00</time>
      </trkpt>
      <trkpt lat="47.69624" lon="-2.89211">
        <ele>45</ele>
        <time>2021-03-16T13:03:31+01:00</time>
      </trkpt>
      <trkpt lat="47.69626" lon="-2.89215">
        <ele>45</ele>
        <time>2021-03-16T13:03:32+01:00</time>
      </trkpt>
      <trkpt lat="47.69629" lon="-2.89218">
        <ele>45</ele>
        <time>2021-03-16T13:03:33+01:00</time>
      </trkpt>
      <trkpt lat="47.69631" lon="-2.89221">
        <ele>45</ele>
        <time>2021-03-16T13:03:34+01:00</time>
      </trkpt>
      <trkpt lat="47.69634" lon="-2.89224">
        <ele>45</ele>
        <time>2021-03-16T13:03:35+01:00</time>
      </trkpt>
      <trkpt lat="47.69636" lon="-2.89227">
        <ele>45</ele>
        <time>2021-03-16T13:03:36+01:00</time>
      </trkpt>
      <trkpt lat="47.69638" lon="-2.8923">
        <ele>45</ele>
        <time>2021-03-16T13:03:37+01:00</time>
      </trkpt>
      <trkpt lat="47.6964" lon="-2.89232">
        <ele>45</ele>
        <time>2021-03-16T13:03:38+01:00</time>
      </trkpt>
      <trkpt lat="47.69643" lon="-2.89235">
        <ele>46</ele>
        <time>2021-03-16T13:03:39+01:00</time>
      </trkpt>
      <trkpt lat="47.69645" lon="-2.89237">
        <ele>46</ele>
        <time>2021-03-16T13:03:40+01:00</time>
      </trkpt>
      <trkpt lat="47.69648" lon="-2.8924">
        <ele>46</ele>
        <time>2021-03-16T13:03:41+01:00</time>
      </trkpt>
      <trkpt lat="47.6965" lon="-2.89243">
        <ele>46</ele>
        <time>2021-03-16T13:03:42+01:00</time>
      </trkpt>
      <trkpt lat="47.69653" lon="-2.89246">
        <ele>46</ele>
        <time>2021-03-16T13:03:43+01:00</time>
      </trkpt>
      <trkpt lat="47.69656" lon="-2.89249">
        <ele>46</ele>
        <time>2021-03-16T13:03:44+01:00</time>
      </trkpt>
      <trkpt lat="47.69658" lon="-2.89252">
        <ele>46</ele>
        <time>2021-03-16T13:03:45+01:00</time>
      </trkpt>
      <trkpt lat="47.69661" lon="-2.89255">
        <ele>46</ele>
        <time>2021-03-16T13:03:46+01:00</time>
      </trkpt>
      <trkpt lat="47.69663" lon="-2.89258">
        <ele>46</ele>
        <time>2021-03-16T13:03:47+01:00</time>
      </trkpt>
      <trkpt lat="47.69666" lon="-2.89261">
        <ele>46</ele>
        <time>2021-03-16T13:03:48+01:00</time>
      </trkpt>
      <trkpt lat="47.69668" lon="-2.89264">
        <ele>46</ele>
        <time>2021-03-16T13:03:49+01:00</time>
      </trkpt>
      <trkpt lat="47.6967" lon="-2.89266">
        <ele>46</ele>
        <time>2021-03-16T13:03:50+01:00</time>
      </trkpt>
      <trkpt lat="47.69672" lon="-2.89269">
        <ele>46</ele>
        <time>2021-03-16T13:03:51+01:00</time>
      </trkpt>
      <trkpt lat="47.69675" lon="-2.89274">
        <ele>46</ele>
        <time>2021-03-16T13:03:53+01:00</time>
      </trkpt>
      <trkpt lat="47.69678" lon="-2.8928">
        <ele>46</ele>
        <time>2021-03-16T13:03:55+01:00</time>
      </trkpt>
      <trkpt lat="47.69681" lon="-2.89285">
        <ele>46</ele>
        <time>2021-03-16T13:03:57+01:00</time>
      </trkpt>
      <trkpt lat="47.69684" lon="-2.89289">
        <ele>46</ele>
        <time>2021-03-16T13:03:59+01:00</time>
      </trkpt>
      <trkpt lat="47.69686" lon="-2.89295">
        <ele>46</ele>
        <time>2021-03-16T13:04:01+01:00</time>
      </trkpt>
      <trkpt lat="47.69689" lon="-2.89299">
        <ele>46</ele>
        <time>2021-03-16T13:04:03+01:00</time>
      </trkpt>
      <trkpt lat="47.69692" lon="-2.89303">
        <ele>46</ele>
        <time>2021-03-16T13:04:04+01:00</time>
      </trkpt>
      <trkpt lat="47.69694" lon="-2.89306">
        <ele>46</ele>
        <time>2021-03-16T13:04:05+01:00</time>
      </trkpt>
      <trkpt lat="47.69695" lon="-2.89309">
        <ele>46</ele>
        <time>2021-03-16T13:04:06+01:00</time>
      </trkpt>
      <trkpt lat="47.69698" lon="-2.89314">
        <ele>46</ele>
        <time>2021-03-16T13:04:08+01:00</time>
      </trkpt>
      <trkpt lat="47.697" lon="-2.89319">
        <ele>46</ele>
        <time>2021-03-16T13:04:10+01:00</time>
      </trkpt>
      <trkpt lat="47.69702" lon="-2.89325">
        <ele>46</ele>
        <time>2021-03-16T13:04:12+01:00</time>
      </trkpt>
      <trkpt lat="47.69703" lon="-2.89331">
        <ele>46</ele>
        <time>2021-03-16T13:04:14+01:00</time>
      </trkpt>
      <trkpt lat="47.69705" lon="-2.89336">
        <ele>46</ele>
        <time>2021-03-16T13:04:15+01:00</time>
      </trkpt>
      <trkpt lat="47.69707" lon="-2.8934">
        <ele>46</ele>
        <time>2021-03-16T13:04:16+01:00</time>
      </trkpt>
      <trkpt lat="47.69708" lon="-2.89344">
        <ele>46</ele>
        <time>2021-03-16T13:04:17+01:00</time>
      </trkpt>
      <trkpt lat="47.69709" lon="-2.89348">
        <ele>46</ele>
        <time>2021-03-16T13:04:18+01:00</time>
      </trkpt>
      <trkpt lat="47.69711" lon="-2.89352">
        <ele>46</ele>
        <time>2021-03-16T13:04:19+01:00</time>
      </trkpt>
      <trkpt lat="47.69712" lon="-2.89356">
        <ele>46</ele>
        <time>2021-03-16T13:04:20+01:00</time>
      </trkpt>
      <trkpt lat="47.69714" lon="-2.89362">
        <ele>46</ele>
        <time>2021-03-16T13:04:22+01:00</time>
      </trkpt>
      <trkpt lat="47.69716" lon="-2.89366">
        <ele>46</ele>
        <time>2021-03-16T13:04:23+01:00</time>
      </trkpt>
      <trkpt lat="47.69717" lon="-2.8937">
        <ele>46</ele>
        <time>2021-03-16T13:04:24+01:00</time>
      </trkpt>
      <trkpt lat="47.69718" lon="-2.89374">
        <ele>46</ele>
        <time>2021-03-16T13:04:25+01:00</time>
      </trkpt>
      <trkpt lat="47.69719" lon="-2.89379">
        <ele>46</ele>
        <time>2021-03-16T13:04:26+01:00</time>
      </trkpt>
      <trkpt lat="47.69719" lon="-2.89383">
        <ele>46</ele>
        <time>2021-03-16T13:04:27+01:00</time>
      </trkpt>
      <trkpt lat="47.6972" lon="-2.89387">
        <ele>46</ele>
        <time>2021-03-16T13:04:28+01:00</time>
      </trkpt>
      <trkpt lat="47.69721" lon="-2.89391">
        <ele>46</ele>
        <time>2021-03-16T13:04:29+01:00</time>
      </trkpt>
      <trkpt lat="47.69722" lon="-2.89395">
        <ele>46</ele>
        <time>2021-03-16T13:04:30+01:00</time>
      </trkpt>
      <trkpt lat="47.69722" lon="-2.89399">
        <ele>46</ele>
        <time>2021-03-16T13:04:31+01:00</time>
      </trkpt>
      <trkpt lat="47.69724" lon="-2.89403">
        <ele>46</ele>
        <time>2021-03-16T13:04:32+01:00</time>
      </trkpt>
      <trkpt lat="47.69725" lon="-2.89407">
        <ele>46</ele>
        <time>2021-03-16T13:04:33+01:00</time>
      </trkpt>
      <trkpt lat="47.69726" lon="-2.89411">
        <ele>46</ele>
        <time>2021-03-16T13:04:34+01:00</time>
      </trkpt>
      <trkpt lat="47.69727" lon="-2.89415">
        <ele>46</ele>
        <time>2021-03-16T13:04:35+01:00</time>
      </trkpt>
      <trkpt lat="47.69729" lon="-2.89419">
        <ele>46</ele>
        <time>2021-03-16T13:04:36+01:00</time>
      </trkpt>
      <trkpt lat="47.6973" lon="-2.89424">
        <ele>46</ele>
        <time>2021-03-16T13:04:37+01:00</time>
      </trkpt>
      <trkpt lat="47.69731" lon="-2.89428">
        <ele>46</ele>
        <time>2021-03-16T13:04:38+01:00</time>
      </trkpt>
      <trkpt lat="47.69732" lon="-2.89433">
        <ele>46</ele>
        <time>2021-03-16T13:04:39+01:00</time>
      </trkpt>
      <trkpt lat="47.69734" lon="-2.89438">
        <ele>46</ele>
        <time>2021-03-16T13:04:40+01:00</time>
      </trkpt>
      <trkpt lat="47.69735" lon="-2.89443">
        <ele>46</ele>
        <time>2021-03-16T13:04:41+01:00</time>
      </trkpt>
      <trkpt lat="47.69736" lon="-2.89447">
        <ele>46</ele>
        <time>2021-03-16T13:04:42+01:00</time>
      </trkpt>
      <trkpt lat="47.69737" lon="-2.89452">
        <ele>46</ele>
        <time>2021-03-16T13:04:43+01:00</time>
      </trkpt>
      <trkpt lat="47.69739" lon="-2.89456">
        <ele>46</ele>
        <time>2021-03-16T13:04:44+01:00</time>
      </trkpt>
      <trkpt lat="47.6974" lon="-2.8946">
        <ele>46</ele>
        <time>2021-03-16T13:04:45+01:00</time>
      </trkpt>
      <trkpt lat="47.69741" lon="-2.89465">
        <ele>47</ele>
        <time>2021-03-16T13:04:46+01:00</time>
      </trkpt>
      <trkpt lat="47.69742" lon="-2.89469">
        <ele>47</ele>
        <time>2021-03-16T13:04:47+01:00</time>
      </trkpt>
      <trkpt lat="47.69743" lon="-2.89473">
        <ele>47</ele>
        <time>2021-03-16T13:04:48+01:00</time>
      </trkpt>
      <trkpt lat="47.69744" lon="-2.89478">
        <ele>47</ele>
        <time>2021-03-16T13:04:49+01:00</time>
      </trkpt>
      <trkpt lat="47.69745" lon="-2.89482">
        <ele>47</ele>
        <time>2021-03-16T13:04:50+01:00</time>
      </trkpt>
      <trkpt lat="47.69746" lon="-2.89487">
        <ele>47</ele>
        <time>2021-03-16T13:04:51+01:00</time>
      </trkpt>
      <trkpt lat="47.69747" lon="-2.89492">
        <ele>47</ele>
        <time>2021-03-16T13:04:52+01:00</time>
      </trkpt>
      <trkpt lat="47.69748" lon="-2.89497">
        <ele>47</ele>
        <time>2021-03-16T13:04:53+01:00</time>
      </trkpt>
      <trkpt lat="47.69749" lon="-2.89501">
        <ele>47</ele>
        <time>2021-03-16T13:04:54+01:00</time>
      </trkpt>
      <trkpt lat="47.6975" lon="-2.89506">
        <ele>47</ele>
        <time>2021-03-16T13:04:55+01:00</time>
      </trkpt>
      <trkpt lat="47.69751" lon="-2.8951">
        <ele>47</ele>
        <time>2021-03-16T13:04:56+01:00</time>
      </trkpt>
      <trkpt lat="47.69752" lon="-2.89514">
        <ele>47</ele>
        <time>2021-03-16T13:04:57+01:00</time>
      </trkpt>
      <trkpt lat="47.69752" lon="-2.89519">
        <ele>47</ele>
        <time>2021-03-16T13:04:58+01:00</time>
      </trkpt>
      <trkpt lat="47.69753" lon="-2.89523">
        <ele>47</ele>
        <time>2021-03-16T13:04:59+01:00</time>
      </trkpt>
      <trkpt lat="47.69754" lon="-2.89528">
        <ele>47</ele>
        <time>2021-03-16T13:05:00+01:00</time>
      </trkpt>
      <trkpt lat="47.69754" lon="-2.89532">
        <ele>47</ele>
        <time>2021-03-16T13:05:01+01:00</time>
      </trkpt>
      <trkpt lat="47.69755" lon="-2.89536">
        <ele>47</ele>
        <time>2021-03-16T13:05:02+01:00</time>
      </trkpt>
      <trkpt lat="47.69756" lon="-2.89541">
        <ele>47</ele>
        <time>2021-03-16T13:05:03+01:00</time>
      </trkpt>
      <trkpt lat="47.69757" lon="-2.89545">
        <ele>47</ele>
        <time>2021-03-16T13:05:04+01:00</time>
      </trkpt>
      <trkpt lat="47.69758" lon="-2.89549">
        <ele>47</ele>
        <time>2021-03-16T13:05:05+01:00</time>
      </trkpt>
      <trkpt lat="47.69758" lon="-2.89553">
        <ele>48</ele>
        <time>2021-03-16T13:05:06+01:00</time>
      </trkpt>
      <trkpt lat="47.69759" lon="-2.89557">
        <ele>48</ele>
        <time>2021-03-16T13:05:07+01:00</time>
      </trkpt>
      <trkpt lat="47.6976" lon="-2.89561">
        <ele>48</ele>
        <time>2021-03-16T13:05:08+01:00</time>
      </trkpt>
      <trkpt lat="47.69761" lon="-2.89567">
        <ele>48</ele>
        <time>2021-03-16T13:05:10+01:00</time>
      </trkpt>
      <trkpt lat="47.69762" lon="-2.89573">
        <ele>48</ele>
        <time>2021-03-16T13:05:12+01:00</time>
      </trkpt>
      <trkpt lat="47.6976" lon="-2.89579">
        <ele>48</ele>
        <time>2021-03-16T13:05:14+01:00</time>
      </trkpt>
      <trkpt lat="47.69758" lon="-2.89583">
        <ele>48</ele>
        <time>2021-03-16T13:05:15+01:00</time>
      </trkpt>
      <trkpt lat="47.69757" lon="-2.89588">
        <ele>48</ele>
        <time>2021-03-16T13:05:16+01:00</time>
      </trkpt>
      <trkpt lat="47.69758" lon="-2.89592">
        <ele>48</ele>
        <time>2021-03-16T13:05:17+01:00</time>
      </trkpt>
      <trkpt lat="47.69759" lon="-2.89597">
        <ele>48</ele>
        <time>2021-03-16T13:05:18+01:00</time>
      </trkpt>
      <trkpt lat="47.6976" lon="-2.89602">
        <ele>48</ele>
        <time>2021-03-16T13:05:19+01:00</time>
      </trkpt>
      <trkpt lat="47.69761" lon="-2.89606">
        <ele>48</ele>
        <time>2021-03-16T13:05:20+01:00</time>
      </trkpt>
      <trkpt lat="47.69763" lon="-2.89611">
        <ele>48</ele>
        <time>2021-03-16T13:05:21+01:00</time>
      </trkpt>
      <trkpt lat="47.69765" lon="-2.89615">
        <ele>48</ele>
        <time>2021-03-16T13:05:22+01:00</time>
      </trkpt>
      <trkpt lat="47.69767" lon="-2.89618">
        <ele>48</ele>
        <time>2021-03-16T13:05:23+01:00</time>
      </trkpt>
      <trkpt lat="47.69769" lon="-2.89622">
        <ele>48</ele>
        <time>2021-03-16T13:05:24+01:00</time>
      </trkpt>
      <trkpt lat="47.69771" lon="-2.89626">
        <ele>47</ele>
        <time>2021-03-16T13:05:25+01:00</time>
      </trkpt>
      <trkpt lat="47.69773" lon="-2.8963">
        <ele>47</ele>
        <time>2021-03-16T13:05:26+01:00</time>
      </trkpt>
      <trkpt lat="47.69775" lon="-2.89634">
        <ele>47</ele>
        <time>2021-03-16T13:05:27+01:00</time>
      </trkpt>
      <trkpt lat="47.69778" lon="-2.89637">
        <ele>47</ele>
        <time>2021-03-16T13:05:28+01:00</time>
      </trkpt>
      <trkpt lat="47.6978" lon="-2.89641">
        <ele>47</ele>
        <time>2021-03-16T13:05:29+01:00</time>
      </trkpt>
      <trkpt lat="47.69783" lon="-2.89644">
        <ele>47</ele>
        <time>2021-03-16T13:05:30+01:00</time>
      </trkpt>
      <trkpt lat="47.69786" lon="-2.89647">
        <ele>47</ele>
        <time>2021-03-16T13:05:31+01:00</time>
      </trkpt>
      <trkpt lat="47.69788" lon="-2.89651">
        <ele>47</ele>
        <time>2021-03-16T13:05:32+01:00</time>
      </trkpt>
      <trkpt lat="47.69791" lon="-2.89655">
        <ele>47</ele>
        <time>2021-03-16T13:05:33+01:00</time>
      </trkpt>
      <trkpt lat="47.69794" lon="-2.89659">
        <ele>47</ele>
        <time>2021-03-16T13:05:34+01:00</time>
      </trkpt>
      <trkpt lat="47.69797" lon="-2.89662">
        <ele>47</ele>
        <time>2021-03-16T13:05:35+01:00</time>
      </trkpt>
      <trkpt lat="47.69799" lon="-2.89665">
        <ele>47</ele>
        <time>2021-03-16T13:05:36+01:00</time>
      </trkpt>
      <trkpt lat="47.69802" lon="-2.89669">
        <ele>47</ele>
        <time>2021-03-16T13:05:37+01:00</time>
      </trkpt>
      <trkpt lat="47.69804" lon="-2.89672">
        <ele>47</ele>
        <time>2021-03-16T13:05:38+01:00</time>
      </trkpt>
      <trkpt lat="47.69807" lon="-2.89675">
        <ele>47</ele>
        <time>2021-03-16T13:05:39+01:00</time>
      </trkpt>
      <trkpt lat="47.6981" lon="-2.89679">
        <ele>47</ele>
        <time>2021-03-16T13:05:40+01:00</time>
      </trkpt>
      <trkpt lat="47.69812" lon="-2.89682">
        <ele>47</ele>
        <time>2021-03-16T13:05:41+01:00</time>
      </trkpt>
      <trkpt lat="47.69815" lon="-2.89685">
        <ele>46</ele>
        <time>2021-03-16T13:05:42+01:00</time>
      </trkpt>
      <trkpt lat="47.69818" lon="-2.89688">
        <ele>46</ele>
        <time>2021-03-16T13:05:43+01:00</time>
      </trkpt>
      <trkpt lat="47.69821" lon="-2.89692">
        <ele>46</ele>
        <time>2021-03-16T13:05:44+01:00</time>
      </trkpt>
      <trkpt lat="47.69823" lon="-2.89695">
        <ele>46</ele>
        <time>2021-03-16T13:05:45+01:00</time>
      </trkpt>
      <trkpt lat="47.69826" lon="-2.89699">
        <ele>46</ele>
        <time>2021-03-16T13:05:46+01:00</time>
      </trkpt>
      <trkpt lat="47.69829" lon="-2.89702">
        <ele>46</ele>
        <time>2021-03-16T13:05:47+01:00</time>
      </trkpt>
      <trkpt lat="47.69833" lon="-2.89706">
        <ele>46</ele>
        <time>2021-03-16T13:05:48+01:00</time>
      </trkpt>
      <trkpt lat="47.69836" lon="-2.89709">
        <ele>46</ele>
        <time>2021-03-16T13:05:49+01:00</time>
      </trkpt>
      <trkpt lat="47.69839" lon="-2.89713">
        <ele>46</ele>
        <time>2021-03-16T13:05:50+01:00</time>
      </trkpt>
      <trkpt lat="47.69842" lon="-2.89716">
        <ele>46</ele>
        <time>2021-03-16T13:05:51+01:00</time>
      </trkpt>
      <trkpt lat="47.69845" lon="-2.8972">
        <ele>45</ele>
        <time>2021-03-16T13:05:52+01:00</time>
      </trkpt>
      <trkpt lat="47.69849" lon="-2.89723">
        <ele>45</ele>
        <time>2021-03-16T13:05:53+01:00</time>
      </trkpt>
      <trkpt lat="47.69852" lon="-2.89727">
        <ele>45</ele>
        <time>2021-03-16T13:05:54+01:00</time>
      </trkpt>
      <trkpt lat="47.69855" lon="-2.8973">
        <ele>45</ele>
        <time>2021-03-16T13:05:55+01:00</time>
      </trkpt>
      <trkpt lat="47.69858" lon="-2.89734">
        <ele>45</ele>
        <time>2021-03-16T13:05:56+01:00</time>
      </trkpt>
      <trkpt lat="47.69861" lon="-2.89737">
        <ele>45</ele>
        <time>2021-03-16T13:05:57+01:00</time>
      </trkpt>
      <trkpt lat="47.69864" lon="-2.8974">
        <ele>45</ele>
        <time>2021-03-16T13:05:58+01:00</time>
      </trkpt>
      <trkpt lat="47.69867" lon="-2.89743">
        <ele>44</ele>
        <time>2021-03-16T13:05:59+01:00</time>
      </trkpt>
      <trkpt lat="47.6987" lon="-2.89746">
        <ele>44</ele>
        <time>2021-03-16T13:06:00+01:00</time>
      </trkpt>
      <trkpt lat="47.69873" lon="-2.89749">
        <ele>44</ele>
        <time>2021-03-16T13:06:01+01:00</time>
      </trkpt>
      <trkpt lat="47.69876" lon="-2.89752">
        <ele>44</ele>
        <time>2021-03-16T13:06:02+01:00</time>
      </trkpt>
      <trkpt lat="47.69879" lon="-2.89755">
        <ele>44</ele>
        <time>2021-03-16T13:06:03+01:00</time>
      </trkpt>
      <trkpt lat="47.69882" lon="-2.89758">
        <ele>44</ele>
        <time>2021-03-16T13:06:04+01:00</time>
      </trkpt>
      <trkpt lat="47.69885" lon="-2.89762">
        <ele>44</ele>
        <time>2021-03-16T13:06:05+01:00</time>
      </trkpt>
      <trkpt lat="47.69888" lon="-2.89764">
        <ele>44</ele>
        <time>2021-03-16T13:06:06+01:00</time>
      </trkpt>
      <trkpt lat="47.69891" lon="-2.89767">
        <ele>43</ele>
        <time>2021-03-16T13:06:07+01:00</time>
      </trkpt>
      <trkpt lat="47.69893" lon="-2.8977">
        <ele>43</ele>
        <time>2021-03-16T13:06:08+01:00</time>
      </trkpt>
      <trkpt lat="47.69896" lon="-2.89773">
        <ele>43</ele>
        <time>2021-03-16T13:06:09+01:00</time>
      </trkpt>
      <trkpt lat="47.69899" lon="-2.89776">
        <ele>43</ele>
        <time>2021-03-16T13:06:10+01:00</time>
      </trkpt>
      <trkpt lat="47.69902" lon="-2.89779">
        <ele>43</ele>
        <time>2021-03-16T13:06:11+01:00</time>
      </trkpt>
      <trkpt lat="47.69904" lon="-2.89781">
        <ele>43</ele>
        <time>2021-03-16T13:06:12+01:00</time>
      </trkpt>
      <trkpt lat="47.69907" lon="-2.89784">
        <ele>43</ele>
        <time>2021-03-16T13:06:13+01:00</time>
      </trkpt>
      <trkpt lat="47.6991" lon="-2.89788">
        <ele>43</ele>
        <time>2021-03-16T13:06:14+01:00</time>
      </trkpt>
      <trkpt lat="47.69913" lon="-2.8979">
        <ele>43</ele>
        <time>2021-03-16T13:06:15+01:00</time>
      </trkpt>
      <trkpt lat="47.69916" lon="-2.89793">
        <ele>43</ele>
        <time>2021-03-16T13:06:16+01:00</time>
      </trkpt>
      <trkpt lat="47.69919" lon="-2.89796">
        <ele>43</ele>
        <time>2021-03-16T13:06:17+01:00</time>
      </trkpt>
      <trkpt lat="47.69921" lon="-2.89799">
        <ele>43</ele>
        <time>2021-03-16T13:06:18+01:00</time>
      </trkpt>
      <trkpt lat="47.69924" lon="-2.89802">
        <ele>43</ele>
        <time>2021-03-16T13:06:19+01:00</time>
      </trkpt>
      <trkpt lat="47.69926" lon="-2.89804">
        <ele>43</ele>
        <time>2021-03-16T13:06:20+01:00</time>
      </trkpt>
      <trkpt lat="47.6993" lon="-2.89809">
        <ele>43</ele>
        <time>2021-03-16T13:06:22+01:00</time>
      </trkpt>
      <trkpt lat="47.69932" lon="-2.89814">
        <ele>43</ele>
        <time>2021-03-16T13:06:23+01:00</time>
      </trkpt>
      <trkpt lat="47.69932" lon="-2.89818">
        <ele>43</ele>
        <time>2021-03-16T13:06:24+01:00</time>
      </trkpt>
      <trkpt lat="47.69932" lon="-2.89823">
        <ele>43</ele>
        <time>2021-03-16T13:06:25+01:00</time>
      </trkpt>
      <trkpt lat="47.69931" lon="-2.89828">
        <ele>43</ele>
        <time>2021-03-16T13:06:26+01:00</time>
      </trkpt>
      <trkpt lat="47.69929" lon="-2.89832">
        <ele>43</ele>
        <time>2021-03-16T13:06:27+01:00</time>
      </trkpt>
      <trkpt lat="47.69927" lon="-2.89836">
        <ele>43</ele>
        <time>2021-03-16T13:06:28+01:00</time>
      </trkpt>
      <trkpt lat="47.69924" lon="-2.89839">
        <ele>43</ele>
        <time>2021-03-16T13:06:29+01:00</time>
      </trkpt>
      <trkpt lat="47.69922" lon="-2.89843">
        <ele>43</ele>
        <time>2021-03-16T13:06:30+01:00</time>
      </trkpt>
      <trkpt lat="47.69919" lon="-2.89846">
        <ele>43</ele>
        <time>2021-03-16T13:06:31+01:00</time>
      </trkpt>
      <trkpt lat="47.69917" lon="-2.89849">
        <ele>43</ele>
        <time>2021-03-16T13:06:32+01:00</time>
      </trkpt>
      <trkpt lat="47.69915" lon="-2.89853">
        <ele>44</ele>
        <time>2021-03-16T13:06:33+01:00</time>
      </trkpt>
      <trkpt lat="47.69912" lon="-2.89856">
        <ele>44</ele>
        <time>2021-03-16T13:06:34+01:00</time>
      </trkpt>
      <trkpt lat="47.6991" lon="-2.89859">
        <ele>44</ele>
        <time>2021-03-16T13:06:35+01:00</time>
      </trkpt>
      <trkpt lat="47.69908" lon="-2.89862">
        <ele>44</ele>
        <time>2021-03-16T13:06:36+01:00</time>
      </trkpt>
      <trkpt lat="47.69905" lon="-2.89865">
        <ele>44</ele>
        <time>2021-03-16T13:06:38+01:00</time>
      </trkpt>
      <trkpt lat="47.69901" lon="-2.89869">
        <ele>44</ele>
        <time>2021-03-16T13:06:40+01:00</time>
      </trkpt>
      <trkpt lat="47.69898" lon="-2.89872">
        <ele>45</ele>
        <time>2021-03-16T13:06:42+01:00</time>
      </trkpt>
      <trkpt lat="47.69895" lon="-2.89874">
        <ele>45</ele>
        <time>2021-03-16T13:07:08+01:00</time>
      </trkpt>
      <trkpt lat="47.69893" lon="-2.89877">
        <ele>45</ele>
        <time>2021-03-16T13:08:00+01:00</time>
      </trkpt>
      <trkpt lat="47.6989" lon="-2.89882">
        <ele>45</ele>
        <time>2021-03-16T13:08:02+01:00</time>
      </trkpt>
      <trkpt lat="47.69889" lon="-2.89887">
        <ele>45</ele>
        <time>2021-03-16T13:08:04+01:00</time>
      </trkpt>
      <trkpt lat="47.69888" lon="-2.89893">
        <ele>45</ele>
        <time>2021-03-16T13:08:06+01:00</time>
      </trkpt>
      <trkpt lat="47.69887" lon="-2.89898">
        <ele>45</ele>
        <time>2021-03-16T13:08:09+01:00</time>
      </trkpt>
      <trkpt lat="47.69888" lon="-2.89903">
        <ele>45</ele>
        <time>2021-03-16T13:08:13+01:00</time>
      </trkpt>
      <trkpt lat="47.69889" lon="-2.89908">
        <ele>45</ele>
        <time>2021-03-16T13:08:15+01:00</time>
      </trkpt>
      <trkpt lat="47.69891" lon="-2.89914">
        <ele>45</ele>
        <time>2021-03-16T13:08:17+01:00</time>
      </trkpt>
      <trkpt lat="47.69892" lon="-2.89921">
        <ele>45</ele>
        <time>2021-03-16T13:08:19+01:00</time>
      </trkpt>
      <trkpt lat="47.69893" lon="-2.89926">
        <ele>45</ele>
        <time>2021-03-16T13:08:20+01:00</time>
      </trkpt>
      <trkpt lat="47.69894" lon="-2.8993">
        <ele>45</ele>
        <time>2021-03-16T13:08:21+01:00</time>
      </trkpt>
      <trkpt lat="47.69896" lon="-2.89935">
        <ele>45</ele>
        <time>2021-03-16T13:08:22+01:00</time>
      </trkpt>
      <trkpt lat="47.69897" lon="-2.89939">
        <ele>45</ele>
        <time>2021-03-16T13:08:23+01:00</time>
      </trkpt>
      <trkpt lat="47.69898" lon="-2.89943">
        <ele>45</ele>
        <time>2021-03-16T13:08:24+01:00</time>
      </trkpt>
      <trkpt lat="47.69899" lon="-2.89948">
        <ele>46</ele>
        <time>2021-03-16T13:08:25+01:00</time>
      </trkpt>
      <trkpt lat="47.699" lon="-2.89952">
        <ele>46</ele>
        <time>2021-03-16T13:08:26+01:00</time>
      </trkpt>
      <trkpt lat="47.69902" lon="-2.89957">
        <ele>46</ele>
        <time>2021-03-16T13:08:27+01:00</time>
      </trkpt>
      <trkpt lat="47.69903" lon="-2.89961">
        <ele>46</ele>
        <time>2021-03-16T13:08:28+01:00</time>
      </trkpt>
      <trkpt lat="47.69905" lon="-2.89967">
        <ele>46</ele>
        <time>2021-03-16T13:08:30+01:00</time>
      </trkpt>
      <trkpt lat="47.69906" lon="-2.89972">
        <ele>46</ele>
        <time>2021-03-16T13:08:31+01:00</time>
      </trkpt>
      <trkpt lat="47.69908" lon="-2.89976">
        <ele>46</ele>
        <time>2021-03-16T13:08:32+01:00</time>
      </trkpt>
      <trkpt lat="47.69909" lon="-2.8998">
        <ele>46</ele>
        <time>2021-03-16T13:08:33+01:00</time>
      </trkpt>
      <trkpt lat="47.69911" lon="-2.89985">
        <ele>46</ele>
        <time>2021-03-16T13:08:34+01:00</time>
      </trkpt>
      <trkpt lat="47.69912" lon="-2.89989">
        <ele>46</ele>
        <time>2021-03-16T13:08:35+01:00</time>
      </trkpt>
      <trkpt lat="47.69913" lon="-2.89994">
        <ele>46</ele>
        <time>2021-03-16T13:08:36+01:00</time>
      </trkpt>
      <trkpt lat="47.69914" lon="-2.89998">
        <ele>46</ele>
        <time>2021-03-16T13:08:37+01:00</time>
      </trkpt>
      <trkpt lat="47.69914" lon="-2.90002">
        <ele>46</ele>
        <time>2021-03-16T13:08:38+01:00</time>
      </trkpt>
      <trkpt lat="47.69914" lon="-2.90007">
        <ele>46</ele>
        <time>2021-03-16T13:08:39+01:00</time>
      </trkpt>
      <trkpt lat="47.69914" lon="-2.90011">
        <ele>46</ele>
        <time>2021-03-16T13:08:40+01:00</time>
      </trkpt>
      <trkpt lat="47.69915" lon="-2.90016">
        <ele>46</ele>
        <time>2021-03-16T13:08:41+01:00</time>
      </trkpt>
      <trkpt lat="47.69916" lon="-2.90021">
        <ele>46</ele>
        <time>2021-03-16T13:08:42+01:00</time>
      </trkpt>
      <trkpt lat="47.69916" lon="-2.90025">
        <ele>46</ele>
        <time>2021-03-16T13:08:43+01:00</time>
      </trkpt>
      <trkpt lat="47.69917" lon="-2.9003">
        <ele>46</ele>
        <time>2021-03-16T13:08:44+01:00</time>
      </trkpt>
      <trkpt lat="47.69918" lon="-2.90034">
        <ele>46</ele>
        <time>2021-03-16T13:08:45+01:00</time>
      </trkpt>
      <trkpt lat="47.69918" lon="-2.90039">
        <ele>46</ele>
        <time>2021-03-16T13:08:46+01:00</time>
      </trkpt>
      <trkpt lat="47.69918" lon="-2.90043">
        <ele>46</ele>
        <time>2021-03-16T13:08:47+01:00</time>
      </trkpt>
      <trkpt lat="47.69919" lon="-2.90048">
        <ele>46</ele>
        <time>2021-03-16T13:08:48+01:00</time>
      </trkpt>
      <trkpt lat="47.6992" lon="-2.90052">
        <ele>46</ele>
        <time>2021-03-16T13:08:49+01:00</time>
      </trkpt>
      <trkpt lat="47.69921" lon="-2.90056">
        <ele>46</ele>
        <time>2021-03-16T13:08:50+01:00</time>
      </trkpt>
      <trkpt lat="47.69922" lon="-2.9006">
        <ele>46</ele>
        <time>2021-03-16T13:08:51+01:00</time>
      </trkpt>
      <trkpt lat="47.69924" lon="-2.90064">
        <ele>46</ele>
        <time>2021-03-16T13:08:52+01:00</time>
      </trkpt>
      <trkpt lat="47.69925" lon="-2.90068">
        <ele>46</ele>
        <time>2021-03-16T13:08:53+01:00</time>
      </trkpt>
      <trkpt lat="47.69926" lon="-2.90072">
        <ele>46</ele>
        <time>2021-03-16T13:08:54+01:00</time>
      </trkpt>
      <trkpt lat="47.69927" lon="-2.90076">
        <ele>46</ele>
        <time>2021-03-16T13:08:55+01:00</time>
      </trkpt>
      <trkpt lat="47.69928" lon="-2.9008">
        <ele>46</ele>
        <time>2021-03-16T13:08:56+01:00</time>
      </trkpt>
      <trkpt lat="47.6993" lon="-2.90086">
        <ele>46</ele>
        <time>2021-03-16T13:08:58+01:00</time>
      </trkpt>
      <trkpt lat="47.69932" lon="-2.90092">
        <ele>46</ele>
        <time>2021-03-16T13:09:00+01:00</time>
      </trkpt>
      <trkpt lat="47.69934" lon="-2.90097">
        <ele>47</ele>
        <time>2021-03-16T13:09:01+01:00</time>
      </trkpt>
      <trkpt lat="47.69935" lon="-2.90101">
        <ele>47</ele>
        <time>2021-03-16T13:09:02+01:00</time>
      </trkpt>
      <trkpt lat="47.69937" lon="-2.90105">
        <ele>47</ele>
        <time>2021-03-16T13:09:03+01:00</time>
      </trkpt>
      <trkpt lat="47.69939" lon="-2.90109">
        <ele>47</ele>
        <time>2021-03-16T13:09:04+01:00</time>
      </trkpt>
      <trkpt lat="47.6994" lon="-2.90112">
        <ele>47</ele>
        <time>2021-03-16T13:09:05+01:00</time>
      </trkpt>
      <trkpt lat="47.69942" lon="-2.90116">
        <ele>47</ele>
        <time>2021-03-16T13:09:06+01:00</time>
      </trkpt>
      <trkpt lat="47.69944" lon="-2.9012">
        <ele>48</ele>
        <time>2021-03-16T13:09:07+01:00</time>
      </trkpt>
      <trkpt lat="47.69946" lon="-2.90123">
        <ele>48</ele>
        <time>2021-03-16T13:09:08+01:00</time>
      </trkpt>
      <trkpt lat="47.69949" lon="-2.90129">
        <ele>48</ele>
        <time>2021-03-16T13:09:10+01:00</time>
      </trkpt>
      <trkpt lat="47.69951" lon="-2.90135">
        <ele>48</ele>
        <time>2021-03-16T13:09:12+01:00</time>
      </trkpt>
      <trkpt lat="47.69953" lon="-2.90141">
        <ele>48</ele>
        <time>2021-03-16T13:09:14+01:00</time>
      </trkpt>
      <trkpt lat="47.69955" lon="-2.90147">
        <ele>48</ele>
        <time>2021-03-16T13:09:16+01:00</time>
      </trkpt>
      <trkpt lat="47.69956" lon="-2.90151">
        <ele>49</ele>
        <time>2021-03-16T13:09:17+01:00</time>
      </trkpt>
      <trkpt lat="47.69958" lon="-2.90155">
        <ele>49</ele>
        <time>2021-03-16T13:09:18+01:00</time>
      </trkpt>
      <trkpt lat="47.6996" lon="-2.9016">
        <ele>49</ele>
        <time>2021-03-16T13:09:20+01:00</time>
      </trkpt>
      <trkpt lat="47.69963" lon="-2.90165">
        <ele>49</ele>
        <time>2021-03-16T13:09:22+01:00</time>
      </trkpt>
      <trkpt lat="47.69966" lon="-2.90171">
        <ele>49</ele>
        <time>2021-03-16T13:09:24+01:00</time>
      </trkpt>
      <trkpt lat="47.69968" lon="-2.90176">
        <ele>49</ele>
        <time>2021-03-16T13:09:25+01:00</time>
      </trkpt>
      <trkpt lat="47.69969" lon="-2.9018">
        <ele>49</ele>
        <time>2021-03-16T13:09:26+01:00</time>
      </trkpt>
      <trkpt lat="47.6997" lon="-2.90184">
        <ele>49</ele>
        <time>2021-03-16T13:09:27+01:00</time>
      </trkpt>
      <trkpt lat="47.69972" lon="-2.90188">
        <ele>50</ele>
        <time>2021-03-16T13:09:28+01:00</time>
      </trkpt>
      <trkpt lat="47.69973" lon="-2.90194">
        <ele>50</ele>
        <time>2021-03-16T13:09:30+01:00</time>
      </trkpt>
      <trkpt lat="47.69974" lon="-2.90201">
        <ele>50</ele>
        <time>2021-03-16T13:09:32+01:00</time>
      </trkpt>
      <trkpt lat="47.69975" lon="-2.90206">
        <ele>50</ele>
        <time>2021-03-16T13:09:33+01:00</time>
      </trkpt>
      <trkpt lat="47.69976" lon="-2.90211">
        <ele>50</ele>
        <time>2021-03-16T13:09:34+01:00</time>
      </trkpt>
      <trkpt lat="47.69978" lon="-2.90215">
        <ele>50</ele>
        <time>2021-03-16T13:09:35+01:00</time>
      </trkpt>
      <trkpt lat="47.69979" lon="-2.90219">
        <ele>50</ele>
        <time>2021-03-16T13:09:36+01:00</time>
      </trkpt>
      <trkpt lat="47.6998" lon="-2.90223">
        <ele>50</ele>
        <time>2021-03-16T13:09:37+01:00</time>
      </trkpt>
      <trkpt lat="47.69982" lon="-2.90227">
        <ele>50</ele>
        <time>2021-03-16T13:09:38+01:00</time>
      </trkpt>
      <trkpt lat="47.69985" lon="-2.90232">
        <ele>51</ele>
        <time>2021-03-16T13:09:40+01:00</time>
      </trkpt>
      <trkpt lat="47.69987" lon="-2.90236">
        <ele>51</ele>
        <time>2021-03-16T13:09:41+01:00</time>
      </trkpt>
      <trkpt lat="47.69989" lon="-2.9024">
        <ele>51</ele>
        <time>2021-03-16T13:09:42+01:00</time>
      </trkpt>
      <trkpt lat="47.6999" lon="-2.90244">
        <ele>51</ele>
        <time>2021-03-16T13:09:43+01:00</time>
      </trkpt>
      <trkpt lat="47.69991" lon="-2.9025">
        <ele>51</ele>
        <time>2021-03-16T13:09:45+01:00</time>
      </trkpt>
      <trkpt lat="47.69992" lon="-2.90255">
        <ele>51</ele>
        <time>2021-03-16T13:09:47+01:00</time>
      </trkpt>
      <trkpt lat="47.69992" lon="-2.9026">
        <ele>51</ele>
        <time>2021-03-16T13:09:49+01:00</time>
      </trkpt>
      <trkpt lat="47.69993" lon="-2.90264">
        <ele>51</ele>
        <time>2021-03-16T13:09:50+01:00</time>
      </trkpt>
      <trkpt lat="47.69993" lon="-2.90269">
        <ele>50</ele>
        <time>2021-03-16T13:09:51+01:00</time>
      </trkpt>
      <trkpt lat="47.69993" lon="-2.90273">
        <ele>50</ele>
        <time>2021-03-16T13:09:52+01:00</time>
      </trkpt>
      <trkpt lat="47.69992" lon="-2.90278">
        <ele>50</ele>
        <time>2021-03-16T13:09:53+01:00</time>
      </trkpt>
      <trkpt lat="47.69992" lon="-2.90282">
        <ele>50</ele>
        <time>2021-03-16T13:09:54+01:00</time>
      </trkpt>
      <trkpt lat="47.69991" lon="-2.90286">
        <ele>50</ele>
        <time>2021-03-16T13:09:55+01:00</time>
      </trkpt>
      <trkpt lat="47.69991" lon="-2.90291">
        <ele>50</ele>
        <time>2021-03-16T13:09:56+01:00</time>
      </trkpt>
      <trkpt lat="47.6999" lon="-2.90295">
        <ele>50</ele>
        <time>2021-03-16T13:09:57+01:00</time>
      </trkpt>
      <trkpt lat="47.6999" lon="-2.903">
        <ele>49</ele>
        <time>2021-03-16T13:09:58+01:00</time>
      </trkpt>
      <trkpt lat="47.6999" lon="-2.90306">
        <ele>49</ele>
        <time>2021-03-16T13:09:59+01:00</time>
      </trkpt>
      <trkpt lat="47.69991" lon="-2.90312">
        <ele>49</ele>
        <time>2021-03-16T13:10:00+01:00</time>
      </trkpt>
      <trkpt lat="47.69991" lon="-2.90318">
        <ele>49</ele>
        <time>2021-03-16T13:10:01+01:00</time>
      </trkpt>
      <trkpt lat="47.69992" lon="-2.90325">
        <ele>49</ele>
        <time>2021-03-16T13:10:02+01:00</time>
      </trkpt>
      <trkpt lat="47.69993" lon="-2.90333">
        <ele>48</ele>
        <time>2021-03-16T13:10:03+01:00</time>
      </trkpt>
      <trkpt lat="47.69993" lon="-2.90341">
        <ele>48</ele>
        <time>2021-03-16T13:10:04+01:00</time>
      </trkpt>
      <trkpt lat="47.69994" lon="-2.90349">
        <ele>48</ele>
        <time>2021-03-16T13:10:05+01:00</time>
      </trkpt>
      <trkpt lat="47.69995" lon="-2.90357">
        <ele>47</ele>
        <time>2021-03-16T13:10:06+01:00</time>
      </trkpt>
      <trkpt lat="47.69995" lon="-2.90365">
        <ele>47</ele>
        <time>2021-03-16T13:10:07+01:00</time>
      </trkpt>
      <trkpt lat="47.69996" lon="-2.90373">
        <ele>47</ele>
        <time>2021-03-16T13:10:08+01:00</time>
      </trkpt>
      <trkpt lat="47.69996" lon="-2.90382">
        <ele>46</ele>
        <time>2021-03-16T13:10:09+01:00</time>
      </trkpt>
      <trkpt lat="47.69996" lon="-2.9039">
        <ele>46</ele>
        <time>2021-03-16T13:10:10+01:00</time>
      </trkpt>
      <trkpt lat="47.69997" lon="-2.90398">
        <ele>46</ele>
        <time>2021-03-16T13:10:11+01:00</time>
      </trkpt>
      <trkpt lat="47.69998" lon="-2.90406">
        <ele>45</ele>
        <time>2021-03-16T13:10:12+01:00</time>
      </trkpt>
      <trkpt lat="47.70001" lon="-2.90413">
        <ele>45</ele>
        <time>2021-03-16T13:10:13+01:00</time>
      </trkpt>
      <trkpt lat="47.70006" lon="-2.90418">
        <ele>45</ele>
        <time>2021-03-16T13:10:14+01:00</time>
      </trkpt>
      <trkpt lat="47.70011" lon="-2.90421">
        <ele>45</ele>
        <time>2021-03-16T13:10:15+01:00</time>
      </trkpt>
      <trkpt lat="47.70017" lon="-2.90424">
        <ele>45</ele>
        <time>2021-03-16T13:10:16+01:00</time>
      </trkpt>
      <trkpt lat="47.70022" lon="-2.90426">
        <ele>45</ele>
        <time>2021-03-16T13:10:17+01:00</time>
      </trkpt>
      <trkpt lat="47.70027" lon="-2.90427">
        <ele>45</ele>
        <time>2021-03-16T13:10:18+01:00</time>
      </trkpt>
      <trkpt lat="47.70033" lon="-2.90429">
        <ele>45</ele>
        <time>2021-03-16T13:10:19+01:00</time>
      </trkpt>
      <trkpt lat="47.70038" lon="-2.9043">
        <ele>45</ele>
        <time>2021-03-16T13:10:20+01:00</time>
      </trkpt>
      <trkpt lat="47.70044" lon="-2.9043">
        <ele>44</ele>
        <time>2021-03-16T13:10:21+01:00</time>
      </trkpt>
      <trkpt lat="47.70049" lon="-2.90431">
        <ele>44</ele>
        <time>2021-03-16T13:10:22+01:00</time>
      </trkpt>
      <trkpt lat="47.70055" lon="-2.90431">
        <ele>44</ele>
        <time>2021-03-16T13:10:23+01:00</time>
      </trkpt>
      <trkpt lat="47.70061" lon="-2.90432">
        <ele>44</ele>
        <time>2021-03-16T13:10:24+01:00</time>
      </trkpt>
      <trkpt lat="47.70066" lon="-2.90433">
        <ele>44</ele>
        <time>2021-03-16T13:10:25+01:00</time>
      </trkpt>
      <trkpt lat="47.70071" lon="-2.90435">
        <ele>44</ele>
        <time>2021-03-16T13:10:26+01:00</time>
      </trkpt>
      <trkpt lat="47.70075" lon="-2.90439">
        <ele>44</ele>
        <time>2021-03-16T13:10:27+01:00</time>
      </trkpt>
      <trkpt lat="47.70077" lon="-2.90445">
        <ele>44</ele>
        <time>2021-03-16T13:10:28+01:00</time>
      </trkpt>
      <trkpt lat="47.70078" lon="-2.90451">
        <ele>44</ele>
        <time>2021-03-16T13:10:29+01:00</time>
      </trkpt>
      <trkpt lat="47.70078" lon="-2.90458">
        <ele>44</ele>
        <time>2021-03-16T13:10:30+01:00</time>
      </trkpt>
      <trkpt lat="47.70078" lon="-2.90465">
        <ele>44</ele>
        <time>2021-03-16T13:10:31+01:00</time>
      </trkpt>
      <trkpt lat="47.70077" lon="-2.9047">
        <ele>44</ele>
        <time>2021-03-16T13:10:32+01:00</time>
      </trkpt>
      <trkpt lat="47.70077" lon="-2.90476">
        <ele>44</ele>
        <time>2021-03-16T13:10:33+01:00</time>
      </trkpt>
      <trkpt lat="47.70077" lon="-2.90482">
        <ele>44</ele>
        <time>2021-03-16T13:10:34+01:00</time>
      </trkpt>
      <trkpt lat="47.70077" lon="-2.90488">
        <ele>44</ele>
        <time>2021-03-16T13:10:35+01:00</time>
      </trkpt>
      <trkpt lat="47.70077" lon="-2.90495">
        <ele>44</ele>
        <time>2021-03-16T13:10:36+01:00</time>
      </trkpt>
      <trkpt lat="47.70077" lon="-2.90503">
        <ele>44</ele>
        <time>2021-03-16T13:10:37+01:00</time>
      </trkpt>
      <trkpt lat="47.70077" lon="-2.9051">
        <ele>44</ele>
        <time>2021-03-16T13:10:38+01:00</time>
      </trkpt>
      <trkpt lat="47.70078" lon="-2.90518">
        <ele>44</ele>
        <time>2021-03-16T13:10:39+01:00</time>
      </trkpt>
      <trkpt lat="47.70078" lon="-2.90525">
        <ele>44</ele>
        <time>2021-03-16T13:10:40+01:00</time>
      </trkpt>
      <trkpt lat="47.70079" lon="-2.90532">
        <ele>44</ele>
        <time>2021-03-16T13:10:41+01:00</time>
      </trkpt>
      <trkpt lat="47.7008" lon="-2.90539">
        <ele>44</ele>
        <time>2021-03-16T13:10:42+01:00</time>
      </trkpt>
      <trkpt lat="47.70083" lon="-2.90545">
        <ele>43</ele>
        <time>2021-03-16T13:10:43+01:00</time>
      </trkpt>
      <trkpt lat="47.70087" lon="-2.90551">
        <ele>43</ele>
        <time>2021-03-16T13:10:44+01:00</time>
      </trkpt>
      <trkpt lat="47.7009" lon="-2.90557">
        <ele>43</ele>
        <time>2021-03-16T13:10:45+01:00</time>
      </trkpt>
      <trkpt lat="47.70092" lon="-2.90563">
        <ele>43</ele>
        <time>2021-03-16T13:10:46+01:00</time>
      </trkpt>
      <trkpt lat="47.70092" lon="-2.90569">
        <ele>43</ele>
        <time>2021-03-16T13:10:47+01:00</time>
      </trkpt>
      <trkpt lat="47.70091" lon="-2.90575">
        <ele>43</ele>
        <time>2021-03-16T13:10:48+01:00</time>
      </trkpt>
      <trkpt lat="47.7009" lon="-2.90581">
        <ele>43</ele>
        <time>2021-03-16T13:10:49+01:00</time>
      </trkpt>
      <trkpt lat="47.70088" lon="-2.90587">
        <ele>43</ele>
        <time>2021-03-16T13:10:50+01:00</time>
      </trkpt>
      <trkpt lat="47.70086" lon="-2.90593">
        <ele>43</ele>
        <time>2021-03-16T13:10:51+01:00</time>
      </trkpt>
      <trkpt lat="47.70084" lon="-2.90599">
        <ele>43</ele>
        <time>2021-03-16T13:10:52+01:00</time>
      </trkpt>
      <trkpt lat="47.70083" lon="-2.90606">
        <ele>43</ele>
        <time>2021-03-16T13:10:53+01:00</time>
      </trkpt>
      <trkpt lat="47.70082" lon="-2.90611">
        <ele>43</ele>
        <time>2021-03-16T13:10:54+01:00</time>
      </trkpt>
      <trkpt lat="47.70083" lon="-2.90615">
        <ele>43</ele>
        <time>2021-03-16T13:10:55+01:00</time>
      </trkpt>
      <trkpt lat="47.70086" lon="-2.90617">
        <ele>43</ele>
        <time>2021-03-16T13:10:56+01:00</time>
      </trkpt>
      <trkpt lat="47.7009" lon="-2.90619">
        <ele>44</ele>
        <time>2021-03-16T13:10:57+01:00</time>
      </trkpt>
      <trkpt lat="47.70094" lon="-2.90619">
        <ele>44</ele>
        <time>2021-03-16T13:10:58+01:00</time>
      </trkpt>
      <trkpt lat="47.70097" lon="-2.90619">
        <ele>44</ele>
        <time>2021-03-16T13:10:59+01:00</time>
      </trkpt>
      <trkpt lat="47.70101" lon="-2.90619">
        <ele>44</ele>
        <time>2021-03-16T13:11:00+01:00</time>
      </trkpt>
      <trkpt lat="47.70104" lon="-2.9062">
        <ele>44</ele>
        <time>2021-03-16T13:11:01+01:00</time>
      </trkpt>
      <trkpt lat="47.70107" lon="-2.90621">
        <ele>44</ele>
        <time>2021-03-16T13:11:02+01:00</time>
      </trkpt>
      <trkpt lat="47.7011" lon="-2.90625">
        <ele>44</ele>
        <time>2021-03-16T13:11:04+01:00</time>
      </trkpt>
      <trkpt lat="47.70112" lon="-2.9063">
        <ele>44</ele>
        <time>2021-03-16T13:11:05+01:00</time>
      </trkpt>
      <trkpt lat="47.70112" lon="-2.90636">
        <ele>44</ele>
        <time>2021-03-16T13:11:06+01:00</time>
      </trkpt>
      <trkpt lat="47.70112" lon="-2.90641">
        <ele>44</ele>
        <time>2021-03-16T13:11:07+01:00</time>
      </trkpt>
      <trkpt lat="47.70112" lon="-2.90647">
        <ele>44</ele>
        <time>2021-03-16T13:11:08+01:00</time>
      </trkpt>
      <trkpt lat="47.70112" lon="-2.90652">
        <ele>44</ele>
        <time>2021-03-16T13:11:09+01:00</time>
      </trkpt>
      <trkpt lat="47.70112" lon="-2.90657">
        <ele>44</ele>
        <time>2021-03-16T13:11:10+01:00</time>
      </trkpt>
      <trkpt lat="47.70112" lon="-2.90663">
        <ele>44</ele>
        <time>2021-03-16T13:11:11+01:00</time>
      </trkpt>
      <trkpt lat="47.70112" lon="-2.90668">
        <ele>44</ele>
        <time>2021-03-16T13:11:12+01:00</time>
      </trkpt>
      <trkpt lat="47.70111" lon="-2.90672">
        <ele>44</ele>
        <time>2021-03-16T13:11:13+01:00</time>
      </trkpt>
      <trkpt lat="47.7011" lon="-2.90676">
        <ele>44</ele>
        <time>2021-03-16T13:11:14+01:00</time>
      </trkpt>
      <trkpt lat="47.70108" lon="-2.90679">
        <ele>44</ele>
        <time>2021-03-16T13:11:15+01:00</time>
      </trkpt>
      <trkpt lat="47.70105" lon="-2.9068">
        <ele>44</ele>
        <time>2021-03-16T13:11:16+01:00</time>
      </trkpt>
      <trkpt lat="47.70102" lon="-2.9068">
        <ele>44</ele>
        <time>2021-03-16T13:11:17+01:00</time>
      </trkpt>
      <trkpt lat="47.70098" lon="-2.9068">
        <ele>44</ele>
        <time>2021-03-16T13:11:18+01:00</time>
      </trkpt>
      <trkpt lat="47.70094" lon="-2.9068">
        <ele>44</ele>
        <time>2021-03-16T13:11:19+01:00</time>
      </trkpt>
      <trkpt lat="47.7009" lon="-2.9068">
        <ele>44</ele>
        <time>2021-03-16T13:11:20+01:00</time>
      </trkpt>
      <trkpt lat="47.70086" lon="-2.9068">
        <ele>44</ele>
        <time>2021-03-16T13:11:21+01:00</time>
      </trkpt>
      <trkpt lat="47.70082" lon="-2.90682">
        <ele>44</ele>
        <time>2021-03-16T13:11:22+01:00</time>
      </trkpt>
      <trkpt lat="47.7008" lon="-2.90685">
        <ele>44</ele>
        <time>2021-03-16T13:11:23+01:00</time>
      </trkpt>
      <trkpt lat="47.70079" lon="-2.90691">
        <ele>44</ele>
        <time>2021-03-16T13:11:24+01:00</time>
      </trkpt>
      <trkpt lat="47.70078" lon="-2.90698">
        <ele>44</ele>
        <time>2021-03-16T13:11:25+01:00</time>
      </trkpt>
      <trkpt lat="47.70077" lon="-2.90704">
        <ele>44</ele>
        <time>2021-03-16T13:11:26+01:00</time>
      </trkpt>
      <trkpt lat="47.70076" lon="-2.90711">
        <ele>44</ele>
        <time>2021-03-16T13:11:27+01:00</time>
      </trkpt>
      <trkpt lat="47.70075" lon="-2.90718">
        <ele>44</ele>
        <time>2021-03-16T13:11:28+01:00</time>
      </trkpt>
      <trkpt lat="47.70074" lon="-2.90724">
        <ele>44</ele>
        <time>2021-03-16T13:11:29+01:00</time>
      </trkpt>
      <trkpt lat="47.70073" lon="-2.90731">
        <ele>44</ele>
        <time>2021-03-16T13:11:30+01:00</time>
      </trkpt>
      <trkpt lat="47.70071" lon="-2.90737">
        <ele>44</ele>
        <time>2021-03-16T13:11:31+01:00</time>
      </trkpt>
      <trkpt lat="47.7007" lon="-2.90743">
        <ele>44</ele>
        <time>2021-03-16T13:11:32+01:00</time>
      </trkpt>
      <trkpt lat="47.70069" lon="-2.90749">
        <ele>44</ele>
        <time>2021-03-16T13:11:33+01:00</time>
      </trkpt>
      <trkpt lat="47.70068" lon="-2.90755">
        <ele>44</ele>
        <time>2021-03-16T13:11:34+01:00</time>
      </trkpt>
      <trkpt lat="47.70069" lon="-2.9076">
        <ele>44</ele>
        <time>2021-03-16T13:11:35+01:00</time>
      </trkpt>
      <trkpt lat="47.70069" lon="-2.90766">
        <ele>44</ele>
        <time>2021-03-16T13:11:36+01:00</time>
      </trkpt>
      <trkpt lat="47.7007" lon="-2.90772">
        <ele>44</ele>
        <time>2021-03-16T13:11:37+01:00</time>
      </trkpt>
      <trkpt lat="47.70071" lon="-2.90777">
        <ele>44</ele>
        <time>2021-03-16T13:11:38+01:00</time>
      </trkpt>
      <trkpt lat="47.70073" lon="-2.90783">
        <ele>44</ele>
        <time>2021-03-16T13:11:40+01:00</time>
      </trkpt>
      <trkpt lat="47.70076" lon="-2.90785">
        <ele>44</ele>
        <time>2021-03-16T13:11:41+01:00</time>
      </trkpt>
      <trkpt lat="47.70079" lon="-2.90785">
        <ele>44</ele>
        <time>2021-03-16T13:11:42+01:00</time>
      </trkpt>
      <trkpt lat="47.70082" lon="-2.90785">
        <ele>44</ele>
        <time>2021-03-16T13:11:43+01:00</time>
      </trkpt>
      <trkpt lat="47.70086" lon="-2.90782">
        <ele>44</ele>
        <time>2021-03-16T13:11:45+01:00</time>
      </trkpt>
      <trkpt lat="47.7009" lon="-2.9078">
        <ele>44</ele>
        <time>2021-03-16T13:11:47+01:00</time>
      </trkpt>
      <trkpt lat="47.70095" lon="-2.90778">
        <ele>44</ele>
        <time>2021-03-16T13:11:49+01:00</time>
      </trkpt>
      <trkpt lat="47.70099" lon="-2.90777">
        <ele>45</ele>
        <time>2021-03-16T13:11:50+01:00</time>
      </trkpt>
      <trkpt lat="47.70102" lon="-2.90777">
        <ele>45</ele>
        <time>2021-03-16T13:11:51+01:00</time>
      </trkpt>
      <trkpt lat="47.70106" lon="-2.90775">
        <ele>45</ele>
        <time>2021-03-16T13:11:53+01:00</time>
      </trkpt>
      <trkpt lat="47.70111" lon="-2.90773">
        <ele>45</ele>
        <time>2021-03-16T13:11:55+01:00</time>
      </trkpt>
      <trkpt lat="47.70115" lon="-2.9077">
        <ele>45</ele>
        <time>2021-03-16T13:11:57+01:00</time>
      </trkpt>
      <trkpt lat="47.70119" lon="-2.90769">
        <ele>45</ele>
        <time>2021-03-16T13:11:58+01:00</time>
      </trkpt>
      <trkpt lat="47.70122" lon="-2.90768">
        <ele>45</ele>
        <time>2021-03-16T13:11:59+01:00</time>
      </trkpt>
      <trkpt lat="47.70126" lon="-2.90765">
        <ele>46</ele>
        <time>2021-03-16T13:12:01+01:00</time>
      </trkpt>
      <trkpt lat="47.70129" lon="-2.90763">
        <ele>46</ele>
        <time>2021-03-16T13:12:03+01:00</time>
      </trkpt>
      <trkpt lat="47.70133" lon="-2.90761">
        <ele>46</ele>
        <time>2021-03-16T13:12:05+01:00</time>
      </trkpt>
      <trkpt lat="47.70136" lon="-2.9076">
        <ele>46</ele>
        <time>2021-03-16T13:12:07+01:00</time>
      </trkpt>
      <trkpt lat="47.7014" lon="-2.90758">
        <ele>46</ele>
        <time>2021-03-16T13:12:09+01:00</time>
      </trkpt>
      <trkpt lat="47.70144" lon="-2.90757">
        <ele>46</ele>
        <time>2021-03-16T13:12:11+01:00</time>
      </trkpt>
      <trkpt lat="47.70149" lon="-2.90756">
        <ele>46</ele>
        <time>2021-03-16T13:12:13+01:00</time>
      </trkpt>
      <trkpt lat="47.70153" lon="-2.9076">
        <ele>47</ele>
        <time>2021-03-16T13:12:15+01:00</time>
      </trkpt>
      <trkpt lat="47.70155" lon="-2.90763">
        <ele>47</ele>
        <time>2021-03-16T13:12:16+01:00</time>
      </trkpt>
      <trkpt lat="47.70157" lon="-2.90768">
        <ele>47</ele>
        <time>2021-03-16T13:12:17+01:00</time>
      </trkpt>
      <trkpt lat="47.70159" lon="-2.90772">
        <ele>47</ele>
        <time>2021-03-16T13:12:18+01:00</time>
      </trkpt>
      <trkpt lat="47.70161" lon="-2.90776">
        <ele>47</ele>
        <time>2021-03-16T13:12:19+01:00</time>
      </trkpt>
      <trkpt lat="47.70162" lon="-2.90781">
        <ele>47</ele>
        <time>2021-03-16T13:12:20+01:00</time>
      </trkpt>
      <trkpt lat="47.70164" lon="-2.90785">
        <ele>47</ele>
        <time>2021-03-16T13:12:21+01:00</time>
      </trkpt>
      <trkpt lat="47.70166" lon="-2.9079">
        <ele>47</ele>
        <time>2021-03-16T13:12:22+01:00</time>
      </trkpt>
      <trkpt lat="47.70166" lon="-2.90795">
        <ele>47</ele>
        <time>2021-03-16T13:12:23+01:00</time>
      </trkpt>
      <trkpt lat="47.70167" lon="-2.908">
        <ele>47</ele>
        <time>2021-03-16T13:12:24+01:00</time>
      </trkpt>
      <trkpt lat="47.70166" lon="-2.90805">
        <ele>47</ele>
        <time>2021-03-16T13:12:25+01:00</time>
      </trkpt>
      <trkpt lat="47.70166" lon="-2.9081">
        <ele>47</ele>
        <time>2021-03-16T13:12:26+01:00</time>
      </trkpt>
      <trkpt lat="47.70166" lon="-2.90816">
        <ele>47</ele>
        <time>2021-03-16T13:12:27+01:00</time>
      </trkpt>
      <trkpt lat="47.70166" lon="-2.90821">
        <ele>47</ele>
        <time>2021-03-16T13:12:28+01:00</time>
      </trkpt>
      <trkpt lat="47.70166" lon="-2.90827">
        <ele>47</ele>
        <time>2021-03-16T13:12:29+01:00</time>
      </trkpt>
      <trkpt lat="47.70167" lon="-2.90833">
        <ele>47</ele>
        <time>2021-03-16T13:12:30+01:00</time>
      </trkpt>
      <trkpt lat="47.70167" lon="-2.90839">
        <ele>47</ele>
        <time>2021-03-16T13:12:31+01:00</time>
      </trkpt>
      <trkpt lat="47.70168" lon="-2.90846">
        <ele>47</ele>
        <time>2021-03-16T13:12:32+01:00</time>
      </trkpt>
      <trkpt lat="47.70168" lon="-2.90852">
        <ele>47</ele>
        <time>2021-03-16T13:12:33+01:00</time>
      </trkpt>
      <trkpt lat="47.70169" lon="-2.90858">
        <ele>47</ele>
        <time>2021-03-16T13:12:34+01:00</time>
      </trkpt>
      <trkpt lat="47.7017" lon="-2.90864">
        <ele>47</ele>
        <time>2021-03-16T13:12:35+01:00</time>
      </trkpt>
      <trkpt lat="47.7017" lon="-2.9087">
        <ele>47</ele>
        <time>2021-03-16T13:12:36+01:00</time>
      </trkpt>
      <trkpt lat="47.70171" lon="-2.90876">
        <ele>47</ele>
        <time>2021-03-16T13:12:37+01:00</time>
      </trkpt>
      <trkpt lat="47.70172" lon="-2.90882">
        <ele>47</ele>
        <time>2021-03-16T13:12:38+01:00</time>
      </trkpt>
      <trkpt lat="47.70174" lon="-2.90888">
        <ele>47</ele>
        <time>2021-03-16T13:12:39+01:00</time>
      </trkpt>
      <trkpt lat="47.70177" lon="-2.90893">
        <ele>47</ele>
        <time>2021-03-16T13:12:40+01:00</time>
      </trkpt>
      <trkpt lat="47.7018" lon="-2.90896">
        <ele>47</ele>
        <time>2021-03-16T13:12:41+01:00</time>
      </trkpt>
      <trkpt lat="47.70185" lon="-2.90897">
        <ele>47</ele>
        <time>2021-03-16T13:12:42+01:00</time>
      </trkpt>
      <trkpt lat="47.70189" lon="-2.90897">
        <ele>47</ele>
        <time>2021-03-16T13:12:43+01:00</time>
      </trkpt>
      <trkpt lat="47.70193" lon="-2.90897">
        <ele>47</ele>
        <time>2021-03-16T13:12:44+01:00</time>
      </trkpt>
      <trkpt lat="47.70196" lon="-2.90897">
        <ele>46</ele>
        <time>2021-03-16T13:12:45+01:00</time>
      </trkpt>
      <trkpt lat="47.702" lon="-2.90897">
        <ele>46</ele>
        <time>2021-03-16T13:12:46+01:00</time>
      </trkpt>
      <trkpt lat="47.70203" lon="-2.90897">
        <ele>46</ele>
        <time>2021-03-16T13:12:47+01:00</time>
      </trkpt>
      <trkpt lat="47.70206" lon="-2.90898">
        <ele>46</ele>
        <time>2021-03-16T13:12:48+01:00</time>
      </trkpt>
      <trkpt lat="47.70209" lon="-2.90899">
        <ele>46</ele>
        <time>2021-03-16T13:12:49+01:00</time>
      </trkpt>
      <trkpt lat="47.70213" lon="-2.90902">
        <ele>46</ele>
        <time>2021-03-16T13:12:51+01:00</time>
      </trkpt>
      <trkpt lat="47.70214" lon="-2.90906">
        <ele>46</ele>
        <time>2021-03-16T13:12:52+01:00</time>
      </trkpt>
      <trkpt lat="47.70213" lon="-2.9091">
        <ele>46</ele>
        <time>2021-03-16T13:12:53+01:00</time>
      </trkpt>
      <trkpt lat="47.70212" lon="-2.90915">
        <ele>46</ele>
        <time>2021-03-16T13:12:54+01:00</time>
      </trkpt>
      <trkpt lat="47.7021" lon="-2.9092">
        <ele>46</ele>
        <time>2021-03-16T13:12:55+01:00</time>
      </trkpt>
      <trkpt lat="47.70208" lon="-2.90926">
        <ele>46</ele>
        <time>2021-03-16T13:12:56+01:00</time>
      </trkpt>
      <trkpt lat="47.70206" lon="-2.90932">
        <ele>46</ele>
        <time>2021-03-16T13:12:57+01:00</time>
      </trkpt>
      <trkpt lat="47.70204" lon="-2.90938">
        <ele>46</ele>
        <time>2021-03-16T13:12:58+01:00</time>
      </trkpt>
      <trkpt lat="47.70203" lon="-2.90945">
        <ele>46</ele>
        <time>2021-03-16T13:12:59+01:00</time>
      </trkpt>
      <trkpt lat="47.70202" lon="-2.90952">
        <ele>46</ele>
        <time>2021-03-16T13:13:00+01:00</time>
      </trkpt>
      <trkpt lat="47.70201" lon="-2.9096">
        <ele>46</ele>
        <time>2021-03-16T13:13:01+01:00</time>
      </trkpt>
      <trkpt lat="47.70201" lon="-2.90967">
        <ele>45</ele>
        <time>2021-03-16T13:13:02+01:00</time>
      </trkpt>
      <trkpt lat="47.70201" lon="-2.90975">
        <ele>45</ele>
        <time>2021-03-16T13:13:03+01:00</time>
      </trkpt>
      <trkpt lat="47.70201" lon="-2.90983">
        <ele>45</ele>
        <time>2021-03-16T13:13:04+01:00</time>
      </trkpt>
      <trkpt lat="47.70202" lon="-2.9099">
        <ele>45</ele>
        <time>2021-03-16T13:13:05+01:00</time>
      </trkpt>
      <trkpt lat="47.70202" lon="-2.90998">
        <ele>45</ele>
        <time>2021-03-16T13:13:06+01:00</time>
      </trkpt>
      <trkpt lat="47.70203" lon="-2.91005">
        <ele>45</ele>
        <time>2021-03-16T13:13:07+01:00</time>
      </trkpt>
      <trkpt lat="47.70205" lon="-2.91012">
        <ele>45</ele>
        <time>2021-03-16T13:13:08+01:00</time>
      </trkpt>
      <trkpt lat="47.70206" lon="-2.91019">
        <ele>45</ele>
        <time>2021-03-16T13:13:09+01:00</time>
      </trkpt>
      <trkpt lat="47.70208" lon="-2.91025">
        <ele>45</ele>
        <time>2021-03-16T13:13:10+01:00</time>
      </trkpt>
      <trkpt lat="47.70209" lon="-2.91031">
        <ele>44</ele>
        <time>2021-03-16T13:13:11+01:00</time>
      </trkpt>
      <trkpt lat="47.70209" lon="-2.91036">
        <ele>44</ele>
        <time>2021-03-16T13:13:13+01:00</time>
      </trkpt>
      <trkpt lat="47.70211" lon="-2.91041">
        <ele>44</ele>
        <time>2021-03-16T13:13:16+01:00</time>
      </trkpt>
      <trkpt lat="47.70212" lon="-2.91047">
        <ele>44</ele>
        <time>2021-03-16T13:13:18+01:00</time>
      </trkpt>
      <trkpt lat="47.70211" lon="-2.91053">
        <ele>44</ele>
        <time>2021-03-16T13:13:20+01:00</time>
      </trkpt>
      <trkpt lat="47.70209" lon="-2.91059">
        <ele>44</ele>
        <time>2021-03-16T13:13:22+01:00</time>
      </trkpt>
      <trkpt lat="47.70208" lon="-2.91064">
        <ele>44</ele>
        <time>2021-03-16T13:13:24+01:00</time>
      </trkpt>
      <trkpt lat="47.70207" lon="-2.91069">
        <ele>44</ele>
        <time>2021-03-16T13:13:26+01:00</time>
      </trkpt>
      <trkpt lat="47.70208" lon="-2.91074">
        <ele>44</ele>
        <time>2021-03-16T13:13:28+01:00</time>
      </trkpt>
      <trkpt lat="47.70209" lon="-2.9108">
        <ele>44</ele>
        <time>2021-03-16T13:13:30+01:00</time>
      </trkpt>
      <trkpt lat="47.7021" lon="-2.91085">
        <ele>43</ele>
        <time>2021-03-16T13:13:31+01:00</time>
      </trkpt>
      <trkpt lat="47.70211" lon="-2.9109">
        <ele>43</ele>
        <time>2021-03-16T13:13:32+01:00</time>
      </trkpt>
      <trkpt lat="47.70212" lon="-2.91095">
        <ele>43</ele>
        <time>2021-03-16T13:13:33+01:00</time>
      </trkpt>
      <trkpt lat="47.70213" lon="-2.91101">
        <ele>43</ele>
        <time>2021-03-16T13:13:34+01:00</time>
      </trkpt>
      <trkpt lat="47.70213" lon="-2.91107">
        <ele>42</ele>
        <time>2021-03-16T13:13:35+01:00</time>
      </trkpt>
      <trkpt lat="47.70212" lon="-2.91113">
        <ele>42</ele>
        <time>2021-03-16T13:13:36+01:00</time>
      </trkpt>
      <trkpt lat="47.70211" lon="-2.91119">
        <ele>42</ele>
        <time>2021-03-16T13:13:37+01:00</time>
      </trkpt>
      <trkpt lat="47.70209" lon="-2.91125">
        <ele>41</ele>
        <time>2021-03-16T13:13:38+01:00</time>
      </trkpt>
      <trkpt lat="47.70207" lon="-2.91131">
        <ele>41</ele>
        <time>2021-03-16T13:13:39+01:00</time>
      </trkpt>
      <trkpt lat="47.70205" lon="-2.91137">
        <ele>41</ele>
        <time>2021-03-16T13:13:40+01:00</time>
      </trkpt>
      <trkpt lat="47.70203" lon="-2.91143">
        <ele>40</ele>
        <time>2021-03-16T13:13:41+01:00</time>
      </trkpt>
      <trkpt lat="47.70202" lon="-2.9115">
        <ele>40</ele>
        <time>2021-03-16T13:13:42+01:00</time>
      </trkpt>
      <trkpt lat="47.702" lon="-2.91156">
        <ele>40</ele>
        <time>2021-03-16T13:13:43+01:00</time>
      </trkpt>
      <trkpt lat="47.70199" lon="-2.91163">
        <ele>39</ele>
        <time>2021-03-16T13:13:44+01:00</time>
      </trkpt>
      <trkpt lat="47.70197" lon="-2.91169">
        <ele>39</ele>
        <time>2021-03-16T13:13:45+01:00</time>
      </trkpt>
      <trkpt lat="47.70195" lon="-2.91176">
        <ele>39</ele>
        <time>2021-03-16T13:13:46+01:00</time>
      </trkpt>
      <trkpt lat="47.70194" lon="-2.91182">
        <ele>39</ele>
        <time>2021-03-16T13:13:47+01:00</time>
      </trkpt>
      <trkpt lat="47.70192" lon="-2.91188">
        <ele>39</ele>
        <time>2021-03-16T13:13:48+01:00</time>
      </trkpt>
      <trkpt lat="47.7019" lon="-2.91195">
        <ele>39</ele>
        <time>2021-03-16T13:13:49+01:00</time>
      </trkpt>
      <trkpt lat="47.70188" lon="-2.91202">
        <ele>39</ele>
        <time>2021-03-16T13:13:50+01:00</time>
      </trkpt>
      <trkpt lat="47.70186" lon="-2.91208">
        <ele>39</ele>
        <time>2021-03-16T13:13:51+01:00</time>
      </trkpt>
      <trkpt lat="47.70185" lon="-2.91215">
        <ele>39</ele>
        <time>2021-03-16T13:13:52+01:00</time>
      </trkpt>
      <trkpt lat="47.70183" lon="-2.91222">
        <ele>39</ele>
        <time>2021-03-16T13:13:53+01:00</time>
      </trkpt>
      <trkpt lat="47.70182" lon="-2.91228">
        <ele>39</ele>
        <time>2021-03-16T13:13:54+01:00</time>
      </trkpt>
      <trkpt lat="47.70181" lon="-2.91235">
        <ele>39</ele>
        <time>2021-03-16T13:13:55+01:00</time>
      </trkpt>
      <trkpt lat="47.70182" lon="-2.91242">
        <ele>39</ele>
        <time>2021-03-16T13:13:56+01:00</time>
      </trkpt>
      <trkpt lat="47.70184" lon="-2.91247">
        <ele>39</ele>
        <time>2021-03-16T13:13:57+01:00</time>
      </trkpt>
      <trkpt lat="47.70187" lon="-2.91252">
        <ele>39</ele>
        <time>2021-03-16T13:13:58+01:00</time>
      </trkpt>
      <trkpt lat="47.7019" lon="-2.91257">
        <ele>39</ele>
        <time>2021-03-16T13:13:59+01:00</time>
      </trkpt>
      <trkpt lat="47.70192" lon="-2.91261">
        <ele>39</ele>
        <time>2021-03-16T13:14:00+01:00</time>
      </trkpt>
      <trkpt lat="47.70195" lon="-2.91265">
        <ele>39</ele>
        <time>2021-03-16T13:14:01+01:00</time>
      </trkpt>
      <trkpt lat="47.70197" lon="-2.91269">
        <ele>39</ele>
        <time>2021-03-16T13:14:02+01:00</time>
      </trkpt>
      <trkpt lat="47.70199" lon="-2.91274">
        <ele>39</ele>
        <time>2021-03-16T13:14:03+01:00</time>
      </trkpt>
      <trkpt lat="47.702" lon="-2.91278">
        <ele>40</ele>
        <time>2021-03-16T13:14:04+01:00</time>
      </trkpt>
      <trkpt lat="47.70202" lon="-2.91283">
        <ele>40</ele>
        <time>2021-03-16T13:14:05+01:00</time>
      </trkpt>
      <trkpt lat="47.70202" lon="-2.91287">
        <ele>40</ele>
        <time>2021-03-16T13:14:06+01:00</time>
      </trkpt>
      <trkpt lat="47.70203" lon="-2.91292">
        <ele>40</ele>
        <time>2021-03-16T13:14:07+01:00</time>
      </trkpt>
      <trkpt lat="47.70202" lon="-2.91297">
        <ele>40</ele>
        <time>2021-03-16T13:14:08+01:00</time>
      </trkpt>
      <trkpt lat="47.70201" lon="-2.91302">
        <ele>40</ele>
        <time>2021-03-16T13:14:09+01:00</time>
      </trkpt>
      <trkpt lat="47.702" lon="-2.91307">
        <ele>40</ele>
        <time>2021-03-16T13:14:10+01:00</time>
      </trkpt>
      <trkpt lat="47.702" lon="-2.91312">
        <ele>40</ele>
        <time>2021-03-16T13:14:11+01:00</time>
      </trkpt>
      <trkpt lat="47.70199" lon="-2.91317">
        <ele>41</ele>
        <time>2021-03-16T13:14:12+01:00</time>
      </trkpt>
      <trkpt lat="47.70199" lon="-2.91322">
        <ele>41</ele>
        <time>2021-03-16T13:14:13+01:00</time>
      </trkpt>
      <trkpt lat="47.70199" lon="-2.91327">
        <ele>41</ele>
        <time>2021-03-16T13:14:14+01:00</time>
      </trkpt>
      <trkpt lat="47.70199" lon="-2.91331">
        <ele>41</ele>
        <time>2021-03-16T13:14:15+01:00</time>
      </trkpt>
      <trkpt lat="47.702" lon="-2.91336">
        <ele>41</ele>
        <time>2021-03-16T13:14:16+01:00</time>
      </trkpt>
      <trkpt lat="47.702" lon="-2.91341">
        <ele>41</ele>
        <time>2021-03-16T13:14:17+01:00</time>
      </trkpt>
      <trkpt lat="47.70201" lon="-2.91345">
        <ele>41</ele>
        <time>2021-03-16T13:14:18+01:00</time>
      </trkpt>
      <trkpt lat="47.70203" lon="-2.9135">
        <ele>41</ele>
        <time>2021-03-16T13:14:19+01:00</time>
      </trkpt>
      <trkpt lat="47.70206" lon="-2.91353">
        <ele>41</ele>
        <time>2021-03-16T13:14:20+01:00</time>
      </trkpt>
      <trkpt lat="47.70209" lon="-2.91355">
        <ele>41</ele>
        <time>2021-03-16T13:14:21+01:00</time>
      </trkpt>
      <trkpt lat="47.70212" lon="-2.91356">
        <ele>41</ele>
        <time>2021-03-16T13:14:22+01:00</time>
      </trkpt>
      <trkpt lat="47.70216" lon="-2.91356">
        <ele>41</ele>
        <time>2021-03-16T13:14:23+01:00</time>
      </trkpt>
      <trkpt lat="47.70219" lon="-2.91355">
        <ele>41</ele>
        <time>2021-03-16T13:14:24+01:00</time>
      </trkpt>
      <trkpt lat="47.70222" lon="-2.91353">
        <ele>41</ele>
        <time>2021-03-16T13:14:25+01:00</time>
      </trkpt>
      <trkpt lat="47.70225" lon="-2.91352">
        <ele>41</ele>
        <time>2021-03-16T13:14:26+01:00</time>
      </trkpt>
      <trkpt lat="47.70228" lon="-2.9135">
        <ele>41</ele>
        <time>2021-03-16T13:14:27+01:00</time>
      </trkpt>
      <trkpt lat="47.70231" lon="-2.91348">
        <ele>41</ele>
        <time>2021-03-16T13:14:28+01:00</time>
      </trkpt>
      <trkpt lat="47.70234" lon="-2.91346">
        <ele>41</ele>
        <time>2021-03-16T13:14:29+01:00</time>
      </trkpt>
      <trkpt lat="47.70237" lon="-2.91344">
        <ele>41</ele>
        <time>2021-03-16T13:14:30+01:00</time>
      </trkpt>
      <trkpt lat="47.7024" lon="-2.91342">
        <ele>41</ele>
        <time>2021-03-16T13:14:31+01:00</time>
      </trkpt>
      <trkpt lat="47.70244" lon="-2.91341">
        <ele>41</ele>
        <time>2021-03-16T13:14:32+01:00</time>
      </trkpt>
      <trkpt lat="47.70247" lon="-2.91339">
        <ele>41</ele>
        <time>2021-03-16T13:14:33+01:00</time>
      </trkpt>
      <trkpt lat="47.7025" lon="-2.91338">
        <ele>41</ele>
        <time>2021-03-16T13:14:34+01:00</time>
      </trkpt>
      <trkpt lat="47.70253" lon="-2.91337">
        <ele>41</ele>
        <time>2021-03-16T13:14:35+01:00</time>
      </trkpt>
      <trkpt lat="47.70257" lon="-2.91334">
        <ele>41</ele>
        <time>2021-03-16T13:14:37+01:00</time>
      </trkpt>
      <trkpt lat="47.70261" lon="-2.91333">
        <ele>41</ele>
        <time>2021-03-16T13:14:38+01:00</time>
      </trkpt>
      <trkpt lat="47.70264" lon="-2.91333">
        <ele>41</ele>
        <time>2021-03-16T13:14:39+01:00</time>
      </trkpt>
      <trkpt lat="47.70267" lon="-2.91335">
        <ele>41</ele>
        <time>2021-03-16T13:14:40+01:00</time>
      </trkpt>
      <trkpt lat="47.7027" lon="-2.91338">
        <ele>41</ele>
        <time>2021-03-16T13:14:41+01:00</time>
      </trkpt>
      <trkpt lat="47.70272" lon="-2.91342">
        <ele>41</ele>
        <time>2021-03-16T13:14:42+01:00</time>
      </trkpt>
      <trkpt lat="47.70274" lon="-2.91345">
        <ele>42</ele>
        <time>2021-03-16T13:14:43+01:00</time>
      </trkpt>
      <trkpt lat="47.70276" lon="-2.91349">
        <ele>42</ele>
        <time>2021-03-16T13:14:44+01:00</time>
      </trkpt>
      <trkpt lat="47.70279" lon="-2.91352">
        <ele>42</ele>
        <time>2021-03-16T13:14:45+01:00</time>
      </trkpt>
      <trkpt lat="47.70282" lon="-2.91355">
        <ele>42</ele>
        <time>2021-03-16T13:14:46+01:00</time>
      </trkpt>
      <trkpt lat="47.70284" lon="-2.91359">
        <ele>42</ele>
        <time>2021-03-16T13:14:47+01:00</time>
      </trkpt>
      <trkpt lat="47.70287" lon="-2.91362">
        <ele>42</ele>
        <time>2021-03-16T13:14:48+01:00</time>
      </trkpt>
      <trkpt lat="47.7029" lon="-2.91366">
        <ele>42</ele>
        <time>2021-03-16T13:14:49+01:00</time>
      </trkpt>
      <trkpt lat="47.70292" lon="-2.9137">
        <ele>43</ele>
        <time>2021-03-16T13:14:50+01:00</time>
      </trkpt>
      <trkpt lat="47.70294" lon="-2.91374">
        <ele>43</ele>
        <time>2021-03-16T13:14:51+01:00</time>
      </trkpt>
      <trkpt lat="47.70297" lon="-2.91379">
        <ele>43</ele>
        <time>2021-03-16T13:14:53+01:00</time>
      </trkpt>
      <trkpt lat="47.70299" lon="-2.91383">
        <ele>43</ele>
        <time>2021-03-16T13:14:54+01:00</time>
      </trkpt>
      <trkpt lat="47.70301" lon="-2.91387">
        <ele>43</ele>
        <time>2021-03-16T13:14:55+01:00</time>
      </trkpt>
      <trkpt lat="47.70302" lon="-2.91391">
        <ele>43</ele>
        <time>2021-03-16T13:14:56+01:00</time>
      </trkpt>
      <trkpt lat="47.70304" lon="-2.91395">
        <ele>44</ele>
        <time>2021-03-16T13:14:57+01:00</time>
      </trkpt>
      <trkpt lat="47.70306" lon="-2.91399">
        <ele>44</ele>
        <time>2021-03-16T13:14:58+01:00</time>
      </trkpt>
      <trkpt lat="47.70307" lon="-2.91403">
        <ele>44</ele>
        <time>2021-03-16T13:14:59+01:00</time>
      </trkpt>
      <trkpt lat="47.70309" lon="-2.91407">
        <ele>44</ele>
        <time>2021-03-16T13:15:00+01:00</time>
      </trkpt>
      <trkpt lat="47.7031" lon="-2.91412">
        <ele>44</ele>
        <time>2021-03-16T13:15:01+01:00</time>
      </trkpt>
      <trkpt lat="47.70311" lon="-2.91416">
        <ele>44</ele>
        <time>2021-03-16T13:15:02+01:00</time>
      </trkpt>
      <trkpt lat="47.70311" lon="-2.9142">
        <ele>44</ele>
        <time>2021-03-16T13:15:03+01:00</time>
      </trkpt>
      <trkpt lat="47.70312" lon="-2.91425">
        <ele>44</ele>
        <time>2021-03-16T13:15:04+01:00</time>
      </trkpt>
      <trkpt lat="47.70313" lon="-2.91429">
        <ele>44</ele>
        <time>2021-03-16T13:15:05+01:00</time>
      </trkpt>
      <trkpt lat="47.70315" lon="-2.91434">
        <ele>44</ele>
        <time>2021-03-16T13:15:06+01:00</time>
      </trkpt>
      <trkpt lat="47.70316" lon="-2.91439">
        <ele>44</ele>
        <time>2021-03-16T13:15:07+01:00</time>
      </trkpt>
      <trkpt lat="47.70317" lon="-2.91444">
        <ele>44</ele>
        <time>2021-03-16T13:15:08+01:00</time>
      </trkpt>
      <trkpt lat="47.70318" lon="-2.91449">
        <ele>44</ele>
        <time>2021-03-16T13:15:09+01:00</time>
      </trkpt>
      <trkpt lat="47.7032" lon="-2.91455">
        <ele>44</ele>
        <time>2021-03-16T13:15:10+01:00</time>
      </trkpt>
      <trkpt lat="47.70321" lon="-2.9146">
        <ele>44</ele>
        <time>2021-03-16T13:15:11+01:00</time>
      </trkpt>
      <trkpt lat="47.70323" lon="-2.91465">
        <ele>44</ele>
        <time>2021-03-16T13:15:12+01:00</time>
      </trkpt>
      <trkpt lat="47.70324" lon="-2.91471">
        <ele>44</ele>
        <time>2021-03-16T13:15:13+01:00</time>
      </trkpt>
      <trkpt lat="47.70325" lon="-2.91476">
        <ele>44</ele>
        <time>2021-03-16T13:15:14+01:00</time>
      </trkpt>
      <trkpt lat="47.70327" lon="-2.9148">
        <ele>44</ele>
        <time>2021-03-16T13:15:15+01:00</time>
      </trkpt>
      <trkpt lat="47.70328" lon="-2.91485">
        <ele>44</ele>
        <time>2021-03-16T13:15:16+01:00</time>
      </trkpt>
      <trkpt lat="47.70329" lon="-2.91489">
        <ele>44</ele>
        <time>2021-03-16T13:15:17+01:00</time>
      </trkpt>
      <trkpt lat="47.7033" lon="-2.91495">
        <ele>44</ele>
        <time>2021-03-16T13:15:19+01:00</time>
      </trkpt>
      <trkpt lat="47.70331" lon="-2.91502">
        <ele>44</ele>
        <time>2021-03-16T13:15:21+01:00</time>
      </trkpt>
      <trkpt lat="47.70332" lon="-2.91509">
        <ele>44</ele>
        <time>2021-03-16T13:15:23+01:00</time>
      </trkpt>
      <trkpt lat="47.70332" lon="-2.91515">
        <ele>44</ele>
        <time>2021-03-16T13:15:25+01:00</time>
      </trkpt>
      <trkpt lat="47.70335" lon="-2.91523">
        <ele>44</ele>
        <time>2021-03-16T13:18:06+01:00</time>
      </trkpt>
      <trkpt lat="47.70339" lon="-2.91527">
        <ele>44</ele>
        <time>2021-03-16T13:18:08+01:00</time>
      </trkpt>
      <trkpt lat="47.70343" lon="-2.91528">
        <ele>44</ele>
        <time>2021-03-16T13:18:09+01:00</time>
      </trkpt>
      <trkpt lat="47.70347" lon="-2.91528">
        <ele>44</ele>
        <time>2021-03-16T13:18:11+01:00</time>
      </trkpt>
      <trkpt lat="47.70351" lon="-2.91528">
        <ele>44</ele>
        <time>2021-03-16T13:18:12+01:00</time>
      </trkpt>
      <trkpt lat="47.70354" lon="-2.91528">
        <ele>44</ele>
        <time>2021-03-16T13:18:13+01:00</time>
      </trkpt>
      <trkpt lat="47.70357" lon="-2.91528">
        <ele>44</ele>
        <time>2021-03-16T13:18:14+01:00</time>
      </trkpt>
      <trkpt lat="47.7036" lon="-2.91527">
        <ele>45</ele>
        <time>2021-03-16T13:18:15+01:00</time>
      </trkpt>
      <trkpt lat="47.70363" lon="-2.91527">
        <ele>45</ele>
        <time>2021-03-16T13:18:16+01:00</time>
      </trkpt>
      <trkpt lat="47.70366" lon="-2.91527">
        <ele>45</ele>
        <time>2021-03-16T13:18:17+01:00</time>
      </trkpt>
      <trkpt lat="47.70369" lon="-2.91527">
        <ele>45</ele>
        <time>2021-03-16T13:18:18+01:00</time>
      </trkpt>
      <trkpt lat="47.70372" lon="-2.91527">
        <ele>45</ele>
        <time>2021-03-16T13:18:19+01:00</time>
      </trkpt>
      <trkpt lat="47.70375" lon="-2.91527">
        <ele>45</ele>
        <time>2021-03-16T13:18:20+01:00</time>
      </trkpt>
      <trkpt lat="47.70378" lon="-2.91527">
        <ele>45</ele>
        <time>2021-03-16T13:18:21+01:00</time>
      </trkpt>
      <trkpt lat="47.70381" lon="-2.91526">
        <ele>45</ele>
        <time>2021-03-16T13:18:22+01:00</time>
      </trkpt>
      <trkpt lat="47.70384" lon="-2.91526">
        <ele>45</ele>
        <time>2021-03-16T13:18:23+01:00</time>
      </trkpt>
      <trkpt lat="47.70387" lon="-2.91526">
        <ele>45</ele>
        <time>2021-03-16T13:18:24+01:00</time>
      </trkpt>
      <trkpt lat="47.70391" lon="-2.91526">
        <ele>45</ele>
        <time>2021-03-16T13:18:25+01:00</time>
      </trkpt>
      <trkpt lat="47.70394" lon="-2.91525">
        <ele>45</ele>
        <time>2021-03-16T13:18:26+01:00</time>
      </trkpt>
      <trkpt lat="47.70397" lon="-2.91525">
        <ele>45</ele>
        <time>2021-03-16T13:18:27+01:00</time>
      </trkpt>
      <trkpt lat="47.704" lon="-2.91525">
        <ele>45</ele>
        <time>2021-03-16T13:18:28+01:00</time>
      </trkpt>
      <trkpt lat="47.70404" lon="-2.91525">
        <ele>45</ele>
        <time>2021-03-16T13:18:29+01:00</time>
      </trkpt>
      <trkpt lat="47.70407" lon="-2.91525">
        <ele>45</ele>
        <time>2021-03-16T13:18:30+01:00</time>
      </trkpt>
      <trkpt lat="47.7041" lon="-2.91525">
        <ele>45</ele>
        <time>2021-03-16T13:18:31+01:00</time>
      </trkpt>
      <trkpt lat="47.70413" lon="-2.91525">
        <ele>46</ele>
        <time>2021-03-16T13:18:32+01:00</time>
      </trkpt>
      <trkpt lat="47.70417" lon="-2.91525">
        <ele>46</ele>
        <time>2021-03-16T13:18:34+01:00</time>
      </trkpt>
      <trkpt lat="47.70421" lon="-2.91526">
        <ele>46</ele>
        <time>2021-03-16T13:18:36+01:00</time>
      </trkpt>
      <trkpt lat="47.70424" lon="-2.9153">
        <ele>46</ele>
        <time>2021-03-16T13:18:38+01:00</time>
      </trkpt>
      <trkpt lat="47.70426" lon="-2.91536">
        <ele>46</ele>
        <time>2021-03-16T13:18:40+01:00</time>
      </trkpt>
      <trkpt lat="47.70426" lon="-2.91541">
        <ele>46</ele>
        <time>2021-03-16T13:18:41+01:00</time>
      </trkpt>
      <trkpt lat="47.70426" lon="-2.91546">
        <ele>46</ele>
        <time>2021-03-16T13:18:42+01:00</time>
      </trkpt>
      <trkpt lat="47.70426" lon="-2.91551">
        <ele>46</ele>
        <time>2021-03-16T13:18:43+01:00</time>
      </trkpt>
      <trkpt lat="47.70426" lon="-2.91555">
        <ele>46</ele>
        <time>2021-03-16T13:18:44+01:00</time>
      </trkpt>
      <trkpt lat="47.70426" lon="-2.9156">
        <ele>46</ele>
        <time>2021-03-16T13:18:45+01:00</time>
      </trkpt>
      <trkpt lat="47.70426" lon="-2.91565">
        <ele>46</ele>
        <time>2021-03-16T13:18:46+01:00</time>
      </trkpt>
      <trkpt lat="47.70426" lon="-2.9157">
        <ele>47</ele>
        <time>2021-03-16T13:18:47+01:00</time>
      </trkpt>
      <trkpt lat="47.70425" lon="-2.91576">
        <ele>47</ele>
        <time>2021-03-16T13:18:48+01:00</time>
      </trkpt>
      <trkpt lat="47.70425" lon="-2.91581">
        <ele>47</ele>
        <time>2021-03-16T13:18:49+01:00</time>
      </trkpt>
      <trkpt lat="47.70425" lon="-2.91586">
        <ele>47</ele>
        <time>2021-03-16T13:18:50+01:00</time>
      </trkpt>
      <trkpt lat="47.70425" lon="-2.91591">
        <ele>47</ele>
        <time>2021-03-16T13:18:51+01:00</time>
      </trkpt>
      <trkpt lat="47.70424" lon="-2.91596">
        <ele>47</ele>
        <time>2021-03-16T13:18:52+01:00</time>
      </trkpt>
      <trkpt lat="47.70424" lon="-2.91601">
        <ele>47</ele>
        <time>2021-03-16T13:18:53+01:00</time>
      </trkpt>
      <trkpt lat="47.70423" lon="-2.91607">
        <ele>46</ele>
        <time>2021-03-16T13:18:54+01:00</time>
      </trkpt>
      <trkpt lat="47.70423" lon="-2.91612">
        <ele>46</ele>
        <time>2021-03-16T13:18:55+01:00</time>
      </trkpt>
      <trkpt lat="47.70422" lon="-2.91617">
        <ele>46</ele>
        <time>2021-03-16T13:18:56+01:00</time>
      </trkpt>
      <trkpt lat="47.70422" lon="-2.91623">
        <ele>46</ele>
        <time>2021-03-16T13:18:57+01:00</time>
      </trkpt>
      <trkpt lat="47.70421" lon="-2.91628">
        <ele>46</ele>
        <time>2021-03-16T13:18:58+01:00</time>
      </trkpt>
      <trkpt lat="47.70421" lon="-2.91633">
        <ele>46</ele>
        <time>2021-03-16T13:18:59+01:00</time>
      </trkpt>
      <trkpt lat="47.70421" lon="-2.91638">
        <ele>46</ele>
        <time>2021-03-16T13:19:00+01:00</time>
      </trkpt>
      <trkpt lat="47.70421" lon="-2.91642">
        <ele>46</ele>
        <time>2021-03-16T13:19:01+01:00</time>
      </trkpt>
      <trkpt lat="47.70421" lon="-2.91647">
        <ele>45</ele>
        <time>2021-03-16T13:19:02+01:00</time>
      </trkpt>
      <trkpt lat="47.70421" lon="-2.91652">
        <ele>45</ele>
        <time>2021-03-16T13:19:03+01:00</time>
      </trkpt>
      <trkpt lat="47.70421" lon="-2.91657">
        <ele>45</ele>
        <time>2021-03-16T13:19:04+01:00</time>
      </trkpt>
      <trkpt lat="47.70421" lon="-2.91661">
        <ele>45</ele>
        <time>2021-03-16T13:19:05+01:00</time>
      </trkpt>
      <trkpt lat="47.70421" lon="-2.91666">
        <ele>45</ele>
        <time>2021-03-16T13:19:06+01:00</time>
      </trkpt>
      <trkpt lat="47.70422" lon="-2.9167">
        <ele>45</ele>
        <time>2021-03-16T13:19:07+01:00</time>
      </trkpt>
      <trkpt lat="47.70424" lon="-2.91674">
        <ele>45</ele>
        <time>2021-03-16T13:19:08+01:00</time>
      </trkpt>
      <trkpt lat="47.70426" lon="-2.91676">
        <ele>45</ele>
        <time>2021-03-16T13:19:09+01:00</time>
      </trkpt>
      <trkpt lat="47.70429" lon="-2.91678">
        <ele>45</ele>
        <time>2021-03-16T13:19:10+01:00</time>
      </trkpt>
      <trkpt lat="47.70433" lon="-2.91678">
        <ele>45</ele>
        <time>2021-03-16T13:19:11+01:00</time>
      </trkpt>
      <trkpt lat="47.70436" lon="-2.91678">
        <ele>45</ele>
        <time>2021-03-16T13:19:12+01:00</time>
      </trkpt>
      <trkpt lat="47.7044" lon="-2.91677">
        <ele>45</ele>
        <time>2021-03-16T13:19:13+01:00</time>
      </trkpt>
      <trkpt lat="47.70444" lon="-2.91675">
        <ele>45</ele>
        <time>2021-03-16T13:19:14+01:00</time>
      </trkpt>
      <trkpt lat="47.70448" lon="-2.91674">
        <ele>45</ele>
        <time>2021-03-16T13:19:15+01:00</time>
      </trkpt>
      <trkpt lat="47.70451" lon="-2.91673">
        <ele>45</ele>
        <time>2021-03-16T13:19:16+01:00</time>
      </trkpt>
      <trkpt lat="47.70454" lon="-2.91672">
        <ele>45</ele>
        <time>2021-03-16T13:19:17+01:00</time>
      </trkpt>
      <trkpt lat="47.70458" lon="-2.91671">
        <ele>45</ele>
        <time>2021-03-16T13:19:18+01:00</time>
      </trkpt>
      <trkpt lat="47.70461" lon="-2.9167">
        <ele>45</ele>
        <time>2021-03-16T13:19:19+01:00</time>
      </trkpt>
      <trkpt lat="47.70464" lon="-2.91669">
        <ele>45</ele>
        <time>2021-03-16T13:19:20+01:00</time>
      </trkpt>
      <trkpt lat="47.70467" lon="-2.91667">
        <ele>45</ele>
        <time>2021-03-16T13:19:21+01:00</time>
      </trkpt>
      <trkpt lat="47.7047" lon="-2.91666">
        <ele>45</ele>
        <time>2021-03-16T13:19:22+01:00</time>
      </trkpt>
      <trkpt lat="47.70473" lon="-2.91665">
        <ele>45</ele>
        <time>2021-03-16T13:19:23+01:00</time>
      </trkpt>
      <trkpt lat="47.70476" lon="-2.91664">
        <ele>45</ele>
        <time>2021-03-16T13:19:24+01:00</time>
      </trkpt>
      <trkpt lat="47.70479" lon="-2.91663">
        <ele>45</ele>
        <time>2021-03-16T13:19:25+01:00</time>
      </trkpt>
      <trkpt lat="47.70482" lon="-2.91662">
        <ele>45</ele>
        <time>2021-03-16T13:19:26+01:00</time>
      </trkpt>
      <trkpt lat="47.70485" lon="-2.91661">
        <ele>45</ele>
        <time>2021-03-16T13:19:27+01:00</time>
      </trkpt>
      <trkpt lat="47.70488" lon="-2.9166">
        <ele>45</ele>
        <time>2021-03-16T13:19:28+01:00</time>
      </trkpt>
      <trkpt lat="47.70491" lon="-2.91659">
        <ele>45</ele>
        <time>2021-03-16T13:19:29+01:00</time>
      </trkpt>
      <trkpt lat="47.70494" lon="-2.91658">
        <ele>45</ele>
        <time>2021-03-16T13:19:30+01:00</time>
      </trkpt>
      <trkpt lat="47.70497" lon="-2.91657">
        <ele>45</ele>
        <time>2021-03-16T13:19:31+01:00</time>
      </trkpt>
      <trkpt lat="47.70501" lon="-2.91656">
        <ele>45</ele>
        <time>2021-03-16T13:19:32+01:00</time>
      </trkpt>
      <trkpt lat="47.70504" lon="-2.91655">
        <ele>45</ele>
        <time>2021-03-16T13:19:33+01:00</time>
      </trkpt>
      <trkpt lat="47.70507" lon="-2.91654">
        <ele>45</ele>
        <time>2021-03-16T13:19:34+01:00</time>
      </trkpt>
      <trkpt lat="47.7051" lon="-2.91653">
        <ele>45</ele>
        <time>2021-03-16T13:19:35+01:00</time>
      </trkpt>
      <trkpt lat="47.70513" lon="-2.91652">
        <ele>46</ele>
        <time>2021-03-16T13:19:36+01:00</time>
      </trkpt>
      <trkpt lat="47.70515" lon="-2.91651">
        <ele>46</ele>
        <time>2021-03-16T13:19:37+01:00</time>
      </trkpt>
      <trkpt lat="47.70518" lon="-2.9165">
        <ele>46</ele>
        <time>2021-03-16T13:19:38+01:00</time>
      </trkpt>
      <trkpt lat="47.70521" lon="-2.91649">
        <ele>46</ele>
        <time>2021-03-16T13:19:39+01:00</time>
      </trkpt>
      <trkpt lat="47.70524" lon="-2.91648">
        <ele>46</ele>
        <time>2021-03-16T13:19:40+01:00</time>
      </trkpt>
      <trkpt lat="47.70527" lon="-2.91647">
        <ele>46</ele>
        <time>2021-03-16T13:19:41+01:00</time>
      </trkpt>
      <trkpt lat="47.7053" lon="-2.91646">
        <ele>46</ele>
        <time>2021-03-16T13:19:42+01:00</time>
      </trkpt>
      <trkpt lat="47.70533" lon="-2.91645">
        <ele>46</ele>
        <time>2021-03-16T13:19:43+01:00</time>
      </trkpt>
      <trkpt lat="47.70536" lon="-2.91644">
        <ele>46</ele>
        <time>2021-03-16T13:19:44+01:00</time>
      </trkpt>
      <trkpt lat="47.70539" lon="-2.91643">
        <ele>46</ele>
        <time>2021-03-16T13:19:45+01:00</time>
      </trkpt>
      <trkpt lat="47.70542" lon="-2.91641">
        <ele>46</ele>
        <time>2021-03-16T13:19:46+01:00</time>
      </trkpt>
      <trkpt lat="47.70545" lon="-2.9164">
        <ele>47</ele>
        <time>2021-03-16T13:19:47+01:00</time>
      </trkpt>
      <trkpt lat="47.70548" lon="-2.9164">
        <ele>47</ele>
        <time>2021-03-16T13:19:48+01:00</time>
      </trkpt>
      <trkpt lat="47.70551" lon="-2.91639">
        <ele>47</ele>
        <time>2021-03-16T13:19:49+01:00</time>
      </trkpt>
      <trkpt lat="47.70554" lon="-2.91638">
        <ele>47</ele>
        <time>2021-03-16T13:19:50+01:00</time>
      </trkpt>
      <trkpt lat="47.70557" lon="-2.91637">
        <ele>47</ele>
        <time>2021-03-16T13:19:51+01:00</time>
      </trkpt>
      <trkpt lat="47.7056" lon="-2.91636">
        <ele>47</ele>
        <time>2021-03-16T13:19:52+01:00</time>
      </trkpt>
      <trkpt lat="47.70563" lon="-2.91635">
        <ele>47</ele>
        <time>2021-03-16T13:19:53+01:00</time>
      </trkpt>
      <trkpt lat="47.70566" lon="-2.91634">
        <ele>47</ele>
        <time>2021-03-16T13:19:54+01:00</time>
      </trkpt>
      <trkpt lat="47.70569" lon="-2.91632">
        <ele>47</ele>
        <time>2021-03-16T13:19:55+01:00</time>
      </trkpt>
      <trkpt lat="47.70572" lon="-2.91631">
        <ele>48</ele>
        <time>2021-03-16T13:19:56+01:00</time>
      </trkpt>
      <trkpt lat="47.70575" lon="-2.9163">
        <ele>48</ele>
        <time>2021-03-16T13:19:57+01:00</time>
      </trkpt>
      <trkpt lat="47.70578" lon="-2.9163">
        <ele>48</ele>
        <time>2021-03-16T13:19:58+01:00</time>
      </trkpt>
      <trkpt lat="47.70581" lon="-2.9163">
        <ele>48</ele>
        <time>2021-03-16T13:19:59+01:00</time>
      </trkpt>
      <trkpt lat="47.70584" lon="-2.91632">
        <ele>48</ele>
        <time>2021-03-16T13:20:00+01:00</time>
      </trkpt>
      <trkpt lat="47.70586" lon="-2.91635">
        <ele>48</ele>
        <time>2021-03-16T13:20:01+01:00</time>
      </trkpt>
      <trkpt lat="47.70588" lon="-2.91638">
        <ele>48</ele>
        <time>2021-03-16T13:20:02+01:00</time>
      </trkpt>
      <trkpt lat="47.70589" lon="-2.91642">
        <ele>48</ele>
        <time>2021-03-16T13:20:03+01:00</time>
      </trkpt>
      <trkpt lat="47.7059" lon="-2.91646">
        <ele>47</ele>
        <time>2021-03-16T13:20:04+01:00</time>
      </trkpt>
      <trkpt lat="47.70591" lon="-2.91651">
        <ele>47</ele>
        <time>2021-03-16T13:20:05+01:00</time>
      </trkpt>
      <trkpt lat="47.70592" lon="-2.91656">
        <ele>47</ele>
        <time>2021-03-16T13:20:06+01:00</time>
      </trkpt>
      <trkpt lat="47.70593" lon="-2.91661">
        <ele>47</ele>
        <time>2021-03-16T13:20:07+01:00</time>
      </trkpt>
      <trkpt lat="47.70595" lon="-2.91666">
        <ele>47</ele>
        <time>2021-03-16T13:20:08+01:00</time>
      </trkpt>
      <trkpt lat="47.70596" lon="-2.91671">
        <ele>47</ele>
        <time>2021-03-16T13:20:09+01:00</time>
      </trkpt>
      <trkpt lat="47.70597" lon="-2.91676">
        <ele>47</ele>
        <time>2021-03-16T13:20:10+01:00</time>
      </trkpt>
      <trkpt lat="47.70599" lon="-2.91681">
        <ele>47</ele>
        <time>2021-03-16T13:20:11+01:00</time>
      </trkpt>
      <trkpt lat="47.706" lon="-2.91686">
        <ele>47</ele>
        <time>2021-03-16T13:20:12+01:00</time>
      </trkpt>
      <trkpt lat="47.70601" lon="-2.9169">
        <ele>47</ele>
        <time>2021-03-16T13:20:13+01:00</time>
      </trkpt>
      <trkpt lat="47.70603" lon="-2.91695">
        <ele>47</ele>
        <time>2021-03-16T13:20:14+01:00</time>
      </trkpt>
      <trkpt lat="47.70604" lon="-2.917">
        <ele>47</ele>
        <time>2021-03-16T13:20:15+01:00</time>
      </trkpt>
      <trkpt lat="47.70606" lon="-2.91704">
        <ele>47</ele>
        <time>2021-03-16T13:20:16+01:00</time>
      </trkpt>
      <trkpt lat="47.70608" lon="-2.91709">
        <ele>47</ele>
        <time>2021-03-16T13:20:17+01:00</time>
      </trkpt>
      <trkpt lat="47.70609" lon="-2.91713">
        <ele>47</ele>
        <time>2021-03-16T13:20:18+01:00</time>
      </trkpt>
      <trkpt lat="47.70611" lon="-2.91717">
        <ele>47</ele>
        <time>2021-03-16T13:20:19+01:00</time>
      </trkpt>
      <trkpt lat="47.70612" lon="-2.91721">
        <ele>47</ele>
        <time>2021-03-16T13:20:20+01:00</time>
      </trkpt>
      <trkpt lat="47.70614" lon="-2.91726">
        <ele>47</ele>
        <time>2021-03-16T13:20:21+01:00</time>
      </trkpt>
      <trkpt lat="47.70615" lon="-2.9173">
        <ele>47</ele>
        <time>2021-03-16T13:20:22+01:00</time>
      </trkpt>
      <trkpt lat="47.70617" lon="-2.91735">
        <ele>47</ele>
        <time>2021-03-16T13:20:23+01:00</time>
      </trkpt>
      <trkpt lat="47.70618" lon="-2.91739">
        <ele>47</ele>
        <time>2021-03-16T13:20:24+01:00</time>
      </trkpt>
      <trkpt lat="47.70619" lon="-2.91743">
        <ele>47</ele>
        <time>2021-03-16T13:20:25+01:00</time>
      </trkpt>
      <trkpt lat="47.70621" lon="-2.91748">
        <ele>47</ele>
        <time>2021-03-16T13:20:26+01:00</time>
      </trkpt>
      <trkpt lat="47.70622" lon="-2.91752">
        <ele>47</ele>
        <time>2021-03-16T13:20:27+01:00</time>
      </trkpt>
      <trkpt lat="47.70624" lon="-2.91757">
        <ele>47</ele>
        <time>2021-03-16T13:20:28+01:00</time>
      </trkpt>
      <trkpt lat="47.70625" lon="-2.91761">
        <ele>47</ele>
        <time>2021-03-16T13:20:29+01:00</time>
      </trkpt>
      <trkpt lat="47.70626" lon="-2.91766">
        <ele>47</ele>
        <time>2021-03-16T13:20:30+01:00</time>
      </trkpt>
      <trkpt lat="47.70627" lon="-2.91771">
        <ele>47</ele>
        <time>2021-03-16T13:20:31+01:00</time>
      </trkpt>
      <trkpt lat="47.70628" lon="-2.91776">
        <ele>47</ele>
        <time>2021-03-16T13:20:32+01:00</time>
      </trkpt>
      <trkpt lat="47.70629" lon="-2.91781">
        <ele>47</ele>
        <time>2021-03-16T13:20:33+01:00</time>
      </trkpt>
      <trkpt lat="47.70631" lon="-2.91786">
        <ele>47</ele>
        <time>2021-03-16T13:20:34+01:00</time>
      </trkpt>
      <trkpt lat="47.70632" lon="-2.91791">
        <ele>47</ele>
        <time>2021-03-16T13:20:35+01:00</time>
      </trkpt>
      <trkpt lat="47.70633" lon="-2.91796">
        <ele>47</ele>
        <time>2021-03-16T13:20:36+01:00</time>
      </trkpt>
      <trkpt lat="47.70634" lon="-2.91801">
        <ele>47</ele>
        <time>2021-03-16T13:20:37+01:00</time>
      </trkpt>
      <trkpt lat="47.70635" lon="-2.91806">
        <ele>47</ele>
        <time>2021-03-16T13:20:38+01:00</time>
      </trkpt>
      <trkpt lat="47.70635" lon="-2.91811">
        <ele>47</ele>
        <time>2021-03-16T13:20:39+01:00</time>
      </trkpt>
      <trkpt lat="47.70636" lon="-2.91816">
        <ele>47</ele>
        <time>2021-03-16T13:20:40+01:00</time>
      </trkpt>
      <trkpt lat="47.70636" lon="-2.91821">
        <ele>47</ele>
        <time>2021-03-16T13:20:41+01:00</time>
      </trkpt>
      <trkpt lat="47.70637" lon="-2.91826">
        <ele>48</ele>
        <time>2021-03-16T13:20:42+01:00</time>
      </trkpt>
      <trkpt lat="47.70638" lon="-2.91831">
        <ele>48</ele>
        <time>2021-03-16T13:20:43+01:00</time>
      </trkpt>
      <trkpt lat="47.70639" lon="-2.91836">
        <ele>48</ele>
        <time>2021-03-16T13:20:44+01:00</time>
      </trkpt>
      <trkpt lat="47.70639" lon="-2.91841">
        <ele>48</ele>
        <time>2021-03-16T13:20:45+01:00</time>
      </trkpt>
      <trkpt lat="47.7064" lon="-2.91846">
        <ele>48</ele>
        <time>2021-03-16T13:20:46+01:00</time>
      </trkpt>
      <trkpt lat="47.70641" lon="-2.91851">
        <ele>48</ele>
        <time>2021-03-16T13:20:47+01:00</time>
      </trkpt>
      <trkpt lat="47.70641" lon="-2.91855">
        <ele>48</ele>
        <time>2021-03-16T13:20:48+01:00</time>
      </trkpt>
      <trkpt lat="47.70642" lon="-2.9186">
        <ele>48</ele>
        <time>2021-03-16T13:20:49+01:00</time>
      </trkpt>
      <trkpt lat="47.70643" lon="-2.91865">
        <ele>48</ele>
        <time>2021-03-16T13:20:50+01:00</time>
      </trkpt>
      <trkpt lat="47.70644" lon="-2.9187">
        <ele>48</ele>
        <time>2021-03-16T13:20:51+01:00</time>
      </trkpt>
      <trkpt lat="47.70645" lon="-2.91876">
        <ele>48</ele>
        <time>2021-03-16T13:20:52+01:00</time>
      </trkpt>
      <trkpt lat="47.70646" lon="-2.91881">
        <ele>48</ele>
        <time>2021-03-16T13:20:53+01:00</time>
      </trkpt>
      <trkpt lat="47.70647" lon="-2.91886">
        <ele>49</ele>
        <time>2021-03-16T13:20:54+01:00</time>
      </trkpt>
      <trkpt lat="47.70648" lon="-2.91891">
        <ele>49</ele>
        <time>2021-03-16T13:20:55+01:00</time>
      </trkpt>
      <trkpt lat="47.70649" lon="-2.91896">
        <ele>49</ele>
        <time>2021-03-16T13:20:56+01:00</time>
      </trkpt>
      <trkpt lat="47.70649" lon="-2.91901">
        <ele>49</ele>
        <time>2021-03-16T13:20:57+01:00</time>
      </trkpt>
      <trkpt lat="47.7065" lon="-2.91905">
        <ele>49</ele>
        <time>2021-03-16T13:20:58+01:00</time>
      </trkpt>
      <trkpt lat="47.70651" lon="-2.9191">
        <ele>49</ele>
        <time>2021-03-16T13:20:59+01:00</time>
      </trkpt>
      <trkpt lat="47.70652" lon="-2.91915">
        <ele>49</ele>
        <time>2021-03-16T13:21:00+01:00</time>
      </trkpt>
      <trkpt lat="47.70653" lon="-2.9192">
        <ele>49</ele>
        <time>2021-03-16T13:21:01+01:00</time>
      </trkpt>
      <trkpt lat="47.70655" lon="-2.91924">
        <ele>49</ele>
        <time>2021-03-16T13:21:02+01:00</time>
      </trkpt>
      <trkpt lat="47.70656" lon="-2.91929">
        <ele>50</ele>
        <time>2021-03-16T13:21:03+01:00</time>
      </trkpt>
      <trkpt lat="47.70657" lon="-2.91934">
        <ele>50</ele>
        <time>2021-03-16T13:21:04+01:00</time>
      </trkpt>
      <trkpt lat="47.70659" lon="-2.91939">
        <ele>50</ele>
        <time>2021-03-16T13:21:05+01:00</time>
      </trkpt>
      <trkpt lat="47.7066" lon="-2.91944">
        <ele>50</ele>
        <time>2021-03-16T13:21:06+01:00</time>
      </trkpt>
      <trkpt lat="47.70661" lon="-2.91948">
        <ele>50</ele>
        <time>2021-03-16T13:21:07+01:00</time>
      </trkpt>
      <trkpt lat="47.70662" lon="-2.91952">
        <ele>50</ele>
        <time>2021-03-16T13:21:08+01:00</time>
      </trkpt>
      <trkpt lat="47.70663" lon="-2.91957">
        <ele>50</ele>
        <time>2021-03-16T13:21:09+01:00</time>
      </trkpt>
      <trkpt lat="47.70664" lon="-2.91961">
        <ele>50</ele>
        <time>2021-03-16T13:21:10+01:00</time>
      </trkpt>
      <trkpt lat="47.70665" lon="-2.91966">
        <ele>50</ele>
        <time>2021-03-16T13:21:11+01:00</time>
      </trkpt>
      <trkpt lat="47.70667" lon="-2.9197">
        <ele>50</ele>
        <time>2021-03-16T13:21:12+01:00</time>
      </trkpt>
      <trkpt lat="47.70668" lon="-2.91974">
        <ele>50</ele>
        <time>2021-03-16T13:21:13+01:00</time>
      </trkpt>
      <trkpt lat="47.70669" lon="-2.91979">
        <ele>50</ele>
        <time>2021-03-16T13:21:14+01:00</time>
      </trkpt>
      <trkpt lat="47.70671" lon="-2.91983">
        <ele>50</ele>
        <time>2021-03-16T13:21:15+01:00</time>
      </trkpt>
      <trkpt lat="47.70672" lon="-2.91988">
        <ele>50</ele>
        <time>2021-03-16T13:21:16+01:00</time>
      </trkpt>
      <trkpt lat="47.70673" lon="-2.91993">
        <ele>50</ele>
        <time>2021-03-16T13:21:17+01:00</time>
      </trkpt>
      <trkpt lat="47.70674" lon="-2.91997">
        <ele>50</ele>
        <time>2021-03-16T13:21:18+01:00</time>
      </trkpt>
      <trkpt lat="47.70675" lon="-2.92002">
        <ele>50</ele>
        <time>2021-03-16T13:21:19+01:00</time>
      </trkpt>
      <trkpt lat="47.70676" lon="-2.92006">
        <ele>50</ele>
        <time>2021-03-16T13:21:20+01:00</time>
      </trkpt>
      <trkpt lat="47.70678" lon="-2.9201">
        <ele>50</ele>
        <time>2021-03-16T13:21:21+01:00</time>
      </trkpt>
      <trkpt lat="47.70679" lon="-2.92015">
        <ele>50</ele>
        <time>2021-03-16T13:21:22+01:00</time>
      </trkpt>
      <trkpt lat="47.7068" lon="-2.92019">
        <ele>50</ele>
        <time>2021-03-16T13:21:23+01:00</time>
      </trkpt>
      <trkpt lat="47.70682" lon="-2.92024">
        <ele>50</ele>
        <time>2021-03-16T13:21:24+01:00</time>
      </trkpt>
      <trkpt lat="47.70683" lon="-2.92029">
        <ele>50</ele>
        <time>2021-03-16T13:21:25+01:00</time>
      </trkpt>
      <trkpt lat="47.70684" lon="-2.92034">
        <ele>50</ele>
        <time>2021-03-16T13:21:26+01:00</time>
      </trkpt>
      <trkpt lat="47.70686" lon="-2.92039">
        <ele>50</ele>
        <time>2021-03-16T13:21:27+01:00</time>
      </trkpt>
      <trkpt lat="47.70687" lon="-2.92044">
        <ele>50</ele>
        <time>2021-03-16T13:21:28+01:00</time>
      </trkpt>
      <trkpt lat="47.70689" lon="-2.92048">
        <ele>50</ele>
        <time>2021-03-16T13:21:29+01:00</time>
      </trkpt>
      <trkpt lat="47.7069" lon="-2.92053">
        <ele>50</ele>
        <time>2021-03-16T13:21:30+01:00</time>
      </trkpt>
      <trkpt lat="47.70691" lon="-2.92058">
        <ele>50</ele>
        <time>2021-03-16T13:21:31+01:00</time>
      </trkpt>
      <trkpt lat="47.70692" lon="-2.92063">
        <ele>49</ele>
        <time>2021-03-16T13:21:32+01:00</time>
      </trkpt>
      <trkpt lat="47.70694" lon="-2.92068">
        <ele>49</ele>
        <time>2021-03-16T13:21:33+01:00</time>
      </trkpt>
      <trkpt lat="47.70695" lon="-2.92073">
        <ele>49</ele>
        <time>2021-03-16T13:21:34+01:00</time>
      </trkpt>
      <trkpt lat="47.70696" lon="-2.92079">
        <ele>49</ele>
        <time>2021-03-16T13:21:35+01:00</time>
      </trkpt>
      <trkpt lat="47.70697" lon="-2.92085">
        <ele>49</ele>
        <time>2021-03-16T13:21:36+01:00</time>
      </trkpt>
      <trkpt lat="47.70699" lon="-2.92091">
        <ele>49</ele>
        <time>2021-03-16T13:21:37+01:00</time>
      </trkpt>
      <trkpt lat="47.707" lon="-2.92096">
        <ele>49</ele>
        <time>2021-03-16T13:21:38+01:00</time>
      </trkpt>
      <trkpt lat="47.70701" lon="-2.92102">
        <ele>49</ele>
        <time>2021-03-16T13:21:39+01:00</time>
      </trkpt>
      <trkpt lat="47.70702" lon="-2.92108">
        <ele>49</ele>
        <time>2021-03-16T13:21:40+01:00</time>
      </trkpt>
      <trkpt lat="47.70702" lon="-2.92113">
        <ele>49</ele>
        <time>2021-03-16T13:21:41+01:00</time>
      </trkpt>
      <trkpt lat="47.70703" lon="-2.92118">
        <ele>49</ele>
        <time>2021-03-16T13:21:42+01:00</time>
      </trkpt>
      <trkpt lat="47.70704" lon="-2.92123">
        <ele>49</ele>
        <time>2021-03-16T13:21:43+01:00</time>
      </trkpt>
      <trkpt lat="47.70705" lon="-2.92128">
        <ele>49</ele>
        <time>2021-03-16T13:21:44+01:00</time>
      </trkpt>
      <trkpt lat="47.70706" lon="-2.92134">
        <ele>49</ele>
        <time>2021-03-16T13:21:45+01:00</time>
      </trkpt>
      <trkpt lat="47.70707" lon="-2.92139">
        <ele>49</ele>
        <time>2021-03-16T13:21:46+01:00</time>
      </trkpt>
      <trkpt lat="47.70708" lon="-2.92145">
        <ele>49</ele>
        <time>2021-03-16T13:21:47+01:00</time>
      </trkpt>
      <trkpt lat="47.70709" lon="-2.92151">
        <ele>49</ele>
        <time>2021-03-16T13:21:48+01:00</time>
      </trkpt>
      <trkpt lat="47.7071" lon="-2.92157">
        <ele>49</ele>
        <time>2021-03-16T13:21:49+01:00</time>
      </trkpt>
      <trkpt lat="47.7071" lon="-2.92163">
        <ele>49</ele>
        <time>2021-03-16T13:21:50+01:00</time>
      </trkpt>
      <trkpt lat="47.70711" lon="-2.92168">
        <ele>49</ele>
        <time>2021-03-16T13:21:51+01:00</time>
      </trkpt>
      <trkpt lat="47.70712" lon="-2.92174">
        <ele>50</ele>
        <time>2021-03-16T13:21:52+01:00</time>
      </trkpt>
      <trkpt lat="47.70712" lon="-2.92179">
        <ele>50</ele>
        <time>2021-03-16T13:21:53+01:00</time>
      </trkpt>
      <trkpt lat="47.70713" lon="-2.92184">
        <ele>50</ele>
        <time>2021-03-16T13:21:54+01:00</time>
      </trkpt>
      <trkpt lat="47.70713" lon="-2.92189">
        <ele>50</ele>
        <time>2021-03-16T13:21:55+01:00</time>
      </trkpt>
      <trkpt lat="47.70714" lon="-2.92194">
        <ele>50</ele>
        <time>2021-03-16T13:21:56+01:00</time>
      </trkpt>
      <trkpt lat="47.70715" lon="-2.92199">
        <ele>50</ele>
        <time>2021-03-16T13:21:57+01:00</time>
      </trkpt>
      <trkpt lat="47.70715" lon="-2.92203">
        <ele>50</ele>
        <time>2021-03-16T13:21:58+01:00</time>
      </trkpt>
      <trkpt lat="47.70716" lon="-2.92207">
        <ele>50</ele>
        <time>2021-03-16T13:21:59+01:00</time>
      </trkpt>
      <trkpt lat="47.70716" lon="-2.92212">
        <ele>50</ele>
        <time>2021-03-16T13:22:00+01:00</time>
      </trkpt>
      <trkpt lat="47.70717" lon="-2.92218">
        <ele>50</ele>
        <time>2021-03-16T13:22:02+01:00</time>
      </trkpt>
      <trkpt lat="47.70717" lon="-2.92223">
        <ele>50</ele>
        <time>2021-03-16T13:22:03+01:00</time>
      </trkpt>
      <trkpt lat="47.70717" lon="-2.92228">
        <ele>50</ele>
        <time>2021-03-16T13:22:04+01:00</time>
      </trkpt>
      <trkpt lat="47.70717" lon="-2.92233">
        <ele>50</ele>
        <time>2021-03-16T13:22:05+01:00</time>
      </trkpt>
      <trkpt lat="47.70717" lon="-2.92238">
        <ele>50</ele>
        <time>2021-03-16T13:22:06+01:00</time>
      </trkpt>
      <trkpt lat="47.70716" lon="-2.92244">
        <ele>50</ele>
        <time>2021-03-16T13:22:08+01:00</time>
      </trkpt>
      <trkpt lat="47.70714" lon="-2.92249">
        <ele>50</ele>
        <time>2021-03-16T13:22:10+01:00</time>
      </trkpt>
      <trkpt lat="47.70711" lon="-2.92252">
        <ele>50</ele>
        <time>2021-03-16T13:22:11+01:00</time>
      </trkpt>
      <trkpt lat="47.70708" lon="-2.92255">
        <ele>50</ele>
        <time>2021-03-16T13:22:12+01:00</time>
      </trkpt>
      <trkpt lat="47.70705" lon="-2.92257">
        <ele>50</ele>
        <time>2021-03-16T13:22:13+01:00</time>
      </trkpt>
      <trkpt lat="47.70702" lon="-2.9226">
        <ele>50</ele>
        <time>2021-03-16T13:22:14+01:00</time>
      </trkpt>
      <trkpt lat="47.70699" lon="-2.92262">
        <ele>50</ele>
        <time>2021-03-16T13:22:15+01:00</time>
      </trkpt>
      <trkpt lat="47.70696" lon="-2.92264">
        <ele>50</ele>
        <time>2021-03-16T13:22:16+01:00</time>
      </trkpt>
      <trkpt lat="47.70693" lon="-2.92267">
        <ele>50</ele>
        <time>2021-03-16T13:22:17+01:00</time>
      </trkpt>
      <trkpt lat="47.70689" lon="-2.92269">
        <ele>50</ele>
        <time>2021-03-16T13:22:18+01:00</time>
      </trkpt>
      <trkpt lat="47.70686" lon="-2.92271">
        <ele>50</ele>
        <time>2021-03-16T13:22:19+01:00</time>
      </trkpt>
      <trkpt lat="47.70683" lon="-2.92273">
        <ele>50</ele>
        <time>2021-03-16T13:22:20+01:00</time>
      </trkpt>
      <trkpt lat="47.7068" lon="-2.92276">
        <ele>50</ele>
        <time>2021-03-16T13:22:21+01:00</time>
      </trkpt>
      <trkpt lat="47.70676" lon="-2.92278">
        <ele>50</ele>
        <time>2021-03-16T13:22:22+01:00</time>
      </trkpt>
      <trkpt lat="47.70673" lon="-2.9228">
        <ele>50</ele>
        <time>2021-03-16T13:22:23+01:00</time>
      </trkpt>
      <trkpt lat="47.7067" lon="-2.92281">
        <ele>50</ele>
        <time>2021-03-16T13:22:24+01:00</time>
      </trkpt>
      <trkpt lat="47.70667" lon="-2.92283">
        <ele>50</ele>
        <time>2021-03-16T13:22:25+01:00</time>
      </trkpt>
      <trkpt lat="47.70663" lon="-2.92285">
        <ele>50</ele>
        <time>2021-03-16T13:22:26+01:00</time>
      </trkpt>
      <trkpt lat="47.7066" lon="-2.92286">
        <ele>50</ele>
        <time>2021-03-16T13:22:27+01:00</time>
      </trkpt>
      <trkpt lat="47.70657" lon="-2.92288">
        <ele>50</ele>
        <time>2021-03-16T13:22:28+01:00</time>
      </trkpt>
      <trkpt lat="47.70654" lon="-2.9229">
        <ele>50</ele>
        <time>2021-03-16T13:22:29+01:00</time>
      </trkpt>
      <trkpt lat="47.70651" lon="-2.92291">
        <ele>50</ele>
        <time>2021-03-16T13:22:30+01:00</time>
      </trkpt>
      <trkpt lat="47.70647" lon="-2.92293">
        <ele>50</ele>
        <time>2021-03-16T13:22:31+01:00</time>
      </trkpt>
      <trkpt lat="47.70644" lon="-2.92295">
        <ele>50</ele>
        <time>2021-03-16T13:22:32+01:00</time>
      </trkpt>
      <trkpt lat="47.70641" lon="-2.92297">
        <ele>50</ele>
        <time>2021-03-16T13:22:33+01:00</time>
      </trkpt>
      <trkpt lat="47.70637" lon="-2.92299">
        <ele>50</ele>
        <time>2021-03-16T13:22:34+01:00</time>
      </trkpt>
      <trkpt lat="47.70634" lon="-2.92301">
        <ele>50</ele>
        <time>2021-03-16T13:22:35+01:00</time>
      </trkpt>
      <trkpt lat="47.70631" lon="-2.92304">
        <ele>50</ele>
        <time>2021-03-16T13:22:36+01:00</time>
      </trkpt>
      <trkpt lat="47.70628" lon="-2.92307">
        <ele>50</ele>
        <time>2021-03-16T13:22:37+01:00</time>
      </trkpt>
      <trkpt lat="47.70626" lon="-2.92311">
        <ele>50</ele>
        <time>2021-03-16T13:22:38+01:00</time>
      </trkpt>
      <trkpt lat="47.70626" lon="-2.92316">
        <ele>50</ele>
        <time>2021-03-16T13:22:39+01:00</time>
      </trkpt>
      <trkpt lat="47.70626" lon="-2.92322">
        <ele>50</ele>
        <time>2021-03-16T13:22:40+01:00</time>
      </trkpt>
      <trkpt lat="47.70627" lon="-2.92328">
        <ele>50</ele>
        <time>2021-03-16T13:22:41+01:00</time>
      </trkpt>
      <trkpt lat="47.70628" lon="-2.92334">
        <ele>50</ele>
        <time>2021-03-16T13:22:42+01:00</time>
      </trkpt>
      <trkpt lat="47.70629" lon="-2.9234">
        <ele>50</ele>
        <time>2021-03-16T13:22:43+01:00</time>
      </trkpt>
      <trkpt lat="47.70629" lon="-2.92347">
        <ele>50</ele>
        <time>2021-03-16T13:22:44+01:00</time>
      </trkpt>
      <trkpt lat="47.70629" lon="-2.92353">
        <ele>50</ele>
        <time>2021-03-16T13:22:45+01:00</time>
      </trkpt>
      <trkpt lat="47.7063" lon="-2.92358">
        <ele>50</ele>
        <time>2021-03-16T13:22:46+01:00</time>
      </trkpt>
      <trkpt lat="47.70631" lon="-2.92364">
        <ele>50</ele>
        <time>2021-03-16T13:22:47+01:00</time>
      </trkpt>
      <trkpt lat="47.70632" lon="-2.9237">
        <ele>50</ele>
        <time>2021-03-16T13:22:48+01:00</time>
      </trkpt>
      <trkpt lat="47.70633" lon="-2.92375">
        <ele>50</ele>
        <time>2021-03-16T13:22:49+01:00</time>
      </trkpt>
      <trkpt lat="47.70633" lon="-2.92381">
        <ele>50</ele>
        <time>2021-03-16T13:22:50+01:00</time>
      </trkpt>
      <trkpt lat="47.70634" lon="-2.92386">
        <ele>50</ele>
        <time>2021-03-16T13:22:51+01:00</time>
      </trkpt>
      <trkpt lat="47.70635" lon="-2.92392">
        <ele>50</ele>
        <time>2021-03-16T13:22:52+01:00</time>
      </trkpt>
      <trkpt lat="47.70636" lon="-2.92397">
        <ele>50</ele>
        <time>2021-03-16T13:22:53+01:00</time>
      </trkpt>
      <trkpt lat="47.70637" lon="-2.92403">
        <ele>50</ele>
        <time>2021-03-16T13:22:54+01:00</time>
      </trkpt>
      <trkpt lat="47.70638" lon="-2.92409">
        <ele>50</ele>
        <time>2021-03-16T13:22:55+01:00</time>
      </trkpt>
      <trkpt lat="47.70639" lon="-2.92415">
        <ele>50</ele>
        <time>2021-03-16T13:22:56+01:00</time>
      </trkpt>
      <trkpt lat="47.7064" lon="-2.92421">
        <ele>50</ele>
        <time>2021-03-16T13:22:57+01:00</time>
      </trkpt>
      <trkpt lat="47.7064" lon="-2.92427">
        <ele>50</ele>
        <time>2021-03-16T13:22:58+01:00</time>
      </trkpt>
      <trkpt lat="47.70641" lon="-2.92432">
        <ele>50</ele>
        <time>2021-03-16T13:22:59+01:00</time>
      </trkpt>
      <trkpt lat="47.70641" lon="-2.92438">
        <ele>50</ele>
        <time>2021-03-16T13:23:00+01:00</time>
      </trkpt>
      <trkpt lat="47.70642" lon="-2.92444">
        <ele>50</ele>
        <time>2021-03-16T13:23:01+01:00</time>
      </trkpt>
      <trkpt lat="47.70643" lon="-2.9245">
        <ele>50</ele>
        <time>2021-03-16T13:23:02+01:00</time>
      </trkpt>
      <trkpt lat="47.70643" lon="-2.92455">
        <ele>50</ele>
        <time>2021-03-16T13:23:03+01:00</time>
      </trkpt>
      <trkpt lat="47.70644" lon="-2.92461">
        <ele>50</ele>
        <time>2021-03-16T13:23:04+01:00</time>
      </trkpt>
      <trkpt lat="47.70645" lon="-2.92466">
        <ele>50</ele>
        <time>2021-03-16T13:23:05+01:00</time>
      </trkpt>
      <trkpt lat="47.70645" lon="-2.92471">
        <ele>49</ele>
        <time>2021-03-16T13:23:06+01:00</time>
      </trkpt>
      <trkpt lat="47.70646" lon="-2.92477">
        <ele>49</ele>
        <time>2021-03-16T13:23:07+01:00</time>
      </trkpt>
      <trkpt lat="47.70646" lon="-2.92482">
        <ele>49</ele>
        <time>2021-03-16T13:23:08+01:00</time>
      </trkpt>
      <trkpt lat="47.70646" lon="-2.92487">
        <ele>49</ele>
        <time>2021-03-16T13:23:09+01:00</time>
      </trkpt>
      <trkpt lat="47.70647" lon="-2.92492">
        <ele>49</ele>
        <time>2021-03-16T13:23:10+01:00</time>
      </trkpt>
      <trkpt lat="47.70647" lon="-2.92497">
        <ele>49</ele>
        <time>2021-03-16T13:23:11+01:00</time>
      </trkpt>
      <trkpt lat="47.70647" lon="-2.92501">
        <ele>49</ele>
        <time>2021-03-16T13:23:12+01:00</time>
      </trkpt>
      <trkpt lat="47.70648" lon="-2.92505">
        <ele>49</ele>
        <time>2021-03-16T13:23:13+01:00</time>
      </trkpt>
      <trkpt lat="47.70648" lon="-2.9251">
        <ele>49</ele>
        <time>2021-03-16T13:23:14+01:00</time>
      </trkpt>
      <trkpt lat="47.70649" lon="-2.92514">
        <ele>49</ele>
        <time>2021-03-16T13:23:15+01:00</time>
      </trkpt>
      <trkpt lat="47.70649" lon="-2.9252">
        <ele>49</ele>
        <time>2021-03-16T13:23:17+01:00</time>
      </trkpt>
      <trkpt lat="47.70651" lon="-2.92524">
        <ele>49</ele>
        <time>2021-03-16T13:23:20+01:00</time>
      </trkpt>
      <trkpt lat="47.7065" lon="-2.92529">
        <ele>49</ele>
        <time>2021-03-16T13:23:23+01:00</time>
      </trkpt>
      <trkpt lat="47.70648" lon="-2.92532">
        <ele>49</ele>
        <time>2021-03-16T13:23:24+01:00</time>
      </trkpt>
      <trkpt lat="47.70645" lon="-2.92534">
        <ele>49</ele>
        <time>2021-03-16T13:23:25+01:00</time>
      </trkpt>
      <trkpt lat="47.70641" lon="-2.92536">
        <ele>49</ele>
        <time>2021-03-16T13:23:26+01:00</time>
      </trkpt>
      <trkpt lat="47.70637" lon="-2.92538">
        <ele>49</ele>
        <time>2021-03-16T13:23:27+01:00</time>
      </trkpt>
      <trkpt lat="47.70633" lon="-2.9254">
        <ele>49</ele>
        <time>2021-03-16T13:23:28+01:00</time>
      </trkpt>
      <trkpt lat="47.70629" lon="-2.92541">
        <ele>49</ele>
        <time>2021-03-16T13:23:29+01:00</time>
      </trkpt>
      <trkpt lat="47.70626" lon="-2.92542">
        <ele>49</ele>
        <time>2021-03-16T13:23:30+01:00</time>
      </trkpt>
      <trkpt lat="47.70623" lon="-2.92544">
        <ele>49</ele>
        <time>2021-03-16T13:23:31+01:00</time>
      </trkpt>
      <trkpt lat="47.7062" lon="-2.92545">
        <ele>49</ele>
        <time>2021-03-16T13:23:32+01:00</time>
      </trkpt>
      <trkpt lat="47.70617" lon="-2.92546">
        <ele>49</ele>
        <time>2021-03-16T13:23:33+01:00</time>
      </trkpt>
      <trkpt lat="47.70614" lon="-2.92548">
        <ele>49</ele>
        <time>2021-03-16T13:23:35+01:00</time>
      </trkpt>
      <trkpt lat="47.7061" lon="-2.9255">
        <ele>49</ele>
        <time>2021-03-16T13:23:36+01:00</time>
      </trkpt>
      <trkpt lat="47.70607" lon="-2.92551">
        <ele>49</ele>
        <time>2021-03-16T13:23:37+01:00</time>
      </trkpt>
      <trkpt lat="47.70604" lon="-2.92553">
        <ele>49</ele>
        <time>2021-03-16T13:23:38+01:00</time>
      </trkpt>
      <trkpt lat="47.70601" lon="-2.92554">
        <ele>50</ele>
        <time>2021-03-16T13:23:39+01:00</time>
      </trkpt>
      <trkpt lat="47.70597" lon="-2.92557">
        <ele>50</ele>
        <time>2021-03-16T13:23:40+01:00</time>
      </trkpt>
      <trkpt lat="47.70594" lon="-2.9256">
        <ele>50</ele>
        <time>2021-03-16T13:23:41+01:00</time>
      </trkpt>
      <trkpt lat="47.70592" lon="-2.92565">
        <ele>50</ele>
        <time>2021-03-16T13:23:42+01:00</time>
      </trkpt>
      <trkpt lat="47.70592" lon="-2.92571">
        <ele>50</ele>
        <time>2021-03-16T13:23:43+01:00</time>
      </trkpt>
      <trkpt lat="47.70592" lon="-2.92577">
        <ele>50</ele>
        <time>2021-03-16T13:23:44+01:00</time>
      </trkpt>
      <trkpt lat="47.70594" lon="-2.92584">
        <ele>50</ele>
        <time>2021-03-16T13:23:45+01:00</time>
      </trkpt>
      <trkpt lat="47.70595" lon="-2.9259">
        <ele>50</ele>
        <time>2021-03-16T13:23:46+01:00</time>
      </trkpt>
      <trkpt lat="47.70596" lon="-2.92596">
        <ele>50</ele>
        <time>2021-03-16T13:23:47+01:00</time>
      </trkpt>
      <trkpt lat="47.70597" lon="-2.92602">
        <ele>49</ele>
        <time>2021-03-16T13:23:48+01:00</time>
      </trkpt>
      <trkpt lat="47.70599" lon="-2.92609">
        <ele>49</ele>
        <time>2021-03-16T13:23:49+01:00</time>
      </trkpt>
      <trkpt lat="47.706" lon="-2.92615">
        <ele>49</ele>
        <time>2021-03-16T13:23:50+01:00</time>
      </trkpt>
      <trkpt lat="47.70602" lon="-2.92621">
        <ele>49</ele>
        <time>2021-03-16T13:23:51+01:00</time>
      </trkpt>
      <trkpt lat="47.70603" lon="-2.92626">
        <ele>49</ele>
        <time>2021-03-16T13:23:52+01:00</time>
      </trkpt>
      <trkpt lat="47.70604" lon="-2.92632">
        <ele>49</ele>
        <time>2021-03-16T13:23:53+01:00</time>
      </trkpt>
      <trkpt lat="47.70605" lon="-2.92637">
        <ele>49</ele>
        <time>2021-03-16T13:23:54+01:00</time>
      </trkpt>
      <trkpt lat="47.70606" lon="-2.92643">
        <ele>48</ele>
        <time>2021-03-16T13:23:55+01:00</time>
      </trkpt>
      <trkpt lat="47.70607" lon="-2.92648">
        <ele>48</ele>
        <time>2021-03-16T13:23:56+01:00</time>
      </trkpt>
      <trkpt lat="47.70609" lon="-2.92654">
        <ele>48</ele>
        <time>2021-03-16T13:23:57+01:00</time>
      </trkpt>
      <trkpt lat="47.7061" lon="-2.92659">
        <ele>48</ele>
        <time>2021-03-16T13:23:58+01:00</time>
      </trkpt>
      <trkpt lat="47.70612" lon="-2.92665">
        <ele>48</ele>
        <time>2021-03-16T13:23:59+01:00</time>
      </trkpt>
      <trkpt lat="47.70614" lon="-2.92671">
        <ele>48</ele>
        <time>2021-03-16T13:24:00+01:00</time>
      </trkpt>
      <trkpt lat="47.70615" lon="-2.92677">
        <ele>48</ele>
        <time>2021-03-16T13:24:01+01:00</time>
      </trkpt>
      <trkpt lat="47.70617" lon="-2.92683">
        <ele>48</ele>
        <time>2021-03-16T13:24:02+01:00</time>
      </trkpt>
      <trkpt lat="47.70618" lon="-2.92689">
        <ele>48</ele>
        <time>2021-03-16T13:24:03+01:00</time>
      </trkpt>
      <trkpt lat="47.70619" lon="-2.92694">
        <ele>48</ele>
        <time>2021-03-16T13:24:04+01:00</time>
      </trkpt>
      <trkpt lat="47.70621" lon="-2.927">
        <ele>48</ele>
        <time>2021-03-16T13:24:05+01:00</time>
      </trkpt>
      <trkpt lat="47.70622" lon="-2.92705">
        <ele>48</ele>
        <time>2021-03-16T13:24:06+01:00</time>
      </trkpt>
      <trkpt lat="47.70623" lon="-2.92711">
        <ele>48</ele>
        <time>2021-03-16T13:24:07+01:00</time>
      </trkpt>
      <trkpt lat="47.70624" lon="-2.92717">
        <ele>48</ele>
        <time>2021-03-16T13:24:08+01:00</time>
      </trkpt>
      <trkpt lat="47.70625" lon="-2.92722">
        <ele>48</ele>
        <time>2021-03-16T13:24:09+01:00</time>
      </trkpt>
      <trkpt lat="47.70627" lon="-2.92728">
        <ele>48</ele>
        <time>2021-03-16T13:24:10+01:00</time>
      </trkpt>
      <trkpt lat="47.70628" lon="-2.92733">
        <ele>48</ele>
        <time>2021-03-16T13:24:11+01:00</time>
      </trkpt>
      <trkpt lat="47.70629" lon="-2.92739">
        <ele>48</ele>
        <time>2021-03-16T13:24:12+01:00</time>
      </trkpt>
      <trkpt lat="47.70629" lon="-2.92745">
        <ele>47</ele>
        <time>2021-03-16T13:24:13+01:00</time>
      </trkpt>
      <trkpt lat="47.7063" lon="-2.92752">
        <ele>47</ele>
        <time>2021-03-16T13:24:14+01:00</time>
      </trkpt>
      <trkpt lat="47.70631" lon="-2.92758">
        <ele>47</ele>
        <time>2021-03-16T13:24:15+01:00</time>
      </trkpt>
      <trkpt lat="47.70632" lon="-2.92763">
        <ele>47</ele>
        <time>2021-03-16T13:24:16+01:00</time>
      </trkpt>
      <trkpt lat="47.70633" lon="-2.92769">
        <ele>47</ele>
        <time>2021-03-16T13:24:17+01:00</time>
      </trkpt>
      <trkpt lat="47.70634" lon="-2.92774">
        <ele>48</ele>
        <time>2021-03-16T13:24:18+01:00</time>
      </trkpt>
      <trkpt lat="47.70634" lon="-2.9278">
        <ele>48</ele>
        <time>2021-03-16T13:24:19+01:00</time>
      </trkpt>
      <trkpt lat="47.70635" lon="-2.92785">
        <ele>48</ele>
        <time>2021-03-16T13:24:20+01:00</time>
      </trkpt>
      <trkpt lat="47.70637" lon="-2.9279">
        <ele>48</ele>
        <time>2021-03-16T13:24:21+01:00</time>
      </trkpt>
      <trkpt lat="47.70639" lon="-2.92793">
        <ele>48</ele>
        <time>2021-03-16T13:24:22+01:00</time>
      </trkpt>
      <trkpt lat="47.70642" lon="-2.92796">
        <ele>47</ele>
        <time>2021-03-16T13:24:23+01:00</time>
      </trkpt>
      <trkpt lat="47.70646" lon="-2.92798">
        <ele>47</ele>
        <time>2021-03-16T13:24:24+01:00</time>
      </trkpt>
      <trkpt lat="47.7065" lon="-2.92799">
        <ele>47</ele>
        <time>2021-03-16T13:24:25+01:00</time>
      </trkpt>
      <trkpt lat="47.70654" lon="-2.928">
        <ele>47</ele>
        <time>2021-03-16T13:24:26+01:00</time>
      </trkpt>
      <trkpt lat="47.70658" lon="-2.928">
        <ele>47</ele>
        <time>2021-03-16T13:24:27+01:00</time>
      </trkpt>
      <trkpt lat="47.70662" lon="-2.928">
        <ele>47</ele>
        <time>2021-03-16T13:24:28+01:00</time>
      </trkpt>
      <trkpt lat="47.70665" lon="-2.928">
        <ele>47</ele>
        <time>2021-03-16T13:24:29+01:00</time>
      </trkpt>
      <trkpt lat="47.70669" lon="-2.92802">
        <ele>47</ele>
        <time>2021-03-16T13:24:31+01:00</time>
      </trkpt>
      <trkpt lat="47.70672" lon="-2.92805">
        <ele>47</ele>
        <time>2021-03-16T13:24:33+01:00</time>
      </trkpt>
      <trkpt lat="47.70674" lon="-2.92809">
        <ele>47</ele>
        <time>2021-03-16T13:24:35+01:00</time>
      </trkpt>
      <trkpt lat="47.70674" lon="-2.92813">
        <ele>47</ele>
        <time>2021-03-16T13:24:37+01:00</time>
      </trkpt>
      <trkpt lat="47.70673" lon="-2.9282">
        <ele>47</ele>
        <time>2021-03-16T13:24:39+01:00</time>
      </trkpt>
      <trkpt lat="47.70673" lon="-2.92826">
        <ele>47</ele>
        <time>2021-03-16T13:24:40+01:00</time>
      </trkpt>
      <trkpt lat="47.70673" lon="-2.92832">
        <ele>47</ele>
        <time>2021-03-16T13:24:41+01:00</time>
      </trkpt>
      <trkpt lat="47.70673" lon="-2.92838">
        <ele>47</ele>
        <time>2021-03-16T13:24:42+01:00</time>
      </trkpt>
      <trkpt lat="47.70673" lon="-2.92844">
        <ele>47</ele>
        <time>2021-03-16T13:24:43+01:00</time>
      </trkpt>
      <trkpt lat="47.70672" lon="-2.9285">
        <ele>47</ele>
        <time>2021-03-16T13:24:44+01:00</time>
      </trkpt>
      <trkpt lat="47.70672" lon="-2.92856">
        <ele>47</ele>
        <time>2021-03-16T13:24:45+01:00</time>
      </trkpt>
      <trkpt lat="47.70672" lon="-2.92863">
        <ele>47</ele>
        <time>2021-03-16T13:24:46+01:00</time>
      </trkpt>
      <trkpt lat="47.70672" lon="-2.9287">
        <ele>47</ele>
        <time>2021-03-16T13:24:47+01:00</time>
      </trkpt>
      <trkpt lat="47.70671" lon="-2.92876">
        <ele>47</ele>
        <time>2021-03-16T13:24:48+01:00</time>
      </trkpt>
      <trkpt lat="47.70671" lon="-2.92883">
        <ele>47</ele>
        <time>2021-03-16T13:24:49+01:00</time>
      </trkpt>
      <trkpt lat="47.70671" lon="-2.92889">
        <ele>47</ele>
        <time>2021-03-16T13:24:50+01:00</time>
      </trkpt>
      <trkpt lat="47.70671" lon="-2.92896">
        <ele>47</ele>
        <time>2021-03-16T13:24:51+01:00</time>
      </trkpt>
      <trkpt lat="47.70671" lon="-2.92902">
        <ele>47</ele>
        <time>2021-03-16T13:24:52+01:00</time>
      </trkpt>
      <trkpt lat="47.70671" lon="-2.92908">
        <ele>47</ele>
        <time>2021-03-16T13:24:53+01:00</time>
      </trkpt>
      <trkpt lat="47.70671" lon="-2.92914">
        <ele>47</ele>
        <time>2021-03-16T13:24:54+01:00</time>
      </trkpt>
      <trkpt lat="47.7067" lon="-2.9292">
        <ele>47</ele>
        <time>2021-03-16T13:24:55+01:00</time>
      </trkpt>
      <trkpt lat="47.7067" lon="-2.92926">
        <ele>47</ele>
        <time>2021-03-16T13:24:56+01:00</time>
      </trkpt>
      <trkpt lat="47.70669" lon="-2.92932">
        <ele>47</ele>
        <time>2021-03-16T13:24:57+01:00</time>
      </trkpt>
      <trkpt lat="47.70668" lon="-2.92936">
        <ele>47</ele>
        <time>2021-03-16T13:24:58+01:00</time>
      </trkpt>
      <trkpt lat="47.70666" lon="-2.92939">
        <ele>47</ele>
        <time>2021-03-16T13:24:59+01:00</time>
      </trkpt>
      <trkpt lat="47.70663" lon="-2.92941">
        <ele>47</ele>
        <time>2021-03-16T13:25:00+01:00</time>
      </trkpt>
      <trkpt lat="47.7066" lon="-2.92941">
        <ele>47</ele>
        <time>2021-03-16T13:25:01+01:00</time>
      </trkpt>
      <trkpt lat="47.70656" lon="-2.92941">
        <ele>47</ele>
        <time>2021-03-16T13:25:02+01:00</time>
      </trkpt>
      <trkpt lat="47.70652" lon="-2.92939">
        <ele>47</ele>
        <time>2021-03-16T13:25:03+01:00</time>
      </trkpt>
      <trkpt lat="47.70648" lon="-2.92938">
        <ele>47</ele>
        <time>2021-03-16T13:25:04+01:00</time>
      </trkpt>
      <trkpt lat="47.70644" lon="-2.92936">
        <ele>47</ele>
        <time>2021-03-16T13:25:05+01:00</time>
      </trkpt>
      <trkpt lat="47.7064" lon="-2.92934">
        <ele>47</ele>
        <time>2021-03-16T13:25:06+01:00</time>
      </trkpt>
      <trkpt lat="47.70636" lon="-2.92932">
        <ele>48</ele>
        <time>2021-03-16T13:25:07+01:00</time>
      </trkpt>
      <trkpt lat="47.70632" lon="-2.9293">
        <ele>48</ele>
        <time>2021-03-16T13:25:08+01:00</time>
      </trkpt>
      <trkpt lat="47.70627" lon="-2.92928">
        <ele>48</ele>
        <time>2021-03-16T13:25:09+01:00</time>
      </trkpt>
      <trkpt lat="47.70623" lon="-2.92925">
        <ele>48</ele>
        <time>2021-03-16T13:25:10+01:00</time>
      </trkpt>
      <trkpt lat="47.70619" lon="-2.92923">
        <ele>48</ele>
        <time>2021-03-16T13:25:11+01:00</time>
      </trkpt>
      <trkpt lat="47.70615" lon="-2.92921">
        <ele>48</ele>
        <time>2021-03-16T13:25:12+01:00</time>
      </trkpt>
      <trkpt lat="47.70612" lon="-2.9292">
        <ele>48</ele>
        <time>2021-03-16T13:25:13+01:00</time>
      </trkpt>
      <trkpt lat="47.70608" lon="-2.9292">
        <ele>48</ele>
        <time>2021-03-16T13:25:14+01:00</time>
      </trkpt>
      <trkpt lat="47.70605" lon="-2.92923">
        <ele>48</ele>
        <time>2021-03-16T13:25:15+01:00</time>
      </trkpt>
      <trkpt lat="47.70602" lon="-2.92927">
        <ele>49</ele>
        <time>2021-03-16T13:25:16+01:00</time>
      </trkpt>
      <trkpt lat="47.706" lon="-2.92933">
        <ele>49</ele>
        <time>2021-03-16T13:25:17+01:00</time>
      </trkpt>
      <trkpt lat="47.70597" lon="-2.92938">
        <ele>49</ele>
        <time>2021-03-16T13:25:18+01:00</time>
      </trkpt>
      <trkpt lat="47.70594" lon="-2.92943">
        <ele>49</ele>
        <time>2021-03-16T13:25:19+01:00</time>
      </trkpt>
      <trkpt lat="47.70592" lon="-2.92948">
        <ele>49</ele>
        <time>2021-03-16T13:25:20+01:00</time>
      </trkpt>
      <trkpt lat="47.70589" lon="-2.92952">
        <ele>49</ele>
        <time>2021-03-16T13:25:21+01:00</time>
      </trkpt>
      <trkpt lat="47.70586" lon="-2.92957">
        <ele>49</ele>
        <time>2021-03-16T13:25:22+01:00</time>
      </trkpt>
      <trkpt lat="47.70584" lon="-2.92961">
        <ele>49</ele>
        <time>2021-03-16T13:25:23+01:00</time>
      </trkpt>
      <trkpt lat="47.70581" lon="-2.92966">
        <ele>49</ele>
        <time>2021-03-16T13:25:24+01:00</time>
      </trkpt>
      <trkpt lat="47.70578" lon="-2.9297">
        <ele>49</ele>
        <time>2021-03-16T13:25:25+01:00</time>
      </trkpt>
      <trkpt lat="47.70575" lon="-2.92975">
        <ele>49</ele>
        <time>2021-03-16T13:25:26+01:00</time>
      </trkpt>
      <trkpt lat="47.70572" lon="-2.92979">
        <ele>49</ele>
        <time>2021-03-16T13:25:27+01:00</time>
      </trkpt>
      <trkpt lat="47.70569" lon="-2.92983">
        <ele>49</ele>
        <time>2021-03-16T13:25:28+01:00</time>
      </trkpt>
      <trkpt lat="47.70568" lon="-2.92987">
        <ele>49</ele>
        <time>2021-03-16T13:25:29+01:00</time>
      </trkpt>
      <trkpt lat="47.70568" lon="-2.92992">
        <ele>49</ele>
        <time>2021-03-16T13:25:30+01:00</time>
      </trkpt>
      <trkpt lat="47.70569" lon="-2.92997">
        <ele>49</ele>
        <time>2021-03-16T13:25:31+01:00</time>
      </trkpt>
      <trkpt lat="47.70571" lon="-2.93002">
        <ele>49</ele>
        <time>2021-03-16T13:25:32+01:00</time>
      </trkpt>
      <trkpt lat="47.70573" lon="-2.93008">
        <ele>49</ele>
        <time>2021-03-16T13:25:33+01:00</time>
      </trkpt>
      <trkpt lat="47.70575" lon="-2.93014">
        <ele>49</ele>
        <time>2021-03-16T13:25:34+01:00</time>
      </trkpt>
      <trkpt lat="47.70576" lon="-2.93019">
        <ele>49</ele>
        <time>2021-03-16T13:25:35+01:00</time>
      </trkpt>
      <trkpt lat="47.70577" lon="-2.93024">
        <ele>49</ele>
        <time>2021-03-16T13:25:36+01:00</time>
      </trkpt>
      <trkpt lat="47.70579" lon="-2.93029">
        <ele>49</ele>
        <time>2021-03-16T13:25:37+01:00</time>
      </trkpt>
      <trkpt lat="47.7058" lon="-2.93034">
        <ele>49</ele>
        <time>2021-03-16T13:25:38+01:00</time>
      </trkpt>
      <trkpt lat="47.70581" lon="-2.93039">
        <ele>49</ele>
        <time>2021-03-16T13:25:39+01:00</time>
      </trkpt>
      <trkpt lat="47.70582" lon="-2.93044">
        <ele>49</ele>
        <time>2021-03-16T13:25:40+01:00</time>
      </trkpt>
      <trkpt lat="47.70583" lon="-2.93049">
        <ele>48</ele>
        <time>2021-03-16T13:25:41+01:00</time>
      </trkpt>
      <trkpt lat="47.70584" lon="-2.93053">
        <ele>48</ele>
        <time>2021-03-16T13:25:42+01:00</time>
      </trkpt>
      <trkpt lat="47.70585" lon="-2.93058">
        <ele>48</ele>
        <time>2021-03-16T13:25:43+01:00</time>
      </trkpt>
      <trkpt lat="47.70586" lon="-2.93063">
        <ele>48</ele>
        <time>2021-03-16T13:25:44+01:00</time>
      </trkpt>
      <trkpt lat="47.70587" lon="-2.93068">
        <ele>48</ele>
        <time>2021-03-16T13:25:45+01:00</time>
      </trkpt>
      <trkpt lat="47.70589" lon="-2.93073">
        <ele>48</ele>
        <time>2021-03-16T13:25:46+01:00</time>
      </trkpt>
      <trkpt lat="47.7059" lon="-2.93078">
        <ele>48</ele>
        <time>2021-03-16T13:25:47+01:00</time>
      </trkpt>
      <trkpt lat="47.70592" lon="-2.93083">
        <ele>48</ele>
        <time>2021-03-16T13:25:48+01:00</time>
      </trkpt>
      <trkpt lat="47.70593" lon="-2.93089">
        <ele>48</ele>
        <time>2021-03-16T13:25:49+01:00</time>
      </trkpt>
      <trkpt lat="47.70594" lon="-2.93094">
        <ele>48</ele>
        <time>2021-03-16T13:25:50+01:00</time>
      </trkpt>
      <trkpt lat="47.70596" lon="-2.931">
        <ele>48</ele>
        <time>2021-03-16T13:25:51+01:00</time>
      </trkpt>
      <trkpt lat="47.70598" lon="-2.93106">
        <ele>48</ele>
        <time>2021-03-16T13:25:52+01:00</time>
      </trkpt>
      <trkpt lat="47.706" lon="-2.93111">
        <ele>48</ele>
        <time>2021-03-16T13:25:53+01:00</time>
      </trkpt>
      <trkpt lat="47.70603" lon="-2.93115">
        <ele>48</ele>
        <time>2021-03-16T13:25:54+01:00</time>
      </trkpt>
      <trkpt lat="47.70607" lon="-2.93118">
        <ele>48</ele>
        <time>2021-03-16T13:25:55+01:00</time>
      </trkpt>
      <trkpt lat="47.70611" lon="-2.93121">
        <ele>48</ele>
        <time>2021-03-16T13:25:56+01:00</time>
      </trkpt>
      <trkpt lat="47.70614" lon="-2.93123">
        <ele>48</ele>
        <time>2021-03-16T13:25:57+01:00</time>
      </trkpt>
      <trkpt lat="47.70617" lon="-2.93125">
        <ele>48</ele>
        <time>2021-03-16T13:25:58+01:00</time>
      </trkpt>
      <trkpt lat="47.7062" lon="-2.93127">
        <ele>48</ele>
        <time>2021-03-16T13:25:59+01:00</time>
      </trkpt>
      <trkpt lat="47.70623" lon="-2.93129">
        <ele>48</ele>
        <time>2021-03-16T13:26:00+01:00</time>
      </trkpt>
      <trkpt lat="47.70627" lon="-2.93131">
        <ele>48</ele>
        <time>2021-03-16T13:26:01+01:00</time>
      </trkpt>
      <trkpt lat="47.7063" lon="-2.93133">
        <ele>48</ele>
        <time>2021-03-16T13:26:02+01:00</time>
      </trkpt>
      <trkpt lat="47.70633" lon="-2.93136">
        <ele>48</ele>
        <time>2021-03-16T13:26:03+01:00</time>
      </trkpt>
      <trkpt lat="47.70636" lon="-2.9314">
        <ele>48</ele>
        <time>2021-03-16T13:26:04+01:00</time>
      </trkpt>
      <trkpt lat="47.70638" lon="-2.93145">
        <ele>49</ele>
        <time>2021-03-16T13:26:05+01:00</time>
      </trkpt>
      <trkpt lat="47.70639" lon="-2.93151">
        <ele>49</ele>
        <time>2021-03-16T13:26:06+01:00</time>
      </trkpt>
      <trkpt lat="47.70639" lon="-2.93157">
        <ele>49</ele>
        <time>2021-03-16T13:26:07+01:00</time>
      </trkpt>
      <trkpt lat="47.70639" lon="-2.93163">
        <ele>49</ele>
        <time>2021-03-16T13:26:08+01:00</time>
      </trkpt>
      <trkpt lat="47.70638" lon="-2.93169">
        <ele>49</ele>
        <time>2021-03-16T13:26:09+01:00</time>
      </trkpt>
      <trkpt lat="47.70638" lon="-2.93175">
        <ele>49</ele>
        <time>2021-03-16T13:26:10+01:00</time>
      </trkpt>
      <trkpt lat="47.70637" lon="-2.93181">
        <ele>49</ele>
        <time>2021-03-16T13:26:11+01:00</time>
      </trkpt>
      <trkpt lat="47.70637" lon="-2.93187">
        <ele>49</ele>
        <time>2021-03-16T13:26:12+01:00</time>
      </trkpt>
      <trkpt lat="47.70636" lon="-2.93193">
        <ele>50</ele>
        <time>2021-03-16T13:26:13+01:00</time>
      </trkpt>
      <trkpt lat="47.70636" lon="-2.93199">
        <ele>50</ele>
        <time>2021-03-16T13:26:14+01:00</time>
      </trkpt>
      <trkpt lat="47.70636" lon="-2.93205">
        <ele>50</ele>
        <time>2021-03-16T13:26:15+01:00</time>
      </trkpt>
      <trkpt lat="47.70635" lon="-2.93211">
        <ele>50</ele>
        <time>2021-03-16T13:26:16+01:00</time>
      </trkpt>
      <trkpt lat="47.70635" lon="-2.93216">
        <ele>50</ele>
        <time>2021-03-16T13:26:17+01:00</time>
      </trkpt>
      <trkpt lat="47.70635" lon="-2.93222">
        <ele>50</ele>
        <time>2021-03-16T13:26:18+01:00</time>
      </trkpt>
      <trkpt lat="47.70635" lon="-2.93228">
        <ele>50</ele>
        <time>2021-03-16T13:26:19+01:00</time>
      </trkpt>
      <trkpt lat="47.70634" lon="-2.93235">
        <ele>50</ele>
        <time>2021-03-16T13:26:20+01:00</time>
      </trkpt>
      <trkpt lat="47.70634" lon="-2.93241">
        <ele>50</ele>
        <time>2021-03-16T13:26:21+01:00</time>
      </trkpt>
      <trkpt lat="47.70634" lon="-2.93248">
        <ele>51</ele>
        <time>2021-03-16T13:26:22+01:00</time>
      </trkpt>
      <trkpt lat="47.70633" lon="-2.93254">
        <ele>51</ele>
        <time>2021-03-16T13:26:23+01:00</time>
      </trkpt>
      <trkpt lat="47.70632" lon="-2.9326">
        <ele>51</ele>
        <time>2021-03-16T13:26:24+01:00</time>
      </trkpt>
      <trkpt lat="47.70632" lon="-2.93266">
        <ele>51</ele>
        <time>2021-03-16T13:26:25+01:00</time>
      </trkpt>
      <trkpt lat="47.70631" lon="-2.93272">
        <ele>51</ele>
        <time>2021-03-16T13:26:26+01:00</time>
      </trkpt>
      <trkpt lat="47.70631" lon="-2.93277">
        <ele>51</ele>
        <time>2021-03-16T13:26:27+01:00</time>
      </trkpt>
      <trkpt lat="47.7063" lon="-2.93283">
        <ele>51</ele>
        <time>2021-03-16T13:26:28+01:00</time>
      </trkpt>
      <trkpt lat="47.7063" lon="-2.93288">
        <ele>51</ele>
        <time>2021-03-16T13:26:29+01:00</time>
      </trkpt>
      <trkpt lat="47.70629" lon="-2.93294">
        <ele>51</ele>
        <time>2021-03-16T13:26:30+01:00</time>
      </trkpt>
      <trkpt lat="47.70629" lon="-2.93299">
        <ele>51</ele>
        <time>2021-03-16T13:26:31+01:00</time>
      </trkpt>
      <trkpt lat="47.70628" lon="-2.93304">
        <ele>51</ele>
        <time>2021-03-16T13:26:32+01:00</time>
      </trkpt>
      <trkpt lat="47.70628" lon="-2.9331">
        <ele>51</ele>
        <time>2021-03-16T13:26:33+01:00</time>
      </trkpt>
      <trkpt lat="47.70627" lon="-2.93315">
        <ele>51</ele>
        <time>2021-03-16T13:26:34+01:00</time>
      </trkpt>
      <trkpt lat="47.70627" lon="-2.9332">
        <ele>51</ele>
        <time>2021-03-16T13:26:35+01:00</time>
      </trkpt>
      <trkpt lat="47.70626" lon="-2.93326">
        <ele>51</ele>
        <time>2021-03-16T13:26:36+01:00</time>
      </trkpt>
      <trkpt lat="47.70626" lon="-2.93331">
        <ele>51</ele>
        <time>2021-03-16T13:26:37+01:00</time>
      </trkpt>
      <trkpt lat="47.70626" lon="-2.93337">
        <ele>51</ele>
        <time>2021-03-16T13:26:38+01:00</time>
      </trkpt>
      <trkpt lat="47.70625" lon="-2.93343">
        <ele>51</ele>
        <time>2021-03-16T13:26:39+01:00</time>
      </trkpt>
      <trkpt lat="47.70625" lon="-2.93349">
        <ele>51</ele>
        <time>2021-03-16T13:26:40+01:00</time>
      </trkpt>
      <trkpt lat="47.70624" lon="-2.93355">
        <ele>51</ele>
        <time>2021-03-16T13:26:41+01:00</time>
      </trkpt>
      <trkpt lat="47.70624" lon="-2.93362">
        <ele>51</ele>
        <time>2021-03-16T13:26:42+01:00</time>
      </trkpt>
      <trkpt lat="47.70623" lon="-2.93368">
        <ele>51</ele>
        <time>2021-03-16T13:26:43+01:00</time>
      </trkpt>
      <trkpt lat="47.70621" lon="-2.93375">
        <ele>51</ele>
        <time>2021-03-16T13:26:44+01:00</time>
      </trkpt>
      <trkpt lat="47.7062" lon="-2.93381">
        <ele>51</ele>
        <time>2021-03-16T13:26:45+01:00</time>
      </trkpt>
      <trkpt lat="47.70619" lon="-2.93387">
        <ele>51</ele>
        <time>2021-03-16T13:26:46+01:00</time>
      </trkpt>
      <trkpt lat="47.70617" lon="-2.93393">
        <ele>51</ele>
        <time>2021-03-16T13:26:47+01:00</time>
      </trkpt>
      <trkpt lat="47.70616" lon="-2.93399">
        <ele>51</ele>
        <time>2021-03-16T13:26:48+01:00</time>
      </trkpt>
      <trkpt lat="47.70616" lon="-2.93404">
        <ele>51</ele>
        <time>2021-03-16T13:26:49+01:00</time>
      </trkpt>
      <trkpt lat="47.70616" lon="-2.9341">
        <ele>51</ele>
        <time>2021-03-16T13:26:50+01:00</time>
      </trkpt>
      <trkpt lat="47.70616" lon="-2.93415">
        <ele>51</ele>
        <time>2021-03-16T13:26:51+01:00</time>
      </trkpt>
      <trkpt lat="47.70617" lon="-2.93421">
        <ele>51</ele>
        <time>2021-03-16T13:26:52+01:00</time>
      </trkpt>
      <trkpt lat="47.70618" lon="-2.93427">
        <ele>51</ele>
        <time>2021-03-16T13:26:53+01:00</time>
      </trkpt>
      <trkpt lat="47.70619" lon="-2.93432">
        <ele>51</ele>
        <time>2021-03-16T13:26:54+01:00</time>
      </trkpt>
      <trkpt lat="47.7062" lon="-2.93438">
        <ele>51</ele>
        <time>2021-03-16T13:26:55+01:00</time>
      </trkpt>
      <trkpt lat="47.70621" lon="-2.93444">
        <ele>51</ele>
        <time>2021-03-16T13:26:56+01:00</time>
      </trkpt>
      <trkpt lat="47.70621" lon="-2.93451">
        <ele>51</ele>
        <time>2021-03-16T13:26:57+01:00</time>
      </trkpt>
      <trkpt lat="47.70622" lon="-2.93456">
        <ele>51</ele>
        <time>2021-03-16T13:26:58+01:00</time>
      </trkpt>
      <trkpt lat="47.70623" lon="-2.93463">
        <ele>51</ele>
        <time>2021-03-16T13:26:59+01:00</time>
      </trkpt>
      <trkpt lat="47.70624" lon="-2.93469">
        <ele>51</ele>
        <time>2021-03-16T13:27:00+01:00</time>
      </trkpt>
      <trkpt lat="47.70625" lon="-2.93475">
        <ele>51</ele>
        <time>2021-03-16T13:27:01+01:00</time>
      </trkpt>
      <trkpt lat="47.70626" lon="-2.93481">
        <ele>51</ele>
        <time>2021-03-16T13:27:02+01:00</time>
      </trkpt>
      <trkpt lat="47.70626" lon="-2.93486">
        <ele>51</ele>
        <time>2021-03-16T13:27:03+01:00</time>
      </trkpt>
      <trkpt lat="47.70627" lon="-2.93492">
        <ele>51</ele>
        <time>2021-03-16T13:27:04+01:00</time>
      </trkpt>
      <trkpt lat="47.70629" lon="-2.93497">
        <ele>51</ele>
        <time>2021-03-16T13:27:05+01:00</time>
      </trkpt>
      <trkpt lat="47.70631" lon="-2.93503">
        <ele>51</ele>
        <time>2021-03-16T13:27:06+01:00</time>
      </trkpt>
      <trkpt lat="47.70632" lon="-2.93509">
        <ele>50</ele>
        <time>2021-03-16T13:27:07+01:00</time>
      </trkpt>
      <trkpt lat="47.70634" lon="-2.93515">
        <ele>50</ele>
        <time>2021-03-16T13:27:08+01:00</time>
      </trkpt>
      <trkpt lat="47.70636" lon="-2.93521">
        <ele>50</ele>
        <time>2021-03-16T13:27:09+01:00</time>
      </trkpt>
      <trkpt lat="47.70637" lon="-2.93527">
        <ele>50</ele>
        <time>2021-03-16T13:27:10+01:00</time>
      </trkpt>
      <trkpt lat="47.70639" lon="-2.93533">
        <ele>50</ele>
        <time>2021-03-16T13:27:11+01:00</time>
      </trkpt>
      <trkpt lat="47.70641" lon="-2.93538">
        <ele>50</ele>
        <time>2021-03-16T13:27:12+01:00</time>
      </trkpt>
      <trkpt lat="47.70643" lon="-2.93543">
        <ele>50</ele>
        <time>2021-03-16T13:27:13+01:00</time>
      </trkpt>
      <trkpt lat="47.70645" lon="-2.93548">
        <ele>50</ele>
        <time>2021-03-16T13:27:14+01:00</time>
      </trkpt>
      <trkpt lat="47.70647" lon="-2.93553">
        <ele>50</ele>
        <time>2021-03-16T13:27:15+01:00</time>
      </trkpt>
      <trkpt lat="47.70648" lon="-2.93558">
        <ele>50</ele>
        <time>2021-03-16T13:27:16+01:00</time>
      </trkpt>
      <trkpt lat="47.7065" lon="-2.93563">
        <ele>50</ele>
        <time>2021-03-16T13:27:17+01:00</time>
      </trkpt>
      <trkpt lat="47.70652" lon="-2.93569">
        <ele>49</ele>
        <time>2021-03-16T13:27:18+01:00</time>
      </trkpt>
      <trkpt lat="47.70653" lon="-2.93575">
        <ele>49</ele>
        <time>2021-03-16T13:27:19+01:00</time>
      </trkpt>
      <trkpt lat="47.70654" lon="-2.93581">
        <ele>49</ele>
        <time>2021-03-16T13:27:20+01:00</time>
      </trkpt>
      <trkpt lat="47.70655" lon="-2.93588">
        <ele>49</ele>
        <time>2021-03-16T13:27:21+01:00</time>
      </trkpt>
      <trkpt lat="47.70656" lon="-2.93594">
        <ele>49</ele>
        <time>2021-03-16T13:27:22+01:00</time>
      </trkpt>
      <trkpt lat="47.70656" lon="-2.936">
        <ele>49</ele>
        <time>2021-03-16T13:27:23+01:00</time>
      </trkpt>
      <trkpt lat="47.70657" lon="-2.93607">
        <ele>49</ele>
        <time>2021-03-16T13:27:24+01:00</time>
      </trkpt>
      <trkpt lat="47.70657" lon="-2.93612">
        <ele>49</ele>
        <time>2021-03-16T13:27:25+01:00</time>
      </trkpt>
      <trkpt lat="47.70658" lon="-2.93618">
        <ele>49</ele>
        <time>2021-03-16T13:27:26+01:00</time>
      </trkpt>
      <trkpt lat="47.70659" lon="-2.93624">
        <ele>50</ele>
        <time>2021-03-16T13:27:27+01:00</time>
      </trkpt>
      <trkpt lat="47.70659" lon="-2.93629">
        <ele>50</ele>
        <time>2021-03-16T13:27:28+01:00</time>
      </trkpt>
      <trkpt lat="47.70659" lon="-2.93635">
        <ele>50</ele>
        <time>2021-03-16T13:27:29+01:00</time>
      </trkpt>
      <trkpt lat="47.70658" lon="-2.9364">
        <ele>50</ele>
        <time>2021-03-16T13:27:30+01:00</time>
      </trkpt>
      <trkpt lat="47.70656" lon="-2.93645">
        <ele>50</ele>
        <time>2021-03-16T13:27:31+01:00</time>
      </trkpt>
      <trkpt lat="47.70653" lon="-2.9365">
        <ele>50</ele>
        <time>2021-03-16T13:27:32+01:00</time>
      </trkpt>
      <trkpt lat="47.7065" lon="-2.93655">
        <ele>50</ele>
        <time>2021-03-16T13:27:33+01:00</time>
      </trkpt>
      <trkpt lat="47.70647" lon="-2.9366">
        <ele>50</ele>
        <time>2021-03-16T13:27:34+01:00</time>
      </trkpt>
      <trkpt lat="47.70644" lon="-2.93664">
        <ele>50</ele>
        <time>2021-03-16T13:27:35+01:00</time>
      </trkpt>
      <trkpt lat="47.70641" lon="-2.93669">
        <ele>50</ele>
        <time>2021-03-16T13:27:36+01:00</time>
      </trkpt>
      <trkpt lat="47.70638" lon="-2.93674">
        <ele>50</ele>
        <time>2021-03-16T13:27:37+01:00</time>
      </trkpt>
      <trkpt lat="47.70635" lon="-2.93678">
        <ele>50</ele>
        <time>2021-03-16T13:27:38+01:00</time>
      </trkpt>
      <trkpt lat="47.70632" lon="-2.93683">
        <ele>50</ele>
        <time>2021-03-16T13:27:39+01:00</time>
      </trkpt>
      <trkpt lat="47.7063" lon="-2.93687">
        <ele>50</ele>
        <time>2021-03-16T13:27:40+01:00</time>
      </trkpt>
      <trkpt lat="47.70627" lon="-2.93691">
        <ele>50</ele>
        <time>2021-03-16T13:27:41+01:00</time>
      </trkpt>
      <trkpt lat="47.70625" lon="-2.93695">
        <ele>50</ele>
        <time>2021-03-16T13:27:42+01:00</time>
      </trkpt>
      <trkpt lat="47.70623" lon="-2.93699">
        <ele>50</ele>
        <time>2021-03-16T13:27:43+01:00</time>
      </trkpt>
      <trkpt lat="47.70621" lon="-2.93703">
        <ele>50</ele>
        <time>2021-03-16T13:27:44+01:00</time>
      </trkpt>
      <trkpt lat="47.70619" lon="-2.93706">
        <ele>50</ele>
        <time>2021-03-16T13:27:45+01:00</time>
      </trkpt>
      <trkpt lat="47.70617" lon="-2.93709">
        <ele>50</ele>
        <time>2021-03-16T13:27:46+01:00</time>
      </trkpt>
      <trkpt lat="47.70614" lon="-2.93713">
        <ele>50</ele>
        <time>2021-03-16T13:27:48+01:00</time>
      </trkpt>
      <trkpt lat="47.70613" lon="-2.93717">
        <ele>51</ele>
        <time>2021-03-16T13:27:50+01:00</time>
      </trkpt>
      <trkpt lat="47.70612" lon="-2.93722">
        <ele>51</ele>
        <time>2021-03-16T13:27:52+01:00</time>
      </trkpt>
      <trkpt lat="47.7061" lon="-2.93727">
        <ele>51</ele>
        <time>2021-03-16T13:27:54+01:00</time>
      </trkpt>
      <trkpt lat="47.70607" lon="-2.93731">
        <ele>51</ele>
        <time>2021-03-16T13:27:55+01:00</time>
      </trkpt>
      <trkpt lat="47.70604" lon="-2.93734">
        <ele>51</ele>
        <time>2021-03-16T13:27:56+01:00</time>
      </trkpt>
      <trkpt lat="47.70601" lon="-2.93738">
        <ele>51</ele>
        <time>2021-03-16T13:27:57+01:00</time>
      </trkpt>
      <trkpt lat="47.70598" lon="-2.93743">
        <ele>51</ele>
        <time>2021-03-16T13:27:58+01:00</time>
      </trkpt>
      <trkpt lat="47.70596" lon="-2.93747">
        <ele>51</ele>
        <time>2021-03-16T13:27:59+01:00</time>
      </trkpt>
      <trkpt lat="47.70593" lon="-2.93752">
        <ele>52</ele>
        <time>2021-03-16T13:28:00+01:00</time>
      </trkpt>
      <trkpt lat="47.70591" lon="-2.93756">
        <ele>52</ele>
        <time>2021-03-16T13:28:01+01:00</time>
      </trkpt>
      <trkpt lat="47.70589" lon="-2.93761">
        <ele>52</ele>
        <time>2021-03-16T13:28:02+01:00</time>
      </trkpt>
      <trkpt lat="47.70586" lon="-2.93765">
        <ele>52</ele>
        <time>2021-03-16T13:28:03+01:00</time>
      </trkpt>
      <trkpt lat="47.70584" lon="-2.93769">
        <ele>52</ele>
        <time>2021-03-16T13:28:04+01:00</time>
      </trkpt>
      <trkpt lat="47.70581" lon="-2.93774">
        <ele>51</ele>
        <time>2021-03-16T13:28:05+01:00</time>
      </trkpt>
      <trkpt lat="47.70579" lon="-2.93778">
        <ele>51</ele>
        <time>2021-03-16T13:28:06+01:00</time>
      </trkpt>
      <trkpt lat="47.70576" lon="-2.93782">
        <ele>51</ele>
        <time>2021-03-16T13:28:07+01:00</time>
      </trkpt>
      <trkpt lat="47.70573" lon="-2.93787">
        <ele>51</ele>
        <time>2021-03-16T13:28:08+01:00</time>
      </trkpt>
      <trkpt lat="47.7057" lon="-2.93791">
        <ele>51</ele>
        <time>2021-03-16T13:28:09+01:00</time>
      </trkpt>
      <trkpt lat="47.70567" lon="-2.93795">
        <ele>51</ele>
        <time>2021-03-16T13:28:10+01:00</time>
      </trkpt>
      <trkpt lat="47.70565" lon="-2.938">
        <ele>51</ele>
        <time>2021-03-16T13:28:11+01:00</time>
      </trkpt>
      <trkpt lat="47.70562" lon="-2.93804">
        <ele>51</ele>
        <time>2021-03-16T13:28:12+01:00</time>
      </trkpt>
      <trkpt lat="47.70559" lon="-2.93808">
        <ele>51</ele>
        <time>2021-03-16T13:28:13+01:00</time>
      </trkpt>
      <trkpt lat="47.70556" lon="-2.93812">
        <ele>51</ele>
        <time>2021-03-16T13:28:14+01:00</time>
      </trkpt>
      <trkpt lat="47.70553" lon="-2.93816">
        <ele>50</ele>
        <time>2021-03-16T13:28:15+01:00</time>
      </trkpt>
      <trkpt lat="47.7055" lon="-2.93819">
        <ele>50</ele>
        <time>2021-03-16T13:28:16+01:00</time>
      </trkpt>
      <trkpt lat="47.70546" lon="-2.93823">
        <ele>50</ele>
        <time>2021-03-16T13:28:17+01:00</time>
      </trkpt>
      <trkpt lat="47.70542" lon="-2.93826">
        <ele>50</ele>
        <time>2021-03-16T13:28:18+01:00</time>
      </trkpt>
      <trkpt lat="47.70539" lon="-2.93829">
        <ele>50</ele>
        <time>2021-03-16T13:28:19+01:00</time>
      </trkpt>
      <trkpt lat="47.70535" lon="-2.93832">
        <ele>50</ele>
        <time>2021-03-16T13:28:20+01:00</time>
      </trkpt>
      <trkpt lat="47.70531" lon="-2.93835">
        <ele>50</ele>
        <time>2021-03-16T13:28:21+01:00</time>
      </trkpt>
      <trkpt lat="47.70528" lon="-2.93836">
        <ele>50</ele>
        <time>2021-03-16T13:28:22+01:00</time>
      </trkpt>
      <trkpt lat="47.70524" lon="-2.93838">
        <ele>50</ele>
        <time>2021-03-16T13:28:23+01:00</time>
      </trkpt>
      <trkpt lat="47.7052" lon="-2.93839">
        <ele>50</ele>
        <time>2021-03-16T13:28:24+01:00</time>
      </trkpt>
      <trkpt lat="47.70516" lon="-2.93841">
        <ele>50</ele>
        <time>2021-03-16T13:28:25+01:00</time>
      </trkpt>
      <trkpt lat="47.70512" lon="-2.93843">
        <ele>50</ele>
        <time>2021-03-16T13:28:26+01:00</time>
      </trkpt>
      <trkpt lat="47.70509" lon="-2.93844">
        <ele>50</ele>
        <time>2021-03-16T13:28:27+01:00</time>
      </trkpt>
      <trkpt lat="47.70505" lon="-2.93845">
        <ele>50</ele>
        <time>2021-03-16T13:28:28+01:00</time>
      </trkpt>
      <trkpt lat="47.70501" lon="-2.93846">
        <ele>50</ele>
        <time>2021-03-16T13:28:29+01:00</time>
      </trkpt>
      <trkpt lat="47.70497" lon="-2.93847">
        <ele>50</ele>
        <time>2021-03-16T13:28:30+01:00</time>
      </trkpt>
      <trkpt lat="47.70494" lon="-2.93848">
        <ele>50</ele>
        <time>2021-03-16T13:28:31+01:00</time>
      </trkpt>
      <trkpt lat="47.7049" lon="-2.93848">
        <ele>50</ele>
        <time>2021-03-16T13:28:32+01:00</time>
      </trkpt>
      <trkpt lat="47.70486" lon="-2.93848">
        <ele>50</ele>
        <time>2021-03-16T13:28:33+01:00</time>
      </trkpt>
      <trkpt lat="47.70483" lon="-2.93848">
        <ele>50</ele>
        <time>2021-03-16T13:28:34+01:00</time>
      </trkpt>
      <trkpt lat="47.70479" lon="-2.93848">
        <ele>50</ele>
        <time>2021-03-16T13:28:35+01:00</time>
      </trkpt>
      <trkpt lat="47.70475" lon="-2.93847">
        <ele>50</ele>
        <time>2021-03-16T13:28:36+01:00</time>
      </trkpt>
      <trkpt lat="47.70471" lon="-2.93846">
        <ele>50</ele>
        <time>2021-03-16T13:28:37+01:00</time>
      </trkpt>
      <trkpt lat="47.70467" lon="-2.93845">
        <ele>50</ele>
        <time>2021-03-16T13:28:38+01:00</time>
      </trkpt>
      <trkpt lat="47.70463" lon="-2.93844">
        <ele>50</ele>
        <time>2021-03-16T13:28:39+01:00</time>
      </trkpt>
      <trkpt lat="47.7046" lon="-2.93843">
        <ele>50</ele>
        <time>2021-03-16T13:28:40+01:00</time>
      </trkpt>
      <trkpt lat="47.70456" lon="-2.93842">
        <ele>50</ele>
        <time>2021-03-16T13:28:41+01:00</time>
      </trkpt>
      <trkpt lat="47.70453" lon="-2.93841">
        <ele>50</ele>
        <time>2021-03-16T13:28:42+01:00</time>
      </trkpt>
      <trkpt lat="47.70449" lon="-2.9384">
        <ele>51</ele>
        <time>2021-03-16T13:28:43+01:00</time>
      </trkpt>
      <trkpt lat="47.70446" lon="-2.93839">
        <ele>51</ele>
        <time>2021-03-16T13:28:44+01:00</time>
      </trkpt>
      <trkpt lat="47.70444" lon="-2.93838">
        <ele>51</ele>
        <time>2021-03-16T13:28:45+01:00</time>
      </trkpt>
      <trkpt lat="47.7044" lon="-2.93836">
        <ele>51</ele>
        <time>2021-03-16T13:28:47+01:00</time>
      </trkpt>
      <trkpt lat="47.70436" lon="-2.93835">
        <ele>51</ele>
        <time>2021-03-16T13:28:49+01:00</time>
      </trkpt>
      <trkpt lat="47.70432" lon="-2.93835">
        <ele>51</ele>
        <time>2021-03-16T13:28:51+01:00</time>
      </trkpt>
      <trkpt lat="47.70429" lon="-2.93837">
        <ele>51</ele>
        <time>2021-03-16T13:28:55+01:00</time>
      </trkpt>
      <trkpt lat="47.70426" lon="-2.93838">
        <ele>51</ele>
        <time>2021-03-16T13:28:57+01:00</time>
      </trkpt>
      <trkpt lat="47.70423" lon="-2.93838">
        <ele>51</ele>
        <time>2021-03-16T13:28:58+01:00</time>
      </trkpt>
      <trkpt lat="47.7042" lon="-2.93838">
        <ele>51</ele>
        <time>2021-03-16T13:28:59+01:00</time>
      </trkpt>
      <trkpt lat="47.70417" lon="-2.93837">
        <ele>51</ele>
        <time>2021-03-16T13:29:00+01:00</time>
      </trkpt>
      <trkpt lat="47.70415" lon="-2.93836">
        <ele>51</ele>
        <time>2021-03-16T13:29:01+01:00</time>
      </trkpt>
      <trkpt lat="47.70411" lon="-2.93835">
        <ele>51</ele>
        <time>2021-03-16T13:29:03+01:00</time>
      </trkpt>
      <trkpt lat="47.70406" lon="-2.93833">
        <ele>51</ele>
        <time>2021-03-16T13:29:05+01:00</time>
      </trkpt>
      <trkpt lat="47.70401" lon="-2.93832">
        <ele>51</ele>
        <time>2021-03-16T13:29:07+01:00</time>
      </trkpt>
      <trkpt lat="47.70397" lon="-2.9383">
        <ele>51</ele>
        <time>2021-03-16T13:29:08+01:00</time>
      </trkpt>
      <trkpt lat="47.70394" lon="-2.93829">
        <ele>51</ele>
        <time>2021-03-16T13:29:09+01:00</time>
      </trkpt>
      <trkpt lat="47.7039" lon="-2.93828">
        <ele>51</ele>
        <time>2021-03-16T13:29:11+01:00</time>
      </trkpt>
      <trkpt lat="47.70385" lon="-2.93826">
        <ele>51</ele>
        <time>2021-03-16T13:29:13+01:00</time>
      </trkpt>
      <trkpt lat="47.70381" lon="-2.93825">
        <ele>51</ele>
        <time>2021-03-16T13:29:15+01:00</time>
      </trkpt>
      <trkpt lat="47.70377" lon="-2.93825">
        <ele>51</ele>
        <time>2021-03-16T13:29:17+01:00</time>
      </trkpt>
      <trkpt lat="47.70374" lon="-2.93829">
        <ele>51</ele>
        <time>2021-03-16T13:29:19+01:00</time>
      </trkpt>
      <trkpt lat="47.70373" lon="-2.93834">
        <ele>52</ele>
        <time>2021-03-16T13:29:20+01:00</time>
      </trkpt>
      <trkpt lat="47.70372" lon="-2.93838">
        <ele>52</ele>
        <time>2021-03-16T13:29:21+01:00</time>
      </trkpt>
      <trkpt lat="47.70371" lon="-2.93842">
        <ele>52</ele>
        <time>2021-03-16T13:29:22+01:00</time>
      </trkpt>
      <trkpt lat="47.7037" lon="-2.93847">
        <ele>52</ele>
        <time>2021-03-16T13:29:23+01:00</time>
      </trkpt>
      <trkpt lat="47.70369" lon="-2.93851">
        <ele>52</ele>
        <time>2021-03-16T13:29:24+01:00</time>
      </trkpt>
      <trkpt lat="47.70367" lon="-2.93854">
        <ele>53</ele>
        <time>2021-03-16T13:29:25+01:00</time>
      </trkpt>
      <trkpt lat="47.70365" lon="-2.93857">
        <ele>53</ele>
        <time>2021-03-16T13:29:26+01:00</time>
      </trkpt>
      <trkpt lat="47.70363" lon="-2.93861">
        <ele>53</ele>
        <time>2021-03-16T13:29:27+01:00</time>
      </trkpt>
      <trkpt lat="47.70362" lon="-2.93865">
        <ele>53</ele>
        <time>2021-03-16T13:29:28+01:00</time>
      </trkpt>
      <trkpt lat="47.70362" lon="-2.9387">
        <ele>54</ele>
        <time>2021-03-16T13:29:29+01:00</time>
      </trkpt>
      <trkpt lat="47.70362" lon="-2.93875">
        <ele>54</ele>
        <time>2021-03-16T13:29:30+01:00</time>
      </trkpt>
      <trkpt lat="47.70362" lon="-2.93881">
        <ele>54</ele>
        <time>2021-03-16T13:29:31+01:00</time>
      </trkpt>
      <trkpt lat="47.70363" lon="-2.93886">
        <ele>54</ele>
        <time>2021-03-16T13:29:32+01:00</time>
      </trkpt>
      <trkpt lat="47.70363" lon="-2.93892">
        <ele>55</ele>
        <time>2021-03-16T13:29:33+01:00</time>
      </trkpt>
      <trkpt lat="47.70364" lon="-2.93897">
        <ele>55</ele>
        <time>2021-03-16T13:29:34+01:00</time>
      </trkpt>
      <trkpt lat="47.70365" lon="-2.93902">
        <ele>55</ele>
        <time>2021-03-16T13:29:35+01:00</time>
      </trkpt>
      <trkpt lat="47.70366" lon="-2.93907">
        <ele>55</ele>
        <time>2021-03-16T13:29:36+01:00</time>
      </trkpt>
      <trkpt lat="47.70366" lon="-2.93912">
        <ele>55</ele>
        <time>2021-03-16T13:29:37+01:00</time>
      </trkpt>
      <trkpt lat="47.70367" lon="-2.93918">
        <ele>55</ele>
        <time>2021-03-16T13:29:38+01:00</time>
      </trkpt>
      <trkpt lat="47.70367" lon="-2.93923">
        <ele>55</ele>
        <time>2021-03-16T13:29:39+01:00</time>
      </trkpt>
      <trkpt lat="47.70367" lon="-2.93928">
        <ele>55</ele>
        <time>2021-03-16T13:29:40+01:00</time>
      </trkpt>
      <trkpt lat="47.70368" lon="-2.93932">
        <ele>55</ele>
        <time>2021-03-16T13:29:41+01:00</time>
      </trkpt>
      <trkpt lat="47.70368" lon="-2.93939">
        <ele>55</ele>
        <time>2021-03-16T13:29:43+01:00</time>
      </trkpt>
      <trkpt lat="47.70367" lon="-2.93944">
        <ele>56</ele>
        <time>2021-03-16T13:29:44+01:00</time>
      </trkpt>
      <trkpt lat="47.70367" lon="-2.93949">
        <ele>56</ele>
        <time>2021-03-16T13:29:45+01:00</time>
      </trkpt>
      <trkpt lat="47.70367" lon="-2.93955">
        <ele>56</ele>
        <time>2021-03-16T13:29:46+01:00</time>
      </trkpt>
      <trkpt lat="47.70367" lon="-2.9396">
        <ele>56</ele>
        <time>2021-03-16T13:29:47+01:00</time>
      </trkpt>
      <trkpt lat="47.70367" lon="-2.93965">
        <ele>56</ele>
        <time>2021-03-16T13:29:48+01:00</time>
      </trkpt>
      <trkpt lat="47.70366" lon="-2.93971">
        <ele>56</ele>
        <time>2021-03-16T13:29:49+01:00</time>
      </trkpt>
      <trkpt lat="47.70366" lon="-2.93978">
        <ele>56</ele>
        <time>2021-03-16T13:29:50+01:00</time>
      </trkpt>
      <trkpt lat="47.70365" lon="-2.93984">
        <ele>56</ele>
        <time>2021-03-16T13:29:51+01:00</time>
      </trkpt>
      <trkpt lat="47.70365" lon="-2.93991">
        <ele>56</ele>
        <time>2021-03-16T13:29:52+01:00</time>
      </trkpt>
      <trkpt lat="47.70364" lon="-2.93997">
        <ele>56</ele>
        <time>2021-03-16T13:29:53+01:00</time>
      </trkpt>
      <trkpt lat="47.70364" lon="-2.94003">
        <ele>56</ele>
        <time>2021-03-16T13:29:54+01:00</time>
      </trkpt>
      <trkpt lat="47.70364" lon="-2.94009">
        <ele>56</ele>
        <time>2021-03-16T13:29:55+01:00</time>
      </trkpt>
      <trkpt lat="47.70364" lon="-2.94015">
        <ele>56</ele>
        <time>2021-03-16T13:29:56+01:00</time>
      </trkpt>
      <trkpt lat="47.70364" lon="-2.9402">
        <ele>56</ele>
        <time>2021-03-16T13:29:57+01:00</time>
      </trkpt>
      <trkpt lat="47.70364" lon="-2.94026">
        <ele>56</ele>
        <time>2021-03-16T13:29:58+01:00</time>
      </trkpt>
      <trkpt lat="47.70363" lon="-2.94032">
        <ele>56</ele>
        <time>2021-03-16T13:29:59+01:00</time>
      </trkpt>
      <trkpt lat="47.70363" lon="-2.94038">
        <ele>56</ele>
        <time>2021-03-16T13:30:00+01:00</time>
      </trkpt>
      <trkpt lat="47.70363" lon="-2.94043">
        <ele>56</ele>
        <time>2021-03-16T13:30:01+01:00</time>
      </trkpt>
      <trkpt lat="47.70362" lon="-2.94049">
        <ele>57</ele>
        <time>2021-03-16T13:30:02+01:00</time>
      </trkpt>
      <trkpt lat="47.70361" lon="-2.94055">
        <ele>57</ele>
        <time>2021-03-16T13:30:03+01:00</time>
      </trkpt>
      <trkpt lat="47.70361" lon="-2.94061">
        <ele>57</ele>
        <time>2021-03-16T13:30:04+01:00</time>
      </trkpt>
      <trkpt lat="47.70361" lon="-2.94066">
        <ele>57</ele>
        <time>2021-03-16T13:30:05+01:00</time>
      </trkpt>
      <trkpt lat="47.70361" lon="-2.94072">
        <ele>57</ele>
        <time>2021-03-16T13:30:06+01:00</time>
      </trkpt>
      <trkpt lat="47.7036" lon="-2.94078">
        <ele>57</ele>
        <time>2021-03-16T13:30:07+01:00</time>
      </trkpt>
      <trkpt lat="47.7036" lon="-2.94084">
        <ele>57</ele>
        <time>2021-03-16T13:30:08+01:00</time>
      </trkpt>
      <trkpt lat="47.7036" lon="-2.9409">
        <ele>57</ele>
        <time>2021-03-16T13:30:09+01:00</time>
      </trkpt>
      <trkpt lat="47.7036" lon="-2.94096">
        <ele>57</ele>
        <time>2021-03-16T13:30:10+01:00</time>
      </trkpt>
      <trkpt lat="47.7036" lon="-2.94103">
        <ele>57</ele>
        <time>2021-03-16T13:30:11+01:00</time>
      </trkpt>
      <trkpt lat="47.70361" lon="-2.94109">
        <ele>56</ele>
        <time>2021-03-16T13:30:12+01:00</time>
      </trkpt>
      <trkpt lat="47.70362" lon="-2.94115">
        <ele>56</ele>
        <time>2021-03-16T13:30:13+01:00</time>
      </trkpt>
      <trkpt lat="47.70363" lon="-2.94121">
        <ele>56</ele>
        <time>2021-03-16T13:30:14+01:00</time>
      </trkpt>
      <trkpt lat="47.70363" lon="-2.94126">
        <ele>56</ele>
        <time>2021-03-16T13:30:15+01:00</time>
      </trkpt>
      <trkpt lat="47.70364" lon="-2.94132">
        <ele>56</ele>
        <time>2021-03-16T13:30:16+01:00</time>
      </trkpt>
      <trkpt lat="47.70364" lon="-2.94138">
        <ele>56</ele>
        <time>2021-03-16T13:30:17+01:00</time>
      </trkpt>
      <trkpt lat="47.70365" lon="-2.94143">
        <ele>56</ele>
        <time>2021-03-16T13:30:18+01:00</time>
      </trkpt>
      <trkpt lat="47.70365" lon="-2.94148">
        <ele>56</ele>
        <time>2021-03-16T13:30:19+01:00</time>
      </trkpt>
      <trkpt lat="47.70366" lon="-2.94152">
        <ele>56</ele>
        <time>2021-03-16T13:30:20+01:00</time>
      </trkpt>
      <trkpt lat="47.70367" lon="-2.94156">
        <ele>55</ele>
        <time>2021-03-16T13:30:21+01:00</time>
      </trkpt>
      <trkpt lat="47.70369" lon="-2.94161">
        <ele>55</ele>
        <time>2021-03-16T13:30:23+01:00</time>
      </trkpt>
      <trkpt lat="47.70373" lon="-2.94165">
        <ele>55</ele>
        <time>2021-03-16T13:30:25+01:00</time>
      </trkpt>
      <trkpt lat="47.70376" lon="-2.9417">
        <ele>55</ele>
        <time>2021-03-16T13:30:27+01:00</time>
      </trkpt>
      <trkpt lat="47.70377" lon="-2.94176">
        <ele>55</ele>
        <time>2021-03-16T13:30:29+01:00</time>
      </trkpt>
      <trkpt lat="47.70378" lon="-2.94181">
        <ele>55</ele>
        <time>2021-03-16T13:30:53+01:00</time>
      </trkpt>
      <trkpt lat="47.70377" lon="-2.94186">
        <ele>54</ele>
        <time>2021-03-16T13:30:55+01:00</time>
      </trkpt>
      <trkpt lat="47.70375" lon="-2.94191">
        <ele>54</ele>
        <time>2021-03-16T13:30:57+01:00</time>
      </trkpt>
      <trkpt lat="47.70375" lon="-2.94197">
        <ele>54</ele>
        <time>2021-03-16T13:30:59+01:00</time>
      </trkpt>
      <trkpt lat="47.70377" lon="-2.94203">
        <ele>54</ele>
        <time>2021-03-16T13:31:01+01:00</time>
      </trkpt>
      <trkpt lat="47.7038" lon="-2.9421">
        <ele>54</ele>
        <time>2021-03-16T13:31:03+01:00</time>
      </trkpt>
      <trkpt lat="47.70382" lon="-2.94216">
        <ele>54</ele>
        <time>2021-03-16T13:31:05+01:00</time>
      </trkpt>
      <trkpt lat="47.70384" lon="-2.94222">
        <ele>53</ele>
        <time>2021-03-16T13:31:07+01:00</time>
      </trkpt>
      <trkpt lat="47.70384" lon="-2.94227">
        <ele>53</ele>
        <time>2021-03-16T13:31:10+01:00</time>
      </trkpt>
      <trkpt lat="47.70385" lon="-2.94232">
        <ele>53</ele>
        <time>2021-03-16T13:32:19+01:00</time>
      </trkpt>
      <trkpt lat="47.70385" lon="-2.94238">
        <ele>53</ele>
        <time>2021-03-16T13:32:21+01:00</time>
      </trkpt>
      <trkpt lat="47.70386" lon="-2.94244">
        <ele>53</ele>
        <time>2021-03-16T13:32:23+01:00</time>
      </trkpt>
      <trkpt lat="47.70386" lon="-2.94249">
        <ele>53</ele>
        <time>2021-03-16T13:32:24+01:00</time>
      </trkpt>
      <trkpt lat="47.70387" lon="-2.94254">
        <ele>53</ele>
        <time>2021-03-16T13:32:25+01:00</time>
      </trkpt>
      <trkpt lat="47.70388" lon="-2.9426">
        <ele>52</ele>
        <time>2021-03-16T13:32:26+01:00</time>
      </trkpt>
      <trkpt lat="47.70389" lon="-2.94265">
        <ele>52</ele>
        <time>2021-03-16T13:32:27+01:00</time>
      </trkpt>
      <trkpt lat="47.7039" lon="-2.94271">
        <ele>52</ele>
        <time>2021-03-16T13:32:28+01:00</time>
      </trkpt>
      <trkpt lat="47.70391" lon="-2.94277">
        <ele>52</ele>
        <time>2021-03-16T13:32:29+01:00</time>
      </trkpt>
      <trkpt lat="47.70393" lon="-2.94282">
        <ele>52</ele>
        <time>2021-03-16T13:32:30+01:00</time>
      </trkpt>
      <trkpt lat="47.70395" lon="-2.94288">
        <ele>52</ele>
        <time>2021-03-16T13:32:31+01:00</time>
      </trkpt>
      <trkpt lat="47.70396" lon="-2.94294">
        <ele>52</ele>
        <time>2021-03-16T13:32:32+01:00</time>
      </trkpt>
      <trkpt lat="47.70398" lon="-2.943">
        <ele>51</ele>
        <time>2021-03-16T13:32:33+01:00</time>
      </trkpt>
      <trkpt lat="47.704" lon="-2.94305">
        <ele>51</ele>
        <time>2021-03-16T13:32:34+01:00</time>
      </trkpt>
      <trkpt lat="47.70401" lon="-2.94311">
        <ele>51</ele>
        <time>2021-03-16T13:32:35+01:00</time>
      </trkpt>
      <trkpt lat="47.70403" lon="-2.94317">
        <ele>51</ele>
        <time>2021-03-16T13:32:36+01:00</time>
      </trkpt>
      <trkpt lat="47.70405" lon="-2.94323">
        <ele>51</ele>
        <time>2021-03-16T13:32:37+01:00</time>
      </trkpt>
      <trkpt lat="47.70406" lon="-2.9433">
        <ele>50</ele>
        <time>2021-03-16T13:32:38+01:00</time>
      </trkpt>
      <trkpt lat="47.70408" lon="-2.94336">
        <ele>50</ele>
        <time>2021-03-16T13:32:39+01:00</time>
      </trkpt>
      <trkpt lat="47.70409" lon="-2.94342">
        <ele>51</ele>
        <time>2021-03-16T13:32:40+01:00</time>
      </trkpt>
      <trkpt lat="47.70411" lon="-2.94348">
        <ele>51</ele>
        <time>2021-03-16T13:32:41+01:00</time>
      </trkpt>
      <trkpt lat="47.70412" lon="-2.94355">
        <ele>51</ele>
        <time>2021-03-16T13:32:42+01:00</time>
      </trkpt>
      <trkpt lat="47.70413" lon="-2.94361">
        <ele>51</ele>
        <time>2021-03-16T13:32:43+01:00</time>
      </trkpt>
      <trkpt lat="47.70413" lon="-2.94368">
        <ele>51</ele>
        <time>2021-03-16T13:32:44+01:00</time>
      </trkpt>
      <trkpt lat="47.70414" lon="-2.94374">
        <ele>52</ele>
        <time>2021-03-16T13:32:45+01:00</time>
      </trkpt>
      <trkpt lat="47.70414" lon="-2.9438">
        <ele>52</ele>
        <time>2021-03-16T13:32:46+01:00</time>
      </trkpt>
      <trkpt lat="47.70415" lon="-2.94386">
        <ele>52</ele>
        <time>2021-03-16T13:32:47+01:00</time>
      </trkpt>
      <trkpt lat="47.70415" lon="-2.94392">
        <ele>52</ele>
        <time>2021-03-16T13:32:48+01:00</time>
      </trkpt>
      <trkpt lat="47.70415" lon="-2.94398">
        <ele>52</ele>
        <time>2021-03-16T13:32:49+01:00</time>
      </trkpt>
      <trkpt lat="47.70414" lon="-2.94403">
        <ele>53</ele>
        <time>2021-03-16T13:32:50+01:00</time>
      </trkpt>
      <trkpt lat="47.70413" lon="-2.94409">
        <ele>53</ele>
        <time>2021-03-16T13:32:51+01:00</time>
      </trkpt>
      <trkpt lat="47.70413" lon="-2.94414">
        <ele>53</ele>
        <time>2021-03-16T13:32:52+01:00</time>
      </trkpt>
      <trkpt lat="47.70413" lon="-2.9442">
        <ele>53</ele>
        <time>2021-03-16T13:32:53+01:00</time>
      </trkpt>
      <trkpt lat="47.70413" lon="-2.94426">
        <ele>53</ele>
        <time>2021-03-16T13:32:54+01:00</time>
      </trkpt>
      <trkpt lat="47.70413" lon="-2.94431">
        <ele>53</ele>
        <time>2021-03-16T13:32:55+01:00</time>
      </trkpt>
      <trkpt lat="47.70412" lon="-2.94437">
        <ele>53</ele>
        <time>2021-03-16T13:32:56+01:00</time>
      </trkpt>
      <trkpt lat="47.70412" lon="-2.94443">
        <ele>53</ele>
        <time>2021-03-16T13:32:57+01:00</time>
      </trkpt>
      <trkpt lat="47.70412" lon="-2.94449">
        <ele>53</ele>
        <time>2021-03-16T13:32:58+01:00</time>
      </trkpt>
      <trkpt lat="47.70412" lon="-2.94455">
        <ele>53</ele>
        <time>2021-03-16T13:32:59+01:00</time>
      </trkpt>
      <trkpt lat="47.70412" lon="-2.94461">
        <ele>53</ele>
        <time>2021-03-16T13:33:00+01:00</time>
      </trkpt>
      <trkpt lat="47.70411" lon="-2.94467">
        <ele>53</ele>
        <time>2021-03-16T13:33:01+01:00</time>
      </trkpt>
      <trkpt lat="47.70411" lon="-2.94472">
        <ele>53</ele>
        <time>2021-03-16T13:33:02+01:00</time>
      </trkpt>
      <trkpt lat="47.7041" lon="-2.94478">
        <ele>53</ele>
        <time>2021-03-16T13:33:03+01:00</time>
      </trkpt>
      <trkpt lat="47.7041" lon="-2.94483">
        <ele>53</ele>
        <time>2021-03-16T13:33:04+01:00</time>
      </trkpt>
      <trkpt lat="47.70409" lon="-2.94489">
        <ele>53</ele>
        <time>2021-03-16T13:33:05+01:00</time>
      </trkpt>
      <trkpt lat="47.70409" lon="-2.94494">
        <ele>53</ele>
        <time>2021-03-16T13:33:06+01:00</time>
      </trkpt>
      <trkpt lat="47.70408" lon="-2.945">
        <ele>53</ele>
        <time>2021-03-16T13:33:07+01:00</time>
      </trkpt>
      <trkpt lat="47.70408" lon="-2.94506">
        <ele>53</ele>
        <time>2021-03-16T13:33:08+01:00</time>
      </trkpt>
      <trkpt lat="47.70408" lon="-2.94512">
        <ele>53</ele>
        <time>2021-03-16T13:33:09+01:00</time>
      </trkpt>
      <trkpt lat="47.70408" lon="-2.94518">
        <ele>53</ele>
        <time>2021-03-16T13:33:10+01:00</time>
      </trkpt>
      <trkpt lat="47.70407" lon="-2.94524">
        <ele>53</ele>
        <time>2021-03-16T13:33:11+01:00</time>
      </trkpt>
      <trkpt lat="47.70407" lon="-2.9453">
        <ele>53</ele>
        <time>2021-03-16T13:33:12+01:00</time>
      </trkpt>
      <trkpt lat="47.70407" lon="-2.94536">
        <ele>53</ele>
        <time>2021-03-16T13:33:13+01:00</time>
      </trkpt>
      <trkpt lat="47.70407" lon="-2.94541">
        <ele>53</ele>
        <time>2021-03-16T13:33:14+01:00</time>
      </trkpt>
      <trkpt lat="47.70407" lon="-2.94547">
        <ele>53</ele>
        <time>2021-03-16T13:33:15+01:00</time>
      </trkpt>
      <trkpt lat="47.70406" lon="-2.94553">
        <ele>53</ele>
        <time>2021-03-16T13:33:16+01:00</time>
      </trkpt>
      <trkpt lat="47.70406" lon="-2.94558">
        <ele>53</ele>
        <time>2021-03-16T13:33:17+01:00</time>
      </trkpt>
      <trkpt lat="47.70405" lon="-2.94563">
        <ele>53</ele>
        <time>2021-03-16T13:33:18+01:00</time>
      </trkpt>
      <trkpt lat="47.70404" lon="-2.94568">
        <ele>53</ele>
        <time>2021-03-16T13:33:19+01:00</time>
      </trkpt>
      <trkpt lat="47.70404" lon="-2.94573">
        <ele>53</ele>
        <time>2021-03-16T13:33:20+01:00</time>
      </trkpt>
      <trkpt lat="47.70404" lon="-2.94579">
        <ele>53</ele>
        <time>2021-03-16T13:33:21+01:00</time>
      </trkpt>
      <trkpt lat="47.70404" lon="-2.94585">
        <ele>53</ele>
        <time>2021-03-16T13:33:22+01:00</time>
      </trkpt>
      <trkpt lat="47.70403" lon="-2.9459">
        <ele>53</ele>
        <time>2021-03-16T13:33:23+01:00</time>
      </trkpt>
      <trkpt lat="47.70402" lon="-2.94596">
        <ele>53</ele>
        <time>2021-03-16T13:33:24+01:00</time>
      </trkpt>
      <trkpt lat="47.70401" lon="-2.94601">
        <ele>53</ele>
        <time>2021-03-16T13:33:25+01:00</time>
      </trkpt>
      <trkpt lat="47.704" lon="-2.94607">
        <ele>53</ele>
        <time>2021-03-16T13:33:26+01:00</time>
      </trkpt>
      <trkpt lat="47.70399" lon="-2.94613">
        <ele>53</ele>
        <time>2021-03-16T13:33:27+01:00</time>
      </trkpt>
      <trkpt lat="47.70399" lon="-2.9462">
        <ele>53</ele>
        <time>2021-03-16T13:33:28+01:00</time>
      </trkpt>
      <trkpt lat="47.70398" lon="-2.94626">
        <ele>53</ele>
        <time>2021-03-16T13:33:29+01:00</time>
      </trkpt>
      <trkpt lat="47.70398" lon="-2.94632">
        <ele>53</ele>
        <time>2021-03-16T13:33:30+01:00</time>
      </trkpt>
      <trkpt lat="47.70398" lon="-2.94638">
        <ele>53</ele>
        <time>2021-03-16T13:33:31+01:00</time>
      </trkpt>
      <trkpt lat="47.70397" lon="-2.94645">
        <ele>53</ele>
        <time>2021-03-16T13:33:32+01:00</time>
      </trkpt>
      <trkpt lat="47.70397" lon="-2.94651">
        <ele>53</ele>
        <time>2021-03-16T13:33:33+01:00</time>
      </trkpt>
      <trkpt lat="47.70397" lon="-2.94658">
        <ele>53</ele>
        <time>2021-03-16T13:33:34+01:00</time>
      </trkpt>
      <trkpt lat="47.70397" lon="-2.94665">
        <ele>53</ele>
        <time>2021-03-16T13:33:35+01:00</time>
      </trkpt>
      <trkpt lat="47.70396" lon="-2.94672">
        <ele>53</ele>
        <time>2021-03-16T13:33:36+01:00</time>
      </trkpt>
      <trkpt lat="47.70396" lon="-2.94679">
        <ele>53</ele>
        <time>2021-03-16T13:33:37+01:00</time>
      </trkpt>
      <trkpt lat="47.70396" lon="-2.94686">
        <ele>53</ele>
        <time>2021-03-16T13:33:38+01:00</time>
      </trkpt>
      <trkpt lat="47.70395" lon="-2.94693">
        <ele>54</ele>
        <time>2021-03-16T13:33:39+01:00</time>
      </trkpt>
      <trkpt lat="47.70395" lon="-2.94701">
        <ele>54</ele>
        <time>2021-03-16T13:33:40+01:00</time>
      </trkpt>
      <trkpt lat="47.70394" lon="-2.94707">
        <ele>54</ele>
        <time>2021-03-16T13:33:41+01:00</time>
      </trkpt>
      <trkpt lat="47.70393" lon="-2.94714">
        <ele>54</ele>
        <time>2021-03-16T13:33:42+01:00</time>
      </trkpt>
      <trkpt lat="47.70392" lon="-2.94721">
        <ele>54</ele>
        <time>2021-03-16T13:33:43+01:00</time>
      </trkpt>
      <trkpt lat="47.70392" lon="-2.94728">
        <ele>54</ele>
        <time>2021-03-16T13:33:44+01:00</time>
      </trkpt>
      <trkpt lat="47.70392" lon="-2.94734">
        <ele>54</ele>
        <time>2021-03-16T13:33:45+01:00</time>
      </trkpt>
      <trkpt lat="47.70392" lon="-2.94741">
        <ele>54</ele>
        <time>2021-03-16T13:33:46+01:00</time>
      </trkpt>
      <trkpt lat="47.70392" lon="-2.94748">
        <ele>54</ele>
        <time>2021-03-16T13:33:47+01:00</time>
      </trkpt>
      <trkpt lat="47.70391" lon="-2.94754">
        <ele>54</ele>
        <time>2021-03-16T13:33:48+01:00</time>
      </trkpt>
      <trkpt lat="47.70391" lon="-2.94761">
        <ele>53</ele>
        <time>2021-03-16T13:33:49+01:00</time>
      </trkpt>
      <trkpt lat="47.70391" lon="-2.94767">
        <ele>53</ele>
        <time>2021-03-16T13:33:50+01:00</time>
      </trkpt>
      <trkpt lat="47.70391" lon="-2.94773">
        <ele>53</ele>
        <time>2021-03-16T13:33:51+01:00</time>
      </trkpt>
      <trkpt lat="47.70392" lon="-2.9478">
        <ele>53</ele>
        <time>2021-03-16T13:33:52+01:00</time>
      </trkpt>
      <trkpt lat="47.70392" lon="-2.94786">
        <ele>53</ele>
        <time>2021-03-16T13:33:53+01:00</time>
      </trkpt>
      <trkpt lat="47.70393" lon="-2.94793">
        <ele>53</ele>
        <time>2021-03-16T13:33:54+01:00</time>
      </trkpt>
      <trkpt lat="47.70393" lon="-2.94799">
        <ele>53</ele>
        <time>2021-03-16T13:33:55+01:00</time>
      </trkpt>
      <trkpt lat="47.70394" lon="-2.94805">
        <ele>53</ele>
        <time>2021-03-16T13:33:56+01:00</time>
      </trkpt>
      <trkpt lat="47.70394" lon="-2.94812">
        <ele>53</ele>
        <time>2021-03-16T13:33:57+01:00</time>
      </trkpt>
      <trkpt lat="47.70395" lon="-2.94818">
        <ele>52</ele>
        <time>2021-03-16T13:33:58+01:00</time>
      </trkpt>
      <trkpt lat="47.70395" lon="-2.94825">
        <ele>52</ele>
        <time>2021-03-16T13:33:59+01:00</time>
      </trkpt>
      <trkpt lat="47.70396" lon="-2.94831">
        <ele>52</ele>
        <time>2021-03-16T13:34:00+01:00</time>
      </trkpt>
      <trkpt lat="47.70396" lon="-2.94838">
        <ele>52</ele>
        <time>2021-03-16T13:34:01+01:00</time>
      </trkpt>
      <trkpt lat="47.70397" lon="-2.94844">
        <ele>52</ele>
        <time>2021-03-16T13:34:02+01:00</time>
      </trkpt>
      <trkpt lat="47.70398" lon="-2.94851">
        <ele>52</ele>
        <time>2021-03-16T13:34:03+01:00</time>
      </trkpt>
      <trkpt lat="47.70399" lon="-2.94858">
        <ele>52</ele>
        <time>2021-03-16T13:34:04+01:00</time>
      </trkpt>
      <trkpt lat="47.704" lon="-2.94864">
        <ele>52</ele>
        <time>2021-03-16T13:34:05+01:00</time>
      </trkpt>
      <trkpt lat="47.704" lon="-2.94871">
        <ele>52</ele>
        <time>2021-03-16T13:34:06+01:00</time>
      </trkpt>
      <trkpt lat="47.70401" lon="-2.94878">
        <ele>52</ele>
        <time>2021-03-16T13:34:07+01:00</time>
      </trkpt>
      <trkpt lat="47.70401" lon="-2.94884">
        <ele>52</ele>
        <time>2021-03-16T13:34:08+01:00</time>
      </trkpt>
      <trkpt lat="47.70401" lon="-2.94891">
        <ele>52</ele>
        <time>2021-03-16T13:34:09+01:00</time>
      </trkpt>
      <trkpt lat="47.70401" lon="-2.94898">
        <ele>52</ele>
        <time>2021-03-16T13:34:10+01:00</time>
      </trkpt>
      <trkpt lat="47.704" lon="-2.94905">
        <ele>52</ele>
        <time>2021-03-16T13:34:11+01:00</time>
      </trkpt>
      <trkpt lat="47.70399" lon="-2.94912">
        <ele>52</ele>
        <time>2021-03-16T13:34:12+01:00</time>
      </trkpt>
      <trkpt lat="47.70398" lon="-2.94918">
        <ele>52</ele>
        <time>2021-03-16T13:34:13+01:00</time>
      </trkpt>
      <trkpt lat="47.70397" lon="-2.94925">
        <ele>52</ele>
        <time>2021-03-16T13:34:14+01:00</time>
      </trkpt>
      <trkpt lat="47.70395" lon="-2.94932">
        <ele>52</ele>
        <time>2021-03-16T13:34:15+01:00</time>
      </trkpt>
      <trkpt lat="47.70393" lon="-2.94938">
        <ele>52</ele>
        <time>2021-03-16T13:34:16+01:00</time>
      </trkpt>
      <trkpt lat="47.70392" lon="-2.94944">
        <ele>52</ele>
        <time>2021-03-16T13:34:17+01:00</time>
      </trkpt>
      <trkpt lat="47.7039" lon="-2.9495">
        <ele>52</ele>
        <time>2021-03-16T13:34:18+01:00</time>
      </trkpt>
      <trkpt lat="47.70389" lon="-2.94956">
        <ele>52</ele>
        <time>2021-03-16T13:34:19+01:00</time>
      </trkpt>
      <trkpt lat="47.70387" lon="-2.94962">
        <ele>52</ele>
        <time>2021-03-16T13:34:20+01:00</time>
      </trkpt>
      <trkpt lat="47.70385" lon="-2.94967">
        <ele>52</ele>
        <time>2021-03-16T13:34:21+01:00</time>
      </trkpt>
      <trkpt lat="47.70383" lon="-2.94974">
        <ele>51</ele>
        <time>2021-03-16T13:34:22+01:00</time>
      </trkpt>
      <trkpt lat="47.70382" lon="-2.9498">
        <ele>51</ele>
        <time>2021-03-16T13:34:23+01:00</time>
      </trkpt>
      <trkpt lat="47.7038" lon="-2.94986">
        <ele>51</ele>
        <time>2021-03-16T13:34:24+01:00</time>
      </trkpt>
      <trkpt lat="47.70379" lon="-2.94993">
        <ele>51</ele>
        <time>2021-03-16T13:34:25+01:00</time>
      </trkpt>
      <trkpt lat="47.70378" lon="-2.95">
        <ele>51</ele>
        <time>2021-03-16T13:34:26+01:00</time>
      </trkpt>
      <trkpt lat="47.70377" lon="-2.95007">
        <ele>51</ele>
        <time>2021-03-16T13:34:27+01:00</time>
      </trkpt>
      <trkpt lat="47.70377" lon="-2.95014">
        <ele>51</ele>
        <time>2021-03-16T13:34:28+01:00</time>
      </trkpt>
      <trkpt lat="47.70376" lon="-2.95021">
        <ele>51</ele>
        <time>2021-03-16T13:34:29+01:00</time>
      </trkpt>
      <trkpt lat="47.70375" lon="-2.95027">
        <ele>51</ele>
        <time>2021-03-16T13:34:30+01:00</time>
      </trkpt>
      <trkpt lat="47.70373" lon="-2.95034">
        <ele>51</ele>
        <time>2021-03-16T13:34:31+01:00</time>
      </trkpt>
      <trkpt lat="47.70372" lon="-2.95039">
        <ele>51</ele>
        <time>2021-03-16T13:34:32+01:00</time>
      </trkpt>
      <trkpt lat="47.7037" lon="-2.95045">
        <ele>51</ele>
        <time>2021-03-16T13:34:33+01:00</time>
      </trkpt>
      <trkpt lat="47.70369" lon="-2.95051">
        <ele>51</ele>
        <time>2021-03-16T13:34:34+01:00</time>
      </trkpt>
      <trkpt lat="47.70368" lon="-2.95057">
        <ele>51</ele>
        <time>2021-03-16T13:34:35+01:00</time>
      </trkpt>
      <trkpt lat="47.70368" lon="-2.95063">
        <ele>51</ele>
        <time>2021-03-16T13:34:36+01:00</time>
      </trkpt>
      <trkpt lat="47.70367" lon="-2.95069">
        <ele>51</ele>
        <time>2021-03-16T13:34:37+01:00</time>
      </trkpt>
      <trkpt lat="47.70366" lon="-2.95075">
        <ele>51</ele>
        <time>2021-03-16T13:34:38+01:00</time>
      </trkpt>
      <trkpt lat="47.70365" lon="-2.95081">
        <ele>51</ele>
        <time>2021-03-16T13:34:39+01:00</time>
      </trkpt>
      <trkpt lat="47.70365" lon="-2.95088">
        <ele>51</ele>
        <time>2021-03-16T13:34:40+01:00</time>
      </trkpt>
      <trkpt lat="47.70365" lon="-2.95094">
        <ele>51</ele>
        <time>2021-03-16T13:34:41+01:00</time>
      </trkpt>
      <trkpt lat="47.70365" lon="-2.951">
        <ele>51</ele>
        <time>2021-03-16T13:34:42+01:00</time>
      </trkpt>
      <trkpt lat="47.70364" lon="-2.95106">
        <ele>51</ele>
        <time>2021-03-16T13:34:43+01:00</time>
      </trkpt>
      <trkpt lat="47.70363" lon="-2.95112">
        <ele>51</ele>
        <time>2021-03-16T13:34:44+01:00</time>
      </trkpt>
      <trkpt lat="47.70362" lon="-2.95118">
        <ele>51</ele>
        <time>2021-03-16T13:34:45+01:00</time>
      </trkpt>
      <trkpt lat="47.70361" lon="-2.95124">
        <ele>51</ele>
        <time>2021-03-16T13:34:46+01:00</time>
      </trkpt>
      <trkpt lat="47.70359" lon="-2.9513">
        <ele>51</ele>
        <time>2021-03-16T13:34:47+01:00</time>
      </trkpt>
      <trkpt lat="47.70358" lon="-2.95136">
        <ele>51</ele>
        <time>2021-03-16T13:34:48+01:00</time>
      </trkpt>
      <trkpt lat="47.70357" lon="-2.95143">
        <ele>51</ele>
        <time>2021-03-16T13:34:49+01:00</time>
      </trkpt>
      <trkpt lat="47.70357" lon="-2.9515">
        <ele>51</ele>
        <time>2021-03-16T13:34:50+01:00</time>
      </trkpt>
      <trkpt lat="47.70357" lon="-2.95157">
        <ele>51</ele>
        <time>2021-03-16T13:34:51+01:00</time>
      </trkpt>
      <trkpt lat="47.70357" lon="-2.95163">
        <ele>51</ele>
        <time>2021-03-16T13:34:52+01:00</time>
      </trkpt>
      <trkpt lat="47.70358" lon="-2.95169">
        <ele>51</ele>
        <time>2021-03-16T13:34:53+01:00</time>
      </trkpt>
      <trkpt lat="47.70358" lon="-2.95175">
        <ele>51</ele>
        <time>2021-03-16T13:34:54+01:00</time>
      </trkpt>
      <trkpt lat="47.70358" lon="-2.95182">
        <ele>51</ele>
        <time>2021-03-16T13:34:55+01:00</time>
      </trkpt>
      <trkpt lat="47.70359" lon="-2.95188">
        <ele>51</ele>
        <time>2021-03-16T13:34:56+01:00</time>
      </trkpt>
      <trkpt lat="47.70359" lon="-2.95194">
        <ele>51</ele>
        <time>2021-03-16T13:34:57+01:00</time>
      </trkpt>
      <trkpt lat="47.7036" lon="-2.95201">
        <ele>51</ele>
        <time>2021-03-16T13:34:58+01:00</time>
      </trkpt>
      <trkpt lat="47.7036" lon="-2.95207">
        <ele>51</ele>
        <time>2021-03-16T13:34:59+01:00</time>
      </trkpt>
      <trkpt lat="47.70361" lon="-2.95213">
        <ele>51</ele>
        <time>2021-03-16T13:35:00+01:00</time>
      </trkpt>
      <trkpt lat="47.70361" lon="-2.95219">
        <ele>51</ele>
        <time>2021-03-16T13:35:01+01:00</time>
      </trkpt>
      <trkpt lat="47.70362" lon="-2.95225">
        <ele>51</ele>
        <time>2021-03-16T13:35:02+01:00</time>
      </trkpt>
      <trkpt lat="47.70362" lon="-2.95231">
        <ele>51</ele>
        <time>2021-03-16T13:35:03+01:00</time>
      </trkpt>
      <trkpt lat="47.70363" lon="-2.95237">
        <ele>51</ele>
        <time>2021-03-16T13:35:04+01:00</time>
      </trkpt>
      <trkpt lat="47.70363" lon="-2.95244">
        <ele>51</ele>
        <time>2021-03-16T13:35:05+01:00</time>
      </trkpt>
      <trkpt lat="47.70363" lon="-2.95251">
        <ele>51</ele>
        <time>2021-03-16T13:35:06+01:00</time>
      </trkpt>
      <trkpt lat="47.70364" lon="-2.95257">
        <ele>51</ele>
        <time>2021-03-16T13:35:07+01:00</time>
      </trkpt>
      <trkpt lat="47.70366" lon="-2.95264">
        <ele>51</ele>
        <time>2021-03-16T13:35:08+01:00</time>
      </trkpt>
      <trkpt lat="47.70367" lon="-2.95271">
        <ele>51</ele>
        <time>2021-03-16T13:35:09+01:00</time>
      </trkpt>
      <trkpt lat="47.70369" lon="-2.95277">
        <ele>51</ele>
        <time>2021-03-16T13:35:10+01:00</time>
      </trkpt>
      <trkpt lat="47.70372" lon="-2.95284">
        <ele>51</ele>
        <time>2021-03-16T13:35:11+01:00</time>
      </trkpt>
      <trkpt lat="47.70374" lon="-2.95291">
        <ele>51</ele>
        <time>2021-03-16T13:35:12+01:00</time>
      </trkpt>
      <trkpt lat="47.70376" lon="-2.95297">
        <ele>51</ele>
        <time>2021-03-16T13:35:13+01:00</time>
      </trkpt>
      <trkpt lat="47.70377" lon="-2.95303">
        <ele>51</ele>
        <time>2021-03-16T13:35:14+01:00</time>
      </trkpt>
      <trkpt lat="47.70378" lon="-2.95309">
        <ele>51</ele>
        <time>2021-03-16T13:35:15+01:00</time>
      </trkpt>
      <trkpt lat="47.70378" lon="-2.95315">
        <ele>51</ele>
        <time>2021-03-16T13:35:16+01:00</time>
      </trkpt>
      <trkpt lat="47.70378" lon="-2.95322">
        <ele>51</ele>
        <time>2021-03-16T13:35:17+01:00</time>
      </trkpt>
      <trkpt lat="47.70379" lon="-2.95328">
        <ele>52</ele>
        <time>2021-03-16T13:35:18+01:00</time>
      </trkpt>
      <trkpt lat="47.70379" lon="-2.95334">
        <ele>52</ele>
        <time>2021-03-16T13:35:19+01:00</time>
      </trkpt>
      <trkpt lat="47.7038" lon="-2.95341">
        <ele>51</ele>
        <time>2021-03-16T13:35:20+01:00</time>
      </trkpt>
      <trkpt lat="47.70381" lon="-2.95347">
        <ele>51</ele>
        <time>2021-03-16T13:35:21+01:00</time>
      </trkpt>
      <trkpt lat="47.70381" lon="-2.95353">
        <ele>51</ele>
        <time>2021-03-16T13:35:22+01:00</time>
      </trkpt>
      <trkpt lat="47.70382" lon="-2.95359">
        <ele>51</ele>
        <time>2021-03-16T13:35:23+01:00</time>
      </trkpt>
      <trkpt lat="47.70382" lon="-2.95366">
        <ele>51</ele>
        <time>2021-03-16T13:35:24+01:00</time>
      </trkpt>
      <trkpt lat="47.70383" lon="-2.95372">
        <ele>51</ele>
        <time>2021-03-16T13:35:25+01:00</time>
      </trkpt>
      <trkpt lat="47.70384" lon="-2.95379">
        <ele>50</ele>
        <time>2021-03-16T13:35:26+01:00</time>
      </trkpt>
      <trkpt lat="47.70384" lon="-2.95386">
        <ele>50</ele>
        <time>2021-03-16T13:35:27+01:00</time>
      </trkpt>
      <trkpt lat="47.70385" lon="-2.95393">
        <ele>50</ele>
        <time>2021-03-16T13:35:28+01:00</time>
      </trkpt>
      <trkpt lat="47.70386" lon="-2.954">
        <ele>50</ele>
        <time>2021-03-16T13:35:29+01:00</time>
      </trkpt>
      <trkpt lat="47.70387" lon="-2.95407">
        <ele>50</ele>
        <time>2021-03-16T13:35:30+01:00</time>
      </trkpt>
      <trkpt lat="47.70387" lon="-2.95412">
        <ele>49</ele>
        <time>2021-03-16T13:35:31+01:00</time>
      </trkpt>
      <trkpt lat="47.70387" lon="-2.95418">
        <ele>49</ele>
        <time>2021-03-16T13:35:32+01:00</time>
      </trkpt>
      <trkpt lat="47.70386" lon="-2.95423">
        <ele>49</ele>
        <time>2021-03-16T13:35:33+01:00</time>
      </trkpt>
      <trkpt lat="47.70386" lon="-2.95429">
        <ele>49</ele>
        <time>2021-03-16T13:35:34+01:00</time>
      </trkpt>
      <trkpt lat="47.70386" lon="-2.95434">
        <ele>49</ele>
        <time>2021-03-16T13:35:35+01:00</time>
      </trkpt>
      <trkpt lat="47.70386" lon="-2.95439">
        <ele>49</ele>
        <time>2021-03-16T13:35:36+01:00</time>
      </trkpt>
      <trkpt lat="47.70386" lon="-2.95444">
        <ele>49</ele>
        <time>2021-03-16T13:35:37+01:00</time>
      </trkpt>
      <trkpt lat="47.70386" lon="-2.95449">
        <ele>49</ele>
        <time>2021-03-16T13:35:38+01:00</time>
      </trkpt>
      <trkpt lat="47.70386" lon="-2.95454">
        <ele>49</ele>
        <time>2021-03-16T13:35:39+01:00</time>
      </trkpt>
      <trkpt lat="47.70387" lon="-2.95458">
        <ele>49</ele>
        <time>2021-03-16T13:35:40+01:00</time>
      </trkpt>
      <trkpt lat="47.70388" lon="-2.95462">
        <ele>48</ele>
        <time>2021-03-16T13:35:41+01:00</time>
      </trkpt>
      <trkpt lat="47.7039" lon="-2.95466">
        <ele>48</ele>
        <time>2021-03-16T13:35:42+01:00</time>
      </trkpt>
      <trkpt lat="47.70392" lon="-2.95471">
        <ele>48</ele>
        <time>2021-03-16T13:35:44+01:00</time>
      </trkpt>
      <trkpt lat="47.70394" lon="-2.95476">
        <ele>48</ele>
        <time>2021-03-16T13:35:51+01:00</time>
      </trkpt>
      <trkpt lat="47.70396" lon="-2.95481">
        <ele>48</ele>
        <time>2021-03-16T13:36:07+01:00</time>
      </trkpt>
      <trkpt lat="47.70397" lon="-2.95486">
        <ele>48</ele>
        <time>2021-03-16T13:36:09+01:00</time>
      </trkpt>
      <trkpt lat="47.70397" lon="-2.95491">
        <ele>48</ele>
        <time>2021-03-16T13:36:11+01:00</time>
      </trkpt>
      <trkpt lat="47.70396" lon="-2.95496">
        <ele>48</ele>
        <time>2021-03-16T13:36:13+01:00</time>
      </trkpt>
    </trkseg>
  </trk>
</gpx>